<?xml version="1.0" encoding="UTF-8" standalone="no" ?>
<gpx xmlns="http://www.topografix.com/GPX/1/1" xmlns:xsi="http://www.w3.org/2001/XMLSchema-instance" xsi:schemaLocation="http://www.topografix.com/GPX/1/1 http://www.topografix.com/GPX/1/1/gpx.xsd" version="1.1" creator="VisuGPX - https://www.visugpx.com">
  <metadata>
    <name>voyage total </name>
  </metadata>
  <trk>
    <name><![CDATA[Jour 1 - Poitiers / Saint Maixent]]></name>
    <trkseg>
      <trkpt lat="46.56812" lon="0.3553">
        <ele>117.3</ele>
        <time>2020-05-30T16:05:25Z</time>
      </trkpt>
      <trkpt lat="46.56816" lon="0.3553">
        <ele>117.3</ele>
        <time>2020-05-30T16:05:26Z</time>
      </trkpt>
      <trkpt lat="46.56816" lon="0.35531">
        <ele>117.3</ele>
        <time>2020-05-30T16:05:27Z</time>
      </trkpt>
      <trkpt lat="46.56815" lon="0.35529">
        <ele>117.3</ele>
        <time>2020-05-30T16:05:28Z</time>
      </trkpt>
      <trkpt lat="46.56815" lon="0.3553">
        <ele>117.3</ele>
        <time>2020-05-30T16:05:29Z</time>
      </trkpt>
      <trkpt lat="46.56815" lon="0.3553">
        <ele>117.3</ele>
        <time>2020-05-30T16:05:30Z</time>
      </trkpt>
      <trkpt lat="46.56816" lon="0.3553">
        <ele>117.3</ele>
        <time>2020-05-30T16:05:31Z</time>
      </trkpt>
      <trkpt lat="46.56817" lon="0.35531">
        <ele>117.3</ele>
        <time>2020-05-30T16:05:32Z</time>
      </trkpt>
      <trkpt lat="46.56816" lon="0.35531">
        <ele>117.3</ele>
        <time>2020-05-30T16:05:33Z</time>
      </trkpt>
      <trkpt lat="46.56816" lon="0.35531">
        <ele>117.3</ele>
        <time>2020-05-30T16:05:34Z</time>
      </trkpt>
      <trkpt lat="46.56815" lon="0.3553">
        <ele>117.3</ele>
        <time>2020-05-30T16:05:35Z</time>
      </trkpt>
      <trkpt lat="46.56815" lon="0.3553">
        <ele>117.3</ele>
        <time>2020-05-30T16:05:37Z</time>
      </trkpt>
      <trkpt lat="46.56814" lon="0.3553">
        <ele>117.3</ele>
        <time>2020-05-30T16:05:38Z</time>
      </trkpt>
      <trkpt lat="46.56814" lon="0.35531">
        <ele>117.3</ele>
        <time>2020-05-30T16:05:39Z</time>
      </trkpt>
      <trkpt lat="46.56814" lon="0.35531">
        <ele>117.3</ele>
        <time>2020-05-30T16:05:40Z</time>
      </trkpt>
      <trkpt lat="46.56813" lon="0.35531">
        <ele>117.3</ele>
        <time>2020-05-30T16:05:41Z</time>
      </trkpt>
      <trkpt lat="46.56813" lon="0.35531">
        <ele>117.3</ele>
        <time>2020-05-30T16:05:42Z</time>
      </trkpt>
      <trkpt lat="46.56812" lon="0.3553">
        <ele>117.3</ele>
        <time>2020-05-30T16:05:43Z</time>
      </trkpt>
      <trkpt lat="46.56813" lon="0.35531">
        <ele>117.3</ele>
        <time>2020-05-30T16:05:44Z</time>
      </trkpt>
      <trkpt lat="46.56813" lon="0.35529">
        <ele>117.3</ele>
        <time>2020-05-30T16:05:45Z</time>
      </trkpt>
      <trkpt lat="46.56814" lon="0.35527">
        <ele>117.3</ele>
        <time>2020-05-30T16:05:46Z</time>
      </trkpt>
      <trkpt lat="46.56814" lon="0.35523">
        <ele>117.3</ele>
        <time>2020-05-30T16:05:47Z</time>
      </trkpt>
      <trkpt lat="46.56817" lon="0.35522">
        <ele>117.3</ele>
        <time>2020-05-30T16:05:48Z</time>
      </trkpt>
      <trkpt lat="46.56818" lon="0.35523">
        <ele>117.3</ele>
        <time>2020-05-30T16:05:49Z</time>
      </trkpt>
      <trkpt lat="46.56821" lon="0.35522">
        <ele>117.3</ele>
        <time>2020-05-30T16:05:50Z</time>
      </trkpt>
      <trkpt lat="46.56823" lon="0.35521">
        <ele>117.3</ele>
        <time>2020-05-30T16:05:51Z</time>
      </trkpt>
      <trkpt lat="46.56824" lon="0.35516">
        <ele>117.3</ele>
        <time>2020-05-30T16:05:52Z</time>
      </trkpt>
      <trkpt lat="46.56827" lon="0.35512">
        <ele>117.3</ele>
        <time>2020-05-30T16:05:53Z</time>
      </trkpt>
      <trkpt lat="46.56829" lon="0.35505">
        <ele>117.3</ele>
        <time>2020-05-30T16:05:54Z</time>
      </trkpt>
      <trkpt lat="46.56832" lon="0.35498">
        <ele>117.2</ele>
        <time>2020-05-30T16:05:55Z</time>
      </trkpt>
      <trkpt lat="46.56836" lon="0.35491">
        <ele>117.2</ele>
        <time>2020-05-30T16:05:56Z</time>
      </trkpt>
      <trkpt lat="46.5684" lon="0.35485">
        <ele>117.2</ele>
        <time>2020-05-30T16:05:57Z</time>
      </trkpt>
      <trkpt lat="46.56845" lon="0.35477">
        <ele>117.1</ele>
        <time>2020-05-30T16:05:58Z</time>
      </trkpt>
      <trkpt lat="46.5685" lon="0.35471">
        <ele>117.1</ele>
        <time>2020-05-30T16:05:59Z</time>
      </trkpt>
      <trkpt lat="46.56854" lon="0.35464">
        <ele>117</ele>
        <time>2020-05-30T16:06:00Z</time>
      </trkpt>
      <trkpt lat="46.56858" lon="0.35456">
        <ele>117</ele>
        <time>2020-05-30T16:06:01Z</time>
      </trkpt>
      <trkpt lat="46.56862" lon="0.35449">
        <ele>116.9</ele>
        <time>2020-05-30T16:06:02Z</time>
      </trkpt>
      <trkpt lat="46.56866" lon="0.35442">
        <ele>116.9</ele>
        <time>2020-05-30T16:06:03Z</time>
      </trkpt>
      <trkpt lat="46.56871" lon="0.35435">
        <ele>116.8</ele>
        <time>2020-05-30T16:06:04Z</time>
      </trkpt>
      <trkpt lat="46.56876" lon="0.35429">
        <ele>116.8</ele>
        <time>2020-05-30T16:06:05Z</time>
      </trkpt>
      <trkpt lat="46.5688" lon="0.35425">
        <ele>116.8</ele>
        <time>2020-05-30T16:06:06Z</time>
      </trkpt>
      <trkpt lat="46.56884" lon="0.3542">
        <ele>116.7</ele>
        <time>2020-05-30T16:06:07Z</time>
      </trkpt>
      <trkpt lat="46.56888" lon="0.35415">
        <ele>116.7</ele>
        <time>2020-05-30T16:06:08Z</time>
      </trkpt>
      <trkpt lat="46.56893" lon="0.3541">
        <ele>116.7</ele>
        <time>2020-05-30T16:06:09Z</time>
      </trkpt>
      <trkpt lat="46.56896" lon="0.35405">
        <ele>116.7</ele>
        <time>2020-05-30T16:06:10Z</time>
      </trkpt>
      <trkpt lat="46.56902" lon="0.35402">
        <ele>116.7</ele>
        <time>2020-05-30T16:06:11Z</time>
      </trkpt>
      <trkpt lat="46.56906" lon="0.35397">
        <ele>116.7</ele>
        <time>2020-05-30T16:06:12Z</time>
      </trkpt>
      <trkpt lat="46.5691" lon="0.35391">
        <ele>116.7</ele>
        <time>2020-05-30T16:06:13Z</time>
      </trkpt>
      <trkpt lat="46.56912" lon="0.35385">
        <ele>116.7</ele>
        <time>2020-05-30T16:06:14Z</time>
      </trkpt>
      <trkpt lat="46.56916" lon="0.35378">
        <ele>116.7</ele>
        <time>2020-05-30T16:06:15Z</time>
      </trkpt>
      <trkpt lat="46.56919" lon="0.35372">
        <ele>116.8</ele>
        <time>2020-05-30T16:06:16Z</time>
      </trkpt>
      <trkpt lat="46.56922" lon="0.35365">
        <ele>116.8</ele>
        <time>2020-05-30T16:06:17Z</time>
      </trkpt>
      <trkpt lat="46.56925" lon="0.35359">
        <ele>116.8</ele>
        <time>2020-05-30T16:06:18Z</time>
      </trkpt>
      <trkpt lat="46.56929" lon="0.35352">
        <ele>116.8</ele>
        <time>2020-05-30T16:06:19Z</time>
      </trkpt>
      <trkpt lat="46.56932" lon="0.35345">
        <ele>116.8</ele>
        <time>2020-05-30T16:06:20Z</time>
      </trkpt>
      <trkpt lat="46.56938" lon="0.3533">
        <ele>116.9</ele>
        <time>2020-05-30T16:06:21Z</time>
      </trkpt>
      <trkpt lat="46.56942" lon="0.35324">
        <ele>116.9</ele>
        <time>2020-05-30T16:06:22Z</time>
      </trkpt>
      <trkpt lat="46.56945" lon="0.35316">
        <ele>117</ele>
        <time>2020-05-30T16:06:23Z</time>
      </trkpt>
      <trkpt lat="46.5695" lon="0.35309">
        <ele>117</ele>
        <time>2020-05-30T16:06:24Z</time>
      </trkpt>
      <trkpt lat="46.56954" lon="0.35302">
        <ele>117</ele>
        <time>2020-05-30T16:06:25Z</time>
      </trkpt>
      <trkpt lat="46.56957" lon="0.35295">
        <ele>117</ele>
        <time>2020-05-30T16:06:26Z</time>
      </trkpt>
      <trkpt lat="46.56961" lon="0.35287">
        <ele>117.1</ele>
        <time>2020-05-30T16:06:27Z</time>
      </trkpt>
      <trkpt lat="46.56965" lon="0.35281">
        <ele>117.1</ele>
        <time>2020-05-30T16:06:28Z</time>
      </trkpt>
      <trkpt lat="46.56968" lon="0.35274">
        <ele>117.1</ele>
        <time>2020-05-30T16:06:29Z</time>
      </trkpt>
      <trkpt lat="46.56972" lon="0.35268">
        <ele>117.2</ele>
        <time>2020-05-30T16:06:30Z</time>
      </trkpt>
      <trkpt lat="46.56975" lon="0.35262">
        <ele>117.2</ele>
        <time>2020-05-30T16:06:31Z</time>
      </trkpt>
      <trkpt lat="46.56978" lon="0.35255">
        <ele>117.2</ele>
        <time>2020-05-30T16:06:32Z</time>
      </trkpt>
      <trkpt lat="46.56982" lon="0.35249">
        <ele>117.3</ele>
        <time>2020-05-30T16:06:33Z</time>
      </trkpt>
      <trkpt lat="46.56985" lon="0.35242">
        <ele>117.3</ele>
        <time>2020-05-30T16:06:34Z</time>
      </trkpt>
      <trkpt lat="46.56988" lon="0.35236">
        <ele>117.4</ele>
        <time>2020-05-30T16:06:35Z</time>
      </trkpt>
      <trkpt lat="46.56992" lon="0.35229">
        <ele>117.4</ele>
        <time>2020-05-30T16:06:36Z</time>
      </trkpt>
      <trkpt lat="46.56995" lon="0.35222">
        <ele>117.4</ele>
        <time>2020-05-30T16:06:37Z</time>
      </trkpt>
      <trkpt lat="46.56998" lon="0.35215">
        <ele>117.4</ele>
        <time>2020-05-30T16:06:38Z</time>
      </trkpt>
      <trkpt lat="46.57001" lon="0.3521">
        <ele>117.4</ele>
        <time>2020-05-30T16:06:39Z</time>
      </trkpt>
      <trkpt lat="46.57005" lon="0.35207">
        <ele>117.4</ele>
        <time>2020-05-30T16:06:40Z</time>
      </trkpt>
      <trkpt lat="46.57008" lon="0.352">
        <ele>117.5</ele>
        <time>2020-05-30T16:06:41Z</time>
      </trkpt>
      <trkpt lat="46.57011" lon="0.35195">
        <ele>117.5</ele>
        <time>2020-05-30T16:06:42Z</time>
      </trkpt>
      <trkpt lat="46.57014" lon="0.35189">
        <ele>117.5</ele>
        <time>2020-05-30T16:06:43Z</time>
      </trkpt>
      <trkpt lat="46.57017" lon="0.35184">
        <ele>117.5</ele>
        <time>2020-05-30T16:06:44Z</time>
      </trkpt>
      <trkpt lat="46.57022" lon="0.35177">
        <ele>117.6</ele>
        <time>2020-05-30T16:06:45Z</time>
      </trkpt>
      <trkpt lat="46.57026" lon="0.35171">
        <ele>117.6</ele>
        <time>2020-05-30T16:06:46Z</time>
      </trkpt>
      <trkpt lat="46.5703" lon="0.35164">
        <ele>117.6</ele>
        <time>2020-05-30T16:06:47Z</time>
      </trkpt>
      <trkpt lat="46.57033" lon="0.35157">
        <ele>117.6</ele>
        <time>2020-05-30T16:06:48Z</time>
      </trkpt>
      <trkpt lat="46.57037" lon="0.35153">
        <ele>117.6</ele>
        <time>2020-05-30T16:06:49Z</time>
      </trkpt>
      <trkpt lat="46.5704" lon="0.35146">
        <ele>117.6</ele>
        <time>2020-05-30T16:06:50Z</time>
      </trkpt>
      <trkpt lat="46.57043" lon="0.3514">
        <ele>117.6</ele>
        <time>2020-05-30T16:06:51Z</time>
      </trkpt>
      <trkpt lat="46.57046" lon="0.35133">
        <ele>117.6</ele>
        <time>2020-05-30T16:06:52Z</time>
      </trkpt>
      <trkpt lat="46.57049" lon="0.35125">
        <ele>117.6</ele>
        <time>2020-05-30T16:06:53Z</time>
      </trkpt>
      <trkpt lat="46.57051" lon="0.35119">
        <ele>117.7</ele>
        <time>2020-05-30T16:06:54Z</time>
      </trkpt>
      <trkpt lat="46.57054" lon="0.35113">
        <ele>117.7</ele>
        <time>2020-05-30T16:06:55Z</time>
      </trkpt>
      <trkpt lat="46.57057" lon="0.35107">
        <ele>117.7</ele>
        <time>2020-05-30T16:06:56Z</time>
      </trkpt>
      <trkpt lat="46.5706" lon="0.351">
        <ele>117.7</ele>
        <time>2020-05-30T16:06:57Z</time>
      </trkpt>
      <trkpt lat="46.57065" lon="0.35094">
        <ele>117.7</ele>
        <time>2020-05-30T16:06:58Z</time>
      </trkpt>
      <trkpt lat="46.57069" lon="0.35089">
        <ele>117.7</ele>
        <time>2020-05-30T16:06:59Z</time>
      </trkpt>
      <trkpt lat="46.57073" lon="0.35083">
        <ele>117.7</ele>
        <time>2020-05-30T16:07:00Z</time>
      </trkpt>
      <trkpt lat="46.57076" lon="0.35075">
        <ele>117.8</ele>
        <time>2020-05-30T16:07:01Z</time>
      </trkpt>
      <trkpt lat="46.57079" lon="0.35069">
        <ele>117.8</ele>
        <time>2020-05-30T16:07:02Z</time>
      </trkpt>
      <trkpt lat="46.5708" lon="0.35062">
        <ele>117.8</ele>
        <time>2020-05-30T16:07:03Z</time>
      </trkpt>
      <trkpt lat="46.57082" lon="0.35054">
        <ele>117.8</ele>
        <time>2020-05-30T16:07:04Z</time>
      </trkpt>
      <trkpt lat="46.57082" lon="0.35046">
        <ele>117.9</ele>
        <time>2020-05-30T16:07:05Z</time>
      </trkpt>
      <trkpt lat="46.57083" lon="0.35039">
        <ele>117.9</ele>
        <time>2020-05-30T16:07:06Z</time>
      </trkpt>
      <trkpt lat="46.57084" lon="0.35031">
        <ele>117.9</ele>
        <time>2020-05-30T16:07:07Z</time>
      </trkpt>
      <trkpt lat="46.57085" lon="0.35025">
        <ele>117.9</ele>
        <time>2020-05-30T16:07:08Z</time>
      </trkpt>
      <trkpt lat="46.57085" lon="0.35017">
        <ele>117.9</ele>
        <time>2020-05-30T16:07:09Z</time>
      </trkpt>
      <trkpt lat="46.57084" lon="0.3501">
        <ele>117.9</ele>
        <time>2020-05-30T16:07:10Z</time>
      </trkpt>
      <trkpt lat="46.57084" lon="0.35003">
        <ele>117.9</ele>
        <time>2020-05-30T16:07:11Z</time>
      </trkpt>
      <trkpt lat="46.57083" lon="0.34995">
        <ele>118</ele>
        <time>2020-05-30T16:07:12Z</time>
      </trkpt>
      <trkpt lat="46.57083" lon="0.34989">
        <ele>118</ele>
        <time>2020-05-30T16:07:13Z</time>
      </trkpt>
      <trkpt lat="46.57079" lon="0.34984">
        <ele>118</ele>
        <time>2020-05-30T16:07:14Z</time>
      </trkpt>
      <trkpt lat="46.57078" lon="0.34977">
        <ele>118</ele>
        <time>2020-05-30T16:07:15Z</time>
      </trkpt>
      <trkpt lat="46.57078" lon="0.3497">
        <ele>117.9</ele>
        <time>2020-05-30T16:07:16Z</time>
      </trkpt>
      <trkpt lat="46.5708" lon="0.34963">
        <ele>117.9</ele>
        <time>2020-05-30T16:07:17Z</time>
      </trkpt>
      <trkpt lat="46.57081" lon="0.34956">
        <ele>117.8</ele>
        <time>2020-05-30T16:07:18Z</time>
      </trkpt>
      <trkpt lat="46.57085" lon="0.34953">
        <ele>117.7</ele>
        <time>2020-05-30T16:07:19Z</time>
      </trkpt>
      <trkpt lat="46.57089" lon="0.3495">
        <ele>117.6</ele>
        <time>2020-05-30T16:07:20Z</time>
      </trkpt>
      <trkpt lat="46.57095" lon="0.34945">
        <ele>117.5</ele>
        <time>2020-05-30T16:07:21Z</time>
      </trkpt>
      <trkpt lat="46.57099" lon="0.34941">
        <ele>117.3</ele>
        <time>2020-05-30T16:07:22Z</time>
      </trkpt>
      <trkpt lat="46.57103" lon="0.34936">
        <ele>117.2</ele>
        <time>2020-05-30T16:07:23Z</time>
      </trkpt>
      <trkpt lat="46.57107" lon="0.34933">
        <ele>117.1</ele>
        <time>2020-05-30T16:07:24Z</time>
      </trkpt>
      <trkpt lat="46.57112" lon="0.34928">
        <ele>117</ele>
        <time>2020-05-30T16:07:25Z</time>
      </trkpt>
      <trkpt lat="46.57117" lon="0.34925">
        <ele>116.9</ele>
        <time>2020-05-30T16:07:26Z</time>
      </trkpt>
      <trkpt lat="46.57121" lon="0.34922">
        <ele>116.8</ele>
        <time>2020-05-30T16:07:27Z</time>
      </trkpt>
      <trkpt lat="46.57125" lon="0.34919">
        <ele>116.7</ele>
        <time>2020-05-30T16:07:28Z</time>
      </trkpt>
      <trkpt lat="46.5713" lon="0.34914">
        <ele>116.6</ele>
        <time>2020-05-30T16:07:29Z</time>
      </trkpt>
      <trkpt lat="46.57134" lon="0.34911">
        <ele>116.6</ele>
        <time>2020-05-30T16:07:30Z</time>
      </trkpt>
      <trkpt lat="46.57138" lon="0.34907">
        <ele>116.6</ele>
        <time>2020-05-30T16:07:31Z</time>
      </trkpt>
      <trkpt lat="46.57142" lon="0.34903">
        <ele>116.6</ele>
        <time>2020-05-30T16:07:32Z</time>
      </trkpt>
      <trkpt lat="46.57146" lon="0.34898">
        <ele>116.6</ele>
        <time>2020-05-30T16:07:33Z</time>
      </trkpt>
      <trkpt lat="46.57149" lon="0.34893">
        <ele>116.5</ele>
        <time>2020-05-30T16:07:34Z</time>
      </trkpt>
      <trkpt lat="46.57155" lon="0.34892">
        <ele>116.4</ele>
        <time>2020-05-30T16:07:35Z</time>
      </trkpt>
      <trkpt lat="46.5716" lon="0.34891">
        <ele>116.2</ele>
        <time>2020-05-30T16:07:36Z</time>
      </trkpt>
      <trkpt lat="46.57166" lon="0.3489">
        <ele>116</ele>
        <time>2020-05-30T16:07:37Z</time>
      </trkpt>
      <trkpt lat="46.57172" lon="0.34888">
        <ele>115.8</ele>
        <time>2020-05-30T16:07:38Z</time>
      </trkpt>
      <trkpt lat="46.57179" lon="0.34886">
        <ele>115.6</ele>
        <time>2020-05-30T16:07:39Z</time>
      </trkpt>
      <trkpt lat="46.57185" lon="0.34881">
        <ele>115.3</ele>
        <time>2020-05-30T16:07:40Z</time>
      </trkpt>
      <trkpt lat="46.5719" lon="0.34877">
        <ele>115.1</ele>
        <time>2020-05-30T16:07:41Z</time>
      </trkpt>
      <trkpt lat="46.57196" lon="0.34873">
        <ele>114.9</ele>
        <time>2020-05-30T16:07:42Z</time>
      </trkpt>
      <trkpt lat="46.57201" lon="0.34869">
        <ele>114.7</ele>
        <time>2020-05-30T16:07:43Z</time>
      </trkpt>
      <trkpt lat="46.57206" lon="0.34863">
        <ele>114.4</ele>
        <time>2020-05-30T16:07:44Z</time>
      </trkpt>
      <trkpt lat="46.57212" lon="0.34857">
        <ele>114.1</ele>
        <time>2020-05-30T16:07:45Z</time>
      </trkpt>
      <trkpt lat="46.57217" lon="0.34852">
        <ele>113.8</ele>
        <time>2020-05-30T16:07:46Z</time>
      </trkpt>
      <trkpt lat="46.57221" lon="0.34846">
        <ele>113.5</ele>
        <time>2020-05-30T16:07:47Z</time>
      </trkpt>
      <trkpt lat="46.57228" lon="0.34838">
        <ele>113.1</ele>
        <time>2020-05-30T16:07:48Z</time>
      </trkpt>
      <trkpt lat="46.57233" lon="0.34831">
        <ele>112.7</ele>
        <time>2020-05-30T16:07:49Z</time>
      </trkpt>
      <trkpt lat="46.57238" lon="0.34825">
        <ele>112.4</ele>
        <time>2020-05-30T16:07:50Z</time>
      </trkpt>
      <trkpt lat="46.57244" lon="0.3482">
        <ele>112</ele>
        <time>2020-05-30T16:07:51Z</time>
      </trkpt>
      <trkpt lat="46.57249" lon="0.34816">
        <ele>111.5</ele>
        <time>2020-05-30T16:07:52Z</time>
      </trkpt>
      <trkpt lat="46.57254" lon="0.34811">
        <ele>110.9</ele>
        <time>2020-05-30T16:07:53Z</time>
      </trkpt>
      <trkpt lat="46.57258" lon="0.34808">
        <ele>110.5</ele>
        <time>2020-05-30T16:07:54Z</time>
      </trkpt>
      <trkpt lat="46.57264" lon="0.34805">
        <ele>110</ele>
        <time>2020-05-30T16:07:55Z</time>
      </trkpt>
      <trkpt lat="46.5727" lon="0.34802">
        <ele>109.5</ele>
        <time>2020-05-30T16:07:56Z</time>
      </trkpt>
      <trkpt lat="46.57275" lon="0.34798">
        <ele>108.7</ele>
        <time>2020-05-30T16:07:57Z</time>
      </trkpt>
      <trkpt lat="46.57281" lon="0.34795">
        <ele>108</ele>
        <time>2020-05-30T16:07:58Z</time>
      </trkpt>
      <trkpt lat="46.57286" lon="0.3479">
        <ele>107.2</ele>
        <time>2020-05-30T16:07:59Z</time>
      </trkpt>
      <trkpt lat="46.5729" lon="0.34785">
        <ele>106.4</ele>
        <time>2020-05-30T16:08:00Z</time>
      </trkpt>
      <trkpt lat="46.57294" lon="0.34781">
        <ele>105.6</ele>
        <time>2020-05-30T16:08:01Z</time>
      </trkpt>
      <trkpt lat="46.57298" lon="0.34777">
        <ele>104.7</ele>
        <time>2020-05-30T16:08:02Z</time>
      </trkpt>
      <trkpt lat="46.57302" lon="0.34773">
        <ele>103.8</ele>
        <time>2020-05-30T16:08:03Z</time>
      </trkpt>
      <trkpt lat="46.57306" lon="0.3477">
        <ele>103</ele>
        <time>2020-05-30T16:08:04Z</time>
      </trkpt>
      <trkpt lat="46.57311" lon="0.34765">
        <ele>102</ele>
        <time>2020-05-30T16:08:05Z</time>
      </trkpt>
      <trkpt lat="46.57315" lon="0.34758">
        <ele>100.8</ele>
        <time>2020-05-30T16:08:06Z</time>
      </trkpt>
      <trkpt lat="46.57317" lon="0.34752">
        <ele>99.8</ele>
        <time>2020-05-30T16:08:07Z</time>
      </trkpt>
      <trkpt lat="46.57318" lon="0.34744">
        <ele>98.9</ele>
        <time>2020-05-30T16:08:08Z</time>
      </trkpt>
      <trkpt lat="46.57318" lon="0.34738">
        <ele>98.1</ele>
        <time>2020-05-30T16:08:09Z</time>
      </trkpt>
      <trkpt lat="46.57318" lon="0.34731">
        <ele>97.2</ele>
        <time>2020-05-30T16:08:10Z</time>
      </trkpt>
      <trkpt lat="46.57317" lon="0.34724">
        <ele>96.3</ele>
        <time>2020-05-30T16:08:11Z</time>
      </trkpt>
      <trkpt lat="46.57316" lon="0.34717">
        <ele>95.5</ele>
        <time>2020-05-30T16:08:12Z</time>
      </trkpt>
      <trkpt lat="46.57315" lon="0.3471">
        <ele>94.8</ele>
        <time>2020-05-30T16:08:13Z</time>
      </trkpt>
      <trkpt lat="46.57314" lon="0.34705">
        <ele>94.1</ele>
        <time>2020-05-30T16:08:14Z</time>
      </trkpt>
      <trkpt lat="46.57314" lon="0.34699">
        <ele>93.5</ele>
        <time>2020-05-30T16:08:15Z</time>
      </trkpt>
      <trkpt lat="46.57313" lon="0.3469">
        <ele>92.4</ele>
        <time>2020-05-30T16:08:16Z</time>
      </trkpt>
      <trkpt lat="46.57311" lon="0.34683">
        <ele>91.6</ele>
        <time>2020-05-30T16:08:17Z</time>
      </trkpt>
      <trkpt lat="46.5731" lon="0.34678">
        <ele>90.9</ele>
        <time>2020-05-30T16:08:18Z</time>
      </trkpt>
      <trkpt lat="46.57309" lon="0.34672">
        <ele>90.1</ele>
        <time>2020-05-30T16:08:19Z</time>
      </trkpt>
      <trkpt lat="46.57308" lon="0.34664">
        <ele>89.3</ele>
        <time>2020-05-30T16:08:20Z</time>
      </trkpt>
      <trkpt lat="46.57308" lon="0.3466">
        <ele>88.8</ele>
        <time>2020-05-30T16:08:21Z</time>
      </trkpt>
      <trkpt lat="46.57309" lon="0.34655">
        <ele>88.4</ele>
        <time>2020-05-30T16:08:22Z</time>
      </trkpt>
      <trkpt lat="46.57309" lon="0.34651">
        <ele>88</ele>
        <time>2020-05-30T16:08:23Z</time>
      </trkpt>
      <trkpt lat="46.5731" lon="0.34645">
        <ele>87.6</ele>
        <time>2020-05-30T16:08:24Z</time>
      </trkpt>
      <trkpt lat="46.57312" lon="0.34641">
        <ele>87.3</ele>
        <time>2020-05-30T16:08:25Z</time>
      </trkpt>
      <trkpt lat="46.57315" lon="0.3464">
        <ele>87</ele>
        <time>2020-05-30T16:08:26Z</time>
      </trkpt>
      <trkpt lat="46.57321" lon="0.34638">
        <ele>86.5</ele>
        <time>2020-05-30T16:08:27Z</time>
      </trkpt>
      <trkpt lat="46.57328" lon="0.34635">
        <ele>85.9</ele>
        <time>2020-05-30T16:08:28Z</time>
      </trkpt>
      <trkpt lat="46.57337" lon="0.34632">
        <ele>85</ele>
        <time>2020-05-30T16:08:29Z</time>
      </trkpt>
      <trkpt lat="46.57345" lon="0.34628">
        <ele>84.3</ele>
        <time>2020-05-30T16:08:30Z</time>
      </trkpt>
      <trkpt lat="46.57351" lon="0.34623">
        <ele>83.7</ele>
        <time>2020-05-30T16:08:31Z</time>
      </trkpt>
      <trkpt lat="46.57361" lon="0.34623">
        <ele>82.8</ele>
        <time>2020-05-30T16:08:32Z</time>
      </trkpt>
      <trkpt lat="46.57368" lon="0.34623">
        <ele>82.2</ele>
        <time>2020-05-30T16:08:33Z</time>
      </trkpt>
      <trkpt lat="46.57374" lon="0.34625">
        <ele>81.7</ele>
        <time>2020-05-30T16:08:34Z</time>
      </trkpt>
      <trkpt lat="46.57382" lon="0.34631">
        <ele>80.9</ele>
        <time>2020-05-30T16:08:35Z</time>
      </trkpt>
      <trkpt lat="46.57388" lon="0.34638">
        <ele>80.4</ele>
        <time>2020-05-30T16:08:36Z</time>
      </trkpt>
      <trkpt lat="46.57397" lon="0.34647">
        <ele>79.8</ele>
        <time>2020-05-30T16:08:37Z</time>
      </trkpt>
      <trkpt lat="46.57406" lon="0.34656">
        <ele>79.3</ele>
        <time>2020-05-30T16:08:38Z</time>
      </trkpt>
      <trkpt lat="46.57413" lon="0.34663">
        <ele>78.9</ele>
        <time>2020-05-30T16:08:39Z</time>
      </trkpt>
      <trkpt lat="46.57421" lon="0.34663">
        <ele>78.6</ele>
        <time>2020-05-30T16:08:40Z</time>
      </trkpt>
      <trkpt lat="46.57427" lon="0.34661">
        <ele>78.2</ele>
        <time>2020-05-30T16:08:41Z</time>
      </trkpt>
      <trkpt lat="46.57433" lon="0.34659">
        <ele>77.9</ele>
        <time>2020-05-30T16:08:42Z</time>
      </trkpt>
      <trkpt lat="46.57438" lon="0.34657">
        <ele>77.6</ele>
        <time>2020-05-30T16:08:43Z</time>
      </trkpt>
      <trkpt lat="46.57444" lon="0.34656">
        <ele>77.3</ele>
        <time>2020-05-30T16:08:44Z</time>
      </trkpt>
      <trkpt lat="46.57449" lon="0.34652">
        <ele>77</ele>
        <time>2020-05-30T16:08:45Z</time>
      </trkpt>
      <trkpt lat="46.57454" lon="0.34649">
        <ele>76.8</ele>
        <time>2020-05-30T16:08:46Z</time>
      </trkpt>
      <trkpt lat="46.5746" lon="0.34643">
        <ele>76.5</ele>
        <time>2020-05-30T16:08:47Z</time>
      </trkpt>
      <trkpt lat="46.57465" lon="0.34639">
        <ele>76.4</ele>
        <time>2020-05-30T16:08:48Z</time>
      </trkpt>
      <trkpt lat="46.57471" lon="0.34635">
        <ele>76.4</ele>
        <time>2020-05-30T16:08:49Z</time>
      </trkpt>
      <trkpt lat="46.57477" lon="0.34631">
        <ele>76.4</ele>
        <time>2020-05-30T16:08:50Z</time>
      </trkpt>
      <trkpt lat="46.57482" lon="0.34626">
        <ele>76.3</ele>
        <time>2020-05-30T16:08:51Z</time>
      </trkpt>
      <trkpt lat="46.57487" lon="0.34622">
        <ele>76.1</ele>
        <time>2020-05-30T16:08:52Z</time>
      </trkpt>
      <trkpt lat="46.57494" lon="0.34619">
        <ele>76</ele>
        <time>2020-05-30T16:08:53Z</time>
      </trkpt>
      <trkpt lat="46.575" lon="0.34615">
        <ele>75.8</ele>
        <time>2020-05-30T16:08:54Z</time>
      </trkpt>
      <trkpt lat="46.57505" lon="0.3461">
        <ele>75.7</ele>
        <time>2020-05-30T16:08:55Z</time>
      </trkpt>
      <trkpt lat="46.57511" lon="0.34605">
        <ele>75.7</ele>
        <time>2020-05-30T16:08:56Z</time>
      </trkpt>
      <trkpt lat="46.57516" lon="0.346">
        <ele>75.7</ele>
        <time>2020-05-30T16:08:57Z</time>
      </trkpt>
      <trkpt lat="46.57522" lon="0.34597">
        <ele>75.7</ele>
        <time>2020-05-30T16:08:58Z</time>
      </trkpt>
      <trkpt lat="46.57528" lon="0.34594">
        <ele>75.7</ele>
        <time>2020-05-30T16:08:59Z</time>
      </trkpt>
      <trkpt lat="46.57534" lon="0.3459">
        <ele>75.7</ele>
        <time>2020-05-30T16:09:00Z</time>
      </trkpt>
      <trkpt lat="46.5754" lon="0.34585">
        <ele>75.7</ele>
        <time>2020-05-30T16:09:01Z</time>
      </trkpt>
      <trkpt lat="46.57546" lon="0.34581">
        <ele>75.7</ele>
        <time>2020-05-30T16:09:02Z</time>
      </trkpt>
      <trkpt lat="46.57551" lon="0.34576">
        <ele>75.7</ele>
        <time>2020-05-30T16:09:03Z</time>
      </trkpt>
      <trkpt lat="46.57557" lon="0.34572">
        <ele>75.8</ele>
        <time>2020-05-30T16:09:04Z</time>
      </trkpt>
      <trkpt lat="46.57564" lon="0.34569">
        <ele>75.8</ele>
        <time>2020-05-30T16:09:05Z</time>
      </trkpt>
      <trkpt lat="46.5757" lon="0.34566">
        <ele>75.9</ele>
        <time>2020-05-30T16:09:06Z</time>
      </trkpt>
      <trkpt lat="46.57576" lon="0.34562">
        <ele>76</ele>
        <time>2020-05-30T16:09:07Z</time>
      </trkpt>
      <trkpt lat="46.57582" lon="0.34559">
        <ele>76</ele>
        <time>2020-05-30T16:09:08Z</time>
      </trkpt>
      <trkpt lat="46.57588" lon="0.34555">
        <ele>76.1</ele>
        <time>2020-05-30T16:09:09Z</time>
      </trkpt>
      <trkpt lat="46.57594" lon="0.34552">
        <ele>76.1</ele>
        <time>2020-05-30T16:09:10Z</time>
      </trkpt>
      <trkpt lat="46.576" lon="0.34549">
        <ele>76</ele>
        <time>2020-05-30T16:09:11Z</time>
      </trkpt>
      <trkpt lat="46.57606" lon="0.34547">
        <ele>76</ele>
        <time>2020-05-30T16:09:12Z</time>
      </trkpt>
      <trkpt lat="46.57611" lon="0.34544">
        <ele>75.9</ele>
        <time>2020-05-30T16:09:13Z</time>
      </trkpt>
      <trkpt lat="46.57616" lon="0.34541">
        <ele>76</ele>
        <time>2020-05-30T16:09:14Z</time>
      </trkpt>
      <trkpt lat="46.57621" lon="0.3454">
        <ele>76</ele>
        <time>2020-05-30T16:09:15Z</time>
      </trkpt>
      <trkpt lat="46.57625" lon="0.34539">
        <ele>76.1</ele>
        <time>2020-05-30T16:09:16Z</time>
      </trkpt>
      <trkpt lat="46.57629" lon="0.34536">
        <ele>76.1</ele>
        <time>2020-05-30T16:09:17Z</time>
      </trkpt>
      <trkpt lat="46.57632" lon="0.34535">
        <ele>76.2</ele>
        <time>2020-05-30T16:09:18Z</time>
      </trkpt>
      <trkpt lat="46.57636" lon="0.34534">
        <ele>76.2</ele>
        <time>2020-05-30T16:09:19Z</time>
      </trkpt>
      <trkpt lat="46.57639" lon="0.34532">
        <ele>76.3</ele>
        <time>2020-05-30T16:09:20Z</time>
      </trkpt>
      <trkpt lat="46.5764" lon="0.34531">
        <ele>76.3</ele>
        <time>2020-05-30T16:09:21Z</time>
      </trkpt>
      <trkpt lat="46.57641" lon="0.3453">
        <ele>76.3</ele>
        <time>2020-05-30T16:09:22Z</time>
      </trkpt>
      <trkpt lat="46.57642" lon="0.34528">
        <ele>76.3</ele>
        <time>2020-05-30T16:09:23Z</time>
      </trkpt>
      <trkpt lat="46.57643" lon="0.34527">
        <ele>76.3</ele>
        <time>2020-05-30T16:09:24Z</time>
      </trkpt>
      <trkpt lat="46.57643" lon="0.34529">
        <ele>76.3</ele>
        <time>2020-05-30T16:09:25Z</time>
      </trkpt>
      <trkpt lat="46.57643" lon="0.34529">
        <ele>76.3</ele>
        <time>2020-05-30T16:09:26Z</time>
      </trkpt>
      <trkpt lat="46.57643" lon="0.34529">
        <ele>76.3</ele>
        <time>2020-05-30T16:09:27Z</time>
      </trkpt>
      <trkpt lat="46.57643" lon="0.34529">
        <ele>76.3</ele>
        <time>2020-05-30T16:09:28Z</time>
      </trkpt>
      <trkpt lat="46.57644" lon="0.3453">
        <ele>76.4</ele>
        <time>2020-05-30T16:09:29Z</time>
      </trkpt>
      <trkpt lat="46.57644" lon="0.34531">
        <ele>76.4</ele>
        <time>2020-05-30T16:09:30Z</time>
      </trkpt>
      <trkpt lat="46.57645" lon="0.34531">
        <ele>76.4</ele>
        <time>2020-05-30T16:09:31Z</time>
      </trkpt>
      <trkpt lat="46.57645" lon="0.34531">
        <ele>76.4</ele>
        <time>2020-05-30T16:09:32Z</time>
      </trkpt>
      <trkpt lat="46.57645" lon="0.3453">
        <ele>76.4</ele>
        <time>2020-05-30T16:09:33Z</time>
      </trkpt>
      <trkpt lat="46.57645" lon="0.3453">
        <ele>76.4</ele>
        <time>2020-05-30T16:09:34Z</time>
      </trkpt>
      <trkpt lat="46.57645" lon="0.3453">
        <ele>76.4</ele>
        <time>2020-05-30T16:09:35Z</time>
      </trkpt>
      <trkpt lat="46.57645" lon="0.34529">
        <ele>76.4</ele>
        <time>2020-05-30T16:09:36Z</time>
      </trkpt>
      <trkpt lat="46.57645" lon="0.34529">
        <ele>76.4</ele>
        <time>2020-05-30T16:09:37Z</time>
      </trkpt>
      <trkpt lat="46.57645" lon="0.34528">
        <ele>76.4</ele>
        <time>2020-05-30T16:09:38Z</time>
      </trkpt>
      <trkpt lat="46.57645" lon="0.34528">
        <ele>76.4</ele>
        <time>2020-05-30T16:09:39Z</time>
      </trkpt>
      <trkpt lat="46.57645" lon="0.34527">
        <ele>76.4</ele>
        <time>2020-05-30T16:09:40Z</time>
      </trkpt>
      <trkpt lat="46.57645" lon="0.34527">
        <ele>76.4</ele>
        <time>2020-05-30T16:09:41Z</time>
      </trkpt>
      <trkpt lat="46.57645" lon="0.34528">
        <ele>76.4</ele>
        <time>2020-05-30T16:09:42Z</time>
      </trkpt>
      <trkpt lat="46.57645" lon="0.34528">
        <ele>76.4</ele>
        <time>2020-05-30T16:09:43Z</time>
      </trkpt>
      <trkpt lat="46.57645" lon="0.34528">
        <ele>76.4</ele>
        <time>2020-05-30T16:09:44Z</time>
      </trkpt>
      <trkpt lat="46.57646" lon="0.34528">
        <ele>76.4</ele>
        <time>2020-05-30T16:09:45Z</time>
      </trkpt>
      <trkpt lat="46.57646" lon="0.34528">
        <ele>76.4</ele>
        <time>2020-05-30T16:09:46Z</time>
      </trkpt>
      <trkpt lat="46.57646" lon="0.34528">
        <ele>76.4</ele>
        <time>2020-05-30T16:09:47Z</time>
      </trkpt>
      <trkpt lat="46.57646" lon="0.34528">
        <ele>76.4</ele>
        <time>2020-05-30T16:09:48Z</time>
      </trkpt>
      <trkpt lat="46.57646" lon="0.34527">
        <ele>76.4</ele>
        <time>2020-05-30T16:09:49Z</time>
      </trkpt>
      <trkpt lat="46.57646" lon="0.34527">
        <ele>76.4</ele>
        <time>2020-05-30T16:09:50Z</time>
      </trkpt>
      <trkpt lat="46.57649" lon="0.34524">
        <ele>76.5</ele>
        <time>2020-05-30T16:09:51Z</time>
      </trkpt>
      <trkpt lat="46.5765" lon="0.34524">
        <ele>76.5</ele>
        <time>2020-05-30T16:09:52Z</time>
      </trkpt>
      <trkpt lat="46.57653" lon="0.34522">
        <ele>76.5</ele>
        <time>2020-05-30T16:09:53Z</time>
      </trkpt>
      <trkpt lat="46.57655" lon="0.34518">
        <ele>76.6</ele>
        <time>2020-05-30T16:09:54Z</time>
      </trkpt>
      <trkpt lat="46.57658" lon="0.34514">
        <ele>77.1</ele>
        <time>2020-05-30T16:09:55Z</time>
      </trkpt>
      <trkpt lat="46.57659" lon="0.34508">
        <ele>77.2</ele>
        <time>2020-05-30T16:09:56Z</time>
      </trkpt>
      <trkpt lat="46.5766" lon="0.34503">
        <ele>77.2</ele>
        <time>2020-05-30T16:09:57Z</time>
      </trkpt>
      <trkpt lat="46.57658" lon="0.34497">
        <ele>77.3</ele>
        <time>2020-05-30T16:09:58Z</time>
      </trkpt>
      <trkpt lat="46.57657" lon="0.34491">
        <ele>77.4</ele>
        <time>2020-05-30T16:09:59Z</time>
      </trkpt>
      <trkpt lat="46.57658" lon="0.34484">
        <ele>77.5</ele>
        <time>2020-05-30T16:10:00Z</time>
      </trkpt>
      <trkpt lat="46.57658" lon="0.34476">
        <ele>77.6</ele>
        <time>2020-05-30T16:10:01Z</time>
      </trkpt>
      <trkpt lat="46.57659" lon="0.34469">
        <ele>77.7</ele>
        <time>2020-05-30T16:10:02Z</time>
      </trkpt>
      <trkpt lat="46.5766" lon="0.34461">
        <ele>77.8</ele>
        <time>2020-05-30T16:10:03Z</time>
      </trkpt>
      <trkpt lat="46.57661" lon="0.34453">
        <ele>77.8</ele>
        <time>2020-05-30T16:10:04Z</time>
      </trkpt>
      <trkpt lat="46.57658" lon="0.34444">
        <ele>77.9</ele>
        <time>2020-05-30T16:10:05Z</time>
      </trkpt>
      <trkpt lat="46.57658" lon="0.34436">
        <ele>78</ele>
        <time>2020-05-30T16:10:06Z</time>
      </trkpt>
      <trkpt lat="46.57659" lon="0.34428">
        <ele>78</ele>
        <time>2020-05-30T16:10:07Z</time>
      </trkpt>
      <trkpt lat="46.57661" lon="0.3442">
        <ele>78.1</ele>
        <time>2020-05-30T16:10:08Z</time>
      </trkpt>
      <trkpt lat="46.57662" lon="0.34412">
        <ele>78.3</ele>
        <time>2020-05-30T16:10:09Z</time>
      </trkpt>
      <trkpt lat="46.57663" lon="0.34404">
        <ele>78.4</ele>
        <time>2020-05-30T16:10:10Z</time>
      </trkpt>
      <trkpt lat="46.57664" lon="0.34396">
        <ele>78.5</ele>
        <time>2020-05-30T16:10:11Z</time>
      </trkpt>
      <trkpt lat="46.57665" lon="0.34388">
        <ele>78.6</ele>
        <time>2020-05-30T16:10:12Z</time>
      </trkpt>
      <trkpt lat="46.57665" lon="0.3438">
        <ele>78.7</ele>
        <time>2020-05-30T16:10:13Z</time>
      </trkpt>
      <trkpt lat="46.57666" lon="0.34373">
        <ele>78.8</ele>
        <time>2020-05-30T16:10:14Z</time>
      </trkpt>
      <trkpt lat="46.57667" lon="0.34365">
        <ele>78.8</ele>
        <time>2020-05-30T16:10:15Z</time>
      </trkpt>
      <trkpt lat="46.57666" lon="0.34358">
        <ele>78.9</ele>
        <time>2020-05-30T16:10:16Z</time>
      </trkpt>
      <trkpt lat="46.57665" lon="0.34351">
        <ele>79</ele>
        <time>2020-05-30T16:10:17Z</time>
      </trkpt>
      <trkpt lat="46.57664" lon="0.34343">
        <ele>79.1</ele>
        <time>2020-05-30T16:10:18Z</time>
      </trkpt>
      <trkpt lat="46.57662" lon="0.34335">
        <ele>79.1</ele>
        <time>2020-05-30T16:10:19Z</time>
      </trkpt>
      <trkpt lat="46.57661" lon="0.34327">
        <ele>79.2</ele>
        <time>2020-05-30T16:10:20Z</time>
      </trkpt>
      <trkpt lat="46.57661" lon="0.34318">
        <ele>79.1</ele>
        <time>2020-05-30T16:10:21Z</time>
      </trkpt>
      <trkpt lat="46.57661" lon="0.3431">
        <ele>79.1</ele>
        <time>2020-05-30T16:10:22Z</time>
      </trkpt>
      <trkpt lat="46.57657" lon="0.34302">
        <ele>79.2</ele>
        <time>2020-05-30T16:10:23Z</time>
      </trkpt>
      <trkpt lat="46.57656" lon="0.34293">
        <ele>79.3</ele>
        <time>2020-05-30T16:10:24Z</time>
      </trkpt>
      <trkpt lat="46.57654" lon="0.34285">
        <ele>79.4</ele>
        <time>2020-05-30T16:10:25Z</time>
      </trkpt>
      <trkpt lat="46.57653" lon="0.34276">
        <ele>79.5</ele>
        <time>2020-05-30T16:10:26Z</time>
      </trkpt>
      <trkpt lat="46.57652" lon="0.34268">
        <ele>79.6</ele>
        <time>2020-05-30T16:10:27Z</time>
      </trkpt>
      <trkpt lat="46.57651" lon="0.34259">
        <ele>79.7</ele>
        <time>2020-05-30T16:10:28Z</time>
      </trkpt>
      <trkpt lat="46.5765" lon="0.3425">
        <ele>79.8</ele>
        <time>2020-05-30T16:10:29Z</time>
      </trkpt>
      <trkpt lat="46.57648" lon="0.34241">
        <ele>79.8</ele>
        <time>2020-05-30T16:10:30Z</time>
      </trkpt>
      <trkpt lat="46.57647" lon="0.34233">
        <ele>80.1</ele>
        <time>2020-05-30T16:10:31Z</time>
      </trkpt>
      <trkpt lat="46.57646" lon="0.34224">
        <ele>80.2</ele>
        <time>2020-05-30T16:10:32Z</time>
      </trkpt>
      <trkpt lat="46.57645" lon="0.34215">
        <ele>80.5</ele>
        <time>2020-05-30T16:10:33Z</time>
      </trkpt>
      <trkpt lat="46.57643" lon="0.34207">
        <ele>80.7</ele>
        <time>2020-05-30T16:10:34Z</time>
      </trkpt>
      <trkpt lat="46.57641" lon="0.34199">
        <ele>80.9</ele>
        <time>2020-05-30T16:10:35Z</time>
      </trkpt>
      <trkpt lat="46.57639" lon="0.34191">
        <ele>81.2</ele>
        <time>2020-05-30T16:10:36Z</time>
      </trkpt>
      <trkpt lat="46.57637" lon="0.34183">
        <ele>81.4</ele>
        <time>2020-05-30T16:10:37Z</time>
      </trkpt>
      <trkpt lat="46.57634" lon="0.34175">
        <ele>81.5</ele>
        <time>2020-05-30T16:10:38Z</time>
      </trkpt>
      <trkpt lat="46.57631" lon="0.34168">
        <ele>81.7</ele>
        <time>2020-05-30T16:10:39Z</time>
      </trkpt>
      <trkpt lat="46.57628" lon="0.34161">
        <ele>81.9</ele>
        <time>2020-05-30T16:10:40Z</time>
      </trkpt>
      <trkpt lat="46.57626" lon="0.34153">
        <ele>82</ele>
        <time>2020-05-30T16:10:41Z</time>
      </trkpt>
      <trkpt lat="46.57624" lon="0.34146">
        <ele>82.2</ele>
        <time>2020-05-30T16:10:42Z</time>
      </trkpt>
      <trkpt lat="46.57621" lon="0.34139">
        <ele>82.4</ele>
        <time>2020-05-30T16:10:43Z</time>
      </trkpt>
      <trkpt lat="46.5762" lon="0.34131">
        <ele>82.7</ele>
        <time>2020-05-30T16:10:44Z</time>
      </trkpt>
      <trkpt lat="46.57617" lon="0.34123">
        <ele>83</ele>
        <time>2020-05-30T16:10:45Z</time>
      </trkpt>
      <trkpt lat="46.57613" lon="0.34116">
        <ele>83.4</ele>
        <time>2020-05-30T16:10:46Z</time>
      </trkpt>
      <trkpt lat="46.57611" lon="0.34108">
        <ele>83.7</ele>
        <time>2020-05-30T16:10:47Z</time>
      </trkpt>
      <trkpt lat="46.5761" lon="0.34101">
        <ele>84.1</ele>
        <time>2020-05-30T16:10:48Z</time>
      </trkpt>
      <trkpt lat="46.57608" lon="0.34093">
        <ele>84.5</ele>
        <time>2020-05-30T16:10:49Z</time>
      </trkpt>
      <trkpt lat="46.57606" lon="0.34087">
        <ele>84.8</ele>
        <time>2020-05-30T16:10:50Z</time>
      </trkpt>
      <trkpt lat="46.57604" lon="0.3408">
        <ele>85.2</ele>
        <time>2020-05-30T16:10:51Z</time>
      </trkpt>
      <trkpt lat="46.57601" lon="0.34072">
        <ele>85.6</ele>
        <time>2020-05-30T16:10:52Z</time>
      </trkpt>
      <trkpt lat="46.57599" lon="0.34065">
        <ele>86</ele>
        <time>2020-05-30T16:10:53Z</time>
      </trkpt>
      <trkpt lat="46.57596" lon="0.34058">
        <ele>86.4</ele>
        <time>2020-05-30T16:10:54Z</time>
      </trkpt>
      <trkpt lat="46.57594" lon="0.34051">
        <ele>86.7</ele>
        <time>2020-05-30T16:10:55Z</time>
      </trkpt>
      <trkpt lat="46.57593" lon="0.34043">
        <ele>87.1</ele>
        <time>2020-05-30T16:10:56Z</time>
      </trkpt>
      <trkpt lat="46.57591" lon="0.34035">
        <ele>87.5</ele>
        <time>2020-05-30T16:10:57Z</time>
      </trkpt>
      <trkpt lat="46.5759" lon="0.34029">
        <ele>87.7</ele>
        <time>2020-05-30T16:10:58Z</time>
      </trkpt>
      <trkpt lat="46.57589" lon="0.34024">
        <ele>88</ele>
        <time>2020-05-30T16:10:59Z</time>
      </trkpt>
      <trkpt lat="46.57587" lon="0.34015">
        <ele>88.2</ele>
        <time>2020-05-30T16:11:00Z</time>
      </trkpt>
      <trkpt lat="46.57585" lon="0.34009">
        <ele>88.5</ele>
        <time>2020-05-30T16:11:01Z</time>
      </trkpt>
      <trkpt lat="46.57583" lon="0.34002">
        <ele>88.8</ele>
        <time>2020-05-30T16:11:02Z</time>
      </trkpt>
      <trkpt lat="46.57581" lon="0.33996">
        <ele>89.1</ele>
        <time>2020-05-30T16:11:03Z</time>
      </trkpt>
      <trkpt lat="46.57579" lon="0.33992">
        <ele>89.3</ele>
        <time>2020-05-30T16:11:04Z</time>
      </trkpt>
      <trkpt lat="46.57578" lon="0.33988">
        <ele>89.5</ele>
        <time>2020-05-30T16:11:05Z</time>
      </trkpt>
      <trkpt lat="46.57577" lon="0.33983">
        <ele>89.7</ele>
        <time>2020-05-30T16:11:06Z</time>
      </trkpt>
      <trkpt lat="46.57577" lon="0.33978">
        <ele>90.1</ele>
        <time>2020-05-30T16:11:07Z</time>
      </trkpt>
      <trkpt lat="46.57576" lon="0.33974">
        <ele>90.2</ele>
        <time>2020-05-30T16:11:08Z</time>
      </trkpt>
      <trkpt lat="46.57576" lon="0.33969">
        <ele>90.3</ele>
        <time>2020-05-30T16:11:09Z</time>
      </trkpt>
      <trkpt lat="46.57574" lon="0.33965">
        <ele>91.5</ele>
        <time>2020-05-30T16:11:10Z</time>
      </trkpt>
      <trkpt lat="46.57574" lon="0.33959">
        <ele>91.7</ele>
        <time>2020-05-30T16:11:11Z</time>
      </trkpt>
      <trkpt lat="46.57573" lon="0.33957">
        <ele>91.8</ele>
        <time>2020-05-30T16:11:12Z</time>
      </trkpt>
      <trkpt lat="46.57572" lon="0.33953">
        <ele>91.9</ele>
        <time>2020-05-30T16:11:13Z</time>
      </trkpt>
      <trkpt lat="46.5757" lon="0.33948">
        <ele>92.5</ele>
        <time>2020-05-30T16:11:14Z</time>
      </trkpt>
      <trkpt lat="46.57569" lon="0.33944">
        <ele>92.7</ele>
        <time>2020-05-30T16:11:15Z</time>
      </trkpt>
      <trkpt lat="46.57568" lon="0.33938">
        <ele>92.8</ele>
        <time>2020-05-30T16:11:16Z</time>
      </trkpt>
      <trkpt lat="46.57568" lon="0.33936">
        <ele>92.9</ele>
        <time>2020-05-30T16:11:17Z</time>
      </trkpt>
      <trkpt lat="46.57566" lon="0.33931">
        <ele>93.1</ele>
        <time>2020-05-30T16:11:18Z</time>
      </trkpt>
      <trkpt lat="46.57565" lon="0.33927">
        <ele>93.2</ele>
        <time>2020-05-30T16:11:19Z</time>
      </trkpt>
      <trkpt lat="46.57563" lon="0.33922">
        <ele>93.4</ele>
        <time>2020-05-30T16:11:20Z</time>
      </trkpt>
      <trkpt lat="46.57562" lon="0.33917">
        <ele>93.6</ele>
        <time>2020-05-30T16:11:21Z</time>
      </trkpt>
      <trkpt lat="46.5756" lon="0.33912">
        <ele>93.9</ele>
        <time>2020-05-30T16:11:22Z</time>
      </trkpt>
      <trkpt lat="46.57558" lon="0.33906">
        <ele>94.1</ele>
        <time>2020-05-30T16:11:23Z</time>
      </trkpt>
      <trkpt lat="46.57556" lon="0.33901">
        <ele>94.3</ele>
        <time>2020-05-30T16:11:24Z</time>
      </trkpt>
      <trkpt lat="46.57555" lon="0.33896">
        <ele>94.5</ele>
        <time>2020-05-30T16:11:25Z</time>
      </trkpt>
      <trkpt lat="46.57553" lon="0.3389">
        <ele>94.7</ele>
        <time>2020-05-30T16:11:26Z</time>
      </trkpt>
      <trkpt lat="46.57552" lon="0.33885">
        <ele>94.9</ele>
        <time>2020-05-30T16:11:27Z</time>
      </trkpt>
      <trkpt lat="46.57551" lon="0.33881">
        <ele>95.1</ele>
        <time>2020-05-30T16:11:28Z</time>
      </trkpt>
      <trkpt lat="46.57549" lon="0.33876">
        <ele>95.4</ele>
        <time>2020-05-30T16:11:29Z</time>
      </trkpt>
      <trkpt lat="46.57549" lon="0.33874">
        <ele>95.5</ele>
        <time>2020-05-30T16:11:30Z</time>
      </trkpt>
      <trkpt lat="46.57548" lon="0.33868">
        <ele>95.7</ele>
        <time>2020-05-30T16:11:31Z</time>
      </trkpt>
      <trkpt lat="46.57547" lon="0.33866">
        <ele>95.8</ele>
        <time>2020-05-30T16:11:32Z</time>
      </trkpt>
      <trkpt lat="46.57545" lon="0.33861">
        <ele>96.1</ele>
        <time>2020-05-30T16:11:33Z</time>
      </trkpt>
      <trkpt lat="46.57544" lon="0.33857">
        <ele>96.4</ele>
        <time>2020-05-30T16:11:34Z</time>
      </trkpt>
      <trkpt lat="46.57542" lon="0.33853">
        <ele>96.7</ele>
        <time>2020-05-30T16:11:35Z</time>
      </trkpt>
      <trkpt lat="46.5754" lon="0.3385">
        <ele>97</ele>
        <time>2020-05-30T16:11:36Z</time>
      </trkpt>
      <trkpt lat="46.57539" lon="0.33848">
        <ele>97.1</ele>
        <time>2020-05-30T16:11:37Z</time>
      </trkpt>
      <trkpt lat="46.57538" lon="0.33844">
        <ele>97.5</ele>
        <time>2020-05-30T16:11:38Z</time>
      </trkpt>
      <trkpt lat="46.57537" lon="0.33839">
        <ele>97.9</ele>
        <time>2020-05-30T16:11:39Z</time>
      </trkpt>
      <trkpt lat="46.57536" lon="0.33837">
        <ele>98</ele>
        <time>2020-05-30T16:11:40Z</time>
      </trkpt>
      <trkpt lat="46.57534" lon="0.33834">
        <ele>98.4</ele>
        <time>2020-05-30T16:11:41Z</time>
      </trkpt>
      <trkpt lat="46.57532" lon="0.33829">
        <ele>98.9</ele>
        <time>2020-05-30T16:11:42Z</time>
      </trkpt>
      <trkpt lat="46.5753" lon="0.33825">
        <ele>99.2</ele>
        <time>2020-05-30T16:11:43Z</time>
      </trkpt>
      <trkpt lat="46.57529" lon="0.3382">
        <ele>99.6</ele>
        <time>2020-05-30T16:11:44Z</time>
      </trkpt>
      <trkpt lat="46.57528" lon="0.33816">
        <ele>100</ele>
        <time>2020-05-30T16:11:45Z</time>
      </trkpt>
      <trkpt lat="46.57526" lon="0.33812">
        <ele>100.3</ele>
        <time>2020-05-30T16:11:46Z</time>
      </trkpt>
      <trkpt lat="46.57524" lon="0.33808">
        <ele>100.6</ele>
        <time>2020-05-30T16:11:47Z</time>
      </trkpt>
      <trkpt lat="46.57523" lon="0.33803">
        <ele>101</ele>
        <time>2020-05-30T16:11:48Z</time>
      </trkpt>
      <trkpt lat="46.5752" lon="0.33798">
        <ele>101.3</ele>
        <time>2020-05-30T16:11:49Z</time>
      </trkpt>
      <trkpt lat="46.57518" lon="0.33794">
        <ele>101.7</ele>
        <time>2020-05-30T16:11:50Z</time>
      </trkpt>
      <trkpt lat="46.57516" lon="0.3379">
        <ele>102</ele>
        <time>2020-05-30T16:11:51Z</time>
      </trkpt>
      <trkpt lat="46.57514" lon="0.33785">
        <ele>102.3</ele>
        <time>2020-05-30T16:11:52Z</time>
      </trkpt>
      <trkpt lat="46.57511" lon="0.3378">
        <ele>102.6</ele>
        <time>2020-05-30T16:11:53Z</time>
      </trkpt>
      <trkpt lat="46.5751" lon="0.33776">
        <ele>102.6</ele>
        <time>2020-05-30T16:11:54Z</time>
      </trkpt>
      <trkpt lat="46.57508" lon="0.33772">
        <ele>102.6</ele>
        <time>2020-05-30T16:11:55Z</time>
      </trkpt>
      <trkpt lat="46.57507" lon="0.33766">
        <ele>102.7</ele>
        <time>2020-05-30T16:11:56Z</time>
      </trkpt>
      <trkpt lat="46.57506" lon="0.33761">
        <ele>102.8</ele>
        <time>2020-05-30T16:11:57Z</time>
      </trkpt>
      <trkpt lat="46.57505" lon="0.33756">
        <ele>103</ele>
        <time>2020-05-30T16:11:58Z</time>
      </trkpt>
      <trkpt lat="46.57504" lon="0.33754">
        <ele>103</ele>
        <time>2020-05-30T16:11:59Z</time>
      </trkpt>
      <trkpt lat="46.57504" lon="0.33748">
        <ele>103.2</ele>
        <time>2020-05-30T16:12:00Z</time>
      </trkpt>
      <trkpt lat="46.57503" lon="0.33747">
        <ele>103.3</ele>
        <time>2020-05-30T16:12:01Z</time>
      </trkpt>
      <trkpt lat="46.57502" lon="0.33741">
        <ele>103.5</ele>
        <time>2020-05-30T16:12:02Z</time>
      </trkpt>
      <trkpt lat="46.575" lon="0.33735">
        <ele>103.7</ele>
        <time>2020-05-30T16:12:03Z</time>
      </trkpt>
      <trkpt lat="46.57499" lon="0.3373">
        <ele>103.9</ele>
        <time>2020-05-30T16:12:04Z</time>
      </trkpt>
      <trkpt lat="46.57497" lon="0.33727">
        <ele>104.1</ele>
        <time>2020-05-30T16:12:05Z</time>
      </trkpt>
      <trkpt lat="46.57496" lon="0.33722">
        <ele>104.2</ele>
        <time>2020-05-30T16:12:06Z</time>
      </trkpt>
      <trkpt lat="46.57495" lon="0.33717">
        <ele>104.4</ele>
        <time>2020-05-30T16:12:07Z</time>
      </trkpt>
      <trkpt lat="46.57495" lon="0.33715">
        <ele>104.5</ele>
        <time>2020-05-30T16:12:08Z</time>
      </trkpt>
      <trkpt lat="46.57494" lon="0.3371">
        <ele>104.6</ele>
        <time>2020-05-30T16:12:09Z</time>
      </trkpt>
      <trkpt lat="46.57494" lon="0.33706">
        <ele>104.8</ele>
        <time>2020-05-30T16:12:10Z</time>
      </trkpt>
      <trkpt lat="46.57493" lon="0.33701">
        <ele>104.9</ele>
        <time>2020-05-30T16:12:11Z</time>
      </trkpt>
      <trkpt lat="46.57493" lon="0.33695">
        <ele>105</ele>
        <time>2020-05-30T16:12:12Z</time>
      </trkpt>
      <trkpt lat="46.57492" lon="0.33689">
        <ele>105.2</ele>
        <time>2020-05-30T16:12:13Z</time>
      </trkpt>
      <trkpt lat="46.57491" lon="0.33684">
        <ele>105.5</ele>
        <time>2020-05-30T16:12:14Z</time>
      </trkpt>
      <trkpt lat="46.5749" lon="0.33679">
        <ele>105.7</ele>
        <time>2020-05-30T16:12:15Z</time>
      </trkpt>
      <trkpt lat="46.57489" lon="0.33677">
        <ele>105.8</ele>
        <time>2020-05-30T16:12:16Z</time>
      </trkpt>
      <trkpt lat="46.57489" lon="0.33672">
        <ele>105.9</ele>
        <time>2020-05-30T16:12:17Z</time>
      </trkpt>
      <trkpt lat="46.57488" lon="0.33665">
        <ele>106.1</ele>
        <time>2020-05-30T16:12:18Z</time>
      </trkpt>
      <trkpt lat="46.57488" lon="0.33659">
        <ele>106.2</ele>
        <time>2020-05-30T16:12:19Z</time>
      </trkpt>
      <trkpt lat="46.57487" lon="0.33653">
        <ele>106.5</ele>
        <time>2020-05-30T16:12:20Z</time>
      </trkpt>
      <trkpt lat="46.57488" lon="0.33648">
        <ele>106.7</ele>
        <time>2020-05-30T16:12:21Z</time>
      </trkpt>
      <trkpt lat="46.57488" lon="0.33644">
        <ele>107</ele>
        <time>2020-05-30T16:12:22Z</time>
      </trkpt>
      <trkpt lat="46.57489" lon="0.33638">
        <ele>107.3</ele>
        <time>2020-05-30T16:12:23Z</time>
      </trkpt>
      <trkpt lat="46.5749" lon="0.33634">
        <ele>107.4</ele>
        <time>2020-05-30T16:12:24Z</time>
      </trkpt>
      <trkpt lat="46.5749" lon="0.33628">
        <ele>107.5</ele>
        <time>2020-05-30T16:12:25Z</time>
      </trkpt>
      <trkpt lat="46.5749" lon="0.33626">
        <ele>107.5</ele>
        <time>2020-05-30T16:12:26Z</time>
      </trkpt>
      <trkpt lat="46.57489" lon="0.3362">
        <ele>107.6</ele>
        <time>2020-05-30T16:12:27Z</time>
      </trkpt>
      <trkpt lat="46.57489" lon="0.33618">
        <ele>107.6</ele>
        <time>2020-05-30T16:12:28Z</time>
      </trkpt>
      <trkpt lat="46.57488" lon="0.33614">
        <ele>107.7</ele>
        <time>2020-05-30T16:12:29Z</time>
      </trkpt>
      <trkpt lat="46.57487" lon="0.3361">
        <ele>107.8</ele>
        <time>2020-05-30T16:12:30Z</time>
      </trkpt>
      <trkpt lat="46.57484" lon="0.33608">
        <ele>107.8</ele>
        <time>2020-05-30T16:12:31Z</time>
      </trkpt>
      <trkpt lat="46.57478" lon="0.33606">
        <ele>107.5</ele>
        <time>2020-05-30T16:12:32Z</time>
      </trkpt>
      <trkpt lat="46.57472" lon="0.33605">
        <ele>107.2</ele>
        <time>2020-05-30T16:12:33Z</time>
      </trkpt>
      <trkpt lat="46.57467" lon="0.33599">
        <ele>106.9</ele>
        <time>2020-05-30T16:12:34Z</time>
      </trkpt>
      <trkpt lat="46.57461" lon="0.33592">
        <ele>106.5</ele>
        <time>2020-05-30T16:12:35Z</time>
      </trkpt>
      <trkpt lat="46.57455" lon="0.33584">
        <ele>106.1</ele>
        <time>2020-05-30T16:12:36Z</time>
      </trkpt>
      <trkpt lat="46.57451" lon="0.33575">
        <ele>105.7</ele>
        <time>2020-05-30T16:12:37Z</time>
      </trkpt>
      <trkpt lat="46.57446" lon="0.33565">
        <ele>105.3</ele>
        <time>2020-05-30T16:12:38Z</time>
      </trkpt>
      <trkpt lat="46.57442" lon="0.33554">
        <ele>104.9</ele>
        <time>2020-05-30T16:12:39Z</time>
      </trkpt>
      <trkpt lat="46.57438" lon="0.33542">
        <ele>104.8</ele>
        <time>2020-05-30T16:12:40Z</time>
      </trkpt>
      <trkpt lat="46.57434" lon="0.3353">
        <ele>104.7</ele>
        <time>2020-05-30T16:12:41Z</time>
      </trkpt>
      <trkpt lat="46.57431" lon="0.33518">
        <ele>104.6</ele>
        <time>2020-05-30T16:12:42Z</time>
      </trkpt>
      <trkpt lat="46.57427" lon="0.33506">
        <ele>104.6</ele>
        <time>2020-05-30T16:12:43Z</time>
      </trkpt>
      <trkpt lat="46.57423" lon="0.33495">
        <ele>104.5</ele>
        <time>2020-05-30T16:12:44Z</time>
      </trkpt>
      <trkpt lat="46.57419" lon="0.33484">
        <ele>104.5</ele>
        <time>2020-05-30T16:12:45Z</time>
      </trkpt>
      <trkpt lat="46.57415" lon="0.33472">
        <ele>104.4</ele>
        <time>2020-05-30T16:12:46Z</time>
      </trkpt>
      <trkpt lat="46.57411" lon="0.33461">
        <ele>104.4</ele>
        <time>2020-05-30T16:12:47Z</time>
      </trkpt>
      <trkpt lat="46.57407" lon="0.3345">
        <ele>104.4</ele>
        <time>2020-05-30T16:12:48Z</time>
      </trkpt>
      <trkpt lat="46.57404" lon="0.33439">
        <ele>104.4</ele>
        <time>2020-05-30T16:12:49Z</time>
      </trkpt>
      <trkpt lat="46.574" lon="0.33429">
        <ele>104.4</ele>
        <time>2020-05-30T16:12:50Z</time>
      </trkpt>
      <trkpt lat="46.57397" lon="0.33418">
        <ele>104.4</ele>
        <time>2020-05-30T16:12:51Z</time>
      </trkpt>
      <trkpt lat="46.57393" lon="0.33407">
        <ele>104.5</ele>
        <time>2020-05-30T16:12:52Z</time>
      </trkpt>
      <trkpt lat="46.5739" lon="0.33397">
        <ele>104.4</ele>
        <time>2020-05-30T16:12:53Z</time>
      </trkpt>
      <trkpt lat="46.57387" lon="0.33386">
        <ele>104.4</ele>
        <time>2020-05-30T16:12:54Z</time>
      </trkpt>
      <trkpt lat="46.57385" lon="0.33375">
        <ele>104.5</ele>
        <time>2020-05-30T16:12:55Z</time>
      </trkpt>
      <trkpt lat="46.57381" lon="0.33366">
        <ele>104.5</ele>
        <time>2020-05-30T16:12:56Z</time>
      </trkpt>
      <trkpt lat="46.57378" lon="0.33356">
        <ele>104.6</ele>
        <time>2020-05-30T16:12:57Z</time>
      </trkpt>
      <trkpt lat="46.57374" lon="0.33346">
        <ele>104.7</ele>
        <time>2020-05-30T16:12:58Z</time>
      </trkpt>
      <trkpt lat="46.57371" lon="0.33336">
        <ele>104.8</ele>
        <time>2020-05-30T16:12:59Z</time>
      </trkpt>
      <trkpt lat="46.57368" lon="0.33326">
        <ele>105</ele>
        <time>2020-05-30T16:13:00Z</time>
      </trkpt>
      <trkpt lat="46.57364" lon="0.33316">
        <ele>105.1</ele>
        <time>2020-05-30T16:13:01Z</time>
      </trkpt>
      <trkpt lat="46.57361" lon="0.33306">
        <ele>105.2</ele>
        <time>2020-05-30T16:13:02Z</time>
      </trkpt>
      <trkpt lat="46.57358" lon="0.33296">
        <ele>105.2</ele>
        <time>2020-05-30T16:13:03Z</time>
      </trkpt>
      <trkpt lat="46.57356" lon="0.33285">
        <ele>105.2</ele>
        <time>2020-05-30T16:13:04Z</time>
      </trkpt>
      <trkpt lat="46.57351" lon="0.33276">
        <ele>105.2</ele>
        <time>2020-05-30T16:13:05Z</time>
      </trkpt>
      <trkpt lat="46.57347" lon="0.33267">
        <ele>105.2</ele>
        <time>2020-05-30T16:13:06Z</time>
      </trkpt>
      <trkpt lat="46.57345" lon="0.33256">
        <ele>105.2</ele>
        <time>2020-05-30T16:13:07Z</time>
      </trkpt>
      <trkpt lat="46.57341" lon="0.33246">
        <ele>105.1</ele>
        <time>2020-05-30T16:13:08Z</time>
      </trkpt>
      <trkpt lat="46.57338" lon="0.33236">
        <ele>105</ele>
        <time>2020-05-30T16:13:09Z</time>
      </trkpt>
      <trkpt lat="46.57335" lon="0.33225">
        <ele>104.9</ele>
        <time>2020-05-30T16:13:10Z</time>
      </trkpt>
      <trkpt lat="46.57331" lon="0.33214">
        <ele>104.8</ele>
        <time>2020-05-30T16:13:11Z</time>
      </trkpt>
      <trkpt lat="46.57328" lon="0.33203">
        <ele>104.7</ele>
        <time>2020-05-30T16:13:12Z</time>
      </trkpt>
      <trkpt lat="46.57324" lon="0.33192">
        <ele>104.5</ele>
        <time>2020-05-30T16:13:13Z</time>
      </trkpt>
      <trkpt lat="46.57319" lon="0.33181">
        <ele>104.4</ele>
        <time>2020-05-30T16:13:14Z</time>
      </trkpt>
      <trkpt lat="46.57314" lon="0.3317">
        <ele>104.2</ele>
        <time>2020-05-30T16:13:15Z</time>
      </trkpt>
      <trkpt lat="46.57309" lon="0.33159">
        <ele>104</ele>
        <time>2020-05-30T16:13:16Z</time>
      </trkpt>
      <trkpt lat="46.57304" lon="0.33148">
        <ele>103.9</ele>
        <time>2020-05-30T16:13:17Z</time>
      </trkpt>
      <trkpt lat="46.57299" lon="0.33136">
        <ele>103.8</ele>
        <time>2020-05-30T16:13:18Z</time>
      </trkpt>
      <trkpt lat="46.57293" lon="0.33125">
        <ele>103.7</ele>
        <time>2020-05-30T16:13:19Z</time>
      </trkpt>
      <trkpt lat="46.57288" lon="0.33114">
        <ele>103.6</ele>
        <time>2020-05-30T16:13:20Z</time>
      </trkpt>
      <trkpt lat="46.57282" lon="0.33102">
        <ele>103.7</ele>
        <time>2020-05-30T16:13:21Z</time>
      </trkpt>
      <trkpt lat="46.57276" lon="0.33091">
        <ele>103.8</ele>
        <time>2020-05-30T16:13:22Z</time>
      </trkpt>
      <trkpt lat="46.57271" lon="0.3308">
        <ele>103.8</ele>
        <time>2020-05-30T16:13:23Z</time>
      </trkpt>
      <trkpt lat="46.57266" lon="0.33069">
        <ele>104</ele>
        <time>2020-05-30T16:13:24Z</time>
      </trkpt>
      <trkpt lat="46.57261" lon="0.33058">
        <ele>104.1</ele>
        <time>2020-05-30T16:13:25Z</time>
      </trkpt>
      <trkpt lat="46.57257" lon="0.33047">
        <ele>104.3</ele>
        <time>2020-05-30T16:13:26Z</time>
      </trkpt>
      <trkpt lat="46.57252" lon="0.33037">
        <ele>104.5</ele>
        <time>2020-05-30T16:13:27Z</time>
      </trkpt>
      <trkpt lat="46.5725" lon="0.33025">
        <ele>104.7</ele>
        <time>2020-05-30T16:13:28Z</time>
      </trkpt>
      <trkpt lat="46.5725" lon="0.33014">
        <ele>104.9</ele>
        <time>2020-05-30T16:13:29Z</time>
      </trkpt>
      <trkpt lat="46.57252" lon="0.33004">
        <ele>105</ele>
        <time>2020-05-30T16:13:30Z</time>
      </trkpt>
      <trkpt lat="46.57257" lon="0.32996">
        <ele>105.1</ele>
        <time>2020-05-30T16:13:31Z</time>
      </trkpt>
      <trkpt lat="46.57262" lon="0.32991">
        <ele>105.2</ele>
        <time>2020-05-30T16:13:32Z</time>
      </trkpt>
      <trkpt lat="46.57268" lon="0.32988">
        <ele>105.2</ele>
        <time>2020-05-30T16:13:33Z</time>
      </trkpt>
      <trkpt lat="46.57273" lon="0.32985">
        <ele>105.3</ele>
        <time>2020-05-30T16:13:34Z</time>
      </trkpt>
      <trkpt lat="46.57278" lon="0.32981">
        <ele>105.3</ele>
        <time>2020-05-30T16:13:35Z</time>
      </trkpt>
      <trkpt lat="46.57284" lon="0.32978">
        <ele>105.7</ele>
        <time>2020-05-30T16:13:36Z</time>
      </trkpt>
      <trkpt lat="46.57289" lon="0.32974">
        <ele>106.1</ele>
        <time>2020-05-30T16:13:37Z</time>
      </trkpt>
      <trkpt lat="46.57294" lon="0.32971">
        <ele>106.5</ele>
        <time>2020-05-30T16:13:38Z</time>
      </trkpt>
      <trkpt lat="46.57298" lon="0.32967">
        <ele>106.9</ele>
        <time>2020-05-30T16:13:39Z</time>
      </trkpt>
      <trkpt lat="46.57303" lon="0.32965">
        <ele>107.2</ele>
        <time>2020-05-30T16:13:40Z</time>
      </trkpt>
      <trkpt lat="46.57307" lon="0.32962">
        <ele>107.6</ele>
        <time>2020-05-30T16:13:41Z</time>
      </trkpt>
      <trkpt lat="46.57311" lon="0.3296">
        <ele>107.9</ele>
        <time>2020-05-30T16:13:42Z</time>
      </trkpt>
      <trkpt lat="46.57314" lon="0.32956">
        <ele>108.3</ele>
        <time>2020-05-30T16:13:43Z</time>
      </trkpt>
      <trkpt lat="46.57317" lon="0.32952">
        <ele>108.6</ele>
        <time>2020-05-30T16:13:44Z</time>
      </trkpt>
      <trkpt lat="46.57321" lon="0.32952">
        <ele>108.9</ele>
        <time>2020-05-30T16:13:45Z</time>
      </trkpt>
      <trkpt lat="46.57326" lon="0.32948">
        <ele>109.3</ele>
        <time>2020-05-30T16:13:46Z</time>
      </trkpt>
      <trkpt lat="46.57332" lon="0.32945">
        <ele>109.8</ele>
        <time>2020-05-30T16:13:47Z</time>
      </trkpt>
      <trkpt lat="46.57337" lon="0.3294">
        <ele>110.1</ele>
        <time>2020-05-30T16:13:48Z</time>
      </trkpt>
      <trkpt lat="46.57342" lon="0.32935">
        <ele>110.5</ele>
        <time>2020-05-30T16:13:49Z</time>
      </trkpt>
      <trkpt lat="46.57346" lon="0.32931">
        <ele>110.5</ele>
        <time>2020-05-30T16:13:50Z</time>
      </trkpt>
      <trkpt lat="46.57349" lon="0.32927">
        <ele>110.6</ele>
        <time>2020-05-30T16:13:51Z</time>
      </trkpt>
      <trkpt lat="46.57352" lon="0.32922">
        <ele>110.6</ele>
        <time>2020-05-30T16:13:52Z</time>
      </trkpt>
      <trkpt lat="46.57354" lon="0.32919">
        <ele>110.7</ele>
        <time>2020-05-30T16:13:53Z</time>
      </trkpt>
      <trkpt lat="46.57359" lon="0.32913">
        <ele>110.7</ele>
        <time>2020-05-30T16:13:54Z</time>
      </trkpt>
      <trkpt lat="46.57363" lon="0.32907">
        <ele>110.7</ele>
        <time>2020-05-30T16:13:55Z</time>
      </trkpt>
      <trkpt lat="46.57366" lon="0.32901">
        <ele>110.7</ele>
        <time>2020-05-30T16:13:56Z</time>
      </trkpt>
      <trkpt lat="46.57368" lon="0.32896">
        <ele>110.7</ele>
        <time>2020-05-30T16:13:57Z</time>
      </trkpt>
      <trkpt lat="46.57366" lon="0.3289">
        <ele>110.7</ele>
        <time>2020-05-30T16:13:58Z</time>
      </trkpt>
      <trkpt lat="46.57363" lon="0.32883">
        <ele>110.7</ele>
        <time>2020-05-30T16:13:59Z</time>
      </trkpt>
      <trkpt lat="46.57361" lon="0.32877">
        <ele>110.7</ele>
        <time>2020-05-30T16:14:00Z</time>
      </trkpt>
      <trkpt lat="46.57357" lon="0.32873">
        <ele>110.7</ele>
        <time>2020-05-30T16:14:01Z</time>
      </trkpt>
      <trkpt lat="46.57354" lon="0.32869">
        <ele>110.7</ele>
        <time>2020-05-30T16:14:02Z</time>
      </trkpt>
      <trkpt lat="46.5735" lon="0.32864">
        <ele>110.7</ele>
        <time>2020-05-30T16:14:03Z</time>
      </trkpt>
      <trkpt lat="46.57348" lon="0.3286">
        <ele>110.7</ele>
        <time>2020-05-30T16:14:04Z</time>
      </trkpt>
      <trkpt lat="46.57345" lon="0.32856">
        <ele>110.7</ele>
        <time>2020-05-30T16:14:05Z</time>
      </trkpt>
      <trkpt lat="46.57344" lon="0.32855">
        <ele>110.7</ele>
        <time>2020-05-30T16:14:06Z</time>
      </trkpt>
      <trkpt lat="46.57344" lon="0.32854">
        <ele>110.7</ele>
        <time>2020-05-30T16:14:07Z</time>
      </trkpt>
      <trkpt lat="46.57344" lon="0.32853">
        <ele>110.7</ele>
        <time>2020-05-30T16:14:08Z</time>
      </trkpt>
      <trkpt lat="46.57344" lon="0.32854">
        <ele>110.7</ele>
        <time>2020-05-30T16:14:09Z</time>
      </trkpt>
      <trkpt lat="46.57344" lon="0.32855">
        <ele>110.7</ele>
        <time>2020-05-30T16:14:10Z</time>
      </trkpt>
      <trkpt lat="46.57344" lon="0.32854">
        <ele>110.7</ele>
        <time>2020-05-30T16:14:11Z</time>
      </trkpt>
      <trkpt lat="46.57344" lon="0.32854">
        <ele>110.7</ele>
        <time>2020-05-30T16:14:12Z</time>
      </trkpt>
      <trkpt lat="46.57345" lon="0.32855">
        <ele>110.7</ele>
        <time>2020-05-30T16:14:13Z</time>
      </trkpt>
      <trkpt lat="46.57344" lon="0.32856">
        <ele>110.7</ele>
        <time>2020-05-30T16:14:14Z</time>
      </trkpt>
      <trkpt lat="46.57344" lon="0.32856">
        <ele>110.7</ele>
        <time>2020-05-30T16:14:15Z</time>
      </trkpt>
      <trkpt lat="46.57344" lon="0.32856">
        <ele>110.7</ele>
        <time>2020-05-30T16:14:16Z</time>
      </trkpt>
      <trkpt lat="46.57344" lon="0.32857">
        <ele>110.7</ele>
        <time>2020-05-30T16:14:17Z</time>
      </trkpt>
      <trkpt lat="46.57344" lon="0.32857">
        <ele>110.7</ele>
        <time>2020-05-30T16:14:18Z</time>
      </trkpt>
      <trkpt lat="46.57344" lon="0.32857">
        <ele>110.7</ele>
        <time>2020-05-30T16:14:19Z</time>
      </trkpt>
      <trkpt lat="46.57344" lon="0.32857">
        <ele>110.7</ele>
        <time>2020-05-30T16:14:20Z</time>
      </trkpt>
      <trkpt lat="46.57343" lon="0.32857">
        <ele>110.7</ele>
        <time>2020-05-30T16:14:21Z</time>
      </trkpt>
      <trkpt lat="46.57343" lon="0.32859">
        <ele>110.7</ele>
        <time>2020-05-30T16:14:22Z</time>
      </trkpt>
      <trkpt lat="46.57343" lon="0.32857">
        <ele>110.8</ele>
        <time>2020-05-30T16:14:23Z</time>
      </trkpt>
      <trkpt lat="46.57342" lon="0.32856">
        <ele>110.8</ele>
        <time>2020-05-30T16:14:24Z</time>
      </trkpt>
      <trkpt lat="46.57342" lon="0.32854">
        <ele>110.8</ele>
        <time>2020-05-30T16:14:25Z</time>
      </trkpt>
      <trkpt lat="46.57342" lon="0.32852">
        <ele>110.8</ele>
        <time>2020-05-30T16:14:26Z</time>
      </trkpt>
      <trkpt lat="46.57342" lon="0.32853">
        <ele>110.8</ele>
        <time>2020-05-30T16:14:27Z</time>
      </trkpt>
      <trkpt lat="46.57342" lon="0.32853">
        <ele>110.8</ele>
        <time>2020-05-30T16:14:28Z</time>
      </trkpt>
      <trkpt lat="46.57341" lon="0.32852">
        <ele>110.8</ele>
        <time>2020-05-30T16:14:29Z</time>
      </trkpt>
      <trkpt lat="46.5734" lon="0.3285">
        <ele>110.8</ele>
        <time>2020-05-30T16:14:30Z</time>
      </trkpt>
      <trkpt lat="46.57339" lon="0.32849">
        <ele>110.8</ele>
        <time>2020-05-30T16:14:31Z</time>
      </trkpt>
      <trkpt lat="46.57336" lon="0.32842">
        <ele>110.8</ele>
        <time>2020-05-30T16:14:32Z</time>
      </trkpt>
      <trkpt lat="46.57334" lon="0.32838">
        <ele>110.8</ele>
        <time>2020-05-30T16:14:33Z</time>
      </trkpt>
      <trkpt lat="46.57333" lon="0.32836">
        <ele>110.8</ele>
        <time>2020-05-30T16:14:34Z</time>
      </trkpt>
      <trkpt lat="46.57331" lon="0.3283">
        <ele>110.8</ele>
        <time>2020-05-30T16:14:35Z</time>
      </trkpt>
      <trkpt lat="46.57328" lon="0.32825">
        <ele>110.8</ele>
        <time>2020-05-30T16:14:36Z</time>
      </trkpt>
      <trkpt lat="46.57325" lon="0.3282">
        <ele>110.8</ele>
        <time>2020-05-30T16:14:37Z</time>
      </trkpt>
      <trkpt lat="46.57324" lon="0.32819">
        <ele>110.8</ele>
        <time>2020-05-30T16:14:38Z</time>
      </trkpt>
      <trkpt lat="46.57322" lon="0.32816">
        <ele>110.8</ele>
        <time>2020-05-30T16:14:39Z</time>
      </trkpt>
      <trkpt lat="46.57322" lon="0.32813">
        <ele>110.8</ele>
        <time>2020-05-30T16:14:40Z</time>
      </trkpt>
      <trkpt lat="46.57321" lon="0.32812">
        <ele>110.8</ele>
        <time>2020-05-30T16:14:41Z</time>
      </trkpt>
      <trkpt lat="46.57318" lon="0.32808">
        <ele>110.8</ele>
        <time>2020-05-30T16:14:42Z</time>
      </trkpt>
      <trkpt lat="46.57317" lon="0.32808">
        <ele>110.8</ele>
        <time>2020-05-30T16:14:43Z</time>
      </trkpt>
      <trkpt lat="46.57315" lon="0.32805">
        <ele>110.8</ele>
        <time>2020-05-30T16:14:44Z</time>
      </trkpt>
      <trkpt lat="46.57315" lon="0.32806">
        <ele>110.8</ele>
        <time>2020-05-30T16:14:45Z</time>
      </trkpt>
      <trkpt lat="46.57314" lon="0.32807">
        <ele>110.8</ele>
        <time>2020-05-30T16:14:46Z</time>
      </trkpt>
      <trkpt lat="46.57314" lon="0.32806">
        <ele>110.8</ele>
        <time>2020-05-30T16:14:47Z</time>
      </trkpt>
      <trkpt lat="46.57314" lon="0.32807">
        <ele>110.8</ele>
        <time>2020-05-30T16:14:48Z</time>
      </trkpt>
      <trkpt lat="46.57315" lon="0.32808">
        <ele>110.8</ele>
        <time>2020-05-30T16:14:49Z</time>
      </trkpt>
      <trkpt lat="46.57314" lon="0.32806">
        <ele>110.8</ele>
        <time>2020-05-30T16:14:50Z</time>
      </trkpt>
      <trkpt lat="46.57314" lon="0.32807">
        <ele>110.8</ele>
        <time>2020-05-30T16:14:51Z</time>
      </trkpt>
      <trkpt lat="46.57314" lon="0.32807">
        <ele>110.8</ele>
        <time>2020-05-30T16:14:52Z</time>
      </trkpt>
      <trkpt lat="46.57314" lon="0.32806">
        <ele>110.8</ele>
        <time>2020-05-30T16:14:53Z</time>
      </trkpt>
      <trkpt lat="46.57313" lon="0.32806">
        <ele>110.8</ele>
        <time>2020-05-30T16:14:54Z</time>
      </trkpt>
      <trkpt lat="46.57313" lon="0.32807">
        <ele>110.8</ele>
        <time>2020-05-30T16:14:55Z</time>
      </trkpt>
      <trkpt lat="46.57312" lon="0.32806">
        <ele>110.8</ele>
        <time>2020-05-30T16:14:56Z</time>
      </trkpt>
      <trkpt lat="46.57311" lon="0.32806">
        <ele>110.8</ele>
        <time>2020-05-30T16:14:57Z</time>
      </trkpt>
      <trkpt lat="46.57311" lon="0.32805">
        <ele>110.8</ele>
        <time>2020-05-30T16:14:58Z</time>
      </trkpt>
      <trkpt lat="46.57311" lon="0.32804">
        <ele>110.8</ele>
        <time>2020-05-30T16:14:59Z</time>
      </trkpt>
      <trkpt lat="46.5731" lon="0.32804">
        <ele>110.8</ele>
        <time>2020-05-30T16:15:00Z</time>
      </trkpt>
      <trkpt lat="46.57311" lon="0.32804">
        <ele>110.8</ele>
        <time>2020-05-30T16:15:01Z</time>
      </trkpt>
      <trkpt lat="46.57311" lon="0.32804">
        <ele>110.8</ele>
        <time>2020-05-30T16:15:02Z</time>
      </trkpt>
      <trkpt lat="46.57311" lon="0.32805">
        <ele>110.8</ele>
        <time>2020-05-30T16:15:03Z</time>
      </trkpt>
      <trkpt lat="46.57311" lon="0.32806">
        <ele>110.8</ele>
        <time>2020-05-30T16:15:04Z</time>
      </trkpt>
      <trkpt lat="46.57312" lon="0.32806">
        <ele>110.8</ele>
        <time>2020-05-30T16:15:05Z</time>
      </trkpt>
      <trkpt lat="46.57312" lon="0.32807">
        <ele>110.8</ele>
        <time>2020-05-30T16:15:06Z</time>
      </trkpt>
      <trkpt lat="46.57312" lon="0.32807">
        <ele>110.8</ele>
        <time>2020-05-30T16:15:07Z</time>
      </trkpt>
      <trkpt lat="46.57312" lon="0.32808">
        <ele>110.8</ele>
        <time>2020-05-30T16:15:08Z</time>
      </trkpt>
      <trkpt lat="46.57311" lon="0.32809">
        <ele>110.9</ele>
        <time>2020-05-30T16:15:09Z</time>
      </trkpt>
      <trkpt lat="46.57311" lon="0.32808">
        <ele>110.9</ele>
        <time>2020-05-30T16:15:10Z</time>
      </trkpt>
      <trkpt lat="46.57312" lon="0.32809">
        <ele>110.9</ele>
        <time>2020-05-30T16:15:11Z</time>
      </trkpt>
      <trkpt lat="46.57311" lon="0.32808">
        <ele>110.9</ele>
        <time>2020-05-30T16:15:12Z</time>
      </trkpt>
      <trkpt lat="46.57311" lon="0.32808">
        <ele>110.9</ele>
        <time>2020-05-30T16:15:13Z</time>
      </trkpt>
      <trkpt lat="46.57311" lon="0.32808">
        <ele>110.9</ele>
        <time>2020-05-30T16:15:14Z</time>
      </trkpt>
      <trkpt lat="46.57312" lon="0.32808">
        <ele>110.9</ele>
        <time>2020-05-30T16:15:15Z</time>
      </trkpt>
      <trkpt lat="46.57312" lon="0.32808">
        <ele>110.9</ele>
        <time>2020-05-30T16:15:16Z</time>
      </trkpt>
      <trkpt lat="46.57312" lon="0.32807">
        <ele>110.9</ele>
        <time>2020-05-30T16:15:17Z</time>
      </trkpt>
      <trkpt lat="46.57313" lon="0.32807">
        <ele>110.9</ele>
        <time>2020-05-30T16:15:18Z</time>
      </trkpt>
      <trkpt lat="46.57313" lon="0.32808">
        <ele>110.9</ele>
        <time>2020-05-30T16:15:19Z</time>
      </trkpt>
      <trkpt lat="46.57313" lon="0.32807">
        <ele>110.9</ele>
        <time>2020-05-30T16:15:20Z</time>
      </trkpt>
      <trkpt lat="46.57314" lon="0.32807">
        <ele>110.9</ele>
        <time>2020-05-30T16:15:21Z</time>
      </trkpt>
      <trkpt lat="46.57314" lon="0.32807">
        <ele>110.9</ele>
        <time>2020-05-30T16:15:22Z</time>
      </trkpt>
      <trkpt lat="46.57315" lon="0.32807">
        <ele>110.9</ele>
        <time>2020-05-30T16:15:23Z</time>
      </trkpt>
      <trkpt lat="46.57315" lon="0.32807">
        <ele>110.9</ele>
        <time>2020-05-30T16:15:24Z</time>
      </trkpt>
      <trkpt lat="46.57313" lon="0.32804">
        <ele>110.9</ele>
        <time>2020-05-30T16:15:25Z</time>
      </trkpt>
      <trkpt lat="46.5731" lon="0.328">
        <ele>110.9</ele>
        <time>2020-05-30T16:15:26Z</time>
      </trkpt>
      <trkpt lat="46.57308" lon="0.32798">
        <ele>110.9</ele>
        <time>2020-05-30T16:15:27Z</time>
      </trkpt>
      <trkpt lat="46.57306" lon="0.32795">
        <ele>110.9</ele>
        <time>2020-05-30T16:15:28Z</time>
      </trkpt>
      <trkpt lat="46.57303" lon="0.32791">
        <ele>110.9</ele>
        <time>2020-05-30T16:15:29Z</time>
      </trkpt>
      <trkpt lat="46.57301" lon="0.32788">
        <ele>110.9</ele>
        <time>2020-05-30T16:15:30Z</time>
      </trkpt>
      <trkpt lat="46.57298" lon="0.32784">
        <ele>110.9</ele>
        <time>2020-05-30T16:15:31Z</time>
      </trkpt>
      <trkpt lat="46.57294" lon="0.32779">
        <ele>110.9</ele>
        <time>2020-05-30T16:15:32Z</time>
      </trkpt>
      <trkpt lat="46.57292" lon="0.32776">
        <ele>110.9</ele>
        <time>2020-05-30T16:15:33Z</time>
      </trkpt>
      <trkpt lat="46.57289" lon="0.32769">
        <ele>110.9</ele>
        <time>2020-05-30T16:15:34Z</time>
      </trkpt>
      <trkpt lat="46.57285" lon="0.32762">
        <ele>111</ele>
        <time>2020-05-30T16:15:35Z</time>
      </trkpt>
      <trkpt lat="46.57281" lon="0.32757">
        <ele>111</ele>
        <time>2020-05-30T16:15:36Z</time>
      </trkpt>
      <trkpt lat="46.57278" lon="0.3275">
        <ele>111</ele>
        <time>2020-05-30T16:15:37Z</time>
      </trkpt>
      <trkpt lat="46.57275" lon="0.32744">
        <ele>111</ele>
        <time>2020-05-30T16:15:38Z</time>
      </trkpt>
      <trkpt lat="46.57271" lon="0.32738">
        <ele>111.1</ele>
        <time>2020-05-30T16:15:39Z</time>
      </trkpt>
      <trkpt lat="46.57268" lon="0.32731">
        <ele>111.2</ele>
        <time>2020-05-30T16:15:40Z</time>
      </trkpt>
      <trkpt lat="46.57265" lon="0.32726">
        <ele>111.1</ele>
        <time>2020-05-30T16:15:41Z</time>
      </trkpt>
      <trkpt lat="46.57259" lon="0.32721">
        <ele>111.1</ele>
        <time>2020-05-30T16:15:42Z</time>
      </trkpt>
      <trkpt lat="46.57256" lon="0.32716">
        <ele>111.1</ele>
        <time>2020-05-30T16:15:43Z</time>
      </trkpt>
      <trkpt lat="46.57252" lon="0.32708">
        <ele>111.1</ele>
        <time>2020-05-30T16:15:44Z</time>
      </trkpt>
      <trkpt lat="46.57247" lon="0.327">
        <ele>111.2</ele>
        <time>2020-05-30T16:15:45Z</time>
      </trkpt>
      <trkpt lat="46.57244" lon="0.32695">
        <ele>111.2</ele>
        <time>2020-05-30T16:15:46Z</time>
      </trkpt>
      <trkpt lat="46.5724" lon="0.32689">
        <ele>111.2</ele>
        <time>2020-05-30T16:15:47Z</time>
      </trkpt>
      <trkpt lat="46.57236" lon="0.32683">
        <ele>111.3</ele>
        <time>2020-05-30T16:15:48Z</time>
      </trkpt>
      <trkpt lat="46.57231" lon="0.32677">
        <ele>111.4</ele>
        <time>2020-05-30T16:15:49Z</time>
      </trkpt>
      <trkpt lat="46.57227" lon="0.32669">
        <ele>111.5</ele>
        <time>2020-05-30T16:15:50Z</time>
      </trkpt>
      <trkpt lat="46.57222" lon="0.32663">
        <ele>111.5</ele>
        <time>2020-05-30T16:15:51Z</time>
      </trkpt>
      <trkpt lat="46.57218" lon="0.32657">
        <ele>111.5</ele>
        <time>2020-05-30T16:15:52Z</time>
      </trkpt>
      <trkpt lat="46.57214" lon="0.32651">
        <ele>111.5</ele>
        <time>2020-05-30T16:15:53Z</time>
      </trkpt>
      <trkpt lat="46.5721" lon="0.32645">
        <ele>111.5</ele>
        <time>2020-05-30T16:15:54Z</time>
      </trkpt>
      <trkpt lat="46.57205" lon="0.32639">
        <ele>111.5</ele>
        <time>2020-05-30T16:15:55Z</time>
      </trkpt>
      <trkpt lat="46.57201" lon="0.32631">
        <ele>111.5</ele>
        <time>2020-05-30T16:15:56Z</time>
      </trkpt>
      <trkpt lat="46.57197" lon="0.32624">
        <ele>111.5</ele>
        <time>2020-05-30T16:15:57Z</time>
      </trkpt>
      <trkpt lat="46.57192" lon="0.32618">
        <ele>111.5</ele>
        <time>2020-05-30T16:15:58Z</time>
      </trkpt>
      <trkpt lat="46.57188" lon="0.32611">
        <ele>111.4</ele>
        <time>2020-05-30T16:15:59Z</time>
      </trkpt>
      <trkpt lat="46.57182" lon="0.32603">
        <ele>111.4</ele>
        <time>2020-05-30T16:16:00Z</time>
      </trkpt>
      <trkpt lat="46.57179" lon="0.32598">
        <ele>111.4</ele>
        <time>2020-05-30T16:16:01Z</time>
      </trkpt>
      <trkpt lat="46.57172" lon="0.32589">
        <ele>111.3</ele>
        <time>2020-05-30T16:16:02Z</time>
      </trkpt>
      <trkpt lat="46.57167" lon="0.32584">
        <ele>111.2</ele>
        <time>2020-05-30T16:16:03Z</time>
      </trkpt>
      <trkpt lat="46.57161" lon="0.32577">
        <ele>111.2</ele>
        <time>2020-05-30T16:16:04Z</time>
      </trkpt>
      <trkpt lat="46.57157" lon="0.32569">
        <ele>111.1</ele>
        <time>2020-05-30T16:16:05Z</time>
      </trkpt>
      <trkpt lat="46.57151" lon="0.32564">
        <ele>111</ele>
        <time>2020-05-30T16:16:06Z</time>
      </trkpt>
      <trkpt lat="46.57146" lon="0.32557">
        <ele>110.9</ele>
        <time>2020-05-30T16:16:07Z</time>
      </trkpt>
      <trkpt lat="46.5714" lon="0.32551">
        <ele>110.8</ele>
        <time>2020-05-30T16:16:08Z</time>
      </trkpt>
      <trkpt lat="46.57134" lon="0.32546">
        <ele>110.6</ele>
        <time>2020-05-30T16:16:09Z</time>
      </trkpt>
      <trkpt lat="46.57129" lon="0.32539">
        <ele>110.5</ele>
        <time>2020-05-30T16:16:10Z</time>
      </trkpt>
      <trkpt lat="46.57124" lon="0.32533">
        <ele>110.4</ele>
        <time>2020-05-30T16:16:11Z</time>
      </trkpt>
      <trkpt lat="46.57118" lon="0.32528">
        <ele>110.3</ele>
        <time>2020-05-30T16:16:12Z</time>
      </trkpt>
      <trkpt lat="46.57113" lon="0.32522">
        <ele>110.3</ele>
        <time>2020-05-30T16:16:13Z</time>
      </trkpt>
      <trkpt lat="46.57108" lon="0.32517">
        <ele>110.2</ele>
        <time>2020-05-30T16:16:14Z</time>
      </trkpt>
      <trkpt lat="46.57104" lon="0.32512">
        <ele>110.2</ele>
        <time>2020-05-30T16:16:15Z</time>
      </trkpt>
      <trkpt lat="46.57101" lon="0.32506">
        <ele>110.2</ele>
        <time>2020-05-30T16:16:16Z</time>
      </trkpt>
      <trkpt lat="46.57098" lon="0.325">
        <ele>110.3</ele>
        <time>2020-05-30T16:16:17Z</time>
      </trkpt>
      <trkpt lat="46.57094" lon="0.32495">
        <ele>110.5</ele>
        <time>2020-05-30T16:16:18Z</time>
      </trkpt>
      <trkpt lat="46.5709" lon="0.32491">
        <ele>110.6</ele>
        <time>2020-05-30T16:16:19Z</time>
      </trkpt>
      <trkpt lat="46.57086" lon="0.32486">
        <ele>110.7</ele>
        <time>2020-05-30T16:16:20Z</time>
      </trkpt>
      <trkpt lat="46.57081" lon="0.32481">
        <ele>110.8</ele>
        <time>2020-05-30T16:16:21Z</time>
      </trkpt>
      <trkpt lat="46.57077" lon="0.32475">
        <ele>110.9</ele>
        <time>2020-05-30T16:16:22Z</time>
      </trkpt>
      <trkpt lat="46.57073" lon="0.32469">
        <ele>111</ele>
        <time>2020-05-30T16:16:23Z</time>
      </trkpt>
      <trkpt lat="46.57068" lon="0.32463">
        <ele>111.2</ele>
        <time>2020-05-30T16:16:24Z</time>
      </trkpt>
      <trkpt lat="46.57064" lon="0.32457">
        <ele>111.4</ele>
        <time>2020-05-30T16:16:25Z</time>
      </trkpt>
      <trkpt lat="46.57059" lon="0.3245">
        <ele>111.6</ele>
        <time>2020-05-30T16:16:26Z</time>
      </trkpt>
      <trkpt lat="46.57055" lon="0.32444">
        <ele>111.8</ele>
        <time>2020-05-30T16:16:27Z</time>
      </trkpt>
      <trkpt lat="46.5705" lon="0.32438">
        <ele>112</ele>
        <time>2020-05-30T16:16:28Z</time>
      </trkpt>
      <trkpt lat="46.57045" lon="0.32432">
        <ele>112.2</ele>
        <time>2020-05-30T16:16:29Z</time>
      </trkpt>
      <trkpt lat="46.57041" lon="0.32425">
        <ele>112.3</ele>
        <time>2020-05-30T16:16:30Z</time>
      </trkpt>
      <trkpt lat="46.57036" lon="0.32419">
        <ele>112.5</ele>
        <time>2020-05-30T16:16:31Z</time>
      </trkpt>
      <trkpt lat="46.57031" lon="0.32412">
        <ele>112.7</ele>
        <time>2020-05-30T16:16:32Z</time>
      </trkpt>
      <trkpt lat="46.57027" lon="0.32404">
        <ele>113</ele>
        <time>2020-05-30T16:16:33Z</time>
      </trkpt>
      <trkpt lat="46.57023" lon="0.32395">
        <ele>113.2</ele>
        <time>2020-05-30T16:16:34Z</time>
      </trkpt>
      <trkpt lat="46.57019" lon="0.32387">
        <ele>113.5</ele>
        <time>2020-05-30T16:16:35Z</time>
      </trkpt>
      <trkpt lat="46.57015" lon="0.32378">
        <ele>113.7</ele>
        <time>2020-05-30T16:16:36Z</time>
      </trkpt>
      <trkpt lat="46.5701" lon="0.3237">
        <ele>114</ele>
        <time>2020-05-30T16:16:37Z</time>
      </trkpt>
      <trkpt lat="46.57005" lon="0.32364">
        <ele>114.2</ele>
        <time>2020-05-30T16:16:38Z</time>
      </trkpt>
      <trkpt lat="46.57" lon="0.32356">
        <ele>114.4</ele>
        <time>2020-05-30T16:16:39Z</time>
      </trkpt>
      <trkpt lat="46.56996" lon="0.3235">
        <ele>114.6</ele>
        <time>2020-05-30T16:16:40Z</time>
      </trkpt>
      <trkpt lat="46.56991" lon="0.32341">
        <ele>114.8</ele>
        <time>2020-05-30T16:16:41Z</time>
      </trkpt>
      <trkpt lat="46.56985" lon="0.32333">
        <ele>115</ele>
        <time>2020-05-30T16:16:42Z</time>
      </trkpt>
      <trkpt lat="46.5698" lon="0.32326">
        <ele>115.2</ele>
        <time>2020-05-30T16:16:43Z</time>
      </trkpt>
      <trkpt lat="46.56974" lon="0.32319">
        <ele>115.4</ele>
        <time>2020-05-30T16:16:44Z</time>
      </trkpt>
      <trkpt lat="46.56971" lon="0.3231">
        <ele>115.6</ele>
        <time>2020-05-30T16:16:45Z</time>
      </trkpt>
      <trkpt lat="46.56966" lon="0.32303">
        <ele>115.8</ele>
        <time>2020-05-30T16:16:46Z</time>
      </trkpt>
      <trkpt lat="46.56961" lon="0.32297">
        <ele>115.9</ele>
        <time>2020-05-30T16:16:47Z</time>
      </trkpt>
      <trkpt lat="46.56957" lon="0.32291">
        <ele>116.1</ele>
        <time>2020-05-30T16:16:48Z</time>
      </trkpt>
      <trkpt lat="46.56952" lon="0.32285">
        <ele>116.2</ele>
        <time>2020-05-30T16:16:49Z</time>
      </trkpt>
      <trkpt lat="46.56947" lon="0.32278">
        <ele>116.4</ele>
        <time>2020-05-30T16:16:50Z</time>
      </trkpt>
      <trkpt lat="46.56943" lon="0.3227">
        <ele>116.5</ele>
        <time>2020-05-30T16:16:51Z</time>
      </trkpt>
      <trkpt lat="46.56939" lon="0.32262">
        <ele>116.7</ele>
        <time>2020-05-30T16:16:52Z</time>
      </trkpt>
      <trkpt lat="46.56935" lon="0.32255">
        <ele>116.8</ele>
        <time>2020-05-30T16:16:53Z</time>
      </trkpt>
      <trkpt lat="46.5693" lon="0.32248">
        <ele>116.8</ele>
        <time>2020-05-30T16:16:54Z</time>
      </trkpt>
      <trkpt lat="46.56926" lon="0.32241">
        <ele>116.9</ele>
        <time>2020-05-30T16:16:55Z</time>
      </trkpt>
      <trkpt lat="46.56921" lon="0.32233">
        <ele>117</ele>
        <time>2020-05-30T16:16:56Z</time>
      </trkpt>
      <trkpt lat="46.56917" lon="0.32225">
        <ele>117</ele>
        <time>2020-05-30T16:16:57Z</time>
      </trkpt>
      <trkpt lat="46.56913" lon="0.32217">
        <ele>117</ele>
        <time>2020-05-30T16:16:58Z</time>
      </trkpt>
      <trkpt lat="46.56908" lon="0.32211">
        <ele>117.1</ele>
        <time>2020-05-30T16:16:59Z</time>
      </trkpt>
      <trkpt lat="46.56904" lon="0.32205">
        <ele>117.1</ele>
        <time>2020-05-30T16:17:00Z</time>
      </trkpt>
      <trkpt lat="46.56899" lon="0.32198">
        <ele>117.1</ele>
        <time>2020-05-30T16:17:01Z</time>
      </trkpt>
      <trkpt lat="46.56895" lon="0.32191">
        <ele>117.1</ele>
        <time>2020-05-30T16:17:02Z</time>
      </trkpt>
      <trkpt lat="46.5689" lon="0.32184">
        <ele>117.1</ele>
        <time>2020-05-30T16:17:03Z</time>
      </trkpt>
      <trkpt lat="46.56885" lon="0.32177">
        <ele>117.2</ele>
        <time>2020-05-30T16:17:04Z</time>
      </trkpt>
      <trkpt lat="46.56881" lon="0.3217">
        <ele>117.2</ele>
        <time>2020-05-30T16:17:05Z</time>
      </trkpt>
      <trkpt lat="46.56876" lon="0.32164">
        <ele>117.3</ele>
        <time>2020-05-30T16:17:06Z</time>
      </trkpt>
      <trkpt lat="46.56871" lon="0.32157">
        <ele>117.4</ele>
        <time>2020-05-30T16:17:07Z</time>
      </trkpt>
      <trkpt lat="46.56866" lon="0.3215">
        <ele>117.4</ele>
        <time>2020-05-30T16:17:08Z</time>
      </trkpt>
      <trkpt lat="46.56862" lon="0.32143">
        <ele>117.5</ele>
        <time>2020-05-30T16:17:09Z</time>
      </trkpt>
      <trkpt lat="46.56857" lon="0.32135">
        <ele>117.6</ele>
        <time>2020-05-30T16:17:10Z</time>
      </trkpt>
      <trkpt lat="46.56852" lon="0.32128">
        <ele>117.7</ele>
        <time>2020-05-30T16:17:11Z</time>
      </trkpt>
      <trkpt lat="46.56846" lon="0.32123">
        <ele>117.7</ele>
        <time>2020-05-30T16:17:12Z</time>
      </trkpt>
      <trkpt lat="46.56842" lon="0.32116">
        <ele>117.8</ele>
        <time>2020-05-30T16:17:13Z</time>
      </trkpt>
      <trkpt lat="46.56837" lon="0.32108">
        <ele>117.8</ele>
        <time>2020-05-30T16:17:14Z</time>
      </trkpt>
      <trkpt lat="46.56832" lon="0.32101">
        <ele>117.9</ele>
        <time>2020-05-30T16:17:15Z</time>
      </trkpt>
      <trkpt lat="46.56828" lon="0.32093">
        <ele>117.9</ele>
        <time>2020-05-30T16:17:16Z</time>
      </trkpt>
      <trkpt lat="46.56824" lon="0.32085">
        <ele>118</ele>
        <time>2020-05-30T16:17:17Z</time>
      </trkpt>
      <trkpt lat="46.5682" lon="0.32078">
        <ele>118</ele>
        <time>2020-05-30T16:17:18Z</time>
      </trkpt>
      <trkpt lat="46.56816" lon="0.3207">
        <ele>118</ele>
        <time>2020-05-30T16:17:19Z</time>
      </trkpt>
      <trkpt lat="46.56812" lon="0.32062">
        <ele>118.1</ele>
        <time>2020-05-30T16:17:20Z</time>
      </trkpt>
      <trkpt lat="46.56808" lon="0.32056">
        <ele>118.1</ele>
        <time>2020-05-30T16:17:21Z</time>
      </trkpt>
      <trkpt lat="46.56804" lon="0.32051">
        <ele>118.1</ele>
        <time>2020-05-30T16:17:22Z</time>
      </trkpt>
      <trkpt lat="46.568" lon="0.32046">
        <ele>118.2</ele>
        <time>2020-05-30T16:17:23Z</time>
      </trkpt>
      <trkpt lat="46.56796" lon="0.32042">
        <ele>118.2</ele>
        <time>2020-05-30T16:17:24Z</time>
      </trkpt>
      <trkpt lat="46.56792" lon="0.32038">
        <ele>118.2</ele>
        <time>2020-05-30T16:17:25Z</time>
      </trkpt>
      <trkpt lat="46.5679" lon="0.32034">
        <ele>118.2</ele>
        <time>2020-05-30T16:17:26Z</time>
      </trkpt>
      <trkpt lat="46.56786" lon="0.32032">
        <ele>118.2</ele>
        <time>2020-05-30T16:17:27Z</time>
      </trkpt>
      <trkpt lat="46.56784" lon="0.32029">
        <ele>118.2</ele>
        <time>2020-05-30T16:17:28Z</time>
      </trkpt>
      <trkpt lat="46.56782" lon="0.32028">
        <ele>118.2</ele>
        <time>2020-05-30T16:17:29Z</time>
      </trkpt>
      <trkpt lat="46.5678" lon="0.32028">
        <ele>118.2</ele>
        <time>2020-05-30T16:17:30Z</time>
      </trkpt>
      <trkpt lat="46.56779" lon="0.32028">
        <ele>118.2</ele>
        <time>2020-05-30T16:17:31Z</time>
      </trkpt>
      <trkpt lat="46.56778" lon="0.32026">
        <ele>118.2</ele>
        <time>2020-05-30T16:17:32Z</time>
      </trkpt>
      <trkpt lat="46.56777" lon="0.32025">
        <ele>118.2</ele>
        <time>2020-05-30T16:17:33Z</time>
      </trkpt>
      <trkpt lat="46.56775" lon="0.32021">
        <ele>118.2</ele>
        <time>2020-05-30T16:17:34Z</time>
      </trkpt>
      <trkpt lat="46.56774" lon="0.32019">
        <ele>118.2</ele>
        <time>2020-05-30T16:17:35Z</time>
      </trkpt>
      <trkpt lat="46.56773" lon="0.32015">
        <ele>118.2</ele>
        <time>2020-05-30T16:17:36Z</time>
      </trkpt>
      <trkpt lat="46.56771" lon="0.32011">
        <ele>118.3</ele>
        <time>2020-05-30T16:17:37Z</time>
      </trkpt>
      <trkpt lat="46.56769" lon="0.32007">
        <ele>118.2</ele>
        <time>2020-05-30T16:17:38Z</time>
      </trkpt>
      <trkpt lat="46.56766" lon="0.32004">
        <ele>118.2</ele>
        <time>2020-05-30T16:17:39Z</time>
      </trkpt>
      <trkpt lat="46.56763" lon="0.32001">
        <ele>118.2</ele>
        <time>2020-05-30T16:17:40Z</time>
      </trkpt>
      <trkpt lat="46.56759" lon="0.31997">
        <ele>118.2</ele>
        <time>2020-05-30T16:17:41Z</time>
      </trkpt>
      <trkpt lat="46.56755" lon="0.31994">
        <ele>118.2</ele>
        <time>2020-05-30T16:17:42Z</time>
      </trkpt>
      <trkpt lat="46.56753" lon="0.31988">
        <ele>118.2</ele>
        <time>2020-05-30T16:17:43Z</time>
      </trkpt>
      <trkpt lat="46.56749" lon="0.31983">
        <ele>118.2</ele>
        <time>2020-05-30T16:17:44Z</time>
      </trkpt>
      <trkpt lat="46.56744" lon="0.31979">
        <ele>118.2</ele>
        <time>2020-05-30T16:17:45Z</time>
      </trkpt>
      <trkpt lat="46.5674" lon="0.31975">
        <ele>118.2</ele>
        <time>2020-05-30T16:17:46Z</time>
      </trkpt>
      <trkpt lat="46.56736" lon="0.3197">
        <ele>118.2</ele>
        <time>2020-05-30T16:17:47Z</time>
      </trkpt>
      <trkpt lat="46.5673" lon="0.31967">
        <ele>118.3</ele>
        <time>2020-05-30T16:17:48Z</time>
      </trkpt>
      <trkpt lat="46.56725" lon="0.31963">
        <ele>118.3</ele>
        <time>2020-05-30T16:17:49Z</time>
      </trkpt>
      <trkpt lat="46.5672" lon="0.31958">
        <ele>118.3</ele>
        <time>2020-05-30T16:17:50Z</time>
      </trkpt>
      <trkpt lat="46.56714" lon="0.31954">
        <ele>118.4</ele>
        <time>2020-05-30T16:17:51Z</time>
      </trkpt>
      <trkpt lat="46.56708" lon="0.3195">
        <ele>118.4</ele>
        <time>2020-05-30T16:17:52Z</time>
      </trkpt>
      <trkpt lat="46.56703" lon="0.31945">
        <ele>118.4</ele>
        <time>2020-05-30T16:17:53Z</time>
      </trkpt>
      <trkpt lat="46.56696" lon="0.3194">
        <ele>118.4</ele>
        <time>2020-05-30T16:17:54Z</time>
      </trkpt>
      <trkpt lat="46.5669" lon="0.31935">
        <ele>118.4</ele>
        <time>2020-05-30T16:17:55Z</time>
      </trkpt>
      <trkpt lat="46.56683" lon="0.31932">
        <ele>118.4</ele>
        <time>2020-05-30T16:17:56Z</time>
      </trkpt>
      <trkpt lat="46.56676" lon="0.31927">
        <ele>118.4</ele>
        <time>2020-05-30T16:17:57Z</time>
      </trkpt>
      <trkpt lat="46.5667" lon="0.31923">
        <ele>118.4</ele>
        <time>2020-05-30T16:17:58Z</time>
      </trkpt>
      <trkpt lat="46.56663" lon="0.31917">
        <ele>118.4</ele>
        <time>2020-05-30T16:17:59Z</time>
      </trkpt>
      <trkpt lat="46.56657" lon="0.31912">
        <ele>118.4</ele>
        <time>2020-05-30T16:18:00Z</time>
      </trkpt>
      <trkpt lat="46.5665" lon="0.31907">
        <ele>118.5</ele>
        <time>2020-05-30T16:18:01Z</time>
      </trkpt>
      <trkpt lat="46.56643" lon="0.31901">
        <ele>118.5</ele>
        <time>2020-05-30T16:18:02Z</time>
      </trkpt>
      <trkpt lat="46.56636" lon="0.31897">
        <ele>118.5</ele>
        <time>2020-05-30T16:18:03Z</time>
      </trkpt>
      <trkpt lat="46.5663" lon="0.31891">
        <ele>118.5</ele>
        <time>2020-05-30T16:18:04Z</time>
      </trkpt>
      <trkpt lat="46.56623" lon="0.31886">
        <ele>118.5</ele>
        <time>2020-05-30T16:18:05Z</time>
      </trkpt>
      <trkpt lat="46.56616" lon="0.3188">
        <ele>118.4</ele>
        <time>2020-05-30T16:18:06Z</time>
      </trkpt>
      <trkpt lat="46.56609" lon="0.31874">
        <ele>118.4</ele>
        <time>2020-05-30T16:18:07Z</time>
      </trkpt>
      <trkpt lat="46.56602" lon="0.31869">
        <ele>118.4</ele>
        <time>2020-05-30T16:18:08Z</time>
      </trkpt>
      <trkpt lat="46.56595" lon="0.31863">
        <ele>118.3</ele>
        <time>2020-05-30T16:18:09Z</time>
      </trkpt>
      <trkpt lat="46.56588" lon="0.31859">
        <ele>118.3</ele>
        <time>2020-05-30T16:18:10Z</time>
      </trkpt>
      <trkpt lat="46.56581" lon="0.31854">
        <ele>118.3</ele>
        <time>2020-05-30T16:18:11Z</time>
      </trkpt>
      <trkpt lat="46.56574" lon="0.3185">
        <ele>118.2</ele>
        <time>2020-05-30T16:18:12Z</time>
      </trkpt>
      <trkpt lat="46.56567" lon="0.31845">
        <ele>118.1</ele>
        <time>2020-05-30T16:18:13Z</time>
      </trkpt>
      <trkpt lat="46.5656" lon="0.3184">
        <ele>118.1</ele>
        <time>2020-05-30T16:18:14Z</time>
      </trkpt>
      <trkpt lat="46.56552" lon="0.31834">
        <ele>118</ele>
        <time>2020-05-30T16:18:15Z</time>
      </trkpt>
      <trkpt lat="46.56545" lon="0.31829">
        <ele>117.9</ele>
        <time>2020-05-30T16:18:16Z</time>
      </trkpt>
      <trkpt lat="46.56538" lon="0.31824">
        <ele>117.8</ele>
        <time>2020-05-30T16:18:17Z</time>
      </trkpt>
      <trkpt lat="46.56531" lon="0.31819">
        <ele>117.8</ele>
        <time>2020-05-30T16:18:18Z</time>
      </trkpt>
      <trkpt lat="46.56524" lon="0.31814">
        <ele>117.7</ele>
        <time>2020-05-30T16:18:19Z</time>
      </trkpt>
      <trkpt lat="46.56517" lon="0.31809">
        <ele>117.7</ele>
        <time>2020-05-30T16:18:20Z</time>
      </trkpt>
      <trkpt lat="46.5651" lon="0.31805">
        <ele>117.6</ele>
        <time>2020-05-30T16:18:21Z</time>
      </trkpt>
      <trkpt lat="46.56503" lon="0.318">
        <ele>117.6</ele>
        <time>2020-05-30T16:18:22Z</time>
      </trkpt>
      <trkpt lat="46.56496" lon="0.31795">
        <ele>117.6</ele>
        <time>2020-05-30T16:18:23Z</time>
      </trkpt>
      <trkpt lat="46.56489" lon="0.3179">
        <ele>117.6</ele>
        <time>2020-05-30T16:18:24Z</time>
      </trkpt>
      <trkpt lat="46.56482" lon="0.31785">
        <ele>117.7</ele>
        <time>2020-05-30T16:18:25Z</time>
      </trkpt>
      <trkpt lat="46.56475" lon="0.31781">
        <ele>117.7</ele>
        <time>2020-05-30T16:18:26Z</time>
      </trkpt>
      <trkpt lat="46.56468" lon="0.31776">
        <ele>117.7</ele>
        <time>2020-05-30T16:18:27Z</time>
      </trkpt>
      <trkpt lat="46.56461" lon="0.31771">
        <ele>117.7</ele>
        <time>2020-05-30T16:18:28Z</time>
      </trkpt>
      <trkpt lat="46.56455" lon="0.31766">
        <ele>117.6</ele>
        <time>2020-05-30T16:18:29Z</time>
      </trkpt>
      <trkpt lat="46.56448" lon="0.3176">
        <ele>117.6</ele>
        <time>2020-05-30T16:18:30Z</time>
      </trkpt>
      <trkpt lat="46.56442" lon="0.31755">
        <ele>117.6</ele>
        <time>2020-05-30T16:18:31Z</time>
      </trkpt>
      <trkpt lat="46.56435" lon="0.3175">
        <ele>117.6</ele>
        <time>2020-05-30T16:18:32Z</time>
      </trkpt>
      <trkpt lat="46.56429" lon="0.31744">
        <ele>117.7</ele>
        <time>2020-05-30T16:18:33Z</time>
      </trkpt>
      <trkpt lat="46.56422" lon="0.3174">
        <ele>117.7</ele>
        <time>2020-05-30T16:18:34Z</time>
      </trkpt>
      <trkpt lat="46.56416" lon="0.31736">
        <ele>117.7</ele>
        <time>2020-05-30T16:18:35Z</time>
      </trkpt>
      <trkpt lat="46.5641" lon="0.31732">
        <ele>117.7</ele>
        <time>2020-05-30T16:18:36Z</time>
      </trkpt>
      <trkpt lat="46.56404" lon="0.31726">
        <ele>117.7</ele>
        <time>2020-05-30T16:18:37Z</time>
      </trkpt>
      <trkpt lat="46.56398" lon="0.31721">
        <ele>117.7</ele>
        <time>2020-05-30T16:18:38Z</time>
      </trkpt>
      <trkpt lat="46.56392" lon="0.31717">
        <ele>117.7</ele>
        <time>2020-05-30T16:18:39Z</time>
      </trkpt>
      <trkpt lat="46.56385" lon="0.31712">
        <ele>117.7</ele>
        <time>2020-05-30T16:18:40Z</time>
      </trkpt>
      <trkpt lat="46.56379" lon="0.31708">
        <ele>117.7</ele>
        <time>2020-05-30T16:18:41Z</time>
      </trkpt>
      <trkpt lat="46.56373" lon="0.31704">
        <ele>117.7</ele>
        <time>2020-05-30T16:18:42Z</time>
      </trkpt>
      <trkpt lat="46.56367" lon="0.317">
        <ele>117.7</ele>
        <time>2020-05-30T16:18:43Z</time>
      </trkpt>
      <trkpt lat="46.56361" lon="0.31695">
        <ele>117.7</ele>
        <time>2020-05-30T16:18:44Z</time>
      </trkpt>
      <trkpt lat="46.56355" lon="0.31691">
        <ele>117.7</ele>
        <time>2020-05-30T16:18:45Z</time>
      </trkpt>
      <trkpt lat="46.56349" lon="0.31688">
        <ele>117.7</ele>
        <time>2020-05-30T16:18:46Z</time>
      </trkpt>
      <trkpt lat="46.56343" lon="0.31683">
        <ele>117.7</ele>
        <time>2020-05-30T16:18:47Z</time>
      </trkpt>
      <trkpt lat="46.56336" lon="0.31679">
        <ele>117.7</ele>
        <time>2020-05-30T16:18:48Z</time>
      </trkpt>
      <trkpt lat="46.5633" lon="0.31674">
        <ele>117.8</ele>
        <time>2020-05-30T16:18:49Z</time>
      </trkpt>
      <trkpt lat="46.56324" lon="0.31669">
        <ele>117.8</ele>
        <time>2020-05-30T16:18:50Z</time>
      </trkpt>
      <trkpt lat="46.56317" lon="0.31665">
        <ele>117.9</ele>
        <time>2020-05-30T16:18:51Z</time>
      </trkpt>
      <trkpt lat="46.56311" lon="0.3166">
        <ele>117.9</ele>
        <time>2020-05-30T16:18:52Z</time>
      </trkpt>
      <trkpt lat="46.56305" lon="0.31654">
        <ele>117.9</ele>
        <time>2020-05-30T16:18:53Z</time>
      </trkpt>
      <trkpt lat="46.56299" lon="0.31648">
        <ele>117.9</ele>
        <time>2020-05-30T16:18:54Z</time>
      </trkpt>
      <trkpt lat="46.56293" lon="0.31642">
        <ele>117.9</ele>
        <time>2020-05-30T16:18:55Z</time>
      </trkpt>
      <trkpt lat="46.56286" lon="0.31636">
        <ele>117.9</ele>
        <time>2020-05-30T16:18:56Z</time>
      </trkpt>
      <trkpt lat="46.5628" lon="0.3163">
        <ele>117.8</ele>
        <time>2020-05-30T16:18:57Z</time>
      </trkpt>
      <trkpt lat="46.56274" lon="0.31623">
        <ele>117.8</ele>
        <time>2020-05-30T16:18:58Z</time>
      </trkpt>
      <trkpt lat="46.56267" lon="0.31616">
        <ele>117.8</ele>
        <time>2020-05-30T16:18:59Z</time>
      </trkpt>
      <trkpt lat="46.56261" lon="0.3161">
        <ele>117.8</ele>
        <time>2020-05-30T16:19:00Z</time>
      </trkpt>
      <trkpt lat="46.56255" lon="0.31602">
        <ele>117.7</ele>
        <time>2020-05-30T16:19:01Z</time>
      </trkpt>
      <trkpt lat="46.56249" lon="0.31595">
        <ele>117.5</ele>
        <time>2020-05-30T16:19:02Z</time>
      </trkpt>
      <trkpt lat="46.56242" lon="0.31587">
        <ele>117.4</ele>
        <time>2020-05-30T16:19:03Z</time>
      </trkpt>
      <trkpt lat="46.56236" lon="0.3158">
        <ele>117.2</ele>
        <time>2020-05-30T16:19:04Z</time>
      </trkpt>
      <trkpt lat="46.56228" lon="0.31574">
        <ele>117</ele>
        <time>2020-05-30T16:19:05Z</time>
      </trkpt>
      <trkpt lat="46.56222" lon="0.31568">
        <ele>116.9</ele>
        <time>2020-05-30T16:19:06Z</time>
      </trkpt>
      <trkpt lat="46.56215" lon="0.31561">
        <ele>116.8</ele>
        <time>2020-05-30T16:19:07Z</time>
      </trkpt>
      <trkpt lat="46.56209" lon="0.31553">
        <ele>116.8</ele>
        <time>2020-05-30T16:19:08Z</time>
      </trkpt>
      <trkpt lat="46.56202" lon="0.31546">
        <ele>116.7</ele>
        <time>2020-05-30T16:19:09Z</time>
      </trkpt>
      <trkpt lat="46.56196" lon="0.31538">
        <ele>116.6</ele>
        <time>2020-05-30T16:19:10Z</time>
      </trkpt>
      <trkpt lat="46.56189" lon="0.31531">
        <ele>116.5</ele>
        <time>2020-05-30T16:19:11Z</time>
      </trkpt>
      <trkpt lat="46.56183" lon="0.31522">
        <ele>116.3</ele>
        <time>2020-05-30T16:19:12Z</time>
      </trkpt>
      <trkpt lat="46.56177" lon="0.31515">
        <ele>116.2</ele>
        <time>2020-05-30T16:19:13Z</time>
      </trkpt>
      <trkpt lat="46.5617" lon="0.31508">
        <ele>116.2</ele>
        <time>2020-05-30T16:19:14Z</time>
      </trkpt>
      <trkpt lat="46.56164" lon="0.31501">
        <ele>116.1</ele>
        <time>2020-05-30T16:19:15Z</time>
      </trkpt>
      <trkpt lat="46.56157" lon="0.31495">
        <ele>116</ele>
        <time>2020-05-30T16:19:16Z</time>
      </trkpt>
      <trkpt lat="46.5615" lon="0.31488">
        <ele>116</ele>
        <time>2020-05-30T16:19:17Z</time>
      </trkpt>
      <trkpt lat="46.56144" lon="0.31481">
        <ele>115.9</ele>
        <time>2020-05-30T16:19:18Z</time>
      </trkpt>
      <trkpt lat="46.56138" lon="0.31473">
        <ele>115.9</ele>
        <time>2020-05-30T16:19:19Z</time>
      </trkpt>
      <trkpt lat="46.56132" lon="0.31466">
        <ele>115.9</ele>
        <time>2020-05-30T16:19:20Z</time>
      </trkpt>
      <trkpt lat="46.56126" lon="0.31459">
        <ele>115.9</ele>
        <time>2020-05-30T16:19:21Z</time>
      </trkpt>
      <trkpt lat="46.56119" lon="0.31452">
        <ele>115.8</ele>
        <time>2020-05-30T16:19:22Z</time>
      </trkpt>
      <trkpt lat="46.56113" lon="0.31446">
        <ele>115.8</ele>
        <time>2020-05-30T16:19:23Z</time>
      </trkpt>
      <trkpt lat="46.56107" lon="0.31438">
        <ele>115.7</ele>
        <time>2020-05-30T16:19:24Z</time>
      </trkpt>
      <trkpt lat="46.56102" lon="0.31431">
        <ele>115.6</ele>
        <time>2020-05-30T16:19:25Z</time>
      </trkpt>
      <trkpt lat="46.56096" lon="0.31425">
        <ele>115.6</ele>
        <time>2020-05-30T16:19:26Z</time>
      </trkpt>
      <trkpt lat="46.56089" lon="0.31419">
        <ele>115.7</ele>
        <time>2020-05-30T16:19:27Z</time>
      </trkpt>
      <trkpt lat="46.56084" lon="0.31412">
        <ele>115.8</ele>
        <time>2020-05-30T16:19:28Z</time>
      </trkpt>
      <trkpt lat="46.56079" lon="0.31405">
        <ele>116</ele>
        <time>2020-05-30T16:19:29Z</time>
      </trkpt>
      <trkpt lat="46.56073" lon="0.31398">
        <ele>116.1</ele>
        <time>2020-05-30T16:19:30Z</time>
      </trkpt>
      <trkpt lat="46.56068" lon="0.31391">
        <ele>116.3</ele>
        <time>2020-05-30T16:19:31Z</time>
      </trkpt>
      <trkpt lat="46.56063" lon="0.31385">
        <ele>116.4</ele>
        <time>2020-05-30T16:19:32Z</time>
      </trkpt>
      <trkpt lat="46.56057" lon="0.3138">
        <ele>116.6</ele>
        <time>2020-05-30T16:19:33Z</time>
      </trkpt>
      <trkpt lat="46.56051" lon="0.31375">
        <ele>116.7</ele>
        <time>2020-05-30T16:19:34Z</time>
      </trkpt>
      <trkpt lat="46.56046" lon="0.3137">
        <ele>116.9</ele>
        <time>2020-05-30T16:19:35Z</time>
      </trkpt>
      <trkpt lat="46.5604" lon="0.31365">
        <ele>117.1</ele>
        <time>2020-05-30T16:19:36Z</time>
      </trkpt>
      <trkpt lat="46.56035" lon="0.31358">
        <ele>117.1</ele>
        <time>2020-05-30T16:19:37Z</time>
      </trkpt>
      <trkpt lat="46.5603" lon="0.31352">
        <ele>117.1</ele>
        <time>2020-05-30T16:19:38Z</time>
      </trkpt>
      <trkpt lat="46.56025" lon="0.31346">
        <ele>117.1</ele>
        <time>2020-05-30T16:19:39Z</time>
      </trkpt>
      <trkpt lat="46.5602" lon="0.3134">
        <ele>117.2</ele>
        <time>2020-05-30T16:19:40Z</time>
      </trkpt>
      <trkpt lat="46.56015" lon="0.31333">
        <ele>117.4</ele>
        <time>2020-05-30T16:19:41Z</time>
      </trkpt>
      <trkpt lat="46.5601" lon="0.31327">
        <ele>117.5</ele>
        <time>2020-05-30T16:19:42Z</time>
      </trkpt>
      <trkpt lat="46.56005" lon="0.3132">
        <ele>117.7</ele>
        <time>2020-05-30T16:19:43Z</time>
      </trkpt>
      <trkpt lat="46.55999" lon="0.31314">
        <ele>117.9</ele>
        <time>2020-05-30T16:19:44Z</time>
      </trkpt>
      <trkpt lat="46.55994" lon="0.31308">
        <ele>118</ele>
        <time>2020-05-30T16:19:45Z</time>
      </trkpt>
      <trkpt lat="46.55989" lon="0.31302">
        <ele>118.1</ele>
        <time>2020-05-30T16:19:46Z</time>
      </trkpt>
      <trkpt lat="46.55984" lon="0.31296">
        <ele>118.3</ele>
        <time>2020-05-30T16:19:47Z</time>
      </trkpt>
      <trkpt lat="46.55979" lon="0.31291">
        <ele>118.4</ele>
        <time>2020-05-30T16:19:48Z</time>
      </trkpt>
      <trkpt lat="46.55974" lon="0.31285">
        <ele>118.5</ele>
        <time>2020-05-30T16:19:49Z</time>
      </trkpt>
      <trkpt lat="46.55969" lon="0.31278">
        <ele>118.7</ele>
        <time>2020-05-30T16:19:50Z</time>
      </trkpt>
      <trkpt lat="46.55964" lon="0.31272">
        <ele>118.9</ele>
        <time>2020-05-30T16:19:51Z</time>
      </trkpt>
      <trkpt lat="46.55959" lon="0.31266">
        <ele>119</ele>
        <time>2020-05-30T16:19:52Z</time>
      </trkpt>
      <trkpt lat="46.55954" lon="0.3126">
        <ele>119.2</ele>
        <time>2020-05-30T16:19:53Z</time>
      </trkpt>
      <trkpt lat="46.55949" lon="0.31255">
        <ele>119.3</ele>
        <time>2020-05-30T16:19:54Z</time>
      </trkpt>
      <trkpt lat="46.55943" lon="0.31249">
        <ele>119.5</ele>
        <time>2020-05-30T16:19:55Z</time>
      </trkpt>
      <trkpt lat="46.55938" lon="0.31243">
        <ele>119.6</ele>
        <time>2020-05-30T16:19:56Z</time>
      </trkpt>
      <trkpt lat="46.55932" lon="0.31237">
        <ele>119.7</ele>
        <time>2020-05-30T16:19:57Z</time>
      </trkpt>
      <trkpt lat="46.55928" lon="0.31231">
        <ele>119.9</ele>
        <time>2020-05-30T16:19:58Z</time>
      </trkpt>
      <trkpt lat="46.55923" lon="0.31225">
        <ele>120</ele>
        <time>2020-05-30T16:19:59Z</time>
      </trkpt>
      <trkpt lat="46.55918" lon="0.31219">
        <ele>120</ele>
        <time>2020-05-30T16:20:00Z</time>
      </trkpt>
      <trkpt lat="46.55913" lon="0.31213">
        <ele>120.1</ele>
        <time>2020-05-30T16:20:01Z</time>
      </trkpt>
      <trkpt lat="46.55908" lon="0.31209">
        <ele>120.2</ele>
        <time>2020-05-30T16:20:02Z</time>
      </trkpt>
      <trkpt lat="46.55902" lon="0.31205">
        <ele>120.4</ele>
        <time>2020-05-30T16:20:03Z</time>
      </trkpt>
      <trkpt lat="46.55897" lon="0.31201">
        <ele>120.4</ele>
        <time>2020-05-30T16:20:04Z</time>
      </trkpt>
      <trkpt lat="46.55892" lon="0.31197">
        <ele>120.5</ele>
        <time>2020-05-30T16:20:05Z</time>
      </trkpt>
      <trkpt lat="46.55888" lon="0.31192">
        <ele>120.7</ele>
        <time>2020-05-30T16:20:06Z</time>
      </trkpt>
      <trkpt lat="46.55884" lon="0.31186">
        <ele>120.8</ele>
        <time>2020-05-30T16:20:07Z</time>
      </trkpt>
      <trkpt lat="46.55878" lon="0.31182">
        <ele>121</ele>
        <time>2020-05-30T16:20:08Z</time>
      </trkpt>
      <trkpt lat="46.55873" lon="0.31177">
        <ele>121.1</ele>
        <time>2020-05-30T16:20:09Z</time>
      </trkpt>
      <trkpt lat="46.55869" lon="0.31171">
        <ele>121.2</ele>
        <time>2020-05-30T16:20:10Z</time>
      </trkpt>
      <trkpt lat="46.55866" lon="0.31163">
        <ele>121.3</ele>
        <time>2020-05-30T16:20:11Z</time>
      </trkpt>
      <trkpt lat="46.55862" lon="0.31155">
        <ele>121.4</ele>
        <time>2020-05-30T16:20:12Z</time>
      </trkpt>
      <trkpt lat="46.55857" lon="0.31149">
        <ele>121.7</ele>
        <time>2020-05-30T16:20:13Z</time>
      </trkpt>
      <trkpt lat="46.55852" lon="0.31144">
        <ele>121.8</ele>
        <time>2020-05-30T16:20:14Z</time>
      </trkpt>
      <trkpt lat="46.55847" lon="0.31138">
        <ele>121.9</ele>
        <time>2020-05-30T16:20:15Z</time>
      </trkpt>
      <trkpt lat="46.55842" lon="0.31131">
        <ele>122</ele>
        <time>2020-05-30T16:20:16Z</time>
      </trkpt>
      <trkpt lat="46.55837" lon="0.31127">
        <ele>122.2</ele>
        <time>2020-05-30T16:20:17Z</time>
      </trkpt>
      <trkpt lat="46.55832" lon="0.31121">
        <ele>122.3</ele>
        <time>2020-05-30T16:20:18Z</time>
      </trkpt>
      <trkpt lat="46.55827" lon="0.31116">
        <ele>122.4</ele>
        <time>2020-05-30T16:20:19Z</time>
      </trkpt>
      <trkpt lat="46.55823" lon="0.31112">
        <ele>122.5</ele>
        <time>2020-05-30T16:20:20Z</time>
      </trkpt>
      <trkpt lat="46.55818" lon="0.31106">
        <ele>122.6</ele>
        <time>2020-05-30T16:20:21Z</time>
      </trkpt>
      <trkpt lat="46.55814" lon="0.31101">
        <ele>122.7</ele>
        <time>2020-05-30T16:20:22Z</time>
      </trkpt>
      <trkpt lat="46.5581" lon="0.31096">
        <ele>122.8</ele>
        <time>2020-05-30T16:20:23Z</time>
      </trkpt>
      <trkpt lat="46.55805" lon="0.31091">
        <ele>123</ele>
        <time>2020-05-30T16:20:24Z</time>
      </trkpt>
      <trkpt lat="46.55801" lon="0.31085">
        <ele>123.1</ele>
        <time>2020-05-30T16:20:25Z</time>
      </trkpt>
      <trkpt lat="46.55796" lon="0.31079">
        <ele>123.2</ele>
        <time>2020-05-30T16:20:26Z</time>
      </trkpt>
      <trkpt lat="46.55792" lon="0.31074">
        <ele>123.3</ele>
        <time>2020-05-30T16:20:27Z</time>
      </trkpt>
      <trkpt lat="46.55787" lon="0.31068">
        <ele>123.4</ele>
        <time>2020-05-30T16:20:28Z</time>
      </trkpt>
      <trkpt lat="46.55783" lon="0.31063">
        <ele>123.5</ele>
        <time>2020-05-30T16:20:29Z</time>
      </trkpt>
      <trkpt lat="46.55778" lon="0.31057">
        <ele>123.5</ele>
        <time>2020-05-30T16:20:30Z</time>
      </trkpt>
      <trkpt lat="46.55773" lon="0.31052">
        <ele>123.6</ele>
        <time>2020-05-30T16:20:31Z</time>
      </trkpt>
      <trkpt lat="46.55769" lon="0.31046">
        <ele>123.7</ele>
        <time>2020-05-30T16:20:32Z</time>
      </trkpt>
      <trkpt lat="46.55764" lon="0.31041">
        <ele>123.7</ele>
        <time>2020-05-30T16:20:33Z</time>
      </trkpt>
      <trkpt lat="46.55759" lon="0.31036">
        <ele>123.8</ele>
        <time>2020-05-30T16:20:34Z</time>
      </trkpt>
      <trkpt lat="46.55755" lon="0.3103">
        <ele>123.9</ele>
        <time>2020-05-30T16:20:35Z</time>
      </trkpt>
      <trkpt lat="46.5575" lon="0.31024">
        <ele>124</ele>
        <time>2020-05-30T16:20:36Z</time>
      </trkpt>
      <trkpt lat="46.55745" lon="0.31019">
        <ele>124</ele>
        <time>2020-05-30T16:20:37Z</time>
      </trkpt>
      <trkpt lat="46.55741" lon="0.31012">
        <ele>124.2</ele>
        <time>2020-05-30T16:20:38Z</time>
      </trkpt>
      <trkpt lat="46.55736" lon="0.31006">
        <ele>124.4</ele>
        <time>2020-05-30T16:20:39Z</time>
      </trkpt>
      <trkpt lat="46.55731" lon="0.31001">
        <ele>124.5</ele>
        <time>2020-05-30T16:20:40Z</time>
      </trkpt>
      <trkpt lat="46.55725" lon="0.30996">
        <ele>124.6</ele>
        <time>2020-05-30T16:20:41Z</time>
      </trkpt>
      <trkpt lat="46.5572" lon="0.3099">
        <ele>124.8</ele>
        <time>2020-05-30T16:20:42Z</time>
      </trkpt>
      <trkpt lat="46.55715" lon="0.30985">
        <ele>125</ele>
        <time>2020-05-30T16:20:43Z</time>
      </trkpt>
      <trkpt lat="46.5571" lon="0.30979">
        <ele>125.1</ele>
        <time>2020-05-30T16:20:44Z</time>
      </trkpt>
      <trkpt lat="46.55705" lon="0.30973">
        <ele>125.2</ele>
        <time>2020-05-30T16:20:45Z</time>
      </trkpt>
      <trkpt lat="46.557" lon="0.30966">
        <ele>125.4</ele>
        <time>2020-05-30T16:20:46Z</time>
      </trkpt>
      <trkpt lat="46.55695" lon="0.3096">
        <ele>125.5</ele>
        <time>2020-05-30T16:20:47Z</time>
      </trkpt>
      <trkpt lat="46.55689" lon="0.30954">
        <ele>125.8</ele>
        <time>2020-05-30T16:20:48Z</time>
      </trkpt>
      <trkpt lat="46.55684" lon="0.30948">
        <ele>126</ele>
        <time>2020-05-30T16:20:49Z</time>
      </trkpt>
      <trkpt lat="46.55679" lon="0.30942">
        <ele>126.1</ele>
        <time>2020-05-30T16:20:50Z</time>
      </trkpt>
      <trkpt lat="46.55674" lon="0.30935">
        <ele>126.3</ele>
        <time>2020-05-30T16:20:51Z</time>
      </trkpt>
      <trkpt lat="46.5567" lon="0.30929">
        <ele>126.4</ele>
        <time>2020-05-30T16:20:52Z</time>
      </trkpt>
      <trkpt lat="46.55665" lon="0.30923">
        <ele>126.5</ele>
        <time>2020-05-30T16:20:53Z</time>
      </trkpt>
      <trkpt lat="46.5566" lon="0.30915">
        <ele>126.6</ele>
        <time>2020-05-30T16:20:54Z</time>
      </trkpt>
      <trkpt lat="46.55656" lon="0.30908">
        <ele>126.8</ele>
        <time>2020-05-30T16:20:55Z</time>
      </trkpt>
      <trkpt lat="46.55652" lon="0.30904">
        <ele>126.9</ele>
        <time>2020-05-30T16:20:56Z</time>
      </trkpt>
      <trkpt lat="46.55648" lon="0.30901">
        <ele>127</ele>
        <time>2020-05-30T16:20:57Z</time>
      </trkpt>
      <trkpt lat="46.55644" lon="0.30897">
        <ele>127</ele>
        <time>2020-05-30T16:20:58Z</time>
      </trkpt>
      <trkpt lat="46.55639" lon="0.30892">
        <ele>127.1</ele>
        <time>2020-05-30T16:20:59Z</time>
      </trkpt>
      <trkpt lat="46.55636" lon="0.30888">
        <ele>127.2</ele>
        <time>2020-05-30T16:21:00Z</time>
      </trkpt>
      <trkpt lat="46.55632" lon="0.30884">
        <ele>127.2</ele>
        <time>2020-05-30T16:21:01Z</time>
      </trkpt>
      <trkpt lat="46.5563" lon="0.30881">
        <ele>127.3</ele>
        <time>2020-05-30T16:21:02Z</time>
      </trkpt>
      <trkpt lat="46.55629" lon="0.3088">
        <ele>127.3</ele>
        <time>2020-05-30T16:21:03Z</time>
      </trkpt>
      <trkpt lat="46.55627" lon="0.30877">
        <ele>127.3</ele>
        <time>2020-05-30T16:21:04Z</time>
      </trkpt>
      <trkpt lat="46.55624" lon="0.30873">
        <ele>127.4</ele>
        <time>2020-05-30T16:21:05Z</time>
      </trkpt>
      <trkpt lat="46.55623" lon="0.30871">
        <ele>127.4</ele>
        <time>2020-05-30T16:21:06Z</time>
      </trkpt>
      <trkpt lat="46.55619" lon="0.30868">
        <ele>127.5</ele>
        <time>2020-05-30T16:21:07Z</time>
      </trkpt>
      <trkpt lat="46.55616" lon="0.30866">
        <ele>127.5</ele>
        <time>2020-05-30T16:21:08Z</time>
      </trkpt>
      <trkpt lat="46.55613" lon="0.30862">
        <ele>127.6</ele>
        <time>2020-05-30T16:21:09Z</time>
      </trkpt>
      <trkpt lat="46.5561" lon="0.3086">
        <ele>127.6</ele>
        <time>2020-05-30T16:21:10Z</time>
      </trkpt>
      <trkpt lat="46.55607" lon="0.30856">
        <ele>127.6</ele>
        <time>2020-05-30T16:21:11Z</time>
      </trkpt>
      <trkpt lat="46.55602" lon="0.30852">
        <ele>127.7</ele>
        <time>2020-05-30T16:21:12Z</time>
      </trkpt>
      <trkpt lat="46.55598" lon="0.30848">
        <ele>127.7</ele>
        <time>2020-05-30T16:21:13Z</time>
      </trkpt>
      <trkpt lat="46.55594" lon="0.30843">
        <ele>127.7</ele>
        <time>2020-05-30T16:21:14Z</time>
      </trkpt>
      <trkpt lat="46.5559" lon="0.30838">
        <ele>127.8</ele>
        <time>2020-05-30T16:21:15Z</time>
      </trkpt>
      <trkpt lat="46.55585" lon="0.30832">
        <ele>127.8</ele>
        <time>2020-05-30T16:21:16Z</time>
      </trkpt>
      <trkpt lat="46.55581" lon="0.30828">
        <ele>127.8</ele>
        <time>2020-05-30T16:21:17Z</time>
      </trkpt>
      <trkpt lat="46.55576" lon="0.30822">
        <ele>127.9</ele>
        <time>2020-05-30T16:21:18Z</time>
      </trkpt>
      <trkpt lat="46.55571" lon="0.30813">
        <ele>128</ele>
        <time>2020-05-30T16:21:19Z</time>
      </trkpt>
      <trkpt lat="46.55568" lon="0.30809">
        <ele>128.1</ele>
        <time>2020-05-30T16:21:20Z</time>
      </trkpt>
      <trkpt lat="46.55565" lon="0.30804">
        <ele>128.1</ele>
        <time>2020-05-30T16:21:21Z</time>
      </trkpt>
      <trkpt lat="46.55561" lon="0.308">
        <ele>128.2</ele>
        <time>2020-05-30T16:21:22Z</time>
      </trkpt>
      <trkpt lat="46.55557" lon="0.30796">
        <ele>128.2</ele>
        <time>2020-05-30T16:21:23Z</time>
      </trkpt>
      <trkpt lat="46.55551" lon="0.30791">
        <ele>128.2</ele>
        <time>2020-05-30T16:21:24Z</time>
      </trkpt>
      <trkpt lat="46.55547" lon="0.30786">
        <ele>128.2</ele>
        <time>2020-05-30T16:21:25Z</time>
      </trkpt>
      <trkpt lat="46.55541" lon="0.3078">
        <ele>128.3</ele>
        <time>2020-05-30T16:21:26Z</time>
      </trkpt>
      <trkpt lat="46.55536" lon="0.30773">
        <ele>128.4</ele>
        <time>2020-05-30T16:21:27Z</time>
      </trkpt>
      <trkpt lat="46.55532" lon="0.30768">
        <ele>128.5</ele>
        <time>2020-05-30T16:21:28Z</time>
      </trkpt>
      <trkpt lat="46.55528" lon="0.30763">
        <ele>128.6</ele>
        <time>2020-05-30T16:21:29Z</time>
      </trkpt>
      <trkpt lat="46.55522" lon="0.30759">
        <ele>128.7</ele>
        <time>2020-05-30T16:21:30Z</time>
      </trkpt>
      <trkpt lat="46.55517" lon="0.30755">
        <ele>128.8</ele>
        <time>2020-05-30T16:21:31Z</time>
      </trkpt>
      <trkpt lat="46.55514" lon="0.30753">
        <ele>128.8</ele>
        <time>2020-05-30T16:21:32Z</time>
      </trkpt>
      <trkpt lat="46.55508" lon="0.30748">
        <ele>128.9</ele>
        <time>2020-05-30T16:21:33Z</time>
      </trkpt>
      <trkpt lat="46.55503" lon="0.30743">
        <ele>129</ele>
        <time>2020-05-30T16:21:34Z</time>
      </trkpt>
      <trkpt lat="46.55499" lon="0.30737">
        <ele>129</ele>
        <time>2020-05-30T16:21:35Z</time>
      </trkpt>
      <trkpt lat="46.55494" lon="0.30732">
        <ele>129.5</ele>
        <time>2020-05-30T16:21:36Z</time>
      </trkpt>
      <trkpt lat="46.55491" lon="0.30728">
        <ele>129.6</ele>
        <time>2020-05-30T16:21:37Z</time>
      </trkpt>
      <trkpt lat="46.55487" lon="0.30724">
        <ele>129.7</ele>
        <time>2020-05-30T16:21:38Z</time>
      </trkpt>
      <trkpt lat="46.55483" lon="0.30721">
        <ele>129.8</ele>
        <time>2020-05-30T16:21:39Z</time>
      </trkpt>
      <trkpt lat="46.5548" lon="0.30717">
        <ele>130</ele>
        <time>2020-05-30T16:21:40Z</time>
      </trkpt>
      <trkpt lat="46.55477" lon="0.30712">
        <ele>130.2</ele>
        <time>2020-05-30T16:21:41Z</time>
      </trkpt>
      <trkpt lat="46.55473" lon="0.30706">
        <ele>130.4</ele>
        <time>2020-05-30T16:21:42Z</time>
      </trkpt>
      <trkpt lat="46.55469" lon="0.30701">
        <ele>130.7</ele>
        <time>2020-05-30T16:21:43Z</time>
      </trkpt>
      <trkpt lat="46.55465" lon="0.30695">
        <ele>130.9</ele>
        <time>2020-05-30T16:21:44Z</time>
      </trkpt>
      <trkpt lat="46.5546" lon="0.3069">
        <ele>131</ele>
        <time>2020-05-30T16:21:45Z</time>
      </trkpt>
      <trkpt lat="46.55456" lon="0.30685">
        <ele>131</ele>
        <time>2020-05-30T16:21:46Z</time>
      </trkpt>
      <trkpt lat="46.55451" lon="0.3068">
        <ele>131.1</ele>
        <time>2020-05-30T16:21:47Z</time>
      </trkpt>
      <trkpt lat="46.55446" lon="0.30674">
        <ele>131.2</ele>
        <time>2020-05-30T16:21:48Z</time>
      </trkpt>
      <trkpt lat="46.55441" lon="0.3067">
        <ele>131.2</ele>
        <time>2020-05-30T16:21:49Z</time>
      </trkpt>
      <trkpt lat="46.55437" lon="0.30666">
        <ele>131.3</ele>
        <time>2020-05-30T16:21:50Z</time>
      </trkpt>
      <trkpt lat="46.55433" lon="0.3066">
        <ele>131.3</ele>
        <time>2020-05-30T16:21:51Z</time>
      </trkpt>
      <trkpt lat="46.55429" lon="0.30654">
        <ele>131.4</ele>
        <time>2020-05-30T16:21:52Z</time>
      </trkpt>
      <trkpt lat="46.55424" lon="0.30648">
        <ele>131.5</ele>
        <time>2020-05-30T16:21:53Z</time>
      </trkpt>
      <trkpt lat="46.55421" lon="0.30642">
        <ele>131.6</ele>
        <time>2020-05-30T16:21:54Z</time>
      </trkpt>
      <trkpt lat="46.55415" lon="0.30636">
        <ele>131.7</ele>
        <time>2020-05-30T16:21:55Z</time>
      </trkpt>
      <trkpt lat="46.55411" lon="0.30631">
        <ele>131.7</ele>
        <time>2020-05-30T16:21:56Z</time>
      </trkpt>
      <trkpt lat="46.55406" lon="0.30624">
        <ele>131.9</ele>
        <time>2020-05-30T16:21:57Z</time>
      </trkpt>
      <trkpt lat="46.55401" lon="0.30619">
        <ele>131.9</ele>
        <time>2020-05-30T16:21:58Z</time>
      </trkpt>
      <trkpt lat="46.55396" lon="0.30613">
        <ele>132</ele>
        <time>2020-05-30T16:21:59Z</time>
      </trkpt>
      <trkpt lat="46.5539" lon="0.30608">
        <ele>132.1</ele>
        <time>2020-05-30T16:22:00Z</time>
      </trkpt>
      <trkpt lat="46.55385" lon="0.30601">
        <ele>132.2</ele>
        <time>2020-05-30T16:22:01Z</time>
      </trkpt>
      <trkpt lat="46.55379" lon="0.30595">
        <ele>132.3</ele>
        <time>2020-05-30T16:22:02Z</time>
      </trkpt>
      <trkpt lat="46.55374" lon="0.30589">
        <ele>132.4</ele>
        <time>2020-05-30T16:22:03Z</time>
      </trkpt>
      <trkpt lat="46.55368" lon="0.30582">
        <ele>132.5</ele>
        <time>2020-05-30T16:22:04Z</time>
      </trkpt>
      <trkpt lat="46.55363" lon="0.30576">
        <ele>132.6</ele>
        <time>2020-05-30T16:22:05Z</time>
      </trkpt>
      <trkpt lat="46.55358" lon="0.3057">
        <ele>132.7</ele>
        <time>2020-05-30T16:22:06Z</time>
      </trkpt>
      <trkpt lat="46.55353" lon="0.30564">
        <ele>132.9</ele>
        <time>2020-05-30T16:22:07Z</time>
      </trkpt>
      <trkpt lat="46.55347" lon="0.30558">
        <ele>133.1</ele>
        <time>2020-05-30T16:22:08Z</time>
      </trkpt>
      <trkpt lat="46.55342" lon="0.30551">
        <ele>133.3</ele>
        <time>2020-05-30T16:22:09Z</time>
      </trkpt>
      <trkpt lat="46.55336" lon="0.30545">
        <ele>133.5</ele>
        <time>2020-05-30T16:22:10Z</time>
      </trkpt>
      <trkpt lat="46.55331" lon="0.30539">
        <ele>133.6</ele>
        <time>2020-05-30T16:22:11Z</time>
      </trkpt>
      <trkpt lat="46.55326" lon="0.30533">
        <ele>133.8</ele>
        <time>2020-05-30T16:22:12Z</time>
      </trkpt>
      <trkpt lat="46.55321" lon="0.30528">
        <ele>133.9</ele>
        <time>2020-05-30T16:22:13Z</time>
      </trkpt>
      <trkpt lat="46.55315" lon="0.30521">
        <ele>134</ele>
        <time>2020-05-30T16:22:14Z</time>
      </trkpt>
      <trkpt lat="46.5531" lon="0.30515">
        <ele>134.1</ele>
        <time>2020-05-30T16:22:15Z</time>
      </trkpt>
      <trkpt lat="46.55304" lon="0.3051">
        <ele>134.1</ele>
        <time>2020-05-30T16:22:16Z</time>
      </trkpt>
      <trkpt lat="46.55299" lon="0.30502">
        <ele>134.2</ele>
        <time>2020-05-30T16:22:17Z</time>
      </trkpt>
      <trkpt lat="46.55294" lon="0.30495">
        <ele>134.3</ele>
        <time>2020-05-30T16:22:18Z</time>
      </trkpt>
      <trkpt lat="46.55289" lon="0.30489">
        <ele>134.3</ele>
        <time>2020-05-30T16:22:19Z</time>
      </trkpt>
      <trkpt lat="46.55284" lon="0.30483">
        <ele>134.4</ele>
        <time>2020-05-30T16:22:20Z</time>
      </trkpt>
      <trkpt lat="46.55278" lon="0.30477">
        <ele>134.5</ele>
        <time>2020-05-30T16:22:21Z</time>
      </trkpt>
      <trkpt lat="46.55273" lon="0.30471">
        <ele>134.5</ele>
        <time>2020-05-30T16:22:22Z</time>
      </trkpt>
      <trkpt lat="46.55267" lon="0.30465">
        <ele>134.6</ele>
        <time>2020-05-30T16:22:23Z</time>
      </trkpt>
      <trkpt lat="46.55262" lon="0.30459">
        <ele>134.7</ele>
        <time>2020-05-30T16:22:24Z</time>
      </trkpt>
      <trkpt lat="46.55256" lon="0.30454">
        <ele>134.7</ele>
        <time>2020-05-30T16:22:25Z</time>
      </trkpt>
      <trkpt lat="46.55251" lon="0.30447">
        <ele>134.8</ele>
        <time>2020-05-30T16:22:26Z</time>
      </trkpt>
      <trkpt lat="46.55245" lon="0.3044">
        <ele>134.8</ele>
        <time>2020-05-30T16:22:27Z</time>
      </trkpt>
      <trkpt lat="46.5524" lon="0.30433">
        <ele>134.9</ele>
        <time>2020-05-30T16:22:28Z</time>
      </trkpt>
      <trkpt lat="46.55235" lon="0.30426">
        <ele>135</ele>
        <time>2020-05-30T16:22:29Z</time>
      </trkpt>
      <trkpt lat="46.55229" lon="0.3042">
        <ele>135</ele>
        <time>2020-05-30T16:22:30Z</time>
      </trkpt>
      <trkpt lat="46.55224" lon="0.30414">
        <ele>135</ele>
        <time>2020-05-30T16:22:31Z</time>
      </trkpt>
      <trkpt lat="46.55219" lon="0.30407">
        <ele>135.1</ele>
        <time>2020-05-30T16:22:32Z</time>
      </trkpt>
      <trkpt lat="46.55213" lon="0.304">
        <ele>135.1</ele>
        <time>2020-05-30T16:22:33Z</time>
      </trkpt>
      <trkpt lat="46.55208" lon="0.30395">
        <ele>135.2</ele>
        <time>2020-05-30T16:22:34Z</time>
      </trkpt>
      <trkpt lat="46.55202" lon="0.30388">
        <ele>135.3</ele>
        <time>2020-05-30T16:22:35Z</time>
      </trkpt>
      <trkpt lat="46.55197" lon="0.30382">
        <ele>135.5</ele>
        <time>2020-05-30T16:22:36Z</time>
      </trkpt>
      <trkpt lat="46.55191" lon="0.30377">
        <ele>135.6</ele>
        <time>2020-05-30T16:22:37Z</time>
      </trkpt>
      <trkpt lat="46.55186" lon="0.30371">
        <ele>135.6</ele>
        <time>2020-05-30T16:22:38Z</time>
      </trkpt>
      <trkpt lat="46.55181" lon="0.30366">
        <ele>135.7</ele>
        <time>2020-05-30T16:22:39Z</time>
      </trkpt>
      <trkpt lat="46.55177" lon="0.30359">
        <ele>135.7</ele>
        <time>2020-05-30T16:22:40Z</time>
      </trkpt>
      <trkpt lat="46.55172" lon="0.30354">
        <ele>135.8</ele>
        <time>2020-05-30T16:22:41Z</time>
      </trkpt>
      <trkpt lat="46.55168" lon="0.3035">
        <ele>136</ele>
        <time>2020-05-30T16:22:42Z</time>
      </trkpt>
      <trkpt lat="46.55165" lon="0.30344">
        <ele>136.1</ele>
        <time>2020-05-30T16:22:43Z</time>
      </trkpt>
      <trkpt lat="46.55163" lon="0.30338">
        <ele>136.3</ele>
        <time>2020-05-30T16:22:44Z</time>
      </trkpt>
      <trkpt lat="46.55162" lon="0.30331">
        <ele>136.4</ele>
        <time>2020-05-30T16:22:45Z</time>
      </trkpt>
      <trkpt lat="46.55163" lon="0.30324">
        <ele>136.5</ele>
        <time>2020-05-30T16:22:46Z</time>
      </trkpt>
      <trkpt lat="46.55166" lon="0.30317">
        <ele>136.6</ele>
        <time>2020-05-30T16:22:47Z</time>
      </trkpt>
      <trkpt lat="46.55169" lon="0.30311">
        <ele>136.6</ele>
        <time>2020-05-30T16:22:48Z</time>
      </trkpt>
      <trkpt lat="46.55173" lon="0.30306">
        <ele>136.6</ele>
        <time>2020-05-30T16:22:49Z</time>
      </trkpt>
      <trkpt lat="46.55178" lon="0.30301">
        <ele>136.5</ele>
        <time>2020-05-30T16:22:50Z</time>
      </trkpt>
      <trkpt lat="46.55182" lon="0.30296">
        <ele>136.5</ele>
        <time>2020-05-30T16:22:51Z</time>
      </trkpt>
      <trkpt lat="46.55188" lon="0.30291">
        <ele>136.4</ele>
        <time>2020-05-30T16:22:52Z</time>
      </trkpt>
      <trkpt lat="46.55192" lon="0.30286">
        <ele>136.3</ele>
        <time>2020-05-30T16:22:53Z</time>
      </trkpt>
      <trkpt lat="46.55197" lon="0.3028">
        <ele>136.3</ele>
        <time>2020-05-30T16:22:54Z</time>
      </trkpt>
      <trkpt lat="46.55202" lon="0.30275">
        <ele>136.2</ele>
        <time>2020-05-30T16:22:55Z</time>
      </trkpt>
      <trkpt lat="46.55207" lon="0.30271">
        <ele>136.1</ele>
        <time>2020-05-30T16:22:56Z</time>
      </trkpt>
      <trkpt lat="46.55212" lon="0.30267">
        <ele>136</ele>
        <time>2020-05-30T16:22:57Z</time>
      </trkpt>
      <trkpt lat="46.55218" lon="0.30266">
        <ele>135.9</ele>
        <time>2020-05-30T16:22:58Z</time>
      </trkpt>
      <trkpt lat="46.55224" lon="0.30265">
        <ele>135.9</ele>
        <time>2020-05-30T16:22:59Z</time>
      </trkpt>
      <trkpt lat="46.5523" lon="0.30262">
        <ele>135.8</ele>
        <time>2020-05-30T16:23:00Z</time>
      </trkpt>
      <trkpt lat="46.55235" lon="0.30256">
        <ele>135.7</ele>
        <time>2020-05-30T16:23:01Z</time>
      </trkpt>
      <trkpt lat="46.55237" lon="0.30248">
        <ele>135.7</ele>
        <time>2020-05-30T16:23:02Z</time>
      </trkpt>
      <trkpt lat="46.55236" lon="0.30239">
        <ele>135.5</ele>
        <time>2020-05-30T16:23:03Z</time>
      </trkpt>
      <trkpt lat="46.55233" lon="0.30233">
        <ele>135.5</ele>
        <time>2020-05-30T16:23:04Z</time>
      </trkpt>
      <trkpt lat="46.55229" lon="0.30228">
        <ele>135.4</ele>
        <time>2020-05-30T16:23:05Z</time>
      </trkpt>
      <trkpt lat="46.55224" lon="0.30224">
        <ele>135</ele>
        <time>2020-05-30T16:23:06Z</time>
      </trkpt>
      <trkpt lat="46.5522" lon="0.3022">
        <ele>134.6</ele>
        <time>2020-05-30T16:23:07Z</time>
      </trkpt>
      <trkpt lat="46.55216" lon="0.30215">
        <ele>134.1</ele>
        <time>2020-05-30T16:23:08Z</time>
      </trkpt>
      <trkpt lat="46.55212" lon="0.30211">
        <ele>133.7</ele>
        <time>2020-05-30T16:23:09Z</time>
      </trkpt>
      <trkpt lat="46.55208" lon="0.30207">
        <ele>133.3</ele>
        <time>2020-05-30T16:23:10Z</time>
      </trkpt>
      <trkpt lat="46.55205" lon="0.30202">
        <ele>133</ele>
        <time>2020-05-30T16:23:11Z</time>
      </trkpt>
      <trkpt lat="46.55201" lon="0.30198">
        <ele>132.7</ele>
        <time>2020-05-30T16:23:12Z</time>
      </trkpt>
      <trkpt lat="46.55199" lon="0.30194">
        <ele>132.3</ele>
        <time>2020-05-30T16:23:13Z</time>
      </trkpt>
      <trkpt lat="46.55196" lon="0.3019">
        <ele>132</ele>
        <time>2020-05-30T16:23:14Z</time>
      </trkpt>
      <trkpt lat="46.55194" lon="0.30186">
        <ele>132</ele>
        <time>2020-05-30T16:23:15Z</time>
      </trkpt>
      <trkpt lat="46.55194" lon="0.30181">
        <ele>132</ele>
        <time>2020-05-30T16:23:16Z</time>
      </trkpt>
      <trkpt lat="46.55196" lon="0.30176">
        <ele>132</ele>
        <time>2020-05-30T16:23:17Z</time>
      </trkpt>
      <trkpt lat="46.55197" lon="0.30171">
        <ele>132.1</ele>
        <time>2020-05-30T16:23:18Z</time>
      </trkpt>
      <trkpt lat="46.55197" lon="0.30166">
        <ele>132.2</ele>
        <time>2020-05-30T16:23:19Z</time>
      </trkpt>
      <trkpt lat="46.55197" lon="0.30161">
        <ele>132.2</ele>
        <time>2020-05-30T16:23:20Z</time>
      </trkpt>
      <trkpt lat="46.55197" lon="0.30156">
        <ele>132.2</ele>
        <time>2020-05-30T16:23:21Z</time>
      </trkpt>
      <trkpt lat="46.55196" lon="0.30151">
        <ele>132.3</ele>
        <time>2020-05-30T16:23:22Z</time>
      </trkpt>
      <trkpt lat="46.55194" lon="0.30146">
        <ele>132.3</ele>
        <time>2020-05-30T16:23:23Z</time>
      </trkpt>
      <trkpt lat="46.55194" lon="0.30142">
        <ele>132.5</ele>
        <time>2020-05-30T16:23:24Z</time>
      </trkpt>
      <trkpt lat="46.55193" lon="0.30137">
        <ele>132.5</ele>
        <time>2020-05-30T16:23:25Z</time>
      </trkpt>
      <trkpt lat="46.55192" lon="0.30133">
        <ele>132.6</ele>
        <time>2020-05-30T16:23:26Z</time>
      </trkpt>
      <trkpt lat="46.55193" lon="0.3013">
        <ele>132.7</ele>
        <time>2020-05-30T16:23:27Z</time>
      </trkpt>
      <trkpt lat="46.55195" lon="0.30124">
        <ele>132.8</ele>
        <time>2020-05-30T16:23:28Z</time>
      </trkpt>
      <trkpt lat="46.55196" lon="0.30121">
        <ele>132.8</ele>
        <time>2020-05-30T16:23:29Z</time>
      </trkpt>
      <trkpt lat="46.55197" lon="0.30118">
        <ele>132.8</ele>
        <time>2020-05-30T16:23:30Z</time>
      </trkpt>
      <trkpt lat="46.55198" lon="0.30113">
        <ele>133</ele>
        <time>2020-05-30T16:23:31Z</time>
      </trkpt>
      <trkpt lat="46.55199" lon="0.30112">
        <ele>133</ele>
        <time>2020-05-30T16:23:32Z</time>
      </trkpt>
      <trkpt lat="46.55201" lon="0.30108">
        <ele>133.1</ele>
        <time>2020-05-30T16:23:33Z</time>
      </trkpt>
      <trkpt lat="46.55201" lon="0.30107">
        <ele>133.1</ele>
        <time>2020-05-30T16:23:34Z</time>
      </trkpt>
      <trkpt lat="46.55201" lon="0.30105">
        <ele>133.1</ele>
        <time>2020-05-30T16:23:35Z</time>
      </trkpt>
      <trkpt lat="46.55201" lon="0.30106">
        <ele>133.1</ele>
        <time>2020-05-30T16:23:36Z</time>
      </trkpt>
      <trkpt lat="46.55201" lon="0.30106">
        <ele>133.1</ele>
        <time>2020-05-30T16:23:37Z</time>
      </trkpt>
      <trkpt lat="46.55202" lon="0.30106">
        <ele>133.2</ele>
        <time>2020-05-30T16:23:38Z</time>
      </trkpt>
      <trkpt lat="46.55203" lon="0.30106">
        <ele>133.2</ele>
        <time>2020-05-30T16:23:39Z</time>
      </trkpt>
      <trkpt lat="46.55202" lon="0.30106">
        <ele>133.2</ele>
        <time>2020-05-30T16:23:40Z</time>
      </trkpt>
      <trkpt lat="46.55203" lon="0.30106">
        <ele>133.2</ele>
        <time>2020-05-30T16:23:41Z</time>
      </trkpt>
      <trkpt lat="46.55199" lon="0.30093">
        <ele>133.4</ele>
        <time>2020-05-30T16:32:46Z</time>
      </trkpt>
      <trkpt lat="46.55208" lon="0.30102">
        <ele>133.2</ele>
        <time>2020-05-30T16:32:47Z</time>
      </trkpt>
      <trkpt lat="46.55213" lon="0.30107">
        <ele>133.2</ele>
        <time>2020-05-30T16:32:48Z</time>
      </trkpt>
      <trkpt lat="46.5521" lon="0.30106">
        <ele>133.2</ele>
        <time>2020-05-30T16:32:49Z</time>
      </trkpt>
      <trkpt lat="46.55208" lon="0.30101">
        <ele>133.1</ele>
        <time>2020-05-30T16:32:50Z</time>
      </trkpt>
      <trkpt lat="46.55209" lon="0.30101">
        <ele>133.1</ele>
        <time>2020-05-30T16:32:52Z</time>
      </trkpt>
      <trkpt lat="46.55209" lon="0.30101">
        <ele>133.1</ele>
        <time>2020-05-30T16:32:53Z</time>
      </trkpt>
      <trkpt lat="46.5521" lon="0.30102">
        <ele>133.1</ele>
        <time>2020-05-30T16:32:54Z</time>
      </trkpt>
      <trkpt lat="46.55212" lon="0.30105">
        <ele>133.1</ele>
        <time>2020-05-30T16:32:55Z</time>
      </trkpt>
      <trkpt lat="46.55214" lon="0.30108">
        <ele>133</ele>
        <time>2020-05-30T16:32:57Z</time>
      </trkpt>
      <trkpt lat="46.55216" lon="0.30111">
        <ele>133</ele>
        <time>2020-05-30T16:32:58Z</time>
      </trkpt>
      <trkpt lat="46.55223" lon="0.30121">
        <ele>132.9</ele>
        <time>2020-05-30T16:32:59Z</time>
      </trkpt>
      <trkpt lat="46.55226" lon="0.30127">
        <ele>132.9</ele>
        <time>2020-05-30T16:33:00Z</time>
      </trkpt>
      <trkpt lat="46.55229" lon="0.30131">
        <ele>132.8</ele>
        <time>2020-05-30T16:33:02Z</time>
      </trkpt>
      <trkpt lat="46.55232" lon="0.30136">
        <ele>132.8</ele>
        <time>2020-05-30T16:33:03Z</time>
      </trkpt>
      <trkpt lat="46.55236" lon="0.3014">
        <ele>132.8</ele>
        <time>2020-05-30T16:33:04Z</time>
      </trkpt>
      <trkpt lat="46.55238" lon="0.30143">
        <ele>132.7</ele>
        <time>2020-05-30T16:33:05Z</time>
      </trkpt>
      <trkpt lat="46.55241" lon="0.30148">
        <ele>132.7</ele>
        <time>2020-05-30T16:33:06Z</time>
      </trkpt>
      <trkpt lat="46.55245" lon="0.30153">
        <ele>132.6</ele>
        <time>2020-05-30T16:33:07Z</time>
      </trkpt>
      <trkpt lat="46.55249" lon="0.30158">
        <ele>132.6</ele>
        <time>2020-05-30T16:33:08Z</time>
      </trkpt>
      <trkpt lat="46.55253" lon="0.30163">
        <ele>132.5</ele>
        <time>2020-05-30T16:33:09Z</time>
      </trkpt>
      <trkpt lat="46.55257" lon="0.30168">
        <ele>132.5</ele>
        <time>2020-05-30T16:33:10Z</time>
      </trkpt>
      <trkpt lat="46.5526" lon="0.30172">
        <ele>132.4</ele>
        <time>2020-05-30T16:33:11Z</time>
      </trkpt>
      <trkpt lat="46.55264" lon="0.30178">
        <ele>132.4</ele>
        <time>2020-05-30T16:33:12Z</time>
      </trkpt>
      <trkpt lat="46.55269" lon="0.30183">
        <ele>132.3</ele>
        <time>2020-05-30T16:33:13Z</time>
      </trkpt>
      <trkpt lat="46.55273" lon="0.30186">
        <ele>132.3</ele>
        <time>2020-05-30T16:33:14Z</time>
      </trkpt>
      <trkpt lat="46.55278" lon="0.30185">
        <ele>132.2</ele>
        <time>2020-05-30T16:33:15Z</time>
      </trkpt>
      <trkpt lat="46.55282" lon="0.30182">
        <ele>132.5</ele>
        <time>2020-05-30T16:33:16Z</time>
      </trkpt>
      <trkpt lat="46.55287" lon="0.30177">
        <ele>132.6</ele>
        <time>2020-05-30T16:33:17Z</time>
      </trkpt>
      <trkpt lat="46.55289" lon="0.30171">
        <ele>133.1</ele>
        <time>2020-05-30T16:33:18Z</time>
      </trkpt>
      <trkpt lat="46.55291" lon="0.30164">
        <ele>133.1</ele>
        <time>2020-05-30T16:33:19Z</time>
      </trkpt>
      <trkpt lat="46.55294" lon="0.30158">
        <ele>133.1</ele>
        <time>2020-05-30T16:33:20Z</time>
      </trkpt>
      <trkpt lat="46.55298" lon="0.30152">
        <ele>133.1</ele>
        <time>2020-05-30T16:33:21Z</time>
      </trkpt>
      <trkpt lat="46.55301" lon="0.30147">
        <ele>133.1</ele>
        <time>2020-05-30T16:33:22Z</time>
      </trkpt>
      <trkpt lat="46.55304" lon="0.3014">
        <ele>133.2</ele>
        <time>2020-05-30T16:33:23Z</time>
      </trkpt>
      <trkpt lat="46.55307" lon="0.30134">
        <ele>133.3</ele>
        <time>2020-05-30T16:33:24Z</time>
      </trkpt>
      <trkpt lat="46.55309" lon="0.30127">
        <ele>133.3</ele>
        <time>2020-05-30T16:33:25Z</time>
      </trkpt>
      <trkpt lat="46.5531" lon="0.3012">
        <ele>133.5</ele>
        <time>2020-05-30T16:33:26Z</time>
      </trkpt>
      <trkpt lat="46.55313" lon="0.30113">
        <ele>133.5</ele>
        <time>2020-05-30T16:33:27Z</time>
      </trkpt>
      <trkpt lat="46.55315" lon="0.30107">
        <ele>133.6</ele>
        <time>2020-05-30T16:33:28Z</time>
      </trkpt>
      <trkpt lat="46.55317" lon="0.30101">
        <ele>133.6</ele>
        <time>2020-05-30T16:33:29Z</time>
      </trkpt>
      <trkpt lat="46.55318" lon="0.30095">
        <ele>133.6</ele>
        <time>2020-05-30T16:33:30Z</time>
      </trkpt>
      <trkpt lat="46.55318" lon="0.30088">
        <ele>133.7</ele>
        <time>2020-05-30T16:33:31Z</time>
      </trkpt>
      <trkpt lat="46.55319" lon="0.30082">
        <ele>133.7</ele>
        <time>2020-05-30T16:33:32Z</time>
      </trkpt>
      <trkpt lat="46.55319" lon="0.30077">
        <ele>133.7</ele>
        <time>2020-05-30T16:33:33Z</time>
      </trkpt>
      <trkpt lat="46.5532" lon="0.30071">
        <ele>133.8</ele>
        <time>2020-05-30T16:33:34Z</time>
      </trkpt>
      <trkpt lat="46.5532" lon="0.30065">
        <ele>133.8</ele>
        <time>2020-05-30T16:33:35Z</time>
      </trkpt>
      <trkpt lat="46.5532" lon="0.3006">
        <ele>133.8</ele>
        <time>2020-05-30T16:33:36Z</time>
      </trkpt>
      <trkpt lat="46.5532" lon="0.30055">
        <ele>134</ele>
        <time>2020-05-30T16:33:37Z</time>
      </trkpt>
      <trkpt lat="46.55319" lon="0.30049">
        <ele>134.1</ele>
        <time>2020-05-30T16:33:38Z</time>
      </trkpt>
      <trkpt lat="46.55319" lon="0.30045">
        <ele>134.2</ele>
        <time>2020-05-30T16:33:39Z</time>
      </trkpt>
      <trkpt lat="46.55318" lon="0.3004">
        <ele>134.3</ele>
        <time>2020-05-30T16:33:40Z</time>
      </trkpt>
      <trkpt lat="46.55319" lon="0.30034">
        <ele>134.4</ele>
        <time>2020-05-30T16:33:41Z</time>
      </trkpt>
      <trkpt lat="46.5532" lon="0.3003">
        <ele>134.5</ele>
        <time>2020-05-30T16:33:42Z</time>
      </trkpt>
      <trkpt lat="46.55325" lon="0.30026">
        <ele>134.7</ele>
        <time>2020-05-30T16:33:43Z</time>
      </trkpt>
      <trkpt lat="46.55335" lon="0.30029">
        <ele>135</ele>
        <time>2020-05-30T16:33:44Z</time>
      </trkpt>
      <trkpt lat="46.55342" lon="0.30031">
        <ele>134.9</ele>
        <time>2020-05-30T16:33:45Z</time>
      </trkpt>
      <trkpt lat="46.55348" lon="0.30032">
        <ele>134.7</ele>
        <time>2020-05-30T16:33:46Z</time>
      </trkpt>
      <trkpt lat="46.55354" lon="0.30034">
        <ele>134.7</ele>
        <time>2020-05-30T16:33:47Z</time>
      </trkpt>
      <trkpt lat="46.5536" lon="0.30038">
        <ele>134.7</ele>
        <time>2020-05-30T16:33:48Z</time>
      </trkpt>
      <trkpt lat="46.55367" lon="0.30043">
        <ele>134.7</ele>
        <time>2020-05-30T16:33:49Z</time>
      </trkpt>
      <trkpt lat="46.55372" lon="0.3005">
        <ele>134.7</ele>
        <time>2020-05-30T16:33:50Z</time>
      </trkpt>
      <trkpt lat="46.55377" lon="0.30056">
        <ele>134.6</ele>
        <time>2020-05-30T16:33:51Z</time>
      </trkpt>
      <trkpt lat="46.55381" lon="0.30063">
        <ele>134.7</ele>
        <time>2020-05-30T16:33:52Z</time>
      </trkpt>
      <trkpt lat="46.55387" lon="0.30069">
        <ele>134.7</ele>
        <time>2020-05-30T16:33:53Z</time>
      </trkpt>
      <trkpt lat="46.55391" lon="0.30075">
        <ele>134.8</ele>
        <time>2020-05-30T16:33:54Z</time>
      </trkpt>
      <trkpt lat="46.55395" lon="0.3008">
        <ele>134.9</ele>
        <time>2020-05-30T16:33:55Z</time>
      </trkpt>
      <trkpt lat="46.55399" lon="0.30086">
        <ele>134.9</ele>
        <time>2020-05-30T16:33:56Z</time>
      </trkpt>
      <trkpt lat="46.55403" lon="0.30092">
        <ele>135</ele>
        <time>2020-05-30T16:33:57Z</time>
      </trkpt>
      <trkpt lat="46.55407" lon="0.30097">
        <ele>135.1</ele>
        <time>2020-05-30T16:33:58Z</time>
      </trkpt>
      <trkpt lat="46.5541" lon="0.30102">
        <ele>135.2</ele>
        <time>2020-05-30T16:33:59Z</time>
      </trkpt>
      <trkpt lat="46.55413" lon="0.30108">
        <ele>135.3</ele>
        <time>2020-05-30T16:34:00Z</time>
      </trkpt>
      <trkpt lat="46.55418" lon="0.30114">
        <ele>135.4</ele>
        <time>2020-05-30T16:34:01Z</time>
      </trkpt>
      <trkpt lat="46.55423" lon="0.3012">
        <ele>135.5</ele>
        <time>2020-05-30T16:34:02Z</time>
      </trkpt>
      <trkpt lat="46.55427" lon="0.30126">
        <ele>135.6</ele>
        <time>2020-05-30T16:34:03Z</time>
      </trkpt>
      <trkpt lat="46.55431" lon="0.30131">
        <ele>135.7</ele>
        <time>2020-05-30T16:34:04Z</time>
      </trkpt>
      <trkpt lat="46.55437" lon="0.30137">
        <ele>135.8</ele>
        <time>2020-05-30T16:34:05Z</time>
      </trkpt>
      <trkpt lat="46.5544" lon="0.30141">
        <ele>135.9</ele>
        <time>2020-05-30T16:34:06Z</time>
      </trkpt>
      <trkpt lat="46.55444" lon="0.30147">
        <ele>135.9</ele>
        <time>2020-05-30T16:34:07Z</time>
      </trkpt>
      <trkpt lat="46.55448" lon="0.30152">
        <ele>136</ele>
        <time>2020-05-30T16:34:08Z</time>
      </trkpt>
      <trkpt lat="46.55453" lon="0.30156">
        <ele>136.1</ele>
        <time>2020-05-30T16:34:09Z</time>
      </trkpt>
      <trkpt lat="46.55456" lon="0.30161">
        <ele>136.1</ele>
        <time>2020-05-30T16:34:10Z</time>
      </trkpt>
      <trkpt lat="46.55459" lon="0.30167">
        <ele>136.2</ele>
        <time>2020-05-30T16:34:11Z</time>
      </trkpt>
      <trkpt lat="46.55463" lon="0.30173">
        <ele>136.2</ele>
        <time>2020-05-30T16:34:12Z</time>
      </trkpt>
      <trkpt lat="46.55468" lon="0.3018">
        <ele>136.3</ele>
        <time>2020-05-30T16:34:13Z</time>
      </trkpt>
      <trkpt lat="46.55472" lon="0.30185">
        <ele>136.4</ele>
        <time>2020-05-30T16:34:14Z</time>
      </trkpt>
      <trkpt lat="46.55476" lon="0.30191">
        <ele>136.5</ele>
        <time>2020-05-30T16:34:15Z</time>
      </trkpt>
      <trkpt lat="46.55481" lon="0.30197">
        <ele>136.6</ele>
        <time>2020-05-30T16:34:16Z</time>
      </trkpt>
      <trkpt lat="46.55485" lon="0.30201">
        <ele>136.7</ele>
        <time>2020-05-30T16:34:17Z</time>
      </trkpt>
      <trkpt lat="46.55489" lon="0.30206">
        <ele>136.7</ele>
        <time>2020-05-30T16:34:18Z</time>
      </trkpt>
      <trkpt lat="46.55493" lon="0.30212">
        <ele>136.8</ele>
        <time>2020-05-30T16:34:19Z</time>
      </trkpt>
      <trkpt lat="46.55498" lon="0.30218">
        <ele>136.9</ele>
        <time>2020-05-30T16:34:20Z</time>
      </trkpt>
      <trkpt lat="46.55502" lon="0.30224">
        <ele>136.9</ele>
        <time>2020-05-30T16:34:21Z</time>
      </trkpt>
      <trkpt lat="46.55507" lon="0.30232">
        <ele>136.9</ele>
        <time>2020-05-30T16:34:22Z</time>
      </trkpt>
      <trkpt lat="46.55511" lon="0.30237">
        <ele>136.9</ele>
        <time>2020-05-30T16:34:23Z</time>
      </trkpt>
      <trkpt lat="46.55516" lon="0.30243">
        <ele>136.9</ele>
        <time>2020-05-30T16:34:24Z</time>
      </trkpt>
      <trkpt lat="46.5552" lon="0.30248">
        <ele>136.9</ele>
        <time>2020-05-30T16:34:25Z</time>
      </trkpt>
      <trkpt lat="46.55525" lon="0.30252">
        <ele>136.9</ele>
        <time>2020-05-30T16:34:26Z</time>
      </trkpt>
      <trkpt lat="46.55529" lon="0.30258">
        <ele>136.9</ele>
        <time>2020-05-30T16:34:27Z</time>
      </trkpt>
      <trkpt lat="46.55533" lon="0.30265">
        <ele>136.9</ele>
        <time>2020-05-30T16:34:28Z</time>
      </trkpt>
      <trkpt lat="46.55537" lon="0.30271">
        <ele>136.9</ele>
        <time>2020-05-30T16:34:29Z</time>
      </trkpt>
      <trkpt lat="46.55542" lon="0.30278">
        <ele>136.9</ele>
        <time>2020-05-30T16:34:30Z</time>
      </trkpt>
      <trkpt lat="46.55546" lon="0.30283">
        <ele>136.9</ele>
        <time>2020-05-30T16:34:31Z</time>
      </trkpt>
      <trkpt lat="46.55551" lon="0.3029">
        <ele>136.8</ele>
        <time>2020-05-30T16:34:32Z</time>
      </trkpt>
      <trkpt lat="46.55556" lon="0.30296">
        <ele>136.8</ele>
        <time>2020-05-30T16:34:33Z</time>
      </trkpt>
      <trkpt lat="46.55561" lon="0.30302">
        <ele>136.7</ele>
        <time>2020-05-30T16:34:34Z</time>
      </trkpt>
      <trkpt lat="46.55566" lon="0.30309">
        <ele>136.6</ele>
        <time>2020-05-30T16:34:35Z</time>
      </trkpt>
      <trkpt lat="46.5557" lon="0.30315">
        <ele>136.5</ele>
        <time>2020-05-30T16:34:36Z</time>
      </trkpt>
      <trkpt lat="46.55575" lon="0.3032">
        <ele>136.3</ele>
        <time>2020-05-30T16:34:37Z</time>
      </trkpt>
      <trkpt lat="46.55579" lon="0.30326">
        <ele>136.2</ele>
        <time>2020-05-30T16:34:38Z</time>
      </trkpt>
      <trkpt lat="46.55583" lon="0.30331">
        <ele>136.1</ele>
        <time>2020-05-30T16:34:39Z</time>
      </trkpt>
      <trkpt lat="46.55587" lon="0.30339">
        <ele>135.9</ele>
        <time>2020-05-30T16:34:40Z</time>
      </trkpt>
      <trkpt lat="46.5559" lon="0.30346">
        <ele>135.8</ele>
        <time>2020-05-30T16:34:41Z</time>
      </trkpt>
      <trkpt lat="46.55594" lon="0.30351">
        <ele>135.6</ele>
        <time>2020-05-30T16:34:42Z</time>
      </trkpt>
      <trkpt lat="46.55599" lon="0.30358">
        <ele>135.5</ele>
        <time>2020-05-30T16:34:43Z</time>
      </trkpt>
      <trkpt lat="46.55604" lon="0.30363">
        <ele>135.3</ele>
        <time>2020-05-30T16:34:44Z</time>
      </trkpt>
      <trkpt lat="46.55608" lon="0.30369">
        <ele>135.1</ele>
        <time>2020-05-30T16:34:45Z</time>
      </trkpt>
      <trkpt lat="46.55612" lon="0.30378">
        <ele>134.9</ele>
        <time>2020-05-30T16:34:46Z</time>
      </trkpt>
      <trkpt lat="46.55616" lon="0.30385">
        <ele>134.7</ele>
        <time>2020-05-30T16:34:47Z</time>
      </trkpt>
      <trkpt lat="46.55621" lon="0.30391">
        <ele>134.5</ele>
        <time>2020-05-30T16:34:48Z</time>
      </trkpt>
      <trkpt lat="46.55625" lon="0.30396">
        <ele>134.3</ele>
        <time>2020-05-30T16:34:49Z</time>
      </trkpt>
      <trkpt lat="46.55628" lon="0.30401">
        <ele>134.2</ele>
        <time>2020-05-30T16:34:50Z</time>
      </trkpt>
      <trkpt lat="46.55631" lon="0.30406">
        <ele>134.1</ele>
        <time>2020-05-30T16:34:51Z</time>
      </trkpt>
      <trkpt lat="46.55633" lon="0.30409">
        <ele>134.1</ele>
        <time>2020-05-30T16:34:52Z</time>
      </trkpt>
      <trkpt lat="46.55634" lon="0.3041">
        <ele>134</ele>
        <time>2020-05-30T16:34:53Z</time>
      </trkpt>
      <trkpt lat="46.55634" lon="0.30411">
        <ele>134</ele>
        <time>2020-05-30T16:34:54Z</time>
      </trkpt>
      <trkpt lat="46.55635" lon="0.30411">
        <ele>134</ele>
        <time>2020-05-30T16:34:55Z</time>
      </trkpt>
      <trkpt lat="46.55635" lon="0.30411">
        <ele>134</ele>
        <time>2020-05-30T16:34:56Z</time>
      </trkpt>
      <trkpt lat="46.55635" lon="0.30411">
        <ele>134</ele>
        <time>2020-05-30T16:34:57Z</time>
      </trkpt>
      <trkpt lat="46.55635" lon="0.30411">
        <ele>134</ele>
        <time>2020-05-30T16:34:58Z</time>
      </trkpt>
      <trkpt lat="46.55635" lon="0.30411">
        <ele>134</ele>
        <time>2020-05-30T16:34:59Z</time>
      </trkpt>
      <trkpt lat="46.55635" lon="0.30411">
        <ele>134</ele>
        <time>2020-05-30T16:35:00Z</time>
      </trkpt>
      <trkpt lat="46.55635" lon="0.30411">
        <ele>134</ele>
        <time>2020-05-30T16:35:01Z</time>
      </trkpt>
      <trkpt lat="46.55635" lon="0.30411">
        <ele>134</ele>
        <time>2020-05-30T16:35:02Z</time>
      </trkpt>
      <trkpt lat="46.55635" lon="0.30411">
        <ele>134</ele>
        <time>2020-05-30T16:35:03Z</time>
      </trkpt>
      <trkpt lat="46.55635" lon="0.30411">
        <ele>134</ele>
        <time>2020-05-30T16:35:04Z</time>
      </trkpt>
      <trkpt lat="46.55635" lon="0.30411">
        <ele>134</ele>
        <time>2020-05-30T16:35:05Z</time>
      </trkpt>
      <trkpt lat="46.55636" lon="0.30412">
        <ele>134</ele>
        <time>2020-05-30T16:35:06Z</time>
      </trkpt>
      <trkpt lat="46.55636" lon="0.30412">
        <ele>134</ele>
        <time>2020-05-30T16:35:07Z</time>
      </trkpt>
      <trkpt lat="46.55636" lon="0.30412">
        <ele>134</ele>
        <time>2020-05-30T16:35:08Z</time>
      </trkpt>
      <trkpt lat="46.55636" lon="0.30412">
        <ele>134</ele>
        <time>2020-05-30T16:35:09Z</time>
      </trkpt>
      <trkpt lat="46.55636" lon="0.30412">
        <ele>134</ele>
        <time>2020-05-30T16:35:10Z</time>
      </trkpt>
      <trkpt lat="46.55636" lon="0.30412">
        <ele>134</ele>
        <time>2020-05-30T16:35:11Z</time>
      </trkpt>
      <trkpt lat="46.55636" lon="0.30412">
        <ele>134</ele>
        <time>2020-05-30T16:35:12Z</time>
      </trkpt>
      <trkpt lat="46.55636" lon="0.30412">
        <ele>134</ele>
        <time>2020-05-30T16:35:13Z</time>
      </trkpt>
      <trkpt lat="46.55636" lon="0.30412">
        <ele>134</ele>
        <time>2020-05-30T16:35:14Z</time>
      </trkpt>
      <trkpt lat="46.55636" lon="0.30412">
        <ele>134</ele>
        <time>2020-05-30T16:35:15Z</time>
      </trkpt>
      <trkpt lat="46.55637" lon="0.30412">
        <ele>134</ele>
        <time>2020-05-30T16:35:16Z</time>
      </trkpt>
      <trkpt lat="46.55637" lon="0.30412">
        <ele>134</ele>
        <time>2020-05-30T16:35:17Z</time>
      </trkpt>
      <trkpt lat="46.55637" lon="0.30412">
        <ele>134</ele>
        <time>2020-05-30T16:35:18Z</time>
      </trkpt>
      <trkpt lat="46.55637" lon="0.30412">
        <ele>134</ele>
        <time>2020-05-30T16:35:19Z</time>
      </trkpt>
      <trkpt lat="46.55637" lon="0.30412">
        <ele>134</ele>
        <time>2020-05-30T16:35:20Z</time>
      </trkpt>
      <trkpt lat="46.55637" lon="0.30413">
        <ele>134</ele>
        <time>2020-05-30T16:35:21Z</time>
      </trkpt>
      <trkpt lat="46.55637" lon="0.30413">
        <ele>134</ele>
        <time>2020-05-30T16:35:22Z</time>
      </trkpt>
      <trkpt lat="46.55637" lon="0.30413">
        <ele>134</ele>
        <time>2020-05-30T16:35:23Z</time>
      </trkpt>
      <trkpt lat="46.55637" lon="0.30413">
        <ele>134</ele>
        <time>2020-05-30T16:35:24Z</time>
      </trkpt>
      <trkpt lat="46.55637" lon="0.30413">
        <ele>134</ele>
        <time>2020-05-30T16:35:25Z</time>
      </trkpt>
      <trkpt lat="46.55637" lon="0.30413">
        <ele>134</ele>
        <time>2020-05-30T16:35:26Z</time>
      </trkpt>
      <trkpt lat="46.55638" lon="0.30413">
        <ele>134</ele>
        <time>2020-05-30T16:35:27Z</time>
      </trkpt>
      <trkpt lat="46.55638" lon="0.30413">
        <ele>134</ele>
        <time>2020-05-30T16:35:28Z</time>
      </trkpt>
      <trkpt lat="46.55638" lon="0.30413">
        <ele>134</ele>
        <time>2020-05-30T16:35:29Z</time>
      </trkpt>
      <trkpt lat="46.55638" lon="0.30413">
        <ele>134</ele>
        <time>2020-05-30T16:35:30Z</time>
      </trkpt>
      <trkpt lat="46.5564" lon="0.30416">
        <ele>133.9</ele>
        <time>2020-05-30T16:35:31Z</time>
      </trkpt>
      <trkpt lat="46.55642" lon="0.30421">
        <ele>133.8</ele>
        <time>2020-05-30T16:35:32Z</time>
      </trkpt>
      <trkpt lat="46.55645" lon="0.30426">
        <ele>133.8</ele>
        <time>2020-05-30T16:35:33Z</time>
      </trkpt>
      <trkpt lat="46.55649" lon="0.3043">
        <ele>133.7</ele>
        <time>2020-05-30T16:35:34Z</time>
      </trkpt>
      <trkpt lat="46.55656" lon="0.30429">
        <ele>133.6</ele>
        <time>2020-05-30T16:35:35Z</time>
      </trkpt>
      <trkpt lat="46.55661" lon="0.30429">
        <ele>133.2</ele>
        <time>2020-05-30T16:35:36Z</time>
      </trkpt>
      <trkpt lat="46.55667" lon="0.30425">
        <ele>132.8</ele>
        <time>2020-05-30T16:35:37Z</time>
      </trkpt>
      <trkpt lat="46.55672" lon="0.30421">
        <ele>132.5</ele>
        <time>2020-05-30T16:35:38Z</time>
      </trkpt>
      <trkpt lat="46.55678" lon="0.30416">
        <ele>132.2</ele>
        <time>2020-05-30T16:35:39Z</time>
      </trkpt>
      <trkpt lat="46.55683" lon="0.30412">
        <ele>131.9</ele>
        <time>2020-05-30T16:35:40Z</time>
      </trkpt>
      <trkpt lat="46.55688" lon="0.30408">
        <ele>131.6</ele>
        <time>2020-05-30T16:35:41Z</time>
      </trkpt>
      <trkpt lat="46.55694" lon="0.30403">
        <ele>131.2</ele>
        <time>2020-05-30T16:35:42Z</time>
      </trkpt>
      <trkpt lat="46.557" lon="0.30399">
        <ele>130.9</ele>
        <time>2020-05-30T16:35:43Z</time>
      </trkpt>
      <trkpt lat="46.55706" lon="0.30395">
        <ele>130.5</ele>
        <time>2020-05-30T16:35:44Z</time>
      </trkpt>
      <trkpt lat="46.55712" lon="0.3039">
        <ele>130.3</ele>
        <time>2020-05-30T16:35:45Z</time>
      </trkpt>
      <trkpt lat="46.55718" lon="0.30386">
        <ele>130.2</ele>
        <time>2020-05-30T16:35:46Z</time>
      </trkpt>
      <trkpt lat="46.55724" lon="0.30381">
        <ele>130</ele>
        <time>2020-05-30T16:35:47Z</time>
      </trkpt>
      <trkpt lat="46.55731" lon="0.30377">
        <ele>129.8</ele>
        <time>2020-05-30T16:35:48Z</time>
      </trkpt>
      <trkpt lat="46.55737" lon="0.30372">
        <ele>129.7</ele>
        <time>2020-05-30T16:35:49Z</time>
      </trkpt>
      <trkpt lat="46.55744" lon="0.30368">
        <ele>129.5</ele>
        <time>2020-05-30T16:35:50Z</time>
      </trkpt>
      <trkpt lat="46.5575" lon="0.30363">
        <ele>129.3</ele>
        <time>2020-05-30T16:35:51Z</time>
      </trkpt>
      <trkpt lat="46.55756" lon="0.30359">
        <ele>129.1</ele>
        <time>2020-05-30T16:35:52Z</time>
      </trkpt>
      <trkpt lat="46.55763" lon="0.30355">
        <ele>128.9</ele>
        <time>2020-05-30T16:35:53Z</time>
      </trkpt>
      <trkpt lat="46.5577" lon="0.30351">
        <ele>128.7</ele>
        <time>2020-05-30T16:35:54Z</time>
      </trkpt>
      <trkpt lat="46.55777" lon="0.30347">
        <ele>128.5</ele>
        <time>2020-05-30T16:35:55Z</time>
      </trkpt>
      <trkpt lat="46.55784" lon="0.30343">
        <ele>128.4</ele>
        <time>2020-05-30T16:35:56Z</time>
      </trkpt>
      <trkpt lat="46.55791" lon="0.30339">
        <ele>128.2</ele>
        <time>2020-05-30T16:35:57Z</time>
      </trkpt>
      <trkpt lat="46.55798" lon="0.30335">
        <ele>128</ele>
        <time>2020-05-30T16:35:58Z</time>
      </trkpt>
      <trkpt lat="46.55804" lon="0.30331">
        <ele>127.7</ele>
        <time>2020-05-30T16:35:59Z</time>
      </trkpt>
      <trkpt lat="46.55812" lon="0.30327">
        <ele>127.4</ele>
        <time>2020-05-30T16:36:00Z</time>
      </trkpt>
      <trkpt lat="46.55819" lon="0.30324">
        <ele>127.1</ele>
        <time>2020-05-30T16:36:01Z</time>
      </trkpt>
      <trkpt lat="46.55827" lon="0.30321">
        <ele>126.9</ele>
        <time>2020-05-30T16:36:02Z</time>
      </trkpt>
      <trkpt lat="46.55835" lon="0.30318">
        <ele>126.7</ele>
        <time>2020-05-30T16:36:03Z</time>
      </trkpt>
      <trkpt lat="46.55842" lon="0.30315">
        <ele>126.4</ele>
        <time>2020-05-30T16:36:04Z</time>
      </trkpt>
      <trkpt lat="46.5585" lon="0.30312">
        <ele>126.2</ele>
        <time>2020-05-30T16:36:05Z</time>
      </trkpt>
      <trkpt lat="46.55858" lon="0.30309">
        <ele>126</ele>
        <time>2020-05-30T16:36:06Z</time>
      </trkpt>
      <trkpt lat="46.55867" lon="0.30306">
        <ele>125.8</ele>
        <time>2020-05-30T16:36:07Z</time>
      </trkpt>
      <trkpt lat="46.55875" lon="0.30302">
        <ele>125.5</ele>
        <time>2020-05-30T16:36:08Z</time>
      </trkpt>
      <trkpt lat="46.55883" lon="0.303">
        <ele>125.2</ele>
        <time>2020-05-30T16:36:09Z</time>
      </trkpt>
      <trkpt lat="46.55892" lon="0.30297">
        <ele>124.8</ele>
        <time>2020-05-30T16:36:10Z</time>
      </trkpt>
      <trkpt lat="46.55901" lon="0.30295">
        <ele>124.5</ele>
        <time>2020-05-30T16:36:11Z</time>
      </trkpt>
      <trkpt lat="46.5591" lon="0.30291">
        <ele>124.1</ele>
        <time>2020-05-30T16:36:12Z</time>
      </trkpt>
      <trkpt lat="46.55919" lon="0.30289">
        <ele>123.8</ele>
        <time>2020-05-30T16:36:13Z</time>
      </trkpt>
      <trkpt lat="46.55928" lon="0.30286">
        <ele>123.4</ele>
        <time>2020-05-30T16:36:14Z</time>
      </trkpt>
      <trkpt lat="46.55937" lon="0.30285">
        <ele>122.9</ele>
        <time>2020-05-30T16:36:15Z</time>
      </trkpt>
      <trkpt lat="46.55946" lon="0.30283">
        <ele>122.5</ele>
        <time>2020-05-30T16:36:16Z</time>
      </trkpt>
      <trkpt lat="46.55955" lon="0.30281">
        <ele>122</ele>
        <time>2020-05-30T16:36:17Z</time>
      </trkpt>
      <trkpt lat="46.55964" lon="0.30279">
        <ele>121.6</ele>
        <time>2020-05-30T16:36:18Z</time>
      </trkpt>
      <trkpt lat="46.55974" lon="0.30277">
        <ele>121.2</ele>
        <time>2020-05-30T16:36:19Z</time>
      </trkpt>
      <trkpt lat="46.55983" lon="0.30276">
        <ele>120.8</ele>
        <time>2020-05-30T16:36:20Z</time>
      </trkpt>
      <trkpt lat="46.55992" lon="0.30274">
        <ele>120.4</ele>
        <time>2020-05-30T16:36:21Z</time>
      </trkpt>
      <trkpt lat="46.56002" lon="0.30273">
        <ele>120</ele>
        <time>2020-05-30T16:36:22Z</time>
      </trkpt>
      <trkpt lat="46.56011" lon="0.30273">
        <ele>120.1</ele>
        <time>2020-05-30T16:36:23Z</time>
      </trkpt>
      <trkpt lat="46.56021" lon="0.30273">
        <ele>120.5</ele>
        <time>2020-05-30T16:36:24Z</time>
      </trkpt>
      <trkpt lat="46.56031" lon="0.30274">
        <ele>120.8</ele>
        <time>2020-05-30T16:36:25Z</time>
      </trkpt>
      <trkpt lat="46.56042" lon="0.30273">
        <ele>121.1</ele>
        <time>2020-05-30T16:36:26Z</time>
      </trkpt>
      <trkpt lat="46.56052" lon="0.30273">
        <ele>121.5</ele>
        <time>2020-05-30T16:36:27Z</time>
      </trkpt>
      <trkpt lat="46.56062" lon="0.30273">
        <ele>121.8</ele>
        <time>2020-05-30T16:36:28Z</time>
      </trkpt>
      <trkpt lat="46.56073" lon="0.30274">
        <ele>122.2</ele>
        <time>2020-05-30T16:36:29Z</time>
      </trkpt>
      <trkpt lat="46.56084" lon="0.30275">
        <ele>122.6</ele>
        <time>2020-05-30T16:36:30Z</time>
      </trkpt>
      <trkpt lat="46.56095" lon="0.30275">
        <ele>122.8</ele>
        <time>2020-05-30T16:36:31Z</time>
      </trkpt>
      <trkpt lat="46.56105" lon="0.30276">
        <ele>123.1</ele>
        <time>2020-05-30T16:36:32Z</time>
      </trkpt>
      <trkpt lat="46.56116" lon="0.30278">
        <ele>123.4</ele>
        <time>2020-05-30T16:36:33Z</time>
      </trkpt>
      <trkpt lat="46.56127" lon="0.30283">
        <ele>123.7</ele>
        <time>2020-05-30T16:36:34Z</time>
      </trkpt>
      <trkpt lat="46.56136" lon="0.3029">
        <ele>124</ele>
        <time>2020-05-30T16:36:35Z</time>
      </trkpt>
      <trkpt lat="46.56146" lon="0.30296">
        <ele>124.3</ele>
        <time>2020-05-30T16:36:36Z</time>
      </trkpt>
      <trkpt lat="46.56155" lon="0.30304">
        <ele>124.6</ele>
        <time>2020-05-30T16:36:37Z</time>
      </trkpt>
      <trkpt lat="46.56164" lon="0.30312">
        <ele>124.9</ele>
        <time>2020-05-30T16:36:38Z</time>
      </trkpt>
      <trkpt lat="46.56172" lon="0.30319">
        <ele>125.2</ele>
        <time>2020-05-30T16:36:39Z</time>
      </trkpt>
      <trkpt lat="46.5618" lon="0.30327">
        <ele>125.5</ele>
        <time>2020-05-30T16:36:40Z</time>
      </trkpt>
      <trkpt lat="46.56187" lon="0.30334">
        <ele>125.8</ele>
        <time>2020-05-30T16:36:41Z</time>
      </trkpt>
      <trkpt lat="46.56194" lon="0.30342">
        <ele>126.1</ele>
        <time>2020-05-30T16:36:42Z</time>
      </trkpt>
      <trkpt lat="46.562" lon="0.30348">
        <ele>126.4</ele>
        <time>2020-05-30T16:36:43Z</time>
      </trkpt>
      <trkpt lat="46.56206" lon="0.30354">
        <ele>126.7</ele>
        <time>2020-05-30T16:36:44Z</time>
      </trkpt>
      <trkpt lat="46.5621" lon="0.30361">
        <ele>127</ele>
        <time>2020-05-30T16:36:45Z</time>
      </trkpt>
      <trkpt lat="46.56214" lon="0.30368">
        <ele>127.2</ele>
        <time>2020-05-30T16:36:46Z</time>
      </trkpt>
      <trkpt lat="46.56218" lon="0.30375">
        <ele>127.5</ele>
        <time>2020-05-30T16:36:47Z</time>
      </trkpt>
      <trkpt lat="46.56222" lon="0.30381">
        <ele>125.6</ele>
        <time>2020-05-30T16:36:48Z</time>
      </trkpt>
      <trkpt lat="46.56226" lon="0.30385">
        <ele>124.2</ele>
        <time>2020-05-30T16:36:49Z</time>
      </trkpt>
      <trkpt lat="46.56231" lon="0.30384">
        <ele>124.2</ele>
        <time>2020-05-30T16:36:50Z</time>
      </trkpt>
      <trkpt lat="46.56236" lon="0.3038">
        <ele>124.5</ele>
        <time>2020-05-30T16:36:51Z</time>
      </trkpt>
      <trkpt lat="46.56238" lon="0.30374">
        <ele>124.8</ele>
        <time>2020-05-30T16:36:52Z</time>
      </trkpt>
      <trkpt lat="46.56239" lon="0.30368">
        <ele>125.1</ele>
        <time>2020-05-30T16:36:53Z</time>
      </trkpt>
      <trkpt lat="46.56238" lon="0.30362">
        <ele>125.7</ele>
        <time>2020-05-30T16:36:54Z</time>
      </trkpt>
      <trkpt lat="46.56237" lon="0.30356">
        <ele>126</ele>
        <time>2020-05-30T16:36:55Z</time>
      </trkpt>
      <trkpt lat="46.56235" lon="0.3035">
        <ele>126.3</ele>
        <time>2020-05-30T16:36:56Z</time>
      </trkpt>
      <trkpt lat="46.56234" lon="0.30344">
        <ele>126.6</ele>
        <time>2020-05-30T16:36:57Z</time>
      </trkpt>
      <trkpt lat="46.56235" lon="0.30337">
        <ele>126.9</ele>
        <time>2020-05-30T16:36:58Z</time>
      </trkpt>
      <trkpt lat="46.56237" lon="0.30331">
        <ele>127.2</ele>
        <time>2020-05-30T16:36:59Z</time>
      </trkpt>
      <trkpt lat="46.56236" lon="0.30323">
        <ele>127.6</ele>
        <time>2020-05-30T16:37:00Z</time>
      </trkpt>
      <trkpt lat="46.56236" lon="0.30316">
        <ele>127.9</ele>
        <time>2020-05-30T16:37:01Z</time>
      </trkpt>
      <trkpt lat="46.56236" lon="0.3031">
        <ele>128.3</ele>
        <time>2020-05-30T16:37:02Z</time>
      </trkpt>
      <trkpt lat="46.56236" lon="0.30303">
        <ele>128.4</ele>
        <time>2020-05-30T16:37:03Z</time>
      </trkpt>
      <trkpt lat="46.56238" lon="0.30296">
        <ele>128.5</ele>
        <time>2020-05-30T16:37:04Z</time>
      </trkpt>
      <trkpt lat="46.56239" lon="0.30289">
        <ele>128.6</ele>
        <time>2020-05-30T16:37:05Z</time>
      </trkpt>
      <trkpt lat="46.56239" lon="0.30282">
        <ele>128.9</ele>
        <time>2020-05-30T16:37:06Z</time>
      </trkpt>
      <trkpt lat="46.5624" lon="0.30275">
        <ele>129.1</ele>
        <time>2020-05-30T16:37:07Z</time>
      </trkpt>
      <trkpt lat="46.5624" lon="0.30267">
        <ele>129.2</ele>
        <time>2020-05-30T16:37:08Z</time>
      </trkpt>
      <trkpt lat="46.56241" lon="0.3026">
        <ele>129.4</ele>
        <time>2020-05-30T16:37:09Z</time>
      </trkpt>
      <trkpt lat="46.56241" lon="0.30252">
        <ele>129.6</ele>
        <time>2020-05-30T16:37:10Z</time>
      </trkpt>
      <trkpt lat="46.56242" lon="0.30244">
        <ele>129.7</ele>
        <time>2020-05-30T16:37:11Z</time>
      </trkpt>
      <trkpt lat="46.56244" lon="0.30237">
        <ele>129.9</ele>
        <time>2020-05-30T16:37:12Z</time>
      </trkpt>
      <trkpt lat="46.56245" lon="0.3023">
        <ele>129.9</ele>
        <time>2020-05-30T16:37:13Z</time>
      </trkpt>
      <trkpt lat="46.56246" lon="0.30222">
        <ele>129.9</ele>
        <time>2020-05-30T16:37:14Z</time>
      </trkpt>
      <trkpt lat="46.56247" lon="0.30215">
        <ele>129.9</ele>
        <time>2020-05-30T16:37:15Z</time>
      </trkpt>
      <trkpt lat="46.56248" lon="0.30207">
        <ele>130</ele>
        <time>2020-05-30T16:37:16Z</time>
      </trkpt>
      <trkpt lat="46.56248" lon="0.30199">
        <ele>130.1</ele>
        <time>2020-05-30T16:37:17Z</time>
      </trkpt>
      <trkpt lat="46.56249" lon="0.30191">
        <ele>130.2</ele>
        <time>2020-05-30T16:37:18Z</time>
      </trkpt>
      <trkpt lat="46.5625" lon="0.30184">
        <ele>130.3</ele>
        <time>2020-05-30T16:37:19Z</time>
      </trkpt>
      <trkpt lat="46.56252" lon="0.30177">
        <ele>130.4</ele>
        <time>2020-05-30T16:37:20Z</time>
      </trkpt>
      <trkpt lat="46.56254" lon="0.3017">
        <ele>130.6</ele>
        <time>2020-05-30T16:37:21Z</time>
      </trkpt>
      <trkpt lat="46.56258" lon="0.30165">
        <ele>130.6</ele>
        <time>2020-05-30T16:37:22Z</time>
      </trkpt>
      <trkpt lat="46.56261" lon="0.30159">
        <ele>130.7</ele>
        <time>2020-05-30T16:37:23Z</time>
      </trkpt>
      <trkpt lat="46.56262" lon="0.30152">
        <ele>130.8</ele>
        <time>2020-05-30T16:37:24Z</time>
      </trkpt>
      <trkpt lat="46.56262" lon="0.30144">
        <ele>130.8</ele>
        <time>2020-05-30T16:37:25Z</time>
      </trkpt>
      <trkpt lat="46.56261" lon="0.30138">
        <ele>130.8</ele>
        <time>2020-05-30T16:37:26Z</time>
      </trkpt>
      <trkpt lat="46.56259" lon="0.30131">
        <ele>130.9</ele>
        <time>2020-05-30T16:37:27Z</time>
      </trkpt>
      <trkpt lat="46.56257" lon="0.30124">
        <ele>131</ele>
        <time>2020-05-30T16:37:28Z</time>
      </trkpt>
      <trkpt lat="46.56254" lon="0.30119">
        <ele>131.1</ele>
        <time>2020-05-30T16:37:29Z</time>
      </trkpt>
      <trkpt lat="46.56253" lon="0.30114">
        <ele>131.1</ele>
        <time>2020-05-30T16:37:30Z</time>
      </trkpt>
      <trkpt lat="46.56253" lon="0.30109">
        <ele>131.1</ele>
        <time>2020-05-30T16:37:31Z</time>
      </trkpt>
      <trkpt lat="46.56254" lon="0.30103">
        <ele>131.2</ele>
        <time>2020-05-30T16:37:32Z</time>
      </trkpt>
      <trkpt lat="46.56253" lon="0.30095">
        <ele>131.2</ele>
        <time>2020-05-30T16:37:33Z</time>
      </trkpt>
      <trkpt lat="46.56252" lon="0.30087">
        <ele>131.3</ele>
        <time>2020-05-30T16:37:34Z</time>
      </trkpt>
      <trkpt lat="46.5625" lon="0.3008">
        <ele>131.3</ele>
        <time>2020-05-30T16:37:35Z</time>
      </trkpt>
      <trkpt lat="46.5625" lon="0.30077">
        <ele>131.4</ele>
        <time>2020-05-30T16:37:36Z</time>
      </trkpt>
      <trkpt lat="46.56249" lon="0.30072">
        <ele>131.4</ele>
        <time>2020-05-30T16:37:37Z</time>
      </trkpt>
      <trkpt lat="46.56248" lon="0.30067">
        <ele>131.4</ele>
        <time>2020-05-30T16:37:38Z</time>
      </trkpt>
      <trkpt lat="46.56248" lon="0.30062">
        <ele>131.4</ele>
        <time>2020-05-30T16:37:39Z</time>
      </trkpt>
      <trkpt lat="46.56248" lon="0.30057">
        <ele>131.4</ele>
        <time>2020-05-30T16:37:40Z</time>
      </trkpt>
      <trkpt lat="46.56248" lon="0.30053">
        <ele>131.5</ele>
        <time>2020-05-30T16:37:41Z</time>
      </trkpt>
      <trkpt lat="46.56247" lon="0.30047">
        <ele>131.5</ele>
        <time>2020-05-30T16:37:42Z</time>
      </trkpt>
      <trkpt lat="46.56245" lon="0.30039">
        <ele>131.5</ele>
        <time>2020-05-30T16:37:43Z</time>
      </trkpt>
      <trkpt lat="46.56244" lon="0.30033">
        <ele>131.5</ele>
        <time>2020-05-30T16:37:44Z</time>
      </trkpt>
      <trkpt lat="46.56244" lon="0.30028">
        <ele>131.5</ele>
        <time>2020-05-30T16:37:45Z</time>
      </trkpt>
      <trkpt lat="46.56245" lon="0.30025">
        <ele>131.5</ele>
        <time>2020-05-30T16:37:46Z</time>
      </trkpt>
      <trkpt lat="46.56245" lon="0.30018">
        <ele>131.5</ele>
        <time>2020-05-30T16:37:47Z</time>
      </trkpt>
      <trkpt lat="46.56244" lon="0.30012">
        <ele>131.5</ele>
        <time>2020-05-30T16:37:48Z</time>
      </trkpt>
      <trkpt lat="46.56243" lon="0.30006">
        <ele>131.6</ele>
        <time>2020-05-30T16:37:49Z</time>
      </trkpt>
      <trkpt lat="46.56242" lon="0.3">
        <ele>131.6</ele>
        <time>2020-05-30T16:37:50Z</time>
      </trkpt>
      <trkpt lat="46.56242" lon="0.29994">
        <ele>131.6</ele>
        <time>2020-05-30T16:37:51Z</time>
      </trkpt>
      <trkpt lat="46.56241" lon="0.29988">
        <ele>131.6</ele>
        <time>2020-05-30T16:37:52Z</time>
      </trkpt>
      <trkpt lat="46.56241" lon="0.29982">
        <ele>131.5</ele>
        <time>2020-05-30T16:37:53Z</time>
      </trkpt>
      <trkpt lat="46.56239" lon="0.29974">
        <ele>131.5</ele>
        <time>2020-05-30T16:37:54Z</time>
      </trkpt>
      <trkpt lat="46.56238" lon="0.29967">
        <ele>131.5</ele>
        <time>2020-05-30T16:37:55Z</time>
      </trkpt>
      <trkpt lat="46.56237" lon="0.29961">
        <ele>131.5</ele>
        <time>2020-05-30T16:37:56Z</time>
      </trkpt>
      <trkpt lat="46.56235" lon="0.29953">
        <ele>131.5</ele>
        <time>2020-05-30T16:37:57Z</time>
      </trkpt>
      <trkpt lat="46.56234" lon="0.29946">
        <ele>131.4</ele>
        <time>2020-05-30T16:37:58Z</time>
      </trkpt>
      <trkpt lat="46.56234" lon="0.2994">
        <ele>131.4</ele>
        <time>2020-05-30T16:37:59Z</time>
      </trkpt>
      <trkpt lat="46.56233" lon="0.29932">
        <ele>131.4</ele>
        <time>2020-05-30T16:38:00Z</time>
      </trkpt>
      <trkpt lat="46.56232" lon="0.29923">
        <ele>131.3</ele>
        <time>2020-05-30T16:38:01Z</time>
      </trkpt>
      <trkpt lat="46.56231" lon="0.29917">
        <ele>131.3</ele>
        <time>2020-05-30T16:38:02Z</time>
      </trkpt>
      <trkpt lat="46.56229" lon="0.2991">
        <ele>131.3</ele>
        <time>2020-05-30T16:38:03Z</time>
      </trkpt>
      <trkpt lat="46.56228" lon="0.29902">
        <ele>131.2</ele>
        <time>2020-05-30T16:38:04Z</time>
      </trkpt>
      <trkpt lat="46.56228" lon="0.29897">
        <ele>131.2</ele>
        <time>2020-05-30T16:38:05Z</time>
      </trkpt>
      <trkpt lat="46.56227" lon="0.29888">
        <ele>131.1</ele>
        <time>2020-05-30T16:38:06Z</time>
      </trkpt>
      <trkpt lat="46.56227" lon="0.29881">
        <ele>131.1</ele>
        <time>2020-05-30T16:38:07Z</time>
      </trkpt>
      <trkpt lat="46.56226" lon="0.29872">
        <ele>131</ele>
        <time>2020-05-30T16:38:08Z</time>
      </trkpt>
      <trkpt lat="46.56225" lon="0.29866">
        <ele>131</ele>
        <time>2020-05-30T16:38:09Z</time>
      </trkpt>
      <trkpt lat="46.56225" lon="0.2986">
        <ele>130.9</ele>
        <time>2020-05-30T16:38:10Z</time>
      </trkpt>
      <trkpt lat="46.56224" lon="0.29853">
        <ele>130.8</ele>
        <time>2020-05-30T16:38:11Z</time>
      </trkpt>
      <trkpt lat="46.56223" lon="0.29845">
        <ele>130.7</ele>
        <time>2020-05-30T16:38:12Z</time>
      </trkpt>
      <trkpt lat="46.56222" lon="0.29838">
        <ele>130.6</ele>
        <time>2020-05-30T16:38:13Z</time>
      </trkpt>
      <trkpt lat="46.56221" lon="0.2983">
        <ele>130.5</ele>
        <time>2020-05-30T16:38:14Z</time>
      </trkpt>
      <trkpt lat="46.56219" lon="0.29822">
        <ele>130.3</ele>
        <time>2020-05-30T16:38:15Z</time>
      </trkpt>
      <trkpt lat="46.56219" lon="0.29812">
        <ele>130.2</ele>
        <time>2020-05-30T16:38:16Z</time>
      </trkpt>
      <trkpt lat="46.56219" lon="0.29805">
        <ele>130</ele>
        <time>2020-05-30T16:38:17Z</time>
      </trkpt>
      <trkpt lat="46.56217" lon="0.29797">
        <ele>129.9</ele>
        <time>2020-05-30T16:38:18Z</time>
      </trkpt>
      <trkpt lat="46.56216" lon="0.29788">
        <ele>129.7</ele>
        <time>2020-05-30T16:38:19Z</time>
      </trkpt>
      <trkpt lat="46.56215" lon="0.29779">
        <ele>129.6</ele>
        <time>2020-05-30T16:38:20Z</time>
      </trkpt>
      <trkpt lat="46.56215" lon="0.2977">
        <ele>129.4</ele>
        <time>2020-05-30T16:38:21Z</time>
      </trkpt>
      <trkpt lat="46.56213" lon="0.29759">
        <ele>129.2</ele>
        <time>2020-05-30T16:38:22Z</time>
      </trkpt>
      <trkpt lat="46.56213" lon="0.2975">
        <ele>129.1</ele>
        <time>2020-05-30T16:38:23Z</time>
      </trkpt>
      <trkpt lat="46.5621" lon="0.29741">
        <ele>128.9</ele>
        <time>2020-05-30T16:38:24Z</time>
      </trkpt>
      <trkpt lat="46.5621" lon="0.29731">
        <ele>128.8</ele>
        <time>2020-05-30T16:38:25Z</time>
      </trkpt>
      <trkpt lat="46.56209" lon="0.2972">
        <ele>128.7</ele>
        <time>2020-05-30T16:38:26Z</time>
      </trkpt>
      <trkpt lat="46.56209" lon="0.29709">
        <ele>128.4</ele>
        <time>2020-05-30T16:38:27Z</time>
      </trkpt>
      <trkpt lat="46.56208" lon="0.29697">
        <ele>128.2</ele>
        <time>2020-05-30T16:38:28Z</time>
      </trkpt>
      <trkpt lat="46.56207" lon="0.29687">
        <ele>128.1</ele>
        <time>2020-05-30T16:38:29Z</time>
      </trkpt>
      <trkpt lat="46.56206" lon="0.29676">
        <ele>128</ele>
        <time>2020-05-30T16:38:30Z</time>
      </trkpt>
      <trkpt lat="46.56204" lon="0.29665">
        <ele>127.9</ele>
        <time>2020-05-30T16:38:31Z</time>
      </trkpt>
      <trkpt lat="46.56202" lon="0.29652">
        <ele>127.7</ele>
        <time>2020-05-30T16:38:32Z</time>
      </trkpt>
      <trkpt lat="46.56201" lon="0.2964">
        <ele>127.5</ele>
        <time>2020-05-30T16:38:33Z</time>
      </trkpt>
      <trkpt lat="46.56199" lon="0.29627">
        <ele>127.3</ele>
        <time>2020-05-30T16:38:34Z</time>
      </trkpt>
      <trkpt lat="46.56198" lon="0.29614">
        <ele>127</ele>
        <time>2020-05-30T16:38:35Z</time>
      </trkpt>
      <trkpt lat="46.56196" lon="0.296">
        <ele>126.5</ele>
        <time>2020-05-30T16:38:36Z</time>
      </trkpt>
      <trkpt lat="46.56195" lon="0.29587">
        <ele>126</ele>
        <time>2020-05-30T16:38:37Z</time>
      </trkpt>
      <trkpt lat="46.56193" lon="0.29573">
        <ele>125.5</ele>
        <time>2020-05-30T16:38:38Z</time>
      </trkpt>
      <trkpt lat="46.56191" lon="0.29559">
        <ele>125.1</ele>
        <time>2020-05-30T16:38:39Z</time>
      </trkpt>
      <trkpt lat="46.5619" lon="0.29545">
        <ele>124.8</ele>
        <time>2020-05-30T16:38:40Z</time>
      </trkpt>
      <trkpt lat="46.56188" lon="0.29531">
        <ele>124.6</ele>
        <time>2020-05-30T16:38:41Z</time>
      </trkpt>
      <trkpt lat="46.56186" lon="0.29517">
        <ele>124.5</ele>
        <time>2020-05-30T16:38:42Z</time>
      </trkpt>
      <trkpt lat="46.56184" lon="0.29503">
        <ele>124.5</ele>
        <time>2020-05-30T16:38:43Z</time>
      </trkpt>
      <trkpt lat="46.56182" lon="0.29488">
        <ele>124.5</ele>
        <time>2020-05-30T16:38:44Z</time>
      </trkpt>
      <trkpt lat="46.56181" lon="0.29474">
        <ele>124.5</ele>
        <time>2020-05-30T16:38:45Z</time>
      </trkpt>
      <trkpt lat="46.5618" lon="0.29459">
        <ele>124.5</ele>
        <time>2020-05-30T16:38:46Z</time>
      </trkpt>
      <trkpt lat="46.56179" lon="0.29444">
        <ele>124.5</ele>
        <time>2020-05-30T16:38:47Z</time>
      </trkpt>
      <trkpt lat="46.56177" lon="0.2943">
        <ele>124.5</ele>
        <time>2020-05-30T16:38:48Z</time>
      </trkpt>
      <trkpt lat="46.56176" lon="0.29415">
        <ele>124.4</ele>
        <time>2020-05-30T16:38:49Z</time>
      </trkpt>
      <trkpt lat="46.56176" lon="0.29401">
        <ele>124.4</ele>
        <time>2020-05-30T16:38:50Z</time>
      </trkpt>
      <trkpt lat="46.56175" lon="0.29386">
        <ele>124.4</ele>
        <time>2020-05-30T16:38:51Z</time>
      </trkpt>
      <trkpt lat="46.56175" lon="0.29372">
        <ele>124.4</ele>
        <time>2020-05-30T16:38:52Z</time>
      </trkpt>
      <trkpt lat="46.56175" lon="0.29358">
        <ele>124.4</ele>
        <time>2020-05-30T16:38:53Z</time>
      </trkpt>
      <trkpt lat="46.56175" lon="0.29344">
        <ele>124.5</ele>
        <time>2020-05-30T16:38:54Z</time>
      </trkpt>
      <trkpt lat="46.56174" lon="0.2933">
        <ele>124.6</ele>
        <time>2020-05-30T16:38:55Z</time>
      </trkpt>
      <trkpt lat="46.56173" lon="0.29316">
        <ele>124.8</ele>
        <time>2020-05-30T16:38:56Z</time>
      </trkpt>
      <trkpt lat="46.56174" lon="0.29302">
        <ele>125</ele>
        <time>2020-05-30T16:38:57Z</time>
      </trkpt>
      <trkpt lat="46.56174" lon="0.29289">
        <ele>125.3</ele>
        <time>2020-05-30T16:38:58Z</time>
      </trkpt>
      <trkpt lat="46.56173" lon="0.29275">
        <ele>125.5</ele>
        <time>2020-05-30T16:38:59Z</time>
      </trkpt>
      <trkpt lat="46.56173" lon="0.29262">
        <ele>125.8</ele>
        <time>2020-05-30T16:39:00Z</time>
      </trkpt>
      <trkpt lat="46.56172" lon="0.2925">
        <ele>126.1</ele>
        <time>2020-05-30T16:39:01Z</time>
      </trkpt>
      <trkpt lat="46.56172" lon="0.29238">
        <ele>126.3</ele>
        <time>2020-05-30T16:39:02Z</time>
      </trkpt>
      <trkpt lat="46.56172" lon="0.29226">
        <ele>126.5</ele>
        <time>2020-05-30T16:39:03Z</time>
      </trkpt>
      <trkpt lat="46.56173" lon="0.29215">
        <ele>126.7</ele>
        <time>2020-05-30T16:39:04Z</time>
      </trkpt>
      <trkpt lat="46.56174" lon="0.29204">
        <ele>127</ele>
        <time>2020-05-30T16:39:05Z</time>
      </trkpt>
      <trkpt lat="46.56174" lon="0.29194">
        <ele>127.3</ele>
        <time>2020-05-30T16:39:06Z</time>
      </trkpt>
      <trkpt lat="46.56172" lon="0.29183">
        <ele>127.7</ele>
        <time>2020-05-30T16:39:07Z</time>
      </trkpt>
      <trkpt lat="46.56171" lon="0.29173">
        <ele>128.2</ele>
        <time>2020-05-30T16:39:08Z</time>
      </trkpt>
      <trkpt lat="46.5617" lon="0.29163">
        <ele>128.6</ele>
        <time>2020-05-30T16:39:09Z</time>
      </trkpt>
      <trkpt lat="46.5617" lon="0.29153">
        <ele>129</ele>
        <time>2020-05-30T16:39:10Z</time>
      </trkpt>
      <trkpt lat="46.56169" lon="0.29144">
        <ele>129.4</ele>
        <time>2020-05-30T16:39:11Z</time>
      </trkpt>
      <trkpt lat="46.56168" lon="0.29135">
        <ele>129.8</ele>
        <time>2020-05-30T16:39:12Z</time>
      </trkpt>
      <trkpt lat="46.56168" lon="0.29126">
        <ele>129.9</ele>
        <time>2020-05-30T16:39:13Z</time>
      </trkpt>
      <trkpt lat="46.56167" lon="0.29117">
        <ele>130</ele>
        <time>2020-05-30T16:39:14Z</time>
      </trkpt>
      <trkpt lat="46.56166" lon="0.29108">
        <ele>130.2</ele>
        <time>2020-05-30T16:39:15Z</time>
      </trkpt>
      <trkpt lat="46.56166" lon="0.29099">
        <ele>130.3</ele>
        <time>2020-05-30T16:39:16Z</time>
      </trkpt>
      <trkpt lat="46.56165" lon="0.2909">
        <ele>130.5</ele>
        <time>2020-05-30T16:39:17Z</time>
      </trkpt>
      <trkpt lat="46.56164" lon="0.29081">
        <ele>130.7</ele>
        <time>2020-05-30T16:39:18Z</time>
      </trkpt>
      <trkpt lat="46.56164" lon="0.29073">
        <ele>130.9</ele>
        <time>2020-05-30T16:39:19Z</time>
      </trkpt>
      <trkpt lat="46.56162" lon="0.29064">
        <ele>131</ele>
        <time>2020-05-30T16:39:20Z</time>
      </trkpt>
      <trkpt lat="46.56161" lon="0.29056">
        <ele>131</ele>
        <time>2020-05-30T16:39:21Z</time>
      </trkpt>
      <trkpt lat="46.56158" lon="0.29048">
        <ele>131.1</ele>
        <time>2020-05-30T16:39:22Z</time>
      </trkpt>
      <trkpt lat="46.56157" lon="0.29039">
        <ele>131.2</ele>
        <time>2020-05-30T16:39:23Z</time>
      </trkpt>
      <trkpt lat="46.56156" lon="0.29031">
        <ele>131.2</ele>
        <time>2020-05-30T16:39:24Z</time>
      </trkpt>
      <trkpt lat="46.56155" lon="0.29022">
        <ele>131.3</ele>
        <time>2020-05-30T16:39:25Z</time>
      </trkpt>
      <trkpt lat="46.56154" lon="0.29014">
        <ele>131.3</ele>
        <time>2020-05-30T16:39:26Z</time>
      </trkpt>
      <trkpt lat="46.56153" lon="0.29005">
        <ele>131.3</ele>
        <time>2020-05-30T16:39:27Z</time>
      </trkpt>
      <trkpt lat="46.56153" lon="0.28996">
        <ele>131.3</ele>
        <time>2020-05-30T16:39:28Z</time>
      </trkpt>
      <trkpt lat="46.56151" lon="0.28988">
        <ele>131.3</ele>
        <time>2020-05-30T16:39:29Z</time>
      </trkpt>
      <trkpt lat="46.5615" lon="0.28979">
        <ele>131.3</ele>
        <time>2020-05-30T16:39:30Z</time>
      </trkpt>
      <trkpt lat="46.56149" lon="0.2897">
        <ele>131.3</ele>
        <time>2020-05-30T16:39:31Z</time>
      </trkpt>
      <trkpt lat="46.56149" lon="0.28962">
        <ele>131.2</ele>
        <time>2020-05-30T16:39:32Z</time>
      </trkpt>
      <trkpt lat="46.56148" lon="0.28953">
        <ele>131.2</ele>
        <time>2020-05-30T16:39:33Z</time>
      </trkpt>
      <trkpt lat="46.56147" lon="0.28944">
        <ele>131.2</ele>
        <time>2020-05-30T16:39:34Z</time>
      </trkpt>
      <trkpt lat="46.56144" lon="0.28935">
        <ele>131.2</ele>
        <time>2020-05-30T16:39:35Z</time>
      </trkpt>
      <trkpt lat="46.56142" lon="0.28926">
        <ele>131.1</ele>
        <time>2020-05-30T16:39:36Z</time>
      </trkpt>
      <trkpt lat="46.56141" lon="0.28917">
        <ele>131.1</ele>
        <time>2020-05-30T16:39:37Z</time>
      </trkpt>
      <trkpt lat="46.56141" lon="0.28909">
        <ele>131</ele>
        <time>2020-05-30T16:39:38Z</time>
      </trkpt>
      <trkpt lat="46.5614" lon="0.28901">
        <ele>131</ele>
        <time>2020-05-30T16:39:39Z</time>
      </trkpt>
      <trkpt lat="46.56138" lon="0.28894">
        <ele>131</ele>
        <time>2020-05-30T16:39:40Z</time>
      </trkpt>
      <trkpt lat="46.56138" lon="0.28887">
        <ele>130.9</ele>
        <time>2020-05-30T16:39:41Z</time>
      </trkpt>
      <trkpt lat="46.56137" lon="0.28881">
        <ele>130.9</ele>
        <time>2020-05-30T16:39:42Z</time>
      </trkpt>
      <trkpt lat="46.56139" lon="0.28875">
        <ele>130.9</ele>
        <time>2020-05-30T16:39:43Z</time>
      </trkpt>
      <trkpt lat="46.56139" lon="0.2887">
        <ele>130.9</ele>
        <time>2020-05-30T16:39:44Z</time>
      </trkpt>
      <trkpt lat="46.56137" lon="0.28865">
        <ele>130.9</ele>
        <time>2020-05-30T16:39:45Z</time>
      </trkpt>
      <trkpt lat="46.56136" lon="0.2886">
        <ele>130.8</ele>
        <time>2020-05-30T16:39:46Z</time>
      </trkpt>
      <trkpt lat="46.56135" lon="0.28855">
        <ele>130.8</ele>
        <time>2020-05-30T16:39:47Z</time>
      </trkpt>
      <trkpt lat="46.56134" lon="0.28849">
        <ele>130.8</ele>
        <time>2020-05-30T16:39:48Z</time>
      </trkpt>
      <trkpt lat="46.56134" lon="0.28842">
        <ele>130.7</ele>
        <time>2020-05-30T16:39:49Z</time>
      </trkpt>
      <trkpt lat="46.56133" lon="0.28834">
        <ele>130.7</ele>
        <time>2020-05-30T16:39:50Z</time>
      </trkpt>
      <trkpt lat="46.56132" lon="0.28827">
        <ele>130.7</ele>
        <time>2020-05-30T16:39:51Z</time>
      </trkpt>
      <trkpt lat="46.56132" lon="0.28819">
        <ele>130.6</ele>
        <time>2020-05-30T16:39:52Z</time>
      </trkpt>
      <trkpt lat="46.56129" lon="0.28811">
        <ele>130.6</ele>
        <time>2020-05-30T16:39:53Z</time>
      </trkpt>
      <trkpt lat="46.56128" lon="0.28803">
        <ele>130.6</ele>
        <time>2020-05-30T16:39:54Z</time>
      </trkpt>
      <trkpt lat="46.56126" lon="0.28794">
        <ele>130.5</ele>
        <time>2020-05-30T16:39:55Z</time>
      </trkpt>
      <trkpt lat="46.56125" lon="0.28785">
        <ele>130.5</ele>
        <time>2020-05-30T16:39:56Z</time>
      </trkpt>
      <trkpt lat="46.56124" lon="0.28776">
        <ele>130.5</ele>
        <time>2020-05-30T16:39:57Z</time>
      </trkpt>
      <trkpt lat="46.56122" lon="0.28767">
        <ele>130.4</ele>
        <time>2020-05-30T16:39:58Z</time>
      </trkpt>
      <trkpt lat="46.5612" lon="0.28758">
        <ele>130.4</ele>
        <time>2020-05-30T16:39:59Z</time>
      </trkpt>
      <trkpt lat="46.56119" lon="0.28749">
        <ele>130.4</ele>
        <time>2020-05-30T16:40:00Z</time>
      </trkpt>
      <trkpt lat="46.5612" lon="0.28739">
        <ele>130.3</ele>
        <time>2020-05-30T16:40:01Z</time>
      </trkpt>
      <trkpt lat="46.56119" lon="0.2873">
        <ele>130.3</ele>
        <time>2020-05-30T16:40:02Z</time>
      </trkpt>
      <trkpt lat="46.56118" lon="0.28721">
        <ele>130.2</ele>
        <time>2020-05-30T16:40:03Z</time>
      </trkpt>
      <trkpt lat="46.56116" lon="0.28711">
        <ele>130.2</ele>
        <time>2020-05-30T16:40:04Z</time>
      </trkpt>
      <trkpt lat="46.56114" lon="0.28702">
        <ele>130.2</ele>
        <time>2020-05-30T16:40:05Z</time>
      </trkpt>
      <trkpt lat="46.56114" lon="0.28692">
        <ele>130.1</ele>
        <time>2020-05-30T16:40:06Z</time>
      </trkpt>
      <trkpt lat="46.56113" lon="0.28683">
        <ele>130.1</ele>
        <time>2020-05-30T16:40:07Z</time>
      </trkpt>
      <trkpt lat="46.56111" lon="0.28673">
        <ele>130.1</ele>
        <time>2020-05-30T16:40:08Z</time>
      </trkpt>
      <trkpt lat="46.5611" lon="0.28664">
        <ele>130.1</ele>
        <time>2020-05-30T16:40:09Z</time>
      </trkpt>
      <trkpt lat="46.56109" lon="0.28655">
        <ele>130</ele>
        <time>2020-05-30T16:40:10Z</time>
      </trkpt>
      <trkpt lat="46.56108" lon="0.28646">
        <ele>130</ele>
        <time>2020-05-30T16:40:11Z</time>
      </trkpt>
      <trkpt lat="46.56107" lon="0.28637">
        <ele>130</ele>
        <time>2020-05-30T16:40:12Z</time>
      </trkpt>
      <trkpt lat="46.56106" lon="0.28628">
        <ele>129.9</ele>
        <time>2020-05-30T16:40:13Z</time>
      </trkpt>
      <trkpt lat="46.56104" lon="0.28619">
        <ele>129.9</ele>
        <time>2020-05-30T16:40:14Z</time>
      </trkpt>
      <trkpt lat="46.56103" lon="0.2861">
        <ele>129.9</ele>
        <time>2020-05-30T16:40:15Z</time>
      </trkpt>
      <trkpt lat="46.56101" lon="0.28601">
        <ele>129.9</ele>
        <time>2020-05-30T16:40:16Z</time>
      </trkpt>
      <trkpt lat="46.561" lon="0.28592">
        <ele>129.8</ele>
        <time>2020-05-30T16:40:17Z</time>
      </trkpt>
      <trkpt lat="46.56099" lon="0.28583">
        <ele>129.8</ele>
        <time>2020-05-30T16:40:18Z</time>
      </trkpt>
      <trkpt lat="46.56097" lon="0.28574">
        <ele>129.8</ele>
        <time>2020-05-30T16:40:19Z</time>
      </trkpt>
      <trkpt lat="46.56096" lon="0.28566">
        <ele>129.8</ele>
        <time>2020-05-30T16:40:20Z</time>
      </trkpt>
      <trkpt lat="46.56093" lon="0.28557">
        <ele>129.7</ele>
        <time>2020-05-30T16:40:21Z</time>
      </trkpt>
      <trkpt lat="46.56092" lon="0.28549">
        <ele>129.7</ele>
        <time>2020-05-30T16:40:22Z</time>
      </trkpt>
      <trkpt lat="46.5609" lon="0.2854">
        <ele>129.7</ele>
        <time>2020-05-30T16:40:23Z</time>
      </trkpt>
      <trkpt lat="46.56088" lon="0.28532">
        <ele>129.6</ele>
        <time>2020-05-30T16:40:24Z</time>
      </trkpt>
      <trkpt lat="46.56087" lon="0.28523">
        <ele>129.6</ele>
        <time>2020-05-30T16:40:25Z</time>
      </trkpt>
      <trkpt lat="46.56087" lon="0.28514">
        <ele>129.6</ele>
        <time>2020-05-30T16:40:26Z</time>
      </trkpt>
      <trkpt lat="46.56086" lon="0.28505">
        <ele>129.6</ele>
        <time>2020-05-30T16:40:27Z</time>
      </trkpt>
      <trkpt lat="46.56085" lon="0.28497">
        <ele>129.6</ele>
        <time>2020-05-30T16:40:28Z</time>
      </trkpt>
      <trkpt lat="46.56084" lon="0.28489">
        <ele>129.6</ele>
        <time>2020-05-30T16:40:29Z</time>
      </trkpt>
      <trkpt lat="46.56083" lon="0.28481">
        <ele>129.6</ele>
        <time>2020-05-30T16:40:30Z</time>
      </trkpt>
      <trkpt lat="46.56082" lon="0.28474">
        <ele>129.5</ele>
        <time>2020-05-30T16:40:31Z</time>
      </trkpt>
      <trkpt lat="46.56081" lon="0.28466">
        <ele>129.5</ele>
        <time>2020-05-30T16:40:32Z</time>
      </trkpt>
      <trkpt lat="46.56081" lon="0.28458">
        <ele>129.5</ele>
        <time>2020-05-30T16:40:33Z</time>
      </trkpt>
      <trkpt lat="46.56079" lon="0.28451">
        <ele>129.5</ele>
        <time>2020-05-30T16:40:34Z</time>
      </trkpt>
      <trkpt lat="46.56078" lon="0.28444">
        <ele>129.5</ele>
        <time>2020-05-30T16:40:35Z</time>
      </trkpt>
      <trkpt lat="46.56077" lon="0.28438">
        <ele>129.5</ele>
        <time>2020-05-30T16:40:36Z</time>
      </trkpt>
      <trkpt lat="46.56076" lon="0.28431">
        <ele>129.5</ele>
        <time>2020-05-30T16:40:37Z</time>
      </trkpt>
      <trkpt lat="46.56074" lon="0.28424">
        <ele>129.5</ele>
        <time>2020-05-30T16:40:38Z</time>
      </trkpt>
      <trkpt lat="46.56074" lon="0.28417">
        <ele>129.5</ele>
        <time>2020-05-30T16:40:39Z</time>
      </trkpt>
      <trkpt lat="46.56072" lon="0.2841">
        <ele>129.5</ele>
        <time>2020-05-30T16:40:40Z</time>
      </trkpt>
      <trkpt lat="46.56072" lon="0.28403">
        <ele>129.4</ele>
        <time>2020-05-30T16:40:41Z</time>
      </trkpt>
      <trkpt lat="46.56071" lon="0.28395">
        <ele>129.4</ele>
        <time>2020-05-30T16:40:42Z</time>
      </trkpt>
      <trkpt lat="46.5607" lon="0.28387">
        <ele>129.4</ele>
        <time>2020-05-30T16:40:43Z</time>
      </trkpt>
      <trkpt lat="46.56069" lon="0.28379">
        <ele>129.4</ele>
        <time>2020-05-30T16:40:44Z</time>
      </trkpt>
      <trkpt lat="46.56068" lon="0.28371">
        <ele>129.3</ele>
        <time>2020-05-30T16:40:45Z</time>
      </trkpt>
      <trkpt lat="46.56067" lon="0.28362">
        <ele>129.3</ele>
        <time>2020-05-30T16:40:46Z</time>
      </trkpt>
      <trkpt lat="46.56066" lon="0.28353">
        <ele>129.3</ele>
        <time>2020-05-30T16:40:47Z</time>
      </trkpt>
      <trkpt lat="46.56066" lon="0.28344">
        <ele>129.3</ele>
        <time>2020-05-30T16:40:48Z</time>
      </trkpt>
      <trkpt lat="46.56066" lon="0.28335">
        <ele>129.3</ele>
        <time>2020-05-30T16:40:49Z</time>
      </trkpt>
      <trkpt lat="46.56066" lon="0.28325">
        <ele>129.3</ele>
        <time>2020-05-30T16:40:50Z</time>
      </trkpt>
      <trkpt lat="46.56066" lon="0.28316">
        <ele>129.2</ele>
        <time>2020-05-30T16:40:51Z</time>
      </trkpt>
      <trkpt lat="46.56065" lon="0.28306">
        <ele>129.2</ele>
        <time>2020-05-30T16:40:52Z</time>
      </trkpt>
      <trkpt lat="46.56065" lon="0.28296">
        <ele>129.1</ele>
        <time>2020-05-30T16:40:53Z</time>
      </trkpt>
      <trkpt lat="46.56066" lon="0.28286">
        <ele>129.1</ele>
        <time>2020-05-30T16:40:54Z</time>
      </trkpt>
      <trkpt lat="46.56068" lon="0.28276">
        <ele>129</ele>
        <time>2020-05-30T16:40:55Z</time>
      </trkpt>
      <trkpt lat="46.56071" lon="0.28267">
        <ele>128.9</ele>
        <time>2020-05-30T16:40:56Z</time>
      </trkpt>
      <trkpt lat="46.56071" lon="0.28256">
        <ele>128.8</ele>
        <time>2020-05-30T16:40:57Z</time>
      </trkpt>
      <trkpt lat="46.56072" lon="0.28246">
        <ele>128.8</ele>
        <time>2020-05-30T16:40:58Z</time>
      </trkpt>
      <trkpt lat="46.56073" lon="0.28236">
        <ele>128.8</ele>
        <time>2020-05-30T16:40:59Z</time>
      </trkpt>
      <trkpt lat="46.56075" lon="0.28227">
        <ele>128.7</ele>
        <time>2020-05-30T16:41:00Z</time>
      </trkpt>
      <trkpt lat="46.56076" lon="0.28219">
        <ele>128.7</ele>
        <time>2020-05-30T16:41:01Z</time>
      </trkpt>
      <trkpt lat="46.56078" lon="0.28212">
        <ele>128.6</ele>
        <time>2020-05-30T16:41:02Z</time>
      </trkpt>
      <trkpt lat="46.56081" lon="0.28207">
        <ele>128.6</ele>
        <time>2020-05-30T16:41:03Z</time>
      </trkpt>
      <trkpt lat="46.56085" lon="0.28204">
        <ele>128.6</ele>
        <time>2020-05-30T16:41:04Z</time>
      </trkpt>
      <trkpt lat="46.56089" lon="0.28202">
        <ele>128.5</ele>
        <time>2020-05-30T16:41:05Z</time>
      </trkpt>
      <trkpt lat="46.56092" lon="0.28198">
        <ele>128.5</ele>
        <time>2020-05-30T16:41:06Z</time>
      </trkpt>
      <trkpt lat="46.56091" lon="0.28193">
        <ele>128.5</ele>
        <time>2020-05-30T16:41:07Z</time>
      </trkpt>
      <trkpt lat="46.5609" lon="0.28188">
        <ele>128.5</ele>
        <time>2020-05-30T16:41:08Z</time>
      </trkpt>
      <trkpt lat="46.56088" lon="0.28183">
        <ele>128.4</ele>
        <time>2020-05-30T16:41:09Z</time>
      </trkpt>
      <trkpt lat="46.56088" lon="0.28177">
        <ele>128.4</ele>
        <time>2020-05-30T16:41:10Z</time>
      </trkpt>
      <trkpt lat="46.56088" lon="0.28171">
        <ele>128.3</ele>
        <time>2020-05-30T16:41:11Z</time>
      </trkpt>
      <trkpt lat="46.56089" lon="0.28165">
        <ele>128.3</ele>
        <time>2020-05-30T16:41:12Z</time>
      </trkpt>
      <trkpt lat="46.5609" lon="0.28159">
        <ele>128.2</ele>
        <time>2020-05-30T16:41:13Z</time>
      </trkpt>
      <trkpt lat="46.56091" lon="0.28151">
        <ele>128.1</ele>
        <time>2020-05-30T16:41:14Z</time>
      </trkpt>
      <trkpt lat="46.56094" lon="0.28143">
        <ele>127.9</ele>
        <time>2020-05-30T16:41:15Z</time>
      </trkpt>
      <trkpt lat="46.56095" lon="0.28135">
        <ele>127.8</ele>
        <time>2020-05-30T16:41:16Z</time>
      </trkpt>
      <trkpt lat="46.56098" lon="0.28127">
        <ele>127.7</ele>
        <time>2020-05-30T16:41:17Z</time>
      </trkpt>
      <trkpt lat="46.56102" lon="0.2812">
        <ele>127.6</ele>
        <time>2020-05-30T16:41:18Z</time>
      </trkpt>
      <trkpt lat="46.56106" lon="0.28113">
        <ele>127.5</ele>
        <time>2020-05-30T16:41:19Z</time>
      </trkpt>
      <trkpt lat="46.56109" lon="0.28105">
        <ele>127.2</ele>
        <time>2020-05-30T16:41:20Z</time>
      </trkpt>
      <trkpt lat="46.56111" lon="0.28096">
        <ele>126.8</ele>
        <time>2020-05-30T16:41:21Z</time>
      </trkpt>
      <trkpt lat="46.56113" lon="0.28087">
        <ele>126.4</ele>
        <time>2020-05-30T16:41:22Z</time>
      </trkpt>
      <trkpt lat="46.56116" lon="0.28078">
        <ele>126</ele>
        <time>2020-05-30T16:41:23Z</time>
      </trkpt>
      <trkpt lat="46.56117" lon="0.28068">
        <ele>125.5</ele>
        <time>2020-05-30T16:41:24Z</time>
      </trkpt>
      <trkpt lat="46.56119" lon="0.2806">
        <ele>125.1</ele>
        <time>2020-05-30T16:41:25Z</time>
      </trkpt>
      <trkpt lat="46.56122" lon="0.28053">
        <ele>124.6</ele>
        <time>2020-05-30T16:41:26Z</time>
      </trkpt>
      <trkpt lat="46.56126" lon="0.28046">
        <ele>124.2</ele>
        <time>2020-05-30T16:41:27Z</time>
      </trkpt>
      <trkpt lat="46.56128" lon="0.28039">
        <ele>123.8</ele>
        <time>2020-05-30T16:41:28Z</time>
      </trkpt>
      <trkpt lat="46.56131" lon="0.28032">
        <ele>123.5</ele>
        <time>2020-05-30T16:41:29Z</time>
      </trkpt>
      <trkpt lat="46.56134" lon="0.28028">
        <ele>123.4</ele>
        <time>2020-05-30T16:41:30Z</time>
      </trkpt>
      <trkpt lat="46.56137" lon="0.28025">
        <ele>123.2</ele>
        <time>2020-05-30T16:41:31Z</time>
      </trkpt>
      <trkpt lat="46.56139" lon="0.28019">
        <ele>123</ele>
        <time>2020-05-30T16:41:32Z</time>
      </trkpt>
      <trkpt lat="46.56142" lon="0.28012">
        <ele>122.9</ele>
        <time>2020-05-30T16:41:33Z</time>
      </trkpt>
      <trkpt lat="46.56143" lon="0.28007">
        <ele>122.9</ele>
        <time>2020-05-30T16:41:34Z</time>
      </trkpt>
      <trkpt lat="46.56143" lon="0.28001">
        <ele>122.8</ele>
        <time>2020-05-30T16:41:35Z</time>
      </trkpt>
      <trkpt lat="46.56145" lon="0.27995">
        <ele>122.8</ele>
        <time>2020-05-30T16:41:36Z</time>
      </trkpt>
      <trkpt lat="46.56147" lon="0.27989">
        <ele>122.6</ele>
        <time>2020-05-30T16:41:37Z</time>
      </trkpt>
      <trkpt lat="46.56149" lon="0.27982">
        <ele>122.4</ele>
        <time>2020-05-30T16:41:38Z</time>
      </trkpt>
      <trkpt lat="46.56152" lon="0.27975">
        <ele>122.1</ele>
        <time>2020-05-30T16:41:39Z</time>
      </trkpt>
      <trkpt lat="46.56154" lon="0.27967">
        <ele>121.8</ele>
        <time>2020-05-30T16:41:40Z</time>
      </trkpt>
      <trkpt lat="46.56157" lon="0.27958">
        <ele>121.4</ele>
        <time>2020-05-30T16:41:41Z</time>
      </trkpt>
      <trkpt lat="46.5616" lon="0.2795">
        <ele>121</ele>
        <time>2020-05-30T16:41:42Z</time>
      </trkpt>
      <trkpt lat="46.56163" lon="0.27941">
        <ele>120.5</ele>
        <time>2020-05-30T16:41:43Z</time>
      </trkpt>
      <trkpt lat="46.56166" lon="0.27932">
        <ele>120</ele>
        <time>2020-05-30T16:41:44Z</time>
      </trkpt>
      <trkpt lat="46.56164" lon="0.2792">
        <ele>119.5</ele>
        <time>2020-05-30T16:41:45Z</time>
      </trkpt>
      <trkpt lat="46.56167" lon="0.2791">
        <ele>119</ele>
        <time>2020-05-30T16:41:46Z</time>
      </trkpt>
      <trkpt lat="46.56169" lon="0.279">
        <ele>118.6</ele>
        <time>2020-05-30T16:41:47Z</time>
      </trkpt>
      <trkpt lat="46.5617" lon="0.27888">
        <ele>118.1</ele>
        <time>2020-05-30T16:41:48Z</time>
      </trkpt>
      <trkpt lat="46.56172" lon="0.27876">
        <ele>117.7</ele>
        <time>2020-05-30T16:41:49Z</time>
      </trkpt>
      <trkpt lat="46.56174" lon="0.27865">
        <ele>117.2</ele>
        <time>2020-05-30T16:41:50Z</time>
      </trkpt>
      <trkpt lat="46.56176" lon="0.27853">
        <ele>116.7</ele>
        <time>2020-05-30T16:41:51Z</time>
      </trkpt>
      <trkpt lat="46.56179" lon="0.27841">
        <ele>116.2</ele>
        <time>2020-05-30T16:41:52Z</time>
      </trkpt>
      <trkpt lat="46.5618" lon="0.27827">
        <ele>115.7</ele>
        <time>2020-05-30T16:41:53Z</time>
      </trkpt>
      <trkpt lat="46.56181" lon="0.27814">
        <ele>115.3</ele>
        <time>2020-05-30T16:41:54Z</time>
      </trkpt>
      <trkpt lat="46.56183" lon="0.278">
        <ele>114.9</ele>
        <time>2020-05-30T16:41:55Z</time>
      </trkpt>
      <trkpt lat="46.56185" lon="0.27786">
        <ele>114.6</ele>
        <time>2020-05-30T16:41:56Z</time>
      </trkpt>
      <trkpt lat="46.56187" lon="0.27771">
        <ele>114.3</ele>
        <time>2020-05-30T16:41:57Z</time>
      </trkpt>
      <trkpt lat="46.56188" lon="0.27756">
        <ele>114.1</ele>
        <time>2020-05-30T16:41:58Z</time>
      </trkpt>
      <trkpt lat="46.5619" lon="0.27742">
        <ele>114.1</ele>
        <time>2020-05-30T16:41:59Z</time>
      </trkpt>
      <trkpt lat="46.56195" lon="0.2773">
        <ele>114.1</ele>
        <time>2020-05-30T16:42:00Z</time>
      </trkpt>
      <trkpt lat="46.56199" lon="0.27718">
        <ele>114.1</ele>
        <time>2020-05-30T16:42:01Z</time>
      </trkpt>
      <trkpt lat="46.56201" lon="0.27705">
        <ele>114.2</ele>
        <time>2020-05-30T16:42:02Z</time>
      </trkpt>
      <trkpt lat="46.56205" lon="0.27694">
        <ele>114.3</ele>
        <time>2020-05-30T16:42:03Z</time>
      </trkpt>
      <trkpt lat="46.56209" lon="0.27682">
        <ele>114.5</ele>
        <time>2020-05-30T16:42:04Z</time>
      </trkpt>
      <trkpt lat="46.56212" lon="0.27671">
        <ele>114.8</ele>
        <time>2020-05-30T16:42:05Z</time>
      </trkpt>
      <trkpt lat="46.56216" lon="0.2766">
        <ele>115.1</ele>
        <time>2020-05-30T16:42:06Z</time>
      </trkpt>
      <trkpt lat="46.56221" lon="0.2765">
        <ele>115.5</ele>
        <time>2020-05-30T16:42:07Z</time>
      </trkpt>
      <trkpt lat="46.56224" lon="0.2764">
        <ele>115.9</ele>
        <time>2020-05-30T16:42:08Z</time>
      </trkpt>
      <trkpt lat="46.56226" lon="0.2763">
        <ele>116.3</ele>
        <time>2020-05-30T16:42:09Z</time>
      </trkpt>
      <trkpt lat="46.56229" lon="0.27621">
        <ele>116.7</ele>
        <time>2020-05-30T16:42:10Z</time>
      </trkpt>
      <trkpt lat="46.56232" lon="0.27612">
        <ele>117.2</ele>
        <time>2020-05-30T16:42:11Z</time>
      </trkpt>
      <trkpt lat="46.56234" lon="0.27604">
        <ele>117.6</ele>
        <time>2020-05-30T16:42:12Z</time>
      </trkpt>
      <trkpt lat="46.56237" lon="0.27596">
        <ele>118.1</ele>
        <time>2020-05-30T16:42:13Z</time>
      </trkpt>
      <trkpt lat="46.56239" lon="0.27588">
        <ele>118.5</ele>
        <time>2020-05-30T16:42:14Z</time>
      </trkpt>
      <trkpt lat="46.56241" lon="0.2758">
        <ele>118.9</ele>
        <time>2020-05-30T16:42:15Z</time>
      </trkpt>
      <trkpt lat="46.56243" lon="0.27573">
        <ele>119.3</ele>
        <time>2020-05-30T16:42:16Z</time>
      </trkpt>
      <trkpt lat="46.56245" lon="0.27566">
        <ele>119.7</ele>
        <time>2020-05-30T16:42:17Z</time>
      </trkpt>
      <trkpt lat="46.56245" lon="0.27559">
        <ele>120</ele>
        <time>2020-05-30T16:42:18Z</time>
      </trkpt>
      <trkpt lat="46.56246" lon="0.27552">
        <ele>120.4</ele>
        <time>2020-05-30T16:42:19Z</time>
      </trkpt>
      <trkpt lat="46.56247" lon="0.27546">
        <ele>120.7</ele>
        <time>2020-05-30T16:42:20Z</time>
      </trkpt>
      <trkpt lat="46.56247" lon="0.27539">
        <ele>121</ele>
        <time>2020-05-30T16:42:21Z</time>
      </trkpt>
      <trkpt lat="46.56247" lon="0.27533">
        <ele>121.3</ele>
        <time>2020-05-30T16:42:22Z</time>
      </trkpt>
      <trkpt lat="46.56249" lon="0.27527">
        <ele>121.6</ele>
        <time>2020-05-30T16:42:23Z</time>
      </trkpt>
      <trkpt lat="46.5625" lon="0.27521">
        <ele>121.9</ele>
        <time>2020-05-30T16:42:24Z</time>
      </trkpt>
      <trkpt lat="46.56251" lon="0.27515">
        <ele>122.2</ele>
        <time>2020-05-30T16:42:25Z</time>
      </trkpt>
      <trkpt lat="46.56251" lon="0.27509">
        <ele>122.5</ele>
        <time>2020-05-30T16:42:26Z</time>
      </trkpt>
      <trkpt lat="46.56251" lon="0.27504">
        <ele>122.7</ele>
        <time>2020-05-30T16:42:27Z</time>
      </trkpt>
      <trkpt lat="46.56251" lon="0.27498">
        <ele>123</ele>
        <time>2020-05-30T16:42:28Z</time>
      </trkpt>
      <trkpt lat="46.56251" lon="0.27492">
        <ele>123.2</ele>
        <time>2020-05-30T16:42:29Z</time>
      </trkpt>
      <trkpt lat="46.56251" lon="0.27486">
        <ele>123.4</ele>
        <time>2020-05-30T16:42:30Z</time>
      </trkpt>
      <trkpt lat="46.56251" lon="0.2748">
        <ele>123.5</ele>
        <time>2020-05-30T16:42:31Z</time>
      </trkpt>
      <trkpt lat="46.56251" lon="0.27471">
        <ele>123.7</ele>
        <time>2020-05-30T16:42:32Z</time>
      </trkpt>
      <trkpt lat="46.56251" lon="0.27467">
        <ele>123.8</ele>
        <time>2020-05-30T16:42:33Z</time>
      </trkpt>
      <trkpt lat="46.56251" lon="0.2746">
        <ele>123.8</ele>
        <time>2020-05-30T16:42:34Z</time>
      </trkpt>
      <trkpt lat="46.5625" lon="0.27457">
        <ele>123.8</ele>
        <time>2020-05-30T16:42:35Z</time>
      </trkpt>
      <trkpt lat="46.56252" lon="0.27452">
        <ele>123.9</ele>
        <time>2020-05-30T16:42:36Z</time>
      </trkpt>
      <trkpt lat="46.56252" lon="0.27446">
        <ele>124.1</ele>
        <time>2020-05-30T16:42:37Z</time>
      </trkpt>
      <trkpt lat="46.56252" lon="0.2744">
        <ele>124.3</ele>
        <time>2020-05-30T16:42:38Z</time>
      </trkpt>
      <trkpt lat="46.56252" lon="0.27435">
        <ele>124.5</ele>
        <time>2020-05-30T16:42:39Z</time>
      </trkpt>
      <trkpt lat="46.56251" lon="0.27429">
        <ele>124.8</ele>
        <time>2020-05-30T16:42:40Z</time>
      </trkpt>
      <trkpt lat="46.56251" lon="0.27426">
        <ele>124.9</ele>
        <time>2020-05-30T16:42:41Z</time>
      </trkpt>
      <trkpt lat="46.56252" lon="0.27423">
        <ele>125.1</ele>
        <time>2020-05-30T16:42:42Z</time>
      </trkpt>
      <trkpt lat="46.56252" lon="0.27418">
        <ele>125.3</ele>
        <time>2020-05-30T16:42:43Z</time>
      </trkpt>
      <trkpt lat="46.56252" lon="0.27412">
        <ele>125.5</ele>
        <time>2020-05-30T16:42:44Z</time>
      </trkpt>
      <trkpt lat="46.56252" lon="0.27407">
        <ele>125.8</ele>
        <time>2020-05-30T16:42:45Z</time>
      </trkpt>
      <trkpt lat="46.56252" lon="0.27402">
        <ele>126</ele>
        <time>2020-05-30T16:42:46Z</time>
      </trkpt>
      <trkpt lat="46.56252" lon="0.27397">
        <ele>126.2</ele>
        <time>2020-05-30T16:42:47Z</time>
      </trkpt>
      <trkpt lat="46.56252" lon="0.27392">
        <ele>126.4</ele>
        <time>2020-05-30T16:42:48Z</time>
      </trkpt>
      <trkpt lat="46.56252" lon="0.27385">
        <ele>126.7</ele>
        <time>2020-05-30T16:42:49Z</time>
      </trkpt>
      <trkpt lat="46.56251" lon="0.27381">
        <ele>126.9</ele>
        <time>2020-05-30T16:42:50Z</time>
      </trkpt>
      <trkpt lat="46.56252" lon="0.27374">
        <ele>127.2</ele>
        <time>2020-05-30T16:42:51Z</time>
      </trkpt>
      <trkpt lat="46.56253" lon="0.27368">
        <ele>127.4</ele>
        <time>2020-05-30T16:42:52Z</time>
      </trkpt>
      <trkpt lat="46.56252" lon="0.27361">
        <ele>127.7</ele>
        <time>2020-05-30T16:42:53Z</time>
      </trkpt>
      <trkpt lat="46.56252" lon="0.27354">
        <ele>128</ele>
        <time>2020-05-30T16:42:54Z</time>
      </trkpt>
      <trkpt lat="46.56252" lon="0.27349">
        <ele>128.1</ele>
        <time>2020-05-30T16:42:55Z</time>
      </trkpt>
      <trkpt lat="46.56252" lon="0.27342">
        <ele>128.4</ele>
        <time>2020-05-30T16:42:56Z</time>
      </trkpt>
      <trkpt lat="46.56251" lon="0.27338">
        <ele>128.5</ele>
        <time>2020-05-30T16:42:57Z</time>
      </trkpt>
      <trkpt lat="46.56251" lon="0.27332">
        <ele>128.7</ele>
        <time>2020-05-30T16:42:58Z</time>
      </trkpt>
      <trkpt lat="46.56251" lon="0.27325">
        <ele>128.9</ele>
        <time>2020-05-30T16:42:59Z</time>
      </trkpt>
      <trkpt lat="46.56251" lon="0.27318">
        <ele>129.1</ele>
        <time>2020-05-30T16:43:00Z</time>
      </trkpt>
      <trkpt lat="46.56251" lon="0.27312">
        <ele>129.3</ele>
        <time>2020-05-30T16:43:01Z</time>
      </trkpt>
      <trkpt lat="46.56251" lon="0.27306">
        <ele>129.5</ele>
        <time>2020-05-30T16:43:02Z</time>
      </trkpt>
      <trkpt lat="46.56251" lon="0.27299">
        <ele>129.6</ele>
        <time>2020-05-30T16:43:03Z</time>
      </trkpt>
      <trkpt lat="46.56251" lon="0.27293">
        <ele>129.7</ele>
        <time>2020-05-30T16:43:04Z</time>
      </trkpt>
      <trkpt lat="46.56251" lon="0.27285">
        <ele>129.9</ele>
        <time>2020-05-30T16:43:05Z</time>
      </trkpt>
      <trkpt lat="46.5625" lon="0.2728">
        <ele>129.9</ele>
        <time>2020-05-30T16:43:06Z</time>
      </trkpt>
      <trkpt lat="46.5625" lon="0.27273">
        <ele>129.9</ele>
        <time>2020-05-30T16:43:07Z</time>
      </trkpt>
      <trkpt lat="46.5625" lon="0.27267">
        <ele>130</ele>
        <time>2020-05-30T16:43:08Z</time>
      </trkpt>
      <trkpt lat="46.5625" lon="0.27262">
        <ele>130</ele>
        <time>2020-05-30T16:43:09Z</time>
      </trkpt>
      <trkpt lat="46.5625" lon="0.27256">
        <ele>130</ele>
        <time>2020-05-30T16:43:10Z</time>
      </trkpt>
      <trkpt lat="46.56251" lon="0.27247">
        <ele>130.1</ele>
        <time>2020-05-30T16:43:11Z</time>
      </trkpt>
      <trkpt lat="46.5625" lon="0.27243">
        <ele>130.1</ele>
        <time>2020-05-30T16:43:12Z</time>
      </trkpt>
      <trkpt lat="46.5625" lon="0.27236">
        <ele>130.1</ele>
        <time>2020-05-30T16:43:13Z</time>
      </trkpt>
      <trkpt lat="46.56251" lon="0.27231">
        <ele>130.1</ele>
        <time>2020-05-30T16:43:14Z</time>
      </trkpt>
      <trkpt lat="46.5625" lon="0.27221">
        <ele>130.2</ele>
        <time>2020-05-30T16:43:15Z</time>
      </trkpt>
      <trkpt lat="46.56249" lon="0.27216">
        <ele>130.2</ele>
        <time>2020-05-30T16:43:16Z</time>
      </trkpt>
      <trkpt lat="46.56249" lon="0.27211">
        <ele>130.3</ele>
        <time>2020-05-30T16:43:17Z</time>
      </trkpt>
      <trkpt lat="46.56249" lon="0.272">
        <ele>130.3</ele>
        <time>2020-05-30T16:43:18Z</time>
      </trkpt>
      <trkpt lat="46.56249" lon="0.27195">
        <ele>130.3</ele>
        <time>2020-05-30T16:43:19Z</time>
      </trkpt>
      <trkpt lat="46.5625" lon="0.27188">
        <ele>130.3</ele>
        <time>2020-05-30T16:43:20Z</time>
      </trkpt>
      <trkpt lat="46.5625" lon="0.27179">
        <ele>130.3</ele>
        <time>2020-05-30T16:43:21Z</time>
      </trkpt>
      <trkpt lat="46.5625" lon="0.27174">
        <ele>130.3</ele>
        <time>2020-05-30T16:43:22Z</time>
      </trkpt>
      <trkpt lat="46.5625" lon="0.27165">
        <ele>130.4</ele>
        <time>2020-05-30T16:43:23Z</time>
      </trkpt>
      <trkpt lat="46.5625" lon="0.27157">
        <ele>130.4</ele>
        <time>2020-05-30T16:43:24Z</time>
      </trkpt>
      <trkpt lat="46.56251" lon="0.27148">
        <ele>130.4</ele>
        <time>2020-05-30T16:43:25Z</time>
      </trkpt>
      <trkpt lat="46.5625" lon="0.27142">
        <ele>130.4</ele>
        <time>2020-05-30T16:43:26Z</time>
      </trkpt>
      <trkpt lat="46.5625" lon="0.27134">
        <ele>130.4</ele>
        <time>2020-05-30T16:43:27Z</time>
      </trkpt>
      <trkpt lat="46.56249" lon="0.27127">
        <ele>130.4</ele>
        <time>2020-05-30T16:43:28Z</time>
      </trkpt>
      <trkpt lat="46.56249" lon="0.2712">
        <ele>130.4</ele>
        <time>2020-05-30T16:43:29Z</time>
      </trkpt>
      <trkpt lat="46.56249" lon="0.2711">
        <ele>130.4</ele>
        <time>2020-05-30T16:43:30Z</time>
      </trkpt>
      <trkpt lat="46.56248" lon="0.27104">
        <ele>130.4</ele>
        <time>2020-05-30T16:43:31Z</time>
      </trkpt>
      <trkpt lat="46.56247" lon="0.27095">
        <ele>130.4</ele>
        <time>2020-05-30T16:43:32Z</time>
      </trkpt>
      <trkpt lat="46.56245" lon="0.27085">
        <ele>130.5</ele>
        <time>2020-05-30T16:43:33Z</time>
      </trkpt>
      <trkpt lat="46.56244" lon="0.27076">
        <ele>130.5</ele>
        <time>2020-05-30T16:43:34Z</time>
      </trkpt>
      <trkpt lat="46.56243" lon="0.27066">
        <ele>130.5</ele>
        <time>2020-05-30T16:43:35Z</time>
      </trkpt>
      <trkpt lat="46.5624" lon="0.27057">
        <ele>130.5</ele>
        <time>2020-05-30T16:43:36Z</time>
      </trkpt>
      <trkpt lat="46.56237" lon="0.27047">
        <ele>130.5</ele>
        <time>2020-05-30T16:43:37Z</time>
      </trkpt>
      <trkpt lat="46.56234" lon="0.27036">
        <ele>130.4</ele>
        <time>2020-05-30T16:43:38Z</time>
      </trkpt>
      <trkpt lat="46.56231" lon="0.27026">
        <ele>130.4</ele>
        <time>2020-05-30T16:43:39Z</time>
      </trkpt>
      <trkpt lat="46.56228" lon="0.27016">
        <ele>130.3</ele>
        <time>2020-05-30T16:43:40Z</time>
      </trkpt>
      <trkpt lat="46.56224" lon="0.27006">
        <ele>130.2</ele>
        <time>2020-05-30T16:43:41Z</time>
      </trkpt>
      <trkpt lat="46.56221" lon="0.26996">
        <ele>130.1</ele>
        <time>2020-05-30T16:43:42Z</time>
      </trkpt>
      <trkpt lat="46.56217" lon="0.26986">
        <ele>130</ele>
        <time>2020-05-30T16:43:43Z</time>
      </trkpt>
      <trkpt lat="46.56212" lon="0.26977">
        <ele>130</ele>
        <time>2020-05-30T16:43:44Z</time>
      </trkpt>
      <trkpt lat="46.56208" lon="0.26967">
        <ele>129.9</ele>
        <time>2020-05-30T16:43:45Z</time>
      </trkpt>
      <trkpt lat="46.56203" lon="0.26958">
        <ele>129.9</ele>
        <time>2020-05-30T16:43:46Z</time>
      </trkpt>
      <trkpt lat="46.56198" lon="0.26949">
        <ele>129.9</ele>
        <time>2020-05-30T16:43:47Z</time>
      </trkpt>
      <trkpt lat="46.56192" lon="0.2694">
        <ele>130</ele>
        <time>2020-05-30T16:43:48Z</time>
      </trkpt>
      <trkpt lat="46.56187" lon="0.26931">
        <ele>130</ele>
        <time>2020-05-30T16:43:49Z</time>
      </trkpt>
      <trkpt lat="46.56182" lon="0.26922">
        <ele>130.1</ele>
        <time>2020-05-30T16:43:50Z</time>
      </trkpt>
      <trkpt lat="46.56176" lon="0.26914">
        <ele>130.2</ele>
        <time>2020-05-30T16:43:51Z</time>
      </trkpt>
      <trkpt lat="46.56171" lon="0.26905">
        <ele>130.3</ele>
        <time>2020-05-30T16:43:52Z</time>
      </trkpt>
      <trkpt lat="46.56166" lon="0.26897">
        <ele>130.4</ele>
        <time>2020-05-30T16:43:53Z</time>
      </trkpt>
      <trkpt lat="46.5616" lon="0.26888">
        <ele>130.5</ele>
        <time>2020-05-30T16:43:54Z</time>
      </trkpt>
      <trkpt lat="46.56154" lon="0.26881">
        <ele>130.7</ele>
        <time>2020-05-30T16:43:55Z</time>
      </trkpt>
      <trkpt lat="46.56149" lon="0.26873">
        <ele>130.9</ele>
        <time>2020-05-30T16:43:56Z</time>
      </trkpt>
      <trkpt lat="46.56144" lon="0.26865">
        <ele>131.1</ele>
        <time>2020-05-30T16:43:57Z</time>
      </trkpt>
      <trkpt lat="46.56139" lon="0.26858">
        <ele>131.3</ele>
        <time>2020-05-30T16:43:58Z</time>
      </trkpt>
      <trkpt lat="46.56134" lon="0.26851">
        <ele>131.5</ele>
        <time>2020-05-30T16:43:59Z</time>
      </trkpt>
      <trkpt lat="46.5613" lon="0.26843">
        <ele>131.8</ele>
        <time>2020-05-30T16:44:00Z</time>
      </trkpt>
      <trkpt lat="46.56125" lon="0.26836">
        <ele>132.1</ele>
        <time>2020-05-30T16:44:01Z</time>
      </trkpt>
      <trkpt lat="46.5612" lon="0.26828">
        <ele>132.3</ele>
        <time>2020-05-30T16:44:02Z</time>
      </trkpt>
      <trkpt lat="46.56116" lon="0.26821">
        <ele>132.5</ele>
        <time>2020-05-30T16:44:03Z</time>
      </trkpt>
      <trkpt lat="46.56112" lon="0.26814">
        <ele>132.7</ele>
        <time>2020-05-30T16:44:04Z</time>
      </trkpt>
      <trkpt lat="46.56108" lon="0.26807">
        <ele>132.9</ele>
        <time>2020-05-30T16:44:05Z</time>
      </trkpt>
      <trkpt lat="46.56104" lon="0.268">
        <ele>133.1</ele>
        <time>2020-05-30T16:44:06Z</time>
      </trkpt>
      <trkpt lat="46.56101" lon="0.26792">
        <ele>133.3</ele>
        <time>2020-05-30T16:44:07Z</time>
      </trkpt>
      <trkpt lat="46.56098" lon="0.26785">
        <ele>133.4</ele>
        <time>2020-05-30T16:44:08Z</time>
      </trkpt>
      <trkpt lat="46.56095" lon="0.26778">
        <ele>133.6</ele>
        <time>2020-05-30T16:44:09Z</time>
      </trkpt>
      <trkpt lat="46.56092" lon="0.2677">
        <ele>133.7</ele>
        <time>2020-05-30T16:44:10Z</time>
      </trkpt>
      <trkpt lat="46.56089" lon="0.26763">
        <ele>133.8</ele>
        <time>2020-05-30T16:44:11Z</time>
      </trkpt>
      <trkpt lat="46.56086" lon="0.26756">
        <ele>133.9</ele>
        <time>2020-05-30T16:44:12Z</time>
      </trkpt>
      <trkpt lat="46.56084" lon="0.26748">
        <ele>134</ele>
        <time>2020-05-30T16:44:13Z</time>
      </trkpt>
      <trkpt lat="46.56081" lon="0.26741">
        <ele>134.1</ele>
        <time>2020-05-30T16:44:14Z</time>
      </trkpt>
      <trkpt lat="46.56078" lon="0.26733">
        <ele>134.1</ele>
        <time>2020-05-30T16:44:15Z</time>
      </trkpt>
      <trkpt lat="46.56075" lon="0.26726">
        <ele>134.2</ele>
        <time>2020-05-30T16:44:16Z</time>
      </trkpt>
      <trkpt lat="46.56072" lon="0.26719">
        <ele>134.3</ele>
        <time>2020-05-30T16:44:17Z</time>
      </trkpt>
      <trkpt lat="46.56069" lon="0.26711">
        <ele>134.3</ele>
        <time>2020-05-30T16:44:18Z</time>
      </trkpt>
      <trkpt lat="46.56067" lon="0.26704">
        <ele>134.3</ele>
        <time>2020-05-30T16:44:19Z</time>
      </trkpt>
      <trkpt lat="46.56065" lon="0.26696">
        <ele>134.3</ele>
        <time>2020-05-30T16:44:20Z</time>
      </trkpt>
      <trkpt lat="46.56063" lon="0.26688">
        <ele>134.3</ele>
        <time>2020-05-30T16:44:21Z</time>
      </trkpt>
      <trkpt lat="46.56061" lon="0.26681">
        <ele>134.3</ele>
        <time>2020-05-30T16:44:22Z</time>
      </trkpt>
      <trkpt lat="46.56057" lon="0.26674">
        <ele>134.3</ele>
        <time>2020-05-30T16:44:23Z</time>
      </trkpt>
      <trkpt lat="46.56054" lon="0.26667">
        <ele>134.2</ele>
        <time>2020-05-30T16:44:24Z</time>
      </trkpt>
      <trkpt lat="46.56051" lon="0.2666">
        <ele>134.2</ele>
        <time>2020-05-30T16:44:25Z</time>
      </trkpt>
      <trkpt lat="46.56048" lon="0.26653">
        <ele>134.2</ele>
        <time>2020-05-30T16:44:26Z</time>
      </trkpt>
      <trkpt lat="46.56045" lon="0.26645">
        <ele>134.2</ele>
        <time>2020-05-30T16:44:27Z</time>
      </trkpt>
      <trkpt lat="46.56042" lon="0.26636">
        <ele>134.2</ele>
        <time>2020-05-30T16:44:28Z</time>
      </trkpt>
      <trkpt lat="46.56038" lon="0.26628">
        <ele>134.2</ele>
        <time>2020-05-30T16:44:29Z</time>
      </trkpt>
      <trkpt lat="46.56035" lon="0.2662">
        <ele>134.1</ele>
        <time>2020-05-30T16:44:30Z</time>
      </trkpt>
      <trkpt lat="46.56031" lon="0.26612">
        <ele>134.1</ele>
        <time>2020-05-30T16:44:31Z</time>
      </trkpt>
      <trkpt lat="46.56028" lon="0.26605">
        <ele>134.1</ele>
        <time>2020-05-30T16:44:32Z</time>
      </trkpt>
      <trkpt lat="46.56025" lon="0.26598">
        <ele>134.1</ele>
        <time>2020-05-30T16:44:33Z</time>
      </trkpt>
      <trkpt lat="46.56023" lon="0.26589">
        <ele>134.1</ele>
        <time>2020-05-30T16:44:34Z</time>
      </trkpt>
      <trkpt lat="46.5602" lon="0.26582">
        <ele>134.1</ele>
        <time>2020-05-30T16:44:35Z</time>
      </trkpt>
      <trkpt lat="46.56017" lon="0.26574">
        <ele>134.1</ele>
        <time>2020-05-30T16:44:36Z</time>
      </trkpt>
      <trkpt lat="46.56015" lon="0.26566">
        <ele>134.1</ele>
        <time>2020-05-30T16:44:37Z</time>
      </trkpt>
      <trkpt lat="46.56012" lon="0.26559">
        <ele>134</ele>
        <time>2020-05-30T16:44:38Z</time>
      </trkpt>
      <trkpt lat="46.5601" lon="0.26551">
        <ele>134</ele>
        <time>2020-05-30T16:44:39Z</time>
      </trkpt>
      <trkpt lat="46.56006" lon="0.26545">
        <ele>134</ele>
        <time>2020-05-30T16:44:40Z</time>
      </trkpt>
      <trkpt lat="46.56003" lon="0.26538">
        <ele>134</ele>
        <time>2020-05-30T16:44:41Z</time>
      </trkpt>
      <trkpt lat="46.56001" lon="0.2653">
        <ele>134</ele>
        <time>2020-05-30T16:44:42Z</time>
      </trkpt>
      <trkpt lat="46.55998" lon="0.26523">
        <ele>134</ele>
        <time>2020-05-30T16:44:43Z</time>
      </trkpt>
      <trkpt lat="46.55995" lon="0.26516">
        <ele>134</ele>
        <time>2020-05-30T16:44:44Z</time>
      </trkpt>
      <trkpt lat="46.55993" lon="0.26508">
        <ele>134</ele>
        <time>2020-05-30T16:44:45Z</time>
      </trkpt>
      <trkpt lat="46.55991" lon="0.26499">
        <ele>134</ele>
        <time>2020-05-30T16:44:46Z</time>
      </trkpt>
      <trkpt lat="46.55986" lon="0.26493">
        <ele>133.9</ele>
        <time>2020-05-30T16:44:47Z</time>
      </trkpt>
      <trkpt lat="46.55983" lon="0.26486">
        <ele>133.9</ele>
        <time>2020-05-30T16:44:48Z</time>
      </trkpt>
      <trkpt lat="46.5598" lon="0.26478">
        <ele>133.9</ele>
        <time>2020-05-30T16:44:49Z</time>
      </trkpt>
      <trkpt lat="46.55978" lon="0.2647">
        <ele>133.9</ele>
        <time>2020-05-30T16:44:50Z</time>
      </trkpt>
      <trkpt lat="46.55974" lon="0.26463">
        <ele>133.9</ele>
        <time>2020-05-30T16:44:51Z</time>
      </trkpt>
      <trkpt lat="46.55972" lon="0.26455">
        <ele>133.8</ele>
        <time>2020-05-30T16:44:52Z</time>
      </trkpt>
      <trkpt lat="46.55969" lon="0.26448">
        <ele>133.8</ele>
        <time>2020-05-30T16:44:53Z</time>
      </trkpt>
      <trkpt lat="46.55966" lon="0.2644">
        <ele>133.8</ele>
        <time>2020-05-30T16:44:54Z</time>
      </trkpt>
      <trkpt lat="46.55963" lon="0.26433">
        <ele>133.8</ele>
        <time>2020-05-30T16:44:55Z</time>
      </trkpt>
      <trkpt lat="46.5596" lon="0.26427">
        <ele>133.8</ele>
        <time>2020-05-30T16:44:56Z</time>
      </trkpt>
      <trkpt lat="46.55957" lon="0.2642">
        <ele>133.8</ele>
        <time>2020-05-30T16:44:57Z</time>
      </trkpt>
      <trkpt lat="46.55954" lon="0.26412">
        <ele>133.8</ele>
        <time>2020-05-30T16:44:58Z</time>
      </trkpt>
      <trkpt lat="46.55952" lon="0.26404">
        <ele>133.7</ele>
        <time>2020-05-30T16:44:59Z</time>
      </trkpt>
      <trkpt lat="46.55949" lon="0.26397">
        <ele>133.7</ele>
        <time>2020-05-30T16:45:00Z</time>
      </trkpt>
      <trkpt lat="46.55945" lon="0.2639">
        <ele>133.7</ele>
        <time>2020-05-30T16:45:01Z</time>
      </trkpt>
      <trkpt lat="46.55942" lon="0.26382">
        <ele>133.7</ele>
        <time>2020-05-30T16:45:02Z</time>
      </trkpt>
      <trkpt lat="46.55939" lon="0.26374">
        <ele>133.7</ele>
        <time>2020-05-30T16:45:03Z</time>
      </trkpt>
      <trkpt lat="46.55936" lon="0.26367">
        <ele>133.7</ele>
        <time>2020-05-30T16:45:04Z</time>
      </trkpt>
      <trkpt lat="46.55933" lon="0.2636">
        <ele>133.7</ele>
        <time>2020-05-30T16:45:05Z</time>
      </trkpt>
      <trkpt lat="46.5593" lon="0.26352">
        <ele>133.7</ele>
        <time>2020-05-30T16:45:06Z</time>
      </trkpt>
      <trkpt lat="46.55926" lon="0.26345">
        <ele>133.7</ele>
        <time>2020-05-30T16:45:07Z</time>
      </trkpt>
      <trkpt lat="46.55923" lon="0.26338">
        <ele>133.7</ele>
        <time>2020-05-30T16:45:08Z</time>
      </trkpt>
      <trkpt lat="46.55919" lon="0.26331">
        <ele>133.7</ele>
        <time>2020-05-30T16:45:09Z</time>
      </trkpt>
      <trkpt lat="46.55916" lon="0.26323">
        <ele>133.7</ele>
        <time>2020-05-30T16:45:10Z</time>
      </trkpt>
      <trkpt lat="46.55912" lon="0.26316">
        <ele>133.7</ele>
        <time>2020-05-30T16:45:11Z</time>
      </trkpt>
      <trkpt lat="46.55909" lon="0.26309">
        <ele>133.6</ele>
        <time>2020-05-30T16:45:12Z</time>
      </trkpt>
      <trkpt lat="46.55906" lon="0.263">
        <ele>133.6</ele>
        <time>2020-05-30T16:45:13Z</time>
      </trkpt>
      <trkpt lat="46.55903" lon="0.26292">
        <ele>133.6</ele>
        <time>2020-05-30T16:45:14Z</time>
      </trkpt>
      <trkpt lat="46.559" lon="0.26284">
        <ele>133.6</ele>
        <time>2020-05-30T16:45:15Z</time>
      </trkpt>
      <trkpt lat="46.55897" lon="0.26276">
        <ele>133.6</ele>
        <time>2020-05-30T16:45:16Z</time>
      </trkpt>
      <trkpt lat="46.55894" lon="0.26269">
        <ele>133.6</ele>
        <time>2020-05-30T16:45:17Z</time>
      </trkpt>
      <trkpt lat="46.5589" lon="0.26261">
        <ele>133.6</ele>
        <time>2020-05-30T16:45:18Z</time>
      </trkpt>
      <trkpt lat="46.55887" lon="0.26254">
        <ele>133.7</ele>
        <time>2020-05-30T16:45:19Z</time>
      </trkpt>
      <trkpt lat="46.55884" lon="0.26246">
        <ele>133.7</ele>
        <time>2020-05-30T16:45:20Z</time>
      </trkpt>
      <trkpt lat="46.5588" lon="0.26238">
        <ele>133.7</ele>
        <time>2020-05-30T16:45:21Z</time>
      </trkpt>
      <trkpt lat="46.55877" lon="0.26231">
        <ele>133.8</ele>
        <time>2020-05-30T16:45:22Z</time>
      </trkpt>
      <trkpt lat="46.55874" lon="0.26223">
        <ele>133.8</ele>
        <time>2020-05-30T16:45:23Z</time>
      </trkpt>
      <trkpt lat="46.55871" lon="0.26215">
        <ele>133.8</ele>
        <time>2020-05-30T16:45:24Z</time>
      </trkpt>
      <trkpt lat="46.55868" lon="0.26208">
        <ele>133.9</ele>
        <time>2020-05-30T16:45:25Z</time>
      </trkpt>
      <trkpt lat="46.55866" lon="0.262">
        <ele>133.9</ele>
        <time>2020-05-30T16:45:26Z</time>
      </trkpt>
      <trkpt lat="46.55863" lon="0.26192">
        <ele>134</ele>
        <time>2020-05-30T16:45:27Z</time>
      </trkpt>
      <trkpt lat="46.5586" lon="0.26184">
        <ele>134.1</ele>
        <time>2020-05-30T16:45:28Z</time>
      </trkpt>
      <trkpt lat="46.55857" lon="0.26176">
        <ele>134.2</ele>
        <time>2020-05-30T16:45:29Z</time>
      </trkpt>
      <trkpt lat="46.55854" lon="0.26168">
        <ele>134.3</ele>
        <time>2020-05-30T16:45:30Z</time>
      </trkpt>
      <trkpt lat="46.55852" lon="0.2616">
        <ele>134.4</ele>
        <time>2020-05-30T16:45:31Z</time>
      </trkpt>
      <trkpt lat="46.5585" lon="0.26152">
        <ele>134.5</ele>
        <time>2020-05-30T16:45:32Z</time>
      </trkpt>
      <trkpt lat="46.55848" lon="0.26144">
        <ele>134.6</ele>
        <time>2020-05-30T16:45:33Z</time>
      </trkpt>
      <trkpt lat="46.55846" lon="0.26135">
        <ele>134.6</ele>
        <time>2020-05-30T16:45:34Z</time>
      </trkpt>
      <trkpt lat="46.55842" lon="0.26128">
        <ele>134.7</ele>
        <time>2020-05-30T16:45:35Z</time>
      </trkpt>
      <trkpt lat="46.55841" lon="0.2612">
        <ele>134.8</ele>
        <time>2020-05-30T16:45:36Z</time>
      </trkpt>
      <trkpt lat="46.5584" lon="0.26112">
        <ele>134.9</ele>
        <time>2020-05-30T16:45:37Z</time>
      </trkpt>
      <trkpt lat="46.55837" lon="0.26104">
        <ele>135</ele>
        <time>2020-05-30T16:45:38Z</time>
      </trkpt>
      <trkpt lat="46.55835" lon="0.26096">
        <ele>135.1</ele>
        <time>2020-05-30T16:45:39Z</time>
      </trkpt>
      <trkpt lat="46.55833" lon="0.26088">
        <ele>135.2</ele>
        <time>2020-05-30T16:45:40Z</time>
      </trkpt>
      <trkpt lat="46.55831" lon="0.26081">
        <ele>135.3</ele>
        <time>2020-05-30T16:45:41Z</time>
      </trkpt>
      <trkpt lat="46.55829" lon="0.26073">
        <ele>135.4</ele>
        <time>2020-05-30T16:45:42Z</time>
      </trkpt>
      <trkpt lat="46.55828" lon="0.26065">
        <ele>135.5</ele>
        <time>2020-05-30T16:45:43Z</time>
      </trkpt>
      <trkpt lat="46.55824" lon="0.26059">
        <ele>135.6</ele>
        <time>2020-05-30T16:45:44Z</time>
      </trkpt>
      <trkpt lat="46.55822" lon="0.26052">
        <ele>135.7</ele>
        <time>2020-05-30T16:45:45Z</time>
      </trkpt>
      <trkpt lat="46.5582" lon="0.26044">
        <ele>135.8</ele>
        <time>2020-05-30T16:45:46Z</time>
      </trkpt>
      <trkpt lat="46.55818" lon="0.26037">
        <ele>135.9</ele>
        <time>2020-05-30T16:45:47Z</time>
      </trkpt>
      <trkpt lat="46.55817" lon="0.2603">
        <ele>135.9</ele>
        <time>2020-05-30T16:45:48Z</time>
      </trkpt>
      <trkpt lat="46.55815" lon="0.26023">
        <ele>136</ele>
        <time>2020-05-30T16:45:49Z</time>
      </trkpt>
      <trkpt lat="46.55813" lon="0.26016">
        <ele>136.1</ele>
        <time>2020-05-30T16:45:50Z</time>
      </trkpt>
      <trkpt lat="46.55811" lon="0.26009">
        <ele>136.2</ele>
        <time>2020-05-30T16:45:51Z</time>
      </trkpt>
      <trkpt lat="46.55809" lon="0.26001">
        <ele>136.2</ele>
        <time>2020-05-30T16:45:52Z</time>
      </trkpt>
      <trkpt lat="46.55806" lon="0.25994">
        <ele>136.3</ele>
        <time>2020-05-30T16:45:53Z</time>
      </trkpt>
      <trkpt lat="46.55805" lon="0.25986">
        <ele>136.4</ele>
        <time>2020-05-30T16:45:54Z</time>
      </trkpt>
      <trkpt lat="46.55803" lon="0.25979">
        <ele>136.5</ele>
        <time>2020-05-30T16:45:55Z</time>
      </trkpt>
      <trkpt lat="46.55801" lon="0.25972">
        <ele>136.6</ele>
        <time>2020-05-30T16:45:56Z</time>
      </trkpt>
      <trkpt lat="46.55799" lon="0.25965">
        <ele>136.7</ele>
        <time>2020-05-30T16:45:57Z</time>
      </trkpt>
      <trkpt lat="46.55797" lon="0.25958">
        <ele>136.9</ele>
        <time>2020-05-30T16:45:58Z</time>
      </trkpt>
      <trkpt lat="46.55793" lon="0.25951">
        <ele>137</ele>
        <time>2020-05-30T16:45:59Z</time>
      </trkpt>
      <trkpt lat="46.55791" lon="0.25944">
        <ele>137.2</ele>
        <time>2020-05-30T16:46:00Z</time>
      </trkpt>
      <trkpt lat="46.55789" lon="0.25937">
        <ele>137.3</ele>
        <time>2020-05-30T16:46:01Z</time>
      </trkpt>
      <trkpt lat="46.55785" lon="0.2593">
        <ele>137.4</ele>
        <time>2020-05-30T16:46:02Z</time>
      </trkpt>
      <trkpt lat="46.55782" lon="0.25924">
        <ele>137.5</ele>
        <time>2020-05-30T16:46:03Z</time>
      </trkpt>
      <trkpt lat="46.55779" lon="0.25917">
        <ele>137.5</ele>
        <time>2020-05-30T16:46:04Z</time>
      </trkpt>
      <trkpt lat="46.55776" lon="0.25911">
        <ele>137.6</ele>
        <time>2020-05-30T16:46:05Z</time>
      </trkpt>
      <trkpt lat="46.55773" lon="0.25904">
        <ele>137.7</ele>
        <time>2020-05-30T16:46:06Z</time>
      </trkpt>
      <trkpt lat="46.5577" lon="0.25897">
        <ele>137.8</ele>
        <time>2020-05-30T16:46:07Z</time>
      </trkpt>
      <trkpt lat="46.55767" lon="0.25891">
        <ele>137.9</ele>
        <time>2020-05-30T16:46:08Z</time>
      </trkpt>
      <trkpt lat="46.55763" lon="0.25885">
        <ele>138</ele>
        <time>2020-05-30T16:46:09Z</time>
      </trkpt>
      <trkpt lat="46.5576" lon="0.25878">
        <ele>138.1</ele>
        <time>2020-05-30T16:46:10Z</time>
      </trkpt>
      <trkpt lat="46.55757" lon="0.25872">
        <ele>138.2</ele>
        <time>2020-05-30T16:46:11Z</time>
      </trkpt>
      <trkpt lat="46.55753" lon="0.25866">
        <ele>138.3</ele>
        <time>2020-05-30T16:46:12Z</time>
      </trkpt>
      <trkpt lat="46.55749" lon="0.25861">
        <ele>138.4</ele>
        <time>2020-05-30T16:46:13Z</time>
      </trkpt>
      <trkpt lat="46.55746" lon="0.25854">
        <ele>138.4</ele>
        <time>2020-05-30T16:46:14Z</time>
      </trkpt>
      <trkpt lat="46.55743" lon="0.25847">
        <ele>138.5</ele>
        <time>2020-05-30T16:46:15Z</time>
      </trkpt>
      <trkpt lat="46.55739" lon="0.25841">
        <ele>138.5</ele>
        <time>2020-05-30T16:46:16Z</time>
      </trkpt>
      <trkpt lat="46.55736" lon="0.25835">
        <ele>138.6</ele>
        <time>2020-05-30T16:46:17Z</time>
      </trkpt>
      <trkpt lat="46.55732" lon="0.25829">
        <ele>138.7</ele>
        <time>2020-05-30T16:46:18Z</time>
      </trkpt>
      <trkpt lat="46.55729" lon="0.25823">
        <ele>138.8</ele>
        <time>2020-05-30T16:46:19Z</time>
      </trkpt>
      <trkpt lat="46.55725" lon="0.25817">
        <ele>138.9</ele>
        <time>2020-05-30T16:46:20Z</time>
      </trkpt>
      <trkpt lat="46.55722" lon="0.25812">
        <ele>139</ele>
        <time>2020-05-30T16:46:21Z</time>
      </trkpt>
      <trkpt lat="46.55719" lon="0.25806">
        <ele>139.1</ele>
        <time>2020-05-30T16:46:22Z</time>
      </trkpt>
      <trkpt lat="46.55716" lon="0.258">
        <ele>139.2</ele>
        <time>2020-05-30T16:46:23Z</time>
      </trkpt>
      <trkpt lat="46.55713" lon="0.25794">
        <ele>139.3</ele>
        <time>2020-05-30T16:46:24Z</time>
      </trkpt>
      <trkpt lat="46.5571" lon="0.25788">
        <ele>139.4</ele>
        <time>2020-05-30T16:46:25Z</time>
      </trkpt>
      <trkpt lat="46.55706" lon="0.25782">
        <ele>139.5</ele>
        <time>2020-05-30T16:46:26Z</time>
      </trkpt>
      <trkpt lat="46.55703" lon="0.25776">
        <ele>139.6</ele>
        <time>2020-05-30T16:46:27Z</time>
      </trkpt>
      <trkpt lat="46.557" lon="0.2577">
        <ele>139.7</ele>
        <time>2020-05-30T16:46:28Z</time>
      </trkpt>
      <trkpt lat="46.55696" lon="0.25763">
        <ele>139.8</ele>
        <time>2020-05-30T16:46:29Z</time>
      </trkpt>
      <trkpt lat="46.55693" lon="0.25757">
        <ele>139.9</ele>
        <time>2020-05-30T16:46:30Z</time>
      </trkpt>
      <trkpt lat="46.5569" lon="0.25751">
        <ele>140</ele>
        <time>2020-05-30T16:46:31Z</time>
      </trkpt>
      <trkpt lat="46.55687" lon="0.25744">
        <ele>140</ele>
        <time>2020-05-30T16:46:32Z</time>
      </trkpt>
      <trkpt lat="46.55683" lon="0.25738">
        <ele>140.1</ele>
        <time>2020-05-30T16:46:33Z</time>
      </trkpt>
      <trkpt lat="46.5568" lon="0.25732">
        <ele>140.2</ele>
        <time>2020-05-30T16:46:34Z</time>
      </trkpt>
      <trkpt lat="46.55676" lon="0.25726">
        <ele>140.2</ele>
        <time>2020-05-30T16:46:35Z</time>
      </trkpt>
      <trkpt lat="46.55673" lon="0.2572">
        <ele>140.3</ele>
        <time>2020-05-30T16:46:36Z</time>
      </trkpt>
      <trkpt lat="46.5567" lon="0.25714">
        <ele>140.4</ele>
        <time>2020-05-30T16:46:37Z</time>
      </trkpt>
      <trkpt lat="46.55667" lon="0.25707">
        <ele>140.4</ele>
        <time>2020-05-30T16:46:38Z</time>
      </trkpt>
      <trkpt lat="46.55663" lon="0.25701">
        <ele>140.5</ele>
        <time>2020-05-30T16:46:39Z</time>
      </trkpt>
      <trkpt lat="46.5566" lon="0.25695">
        <ele>140.6</ele>
        <time>2020-05-30T16:46:40Z</time>
      </trkpt>
      <trkpt lat="46.55657" lon="0.25689">
        <ele>140.6</ele>
        <time>2020-05-30T16:46:41Z</time>
      </trkpt>
      <trkpt lat="46.55653" lon="0.25684">
        <ele>140.7</ele>
        <time>2020-05-30T16:46:42Z</time>
      </trkpt>
      <trkpt lat="46.55649" lon="0.25678">
        <ele>140.8</ele>
        <time>2020-05-30T16:46:43Z</time>
      </trkpt>
      <trkpt lat="46.55646" lon="0.25672">
        <ele>140.9</ele>
        <time>2020-05-30T16:46:44Z</time>
      </trkpt>
      <trkpt lat="46.55643" lon="0.25666">
        <ele>141</ele>
        <time>2020-05-30T16:46:45Z</time>
      </trkpt>
      <trkpt lat="46.55639" lon="0.2566">
        <ele>141</ele>
        <time>2020-05-30T16:46:46Z</time>
      </trkpt>
      <trkpt lat="46.55637" lon="0.25652">
        <ele>141.1</ele>
        <time>2020-05-30T16:46:47Z</time>
      </trkpt>
      <trkpt lat="46.55634" lon="0.25646">
        <ele>141.2</ele>
        <time>2020-05-30T16:46:48Z</time>
      </trkpt>
      <trkpt lat="46.55631" lon="0.2564">
        <ele>141.3</ele>
        <time>2020-05-30T16:46:49Z</time>
      </trkpt>
      <trkpt lat="46.55627" lon="0.25635">
        <ele>141.3</ele>
        <time>2020-05-30T16:46:50Z</time>
      </trkpt>
      <trkpt lat="46.55624" lon="0.25629">
        <ele>141.4</ele>
        <time>2020-05-30T16:46:51Z</time>
      </trkpt>
      <trkpt lat="46.55621" lon="0.25622">
        <ele>141.5</ele>
        <time>2020-05-30T16:46:52Z</time>
      </trkpt>
      <trkpt lat="46.55616" lon="0.25618">
        <ele>141.6</ele>
        <time>2020-05-30T16:46:53Z</time>
      </trkpt>
      <trkpt lat="46.55613" lon="0.25612">
        <ele>141.7</ele>
        <time>2020-05-30T16:46:54Z</time>
      </trkpt>
      <trkpt lat="46.55611" lon="0.25605">
        <ele>141.7</ele>
        <time>2020-05-30T16:46:55Z</time>
      </trkpt>
      <trkpt lat="46.55608" lon="0.25599">
        <ele>141.8</ele>
        <time>2020-05-30T16:46:56Z</time>
      </trkpt>
      <trkpt lat="46.55604" lon="0.25593">
        <ele>141.9</ele>
        <time>2020-05-30T16:46:57Z</time>
      </trkpt>
      <trkpt lat="46.55601" lon="0.25588">
        <ele>142</ele>
        <time>2020-05-30T16:46:58Z</time>
      </trkpt>
      <trkpt lat="46.55598" lon="0.25581">
        <ele>142</ele>
        <time>2020-05-30T16:46:59Z</time>
      </trkpt>
      <trkpt lat="46.55595" lon="0.25575">
        <ele>142.1</ele>
        <time>2020-05-30T16:47:00Z</time>
      </trkpt>
      <trkpt lat="46.55592" lon="0.25569">
        <ele>142.2</ele>
        <time>2020-05-30T16:47:01Z</time>
      </trkpt>
      <trkpt lat="46.55589" lon="0.25562">
        <ele>142.2</ele>
        <time>2020-05-30T16:47:02Z</time>
      </trkpt>
      <trkpt lat="46.55588" lon="0.25554">
        <ele>142.3</ele>
        <time>2020-05-30T16:47:03Z</time>
      </trkpt>
      <trkpt lat="46.55584" lon="0.25548">
        <ele>142.4</ele>
        <time>2020-05-30T16:47:04Z</time>
      </trkpt>
      <trkpt lat="46.55582" lon="0.2554">
        <ele>142.4</ele>
        <time>2020-05-30T16:47:05Z</time>
      </trkpt>
      <trkpt lat="46.5558" lon="0.25532">
        <ele>142.4</ele>
        <time>2020-05-30T16:47:06Z</time>
      </trkpt>
      <trkpt lat="46.55578" lon="0.25525">
        <ele>142.5</ele>
        <time>2020-05-30T16:47:07Z</time>
      </trkpt>
      <trkpt lat="46.55576" lon="0.25517">
        <ele>142.5</ele>
        <time>2020-05-30T16:47:08Z</time>
      </trkpt>
      <trkpt lat="46.55574" lon="0.25509">
        <ele>142.5</ele>
        <time>2020-05-30T16:47:09Z</time>
      </trkpt>
      <trkpt lat="46.55571" lon="0.25501">
        <ele>142.5</ele>
        <time>2020-05-30T16:47:10Z</time>
      </trkpt>
      <trkpt lat="46.55568" lon="0.25494">
        <ele>142.5</ele>
        <time>2020-05-30T16:47:11Z</time>
      </trkpt>
      <trkpt lat="46.55566" lon="0.25486">
        <ele>142.5</ele>
        <time>2020-05-30T16:47:12Z</time>
      </trkpt>
      <trkpt lat="46.55564" lon="0.25478">
        <ele>142.5</ele>
        <time>2020-05-30T16:47:13Z</time>
      </trkpt>
      <trkpt lat="46.55562" lon="0.2547">
        <ele>142.5</ele>
        <time>2020-05-30T16:47:14Z</time>
      </trkpt>
      <trkpt lat="46.55561" lon="0.25462">
        <ele>142.6</ele>
        <time>2020-05-30T16:47:15Z</time>
      </trkpt>
      <trkpt lat="46.55558" lon="0.25454">
        <ele>142.6</ele>
        <time>2020-05-30T16:47:16Z</time>
      </trkpt>
      <trkpt lat="46.55555" lon="0.25446">
        <ele>142.6</ele>
        <time>2020-05-30T16:47:17Z</time>
      </trkpt>
      <trkpt lat="46.55552" lon="0.25439">
        <ele>142.6</ele>
        <time>2020-05-30T16:47:18Z</time>
      </trkpt>
      <trkpt lat="46.5555" lon="0.2543">
        <ele>142.6</ele>
        <time>2020-05-30T16:47:19Z</time>
      </trkpt>
      <trkpt lat="46.55548" lon="0.25423">
        <ele>142.6</ele>
        <time>2020-05-30T16:47:20Z</time>
      </trkpt>
      <trkpt lat="46.55544" lon="0.25416">
        <ele>142.6</ele>
        <time>2020-05-30T16:47:21Z</time>
      </trkpt>
      <trkpt lat="46.55543" lon="0.25408">
        <ele>142.7</ele>
        <time>2020-05-30T16:47:22Z</time>
      </trkpt>
      <trkpt lat="46.55541" lon="0.254">
        <ele>142.7</ele>
        <time>2020-05-30T16:47:23Z</time>
      </trkpt>
      <trkpt lat="46.5554" lon="0.25391">
        <ele>142.7</ele>
        <time>2020-05-30T16:47:24Z</time>
      </trkpt>
      <trkpt lat="46.55538" lon="0.25383">
        <ele>142.7</ele>
        <time>2020-05-30T16:47:25Z</time>
      </trkpt>
      <trkpt lat="46.55536" lon="0.25376">
        <ele>142.7</ele>
        <time>2020-05-30T16:47:26Z</time>
      </trkpt>
      <trkpt lat="46.55534" lon="0.25368">
        <ele>142.7</ele>
        <time>2020-05-30T16:47:27Z</time>
      </trkpt>
      <trkpt lat="46.55533" lon="0.2536">
        <ele>142.7</ele>
        <time>2020-05-30T16:47:28Z</time>
      </trkpt>
      <trkpt lat="46.55531" lon="0.25353">
        <ele>142.7</ele>
        <time>2020-05-30T16:47:29Z</time>
      </trkpt>
      <trkpt lat="46.55526" lon="0.25347">
        <ele>142.7</ele>
        <time>2020-05-30T16:47:30Z</time>
      </trkpt>
      <trkpt lat="46.55524" lon="0.25339">
        <ele>142.7</ele>
        <time>2020-05-30T16:47:31Z</time>
      </trkpt>
      <trkpt lat="46.55522" lon="0.25332">
        <ele>142.7</ele>
        <time>2020-05-30T16:47:32Z</time>
      </trkpt>
      <trkpt lat="46.55521" lon="0.25323">
        <ele>142.7</ele>
        <time>2020-05-30T16:47:33Z</time>
      </trkpt>
      <trkpt lat="46.55519" lon="0.25315">
        <ele>142.7</ele>
        <time>2020-05-30T16:47:34Z</time>
      </trkpt>
      <trkpt lat="46.55517" lon="0.25307">
        <ele>142.7</ele>
        <time>2020-05-30T16:47:35Z</time>
      </trkpt>
      <trkpt lat="46.55515" lon="0.25299">
        <ele>142.7</ele>
        <time>2020-05-30T16:47:36Z</time>
      </trkpt>
      <trkpt lat="46.55513" lon="0.25291">
        <ele>142.7</ele>
        <time>2020-05-30T16:47:37Z</time>
      </trkpt>
      <trkpt lat="46.55512" lon="0.25282">
        <ele>142.7</ele>
        <time>2020-05-30T16:47:38Z</time>
      </trkpt>
      <trkpt lat="46.55509" lon="0.25274">
        <ele>142.7</ele>
        <time>2020-05-30T16:47:39Z</time>
      </trkpt>
      <trkpt lat="46.55507" lon="0.25267">
        <ele>142.8</ele>
        <time>2020-05-30T16:47:40Z</time>
      </trkpt>
      <trkpt lat="46.55505" lon="0.25259">
        <ele>142.8</ele>
        <time>2020-05-30T16:47:41Z</time>
      </trkpt>
      <trkpt lat="46.55503" lon="0.25251">
        <ele>142.8</ele>
        <time>2020-05-30T16:47:42Z</time>
      </trkpt>
      <trkpt lat="46.55501" lon="0.25243">
        <ele>142.8</ele>
        <time>2020-05-30T16:47:43Z</time>
      </trkpt>
      <trkpt lat="46.55499" lon="0.25236">
        <ele>142.8</ele>
        <time>2020-05-30T16:47:44Z</time>
      </trkpt>
      <trkpt lat="46.55497" lon="0.25229">
        <ele>142.9</ele>
        <time>2020-05-30T16:47:45Z</time>
      </trkpt>
      <trkpt lat="46.55495" lon="0.25222">
        <ele>142.9</ele>
        <time>2020-05-30T16:47:46Z</time>
      </trkpt>
      <trkpt lat="46.55494" lon="0.25215">
        <ele>142.9</ele>
        <time>2020-05-30T16:47:47Z</time>
      </trkpt>
      <trkpt lat="46.55493" lon="0.25208">
        <ele>143</ele>
        <time>2020-05-30T16:47:48Z</time>
      </trkpt>
      <trkpt lat="46.55492" lon="0.25201">
        <ele>143</ele>
        <time>2020-05-30T16:47:49Z</time>
      </trkpt>
      <trkpt lat="46.5549" lon="0.25194">
        <ele>143</ele>
        <time>2020-05-30T16:47:50Z</time>
      </trkpt>
      <trkpt lat="46.55487" lon="0.25189">
        <ele>143</ele>
        <time>2020-05-30T16:47:51Z</time>
      </trkpt>
      <trkpt lat="46.55485" lon="0.25182">
        <ele>143</ele>
        <time>2020-05-30T16:47:52Z</time>
      </trkpt>
      <trkpt lat="46.55483" lon="0.25176">
        <ele>143</ele>
        <time>2020-05-30T16:47:53Z</time>
      </trkpt>
      <trkpt lat="46.55482" lon="0.25169">
        <ele>143</ele>
        <time>2020-05-30T16:47:54Z</time>
      </trkpt>
      <trkpt lat="46.55479" lon="0.25163">
        <ele>143</ele>
        <time>2020-05-30T16:47:55Z</time>
      </trkpt>
      <trkpt lat="46.55478" lon="0.25157">
        <ele>143</ele>
        <time>2020-05-30T16:47:56Z</time>
      </trkpt>
      <trkpt lat="46.55476" lon="0.25151">
        <ele>143</ele>
        <time>2020-05-30T16:47:57Z</time>
      </trkpt>
      <trkpt lat="46.55474" lon="0.25145">
        <ele>143.1</ele>
        <time>2020-05-30T16:47:58Z</time>
      </trkpt>
      <trkpt lat="46.55473" lon="0.25139">
        <ele>143.1</ele>
        <time>2020-05-30T16:47:59Z</time>
      </trkpt>
      <trkpt lat="46.55471" lon="0.25133">
        <ele>143.1</ele>
        <time>2020-05-30T16:48:00Z</time>
      </trkpt>
      <trkpt lat="46.55468" lon="0.25128">
        <ele>143.1</ele>
        <time>2020-05-30T16:48:01Z</time>
      </trkpt>
      <trkpt lat="46.55467" lon="0.25122">
        <ele>143.1</ele>
        <time>2020-05-30T16:48:02Z</time>
      </trkpt>
      <trkpt lat="46.55465" lon="0.25115">
        <ele>143.2</ele>
        <time>2020-05-30T16:48:03Z</time>
      </trkpt>
      <trkpt lat="46.55464" lon="0.25109">
        <ele>143.2</ele>
        <time>2020-05-30T16:48:04Z</time>
      </trkpt>
      <trkpt lat="46.55463" lon="0.25102">
        <ele>143.2</ele>
        <time>2020-05-30T16:48:05Z</time>
      </trkpt>
      <trkpt lat="46.55461" lon="0.25095">
        <ele>143.2</ele>
        <time>2020-05-30T16:48:06Z</time>
      </trkpt>
      <trkpt lat="46.55459" lon="0.25087">
        <ele>143.2</ele>
        <time>2020-05-30T16:48:07Z</time>
      </trkpt>
      <trkpt lat="46.55457" lon="0.2508">
        <ele>143.2</ele>
        <time>2020-05-30T16:48:08Z</time>
      </trkpt>
      <trkpt lat="46.55456" lon="0.25073">
        <ele>143.2</ele>
        <time>2020-05-30T16:48:09Z</time>
      </trkpt>
      <trkpt lat="46.55454" lon="0.25066">
        <ele>143.2</ele>
        <time>2020-05-30T16:48:10Z</time>
      </trkpt>
      <trkpt lat="46.55452" lon="0.25059">
        <ele>143.2</ele>
        <time>2020-05-30T16:48:11Z</time>
      </trkpt>
      <trkpt lat="46.55449" lon="0.25053">
        <ele>143.2</ele>
        <time>2020-05-30T16:48:12Z</time>
      </trkpt>
      <trkpt lat="46.55447" lon="0.25046">
        <ele>143.2</ele>
        <time>2020-05-30T16:48:13Z</time>
      </trkpt>
      <trkpt lat="46.55445" lon="0.2504">
        <ele>143.2</ele>
        <time>2020-05-30T16:48:14Z</time>
      </trkpt>
      <trkpt lat="46.55443" lon="0.25034">
        <ele>143.3</ele>
        <time>2020-05-30T16:48:15Z</time>
      </trkpt>
      <trkpt lat="46.55441" lon="0.25028">
        <ele>143.3</ele>
        <time>2020-05-30T16:48:16Z</time>
      </trkpt>
      <trkpt lat="46.55439" lon="0.25022">
        <ele>143.3</ele>
        <time>2020-05-30T16:48:17Z</time>
      </trkpt>
      <trkpt lat="46.55437" lon="0.25016">
        <ele>143.3</ele>
        <time>2020-05-30T16:48:18Z</time>
      </trkpt>
      <trkpt lat="46.55435" lon="0.2501">
        <ele>143.3</ele>
        <time>2020-05-30T16:48:19Z</time>
      </trkpt>
      <trkpt lat="46.55434" lon="0.25003">
        <ele>143.4</ele>
        <time>2020-05-30T16:48:20Z</time>
      </trkpt>
      <trkpt lat="46.55432" lon="0.24996">
        <ele>143.4</ele>
        <time>2020-05-30T16:48:21Z</time>
      </trkpt>
      <trkpt lat="46.55431" lon="0.24989">
        <ele>143.4</ele>
        <time>2020-05-30T16:48:22Z</time>
      </trkpt>
      <trkpt lat="46.55429" lon="0.24983">
        <ele>143.4</ele>
        <time>2020-05-30T16:48:23Z</time>
      </trkpt>
      <trkpt lat="46.55428" lon="0.24976">
        <ele>143.4</ele>
        <time>2020-05-30T16:48:24Z</time>
      </trkpt>
      <trkpt lat="46.55425" lon="0.2497">
        <ele>143.5</ele>
        <time>2020-05-30T16:48:25Z</time>
      </trkpt>
      <trkpt lat="46.55424" lon="0.24964">
        <ele>143.5</ele>
        <time>2020-05-30T16:48:26Z</time>
      </trkpt>
      <trkpt lat="46.55422" lon="0.24959">
        <ele>143.5</ele>
        <time>2020-05-30T16:48:27Z</time>
      </trkpt>
      <trkpt lat="46.5542" lon="0.24953">
        <ele>143.5</ele>
        <time>2020-05-30T16:48:28Z</time>
      </trkpt>
      <trkpt lat="46.55418" lon="0.24947">
        <ele>143.6</ele>
        <time>2020-05-30T16:48:29Z</time>
      </trkpt>
      <trkpt lat="46.55417" lon="0.2494">
        <ele>143.6</ele>
        <time>2020-05-30T16:48:30Z</time>
      </trkpt>
      <trkpt lat="46.55415" lon="0.24933">
        <ele>143.7</ele>
        <time>2020-05-30T16:48:31Z</time>
      </trkpt>
      <trkpt lat="46.55414" lon="0.24926">
        <ele>143.7</ele>
        <time>2020-05-30T16:48:32Z</time>
      </trkpt>
      <trkpt lat="46.55413" lon="0.24919">
        <ele>143.8</ele>
        <time>2020-05-30T16:48:33Z</time>
      </trkpt>
      <trkpt lat="46.55411" lon="0.24912">
        <ele>143.9</ele>
        <time>2020-05-30T16:48:34Z</time>
      </trkpt>
      <trkpt lat="46.55409" lon="0.24905">
        <ele>144</ele>
        <time>2020-05-30T16:48:35Z</time>
      </trkpt>
      <trkpt lat="46.55408" lon="0.24898">
        <ele>144</ele>
        <time>2020-05-30T16:48:36Z</time>
      </trkpt>
      <trkpt lat="46.55405" lon="0.24892">
        <ele>144.1</ele>
        <time>2020-05-30T16:48:37Z</time>
      </trkpt>
      <trkpt lat="46.55403" lon="0.24885">
        <ele>144.1</ele>
        <time>2020-05-30T16:48:38Z</time>
      </trkpt>
      <trkpt lat="46.554" lon="0.24878">
        <ele>144.2</ele>
        <time>2020-05-30T16:48:39Z</time>
      </trkpt>
      <trkpt lat="46.55399" lon="0.24871">
        <ele>144.2</ele>
        <time>2020-05-30T16:48:40Z</time>
      </trkpt>
      <trkpt lat="46.55397" lon="0.24864">
        <ele>144.3</ele>
        <time>2020-05-30T16:48:41Z</time>
      </trkpt>
      <trkpt lat="46.55395" lon="0.24858">
        <ele>144.3</ele>
        <time>2020-05-30T16:48:42Z</time>
      </trkpt>
      <trkpt lat="46.55393" lon="0.24852">
        <ele>144.4</ele>
        <time>2020-05-30T16:48:43Z</time>
      </trkpt>
      <trkpt lat="46.55391" lon="0.24845">
        <ele>144.5</ele>
        <time>2020-05-30T16:48:44Z</time>
      </trkpt>
      <trkpt lat="46.55388" lon="0.24839">
        <ele>144.7</ele>
        <time>2020-05-30T16:48:45Z</time>
      </trkpt>
      <trkpt lat="46.55386" lon="0.24833">
        <ele>144.8</ele>
        <time>2020-05-30T16:48:46Z</time>
      </trkpt>
      <trkpt lat="46.55384" lon="0.24826">
        <ele>144.9</ele>
        <time>2020-05-30T16:48:47Z</time>
      </trkpt>
      <trkpt lat="46.55382" lon="0.24819">
        <ele>145</ele>
        <time>2020-05-30T16:48:48Z</time>
      </trkpt>
      <trkpt lat="46.55381" lon="0.24812">
        <ele>145</ele>
        <time>2020-05-30T16:48:49Z</time>
      </trkpt>
      <trkpt lat="46.5538" lon="0.24805">
        <ele>145.1</ele>
        <time>2020-05-30T16:48:50Z</time>
      </trkpt>
      <trkpt lat="46.55378" lon="0.24799">
        <ele>145.1</ele>
        <time>2020-05-30T16:48:51Z</time>
      </trkpt>
      <trkpt lat="46.55377" lon="0.24792">
        <ele>145.1</ele>
        <time>2020-05-30T16:48:52Z</time>
      </trkpt>
      <trkpt lat="46.55375" lon="0.24785">
        <ele>145.1</ele>
        <time>2020-05-30T16:48:53Z</time>
      </trkpt>
      <trkpt lat="46.55373" lon="0.24779">
        <ele>145.2</ele>
        <time>2020-05-30T16:48:54Z</time>
      </trkpt>
      <trkpt lat="46.55371" lon="0.24773">
        <ele>145.2</ele>
        <time>2020-05-30T16:48:55Z</time>
      </trkpt>
      <trkpt lat="46.5537" lon="0.24767">
        <ele>145.3</ele>
        <time>2020-05-30T16:48:56Z</time>
      </trkpt>
      <trkpt lat="46.55368" lon="0.2476">
        <ele>145.3</ele>
        <time>2020-05-30T16:48:57Z</time>
      </trkpt>
      <trkpt lat="46.55366" lon="0.24753">
        <ele>145.4</ele>
        <time>2020-05-30T16:48:58Z</time>
      </trkpt>
      <trkpt lat="46.55365" lon="0.24747">
        <ele>145.5</ele>
        <time>2020-05-30T16:48:59Z</time>
      </trkpt>
      <trkpt lat="46.55363" lon="0.24741">
        <ele>145.5</ele>
        <time>2020-05-30T16:49:00Z</time>
      </trkpt>
      <trkpt lat="46.55362" lon="0.24734">
        <ele>145.6</ele>
        <time>2020-05-30T16:49:01Z</time>
      </trkpt>
      <trkpt lat="46.5536" lon="0.24728">
        <ele>145.7</ele>
        <time>2020-05-30T16:49:02Z</time>
      </trkpt>
      <trkpt lat="46.5536" lon="0.24721">
        <ele>145.7</ele>
        <time>2020-05-30T16:49:03Z</time>
      </trkpt>
      <trkpt lat="46.55359" lon="0.24715">
        <ele>145.8</ele>
        <time>2020-05-30T16:49:04Z</time>
      </trkpt>
      <trkpt lat="46.55357" lon="0.24709">
        <ele>145.8</ele>
        <time>2020-05-30T16:49:05Z</time>
      </trkpt>
      <trkpt lat="46.55356" lon="0.24703">
        <ele>145.9</ele>
        <time>2020-05-30T16:49:06Z</time>
      </trkpt>
      <trkpt lat="46.55354" lon="0.24697">
        <ele>146</ele>
        <time>2020-05-30T16:49:07Z</time>
      </trkpt>
      <trkpt lat="46.55353" lon="0.24691">
        <ele>146</ele>
        <time>2020-05-30T16:49:08Z</time>
      </trkpt>
      <trkpt lat="46.55352" lon="0.24685">
        <ele>146.1</ele>
        <time>2020-05-30T16:49:09Z</time>
      </trkpt>
      <trkpt lat="46.5535" lon="0.24678">
        <ele>146.1</ele>
        <time>2020-05-30T16:49:10Z</time>
      </trkpt>
      <trkpt lat="46.5535" lon="0.24672">
        <ele>146.2</ele>
        <time>2020-05-30T16:49:11Z</time>
      </trkpt>
      <trkpt lat="46.55348" lon="0.24666">
        <ele>146.2</ele>
        <time>2020-05-30T16:49:12Z</time>
      </trkpt>
      <trkpt lat="46.55346" lon="0.2466">
        <ele>146.3</ele>
        <time>2020-05-30T16:49:13Z</time>
      </trkpt>
      <trkpt lat="46.55344" lon="0.24653">
        <ele>146.3</ele>
        <time>2020-05-30T16:49:14Z</time>
      </trkpt>
      <trkpt lat="46.55343" lon="0.24646">
        <ele>146.3</ele>
        <time>2020-05-30T16:49:15Z</time>
      </trkpt>
      <trkpt lat="46.55343" lon="0.2464">
        <ele>146.4</ele>
        <time>2020-05-30T16:49:16Z</time>
      </trkpt>
      <trkpt lat="46.55342" lon="0.24633">
        <ele>146.4</ele>
        <time>2020-05-30T16:49:17Z</time>
      </trkpt>
      <trkpt lat="46.55341" lon="0.24627">
        <ele>146.5</ele>
        <time>2020-05-30T16:49:18Z</time>
      </trkpt>
      <trkpt lat="46.55339" lon="0.24622">
        <ele>146.5</ele>
        <time>2020-05-30T16:49:19Z</time>
      </trkpt>
      <trkpt lat="46.55339" lon="0.24616">
        <ele>146.6</ele>
        <time>2020-05-30T16:49:20Z</time>
      </trkpt>
      <trkpt lat="46.55338" lon="0.2461">
        <ele>146.6</ele>
        <time>2020-05-30T16:49:21Z</time>
      </trkpt>
      <trkpt lat="46.55337" lon="0.24604">
        <ele>146.7</ele>
        <time>2020-05-30T16:49:22Z</time>
      </trkpt>
      <trkpt lat="46.55337" lon="0.24598">
        <ele>146.7</ele>
        <time>2020-05-30T16:49:23Z</time>
      </trkpt>
      <trkpt lat="46.55335" lon="0.24593">
        <ele>146.8</ele>
        <time>2020-05-30T16:49:24Z</time>
      </trkpt>
      <trkpt lat="46.55334" lon="0.24587">
        <ele>146.8</ele>
        <time>2020-05-30T16:49:25Z</time>
      </trkpt>
      <trkpt lat="46.55332" lon="0.24582">
        <ele>146.9</ele>
        <time>2020-05-30T16:49:26Z</time>
      </trkpt>
      <trkpt lat="46.55331" lon="0.24576">
        <ele>146.9</ele>
        <time>2020-05-30T16:49:27Z</time>
      </trkpt>
      <trkpt lat="46.5533" lon="0.24571">
        <ele>147</ele>
        <time>2020-05-30T16:49:28Z</time>
      </trkpt>
      <trkpt lat="46.55329" lon="0.24565">
        <ele>147</ele>
        <time>2020-05-30T16:49:29Z</time>
      </trkpt>
      <trkpt lat="46.55329" lon="0.24559">
        <ele>147</ele>
        <time>2020-05-30T16:49:30Z</time>
      </trkpt>
      <trkpt lat="46.55328" lon="0.24554">
        <ele>147.1</ele>
        <time>2020-05-30T16:49:31Z</time>
      </trkpt>
      <trkpt lat="46.55327" lon="0.24548">
        <ele>147.1</ele>
        <time>2020-05-30T16:49:32Z</time>
      </trkpt>
      <trkpt lat="46.55327" lon="0.24542">
        <ele>147.1</ele>
        <time>2020-05-30T16:49:33Z</time>
      </trkpt>
      <trkpt lat="46.55325" lon="0.24537">
        <ele>147.2</ele>
        <time>2020-05-30T16:49:34Z</time>
      </trkpt>
      <trkpt lat="46.55324" lon="0.24531">
        <ele>147.2</ele>
        <time>2020-05-30T16:49:35Z</time>
      </trkpt>
      <trkpt lat="46.55322" lon="0.24525">
        <ele>147.2</ele>
        <time>2020-05-30T16:49:36Z</time>
      </trkpt>
      <trkpt lat="46.5532" lon="0.2452">
        <ele>147.2</ele>
        <time>2020-05-30T16:49:37Z</time>
      </trkpt>
      <trkpt lat="46.55319" lon="0.24513">
        <ele>147.3</ele>
        <time>2020-05-30T16:49:38Z</time>
      </trkpt>
      <trkpt lat="46.55318" lon="0.24508">
        <ele>147.3</ele>
        <time>2020-05-30T16:49:39Z</time>
      </trkpt>
      <trkpt lat="46.55317" lon="0.24501">
        <ele>147.3</ele>
        <time>2020-05-30T16:49:40Z</time>
      </trkpt>
      <trkpt lat="46.55315" lon="0.24496">
        <ele>147.4</ele>
        <time>2020-05-30T16:49:41Z</time>
      </trkpt>
      <trkpt lat="46.55314" lon="0.2449">
        <ele>147.4</ele>
        <time>2020-05-30T16:49:42Z</time>
      </trkpt>
      <trkpt lat="46.55313" lon="0.24483">
        <ele>147.5</ele>
        <time>2020-05-30T16:49:43Z</time>
      </trkpt>
      <trkpt lat="46.55312" lon="0.24478">
        <ele>147.5</ele>
        <time>2020-05-30T16:49:44Z</time>
      </trkpt>
      <trkpt lat="46.55311" lon="0.24472">
        <ele>147.6</ele>
        <time>2020-05-30T16:49:45Z</time>
      </trkpt>
      <trkpt lat="46.55311" lon="0.24466">
        <ele>147.7</ele>
        <time>2020-05-30T16:49:46Z</time>
      </trkpt>
      <trkpt lat="46.5531" lon="0.2446">
        <ele>147.7</ele>
        <time>2020-05-30T16:49:47Z</time>
      </trkpt>
      <trkpt lat="46.55309" lon="0.24455">
        <ele>147.8</ele>
        <time>2020-05-30T16:49:48Z</time>
      </trkpt>
      <trkpt lat="46.5531" lon="0.24449">
        <ele>147.8</ele>
        <time>2020-05-30T16:49:49Z</time>
      </trkpt>
      <trkpt lat="46.55308" lon="0.24443">
        <ele>147.8</ele>
        <time>2020-05-30T16:49:50Z</time>
      </trkpt>
      <trkpt lat="46.55307" lon="0.24437">
        <ele>147.9</ele>
        <time>2020-05-30T16:49:51Z</time>
      </trkpt>
      <trkpt lat="46.55307" lon="0.24432">
        <ele>147.9</ele>
        <time>2020-05-30T16:49:52Z</time>
      </trkpt>
      <trkpt lat="46.55306" lon="0.24426">
        <ele>147.9</ele>
        <time>2020-05-30T16:49:53Z</time>
      </trkpt>
      <trkpt lat="46.55305" lon="0.2442">
        <ele>147.9</ele>
        <time>2020-05-30T16:49:54Z</time>
      </trkpt>
      <trkpt lat="46.55303" lon="0.24415">
        <ele>148</ele>
        <time>2020-05-30T16:49:55Z</time>
      </trkpt>
      <trkpt lat="46.55302" lon="0.2441">
        <ele>148</ele>
        <time>2020-05-30T16:49:56Z</time>
      </trkpt>
      <trkpt lat="46.55302" lon="0.24404">
        <ele>148</ele>
        <time>2020-05-30T16:49:57Z</time>
      </trkpt>
      <trkpt lat="46.55302" lon="0.24399">
        <ele>148</ele>
        <time>2020-05-30T16:49:58Z</time>
      </trkpt>
      <trkpt lat="46.55301" lon="0.24393">
        <ele>148.1</ele>
        <time>2020-05-30T16:49:59Z</time>
      </trkpt>
      <trkpt lat="46.55301" lon="0.24386">
        <ele>148.1</ele>
        <time>2020-05-30T16:50:00Z</time>
      </trkpt>
      <trkpt lat="46.553" lon="0.24381">
        <ele>148.1</ele>
        <time>2020-05-30T16:50:01Z</time>
      </trkpt>
      <trkpt lat="46.55299" lon="0.24375">
        <ele>148.2</ele>
        <time>2020-05-30T16:50:02Z</time>
      </trkpt>
      <trkpt lat="46.55297" lon="0.24369">
        <ele>148.2</ele>
        <time>2020-05-30T16:50:03Z</time>
      </trkpt>
      <trkpt lat="46.55296" lon="0.24363">
        <ele>148.3</ele>
        <time>2020-05-30T16:50:04Z</time>
      </trkpt>
      <trkpt lat="46.55296" lon="0.24357">
        <ele>148.3</ele>
        <time>2020-05-30T16:50:05Z</time>
      </trkpt>
      <trkpt lat="46.55295" lon="0.24351">
        <ele>148.4</ele>
        <time>2020-05-30T16:50:06Z</time>
      </trkpt>
      <trkpt lat="46.55295" lon="0.24344">
        <ele>148.4</ele>
        <time>2020-05-30T16:50:07Z</time>
      </trkpt>
      <trkpt lat="46.55295" lon="0.24338">
        <ele>148.4</ele>
        <time>2020-05-30T16:50:08Z</time>
      </trkpt>
      <trkpt lat="46.55295" lon="0.24332">
        <ele>148.5</ele>
        <time>2020-05-30T16:50:09Z</time>
      </trkpt>
      <trkpt lat="46.55294" lon="0.24325">
        <ele>148.5</ele>
        <time>2020-05-30T16:50:10Z</time>
      </trkpt>
      <trkpt lat="46.55294" lon="0.24319">
        <ele>148.6</ele>
        <time>2020-05-30T16:50:11Z</time>
      </trkpt>
      <trkpt lat="46.55294" lon="0.24312">
        <ele>148.6</ele>
        <time>2020-05-30T16:50:12Z</time>
      </trkpt>
      <trkpt lat="46.55293" lon="0.24305">
        <ele>148.7</ele>
        <time>2020-05-30T16:50:13Z</time>
      </trkpt>
      <trkpt lat="46.55292" lon="0.24298">
        <ele>148.7</ele>
        <time>2020-05-30T16:50:14Z</time>
      </trkpt>
      <trkpt lat="46.55291" lon="0.24291">
        <ele>148.7</ele>
        <time>2020-05-30T16:50:15Z</time>
      </trkpt>
      <trkpt lat="46.55289" lon="0.24284">
        <ele>148.8</ele>
        <time>2020-05-30T16:50:16Z</time>
      </trkpt>
      <trkpt lat="46.55289" lon="0.24276">
        <ele>148.8</ele>
        <time>2020-05-30T16:50:17Z</time>
      </trkpt>
      <trkpt lat="46.55288" lon="0.24269">
        <ele>148.8</ele>
        <time>2020-05-30T16:50:18Z</time>
      </trkpt>
      <trkpt lat="46.55286" lon="0.24262">
        <ele>148.9</ele>
        <time>2020-05-30T16:50:19Z</time>
      </trkpt>
      <trkpt lat="46.55285" lon="0.24255">
        <ele>148.9</ele>
        <time>2020-05-30T16:50:20Z</time>
      </trkpt>
      <trkpt lat="46.55284" lon="0.24248">
        <ele>148.9</ele>
        <time>2020-05-30T16:50:21Z</time>
      </trkpt>
      <trkpt lat="46.55283" lon="0.24241">
        <ele>148.9</ele>
        <time>2020-05-30T16:50:22Z</time>
      </trkpt>
      <trkpt lat="46.55282" lon="0.24233">
        <ele>148.9</ele>
        <time>2020-05-30T16:50:23Z</time>
      </trkpt>
      <trkpt lat="46.55281" lon="0.24226">
        <ele>148.9</ele>
        <time>2020-05-30T16:50:24Z</time>
      </trkpt>
      <trkpt lat="46.5528" lon="0.24218">
        <ele>148.9</ele>
        <time>2020-05-30T16:50:25Z</time>
      </trkpt>
      <trkpt lat="46.55279" lon="0.24211">
        <ele>148.9</ele>
        <time>2020-05-30T16:50:26Z</time>
      </trkpt>
      <trkpt lat="46.55279" lon="0.24203">
        <ele>148.9</ele>
        <time>2020-05-30T16:50:27Z</time>
      </trkpt>
      <trkpt lat="46.55278" lon="0.24196">
        <ele>148.9</ele>
        <time>2020-05-30T16:50:28Z</time>
      </trkpt>
      <trkpt lat="46.55277" lon="0.24188">
        <ele>148.9</ele>
        <time>2020-05-30T16:50:29Z</time>
      </trkpt>
      <trkpt lat="46.55276" lon="0.2418">
        <ele>148.9</ele>
        <time>2020-05-30T16:50:30Z</time>
      </trkpt>
      <trkpt lat="46.55275" lon="0.24172">
        <ele>148.9</ele>
        <time>2020-05-30T16:50:31Z</time>
      </trkpt>
      <trkpt lat="46.55275" lon="0.24164">
        <ele>148.9</ele>
        <time>2020-05-30T16:50:32Z</time>
      </trkpt>
      <trkpt lat="46.55274" lon="0.24156">
        <ele>148.9</ele>
        <time>2020-05-30T16:50:33Z</time>
      </trkpt>
      <trkpt lat="46.55273" lon="0.24148">
        <ele>148.9</ele>
        <time>2020-05-30T16:50:34Z</time>
      </trkpt>
      <trkpt lat="46.55272" lon="0.2414">
        <ele>148.9</ele>
        <time>2020-05-30T16:50:35Z</time>
      </trkpt>
      <trkpt lat="46.55271" lon="0.24132">
        <ele>148.9</ele>
        <time>2020-05-30T16:50:36Z</time>
      </trkpt>
      <trkpt lat="46.55271" lon="0.24124">
        <ele>149</ele>
        <time>2020-05-30T16:50:37Z</time>
      </trkpt>
      <trkpt lat="46.5527" lon="0.24116">
        <ele>149</ele>
        <time>2020-05-30T16:50:38Z</time>
      </trkpt>
      <trkpt lat="46.5527" lon="0.24108">
        <ele>149.1</ele>
        <time>2020-05-30T16:50:39Z</time>
      </trkpt>
      <trkpt lat="46.5527" lon="0.241">
        <ele>149.1</ele>
        <time>2020-05-30T16:50:40Z</time>
      </trkpt>
      <trkpt lat="46.55267" lon="0.24092">
        <ele>149.2</ele>
        <time>2020-05-30T16:50:41Z</time>
      </trkpt>
      <trkpt lat="46.55265" lon="0.24084">
        <ele>149.2</ele>
        <time>2020-05-30T16:50:42Z</time>
      </trkpt>
      <trkpt lat="46.55263" lon="0.24076">
        <ele>149.3</ele>
        <time>2020-05-30T16:50:43Z</time>
      </trkpt>
      <trkpt lat="46.55262" lon="0.24069">
        <ele>149.3</ele>
        <time>2020-05-30T16:50:44Z</time>
      </trkpt>
      <trkpt lat="46.55262" lon="0.2406">
        <ele>149.4</ele>
        <time>2020-05-30T16:50:45Z</time>
      </trkpt>
      <trkpt lat="46.55262" lon="0.24052">
        <ele>149.5</ele>
        <time>2020-05-30T16:50:46Z</time>
      </trkpt>
      <trkpt lat="46.55262" lon="0.24045">
        <ele>149.5</ele>
        <time>2020-05-30T16:50:47Z</time>
      </trkpt>
      <trkpt lat="46.55261" lon="0.24037">
        <ele>149.6</ele>
        <time>2020-05-30T16:50:48Z</time>
      </trkpt>
      <trkpt lat="46.55261" lon="0.24029">
        <ele>149.7</ele>
        <time>2020-05-30T16:50:49Z</time>
      </trkpt>
      <trkpt lat="46.5526" lon="0.24022">
        <ele>149.8</ele>
        <time>2020-05-30T16:50:50Z</time>
      </trkpt>
      <trkpt lat="46.55259" lon="0.24015">
        <ele>149.8</ele>
        <time>2020-05-30T16:50:51Z</time>
      </trkpt>
      <trkpt lat="46.55258" lon="0.24007">
        <ele>149.9</ele>
        <time>2020-05-30T16:50:52Z</time>
      </trkpt>
      <trkpt lat="46.55257" lon="0.23999">
        <ele>149.9</ele>
        <time>2020-05-30T16:50:53Z</time>
      </trkpt>
      <trkpt lat="46.55255" lon="0.23992">
        <ele>150</ele>
        <time>2020-05-30T16:50:54Z</time>
      </trkpt>
      <trkpt lat="46.55254" lon="0.23984">
        <ele>150</ele>
        <time>2020-05-30T16:50:55Z</time>
      </trkpt>
      <trkpt lat="46.55254" lon="0.23977">
        <ele>150</ele>
        <time>2020-05-30T16:50:56Z</time>
      </trkpt>
      <trkpt lat="46.55253" lon="0.23969">
        <ele>150</ele>
        <time>2020-05-30T16:50:57Z</time>
      </trkpt>
      <trkpt lat="46.55251" lon="0.23962">
        <ele>150</ele>
        <time>2020-05-30T16:50:58Z</time>
      </trkpt>
      <trkpt lat="46.55249" lon="0.23954">
        <ele>150</ele>
        <time>2020-05-30T16:50:59Z</time>
      </trkpt>
      <trkpt lat="46.55248" lon="0.23946">
        <ele>150</ele>
        <time>2020-05-30T16:51:00Z</time>
      </trkpt>
      <trkpt lat="46.55246" lon="0.23939">
        <ele>150</ele>
        <time>2020-05-30T16:51:01Z</time>
      </trkpt>
      <trkpt lat="46.55244" lon="0.23931">
        <ele>150</ele>
        <time>2020-05-30T16:51:02Z</time>
      </trkpt>
      <trkpt lat="46.55243" lon="0.23923">
        <ele>150</ele>
        <time>2020-05-30T16:51:03Z</time>
      </trkpt>
      <trkpt lat="46.55242" lon="0.23915">
        <ele>150</ele>
        <time>2020-05-30T16:51:04Z</time>
      </trkpt>
      <trkpt lat="46.55241" lon="0.23907">
        <ele>150</ele>
        <time>2020-05-30T16:51:05Z</time>
      </trkpt>
      <trkpt lat="46.5524" lon="0.23898">
        <ele>150</ele>
        <time>2020-05-30T16:51:06Z</time>
      </trkpt>
      <trkpt lat="46.55238" lon="0.2389">
        <ele>150</ele>
        <time>2020-05-30T16:51:07Z</time>
      </trkpt>
      <trkpt lat="46.55236" lon="0.23881">
        <ele>150</ele>
        <time>2020-05-30T16:51:08Z</time>
      </trkpt>
      <trkpt lat="46.55235" lon="0.23873">
        <ele>150</ele>
        <time>2020-05-30T16:51:09Z</time>
      </trkpt>
      <trkpt lat="46.55234" lon="0.23864">
        <ele>150</ele>
        <time>2020-05-30T16:51:10Z</time>
      </trkpt>
      <trkpt lat="46.55232" lon="0.23855">
        <ele>150</ele>
        <time>2020-05-30T16:51:11Z</time>
      </trkpt>
      <trkpt lat="46.55232" lon="0.23846">
        <ele>150</ele>
        <time>2020-05-30T16:51:12Z</time>
      </trkpt>
      <trkpt lat="46.55232" lon="0.23838">
        <ele>150</ele>
        <time>2020-05-30T16:51:13Z</time>
      </trkpt>
      <trkpt lat="46.55233" lon="0.23829">
        <ele>150</ele>
        <time>2020-05-30T16:51:14Z</time>
      </trkpt>
      <trkpt lat="46.55233" lon="0.2382">
        <ele>150</ele>
        <time>2020-05-30T16:51:15Z</time>
      </trkpt>
      <trkpt lat="46.55233" lon="0.23812">
        <ele>149.9</ele>
        <time>2020-05-30T16:51:16Z</time>
      </trkpt>
      <trkpt lat="46.55234" lon="0.23803">
        <ele>149.9</ele>
        <time>2020-05-30T16:51:17Z</time>
      </trkpt>
      <trkpt lat="46.55233" lon="0.23794">
        <ele>149.9</ele>
        <time>2020-05-30T16:51:18Z</time>
      </trkpt>
      <trkpt lat="46.55233" lon="0.23785">
        <ele>149.8</ele>
        <time>2020-05-30T16:51:19Z</time>
      </trkpt>
      <trkpt lat="46.55233" lon="0.23776">
        <ele>149.8</ele>
        <time>2020-05-30T16:51:20Z</time>
      </trkpt>
      <trkpt lat="46.55232" lon="0.23767">
        <ele>149.8</ele>
        <time>2020-05-30T16:51:21Z</time>
      </trkpt>
      <trkpt lat="46.55232" lon="0.23758">
        <ele>149.7</ele>
        <time>2020-05-30T16:51:22Z</time>
      </trkpt>
      <trkpt lat="46.55232" lon="0.23748">
        <ele>149.7</ele>
        <time>2020-05-30T16:51:23Z</time>
      </trkpt>
      <trkpt lat="46.55233" lon="0.23739">
        <ele>149.7</ele>
        <time>2020-05-30T16:51:24Z</time>
      </trkpt>
      <trkpt lat="46.55233" lon="0.23731">
        <ele>149.7</ele>
        <time>2020-05-30T16:51:25Z</time>
      </trkpt>
      <trkpt lat="46.55232" lon="0.23722">
        <ele>149.7</ele>
        <time>2020-05-30T16:51:26Z</time>
      </trkpt>
      <trkpt lat="46.55231" lon="0.23714">
        <ele>149.7</ele>
        <time>2020-05-30T16:51:27Z</time>
      </trkpt>
      <trkpt lat="46.5523" lon="0.23705">
        <ele>149.7</ele>
        <time>2020-05-30T16:51:28Z</time>
      </trkpt>
      <trkpt lat="46.55229" lon="0.23695">
        <ele>149.7</ele>
        <time>2020-05-30T16:51:29Z</time>
      </trkpt>
      <trkpt lat="46.55228" lon="0.23686">
        <ele>149.7</ele>
        <time>2020-05-30T16:51:30Z</time>
      </trkpt>
      <trkpt lat="46.55227" lon="0.23678">
        <ele>149.7</ele>
        <time>2020-05-30T16:51:31Z</time>
      </trkpt>
      <trkpt lat="46.55226" lon="0.23669">
        <ele>149.7</ele>
        <time>2020-05-30T16:51:32Z</time>
      </trkpt>
      <trkpt lat="46.55225" lon="0.2366">
        <ele>149.8</ele>
        <time>2020-05-30T16:51:33Z</time>
      </trkpt>
      <trkpt lat="46.55224" lon="0.23651">
        <ele>149.8</ele>
        <time>2020-05-30T16:51:34Z</time>
      </trkpt>
      <trkpt lat="46.55222" lon="0.23642">
        <ele>149.8</ele>
        <time>2020-05-30T16:51:35Z</time>
      </trkpt>
      <trkpt lat="46.55222" lon="0.23633">
        <ele>149.8</ele>
        <time>2020-05-30T16:51:36Z</time>
      </trkpt>
      <trkpt lat="46.5522" lon="0.23625">
        <ele>149.9</ele>
        <time>2020-05-30T16:51:37Z</time>
      </trkpt>
      <trkpt lat="46.55219" lon="0.23616">
        <ele>149.9</ele>
        <time>2020-05-30T16:51:38Z</time>
      </trkpt>
      <trkpt lat="46.55218" lon="0.23607">
        <ele>149.9</ele>
        <time>2020-05-30T16:51:39Z</time>
      </trkpt>
      <trkpt lat="46.55216" lon="0.23598">
        <ele>149.9</ele>
        <time>2020-05-30T16:51:40Z</time>
      </trkpt>
      <trkpt lat="46.55215" lon="0.23589">
        <ele>149.9</ele>
        <time>2020-05-30T16:51:41Z</time>
      </trkpt>
      <trkpt lat="46.55214" lon="0.2358">
        <ele>149.9</ele>
        <time>2020-05-30T16:51:42Z</time>
      </trkpt>
      <trkpt lat="46.55214" lon="0.2357">
        <ele>149.9</ele>
        <time>2020-05-30T16:51:43Z</time>
      </trkpt>
      <trkpt lat="46.55212" lon="0.23561">
        <ele>149.9</ele>
        <time>2020-05-30T16:51:44Z</time>
      </trkpt>
      <trkpt lat="46.55212" lon="0.23552">
        <ele>149.9</ele>
        <time>2020-05-30T16:51:45Z</time>
      </trkpt>
      <trkpt lat="46.55211" lon="0.23543">
        <ele>149.9</ele>
        <time>2020-05-30T16:51:46Z</time>
      </trkpt>
      <trkpt lat="46.55209" lon="0.23534">
        <ele>149.9</ele>
        <time>2020-05-30T16:51:47Z</time>
      </trkpt>
      <trkpt lat="46.55208" lon="0.23524">
        <ele>149.9</ele>
        <time>2020-05-30T16:51:48Z</time>
      </trkpt>
      <trkpt lat="46.55206" lon="0.23515">
        <ele>149.9</ele>
        <time>2020-05-30T16:51:49Z</time>
      </trkpt>
      <trkpt lat="46.55205" lon="0.23506">
        <ele>149.9</ele>
        <time>2020-05-30T16:51:50Z</time>
      </trkpt>
      <trkpt lat="46.55204" lon="0.23497">
        <ele>149.9</ele>
        <time>2020-05-30T16:51:51Z</time>
      </trkpt>
      <trkpt lat="46.55203" lon="0.23488">
        <ele>149.9</ele>
        <time>2020-05-30T16:51:52Z</time>
      </trkpt>
      <trkpt lat="46.55202" lon="0.23479">
        <ele>149.9</ele>
        <time>2020-05-30T16:51:53Z</time>
      </trkpt>
      <trkpt lat="46.552" lon="0.2347">
        <ele>149.9</ele>
        <time>2020-05-30T16:51:54Z</time>
      </trkpt>
      <trkpt lat="46.55199" lon="0.23461">
        <ele>149.9</ele>
        <time>2020-05-30T16:51:55Z</time>
      </trkpt>
      <trkpt lat="46.55198" lon="0.23452">
        <ele>149.9</ele>
        <time>2020-05-30T16:51:56Z</time>
      </trkpt>
      <trkpt lat="46.55196" lon="0.23443">
        <ele>150</ele>
        <time>2020-05-30T16:51:57Z</time>
      </trkpt>
      <trkpt lat="46.55194" lon="0.23434">
        <ele>150</ele>
        <time>2020-05-30T16:51:58Z</time>
      </trkpt>
      <trkpt lat="46.55191" lon="0.23425">
        <ele>150</ele>
        <time>2020-05-30T16:51:59Z</time>
      </trkpt>
      <trkpt lat="46.55189" lon="0.23416">
        <ele>150</ele>
        <time>2020-05-30T16:52:00Z</time>
      </trkpt>
      <trkpt lat="46.55187" lon="0.23407">
        <ele>150</ele>
        <time>2020-05-30T16:52:01Z</time>
      </trkpt>
      <trkpt lat="46.55185" lon="0.23398">
        <ele>150</ele>
        <time>2020-05-30T16:52:02Z</time>
      </trkpt>
      <trkpt lat="46.55182" lon="0.23389">
        <ele>150</ele>
        <time>2020-05-30T16:52:03Z</time>
      </trkpt>
      <trkpt lat="46.55179" lon="0.2338">
        <ele>150</ele>
        <time>2020-05-30T16:52:04Z</time>
      </trkpt>
      <trkpt lat="46.55177" lon="0.23371">
        <ele>150</ele>
        <time>2020-05-30T16:52:05Z</time>
      </trkpt>
      <trkpt lat="46.55174" lon="0.23362">
        <ele>150.1</ele>
        <time>2020-05-30T16:52:06Z</time>
      </trkpt>
      <trkpt lat="46.55172" lon="0.23353">
        <ele>150.1</ele>
        <time>2020-05-30T16:52:07Z</time>
      </trkpt>
      <trkpt lat="46.5517" lon="0.23343">
        <ele>150.1</ele>
        <time>2020-05-30T16:52:08Z</time>
      </trkpt>
      <trkpt lat="46.55167" lon="0.23335">
        <ele>150.1</ele>
        <time>2020-05-30T16:52:09Z</time>
      </trkpt>
      <trkpt lat="46.55164" lon="0.23326">
        <ele>150.1</ele>
        <time>2020-05-30T16:52:10Z</time>
      </trkpt>
      <trkpt lat="46.55163" lon="0.23317">
        <ele>150.1</ele>
        <time>2020-05-30T16:52:11Z</time>
      </trkpt>
      <trkpt lat="46.55161" lon="0.23308">
        <ele>150.2</ele>
        <time>2020-05-30T16:52:12Z</time>
      </trkpt>
      <trkpt lat="46.5516" lon="0.23299">
        <ele>150.2</ele>
        <time>2020-05-30T16:52:13Z</time>
      </trkpt>
      <trkpt lat="46.55159" lon="0.23289">
        <ele>150.2</ele>
        <time>2020-05-30T16:52:14Z</time>
      </trkpt>
      <trkpt lat="46.55157" lon="0.2328">
        <ele>150.2</ele>
        <time>2020-05-30T16:52:15Z</time>
      </trkpt>
      <trkpt lat="46.55155" lon="0.23271">
        <ele>150.2</ele>
        <time>2020-05-30T16:52:16Z</time>
      </trkpt>
      <trkpt lat="46.55153" lon="0.23262">
        <ele>150.3</ele>
        <time>2020-05-30T16:52:17Z</time>
      </trkpt>
      <trkpt lat="46.55151" lon="0.23253">
        <ele>150.3</ele>
        <time>2020-05-30T16:52:18Z</time>
      </trkpt>
      <trkpt lat="46.5515" lon="0.23244">
        <ele>150.3</ele>
        <time>2020-05-30T16:52:19Z</time>
      </trkpt>
      <trkpt lat="46.55149" lon="0.23235">
        <ele>150.3</ele>
        <time>2020-05-30T16:52:20Z</time>
      </trkpt>
      <trkpt lat="46.55147" lon="0.23226">
        <ele>150.3</ele>
        <time>2020-05-30T16:52:21Z</time>
      </trkpt>
      <trkpt lat="46.55147" lon="0.23216">
        <ele>150.3</ele>
        <time>2020-05-30T16:52:22Z</time>
      </trkpt>
      <trkpt lat="46.55145" lon="0.23207">
        <ele>150.3</ele>
        <time>2020-05-30T16:52:23Z</time>
      </trkpt>
      <trkpt lat="46.55144" lon="0.23198">
        <ele>150.3</ele>
        <time>2020-05-30T16:52:24Z</time>
      </trkpt>
      <trkpt lat="46.55142" lon="0.23189">
        <ele>150.3</ele>
        <time>2020-05-30T16:52:25Z</time>
      </trkpt>
      <trkpt lat="46.55141" lon="0.2318">
        <ele>150.3</ele>
        <time>2020-05-30T16:52:26Z</time>
      </trkpt>
      <trkpt lat="46.55139" lon="0.23171">
        <ele>150.3</ele>
        <time>2020-05-30T16:52:27Z</time>
      </trkpt>
      <trkpt lat="46.55138" lon="0.23162">
        <ele>150.4</ele>
        <time>2020-05-30T16:52:28Z</time>
      </trkpt>
      <trkpt lat="46.55136" lon="0.23153">
        <ele>150.4</ele>
        <time>2020-05-30T16:52:29Z</time>
      </trkpt>
      <trkpt lat="46.55135" lon="0.23144">
        <ele>150.4</ele>
        <time>2020-05-30T16:52:30Z</time>
      </trkpt>
      <trkpt lat="46.55134" lon="0.23135">
        <ele>150.4</ele>
        <time>2020-05-30T16:52:31Z</time>
      </trkpt>
      <trkpt lat="46.55132" lon="0.23126">
        <ele>150.4</ele>
        <time>2020-05-30T16:52:32Z</time>
      </trkpt>
      <trkpt lat="46.55132" lon="0.23116">
        <ele>150.3</ele>
        <time>2020-05-30T16:52:33Z</time>
      </trkpt>
      <trkpt lat="46.55132" lon="0.23106">
        <ele>150.3</ele>
        <time>2020-05-30T16:52:34Z</time>
      </trkpt>
      <trkpt lat="46.55131" lon="0.23097">
        <ele>150.3</ele>
        <time>2020-05-30T16:52:35Z</time>
      </trkpt>
      <trkpt lat="46.55131" lon="0.23087">
        <ele>150.3</ele>
        <time>2020-05-30T16:52:36Z</time>
      </trkpt>
      <trkpt lat="46.5513" lon="0.23077">
        <ele>150.3</ele>
        <time>2020-05-30T16:52:37Z</time>
      </trkpt>
      <trkpt lat="46.55129" lon="0.23068">
        <ele>150.2</ele>
        <time>2020-05-30T16:52:38Z</time>
      </trkpt>
      <trkpt lat="46.55127" lon="0.23058">
        <ele>150.2</ele>
        <time>2020-05-30T16:52:39Z</time>
      </trkpt>
      <trkpt lat="46.55127" lon="0.23048">
        <ele>150.2</ele>
        <time>2020-05-30T16:52:40Z</time>
      </trkpt>
      <trkpt lat="46.55128" lon="0.23038">
        <ele>150.1</ele>
        <time>2020-05-30T16:52:41Z</time>
      </trkpt>
      <trkpt lat="46.55126" lon="0.23028">
        <ele>150</ele>
        <time>2020-05-30T16:52:42Z</time>
      </trkpt>
      <trkpt lat="46.55127" lon="0.23018">
        <ele>150</ele>
        <time>2020-05-30T16:52:43Z</time>
      </trkpt>
      <trkpt lat="46.55126" lon="0.23008">
        <ele>149.9</ele>
        <time>2020-05-30T16:52:44Z</time>
      </trkpt>
      <trkpt lat="46.55126" lon="0.22998">
        <ele>149.9</ele>
        <time>2020-05-30T16:52:45Z</time>
      </trkpt>
      <trkpt lat="46.55125" lon="0.22988">
        <ele>149.8</ele>
        <time>2020-05-30T16:52:46Z</time>
      </trkpt>
      <trkpt lat="46.55125" lon="0.22978">
        <ele>149.8</ele>
        <time>2020-05-30T16:52:47Z</time>
      </trkpt>
      <trkpt lat="46.55126" lon="0.22968">
        <ele>149.8</ele>
        <time>2020-05-30T16:52:48Z</time>
      </trkpt>
      <trkpt lat="46.55125" lon="0.22958">
        <ele>149.7</ele>
        <time>2020-05-30T16:52:49Z</time>
      </trkpt>
      <trkpt lat="46.55125" lon="0.22948">
        <ele>149.7</ele>
        <time>2020-05-30T16:52:50Z</time>
      </trkpt>
      <trkpt lat="46.55125" lon="0.22938">
        <ele>149.7</ele>
        <time>2020-05-30T16:52:51Z</time>
      </trkpt>
      <trkpt lat="46.55125" lon="0.22928">
        <ele>149.6</ele>
        <time>2020-05-30T16:52:52Z</time>
      </trkpt>
      <trkpt lat="46.55124" lon="0.22919">
        <ele>149.6</ele>
        <time>2020-05-30T16:52:53Z</time>
      </trkpt>
      <trkpt lat="46.55124" lon="0.22909">
        <ele>149.6</ele>
        <time>2020-05-30T16:52:54Z</time>
      </trkpt>
      <trkpt lat="46.55125" lon="0.22899">
        <ele>149.5</ele>
        <time>2020-05-30T16:52:55Z</time>
      </trkpt>
      <trkpt lat="46.55125" lon="0.22889">
        <ele>149.5</ele>
        <time>2020-05-30T16:52:56Z</time>
      </trkpt>
      <trkpt lat="46.55125" lon="0.22878">
        <ele>149.4</ele>
        <time>2020-05-30T16:52:57Z</time>
      </trkpt>
      <trkpt lat="46.55124" lon="0.22868">
        <ele>149.3</ele>
        <time>2020-05-30T16:52:58Z</time>
      </trkpt>
      <trkpt lat="46.55124" lon="0.22858">
        <ele>149.2</ele>
        <time>2020-05-30T16:52:59Z</time>
      </trkpt>
      <trkpt lat="46.55124" lon="0.22847">
        <ele>149.1</ele>
        <time>2020-05-30T16:53:00Z</time>
      </trkpt>
      <trkpt lat="46.55124" lon="0.22837">
        <ele>149</ele>
        <time>2020-05-30T16:53:01Z</time>
      </trkpt>
      <trkpt lat="46.55124" lon="0.22826">
        <ele>148.9</ele>
        <time>2020-05-30T16:53:02Z</time>
      </trkpt>
      <trkpt lat="46.55124" lon="0.22816">
        <ele>148.9</ele>
        <time>2020-05-30T16:53:03Z</time>
      </trkpt>
      <trkpt lat="46.55124" lon="0.22805">
        <ele>148.8</ele>
        <time>2020-05-30T16:53:04Z</time>
      </trkpt>
      <trkpt lat="46.55124" lon="0.22795">
        <ele>148.8</ele>
        <time>2020-05-30T16:53:05Z</time>
      </trkpt>
      <trkpt lat="46.55124" lon="0.22785">
        <ele>148.7</ele>
        <time>2020-05-30T16:53:06Z</time>
      </trkpt>
      <trkpt lat="46.55124" lon="0.22775">
        <ele>148.7</ele>
        <time>2020-05-30T16:53:07Z</time>
      </trkpt>
      <trkpt lat="46.55124" lon="0.22765">
        <ele>148.7</ele>
        <time>2020-05-30T16:53:08Z</time>
      </trkpt>
      <trkpt lat="46.55124" lon="0.22755">
        <ele>148.7</ele>
        <time>2020-05-30T16:53:09Z</time>
      </trkpt>
      <trkpt lat="46.55124" lon="0.22745">
        <ele>148.6</ele>
        <time>2020-05-30T16:53:10Z</time>
      </trkpt>
      <trkpt lat="46.55124" lon="0.22735">
        <ele>148.6</ele>
        <time>2020-05-30T16:53:11Z</time>
      </trkpt>
      <trkpt lat="46.55124" lon="0.22726">
        <ele>148.6</ele>
        <time>2020-05-30T16:53:12Z</time>
      </trkpt>
      <trkpt lat="46.55124" lon="0.22716">
        <ele>148.6</ele>
        <time>2020-05-30T16:53:13Z</time>
      </trkpt>
      <trkpt lat="46.55124" lon="0.22706">
        <ele>148.5</ele>
        <time>2020-05-30T16:53:14Z</time>
      </trkpt>
      <trkpt lat="46.55123" lon="0.22696">
        <ele>148.5</ele>
        <time>2020-05-30T16:53:15Z</time>
      </trkpt>
      <trkpt lat="46.55122" lon="0.22686">
        <ele>148.4</ele>
        <time>2020-05-30T16:53:16Z</time>
      </trkpt>
      <trkpt lat="46.55122" lon="0.22676">
        <ele>148.2</ele>
        <time>2020-05-30T16:53:17Z</time>
      </trkpt>
      <trkpt lat="46.55122" lon="0.22666">
        <ele>148.1</ele>
        <time>2020-05-30T16:53:18Z</time>
      </trkpt>
      <trkpt lat="46.55122" lon="0.22656">
        <ele>148</ele>
        <time>2020-05-30T16:53:19Z</time>
      </trkpt>
      <trkpt lat="46.55124" lon="0.22646">
        <ele>147.9</ele>
        <time>2020-05-30T16:53:20Z</time>
      </trkpt>
      <trkpt lat="46.55123" lon="0.22636">
        <ele>147.8</ele>
        <time>2020-05-30T16:53:21Z</time>
      </trkpt>
      <trkpt lat="46.55123" lon="0.22627">
        <ele>147.8</ele>
        <time>2020-05-30T16:53:22Z</time>
      </trkpt>
      <trkpt lat="46.55122" lon="0.22617">
        <ele>147.7</ele>
        <time>2020-05-30T16:53:23Z</time>
      </trkpt>
      <trkpt lat="46.55123" lon="0.22608">
        <ele>147.7</ele>
        <time>2020-05-30T16:53:24Z</time>
      </trkpt>
      <trkpt lat="46.55123" lon="0.22598">
        <ele>147.7</ele>
        <time>2020-05-30T16:53:25Z</time>
      </trkpt>
      <trkpt lat="46.55123" lon="0.22588">
        <ele>147.7</ele>
        <time>2020-05-30T16:53:26Z</time>
      </trkpt>
      <trkpt lat="46.55123" lon="0.22578">
        <ele>147.7</ele>
        <time>2020-05-30T16:53:27Z</time>
      </trkpt>
      <trkpt lat="46.55123" lon="0.22568">
        <ele>147.7</ele>
        <time>2020-05-30T16:53:28Z</time>
      </trkpt>
      <trkpt lat="46.55123" lon="0.22559">
        <ele>147.7</ele>
        <time>2020-05-30T16:53:29Z</time>
      </trkpt>
      <trkpt lat="46.55123" lon="0.22549">
        <ele>147.7</ele>
        <time>2020-05-30T16:53:30Z</time>
      </trkpt>
      <trkpt lat="46.55122" lon="0.22539">
        <ele>147.7</ele>
        <time>2020-05-30T16:53:31Z</time>
      </trkpt>
      <trkpt lat="46.55122" lon="0.2253">
        <ele>147.7</ele>
        <time>2020-05-30T16:53:32Z</time>
      </trkpt>
      <trkpt lat="46.55122" lon="0.2252">
        <ele>147.7</ele>
        <time>2020-05-30T16:53:33Z</time>
      </trkpt>
      <trkpt lat="46.55122" lon="0.22511">
        <ele>147.7</ele>
        <time>2020-05-30T16:53:34Z</time>
      </trkpt>
      <trkpt lat="46.55121" lon="0.22501">
        <ele>147.7</ele>
        <time>2020-05-30T16:53:35Z</time>
      </trkpt>
      <trkpt lat="46.55122" lon="0.22492">
        <ele>147.6</ele>
        <time>2020-05-30T16:53:36Z</time>
      </trkpt>
      <trkpt lat="46.55122" lon="0.22483">
        <ele>147.6</ele>
        <time>2020-05-30T16:53:37Z</time>
      </trkpt>
      <trkpt lat="46.55123" lon="0.22473">
        <ele>147.6</ele>
        <time>2020-05-30T16:53:38Z</time>
      </trkpt>
      <trkpt lat="46.55123" lon="0.22463">
        <ele>147.6</ele>
        <time>2020-05-30T16:53:39Z</time>
      </trkpt>
      <trkpt lat="46.55123" lon="0.22454">
        <ele>147.5</ele>
        <time>2020-05-30T16:53:40Z</time>
      </trkpt>
      <trkpt lat="46.55123" lon="0.22444">
        <ele>147.5</ele>
        <time>2020-05-30T16:53:41Z</time>
      </trkpt>
      <trkpt lat="46.55124" lon="0.22434">
        <ele>147.5</ele>
        <time>2020-05-30T16:53:42Z</time>
      </trkpt>
      <trkpt lat="46.55125" lon="0.22423">
        <ele>147.5</ele>
        <time>2020-05-30T16:53:43Z</time>
      </trkpt>
      <trkpt lat="46.55125" lon="0.22412">
        <ele>147.5</ele>
        <time>2020-05-30T16:53:44Z</time>
      </trkpt>
      <trkpt lat="46.55126" lon="0.22401">
        <ele>147.4</ele>
        <time>2020-05-30T16:53:45Z</time>
      </trkpt>
      <trkpt lat="46.55126" lon="0.2239">
        <ele>147.4</ele>
        <time>2020-05-30T16:53:46Z</time>
      </trkpt>
      <trkpt lat="46.55127" lon="0.2238">
        <ele>147.3</ele>
        <time>2020-05-30T16:53:47Z</time>
      </trkpt>
      <trkpt lat="46.55127" lon="0.2237">
        <ele>147.3</ele>
        <time>2020-05-30T16:53:48Z</time>
      </trkpt>
      <trkpt lat="46.55129" lon="0.2236">
        <ele>147.2</ele>
        <time>2020-05-30T16:53:49Z</time>
      </trkpt>
      <trkpt lat="46.55129" lon="0.2235">
        <ele>147.2</ele>
        <time>2020-05-30T16:53:50Z</time>
      </trkpt>
      <trkpt lat="46.5513" lon="0.2234">
        <ele>147.1</ele>
        <time>2020-05-30T16:53:51Z</time>
      </trkpt>
      <trkpt lat="46.55129" lon="0.2233">
        <ele>147.1</ele>
        <time>2020-05-30T16:53:52Z</time>
      </trkpt>
      <trkpt lat="46.55129" lon="0.2232">
        <ele>147.1</ele>
        <time>2020-05-30T16:53:53Z</time>
      </trkpt>
      <trkpt lat="46.55129" lon="0.22311">
        <ele>147</ele>
        <time>2020-05-30T16:53:54Z</time>
      </trkpt>
      <trkpt lat="46.55129" lon="0.22301">
        <ele>147</ele>
        <time>2020-05-30T16:53:55Z</time>
      </trkpt>
      <trkpt lat="46.5513" lon="0.22292">
        <ele>147</ele>
        <time>2020-05-30T16:53:56Z</time>
      </trkpt>
      <trkpt lat="46.55129" lon="0.22282">
        <ele>147</ele>
        <time>2020-05-30T16:53:57Z</time>
      </trkpt>
      <trkpt lat="46.55129" lon="0.22273">
        <ele>147</ele>
        <time>2020-05-30T16:53:58Z</time>
      </trkpt>
      <trkpt lat="46.55129" lon="0.22263">
        <ele>147</ele>
        <time>2020-05-30T16:53:59Z</time>
      </trkpt>
      <trkpt lat="46.55128" lon="0.22254">
        <ele>147</ele>
        <time>2020-05-30T16:54:00Z</time>
      </trkpt>
      <trkpt lat="46.55128" lon="0.22245">
        <ele>146.9</ele>
        <time>2020-05-30T16:54:01Z</time>
      </trkpt>
      <trkpt lat="46.55129" lon="0.22235">
        <ele>146.9</ele>
        <time>2020-05-30T16:54:02Z</time>
      </trkpt>
      <trkpt lat="46.55129" lon="0.22225">
        <ele>146.9</ele>
        <time>2020-05-30T16:54:03Z</time>
      </trkpt>
      <trkpt lat="46.5513" lon="0.22216">
        <ele>146.8</ele>
        <time>2020-05-30T16:54:04Z</time>
      </trkpt>
      <trkpt lat="46.55129" lon="0.22207">
        <ele>146.8</ele>
        <time>2020-05-30T16:54:05Z</time>
      </trkpt>
      <trkpt lat="46.5513" lon="0.22198">
        <ele>146.8</ele>
        <time>2020-05-30T16:54:06Z</time>
      </trkpt>
      <trkpt lat="46.5513" lon="0.22188">
        <ele>146.8</ele>
        <time>2020-05-30T16:54:07Z</time>
      </trkpt>
      <trkpt lat="46.5513" lon="0.22178">
        <ele>146.8</ele>
        <time>2020-05-30T16:54:08Z</time>
      </trkpt>
      <trkpt lat="46.5513" lon="0.22169">
        <ele>146.7</ele>
        <time>2020-05-30T16:54:09Z</time>
      </trkpt>
      <trkpt lat="46.55131" lon="0.22159">
        <ele>146.7</ele>
        <time>2020-05-30T16:54:10Z</time>
      </trkpt>
      <trkpt lat="46.55132" lon="0.22149">
        <ele>146.7</ele>
        <time>2020-05-30T16:54:11Z</time>
      </trkpt>
      <trkpt lat="46.55133" lon="0.2214">
        <ele>146.7</ele>
        <time>2020-05-30T16:54:12Z</time>
      </trkpt>
      <trkpt lat="46.55133" lon="0.2213">
        <ele>146.7</ele>
        <time>2020-05-30T16:54:13Z</time>
      </trkpt>
      <trkpt lat="46.55133" lon="0.2212">
        <ele>146.7</ele>
        <time>2020-05-30T16:54:14Z</time>
      </trkpt>
      <trkpt lat="46.55134" lon="0.2211">
        <ele>146.6</ele>
        <time>2020-05-30T16:54:15Z</time>
      </trkpt>
      <trkpt lat="46.55134" lon="0.221">
        <ele>146.6</ele>
        <time>2020-05-30T16:54:16Z</time>
      </trkpt>
      <trkpt lat="46.55135" lon="0.2209">
        <ele>146.5</ele>
        <time>2020-05-30T16:54:17Z</time>
      </trkpt>
      <trkpt lat="46.55135" lon="0.2208">
        <ele>146.5</ele>
        <time>2020-05-30T16:54:18Z</time>
      </trkpt>
      <trkpt lat="46.55135" lon="0.2207">
        <ele>146.4</ele>
        <time>2020-05-30T16:54:19Z</time>
      </trkpt>
      <trkpt lat="46.55135" lon="0.2206">
        <ele>146.3</ele>
        <time>2020-05-30T16:54:20Z</time>
      </trkpt>
      <trkpt lat="46.55134" lon="0.22051">
        <ele>146.1</ele>
        <time>2020-05-30T16:54:21Z</time>
      </trkpt>
      <trkpt lat="46.55134" lon="0.22041">
        <ele>146.1</ele>
        <time>2020-05-30T16:54:22Z</time>
      </trkpt>
      <trkpt lat="46.55133" lon="0.22031">
        <ele>146</ele>
        <time>2020-05-30T16:54:23Z</time>
      </trkpt>
      <trkpt lat="46.55133" lon="0.22021">
        <ele>145.9</ele>
        <time>2020-05-30T16:54:24Z</time>
      </trkpt>
      <trkpt lat="46.55132" lon="0.22011">
        <ele>145.9</ele>
        <time>2020-05-30T16:54:25Z</time>
      </trkpt>
      <trkpt lat="46.55132" lon="0.22">
        <ele>145.9</ele>
        <time>2020-05-30T16:54:26Z</time>
      </trkpt>
      <trkpt lat="46.5513" lon="0.2199">
        <ele>145.9</ele>
        <time>2020-05-30T16:54:27Z</time>
      </trkpt>
      <trkpt lat="46.55129" lon="0.21979">
        <ele>145.9</ele>
        <time>2020-05-30T16:54:28Z</time>
      </trkpt>
      <trkpt lat="46.55128" lon="0.21969">
        <ele>145.9</ele>
        <time>2020-05-30T16:54:29Z</time>
      </trkpt>
      <trkpt lat="46.55126" lon="0.21958">
        <ele>145.9</ele>
        <time>2020-05-30T16:54:30Z</time>
      </trkpt>
      <trkpt lat="46.55124" lon="0.21947">
        <ele>145.9</ele>
        <time>2020-05-30T16:54:31Z</time>
      </trkpt>
      <trkpt lat="46.55122" lon="0.21936">
        <ele>145.9</ele>
        <time>2020-05-30T16:54:32Z</time>
      </trkpt>
      <trkpt lat="46.5512" lon="0.21925">
        <ele>145.9</ele>
        <time>2020-05-30T16:54:33Z</time>
      </trkpt>
      <trkpt lat="46.55118" lon="0.21914">
        <ele>145.9</ele>
        <time>2020-05-30T16:54:34Z</time>
      </trkpt>
      <trkpt lat="46.55116" lon="0.21903">
        <ele>145.9</ele>
        <time>2020-05-30T16:54:35Z</time>
      </trkpt>
      <trkpt lat="46.55113" lon="0.21892">
        <ele>145.8</ele>
        <time>2020-05-30T16:54:36Z</time>
      </trkpt>
      <trkpt lat="46.55111" lon="0.21881">
        <ele>145.8</ele>
        <time>2020-05-30T16:54:37Z</time>
      </trkpt>
      <trkpt lat="46.55109" lon="0.21869">
        <ele>145.6</ele>
        <time>2020-05-30T16:54:38Z</time>
      </trkpt>
      <trkpt lat="46.55106" lon="0.21858">
        <ele>145.5</ele>
        <time>2020-05-30T16:54:39Z</time>
      </trkpt>
      <trkpt lat="46.55104" lon="0.21846">
        <ele>145.3</ele>
        <time>2020-05-30T16:54:40Z</time>
      </trkpt>
      <trkpt lat="46.55102" lon="0.21833">
        <ele>145.1</ele>
        <time>2020-05-30T16:54:41Z</time>
      </trkpt>
      <trkpt lat="46.551" lon="0.21821">
        <ele>145</ele>
        <time>2020-05-30T16:54:42Z</time>
      </trkpt>
      <trkpt lat="46.55098" lon="0.21809">
        <ele>144.8</ele>
        <time>2020-05-30T16:54:43Z</time>
      </trkpt>
      <trkpt lat="46.55096" lon="0.21797">
        <ele>144.7</ele>
        <time>2020-05-30T16:54:44Z</time>
      </trkpt>
      <trkpt lat="46.55093" lon="0.21786">
        <ele>144.5</ele>
        <time>2020-05-30T16:54:45Z</time>
      </trkpt>
      <trkpt lat="46.5509" lon="0.21774">
        <ele>144.3</ele>
        <time>2020-05-30T16:54:46Z</time>
      </trkpt>
      <trkpt lat="46.55086" lon="0.21764">
        <ele>144.1</ele>
        <time>2020-05-30T16:54:47Z</time>
      </trkpt>
      <trkpt lat="46.55082" lon="0.21754">
        <ele>143.9</ele>
        <time>2020-05-30T16:54:48Z</time>
      </trkpt>
      <trkpt lat="46.55078" lon="0.21743">
        <ele>143.7</ele>
        <time>2020-05-30T16:54:49Z</time>
      </trkpt>
      <trkpt lat="46.55073" lon="0.21732">
        <ele>143.4</ele>
        <time>2020-05-30T16:54:50Z</time>
      </trkpt>
      <trkpt lat="46.55066" lon="0.21723">
        <ele>143.1</ele>
        <time>2020-05-30T16:54:51Z</time>
      </trkpt>
      <trkpt lat="46.5506" lon="0.21713">
        <ele>142.7</ele>
        <time>2020-05-30T16:54:52Z</time>
      </trkpt>
      <trkpt lat="46.55054" lon="0.21703">
        <ele>142.2</ele>
        <time>2020-05-30T16:54:53Z</time>
      </trkpt>
      <trkpt lat="46.55048" lon="0.21693">
        <ele>141.7</ele>
        <time>2020-05-30T16:54:54Z</time>
      </trkpt>
      <trkpt lat="46.55041" lon="0.21683">
        <ele>141.1</ele>
        <time>2020-05-30T16:54:55Z</time>
      </trkpt>
      <trkpt lat="46.55035" lon="0.21673">
        <ele>140.4</ele>
        <time>2020-05-30T16:54:56Z</time>
      </trkpt>
      <trkpt lat="46.55029" lon="0.21663">
        <ele>139.8</ele>
        <time>2020-05-30T16:54:57Z</time>
      </trkpt>
      <trkpt lat="46.55022" lon="0.21652">
        <ele>139.2</ele>
        <time>2020-05-30T16:54:58Z</time>
      </trkpt>
      <trkpt lat="46.55016" lon="0.21641">
        <ele>138.6</ele>
        <time>2020-05-30T16:54:59Z</time>
      </trkpt>
      <trkpt lat="46.55011" lon="0.21629">
        <ele>138</ele>
        <time>2020-05-30T16:55:00Z</time>
      </trkpt>
      <trkpt lat="46.55007" lon="0.21615">
        <ele>137.6</ele>
        <time>2020-05-30T16:55:01Z</time>
      </trkpt>
      <trkpt lat="46.55005" lon="0.216">
        <ele>137.1</ele>
        <time>2020-05-30T16:55:02Z</time>
      </trkpt>
      <trkpt lat="46.55006" lon="0.21584">
        <ele>136.4</ele>
        <time>2020-05-30T16:55:03Z</time>
      </trkpt>
      <trkpt lat="46.55006" lon="0.21567">
        <ele>135.4</ele>
        <time>2020-05-30T16:55:04Z</time>
      </trkpt>
      <trkpt lat="46.55007" lon="0.21549">
        <ele>134.3</ele>
        <time>2020-05-30T16:55:05Z</time>
      </trkpt>
      <trkpt lat="46.55009" lon="0.21531">
        <ele>133.3</ele>
        <time>2020-05-30T16:55:06Z</time>
      </trkpt>
      <trkpt lat="46.55012" lon="0.21513">
        <ele>132.3</ele>
        <time>2020-05-30T16:55:07Z</time>
      </trkpt>
      <trkpt lat="46.55014" lon="0.21495">
        <ele>131.7</ele>
        <time>2020-05-30T16:55:08Z</time>
      </trkpt>
      <trkpt lat="46.55014" lon="0.21475">
        <ele>131.3</ele>
        <time>2020-05-30T16:55:09Z</time>
      </trkpt>
      <trkpt lat="46.55014" lon="0.21455">
        <ele>130.5</ele>
        <time>2020-05-30T16:55:10Z</time>
      </trkpt>
      <trkpt lat="46.55012" lon="0.21435">
        <ele>129.3</ele>
        <time>2020-05-30T16:55:11Z</time>
      </trkpt>
      <trkpt lat="46.5501" lon="0.21415">
        <ele>128.1</ele>
        <time>2020-05-30T16:55:12Z</time>
      </trkpt>
      <trkpt lat="46.55008" lon="0.21394">
        <ele>127</ele>
        <time>2020-05-30T16:55:13Z</time>
      </trkpt>
      <trkpt lat="46.55005" lon="0.21373">
        <ele>126</ele>
        <time>2020-05-30T16:55:14Z</time>
      </trkpt>
      <trkpt lat="46.55002" lon="0.21353">
        <ele>125.1</ele>
        <time>2020-05-30T16:55:15Z</time>
      </trkpt>
      <trkpt lat="46.54997" lon="0.21333">
        <ele>124.2</ele>
        <time>2020-05-30T16:55:16Z</time>
      </trkpt>
      <trkpt lat="46.54994" lon="0.21312">
        <ele>123.6</ele>
        <time>2020-05-30T16:55:17Z</time>
      </trkpt>
      <trkpt lat="46.54989" lon="0.21292">
        <ele>123</ele>
        <time>2020-05-30T16:55:18Z</time>
      </trkpt>
      <trkpt lat="46.54985" lon="0.21272">
        <ele>122.6</ele>
        <time>2020-05-30T16:55:19Z</time>
      </trkpt>
      <trkpt lat="46.5498" lon="0.21253">
        <ele>122.3</ele>
        <time>2020-05-30T16:55:20Z</time>
      </trkpt>
      <trkpt lat="46.54975" lon="0.21233">
        <ele>122</ele>
        <time>2020-05-30T16:55:21Z</time>
      </trkpt>
      <trkpt lat="46.5497" lon="0.21214">
        <ele>121.9</ele>
        <time>2020-05-30T16:55:22Z</time>
      </trkpt>
      <trkpt lat="46.54966" lon="0.21196">
        <ele>121.7</ele>
        <time>2020-05-30T16:55:23Z</time>
      </trkpt>
      <trkpt lat="46.54962" lon="0.21178">
        <ele>121.6</ele>
        <time>2020-05-30T16:55:24Z</time>
      </trkpt>
      <trkpt lat="46.54959" lon="0.2116">
        <ele>121.7</ele>
        <time>2020-05-30T16:55:25Z</time>
      </trkpt>
      <trkpt lat="46.54956" lon="0.21143">
        <ele>121.8</ele>
        <time>2020-05-30T16:55:26Z</time>
      </trkpt>
      <trkpt lat="46.54954" lon="0.21125">
        <ele>121.9</ele>
        <time>2020-05-30T16:55:27Z</time>
      </trkpt>
      <trkpt lat="46.54954" lon="0.21108">
        <ele>122.1</ele>
        <time>2020-05-30T16:55:28Z</time>
      </trkpt>
      <trkpt lat="46.54955" lon="0.21091">
        <ele>122.4</ele>
        <time>2020-05-30T16:55:29Z</time>
      </trkpt>
      <trkpt lat="46.54957" lon="0.21075">
        <ele>122.7</ele>
        <time>2020-05-30T16:55:30Z</time>
      </trkpt>
      <trkpt lat="46.54958" lon="0.21059">
        <ele>123</ele>
        <time>2020-05-30T16:55:31Z</time>
      </trkpt>
      <trkpt lat="46.54958" lon="0.21044">
        <ele>123.4</ele>
        <time>2020-05-30T16:55:32Z</time>
      </trkpt>
      <trkpt lat="46.54958" lon="0.21029">
        <ele>123.8</ele>
        <time>2020-05-30T16:55:33Z</time>
      </trkpt>
      <trkpt lat="46.54956" lon="0.21015">
        <ele>124.2</ele>
        <time>2020-05-30T16:55:34Z</time>
      </trkpt>
      <trkpt lat="46.54954" lon="0.21003">
        <ele>124.5</ele>
        <time>2020-05-30T16:55:35Z</time>
      </trkpt>
      <trkpt lat="46.54952" lon="0.2099">
        <ele>124.7</ele>
        <time>2020-05-30T16:55:36Z</time>
      </trkpt>
      <trkpt lat="46.5495" lon="0.20978">
        <ele>124.7</ele>
        <time>2020-05-30T16:55:37Z</time>
      </trkpt>
      <trkpt lat="46.54948" lon="0.20967">
        <ele>124.9</ele>
        <time>2020-05-30T16:55:38Z</time>
      </trkpt>
      <trkpt lat="46.54944" lon="0.20957">
        <ele>125.2</ele>
        <time>2020-05-30T16:55:39Z</time>
      </trkpt>
      <trkpt lat="46.54941" lon="0.20948">
        <ele>125.5</ele>
        <time>2020-05-30T16:55:40Z</time>
      </trkpt>
      <trkpt lat="46.54939" lon="0.20941">
        <ele>125.8</ele>
        <time>2020-05-30T16:55:41Z</time>
      </trkpt>
      <trkpt lat="46.54937" lon="0.20933">
        <ele>126.1</ele>
        <time>2020-05-30T16:55:42Z</time>
      </trkpt>
      <trkpt lat="46.54935" lon="0.20926">
        <ele>126.4</ele>
        <time>2020-05-30T16:55:43Z</time>
      </trkpt>
      <trkpt lat="46.54934" lon="0.2092">
        <ele>126.6</ele>
        <time>2020-05-30T16:55:44Z</time>
      </trkpt>
      <trkpt lat="46.54931" lon="0.20914">
        <ele>126.9</ele>
        <time>2020-05-30T16:55:45Z</time>
      </trkpt>
      <trkpt lat="46.54929" lon="0.2091">
        <ele>127.1</ele>
        <time>2020-05-30T16:55:46Z</time>
      </trkpt>
      <trkpt lat="46.54928" lon="0.20904">
        <ele>127.3</ele>
        <time>2020-05-30T16:55:47Z</time>
      </trkpt>
      <trkpt lat="46.54928" lon="0.20898">
        <ele>127.5</ele>
        <time>2020-05-30T16:55:48Z</time>
      </trkpt>
      <trkpt lat="46.54927" lon="0.20893">
        <ele>127.7</ele>
        <time>2020-05-30T16:55:49Z</time>
      </trkpt>
      <trkpt lat="46.54925" lon="0.20889">
        <ele>127.9</ele>
        <time>2020-05-30T16:55:50Z</time>
      </trkpt>
      <trkpt lat="46.54923" lon="0.20885">
        <ele>128.1</ele>
        <time>2020-05-30T16:55:51Z</time>
      </trkpt>
      <trkpt lat="46.54923" lon="0.20881">
        <ele>128.2</ele>
        <time>2020-05-30T16:55:52Z</time>
      </trkpt>
      <trkpt lat="46.54922" lon="0.20876">
        <ele>128.4</ele>
        <time>2020-05-30T16:55:53Z</time>
      </trkpt>
      <trkpt lat="46.54921" lon="0.20872">
        <ele>128.5</ele>
        <time>2020-05-30T16:55:54Z</time>
      </trkpt>
      <trkpt lat="46.5492" lon="0.20868">
        <ele>128.6</ele>
        <time>2020-05-30T16:55:55Z</time>
      </trkpt>
      <trkpt lat="46.54918" lon="0.20865">
        <ele>128.7</ele>
        <time>2020-05-30T16:55:56Z</time>
      </trkpt>
      <trkpt lat="46.54917" lon="0.20861">
        <ele>128.9</ele>
        <time>2020-05-30T16:55:57Z</time>
      </trkpt>
      <trkpt lat="46.54917" lon="0.20857">
        <ele>129</ele>
        <time>2020-05-30T16:55:58Z</time>
      </trkpt>
      <trkpt lat="46.54916" lon="0.20853">
        <ele>129.1</ele>
        <time>2020-05-30T16:55:59Z</time>
      </trkpt>
      <trkpt lat="46.54915" lon="0.20849">
        <ele>129.2</ele>
        <time>2020-05-30T16:56:00Z</time>
      </trkpt>
      <trkpt lat="46.54914" lon="0.20845">
        <ele>129.4</ele>
        <time>2020-05-30T16:56:01Z</time>
      </trkpt>
      <trkpt lat="46.54914" lon="0.20841">
        <ele>129.5</ele>
        <time>2020-05-30T16:56:02Z</time>
      </trkpt>
      <trkpt lat="46.54913" lon="0.20836">
        <ele>129.6</ele>
        <time>2020-05-30T16:56:03Z</time>
      </trkpt>
      <trkpt lat="46.54912" lon="0.20832">
        <ele>129.8</ele>
        <time>2020-05-30T16:56:04Z</time>
      </trkpt>
      <trkpt lat="46.54911" lon="0.20828">
        <ele>130</ele>
        <time>2020-05-30T16:56:05Z</time>
      </trkpt>
      <trkpt lat="46.5491" lon="0.20823">
        <ele>130.1</ele>
        <time>2020-05-30T16:56:06Z</time>
      </trkpt>
      <trkpt lat="46.54909" lon="0.20819">
        <ele>130.3</ele>
        <time>2020-05-30T16:56:07Z</time>
      </trkpt>
      <trkpt lat="46.54908" lon="0.20814">
        <ele>130.4</ele>
        <time>2020-05-30T16:56:08Z</time>
      </trkpt>
      <trkpt lat="46.54906" lon="0.2081">
        <ele>130.6</ele>
        <time>2020-05-30T16:56:09Z</time>
      </trkpt>
      <trkpt lat="46.54906" lon="0.20805">
        <ele>130.8</ele>
        <time>2020-05-30T16:56:10Z</time>
      </trkpt>
      <trkpt lat="46.54905" lon="0.208">
        <ele>131</ele>
        <time>2020-05-30T16:56:11Z</time>
      </trkpt>
      <trkpt lat="46.54903" lon="0.20795">
        <ele>131.2</ele>
        <time>2020-05-30T16:56:12Z</time>
      </trkpt>
      <trkpt lat="46.54901" lon="0.2079">
        <ele>131.4</ele>
        <time>2020-05-30T16:56:13Z</time>
      </trkpt>
      <trkpt lat="46.549" lon="0.20785">
        <ele>131.6</ele>
        <time>2020-05-30T16:56:14Z</time>
      </trkpt>
      <trkpt lat="46.54899" lon="0.2078">
        <ele>131.8</ele>
        <time>2020-05-30T16:56:15Z</time>
      </trkpt>
      <trkpt lat="46.54899" lon="0.20775">
        <ele>131.9</ele>
        <time>2020-05-30T16:56:16Z</time>
      </trkpt>
      <trkpt lat="46.54898" lon="0.2077">
        <ele>132.1</ele>
        <time>2020-05-30T16:56:17Z</time>
      </trkpt>
      <trkpt lat="46.54898" lon="0.20765">
        <ele>132.3</ele>
        <time>2020-05-30T16:56:18Z</time>
      </trkpt>
      <trkpt lat="46.54898" lon="0.2076">
        <ele>132.4</ele>
        <time>2020-05-30T16:56:19Z</time>
      </trkpt>
      <trkpt lat="46.54896" lon="0.20755">
        <ele>132.6</ele>
        <time>2020-05-30T16:56:20Z</time>
      </trkpt>
      <trkpt lat="46.54895" lon="0.2075">
        <ele>132.8</ele>
        <time>2020-05-30T16:56:21Z</time>
      </trkpt>
      <trkpt lat="46.54894" lon="0.20745">
        <ele>132.9</ele>
        <time>2020-05-30T16:56:22Z</time>
      </trkpt>
      <trkpt lat="46.54894" lon="0.20741">
        <ele>133.1</ele>
        <time>2020-05-30T16:56:23Z</time>
      </trkpt>
      <trkpt lat="46.54893" lon="0.20736">
        <ele>133.2</ele>
        <time>2020-05-30T16:56:24Z</time>
      </trkpt>
      <trkpt lat="46.54893" lon="0.20731">
        <ele>133.4</ele>
        <time>2020-05-30T16:56:25Z</time>
      </trkpt>
      <trkpt lat="46.54892" lon="0.20726">
        <ele>133.5</ele>
        <time>2020-05-30T16:56:26Z</time>
      </trkpt>
      <trkpt lat="46.54892" lon="0.20721">
        <ele>133.7</ele>
        <time>2020-05-30T16:56:27Z</time>
      </trkpt>
      <trkpt lat="46.54892" lon="0.20716">
        <ele>133.9</ele>
        <time>2020-05-30T16:56:28Z</time>
      </trkpt>
      <trkpt lat="46.54891" lon="0.20713">
        <ele>134.1</ele>
        <time>2020-05-30T16:56:29Z</time>
      </trkpt>
      <trkpt lat="46.54889" lon="0.20708">
        <ele>134.3</ele>
        <time>2020-05-30T16:56:30Z</time>
      </trkpt>
      <trkpt lat="46.54889" lon="0.20706">
        <ele>134.3</ele>
        <time>2020-05-30T16:56:31Z</time>
      </trkpt>
      <trkpt lat="46.54889" lon="0.20702">
        <ele>134.5</ele>
        <time>2020-05-30T16:56:32Z</time>
      </trkpt>
      <trkpt lat="46.54888" lon="0.20698">
        <ele>134.7</ele>
        <time>2020-05-30T16:56:33Z</time>
      </trkpt>
      <trkpt lat="46.54888" lon="0.20691">
        <ele>135</ele>
        <time>2020-05-30T16:56:34Z</time>
      </trkpt>
      <trkpt lat="46.54888" lon="0.20686">
        <ele>135.2</ele>
        <time>2020-05-30T16:56:35Z</time>
      </trkpt>
      <trkpt lat="46.54888" lon="0.2068">
        <ele>135.4</ele>
        <time>2020-05-30T16:56:36Z</time>
      </trkpt>
      <trkpt lat="46.54888" lon="0.20674">
        <ele>135.6</ele>
        <time>2020-05-30T16:56:37Z</time>
      </trkpt>
      <trkpt lat="46.54889" lon="0.20669">
        <ele>135.8</ele>
        <time>2020-05-30T16:56:38Z</time>
      </trkpt>
      <trkpt lat="46.54888" lon="0.20663">
        <ele>136</ele>
        <time>2020-05-30T16:56:39Z</time>
      </trkpt>
      <trkpt lat="46.54887" lon="0.20659">
        <ele>136.1</ele>
        <time>2020-05-30T16:56:40Z</time>
      </trkpt>
      <trkpt lat="46.54886" lon="0.20655">
        <ele>136.3</ele>
        <time>2020-05-30T16:56:41Z</time>
      </trkpt>
      <trkpt lat="46.54885" lon="0.2065">
        <ele>136.4</ele>
        <time>2020-05-30T16:56:42Z</time>
      </trkpt>
      <trkpt lat="46.54885" lon="0.20645">
        <ele>136.6</ele>
        <time>2020-05-30T16:56:43Z</time>
      </trkpt>
      <trkpt lat="46.54885" lon="0.20639">
        <ele>136.8</ele>
        <time>2020-05-30T16:56:44Z</time>
      </trkpt>
      <trkpt lat="46.54884" lon="0.20634">
        <ele>137</ele>
        <time>2020-05-30T16:56:45Z</time>
      </trkpt>
      <trkpt lat="46.54883" lon="0.20629">
        <ele>137.1</ele>
        <time>2020-05-30T16:56:46Z</time>
      </trkpt>
      <trkpt lat="46.54883" lon="0.20625">
        <ele>137.3</ele>
        <time>2020-05-30T16:56:47Z</time>
      </trkpt>
      <trkpt lat="46.54883" lon="0.2062">
        <ele>137.4</ele>
        <time>2020-05-30T16:56:48Z</time>
      </trkpt>
      <trkpt lat="46.54883" lon="0.20613">
        <ele>137.6</ele>
        <time>2020-05-30T16:56:49Z</time>
      </trkpt>
      <trkpt lat="46.54882" lon="0.20607">
        <ele>137.8</ele>
        <time>2020-05-30T16:56:50Z</time>
      </trkpt>
      <trkpt lat="46.54882" lon="0.20604">
        <ele>137.9</ele>
        <time>2020-05-30T16:56:51Z</time>
      </trkpt>
      <trkpt lat="46.54881" lon="0.206">
        <ele>138.1</ele>
        <time>2020-05-30T16:56:52Z</time>
      </trkpt>
      <trkpt lat="46.54881" lon="0.20596">
        <ele>138.2</ele>
        <time>2020-05-30T16:56:53Z</time>
      </trkpt>
      <trkpt lat="46.5488" lon="0.2059">
        <ele>138.4</ele>
        <time>2020-05-30T16:56:54Z</time>
      </trkpt>
      <trkpt lat="46.5488" lon="0.20585">
        <ele>138.6</ele>
        <time>2020-05-30T16:56:55Z</time>
      </trkpt>
      <trkpt lat="46.5488" lon="0.2058">
        <ele>138.7</ele>
        <time>2020-05-30T16:56:56Z</time>
      </trkpt>
      <trkpt lat="46.54879" lon="0.20576">
        <ele>138.9</ele>
        <time>2020-05-30T16:56:57Z</time>
      </trkpt>
      <trkpt lat="46.54879" lon="0.20571">
        <ele>139.1</ele>
        <time>2020-05-30T16:56:58Z</time>
      </trkpt>
      <trkpt lat="46.54878" lon="0.20565">
        <ele>139.3</ele>
        <time>2020-05-30T16:56:59Z</time>
      </trkpt>
      <trkpt lat="46.54877" lon="0.2056">
        <ele>139.4</ele>
        <time>2020-05-30T16:57:00Z</time>
      </trkpt>
      <trkpt lat="46.54876" lon="0.20555">
        <ele>139.5</ele>
        <time>2020-05-30T16:57:01Z</time>
      </trkpt>
      <trkpt lat="46.54875" lon="0.2055">
        <ele>139.7</ele>
        <time>2020-05-30T16:57:02Z</time>
      </trkpt>
      <trkpt lat="46.54874" lon="0.20543">
        <ele>139.8</ele>
        <time>2020-05-30T16:57:03Z</time>
      </trkpt>
      <trkpt lat="46.54874" lon="0.20538">
        <ele>140</ele>
        <time>2020-05-30T16:57:04Z</time>
      </trkpt>
      <trkpt lat="46.54874" lon="0.20533">
        <ele>140.1</ele>
        <time>2020-05-30T16:57:05Z</time>
      </trkpt>
      <trkpt lat="46.54873" lon="0.20527">
        <ele>140.2</ele>
        <time>2020-05-30T16:57:06Z</time>
      </trkpt>
      <trkpt lat="46.54873" lon="0.20522">
        <ele>140.3</ele>
        <time>2020-05-30T16:57:07Z</time>
      </trkpt>
      <trkpt lat="46.54872" lon="0.20516">
        <ele>140.3</ele>
        <time>2020-05-30T16:57:08Z</time>
      </trkpt>
      <trkpt lat="46.54871" lon="0.20513">
        <ele>140.4</ele>
        <time>2020-05-30T16:57:09Z</time>
      </trkpt>
      <trkpt lat="46.54871" lon="0.20507">
        <ele>140.4</ele>
        <time>2020-05-30T16:57:10Z</time>
      </trkpt>
      <trkpt lat="46.54871" lon="0.20502">
        <ele>140.5</ele>
        <time>2020-05-30T16:57:11Z</time>
      </trkpt>
      <trkpt lat="46.5487" lon="0.20498">
        <ele>140.6</ele>
        <time>2020-05-30T16:57:12Z</time>
      </trkpt>
      <trkpt lat="46.54869" lon="0.20492">
        <ele>140.7</ele>
        <time>2020-05-30T16:57:13Z</time>
      </trkpt>
      <trkpt lat="46.54868" lon="0.20484">
        <ele>140.8</ele>
        <time>2020-05-30T16:57:14Z</time>
      </trkpt>
      <trkpt lat="46.54868" lon="0.20479">
        <ele>140.9</ele>
        <time>2020-05-30T16:57:15Z</time>
      </trkpt>
      <trkpt lat="46.54868" lon="0.20473">
        <ele>140.9</ele>
        <time>2020-05-30T16:57:16Z</time>
      </trkpt>
      <trkpt lat="46.54868" lon="0.20469">
        <ele>141</ele>
        <time>2020-05-30T16:57:17Z</time>
      </trkpt>
      <trkpt lat="46.54867" lon="0.20463">
        <ele>141.1</ele>
        <time>2020-05-30T16:57:18Z</time>
      </trkpt>
      <trkpt lat="46.54867" lon="0.20457">
        <ele>141.1</ele>
        <time>2020-05-30T16:57:19Z</time>
      </trkpt>
      <trkpt lat="46.54868" lon="0.20451">
        <ele>141.2</ele>
        <time>2020-05-30T16:57:20Z</time>
      </trkpt>
      <trkpt lat="46.54867" lon="0.20445">
        <ele>141.3</ele>
        <time>2020-05-30T16:57:21Z</time>
      </trkpt>
      <trkpt lat="46.54866" lon="0.20439">
        <ele>141.3</ele>
        <time>2020-05-30T16:57:22Z</time>
      </trkpt>
      <trkpt lat="46.54865" lon="0.20434">
        <ele>141.4</ele>
        <time>2020-05-30T16:57:23Z</time>
      </trkpt>
      <trkpt lat="46.54864" lon="0.20429">
        <ele>141.4</ele>
        <time>2020-05-30T16:57:24Z</time>
      </trkpt>
      <trkpt lat="46.54863" lon="0.20424">
        <ele>141.4</ele>
        <time>2020-05-30T16:57:25Z</time>
      </trkpt>
      <trkpt lat="46.54863" lon="0.20418">
        <ele>141.4</ele>
        <time>2020-05-30T16:57:26Z</time>
      </trkpt>
      <trkpt lat="46.54864" lon="0.20413">
        <ele>141.5</ele>
        <time>2020-05-30T16:57:27Z</time>
      </trkpt>
      <trkpt lat="46.54863" lon="0.20406">
        <ele>141.5</ele>
        <time>2020-05-30T16:57:28Z</time>
      </trkpt>
      <trkpt lat="46.54862" lon="0.20399">
        <ele>141.5</ele>
        <time>2020-05-30T16:57:29Z</time>
      </trkpt>
      <trkpt lat="46.54861" lon="0.20394">
        <ele>141.5</ele>
        <time>2020-05-30T16:57:30Z</time>
      </trkpt>
      <trkpt lat="46.54861" lon="0.20389">
        <ele>141.6</ele>
        <time>2020-05-30T16:57:31Z</time>
      </trkpt>
      <trkpt lat="46.54861" lon="0.20383">
        <ele>141.6</ele>
        <time>2020-05-30T16:57:32Z</time>
      </trkpt>
      <trkpt lat="46.5486" lon="0.20378">
        <ele>141.6</ele>
        <time>2020-05-30T16:57:33Z</time>
      </trkpt>
      <trkpt lat="46.5486" lon="0.20371">
        <ele>141.7</ele>
        <time>2020-05-30T16:57:34Z</time>
      </trkpt>
      <trkpt lat="46.5486" lon="0.20363">
        <ele>141.7</ele>
        <time>2020-05-30T16:57:35Z</time>
      </trkpt>
      <trkpt lat="46.54859" lon="0.20356">
        <ele>141.7</ele>
        <time>2020-05-30T16:57:36Z</time>
      </trkpt>
      <trkpt lat="46.54857" lon="0.20349">
        <ele>141.8</ele>
        <time>2020-05-30T16:57:37Z</time>
      </trkpt>
      <trkpt lat="46.54856" lon="0.20341">
        <ele>141.8</ele>
        <time>2020-05-30T16:57:38Z</time>
      </trkpt>
      <trkpt lat="46.54855" lon="0.20334">
        <ele>141.8</ele>
        <time>2020-05-30T16:57:39Z</time>
      </trkpt>
      <trkpt lat="46.54854" lon="0.20327">
        <ele>141.9</ele>
        <time>2020-05-30T16:57:40Z</time>
      </trkpt>
      <trkpt lat="46.54853" lon="0.2032">
        <ele>141.9</ele>
        <time>2020-05-30T16:57:41Z</time>
      </trkpt>
      <trkpt lat="46.54852" lon="0.20312">
        <ele>141.9</ele>
        <time>2020-05-30T16:57:42Z</time>
      </trkpt>
      <trkpt lat="46.54851" lon="0.20303">
        <ele>141.9</ele>
        <time>2020-05-30T16:57:43Z</time>
      </trkpt>
      <trkpt lat="46.54851" lon="0.20296">
        <ele>141.9</ele>
        <time>2020-05-30T16:57:44Z</time>
      </trkpt>
      <trkpt lat="46.5485" lon="0.20287">
        <ele>142</ele>
        <time>2020-05-30T16:57:45Z</time>
      </trkpt>
      <trkpt lat="46.54849" lon="0.20277">
        <ele>142</ele>
        <time>2020-05-30T16:57:46Z</time>
      </trkpt>
      <trkpt lat="46.5485" lon="0.2027">
        <ele>142</ele>
        <time>2020-05-30T16:57:47Z</time>
      </trkpt>
      <trkpt lat="46.54849" lon="0.2026">
        <ele>142</ele>
        <time>2020-05-30T16:57:48Z</time>
      </trkpt>
      <trkpt lat="46.54848" lon="0.20252">
        <ele>142.1</ele>
        <time>2020-05-30T16:57:49Z</time>
      </trkpt>
      <trkpt lat="46.54848" lon="0.20244">
        <ele>142.1</ele>
        <time>2020-05-30T16:57:50Z</time>
      </trkpt>
      <trkpt lat="46.54847" lon="0.20235">
        <ele>142.1</ele>
        <time>2020-05-30T16:57:51Z</time>
      </trkpt>
      <trkpt lat="46.54847" lon="0.20227">
        <ele>142.1</ele>
        <time>2020-05-30T16:57:52Z</time>
      </trkpt>
      <trkpt lat="46.54848" lon="0.20218">
        <ele>142.2</ele>
        <time>2020-05-30T16:57:53Z</time>
      </trkpt>
      <trkpt lat="46.54848" lon="0.20212">
        <ele>142.2</ele>
        <time>2020-05-30T16:57:54Z</time>
      </trkpt>
      <trkpt lat="46.54847" lon="0.20202">
        <ele>142.2</ele>
        <time>2020-05-30T16:57:55Z</time>
      </trkpt>
      <trkpt lat="46.54847" lon="0.20193">
        <ele>142.2</ele>
        <time>2020-05-30T16:57:56Z</time>
      </trkpt>
      <trkpt lat="46.54847" lon="0.20182">
        <ele>142.3</ele>
        <time>2020-05-30T16:57:57Z</time>
      </trkpt>
      <trkpt lat="46.54846" lon="0.20173">
        <ele>142.3</ele>
        <time>2020-05-30T16:57:58Z</time>
      </trkpt>
      <trkpt lat="46.54846" lon="0.20163">
        <ele>142.3</ele>
        <time>2020-05-30T16:57:59Z</time>
      </trkpt>
      <trkpt lat="46.54846" lon="0.20156">
        <ele>142.3</ele>
        <time>2020-05-30T16:58:00Z</time>
      </trkpt>
      <trkpt lat="46.54847" lon="0.20146">
        <ele>142.3</ele>
        <time>2020-05-30T16:58:01Z</time>
      </trkpt>
      <trkpt lat="46.54847" lon="0.20137">
        <ele>142.4</ele>
        <time>2020-05-30T16:58:02Z</time>
      </trkpt>
      <trkpt lat="46.54846" lon="0.20128">
        <ele>142.4</ele>
        <time>2020-05-30T16:58:03Z</time>
      </trkpt>
      <trkpt lat="46.54846" lon="0.2012">
        <ele>142.4</ele>
        <time>2020-05-30T16:58:04Z</time>
      </trkpt>
      <trkpt lat="46.54846" lon="0.2011">
        <ele>142.4</ele>
        <time>2020-05-30T16:58:05Z</time>
      </trkpt>
      <trkpt lat="46.54846" lon="0.201">
        <ele>142.5</ele>
        <time>2020-05-30T16:58:06Z</time>
      </trkpt>
      <trkpt lat="46.54845" lon="0.2009">
        <ele>142.5</ele>
        <time>2020-05-30T16:58:07Z</time>
      </trkpt>
      <trkpt lat="46.54845" lon="0.20082">
        <ele>142.5</ele>
        <time>2020-05-30T16:58:08Z</time>
      </trkpt>
      <trkpt lat="46.54845" lon="0.20073">
        <ele>142.5</ele>
        <time>2020-05-30T16:58:09Z</time>
      </trkpt>
      <trkpt lat="46.54844" lon="0.20064">
        <ele>142.5</ele>
        <time>2020-05-30T16:58:10Z</time>
      </trkpt>
      <trkpt lat="46.54843" lon="0.20054">
        <ele>142.6</ele>
        <time>2020-05-30T16:58:11Z</time>
      </trkpt>
      <trkpt lat="46.54843" lon="0.20045">
        <ele>142.6</ele>
        <time>2020-05-30T16:58:12Z</time>
      </trkpt>
      <trkpt lat="46.54842" lon="0.20037">
        <ele>142.6</ele>
        <time>2020-05-30T16:58:13Z</time>
      </trkpt>
      <trkpt lat="46.54842" lon="0.20028">
        <ele>142.6</ele>
        <time>2020-05-30T16:58:14Z</time>
      </trkpt>
      <trkpt lat="46.54841" lon="0.20018">
        <ele>142.6</ele>
        <time>2020-05-30T16:58:15Z</time>
      </trkpt>
      <trkpt lat="46.5484" lon="0.20007">
        <ele>142.6</ele>
        <time>2020-05-30T16:58:16Z</time>
      </trkpt>
      <trkpt lat="46.54838" lon="0.19997">
        <ele>142.6</ele>
        <time>2020-05-30T16:58:17Z</time>
      </trkpt>
      <trkpt lat="46.54838" lon="0.19988">
        <ele>142.7</ele>
        <time>2020-05-30T16:58:18Z</time>
      </trkpt>
      <trkpt lat="46.54837" lon="0.19979">
        <ele>142.7</ele>
        <time>2020-05-30T16:58:19Z</time>
      </trkpt>
      <trkpt lat="46.54836" lon="0.19969">
        <ele>142.7</ele>
        <time>2020-05-30T16:58:20Z</time>
      </trkpt>
      <trkpt lat="46.54835" lon="0.1996">
        <ele>142.7</ele>
        <time>2020-05-30T16:58:21Z</time>
      </trkpt>
      <trkpt lat="46.54835" lon="0.1995">
        <ele>142.8</ele>
        <time>2020-05-30T16:58:22Z</time>
      </trkpt>
      <trkpt lat="46.54833" lon="0.19941">
        <ele>142.8</ele>
        <time>2020-05-30T16:58:23Z</time>
      </trkpt>
      <trkpt lat="46.54833" lon="0.19932">
        <ele>142.8</ele>
        <time>2020-05-30T16:58:24Z</time>
      </trkpt>
      <trkpt lat="46.54832" lon="0.19922">
        <ele>142.9</ele>
        <time>2020-05-30T16:58:25Z</time>
      </trkpt>
      <trkpt lat="46.54831" lon="0.19912">
        <ele>142.9</ele>
        <time>2020-05-30T16:58:26Z</time>
      </trkpt>
      <trkpt lat="46.54829" lon="0.19903">
        <ele>142.9</ele>
        <time>2020-05-30T16:58:27Z</time>
      </trkpt>
      <trkpt lat="46.54829" lon="0.19893">
        <ele>143</ele>
        <time>2020-05-30T16:58:28Z</time>
      </trkpt>
      <trkpt lat="46.54828" lon="0.19883">
        <ele>143</ele>
        <time>2020-05-30T16:58:29Z</time>
      </trkpt>
      <trkpt lat="46.54827" lon="0.19873">
        <ele>143</ele>
        <time>2020-05-30T16:58:30Z</time>
      </trkpt>
      <trkpt lat="46.54826" lon="0.19863">
        <ele>143</ele>
        <time>2020-05-30T16:58:31Z</time>
      </trkpt>
      <trkpt lat="46.54825" lon="0.19854">
        <ele>143.1</ele>
        <time>2020-05-30T16:58:32Z</time>
      </trkpt>
      <trkpt lat="46.54825" lon="0.19844">
        <ele>143.1</ele>
        <time>2020-05-30T16:58:33Z</time>
      </trkpt>
      <trkpt lat="46.54823" lon="0.19835">
        <ele>143.1</ele>
        <time>2020-05-30T16:58:34Z</time>
      </trkpt>
      <trkpt lat="46.54823" lon="0.19825">
        <ele>143.2</ele>
        <time>2020-05-30T16:58:35Z</time>
      </trkpt>
      <trkpt lat="46.54821" lon="0.19816">
        <ele>143.2</ele>
        <time>2020-05-30T16:58:36Z</time>
      </trkpt>
      <trkpt lat="46.5482" lon="0.19806">
        <ele>143.2</ele>
        <time>2020-05-30T16:58:37Z</time>
      </trkpt>
      <trkpt lat="46.54819" lon="0.19796">
        <ele>143.3</ele>
        <time>2020-05-30T16:58:38Z</time>
      </trkpt>
      <trkpt lat="46.54818" lon="0.19786">
        <ele>143.3</ele>
        <time>2020-05-30T16:58:39Z</time>
      </trkpt>
      <trkpt lat="46.54819" lon="0.19776">
        <ele>143.4</ele>
        <time>2020-05-30T16:58:40Z</time>
      </trkpt>
      <trkpt lat="46.54818" lon="0.19767">
        <ele>143.4</ele>
        <time>2020-05-30T16:58:41Z</time>
      </trkpt>
      <trkpt lat="46.54818" lon="0.19757">
        <ele>143.5</ele>
        <time>2020-05-30T16:58:42Z</time>
      </trkpt>
      <trkpt lat="46.54817" lon="0.19748">
        <ele>143.7</ele>
        <time>2020-05-30T16:58:43Z</time>
      </trkpt>
      <trkpt lat="46.54816" lon="0.19739">
        <ele>143.8</ele>
        <time>2020-05-30T16:58:44Z</time>
      </trkpt>
      <trkpt lat="46.54816" lon="0.19729">
        <ele>143.9</ele>
        <time>2020-05-30T16:58:45Z</time>
      </trkpt>
      <trkpt lat="46.54815" lon="0.1972">
        <ele>144</ele>
        <time>2020-05-30T16:58:46Z</time>
      </trkpt>
      <trkpt lat="46.54815" lon="0.19711">
        <ele>144.1</ele>
        <time>2020-05-30T16:58:47Z</time>
      </trkpt>
      <trkpt lat="46.54814" lon="0.19703">
        <ele>144.2</ele>
        <time>2020-05-30T16:58:48Z</time>
      </trkpt>
      <trkpt lat="46.54813" lon="0.19694">
        <ele>144.3</ele>
        <time>2020-05-30T16:58:49Z</time>
      </trkpt>
      <trkpt lat="46.54812" lon="0.19686">
        <ele>144.4</ele>
        <time>2020-05-30T16:58:50Z</time>
      </trkpt>
      <trkpt lat="46.54811" lon="0.19679">
        <ele>144.5</ele>
        <time>2020-05-30T16:58:51Z</time>
      </trkpt>
      <trkpt lat="46.5481" lon="0.1967">
        <ele>144.6</ele>
        <time>2020-05-30T16:58:52Z</time>
      </trkpt>
      <trkpt lat="46.54809" lon="0.19662">
        <ele>144.7</ele>
        <time>2020-05-30T16:58:53Z</time>
      </trkpt>
      <trkpt lat="46.54807" lon="0.19654">
        <ele>144.8</ele>
        <time>2020-05-30T16:58:54Z</time>
      </trkpt>
      <trkpt lat="46.54805" lon="0.19645">
        <ele>144.9</ele>
        <time>2020-05-30T16:58:55Z</time>
      </trkpt>
      <trkpt lat="46.54804" lon="0.19637">
        <ele>145</ele>
        <time>2020-05-30T16:58:56Z</time>
      </trkpt>
      <trkpt lat="46.54803" lon="0.19629">
        <ele>145.1</ele>
        <time>2020-05-30T16:58:57Z</time>
      </trkpt>
      <trkpt lat="46.54802" lon="0.19622">
        <ele>145.2</ele>
        <time>2020-05-30T16:58:58Z</time>
      </trkpt>
      <trkpt lat="46.54801" lon="0.19614">
        <ele>145.3</ele>
        <time>2020-05-30T16:58:59Z</time>
      </trkpt>
      <trkpt lat="46.548" lon="0.19605">
        <ele>145.4</ele>
        <time>2020-05-30T16:59:00Z</time>
      </trkpt>
      <trkpt lat="46.54799" lon="0.19596">
        <ele>145.6</ele>
        <time>2020-05-30T16:59:01Z</time>
      </trkpt>
      <trkpt lat="46.54796" lon="0.19587">
        <ele>145.7</ele>
        <time>2020-05-30T16:59:02Z</time>
      </trkpt>
      <trkpt lat="46.54795" lon="0.1958">
        <ele>145.8</ele>
        <time>2020-05-30T16:59:03Z</time>
      </trkpt>
      <trkpt lat="46.54793" lon="0.1957">
        <ele>145.9</ele>
        <time>2020-05-30T16:59:04Z</time>
      </trkpt>
      <trkpt lat="46.54791" lon="0.19561">
        <ele>146</ele>
        <time>2020-05-30T16:59:05Z</time>
      </trkpt>
      <trkpt lat="46.5479" lon="0.19552">
        <ele>146.1</ele>
        <time>2020-05-30T16:59:06Z</time>
      </trkpt>
      <trkpt lat="46.54789" lon="0.19545">
        <ele>146.2</ele>
        <time>2020-05-30T16:59:07Z</time>
      </trkpt>
      <trkpt lat="46.54788" lon="0.19538">
        <ele>146.3</ele>
        <time>2020-05-30T16:59:08Z</time>
      </trkpt>
      <trkpt lat="46.54786" lon="0.19529">
        <ele>146.3</ele>
        <time>2020-05-30T16:59:09Z</time>
      </trkpt>
      <trkpt lat="46.54784" lon="0.19521">
        <ele>146.4</ele>
        <time>2020-05-30T16:59:10Z</time>
      </trkpt>
      <trkpt lat="46.54783" lon="0.19515">
        <ele>146.5</ele>
        <time>2020-05-30T16:59:11Z</time>
      </trkpt>
      <trkpt lat="46.54782" lon="0.19507">
        <ele>146.6</ele>
        <time>2020-05-30T16:59:12Z</time>
      </trkpt>
      <trkpt lat="46.54781" lon="0.19499">
        <ele>146.7</ele>
        <time>2020-05-30T16:59:13Z</time>
      </trkpt>
      <trkpt lat="46.54779" lon="0.1949">
        <ele>146.9</ele>
        <time>2020-05-30T16:59:14Z</time>
      </trkpt>
      <trkpt lat="46.54777" lon="0.1948">
        <ele>147</ele>
        <time>2020-05-30T16:59:15Z</time>
      </trkpt>
      <trkpt lat="46.54776" lon="0.19474">
        <ele>147.1</ele>
        <time>2020-05-30T16:59:16Z</time>
      </trkpt>
      <trkpt lat="46.54774" lon="0.19468">
        <ele>147.1</ele>
        <time>2020-05-30T16:59:17Z</time>
      </trkpt>
      <trkpt lat="46.54772" lon="0.1946">
        <ele>147.2</ele>
        <time>2020-05-30T16:59:18Z</time>
      </trkpt>
      <trkpt lat="46.54771" lon="0.19451">
        <ele>147.2</ele>
        <time>2020-05-30T16:59:19Z</time>
      </trkpt>
      <trkpt lat="46.54769" lon="0.19443">
        <ele>147.2</ele>
        <time>2020-05-30T16:59:20Z</time>
      </trkpt>
      <trkpt lat="46.54767" lon="0.19433">
        <ele>147.2</ele>
        <time>2020-05-30T16:59:21Z</time>
      </trkpt>
      <trkpt lat="46.54766" lon="0.19425">
        <ele>147.3</ele>
        <time>2020-05-30T16:59:22Z</time>
      </trkpt>
      <trkpt lat="46.54765" lon="0.19416">
        <ele>147.4</ele>
        <time>2020-05-30T16:59:23Z</time>
      </trkpt>
      <trkpt lat="46.54763" lon="0.19406">
        <ele>147.5</ele>
        <time>2020-05-30T16:59:24Z</time>
      </trkpt>
      <trkpt lat="46.54762" lon="0.19399">
        <ele>147.5</ele>
        <time>2020-05-30T16:59:25Z</time>
      </trkpt>
      <trkpt lat="46.5476" lon="0.19391">
        <ele>147.6</ele>
        <time>2020-05-30T16:59:26Z</time>
      </trkpt>
      <trkpt lat="46.54759" lon="0.19383">
        <ele>147.6</ele>
        <time>2020-05-30T16:59:27Z</time>
      </trkpt>
      <trkpt lat="46.54758" lon="0.19376">
        <ele>147.6</ele>
        <time>2020-05-30T16:59:28Z</time>
      </trkpt>
      <trkpt lat="46.54756" lon="0.19369">
        <ele>147.6</ele>
        <time>2020-05-30T16:59:29Z</time>
      </trkpt>
      <trkpt lat="46.54753" lon="0.1936">
        <ele>147.7</ele>
        <time>2020-05-30T16:59:30Z</time>
      </trkpt>
      <trkpt lat="46.54751" lon="0.19352">
        <ele>147.7</ele>
        <time>2020-05-30T16:59:31Z</time>
      </trkpt>
      <trkpt lat="46.54749" lon="0.19343">
        <ele>147.7</ele>
        <time>2020-05-30T16:59:32Z</time>
      </trkpt>
      <trkpt lat="46.54748" lon="0.19335">
        <ele>147.8</ele>
        <time>2020-05-30T16:59:33Z</time>
      </trkpt>
      <trkpt lat="46.54747" lon="0.19328">
        <ele>147.8</ele>
        <time>2020-05-30T16:59:34Z</time>
      </trkpt>
      <trkpt lat="46.54745" lon="0.19318">
        <ele>147.8</ele>
        <time>2020-05-30T16:59:35Z</time>
      </trkpt>
      <trkpt lat="46.54744" lon="0.19307">
        <ele>147.9</ele>
        <time>2020-05-30T16:59:36Z</time>
      </trkpt>
      <trkpt lat="46.54742" lon="0.19299">
        <ele>147.9</ele>
        <time>2020-05-30T16:59:37Z</time>
      </trkpt>
      <trkpt lat="46.54741" lon="0.19291">
        <ele>147.9</ele>
        <time>2020-05-30T16:59:38Z</time>
      </trkpt>
      <trkpt lat="46.5474" lon="0.19285">
        <ele>147.9</ele>
        <time>2020-05-30T16:59:39Z</time>
      </trkpt>
      <trkpt lat="46.54738" lon="0.19277">
        <ele>148</ele>
        <time>2020-05-30T16:59:40Z</time>
      </trkpt>
      <trkpt lat="46.54737" lon="0.19268">
        <ele>148</ele>
        <time>2020-05-30T16:59:41Z</time>
      </trkpt>
      <trkpt lat="46.54735" lon="0.1926">
        <ele>148.1</ele>
        <time>2020-05-30T16:59:42Z</time>
      </trkpt>
      <trkpt lat="46.54733" lon="0.19251">
        <ele>148.1</ele>
        <time>2020-05-30T16:59:43Z</time>
      </trkpt>
      <trkpt lat="46.54731" lon="0.19243">
        <ele>148.2</ele>
        <time>2020-05-30T16:59:44Z</time>
      </trkpt>
      <trkpt lat="46.54729" lon="0.19234">
        <ele>148.2</ele>
        <time>2020-05-30T16:59:45Z</time>
      </trkpt>
      <trkpt lat="46.54728" lon="0.19225">
        <ele>148.3</ele>
        <time>2020-05-30T16:59:46Z</time>
      </trkpt>
      <trkpt lat="46.54727" lon="0.19217">
        <ele>148.3</ele>
        <time>2020-05-30T16:59:47Z</time>
      </trkpt>
      <trkpt lat="46.54726" lon="0.1921">
        <ele>148.4</ele>
        <time>2020-05-30T16:59:48Z</time>
      </trkpt>
      <trkpt lat="46.54724" lon="0.19201">
        <ele>148.4</ele>
        <time>2020-05-30T16:59:49Z</time>
      </trkpt>
      <trkpt lat="46.54722" lon="0.19193">
        <ele>148.5</ele>
        <time>2020-05-30T16:59:50Z</time>
      </trkpt>
      <trkpt lat="46.5472" lon="0.19185">
        <ele>148.5</ele>
        <time>2020-05-30T16:59:51Z</time>
      </trkpt>
      <trkpt lat="46.54719" lon="0.19178">
        <ele>148.5</ele>
        <time>2020-05-30T16:59:52Z</time>
      </trkpt>
      <trkpt lat="46.54717" lon="0.19169">
        <ele>148.6</ele>
        <time>2020-05-30T16:59:53Z</time>
      </trkpt>
      <trkpt lat="46.54715" lon="0.1916">
        <ele>148.6</ele>
        <time>2020-05-30T16:59:54Z</time>
      </trkpt>
      <trkpt lat="46.54713" lon="0.19151">
        <ele>148.7</ele>
        <time>2020-05-30T16:59:55Z</time>
      </trkpt>
      <trkpt lat="46.54712" lon="0.19142">
        <ele>148.7</ele>
        <time>2020-05-30T16:59:56Z</time>
      </trkpt>
      <trkpt lat="46.5471" lon="0.19134">
        <ele>148.8</ele>
        <time>2020-05-30T16:59:57Z</time>
      </trkpt>
      <trkpt lat="46.54709" lon="0.19126">
        <ele>148.8</ele>
        <time>2020-05-30T16:59:58Z</time>
      </trkpt>
      <trkpt lat="46.54708" lon="0.19119">
        <ele>148.9</ele>
        <time>2020-05-30T16:59:59Z</time>
      </trkpt>
      <trkpt lat="46.54707" lon="0.19112">
        <ele>148.9</ele>
        <time>2020-05-30T17:00:00Z</time>
      </trkpt>
      <trkpt lat="46.54705" lon="0.19103">
        <ele>149</ele>
        <time>2020-05-30T17:00:01Z</time>
      </trkpt>
      <trkpt lat="46.54703" lon="0.19094">
        <ele>149</ele>
        <time>2020-05-30T17:00:02Z</time>
      </trkpt>
      <trkpt lat="46.54701" lon="0.19086">
        <ele>149</ele>
        <time>2020-05-30T17:00:03Z</time>
      </trkpt>
      <trkpt lat="46.54698" lon="0.19079">
        <ele>149.1</ele>
        <time>2020-05-30T17:00:04Z</time>
      </trkpt>
      <trkpt lat="46.54696" lon="0.1907">
        <ele>149.2</ele>
        <time>2020-05-30T17:00:05Z</time>
      </trkpt>
      <trkpt lat="46.54694" lon="0.19062">
        <ele>149.3</ele>
        <time>2020-05-30T17:00:06Z</time>
      </trkpt>
      <trkpt lat="46.54693" lon="0.19054">
        <ele>149.4</ele>
        <time>2020-05-30T17:00:07Z</time>
      </trkpt>
      <trkpt lat="46.54692" lon="0.19044">
        <ele>149.6</ele>
        <time>2020-05-30T17:00:08Z</time>
      </trkpt>
      <trkpt lat="46.5469" lon="0.19035">
        <ele>149.8</ele>
        <time>2020-05-30T17:00:09Z</time>
      </trkpt>
      <trkpt lat="46.54688" lon="0.19026">
        <ele>150</ele>
        <time>2020-05-30T17:00:10Z</time>
      </trkpt>
      <trkpt lat="46.54687" lon="0.19018">
        <ele>150</ele>
        <time>2020-05-30T17:00:11Z</time>
      </trkpt>
      <trkpt lat="46.54686" lon="0.1901">
        <ele>150</ele>
        <time>2020-05-30T17:00:12Z</time>
      </trkpt>
      <trkpt lat="46.54684" lon="0.19002">
        <ele>150.1</ele>
        <time>2020-05-30T17:00:13Z</time>
      </trkpt>
      <trkpt lat="46.54682" lon="0.18993">
        <ele>150.1</ele>
        <time>2020-05-30T17:00:14Z</time>
      </trkpt>
      <trkpt lat="46.54681" lon="0.18985">
        <ele>150.1</ele>
        <time>2020-05-30T17:00:15Z</time>
      </trkpt>
      <trkpt lat="46.5468" lon="0.18976">
        <ele>150.1</ele>
        <time>2020-05-30T17:00:16Z</time>
      </trkpt>
      <trkpt lat="46.5468" lon="0.18969">
        <ele>150.1</ele>
        <time>2020-05-30T17:00:17Z</time>
      </trkpt>
      <trkpt lat="46.54678" lon="0.1896">
        <ele>150.1</ele>
        <time>2020-05-30T17:00:18Z</time>
      </trkpt>
      <trkpt lat="46.54676" lon="0.18955">
        <ele>150.1</ele>
        <time>2020-05-30T17:00:19Z</time>
      </trkpt>
      <trkpt lat="46.54676" lon="0.18946">
        <ele>150.1</ele>
        <time>2020-05-30T17:00:20Z</time>
      </trkpt>
      <trkpt lat="46.54676" lon="0.1894">
        <ele>150.1</ele>
        <time>2020-05-30T17:00:21Z</time>
      </trkpt>
      <trkpt lat="46.54675" lon="0.18931">
        <ele>150.1</ele>
        <time>2020-05-30T17:00:22Z</time>
      </trkpt>
      <trkpt lat="46.54673" lon="0.18922">
        <ele>150.1</ele>
        <time>2020-05-30T17:00:23Z</time>
      </trkpt>
      <trkpt lat="46.54672" lon="0.18916">
        <ele>150.1</ele>
        <time>2020-05-30T17:00:24Z</time>
      </trkpt>
      <trkpt lat="46.54671" lon="0.18909">
        <ele>150.1</ele>
        <time>2020-05-30T17:00:25Z</time>
      </trkpt>
      <trkpt lat="46.5467" lon="0.18901">
        <ele>150.1</ele>
        <time>2020-05-30T17:00:26Z</time>
      </trkpt>
      <trkpt lat="46.54669" lon="0.18892">
        <ele>150.1</ele>
        <time>2020-05-30T17:00:27Z</time>
      </trkpt>
      <trkpt lat="46.54666" lon="0.18884">
        <ele>150.2</ele>
        <time>2020-05-30T17:00:28Z</time>
      </trkpt>
      <trkpt lat="46.54665" lon="0.18875">
        <ele>150.2</ele>
        <time>2020-05-30T17:00:29Z</time>
      </trkpt>
      <trkpt lat="46.54663" lon="0.18866">
        <ele>150.1</ele>
        <time>2020-05-30T17:00:30Z</time>
      </trkpt>
      <trkpt lat="46.54662" lon="0.18857">
        <ele>150.1</ele>
        <time>2020-05-30T17:00:31Z</time>
      </trkpt>
      <trkpt lat="46.5466" lon="0.18849">
        <ele>150.1</ele>
        <time>2020-05-30T17:00:32Z</time>
      </trkpt>
      <trkpt lat="46.54658" lon="0.18842">
        <ele>150.1</ele>
        <time>2020-05-30T17:00:33Z</time>
      </trkpt>
      <trkpt lat="46.54657" lon="0.18833">
        <ele>150.1</ele>
        <time>2020-05-30T17:00:34Z</time>
      </trkpt>
      <trkpt lat="46.54657" lon="0.18825">
        <ele>150</ele>
        <time>2020-05-30T17:00:35Z</time>
      </trkpt>
      <trkpt lat="46.54655" lon="0.18817">
        <ele>150</ele>
        <time>2020-05-30T17:00:36Z</time>
      </trkpt>
      <trkpt lat="46.54654" lon="0.18808">
        <ele>150</ele>
        <time>2020-05-30T17:00:37Z</time>
      </trkpt>
      <trkpt lat="46.54654" lon="0.18801">
        <ele>150</ele>
        <time>2020-05-30T17:00:38Z</time>
      </trkpt>
      <trkpt lat="46.54651" lon="0.18792">
        <ele>150</ele>
        <time>2020-05-30T17:00:39Z</time>
      </trkpt>
      <trkpt lat="46.5465" lon="0.18784">
        <ele>150</ele>
        <time>2020-05-30T17:00:40Z</time>
      </trkpt>
      <trkpt lat="46.54648" lon="0.18775">
        <ele>150</ele>
        <time>2020-05-30T17:00:41Z</time>
      </trkpt>
      <trkpt lat="46.54646" lon="0.18766">
        <ele>150.1</ele>
        <time>2020-05-30T17:00:42Z</time>
      </trkpt>
      <trkpt lat="46.54644" lon="0.18758">
        <ele>150.1</ele>
        <time>2020-05-30T17:00:43Z</time>
      </trkpt>
      <trkpt lat="46.54642" lon="0.18748">
        <ele>150.1</ele>
        <time>2020-05-30T17:00:44Z</time>
      </trkpt>
      <trkpt lat="46.54641" lon="0.18741">
        <ele>150.1</ele>
        <time>2020-05-30T17:00:45Z</time>
      </trkpt>
      <trkpt lat="46.54639" lon="0.18734">
        <ele>150.1</ele>
        <time>2020-05-30T17:00:46Z</time>
      </trkpt>
      <trkpt lat="46.54637" lon="0.18725">
        <ele>150.1</ele>
        <time>2020-05-30T17:00:47Z</time>
      </trkpt>
      <trkpt lat="46.54636" lon="0.18718">
        <ele>150.1</ele>
        <time>2020-05-30T17:00:48Z</time>
      </trkpt>
      <trkpt lat="46.54633" lon="0.18708">
        <ele>150.1</ele>
        <time>2020-05-30T17:00:49Z</time>
      </trkpt>
      <trkpt lat="46.54631" lon="0.18699">
        <ele>150.1</ele>
        <time>2020-05-30T17:00:50Z</time>
      </trkpt>
      <trkpt lat="46.54628" lon="0.18691">
        <ele>150.1</ele>
        <time>2020-05-30T17:00:51Z</time>
      </trkpt>
      <trkpt lat="46.54624" lon="0.18681">
        <ele>150.1</ele>
        <time>2020-05-30T17:00:52Z</time>
      </trkpt>
      <trkpt lat="46.54621" lon="0.18671">
        <ele>150.1</ele>
        <time>2020-05-30T17:00:53Z</time>
      </trkpt>
      <trkpt lat="46.54619" lon="0.18663">
        <ele>150.1</ele>
        <time>2020-05-30T17:00:54Z</time>
      </trkpt>
      <trkpt lat="46.54615" lon="0.18655">
        <ele>150.1</ele>
        <time>2020-05-30T17:00:55Z</time>
      </trkpt>
      <trkpt lat="46.54612" lon="0.18647">
        <ele>150.1</ele>
        <time>2020-05-30T17:00:56Z</time>
      </trkpt>
      <trkpt lat="46.54608" lon="0.1864">
        <ele>150.1</ele>
        <time>2020-05-30T17:00:57Z</time>
      </trkpt>
      <trkpt lat="46.54604" lon="0.18632">
        <ele>150.1</ele>
        <time>2020-05-30T17:00:58Z</time>
      </trkpt>
      <trkpt lat="46.54599" lon="0.18623">
        <ele>150.1</ele>
        <time>2020-05-30T17:00:59Z</time>
      </trkpt>
      <trkpt lat="46.54594" lon="0.18616">
        <ele>150.1</ele>
        <time>2020-05-30T17:01:00Z</time>
      </trkpt>
      <trkpt lat="46.5459" lon="0.18609">
        <ele>150.1</ele>
        <time>2020-05-30T17:01:01Z</time>
      </trkpt>
      <trkpt lat="46.54584" lon="0.18602">
        <ele>150.1</ele>
        <time>2020-05-30T17:01:02Z</time>
      </trkpt>
      <trkpt lat="46.54579" lon="0.18595">
        <ele>150</ele>
        <time>2020-05-30T17:01:03Z</time>
      </trkpt>
      <trkpt lat="46.54575" lon="0.18588">
        <ele>150</ele>
        <time>2020-05-30T17:01:04Z</time>
      </trkpt>
      <trkpt lat="46.54571" lon="0.18581">
        <ele>150</ele>
        <time>2020-05-30T17:01:05Z</time>
      </trkpt>
      <trkpt lat="46.54566" lon="0.18575">
        <ele>150</ele>
        <time>2020-05-30T17:01:06Z</time>
      </trkpt>
      <trkpt lat="46.54562" lon="0.18568">
        <ele>149.9</ele>
        <time>2020-05-30T17:01:07Z</time>
      </trkpt>
      <trkpt lat="46.54557" lon="0.18562">
        <ele>149.9</ele>
        <time>2020-05-30T17:01:08Z</time>
      </trkpt>
      <trkpt lat="46.54553" lon="0.18556">
        <ele>149.9</ele>
        <time>2020-05-30T17:01:09Z</time>
      </trkpt>
      <trkpt lat="46.54547" lon="0.1855">
        <ele>149.9</ele>
        <time>2020-05-30T17:01:10Z</time>
      </trkpt>
      <trkpt lat="46.54542" lon="0.18545">
        <ele>149.9</ele>
        <time>2020-05-30T17:01:11Z</time>
      </trkpt>
      <trkpt lat="46.54537" lon="0.1854">
        <ele>149.9</ele>
        <time>2020-05-30T17:01:12Z</time>
      </trkpt>
      <trkpt lat="46.54532" lon="0.18534">
        <ele>149.9</ele>
        <time>2020-05-30T17:01:13Z</time>
      </trkpt>
      <trkpt lat="46.54527" lon="0.18529">
        <ele>149.9</ele>
        <time>2020-05-30T17:01:14Z</time>
      </trkpt>
      <trkpt lat="46.54523" lon="0.18523">
        <ele>149.9</ele>
        <time>2020-05-30T17:01:15Z</time>
      </trkpt>
      <trkpt lat="46.54518" lon="0.18518">
        <ele>149.9</ele>
        <time>2020-05-30T17:01:16Z</time>
      </trkpt>
      <trkpt lat="46.54513" lon="0.18513">
        <ele>149.9</ele>
        <time>2020-05-30T17:01:17Z</time>
      </trkpt>
      <trkpt lat="46.54509" lon="0.18507">
        <ele>149.9</ele>
        <time>2020-05-30T17:01:18Z</time>
      </trkpt>
      <trkpt lat="46.54506" lon="0.18501">
        <ele>149.9</ele>
        <time>2020-05-30T17:01:19Z</time>
      </trkpt>
      <trkpt lat="46.54502" lon="0.18496">
        <ele>149.9</ele>
        <time>2020-05-30T17:01:20Z</time>
      </trkpt>
      <trkpt lat="46.54499" lon="0.1849">
        <ele>149.9</ele>
        <time>2020-05-30T17:01:21Z</time>
      </trkpt>
      <trkpt lat="46.54495" lon="0.18485">
        <ele>150</ele>
        <time>2020-05-30T17:01:22Z</time>
      </trkpt>
      <trkpt lat="46.54491" lon="0.18482">
        <ele>150</ele>
        <time>2020-05-30T17:01:23Z</time>
      </trkpt>
      <trkpt lat="46.54487" lon="0.18477">
        <ele>150</ele>
        <time>2020-05-30T17:01:24Z</time>
      </trkpt>
      <trkpt lat="46.54483" lon="0.18472">
        <ele>150</ele>
        <time>2020-05-30T17:01:25Z</time>
      </trkpt>
      <trkpt lat="46.54479" lon="0.18468">
        <ele>150.1</ele>
        <time>2020-05-30T17:01:26Z</time>
      </trkpt>
      <trkpt lat="46.54475" lon="0.18464">
        <ele>150.1</ele>
        <time>2020-05-30T17:01:27Z</time>
      </trkpt>
      <trkpt lat="46.54471" lon="0.1846">
        <ele>150.1</ele>
        <time>2020-05-30T17:01:28Z</time>
      </trkpt>
      <trkpt lat="46.54467" lon="0.18455">
        <ele>150.1</ele>
        <time>2020-05-30T17:01:29Z</time>
      </trkpt>
      <trkpt lat="46.54464" lon="0.1845">
        <ele>150.2</ele>
        <time>2020-05-30T17:01:30Z</time>
      </trkpt>
      <trkpt lat="46.54461" lon="0.18446">
        <ele>150.2</ele>
        <time>2020-05-30T17:01:31Z</time>
      </trkpt>
      <trkpt lat="46.54457" lon="0.18441">
        <ele>150.2</ele>
        <time>2020-05-30T17:01:32Z</time>
      </trkpt>
      <trkpt lat="46.54454" lon="0.18436">
        <ele>150.2</ele>
        <time>2020-05-30T17:01:33Z</time>
      </trkpt>
      <trkpt lat="46.54451" lon="0.18431">
        <ele>150.3</ele>
        <time>2020-05-30T17:01:34Z</time>
      </trkpt>
      <trkpt lat="46.54448" lon="0.18425">
        <ele>150.3</ele>
        <time>2020-05-30T17:01:35Z</time>
      </trkpt>
      <trkpt lat="46.54444" lon="0.1842">
        <ele>150.3</ele>
        <time>2020-05-30T17:01:36Z</time>
      </trkpt>
      <trkpt lat="46.5444" lon="0.18415">
        <ele>150.4</ele>
        <time>2020-05-30T17:01:37Z</time>
      </trkpt>
      <trkpt lat="46.54436" lon="0.1841">
        <ele>150.4</ele>
        <time>2020-05-30T17:01:38Z</time>
      </trkpt>
      <trkpt lat="46.54431" lon="0.18405">
        <ele>150.5</ele>
        <time>2020-05-30T17:01:39Z</time>
      </trkpt>
      <trkpt lat="46.54427" lon="0.18399">
        <ele>150.5</ele>
        <time>2020-05-30T17:01:40Z</time>
      </trkpt>
      <trkpt lat="46.54423" lon="0.18393">
        <ele>150.5</ele>
        <time>2020-05-30T17:01:41Z</time>
      </trkpt>
      <trkpt lat="46.5442" lon="0.18387">
        <ele>150.5</ele>
        <time>2020-05-30T17:01:42Z</time>
      </trkpt>
      <trkpt lat="46.54415" lon="0.18381">
        <ele>150.6</ele>
        <time>2020-05-30T17:01:43Z</time>
      </trkpt>
      <trkpt lat="46.54411" lon="0.18377">
        <ele>150.6</ele>
        <time>2020-05-30T17:01:44Z</time>
      </trkpt>
      <trkpt lat="46.54407" lon="0.18372">
        <ele>150.6</ele>
        <time>2020-05-30T17:01:45Z</time>
      </trkpt>
      <trkpt lat="46.54403" lon="0.18367">
        <ele>150.6</ele>
        <time>2020-05-30T17:01:46Z</time>
      </trkpt>
      <trkpt lat="46.54398" lon="0.18363">
        <ele>150.6</ele>
        <time>2020-05-30T17:01:47Z</time>
      </trkpt>
      <trkpt lat="46.54395" lon="0.18357">
        <ele>150.6</ele>
        <time>2020-05-30T17:01:48Z</time>
      </trkpt>
      <trkpt lat="46.54391" lon="0.18353">
        <ele>150.7</ele>
        <time>2020-05-30T17:01:49Z</time>
      </trkpt>
      <trkpt lat="46.54387" lon="0.18347">
        <ele>150.7</ele>
        <time>2020-05-30T17:01:50Z</time>
      </trkpt>
      <trkpt lat="46.54382" lon="0.18339">
        <ele>150.7</ele>
        <time>2020-05-30T17:01:51Z</time>
      </trkpt>
      <trkpt lat="46.54377" lon="0.18331">
        <ele>150.7</ele>
        <time>2020-05-30T17:01:52Z</time>
      </trkpt>
      <trkpt lat="46.54374" lon="0.18326">
        <ele>150.7</ele>
        <time>2020-05-30T17:01:53Z</time>
      </trkpt>
      <trkpt lat="46.54369" lon="0.1832">
        <ele>150.7</ele>
        <time>2020-05-30T17:01:54Z</time>
      </trkpt>
      <trkpt lat="46.54365" lon="0.18314">
        <ele>150.7</ele>
        <time>2020-05-30T17:01:55Z</time>
      </trkpt>
      <trkpt lat="46.5436" lon="0.18307">
        <ele>150.7</ele>
        <time>2020-05-30T17:01:56Z</time>
      </trkpt>
      <trkpt lat="46.54355" lon="0.183">
        <ele>150.8</ele>
        <time>2020-05-30T17:01:57Z</time>
      </trkpt>
      <trkpt lat="46.54352" lon="0.18296">
        <ele>150.8</ele>
        <time>2020-05-30T17:01:58Z</time>
      </trkpt>
      <trkpt lat="46.54347" lon="0.18288">
        <ele>150.8</ele>
        <time>2020-05-30T17:01:59Z</time>
      </trkpt>
      <trkpt lat="46.54344" lon="0.18283">
        <ele>150.8</ele>
        <time>2020-05-30T17:02:00Z</time>
      </trkpt>
      <trkpt lat="46.54339" lon="0.18277">
        <ele>150.8</ele>
        <time>2020-05-30T17:02:01Z</time>
      </trkpt>
      <trkpt lat="46.54335" lon="0.18271">
        <ele>150.8</ele>
        <time>2020-05-30T17:02:02Z</time>
      </trkpt>
      <trkpt lat="46.54331" lon="0.18265">
        <ele>150.8</ele>
        <time>2020-05-30T17:02:03Z</time>
      </trkpt>
      <trkpt lat="46.54327" lon="0.18259">
        <ele>150.8</ele>
        <time>2020-05-30T17:02:04Z</time>
      </trkpt>
      <trkpt lat="46.54323" lon="0.18251">
        <ele>150.8</ele>
        <time>2020-05-30T17:02:05Z</time>
      </trkpt>
      <trkpt lat="46.54319" lon="0.18244">
        <ele>150.8</ele>
        <time>2020-05-30T17:02:06Z</time>
      </trkpt>
      <trkpt lat="46.54315" lon="0.18238">
        <ele>150.8</ele>
        <time>2020-05-30T17:02:07Z</time>
      </trkpt>
      <trkpt lat="46.54311" lon="0.18231">
        <ele>150.8</ele>
        <time>2020-05-30T17:02:08Z</time>
      </trkpt>
      <trkpt lat="46.54308" lon="0.18225">
        <ele>150.8</ele>
        <time>2020-05-30T17:02:09Z</time>
      </trkpt>
      <trkpt lat="46.54303" lon="0.18218">
        <ele>150.8</ele>
        <time>2020-05-30T17:02:10Z</time>
      </trkpt>
      <trkpt lat="46.54299" lon="0.18211">
        <ele>150.8</ele>
        <time>2020-05-30T17:02:11Z</time>
      </trkpt>
      <trkpt lat="46.54295" lon="0.18204">
        <ele>150.8</ele>
        <time>2020-05-30T17:02:12Z</time>
      </trkpt>
      <trkpt lat="46.5429" lon="0.18197">
        <ele>150.8</ele>
        <time>2020-05-30T17:02:13Z</time>
      </trkpt>
      <trkpt lat="46.54287" lon="0.18191">
        <ele>150.8</ele>
        <time>2020-05-30T17:02:14Z</time>
      </trkpt>
      <trkpt lat="46.54283" lon="0.18183">
        <ele>150.7</ele>
        <time>2020-05-30T17:02:15Z</time>
      </trkpt>
      <trkpt lat="46.54279" lon="0.18178">
        <ele>150.7</ele>
        <time>2020-05-30T17:02:16Z</time>
      </trkpt>
      <trkpt lat="46.54276" lon="0.18171">
        <ele>150.7</ele>
        <time>2020-05-30T17:02:17Z</time>
      </trkpt>
      <trkpt lat="46.54272" lon="0.18165">
        <ele>150.7</ele>
        <time>2020-05-30T17:02:18Z</time>
      </trkpt>
      <trkpt lat="46.54269" lon="0.1816">
        <ele>150.7</ele>
        <time>2020-05-30T17:02:19Z</time>
      </trkpt>
      <trkpt lat="46.54265" lon="0.18153">
        <ele>150.6</ele>
        <time>2020-05-30T17:02:20Z</time>
      </trkpt>
      <trkpt lat="46.54261" lon="0.18147">
        <ele>150.6</ele>
        <time>2020-05-30T17:02:21Z</time>
      </trkpt>
      <trkpt lat="46.54257" lon="0.1814">
        <ele>150.6</ele>
        <time>2020-05-30T17:02:22Z</time>
      </trkpt>
      <trkpt lat="46.54252" lon="0.18133">
        <ele>150.6</ele>
        <time>2020-05-30T17:02:23Z</time>
      </trkpt>
      <trkpt lat="46.54247" lon="0.18127">
        <ele>150.5</ele>
        <time>2020-05-30T17:02:24Z</time>
      </trkpt>
      <trkpt lat="46.54243" lon="0.1812">
        <ele>150.5</ele>
        <time>2020-05-30T17:02:25Z</time>
      </trkpt>
      <trkpt lat="46.54239" lon="0.18111">
        <ele>150.5</ele>
        <time>2020-05-30T17:02:26Z</time>
      </trkpt>
      <trkpt lat="46.54234" lon="0.18103">
        <ele>150.4</ele>
        <time>2020-05-30T17:02:27Z</time>
      </trkpt>
      <trkpt lat="46.5423" lon="0.18095">
        <ele>150.3</ele>
        <time>2020-05-30T17:02:28Z</time>
      </trkpt>
      <trkpt lat="46.54226" lon="0.18088">
        <ele>150.3</ele>
        <time>2020-05-30T17:02:29Z</time>
      </trkpt>
      <trkpt lat="46.54222" lon="0.18081">
        <ele>150.2</ele>
        <time>2020-05-30T17:02:30Z</time>
      </trkpt>
      <trkpt lat="46.54218" lon="0.18073">
        <ele>150.1</ele>
        <time>2020-05-30T17:02:31Z</time>
      </trkpt>
      <trkpt lat="46.54214" lon="0.18065">
        <ele>150.1</ele>
        <time>2020-05-30T17:02:32Z</time>
      </trkpt>
      <trkpt lat="46.54209" lon="0.18057">
        <ele>150</ele>
        <time>2020-05-30T17:02:33Z</time>
      </trkpt>
      <trkpt lat="46.54205" lon="0.18051">
        <ele>150</ele>
        <time>2020-05-30T17:02:34Z</time>
      </trkpt>
      <trkpt lat="46.54201" lon="0.18044">
        <ele>149.9</ele>
        <time>2020-05-30T17:02:35Z</time>
      </trkpt>
      <trkpt lat="46.54197" lon="0.18038">
        <ele>149.9</ele>
        <time>2020-05-30T17:02:36Z</time>
      </trkpt>
      <trkpt lat="46.54193" lon="0.18031">
        <ele>149.9</ele>
        <time>2020-05-30T17:02:37Z</time>
      </trkpt>
      <trkpt lat="46.5419" lon="0.18026">
        <ele>149.8</ele>
        <time>2020-05-30T17:02:38Z</time>
      </trkpt>
      <trkpt lat="46.54186" lon="0.1802">
        <ele>149.8</ele>
        <time>2020-05-30T17:02:39Z</time>
      </trkpt>
      <trkpt lat="46.54182" lon="0.18015">
        <ele>149.8</ele>
        <time>2020-05-30T17:02:40Z</time>
      </trkpt>
      <trkpt lat="46.54178" lon="0.18009">
        <ele>149.8</ele>
        <time>2020-05-30T17:02:41Z</time>
      </trkpt>
      <trkpt lat="46.54175" lon="0.18001">
        <ele>149.8</ele>
        <time>2020-05-30T17:02:42Z</time>
      </trkpt>
      <trkpt lat="46.54171" lon="0.17996">
        <ele>149.8</ele>
        <time>2020-05-30T17:02:43Z</time>
      </trkpt>
      <trkpt lat="46.54166" lon="0.1799">
        <ele>149.8</ele>
        <time>2020-05-30T17:02:44Z</time>
      </trkpt>
      <trkpt lat="46.54162" lon="0.17983">
        <ele>149.8</ele>
        <time>2020-05-30T17:02:45Z</time>
      </trkpt>
      <trkpt lat="46.54158" lon="0.17978">
        <ele>149.8</ele>
        <time>2020-05-30T17:02:46Z</time>
      </trkpt>
      <trkpt lat="46.54154" lon="0.17972">
        <ele>149.8</ele>
        <time>2020-05-30T17:02:47Z</time>
      </trkpt>
      <trkpt lat="46.54151" lon="0.17966">
        <ele>149.8</ele>
        <time>2020-05-30T17:02:48Z</time>
      </trkpt>
      <trkpt lat="46.54147" lon="0.1796">
        <ele>149.8</ele>
        <time>2020-05-30T17:02:49Z</time>
      </trkpt>
      <trkpt lat="46.54144" lon="0.17955">
        <ele>149.8</ele>
        <time>2020-05-30T17:02:50Z</time>
      </trkpt>
      <trkpt lat="46.54141" lon="0.17947">
        <ele>149.8</ele>
        <time>2020-05-30T17:02:51Z</time>
      </trkpt>
      <trkpt lat="46.54137" lon="0.17941">
        <ele>149.8</ele>
        <time>2020-05-30T17:02:52Z</time>
      </trkpt>
      <trkpt lat="46.54133" lon="0.17935">
        <ele>149.8</ele>
        <time>2020-05-30T17:02:53Z</time>
      </trkpt>
      <trkpt lat="46.54129" lon="0.17928">
        <ele>149.8</ele>
        <time>2020-05-30T17:02:54Z</time>
      </trkpt>
      <trkpt lat="46.54125" lon="0.17921">
        <ele>149.8</ele>
        <time>2020-05-30T17:02:55Z</time>
      </trkpt>
      <trkpt lat="46.54121" lon="0.17914">
        <ele>149.8</ele>
        <time>2020-05-30T17:02:56Z</time>
      </trkpt>
      <trkpt lat="46.54117" lon="0.17906">
        <ele>149.8</ele>
        <time>2020-05-30T17:02:57Z</time>
      </trkpt>
      <trkpt lat="46.54112" lon="0.17899">
        <ele>149.8</ele>
        <time>2020-05-30T17:02:58Z</time>
      </trkpt>
      <trkpt lat="46.54108" lon="0.17892">
        <ele>149.8</ele>
        <time>2020-05-30T17:02:59Z</time>
      </trkpt>
      <trkpt lat="46.54104" lon="0.17885">
        <ele>149.8</ele>
        <time>2020-05-30T17:03:00Z</time>
      </trkpt>
      <trkpt lat="46.54099" lon="0.17879">
        <ele>149.8</ele>
        <time>2020-05-30T17:03:01Z</time>
      </trkpt>
      <trkpt lat="46.54095" lon="0.17871">
        <ele>149.8</ele>
        <time>2020-05-30T17:03:02Z</time>
      </trkpt>
      <trkpt lat="46.54092" lon="0.17864">
        <ele>149.8</ele>
        <time>2020-05-30T17:03:03Z</time>
      </trkpt>
      <trkpt lat="46.54088" lon="0.17857">
        <ele>149.8</ele>
        <time>2020-05-30T17:03:04Z</time>
      </trkpt>
      <trkpt lat="46.54083" lon="0.1785">
        <ele>149.8</ele>
        <time>2020-05-30T17:03:05Z</time>
      </trkpt>
      <trkpt lat="46.54079" lon="0.17843">
        <ele>149.8</ele>
        <time>2020-05-30T17:03:06Z</time>
      </trkpt>
      <trkpt lat="46.54076" lon="0.17836">
        <ele>149.8</ele>
        <time>2020-05-30T17:03:07Z</time>
      </trkpt>
      <trkpt lat="46.54072" lon="0.17829">
        <ele>149.8</ele>
        <time>2020-05-30T17:03:08Z</time>
      </trkpt>
      <trkpt lat="46.54067" lon="0.17823">
        <ele>149.8</ele>
        <time>2020-05-30T17:03:09Z</time>
      </trkpt>
      <trkpt lat="46.54064" lon="0.17816">
        <ele>149.8</ele>
        <time>2020-05-30T17:03:10Z</time>
      </trkpt>
      <trkpt lat="46.54061" lon="0.1781">
        <ele>149.8</ele>
        <time>2020-05-30T17:03:11Z</time>
      </trkpt>
      <trkpt lat="46.54057" lon="0.17804">
        <ele>149.8</ele>
        <time>2020-05-30T17:03:12Z</time>
      </trkpt>
      <trkpt lat="46.54053" lon="0.17799">
        <ele>149.8</ele>
        <time>2020-05-30T17:03:13Z</time>
      </trkpt>
      <trkpt lat="46.54048" lon="0.17795">
        <ele>149.8</ele>
        <time>2020-05-30T17:03:14Z</time>
      </trkpt>
      <trkpt lat="46.54043" lon="0.17789">
        <ele>149.8</ele>
        <time>2020-05-30T17:03:15Z</time>
      </trkpt>
      <trkpt lat="46.54038" lon="0.17784">
        <ele>149.7</ele>
        <time>2020-05-30T17:03:16Z</time>
      </trkpt>
      <trkpt lat="46.54034" lon="0.17779">
        <ele>149.7</ele>
        <time>2020-05-30T17:03:17Z</time>
      </trkpt>
      <trkpt lat="46.5403" lon="0.17774">
        <ele>149.7</ele>
        <time>2020-05-30T17:03:18Z</time>
      </trkpt>
      <trkpt lat="46.54025" lon="0.1777">
        <ele>149.7</ele>
        <time>2020-05-30T17:03:19Z</time>
      </trkpt>
      <trkpt lat="46.54019" lon="0.17767">
        <ele>149.7</ele>
        <time>2020-05-30T17:03:20Z</time>
      </trkpt>
      <trkpt lat="46.54015" lon="0.17762">
        <ele>149.7</ele>
        <time>2020-05-30T17:03:21Z</time>
      </trkpt>
      <trkpt lat="46.5401" lon="0.17757">
        <ele>149.7</ele>
        <time>2020-05-30T17:03:22Z</time>
      </trkpt>
      <trkpt lat="46.54006" lon="0.17753">
        <ele>149.8</ele>
        <time>2020-05-30T17:03:23Z</time>
      </trkpt>
      <trkpt lat="46.54002" lon="0.17749">
        <ele>149.8</ele>
        <time>2020-05-30T17:03:24Z</time>
      </trkpt>
      <trkpt lat="46.53996" lon="0.17746">
        <ele>149.8</ele>
        <time>2020-05-30T17:03:25Z</time>
      </trkpt>
      <trkpt lat="46.53991" lon="0.17741">
        <ele>149.8</ele>
        <time>2020-05-30T17:03:26Z</time>
      </trkpt>
      <trkpt lat="46.53987" lon="0.17736">
        <ele>149.8</ele>
        <time>2020-05-30T17:03:27Z</time>
      </trkpt>
      <trkpt lat="46.53982" lon="0.17731">
        <ele>149.9</ele>
        <time>2020-05-30T17:03:28Z</time>
      </trkpt>
      <trkpt lat="46.53977" lon="0.17726">
        <ele>149.9</ele>
        <time>2020-05-30T17:03:29Z</time>
      </trkpt>
      <trkpt lat="46.53972" lon="0.17722">
        <ele>149.9</ele>
        <time>2020-05-30T17:03:30Z</time>
      </trkpt>
      <trkpt lat="46.53967" lon="0.17718">
        <ele>149.9</ele>
        <time>2020-05-30T17:03:31Z</time>
      </trkpt>
      <trkpt lat="46.53962" lon="0.17714">
        <ele>149.9</ele>
        <time>2020-05-30T17:03:32Z</time>
      </trkpt>
      <trkpt lat="46.53957" lon="0.1771">
        <ele>150</ele>
        <time>2020-05-30T17:03:33Z</time>
      </trkpt>
      <trkpt lat="46.53952" lon="0.17705">
        <ele>150</ele>
        <time>2020-05-30T17:03:34Z</time>
      </trkpt>
      <trkpt lat="46.53947" lon="0.177">
        <ele>150</ele>
        <time>2020-05-30T17:03:35Z</time>
      </trkpt>
      <trkpt lat="46.53943" lon="0.17695">
        <ele>150.1</ele>
        <time>2020-05-30T17:03:36Z</time>
      </trkpt>
      <trkpt lat="46.53938" lon="0.17691">
        <ele>150.1</ele>
        <time>2020-05-30T17:03:37Z</time>
      </trkpt>
      <trkpt lat="46.53933" lon="0.17687">
        <ele>150.1</ele>
        <time>2020-05-30T17:03:38Z</time>
      </trkpt>
      <trkpt lat="46.53927" lon="0.17684">
        <ele>150.1</ele>
        <time>2020-05-30T17:03:39Z</time>
      </trkpt>
      <trkpt lat="46.53922" lon="0.1768">
        <ele>150.1</ele>
        <time>2020-05-30T17:03:40Z</time>
      </trkpt>
      <trkpt lat="46.53917" lon="0.17676">
        <ele>150.1</ele>
        <time>2020-05-30T17:03:41Z</time>
      </trkpt>
      <trkpt lat="46.53911" lon="0.17674">
        <ele>150.2</ele>
        <time>2020-05-30T17:03:42Z</time>
      </trkpt>
      <trkpt lat="46.53906" lon="0.1767">
        <ele>150.2</ele>
        <time>2020-05-30T17:03:43Z</time>
      </trkpt>
      <trkpt lat="46.53901" lon="0.17665">
        <ele>150.2</ele>
        <time>2020-05-30T17:03:44Z</time>
      </trkpt>
      <trkpt lat="46.53896" lon="0.17661">
        <ele>150.2</ele>
        <time>2020-05-30T17:03:45Z</time>
      </trkpt>
      <trkpt lat="46.53891" lon="0.17657">
        <ele>150.3</ele>
        <time>2020-05-30T17:03:46Z</time>
      </trkpt>
      <trkpt lat="46.53886" lon="0.17652">
        <ele>150.3</ele>
        <time>2020-05-30T17:03:47Z</time>
      </trkpt>
      <trkpt lat="46.53881" lon="0.17647">
        <ele>150.3</ele>
        <time>2020-05-30T17:03:48Z</time>
      </trkpt>
      <trkpt lat="46.53877" lon="0.17641">
        <ele>150.4</ele>
        <time>2020-05-30T17:03:49Z</time>
      </trkpt>
      <trkpt lat="46.53871" lon="0.17636">
        <ele>150.4</ele>
        <time>2020-05-30T17:03:50Z</time>
      </trkpt>
      <trkpt lat="46.53866" lon="0.17631">
        <ele>150.4</ele>
        <time>2020-05-30T17:03:51Z</time>
      </trkpt>
      <trkpt lat="46.53861" lon="0.17626">
        <ele>150.4</ele>
        <time>2020-05-30T17:03:52Z</time>
      </trkpt>
      <trkpt lat="46.53855" lon="0.17623">
        <ele>150.4</ele>
        <time>2020-05-30T17:03:53Z</time>
      </trkpt>
      <trkpt lat="46.5385" lon="0.17619">
        <ele>150.5</ele>
        <time>2020-05-30T17:03:54Z</time>
      </trkpt>
      <trkpt lat="46.53845" lon="0.17615">
        <ele>150.5</ele>
        <time>2020-05-30T17:03:55Z</time>
      </trkpt>
      <trkpt lat="46.5384" lon="0.17612">
        <ele>150.5</ele>
        <time>2020-05-30T17:03:56Z</time>
      </trkpt>
      <trkpt lat="46.53835" lon="0.17608">
        <ele>150.5</ele>
        <time>2020-05-30T17:03:57Z</time>
      </trkpt>
      <trkpt lat="46.5383" lon="0.17605">
        <ele>150.5</ele>
        <time>2020-05-30T17:03:58Z</time>
      </trkpt>
      <trkpt lat="46.53824" lon="0.17602">
        <ele>150.6</ele>
        <time>2020-05-30T17:03:59Z</time>
      </trkpt>
      <trkpt lat="46.53819" lon="0.17598">
        <ele>150.6</ele>
        <time>2020-05-30T17:04:00Z</time>
      </trkpt>
      <trkpt lat="46.53813" lon="0.17594">
        <ele>150.6</ele>
        <time>2020-05-30T17:04:01Z</time>
      </trkpt>
      <trkpt lat="46.53808" lon="0.1759">
        <ele>150.6</ele>
        <time>2020-05-30T17:04:02Z</time>
      </trkpt>
      <trkpt lat="46.53802" lon="0.17587">
        <ele>150.6</ele>
        <time>2020-05-30T17:04:03Z</time>
      </trkpt>
      <trkpt lat="46.53796" lon="0.17584">
        <ele>150.7</ele>
        <time>2020-05-30T17:04:04Z</time>
      </trkpt>
      <trkpt lat="46.5379" lon="0.17581">
        <ele>150.7</ele>
        <time>2020-05-30T17:04:05Z</time>
      </trkpt>
      <trkpt lat="46.53783" lon="0.17578">
        <ele>150.7</ele>
        <time>2020-05-30T17:04:06Z</time>
      </trkpt>
      <trkpt lat="46.53777" lon="0.17574">
        <ele>150.7</ele>
        <time>2020-05-30T17:04:07Z</time>
      </trkpt>
      <trkpt lat="46.53771" lon="0.1757">
        <ele>150.8</ele>
        <time>2020-05-30T17:04:08Z</time>
      </trkpt>
      <trkpt lat="46.53764" lon="0.17567">
        <ele>150.8</ele>
        <time>2020-05-30T17:04:09Z</time>
      </trkpt>
      <trkpt lat="46.53758" lon="0.17564">
        <ele>150.8</ele>
        <time>2020-05-30T17:04:10Z</time>
      </trkpt>
      <trkpt lat="46.53752" lon="0.1756">
        <ele>150.9</ele>
        <time>2020-05-30T17:04:11Z</time>
      </trkpt>
      <trkpt lat="46.53745" lon="0.17556">
        <ele>150.9</ele>
        <time>2020-05-30T17:04:12Z</time>
      </trkpt>
      <trkpt lat="46.53739" lon="0.17553">
        <ele>150.9</ele>
        <time>2020-05-30T17:04:13Z</time>
      </trkpt>
      <trkpt lat="46.53733" lon="0.17549">
        <ele>150.9</ele>
        <time>2020-05-30T17:04:14Z</time>
      </trkpt>
      <trkpt lat="46.53726" lon="0.17545">
        <ele>150.9</ele>
        <time>2020-05-30T17:04:15Z</time>
      </trkpt>
      <trkpt lat="46.5372" lon="0.17543">
        <ele>150.9</ele>
        <time>2020-05-30T17:04:16Z</time>
      </trkpt>
      <trkpt lat="46.53713" lon="0.1754">
        <ele>150.9</ele>
        <time>2020-05-30T17:04:17Z</time>
      </trkpt>
      <trkpt lat="46.53707" lon="0.17536">
        <ele>150.9</ele>
        <time>2020-05-30T17:04:18Z</time>
      </trkpt>
      <trkpt lat="46.53701" lon="0.17534">
        <ele>150.9</ele>
        <time>2020-05-30T17:04:19Z</time>
      </trkpt>
      <trkpt lat="46.53695" lon="0.17533">
        <ele>150.9</ele>
        <time>2020-05-30T17:04:20Z</time>
      </trkpt>
      <trkpt lat="46.53689" lon="0.17531">
        <ele>150.9</ele>
        <time>2020-05-30T17:04:21Z</time>
      </trkpt>
      <trkpt lat="46.53683" lon="0.1753">
        <ele>151</ele>
        <time>2020-05-30T17:04:22Z</time>
      </trkpt>
      <trkpt lat="46.53677" lon="0.17529">
        <ele>151</ele>
        <time>2020-05-30T17:04:23Z</time>
      </trkpt>
      <trkpt lat="46.53671" lon="0.17528">
        <ele>151</ele>
        <time>2020-05-30T17:04:24Z</time>
      </trkpt>
      <trkpt lat="46.53665" lon="0.17525">
        <ele>150.9</ele>
        <time>2020-05-30T17:04:25Z</time>
      </trkpt>
      <trkpt lat="46.53659" lon="0.17523">
        <ele>150.9</ele>
        <time>2020-05-30T17:04:26Z</time>
      </trkpt>
      <trkpt lat="46.53653" lon="0.1752">
        <ele>150.8</ele>
        <time>2020-05-30T17:04:27Z</time>
      </trkpt>
      <trkpt lat="46.53646" lon="0.17517">
        <ele>150.8</ele>
        <time>2020-05-30T17:04:28Z</time>
      </trkpt>
      <trkpt lat="46.53639" lon="0.17513">
        <ele>150.7</ele>
        <time>2020-05-30T17:04:29Z</time>
      </trkpt>
      <trkpt lat="46.53633" lon="0.1751">
        <ele>150.7</ele>
        <time>2020-05-30T17:04:30Z</time>
      </trkpt>
      <trkpt lat="46.53626" lon="0.17508">
        <ele>150.6</ele>
        <time>2020-05-30T17:04:31Z</time>
      </trkpt>
      <trkpt lat="46.53619" lon="0.17505">
        <ele>150.6</ele>
        <time>2020-05-30T17:04:32Z</time>
      </trkpt>
      <trkpt lat="46.53613" lon="0.17501">
        <ele>150.6</ele>
        <time>2020-05-30T17:04:33Z</time>
      </trkpt>
      <trkpt lat="46.53606" lon="0.17496">
        <ele>150.6</ele>
        <time>2020-05-30T17:04:34Z</time>
      </trkpt>
      <trkpt lat="46.536" lon="0.17492">
        <ele>150.5</ele>
        <time>2020-05-30T17:04:35Z</time>
      </trkpt>
      <trkpt lat="46.53594" lon="0.17489">
        <ele>150.5</ele>
        <time>2020-05-30T17:04:36Z</time>
      </trkpt>
      <trkpt lat="46.53588" lon="0.17485">
        <ele>150.4</ele>
        <time>2020-05-30T17:04:37Z</time>
      </trkpt>
      <trkpt lat="46.53581" lon="0.17481">
        <ele>150.3</ele>
        <time>2020-05-30T17:04:38Z</time>
      </trkpt>
      <trkpt lat="46.53575" lon="0.17477">
        <ele>150.3</ele>
        <time>2020-05-30T17:04:39Z</time>
      </trkpt>
      <trkpt lat="46.53569" lon="0.17473">
        <ele>150.3</ele>
        <time>2020-05-30T17:04:40Z</time>
      </trkpt>
      <trkpt lat="46.53564" lon="0.17469">
        <ele>150.3</ele>
        <time>2020-05-30T17:04:41Z</time>
      </trkpt>
      <trkpt lat="46.53558" lon="0.17466">
        <ele>150.3</ele>
        <time>2020-05-30T17:04:42Z</time>
      </trkpt>
      <trkpt lat="46.53552" lon="0.17464">
        <ele>150.2</ele>
        <time>2020-05-30T17:04:43Z</time>
      </trkpt>
      <trkpt lat="46.53546" lon="0.17461">
        <ele>150.2</ele>
        <time>2020-05-30T17:04:44Z</time>
      </trkpt>
      <trkpt lat="46.5354" lon="0.17458">
        <ele>150.2</ele>
        <time>2020-05-30T17:04:45Z</time>
      </trkpt>
      <trkpt lat="46.53535" lon="0.17453">
        <ele>150.2</ele>
        <time>2020-05-30T17:04:46Z</time>
      </trkpt>
      <trkpt lat="46.5353" lon="0.17449">
        <ele>150.2</ele>
        <time>2020-05-30T17:04:47Z</time>
      </trkpt>
      <trkpt lat="46.53524" lon="0.17446">
        <ele>150.1</ele>
        <time>2020-05-30T17:04:48Z</time>
      </trkpt>
      <trkpt lat="46.53518" lon="0.17442">
        <ele>150</ele>
        <time>2020-05-30T17:04:49Z</time>
      </trkpt>
      <trkpt lat="46.53512" lon="0.17439">
        <ele>149.9</ele>
        <time>2020-05-30T17:04:50Z</time>
      </trkpt>
      <trkpt lat="46.53505" lon="0.17435">
        <ele>149.7</ele>
        <time>2020-05-30T17:04:51Z</time>
      </trkpt>
      <trkpt lat="46.53499" lon="0.17431">
        <ele>149.6</ele>
        <time>2020-05-30T17:04:52Z</time>
      </trkpt>
      <trkpt lat="46.53493" lon="0.17427">
        <ele>149.4</ele>
        <time>2020-05-30T17:04:53Z</time>
      </trkpt>
      <trkpt lat="46.53487" lon="0.17423">
        <ele>149.3</ele>
        <time>2020-05-30T17:04:54Z</time>
      </trkpt>
      <trkpt lat="46.5348" lon="0.17418">
        <ele>149.3</ele>
        <time>2020-05-30T17:04:55Z</time>
      </trkpt>
      <trkpt lat="46.53474" lon="0.17414">
        <ele>149.2</ele>
        <time>2020-05-30T17:04:56Z</time>
      </trkpt>
      <trkpt lat="46.53467" lon="0.1741">
        <ele>149.2</ele>
        <time>2020-05-30T17:04:57Z</time>
      </trkpt>
      <trkpt lat="46.5346" lon="0.17407">
        <ele>149.2</ele>
        <time>2020-05-30T17:04:58Z</time>
      </trkpt>
      <trkpt lat="46.53454" lon="0.17403">
        <ele>149.2</ele>
        <time>2020-05-30T17:04:59Z</time>
      </trkpt>
      <trkpt lat="46.53447" lon="0.17401">
        <ele>149.2</ele>
        <time>2020-05-30T17:05:00Z</time>
      </trkpt>
      <trkpt lat="46.53441" lon="0.17396">
        <ele>149.2</ele>
        <time>2020-05-30T17:05:01Z</time>
      </trkpt>
      <trkpt lat="46.53434" lon="0.17393">
        <ele>149.2</ele>
        <time>2020-05-30T17:05:02Z</time>
      </trkpt>
      <trkpt lat="46.53428" lon="0.17389">
        <ele>149.1</ele>
        <time>2020-05-30T17:05:03Z</time>
      </trkpt>
      <trkpt lat="46.53422" lon="0.17385">
        <ele>149.1</ele>
        <time>2020-05-30T17:05:04Z</time>
      </trkpt>
      <trkpt lat="46.53416" lon="0.17381">
        <ele>149</ele>
        <time>2020-05-30T17:05:05Z</time>
      </trkpt>
      <trkpt lat="46.5341" lon="0.17376">
        <ele>149</ele>
        <time>2020-05-30T17:05:06Z</time>
      </trkpt>
      <trkpt lat="46.53404" lon="0.17372">
        <ele>148.9</ele>
        <time>2020-05-30T17:05:07Z</time>
      </trkpt>
      <trkpt lat="46.53398" lon="0.17369">
        <ele>148.9</ele>
        <time>2020-05-30T17:05:08Z</time>
      </trkpt>
      <trkpt lat="46.53393" lon="0.17363">
        <ele>148.8</ele>
        <time>2020-05-30T17:05:09Z</time>
      </trkpt>
      <trkpt lat="46.53386" lon="0.17359">
        <ele>148.7</ele>
        <time>2020-05-30T17:05:10Z</time>
      </trkpt>
      <trkpt lat="46.5338" lon="0.17355">
        <ele>148.6</ele>
        <time>2020-05-30T17:05:11Z</time>
      </trkpt>
      <trkpt lat="46.53374" lon="0.17349">
        <ele>148.5</ele>
        <time>2020-05-30T17:05:12Z</time>
      </trkpt>
      <trkpt lat="46.53369" lon="0.17342">
        <ele>148.4</ele>
        <time>2020-05-30T17:05:13Z</time>
      </trkpt>
      <trkpt lat="46.53364" lon="0.17335">
        <ele>148.2</ele>
        <time>2020-05-30T17:05:14Z</time>
      </trkpt>
      <trkpt lat="46.53358" lon="0.17328">
        <ele>148</ele>
        <time>2020-05-30T17:05:15Z</time>
      </trkpt>
      <trkpt lat="46.53353" lon="0.17321">
        <ele>147.8</ele>
        <time>2020-05-30T17:05:16Z</time>
      </trkpt>
      <trkpt lat="46.53348" lon="0.17313">
        <ele>147.5</ele>
        <time>2020-05-30T17:05:17Z</time>
      </trkpt>
      <trkpt lat="46.53343" lon="0.17304">
        <ele>147.3</ele>
        <time>2020-05-30T17:05:18Z</time>
      </trkpt>
      <trkpt lat="46.53338" lon="0.17295">
        <ele>147.1</ele>
        <time>2020-05-30T17:05:19Z</time>
      </trkpt>
      <trkpt lat="46.53333" lon="0.17286">
        <ele>146.8</ele>
        <time>2020-05-30T17:05:20Z</time>
      </trkpt>
      <trkpt lat="46.53328" lon="0.17277">
        <ele>146.6</ele>
        <time>2020-05-30T17:05:21Z</time>
      </trkpt>
      <trkpt lat="46.53324" lon="0.17266">
        <ele>146.3</ele>
        <time>2020-05-30T17:05:22Z</time>
      </trkpt>
      <trkpt lat="46.53319" lon="0.17256">
        <ele>146.1</ele>
        <time>2020-05-30T17:05:23Z</time>
      </trkpt>
      <trkpt lat="46.53314" lon="0.17246">
        <ele>145.9</ele>
        <time>2020-05-30T17:05:24Z</time>
      </trkpt>
      <trkpt lat="46.53309" lon="0.17236">
        <ele>145.6</ele>
        <time>2020-05-30T17:05:25Z</time>
      </trkpt>
      <trkpt lat="46.53304" lon="0.17226">
        <ele>145.3</ele>
        <time>2020-05-30T17:05:26Z</time>
      </trkpt>
      <trkpt lat="46.53299" lon="0.17216">
        <ele>145.1</ele>
        <time>2020-05-30T17:05:27Z</time>
      </trkpt>
      <trkpt lat="46.53294" lon="0.17206">
        <ele>144.9</ele>
        <time>2020-05-30T17:05:28Z</time>
      </trkpt>
      <trkpt lat="46.53289" lon="0.17196">
        <ele>144.7</ele>
        <time>2020-05-30T17:05:29Z</time>
      </trkpt>
      <trkpt lat="46.53284" lon="0.17186">
        <ele>144.6</ele>
        <time>2020-05-30T17:05:30Z</time>
      </trkpt>
      <trkpt lat="46.53279" lon="0.17175">
        <ele>144.4</ele>
        <time>2020-05-30T17:05:31Z</time>
      </trkpt>
      <trkpt lat="46.53273" lon="0.17166">
        <ele>144.3</ele>
        <time>2020-05-30T17:05:32Z</time>
      </trkpt>
      <trkpt lat="46.53268" lon="0.17156">
        <ele>144.3</ele>
        <time>2020-05-30T17:05:33Z</time>
      </trkpt>
      <trkpt lat="46.53263" lon="0.17146">
        <ele>144.2</ele>
        <time>2020-05-30T17:05:34Z</time>
      </trkpt>
      <trkpt lat="46.53259" lon="0.17136">
        <ele>144.2</ele>
        <time>2020-05-30T17:05:35Z</time>
      </trkpt>
      <trkpt lat="46.53254" lon="0.17126">
        <ele>144.2</ele>
        <time>2020-05-30T17:05:36Z</time>
      </trkpt>
      <trkpt lat="46.53249" lon="0.17117">
        <ele>144.2</ele>
        <time>2020-05-30T17:05:37Z</time>
      </trkpt>
      <trkpt lat="46.53246" lon="0.17107">
        <ele>144.2</ele>
        <time>2020-05-30T17:05:38Z</time>
      </trkpt>
      <trkpt lat="46.53241" lon="0.17098">
        <ele>144.1</ele>
        <time>2020-05-30T17:05:39Z</time>
      </trkpt>
      <trkpt lat="46.53236" lon="0.1709">
        <ele>144.1</ele>
        <time>2020-05-30T17:05:40Z</time>
      </trkpt>
      <trkpt lat="46.53231" lon="0.17081">
        <ele>144.1</ele>
        <time>2020-05-30T17:05:41Z</time>
      </trkpt>
      <trkpt lat="46.53227" lon="0.17071">
        <ele>144.1</ele>
        <time>2020-05-30T17:05:42Z</time>
      </trkpt>
      <trkpt lat="46.53223" lon="0.17061">
        <ele>144.1</ele>
        <time>2020-05-30T17:05:43Z</time>
      </trkpt>
      <trkpt lat="46.53219" lon="0.17052">
        <ele>144.1</ele>
        <time>2020-05-30T17:05:44Z</time>
      </trkpt>
      <trkpt lat="46.53214" lon="0.17042">
        <ele>144.1</ele>
        <time>2020-05-30T17:05:45Z</time>
      </trkpt>
      <trkpt lat="46.5321" lon="0.17033">
        <ele>144.1</ele>
        <time>2020-05-30T17:05:46Z</time>
      </trkpt>
      <trkpt lat="46.53207" lon="0.17023">
        <ele>144.1</ele>
        <time>2020-05-30T17:05:47Z</time>
      </trkpt>
      <trkpt lat="46.53204" lon="0.17012">
        <ele>144.1</ele>
        <time>2020-05-30T17:05:48Z</time>
      </trkpt>
      <trkpt lat="46.53201" lon="0.17002">
        <ele>144.1</ele>
        <time>2020-05-30T17:05:49Z</time>
      </trkpt>
      <trkpt lat="46.53198" lon="0.16992">
        <ele>144.1</ele>
        <time>2020-05-30T17:05:50Z</time>
      </trkpt>
      <trkpt lat="46.53195" lon="0.16983">
        <ele>144.1</ele>
        <time>2020-05-30T17:05:51Z</time>
      </trkpt>
      <trkpt lat="46.53191" lon="0.16973">
        <ele>144.1</ele>
        <time>2020-05-30T17:05:52Z</time>
      </trkpt>
      <trkpt lat="46.53189" lon="0.16963">
        <ele>144.1</ele>
        <time>2020-05-30T17:05:53Z</time>
      </trkpt>
      <trkpt lat="46.53185" lon="0.16954">
        <ele>144.1</ele>
        <time>2020-05-30T17:05:54Z</time>
      </trkpt>
      <trkpt lat="46.53181" lon="0.16945">
        <ele>144.1</ele>
        <time>2020-05-30T17:05:55Z</time>
      </trkpt>
      <trkpt lat="46.53178" lon="0.16935">
        <ele>144.1</ele>
        <time>2020-05-30T17:05:56Z</time>
      </trkpt>
      <trkpt lat="46.53175" lon="0.16927">
        <ele>144.2</ele>
        <time>2020-05-30T17:05:57Z</time>
      </trkpt>
      <trkpt lat="46.53172" lon="0.16918">
        <ele>144.3</ele>
        <time>2020-05-30T17:05:58Z</time>
      </trkpt>
      <trkpt lat="46.53169" lon="0.16909">
        <ele>144.4</ele>
        <time>2020-05-30T17:05:59Z</time>
      </trkpt>
      <trkpt lat="46.53166" lon="0.16901">
        <ele>144.5</ele>
        <time>2020-05-30T17:06:00Z</time>
      </trkpt>
      <trkpt lat="46.53163" lon="0.16892">
        <ele>144.6</ele>
        <time>2020-05-30T17:06:01Z</time>
      </trkpt>
      <trkpt lat="46.5316" lon="0.16884">
        <ele>144.7</ele>
        <time>2020-05-30T17:06:02Z</time>
      </trkpt>
      <trkpt lat="46.53157" lon="0.16875">
        <ele>144.8</ele>
        <time>2020-05-30T17:06:03Z</time>
      </trkpt>
      <trkpt lat="46.53154" lon="0.16866">
        <ele>144.9</ele>
        <time>2020-05-30T17:06:04Z</time>
      </trkpt>
      <trkpt lat="46.53152" lon="0.16858">
        <ele>145</ele>
        <time>2020-05-30T17:06:05Z</time>
      </trkpt>
      <trkpt lat="46.53149" lon="0.16849">
        <ele>145.1</ele>
        <time>2020-05-30T17:06:06Z</time>
      </trkpt>
      <trkpt lat="46.53146" lon="0.16841">
        <ele>145.2</ele>
        <time>2020-05-30T17:06:07Z</time>
      </trkpt>
      <trkpt lat="46.53144" lon="0.16832">
        <ele>145.4</ele>
        <time>2020-05-30T17:06:08Z</time>
      </trkpt>
      <trkpt lat="46.53141" lon="0.16824">
        <ele>145.5</ele>
        <time>2020-05-30T17:06:09Z</time>
      </trkpt>
      <trkpt lat="46.53138" lon="0.16816">
        <ele>145.6</ele>
        <time>2020-05-30T17:06:10Z</time>
      </trkpt>
      <trkpt lat="46.53135" lon="0.16807">
        <ele>145.7</ele>
        <time>2020-05-30T17:06:11Z</time>
      </trkpt>
      <trkpt lat="46.53132" lon="0.168">
        <ele>145.8</ele>
        <time>2020-05-30T17:06:12Z</time>
      </trkpt>
      <trkpt lat="46.53128" lon="0.16792">
        <ele>145.9</ele>
        <time>2020-05-30T17:06:13Z</time>
      </trkpt>
      <trkpt lat="46.53124" lon="0.16785">
        <ele>146</ele>
        <time>2020-05-30T17:06:14Z</time>
      </trkpt>
      <trkpt lat="46.53121" lon="0.16777">
        <ele>146</ele>
        <time>2020-05-30T17:06:15Z</time>
      </trkpt>
      <trkpt lat="46.53118" lon="0.16769">
        <ele>146.1</ele>
        <time>2020-05-30T17:06:16Z</time>
      </trkpt>
      <trkpt lat="46.53114" lon="0.16762">
        <ele>146.2</ele>
        <time>2020-05-30T17:06:17Z</time>
      </trkpt>
      <trkpt lat="46.5311" lon="0.16756">
        <ele>146.3</ele>
        <time>2020-05-30T17:06:18Z</time>
      </trkpt>
      <trkpt lat="46.53105" lon="0.16749">
        <ele>146.4</ele>
        <time>2020-05-30T17:06:19Z</time>
      </trkpt>
      <trkpt lat="46.53101" lon="0.16743">
        <ele>146.5</ele>
        <time>2020-05-30T17:06:20Z</time>
      </trkpt>
      <trkpt lat="46.53097" lon="0.16737">
        <ele>146.5</ele>
        <time>2020-05-30T17:06:21Z</time>
      </trkpt>
      <trkpt lat="46.53092" lon="0.16732">
        <ele>146.6</ele>
        <time>2020-05-30T17:06:22Z</time>
      </trkpt>
      <trkpt lat="46.53088" lon="0.16726">
        <ele>146.7</ele>
        <time>2020-05-30T17:06:23Z</time>
      </trkpt>
      <trkpt lat="46.53083" lon="0.16721">
        <ele>146.7</ele>
        <time>2020-05-30T17:06:24Z</time>
      </trkpt>
      <trkpt lat="46.53078" lon="0.16715">
        <ele>146.8</ele>
        <time>2020-05-30T17:06:25Z</time>
      </trkpt>
      <trkpt lat="46.53073" lon="0.1671">
        <ele>146.8</ele>
        <time>2020-05-30T17:06:26Z</time>
      </trkpt>
      <trkpt lat="46.53069" lon="0.16703">
        <ele>146.9</ele>
        <time>2020-05-30T17:06:27Z</time>
      </trkpt>
      <trkpt lat="46.53064" lon="0.16697">
        <ele>146.9</ele>
        <time>2020-05-30T17:06:28Z</time>
      </trkpt>
      <trkpt lat="46.5306" lon="0.1669">
        <ele>147</ele>
        <time>2020-05-30T17:06:29Z</time>
      </trkpt>
      <trkpt lat="46.53055" lon="0.16685">
        <ele>147</ele>
        <time>2020-05-30T17:06:30Z</time>
      </trkpt>
      <trkpt lat="46.5305" lon="0.16679">
        <ele>147.1</ele>
        <time>2020-05-30T17:06:31Z</time>
      </trkpt>
      <trkpt lat="46.53046" lon="0.16671">
        <ele>147.1</ele>
        <time>2020-05-30T17:06:32Z</time>
      </trkpt>
      <trkpt lat="46.53042" lon="0.16665">
        <ele>147.2</ele>
        <time>2020-05-30T17:06:33Z</time>
      </trkpt>
      <trkpt lat="46.53037" lon="0.16659">
        <ele>147.2</ele>
        <time>2020-05-30T17:06:34Z</time>
      </trkpt>
      <trkpt lat="46.53033" lon="0.16653">
        <ele>147.2</ele>
        <time>2020-05-30T17:06:35Z</time>
      </trkpt>
      <trkpt lat="46.53028" lon="0.16647">
        <ele>147.3</ele>
        <time>2020-05-30T17:06:36Z</time>
      </trkpt>
      <trkpt lat="46.53024" lon="0.16642">
        <ele>147.3</ele>
        <time>2020-05-30T17:06:37Z</time>
      </trkpt>
      <trkpt lat="46.53019" lon="0.16635">
        <ele>147.4</ele>
        <time>2020-05-30T17:06:38Z</time>
      </trkpt>
      <trkpt lat="46.53015" lon="0.16629">
        <ele>147.4</ele>
        <time>2020-05-30T17:06:39Z</time>
      </trkpt>
      <trkpt lat="46.5301" lon="0.16622">
        <ele>147.5</ele>
        <time>2020-05-30T17:06:40Z</time>
      </trkpt>
      <trkpt lat="46.53006" lon="0.16616">
        <ele>147.5</ele>
        <time>2020-05-30T17:06:41Z</time>
      </trkpt>
      <trkpt lat="46.53001" lon="0.1661">
        <ele>147.5</ele>
        <time>2020-05-30T17:06:42Z</time>
      </trkpt>
      <trkpt lat="46.52997" lon="0.16603">
        <ele>147.6</ele>
        <time>2020-05-30T17:06:43Z</time>
      </trkpt>
      <trkpt lat="46.52992" lon="0.16597">
        <ele>147.6</ele>
        <time>2020-05-30T17:06:44Z</time>
      </trkpt>
      <trkpt lat="46.52987" lon="0.16591">
        <ele>147.6</ele>
        <time>2020-05-30T17:06:45Z</time>
      </trkpt>
      <trkpt lat="46.52983" lon="0.16584">
        <ele>147.6</ele>
        <time>2020-05-30T17:06:46Z</time>
      </trkpt>
      <trkpt lat="46.52979" lon="0.16578">
        <ele>147.7</ele>
        <time>2020-05-30T17:06:47Z</time>
      </trkpt>
      <trkpt lat="46.52975" lon="0.1657">
        <ele>147.7</ele>
        <time>2020-05-30T17:06:48Z</time>
      </trkpt>
      <trkpt lat="46.52971" lon="0.16564">
        <ele>147.8</ele>
        <time>2020-05-30T17:06:49Z</time>
      </trkpt>
      <trkpt lat="46.52967" lon="0.16557">
        <ele>147.8</ele>
        <time>2020-05-30T17:06:50Z</time>
      </trkpt>
      <trkpt lat="46.52963" lon="0.16549">
        <ele>147.9</ele>
        <time>2020-05-30T17:06:51Z</time>
      </trkpt>
      <trkpt lat="46.52959" lon="0.16542">
        <ele>148</ele>
        <time>2020-05-30T17:06:52Z</time>
      </trkpt>
      <trkpt lat="46.52956" lon="0.16534">
        <ele>148</ele>
        <time>2020-05-30T17:06:53Z</time>
      </trkpt>
      <trkpt lat="46.52953" lon="0.16527">
        <ele>148</ele>
        <time>2020-05-30T17:06:54Z</time>
      </trkpt>
      <trkpt lat="46.52949" lon="0.16519">
        <ele>148</ele>
        <time>2020-05-30T17:06:55Z</time>
      </trkpt>
      <trkpt lat="46.52946" lon="0.16511">
        <ele>148</ele>
        <time>2020-05-30T17:06:56Z</time>
      </trkpt>
      <trkpt lat="46.52941" lon="0.16505">
        <ele>148</ele>
        <time>2020-05-30T17:06:57Z</time>
      </trkpt>
      <trkpt lat="46.52938" lon="0.16496">
        <ele>148</ele>
        <time>2020-05-30T17:06:58Z</time>
      </trkpt>
      <trkpt lat="46.52935" lon="0.16489">
        <ele>148</ele>
        <time>2020-05-30T17:06:59Z</time>
      </trkpt>
      <trkpt lat="46.52931" lon="0.16481">
        <ele>148</ele>
        <time>2020-05-30T17:07:00Z</time>
      </trkpt>
      <trkpt lat="46.52927" lon="0.16473">
        <ele>148</ele>
        <time>2020-05-30T17:07:01Z</time>
      </trkpt>
      <trkpt lat="46.52924" lon="0.16466">
        <ele>148</ele>
        <time>2020-05-30T17:07:02Z</time>
      </trkpt>
      <trkpt lat="46.5292" lon="0.16458">
        <ele>148</ele>
        <time>2020-05-30T17:07:03Z</time>
      </trkpt>
      <trkpt lat="46.52916" lon="0.1645">
        <ele>148</ele>
        <time>2020-05-30T17:07:04Z</time>
      </trkpt>
      <trkpt lat="46.52912" lon="0.16442">
        <ele>148</ele>
        <time>2020-05-30T17:07:05Z</time>
      </trkpt>
      <trkpt lat="46.52908" lon="0.16434">
        <ele>148</ele>
        <time>2020-05-30T17:07:06Z</time>
      </trkpt>
      <trkpt lat="46.52904" lon="0.16426">
        <ele>148</ele>
        <time>2020-05-30T17:07:07Z</time>
      </trkpt>
      <trkpt lat="46.52901" lon="0.16418">
        <ele>148</ele>
        <time>2020-05-30T17:07:08Z</time>
      </trkpt>
      <trkpt lat="46.52898" lon="0.16409">
        <ele>148</ele>
        <time>2020-05-30T17:07:09Z</time>
      </trkpt>
      <trkpt lat="46.52894" lon="0.16402">
        <ele>148</ele>
        <time>2020-05-30T17:07:10Z</time>
      </trkpt>
      <trkpt lat="46.52889" lon="0.16394">
        <ele>148</ele>
        <time>2020-05-30T17:07:11Z</time>
      </trkpt>
      <trkpt lat="46.52886" lon="0.16386">
        <ele>148</ele>
        <time>2020-05-30T17:07:12Z</time>
      </trkpt>
      <trkpt lat="46.52882" lon="0.16379">
        <ele>148</ele>
        <time>2020-05-30T17:07:13Z</time>
      </trkpt>
      <trkpt lat="46.52879" lon="0.16371">
        <ele>148</ele>
        <time>2020-05-30T17:07:14Z</time>
      </trkpt>
      <trkpt lat="46.52875" lon="0.16363">
        <ele>148</ele>
        <time>2020-05-30T17:07:15Z</time>
      </trkpt>
      <trkpt lat="46.52872" lon="0.16356">
        <ele>148</ele>
        <time>2020-05-30T17:07:16Z</time>
      </trkpt>
      <trkpt lat="46.52868" lon="0.16348">
        <ele>148</ele>
        <time>2020-05-30T17:07:17Z</time>
      </trkpt>
      <trkpt lat="46.52864" lon="0.1634">
        <ele>148</ele>
        <time>2020-05-30T17:07:18Z</time>
      </trkpt>
      <trkpt lat="46.5286" lon="0.16332">
        <ele>148</ele>
        <time>2020-05-30T17:07:19Z</time>
      </trkpt>
      <trkpt lat="46.52857" lon="0.16324">
        <ele>148</ele>
        <time>2020-05-30T17:07:20Z</time>
      </trkpt>
      <trkpt lat="46.52854" lon="0.16316">
        <ele>148.1</ele>
        <time>2020-05-30T17:07:21Z</time>
      </trkpt>
      <trkpt lat="46.52851" lon="0.16308">
        <ele>148.1</ele>
        <time>2020-05-30T17:07:22Z</time>
      </trkpt>
      <trkpt lat="46.52848" lon="0.16299">
        <ele>148.1</ele>
        <time>2020-05-30T17:07:23Z</time>
      </trkpt>
      <trkpt lat="46.52845" lon="0.16291">
        <ele>148.1</ele>
        <time>2020-05-30T17:07:24Z</time>
      </trkpt>
      <trkpt lat="46.52843" lon="0.16282">
        <ele>148.2</ele>
        <time>2020-05-30T17:07:25Z</time>
      </trkpt>
      <trkpt lat="46.52842" lon="0.16272">
        <ele>148.2</ele>
        <time>2020-05-30T17:07:26Z</time>
      </trkpt>
      <trkpt lat="46.5284" lon="0.16263">
        <ele>148.2</ele>
        <time>2020-05-30T17:07:27Z</time>
      </trkpt>
      <trkpt lat="46.52837" lon="0.16254">
        <ele>148.3</ele>
        <time>2020-05-30T17:07:28Z</time>
      </trkpt>
      <trkpt lat="46.52835" lon="0.16245">
        <ele>148.3</ele>
        <time>2020-05-30T17:07:29Z</time>
      </trkpt>
      <trkpt lat="46.52833" lon="0.16236">
        <ele>148.4</ele>
        <time>2020-05-30T17:07:30Z</time>
      </trkpt>
      <trkpt lat="46.52831" lon="0.16226">
        <ele>148.4</ele>
        <time>2020-05-30T17:07:31Z</time>
      </trkpt>
      <trkpt lat="46.52829" lon="0.16217">
        <ele>148.4</ele>
        <time>2020-05-30T17:07:32Z</time>
      </trkpt>
      <trkpt lat="46.52826" lon="0.16208">
        <ele>148.4</ele>
        <time>2020-05-30T17:07:33Z</time>
      </trkpt>
      <trkpt lat="46.52824" lon="0.16199">
        <ele>148.4</ele>
        <time>2020-05-30T17:07:34Z</time>
      </trkpt>
      <trkpt lat="46.52821" lon="0.1619">
        <ele>148.4</ele>
        <time>2020-05-30T17:07:35Z</time>
      </trkpt>
      <trkpt lat="46.52818" lon="0.16182">
        <ele>148.4</ele>
        <time>2020-05-30T17:07:36Z</time>
      </trkpt>
      <trkpt lat="46.52816" lon="0.16172">
        <ele>148.4</ele>
        <time>2020-05-30T17:07:37Z</time>
      </trkpt>
      <trkpt lat="46.52814" lon="0.16163">
        <ele>148.4</ele>
        <time>2020-05-30T17:07:38Z</time>
      </trkpt>
      <trkpt lat="46.52811" lon="0.16153">
        <ele>148.4</ele>
        <time>2020-05-30T17:07:39Z</time>
      </trkpt>
      <trkpt lat="46.52809" lon="0.16144">
        <ele>148.4</ele>
        <time>2020-05-30T17:07:40Z</time>
      </trkpt>
      <trkpt lat="46.52806" lon="0.16134">
        <ele>148.4</ele>
        <time>2020-05-30T17:07:41Z</time>
      </trkpt>
      <trkpt lat="46.52804" lon="0.16125">
        <ele>148.3</ele>
        <time>2020-05-30T17:07:42Z</time>
      </trkpt>
      <trkpt lat="46.52801" lon="0.16115">
        <ele>148.3</ele>
        <time>2020-05-30T17:07:43Z</time>
      </trkpt>
      <trkpt lat="46.52799" lon="0.16106">
        <ele>148.2</ele>
        <time>2020-05-30T17:07:44Z</time>
      </trkpt>
      <trkpt lat="46.52796" lon="0.16096">
        <ele>148.2</ele>
        <time>2020-05-30T17:07:45Z</time>
      </trkpt>
      <trkpt lat="46.52793" lon="0.16087">
        <ele>148.1</ele>
        <time>2020-05-30T17:07:46Z</time>
      </trkpt>
      <trkpt lat="46.52789" lon="0.16078">
        <ele>148.1</ele>
        <time>2020-05-30T17:07:47Z</time>
      </trkpt>
      <trkpt lat="46.52787" lon="0.16069">
        <ele>148.1</ele>
        <time>2020-05-30T17:07:48Z</time>
      </trkpt>
      <trkpt lat="46.52785" lon="0.16059">
        <ele>148</ele>
        <time>2020-05-30T17:07:49Z</time>
      </trkpt>
      <trkpt lat="46.52782" lon="0.1605">
        <ele>148</ele>
        <time>2020-05-30T17:07:50Z</time>
      </trkpt>
      <trkpt lat="46.5278" lon="0.1604">
        <ele>148</ele>
        <time>2020-05-30T17:07:51Z</time>
      </trkpt>
      <trkpt lat="46.52777" lon="0.16031">
        <ele>148</ele>
        <time>2020-05-30T17:07:52Z</time>
      </trkpt>
      <trkpt lat="46.52775" lon="0.16021">
        <ele>147.9</ele>
        <time>2020-05-30T17:07:53Z</time>
      </trkpt>
      <trkpt lat="46.52773" lon="0.16011">
        <ele>148</ele>
        <time>2020-05-30T17:07:54Z</time>
      </trkpt>
      <trkpt lat="46.5277" lon="0.16003">
        <ele>148</ele>
        <time>2020-05-30T17:07:55Z</time>
      </trkpt>
      <trkpt lat="46.52766" lon="0.15994">
        <ele>148</ele>
        <time>2020-05-30T17:07:56Z</time>
      </trkpt>
      <trkpt lat="46.52764" lon="0.15986">
        <ele>148</ele>
        <time>2020-05-30T17:07:57Z</time>
      </trkpt>
      <trkpt lat="46.52761" lon="0.15977">
        <ele>147.9</ele>
        <time>2020-05-30T17:07:58Z</time>
      </trkpt>
      <trkpt lat="46.52759" lon="0.15969">
        <ele>147.8</ele>
        <time>2020-05-30T17:07:59Z</time>
      </trkpt>
      <trkpt lat="46.52756" lon="0.15961">
        <ele>147.7</ele>
        <time>2020-05-30T17:08:00Z</time>
      </trkpt>
      <trkpt lat="46.52754" lon="0.15952">
        <ele>147.6</ele>
        <time>2020-05-30T17:08:01Z</time>
      </trkpt>
      <trkpt lat="46.52752" lon="0.15944">
        <ele>147.5</ele>
        <time>2020-05-30T17:08:02Z</time>
      </trkpt>
      <trkpt lat="46.5275" lon="0.15935">
        <ele>147.4</ele>
        <time>2020-05-30T17:08:03Z</time>
      </trkpt>
      <trkpt lat="46.52748" lon="0.15927">
        <ele>147.3</ele>
        <time>2020-05-30T17:08:04Z</time>
      </trkpt>
      <trkpt lat="46.52745" lon="0.15918">
        <ele>147.3</ele>
        <time>2020-05-30T17:08:05Z</time>
      </trkpt>
      <trkpt lat="46.52743" lon="0.1591">
        <ele>147.4</ele>
        <time>2020-05-30T17:08:06Z</time>
      </trkpt>
      <trkpt lat="46.5274" lon="0.15901">
        <ele>147.4</ele>
        <time>2020-05-30T17:08:07Z</time>
      </trkpt>
      <trkpt lat="46.52737" lon="0.15892">
        <ele>147.4</ele>
        <time>2020-05-30T17:08:08Z</time>
      </trkpt>
      <trkpt lat="46.52734" lon="0.15883">
        <ele>147.4</ele>
        <time>2020-05-30T17:08:09Z</time>
      </trkpt>
      <trkpt lat="46.52731" lon="0.15875">
        <ele>147.4</ele>
        <time>2020-05-30T17:08:10Z</time>
      </trkpt>
      <trkpt lat="46.52729" lon="0.15865">
        <ele>147.5</ele>
        <time>2020-05-30T17:08:11Z</time>
      </trkpt>
      <trkpt lat="46.52726" lon="0.15856">
        <ele>147.4</ele>
        <time>2020-05-30T17:08:12Z</time>
      </trkpt>
      <trkpt lat="46.52723" lon="0.15847">
        <ele>147.3</ele>
        <time>2020-05-30T17:08:13Z</time>
      </trkpt>
      <trkpt lat="46.5272" lon="0.15838">
        <ele>147.2</ele>
        <time>2020-05-30T17:08:14Z</time>
      </trkpt>
      <trkpt lat="46.52718" lon="0.15829">
        <ele>147.2</ele>
        <time>2020-05-30T17:08:15Z</time>
      </trkpt>
      <trkpt lat="46.52716" lon="0.15819">
        <ele>147.2</ele>
        <time>2020-05-30T17:08:16Z</time>
      </trkpt>
      <trkpt lat="46.52713" lon="0.1581">
        <ele>147.1</ele>
        <time>2020-05-30T17:08:17Z</time>
      </trkpt>
      <trkpt lat="46.5271" lon="0.15802">
        <ele>147.1</ele>
        <time>2020-05-30T17:08:18Z</time>
      </trkpt>
      <trkpt lat="46.52707" lon="0.15792">
        <ele>147</ele>
        <time>2020-05-30T17:08:19Z</time>
      </trkpt>
      <trkpt lat="46.52704" lon="0.15783">
        <ele>147</ele>
        <time>2020-05-30T17:08:20Z</time>
      </trkpt>
      <trkpt lat="46.52702" lon="0.15774">
        <ele>147</ele>
        <time>2020-05-30T17:08:21Z</time>
      </trkpt>
      <trkpt lat="46.52699" lon="0.15765">
        <ele>147</ele>
        <time>2020-05-30T17:08:22Z</time>
      </trkpt>
      <trkpt lat="46.52695" lon="0.15757">
        <ele>147</ele>
        <time>2020-05-30T17:08:23Z</time>
      </trkpt>
      <trkpt lat="46.52692" lon="0.15749">
        <ele>147</ele>
        <time>2020-05-30T17:08:24Z</time>
      </trkpt>
      <trkpt lat="46.52689" lon="0.1574">
        <ele>147</ele>
        <time>2020-05-30T17:08:25Z</time>
      </trkpt>
      <trkpt lat="46.52687" lon="0.15732">
        <ele>147</ele>
        <time>2020-05-30T17:08:26Z</time>
      </trkpt>
      <trkpt lat="46.52684" lon="0.15724">
        <ele>147</ele>
        <time>2020-05-30T17:08:27Z</time>
      </trkpt>
      <trkpt lat="46.52682" lon="0.15716">
        <ele>147</ele>
        <time>2020-05-30T17:08:28Z</time>
      </trkpt>
      <trkpt lat="46.52679" lon="0.15708">
        <ele>147</ele>
        <time>2020-05-30T17:08:29Z</time>
      </trkpt>
      <trkpt lat="46.52676" lon="0.157">
        <ele>147</ele>
        <time>2020-05-30T17:08:30Z</time>
      </trkpt>
      <trkpt lat="46.52673" lon="0.15691">
        <ele>147.1</ele>
        <time>2020-05-30T17:08:31Z</time>
      </trkpt>
      <trkpt lat="46.52671" lon="0.15683">
        <ele>147.1</ele>
        <time>2020-05-30T17:08:32Z</time>
      </trkpt>
      <trkpt lat="46.52668" lon="0.15674">
        <ele>147.1</ele>
        <time>2020-05-30T17:08:33Z</time>
      </trkpt>
      <trkpt lat="46.52666" lon="0.15665">
        <ele>147.1</ele>
        <time>2020-05-30T17:08:34Z</time>
      </trkpt>
      <trkpt lat="46.52663" lon="0.15657">
        <ele>147.1</ele>
        <time>2020-05-30T17:08:35Z</time>
      </trkpt>
      <trkpt lat="46.52659" lon="0.15648">
        <ele>147.1</ele>
        <time>2020-05-30T17:08:36Z</time>
      </trkpt>
      <trkpt lat="46.52657" lon="0.15639">
        <ele>147.1</ele>
        <time>2020-05-30T17:08:37Z</time>
      </trkpt>
      <trkpt lat="46.52654" lon="0.15631">
        <ele>147.2</ele>
        <time>2020-05-30T17:08:38Z</time>
      </trkpt>
      <trkpt lat="46.52651" lon="0.15622">
        <ele>147.2</ele>
        <time>2020-05-30T17:08:39Z</time>
      </trkpt>
      <trkpt lat="46.52648" lon="0.15613">
        <ele>147.2</ele>
        <time>2020-05-30T17:08:40Z</time>
      </trkpt>
      <trkpt lat="46.52646" lon="0.15604">
        <ele>147.2</ele>
        <time>2020-05-30T17:08:41Z</time>
      </trkpt>
      <trkpt lat="46.52643" lon="0.15595">
        <ele>147.3</ele>
        <time>2020-05-30T17:08:42Z</time>
      </trkpt>
      <trkpt lat="46.5264" lon="0.15585">
        <ele>147.3</ele>
        <time>2020-05-30T17:08:43Z</time>
      </trkpt>
      <trkpt lat="46.52637" lon="0.15576">
        <ele>147.4</ele>
        <time>2020-05-30T17:08:44Z</time>
      </trkpt>
      <trkpt lat="46.52633" lon="0.15568">
        <ele>147.4</ele>
        <time>2020-05-30T17:08:45Z</time>
      </trkpt>
      <trkpt lat="46.5263" lon="0.15558">
        <ele>147.5</ele>
        <time>2020-05-30T17:08:46Z</time>
      </trkpt>
      <trkpt lat="46.52627" lon="0.15549">
        <ele>147.5</ele>
        <time>2020-05-30T17:08:47Z</time>
      </trkpt>
      <trkpt lat="46.52623" lon="0.1554">
        <ele>147.6</ele>
        <time>2020-05-30T17:08:48Z</time>
      </trkpt>
      <trkpt lat="46.52621" lon="0.1553">
        <ele>147.6</ele>
        <time>2020-05-30T17:08:49Z</time>
      </trkpt>
      <trkpt lat="46.52617" lon="0.15521">
        <ele>147.6</ele>
        <time>2020-05-30T17:08:50Z</time>
      </trkpt>
      <trkpt lat="46.52615" lon="0.15511">
        <ele>147.6</ele>
        <time>2020-05-30T17:08:51Z</time>
      </trkpt>
      <trkpt lat="46.52612" lon="0.15501">
        <ele>147.6</ele>
        <time>2020-05-30T17:08:52Z</time>
      </trkpt>
      <trkpt lat="46.52609" lon="0.15492">
        <ele>147.6</ele>
        <time>2020-05-30T17:08:53Z</time>
      </trkpt>
      <trkpt lat="46.52606" lon="0.15483">
        <ele>147.6</ele>
        <time>2020-05-30T17:08:54Z</time>
      </trkpt>
      <trkpt lat="46.52603" lon="0.15473">
        <ele>147.7</ele>
        <time>2020-05-30T17:08:55Z</time>
      </trkpt>
      <trkpt lat="46.52601" lon="0.15463">
        <ele>147.7</ele>
        <time>2020-05-30T17:08:56Z</time>
      </trkpt>
      <trkpt lat="46.52598" lon="0.15454">
        <ele>147.7</ele>
        <time>2020-05-30T17:08:57Z</time>
      </trkpt>
      <trkpt lat="46.52595" lon="0.15445">
        <ele>147.7</ele>
        <time>2020-05-30T17:08:58Z</time>
      </trkpt>
      <trkpt lat="46.52592" lon="0.15436">
        <ele>147.7</ele>
        <time>2020-05-30T17:08:59Z</time>
      </trkpt>
      <trkpt lat="46.52589" lon="0.15428">
        <ele>147.8</ele>
        <time>2020-05-30T17:09:00Z</time>
      </trkpt>
      <trkpt lat="46.52585" lon="0.1542">
        <ele>147.8</ele>
        <time>2020-05-30T17:09:01Z</time>
      </trkpt>
      <trkpt lat="46.52581" lon="0.15412">
        <ele>147.9</ele>
        <time>2020-05-30T17:09:02Z</time>
      </trkpt>
      <trkpt lat="46.52577" lon="0.15404">
        <ele>147.9</ele>
        <time>2020-05-30T17:09:03Z</time>
      </trkpt>
      <trkpt lat="46.52572" lon="0.15396">
        <ele>147.9</ele>
        <time>2020-05-30T17:09:04Z</time>
      </trkpt>
      <trkpt lat="46.52568" lon="0.15389">
        <ele>147.9</ele>
        <time>2020-05-30T17:09:05Z</time>
      </trkpt>
      <trkpt lat="46.52563" lon="0.15382">
        <ele>147.9</ele>
        <time>2020-05-30T17:09:06Z</time>
      </trkpt>
      <trkpt lat="46.52558" lon="0.15375">
        <ele>147.9</ele>
        <time>2020-05-30T17:09:07Z</time>
      </trkpt>
      <trkpt lat="46.52553" lon="0.15368">
        <ele>147.9</ele>
        <time>2020-05-30T17:09:08Z</time>
      </trkpt>
      <trkpt lat="46.52549" lon="0.1536">
        <ele>147.9</ele>
        <time>2020-05-30T17:09:09Z</time>
      </trkpt>
      <trkpt lat="46.52544" lon="0.15353">
        <ele>147.9</ele>
        <time>2020-05-30T17:09:10Z</time>
      </trkpt>
      <trkpt lat="46.5254" lon="0.15346">
        <ele>148</ele>
        <time>2020-05-30T17:09:11Z</time>
      </trkpt>
      <trkpt lat="46.52535" lon="0.15338">
        <ele>148.1</ele>
        <time>2020-05-30T17:09:12Z</time>
      </trkpt>
      <trkpt lat="46.52531" lon="0.1533">
        <ele>148.2</ele>
        <time>2020-05-30T17:09:13Z</time>
      </trkpt>
      <trkpt lat="46.52527" lon="0.15322">
        <ele>148.3</ele>
        <time>2020-05-30T17:09:14Z</time>
      </trkpt>
      <trkpt lat="46.52522" lon="0.15315">
        <ele>148.4</ele>
        <time>2020-05-30T17:09:15Z</time>
      </trkpt>
      <trkpt lat="46.52518" lon="0.15307">
        <ele>148.5</ele>
        <time>2020-05-30T17:09:16Z</time>
      </trkpt>
      <trkpt lat="46.52514" lon="0.15299">
        <ele>148.6</ele>
        <time>2020-05-30T17:09:17Z</time>
      </trkpt>
      <trkpt lat="46.52509" lon="0.15291">
        <ele>148.7</ele>
        <time>2020-05-30T17:09:18Z</time>
      </trkpt>
      <trkpt lat="46.52505" lon="0.15283">
        <ele>148.7</ele>
        <time>2020-05-30T17:09:19Z</time>
      </trkpt>
      <trkpt lat="46.52501" lon="0.15275">
        <ele>148.7</ele>
        <time>2020-05-30T17:09:20Z</time>
      </trkpt>
      <trkpt lat="46.52498" lon="0.15266">
        <ele>148.7</ele>
        <time>2020-05-30T17:09:21Z</time>
      </trkpt>
      <trkpt lat="46.52494" lon="0.15257">
        <ele>148.7</ele>
        <time>2020-05-30T17:09:22Z</time>
      </trkpt>
      <trkpt lat="46.52491" lon="0.15248">
        <ele>148.7</ele>
        <time>2020-05-30T17:09:23Z</time>
      </trkpt>
      <trkpt lat="46.52487" lon="0.15239">
        <ele>148.6</ele>
        <time>2020-05-30T17:09:24Z</time>
      </trkpt>
      <trkpt lat="46.52484" lon="0.1523">
        <ele>148.6</ele>
        <time>2020-05-30T17:09:25Z</time>
      </trkpt>
      <trkpt lat="46.52481" lon="0.15221">
        <ele>148.6</ele>
        <time>2020-05-30T17:09:26Z</time>
      </trkpt>
      <trkpt lat="46.52477" lon="0.15212">
        <ele>148.6</ele>
        <time>2020-05-30T17:09:27Z</time>
      </trkpt>
      <trkpt lat="46.52474" lon="0.15202">
        <ele>148.6</ele>
        <time>2020-05-30T17:09:28Z</time>
      </trkpt>
      <trkpt lat="46.52471" lon="0.15193">
        <ele>148.6</ele>
        <time>2020-05-30T17:09:29Z</time>
      </trkpt>
      <trkpt lat="46.52467" lon="0.15184">
        <ele>148.6</ele>
        <time>2020-05-30T17:09:30Z</time>
      </trkpt>
      <trkpt lat="46.52464" lon="0.15175">
        <ele>148.6</ele>
        <time>2020-05-30T17:09:31Z</time>
      </trkpt>
      <trkpt lat="46.5246" lon="0.15166">
        <ele>148.6</ele>
        <time>2020-05-30T17:09:32Z</time>
      </trkpt>
      <trkpt lat="46.52457" lon="0.15157">
        <ele>148.6</ele>
        <time>2020-05-30T17:09:33Z</time>
      </trkpt>
      <trkpt lat="46.52453" lon="0.15149">
        <ele>148.6</ele>
        <time>2020-05-30T17:09:34Z</time>
      </trkpt>
      <trkpt lat="46.5245" lon="0.1514">
        <ele>148.6</ele>
        <time>2020-05-30T17:09:35Z</time>
      </trkpt>
      <trkpt lat="46.52447" lon="0.15132">
        <ele>148.6</ele>
        <time>2020-05-30T17:09:36Z</time>
      </trkpt>
      <trkpt lat="46.52444" lon="0.15123">
        <ele>148.6</ele>
        <time>2020-05-30T17:09:37Z</time>
      </trkpt>
      <trkpt lat="46.5244" lon="0.15115">
        <ele>148.7</ele>
        <time>2020-05-30T17:09:38Z</time>
      </trkpt>
      <trkpt lat="46.52437" lon="0.15107">
        <ele>148.7</ele>
        <time>2020-05-30T17:09:39Z</time>
      </trkpt>
      <trkpt lat="46.52433" lon="0.15099">
        <ele>148.7</ele>
        <time>2020-05-30T17:09:40Z</time>
      </trkpt>
      <trkpt lat="46.5243" lon="0.15091">
        <ele>148.7</ele>
        <time>2020-05-30T17:09:41Z</time>
      </trkpt>
      <trkpt lat="46.52428" lon="0.15083">
        <ele>148.7</ele>
        <time>2020-05-30T17:09:42Z</time>
      </trkpt>
      <trkpt lat="46.52425" lon="0.15075">
        <ele>148.7</ele>
        <time>2020-05-30T17:09:43Z</time>
      </trkpt>
      <trkpt lat="46.52422" lon="0.15067">
        <ele>148.7</ele>
        <time>2020-05-30T17:09:44Z</time>
      </trkpt>
      <trkpt lat="46.52419" lon="0.1506">
        <ele>148.7</ele>
        <time>2020-05-30T17:09:45Z</time>
      </trkpt>
      <trkpt lat="46.52416" lon="0.15052">
        <ele>148.8</ele>
        <time>2020-05-30T17:09:46Z</time>
      </trkpt>
      <trkpt lat="46.52412" lon="0.15046">
        <ele>148.8</ele>
        <time>2020-05-30T17:09:47Z</time>
      </trkpt>
      <trkpt lat="46.52409" lon="0.15039">
        <ele>148.7</ele>
        <time>2020-05-30T17:09:48Z</time>
      </trkpt>
      <trkpt lat="46.52407" lon="0.15031">
        <ele>148.7</ele>
        <time>2020-05-30T17:09:49Z</time>
      </trkpt>
      <trkpt lat="46.52404" lon="0.15023">
        <ele>148.7</ele>
        <time>2020-05-30T17:09:50Z</time>
      </trkpt>
      <trkpt lat="46.52401" lon="0.15016">
        <ele>148.7</ele>
        <time>2020-05-30T17:09:51Z</time>
      </trkpt>
      <trkpt lat="46.52398" lon="0.15009">
        <ele>148.7</ele>
        <time>2020-05-30T17:09:52Z</time>
      </trkpt>
      <trkpt lat="46.52396" lon="0.15001">
        <ele>148.7</ele>
        <time>2020-05-30T17:09:53Z</time>
      </trkpt>
      <trkpt lat="46.52394" lon="0.14993">
        <ele>148.6</ele>
        <time>2020-05-30T17:09:54Z</time>
      </trkpt>
      <trkpt lat="46.5239" lon="0.14986">
        <ele>148.5</ele>
        <time>2020-05-30T17:09:55Z</time>
      </trkpt>
      <trkpt lat="46.52388" lon="0.14978">
        <ele>148.4</ele>
        <time>2020-05-30T17:09:56Z</time>
      </trkpt>
      <trkpt lat="46.52386" lon="0.14971">
        <ele>148.3</ele>
        <time>2020-05-30T17:09:57Z</time>
      </trkpt>
      <trkpt lat="46.52384" lon="0.14963">
        <ele>148.2</ele>
        <time>2020-05-30T17:09:58Z</time>
      </trkpt>
      <trkpt lat="46.52381" lon="0.14956">
        <ele>148.1</ele>
        <time>2020-05-30T17:09:59Z</time>
      </trkpt>
      <trkpt lat="46.5238" lon="0.14948">
        <ele>148</ele>
        <time>2020-05-30T17:10:00Z</time>
      </trkpt>
      <trkpt lat="46.52376" lon="0.14942">
        <ele>147.9</ele>
        <time>2020-05-30T17:10:01Z</time>
      </trkpt>
      <trkpt lat="46.52374" lon="0.14934">
        <ele>147.8</ele>
        <time>2020-05-30T17:10:02Z</time>
      </trkpt>
      <trkpt lat="46.52374" lon="0.14925">
        <ele>147.8</ele>
        <time>2020-05-30T17:10:03Z</time>
      </trkpt>
      <trkpt lat="46.52374" lon="0.14916">
        <ele>147.8</ele>
        <time>2020-05-30T17:10:04Z</time>
      </trkpt>
      <trkpt lat="46.52374" lon="0.14907">
        <ele>147.8</ele>
        <time>2020-05-30T17:10:05Z</time>
      </trkpt>
      <trkpt lat="46.52373" lon="0.14898">
        <ele>147.8</ele>
        <time>2020-05-30T17:10:06Z</time>
      </trkpt>
      <trkpt lat="46.52372" lon="0.1489">
        <ele>147.8</ele>
        <time>2020-05-30T17:10:07Z</time>
      </trkpt>
      <trkpt lat="46.5237" lon="0.14881">
        <ele>147.8</ele>
        <time>2020-05-30T17:10:08Z</time>
      </trkpt>
      <trkpt lat="46.52371" lon="0.14873">
        <ele>147.9</ele>
        <time>2020-05-30T17:10:09Z</time>
      </trkpt>
      <trkpt lat="46.52371" lon="0.14864">
        <ele>147.9</ele>
        <time>2020-05-30T17:10:10Z</time>
      </trkpt>
      <trkpt lat="46.5237" lon="0.14856">
        <ele>147.9</ele>
        <time>2020-05-30T17:10:11Z</time>
      </trkpt>
      <trkpt lat="46.5237" lon="0.14847">
        <ele>147.8</ele>
        <time>2020-05-30T17:10:12Z</time>
      </trkpt>
      <trkpt lat="46.5237" lon="0.14839">
        <ele>147.8</ele>
        <time>2020-05-30T17:10:13Z</time>
      </trkpt>
      <trkpt lat="46.5237" lon="0.1483">
        <ele>147.7</ele>
        <time>2020-05-30T17:10:14Z</time>
      </trkpt>
      <trkpt lat="46.52369" lon="0.14821">
        <ele>147.7</ele>
        <time>2020-05-30T17:10:15Z</time>
      </trkpt>
      <trkpt lat="46.52368" lon="0.14812">
        <ele>147.6</ele>
        <time>2020-05-30T17:10:16Z</time>
      </trkpt>
      <trkpt lat="46.52368" lon="0.14802">
        <ele>147.5</ele>
        <time>2020-05-30T17:10:17Z</time>
      </trkpt>
      <trkpt lat="46.52366" lon="0.14794">
        <ele>147.5</ele>
        <time>2020-05-30T17:10:18Z</time>
      </trkpt>
      <trkpt lat="46.52366" lon="0.14785">
        <ele>147.4</ele>
        <time>2020-05-30T17:10:19Z</time>
      </trkpt>
      <trkpt lat="46.52366" lon="0.14776">
        <ele>147.4</ele>
        <time>2020-05-30T17:10:20Z</time>
      </trkpt>
      <trkpt lat="46.52366" lon="0.14768">
        <ele>147.3</ele>
        <time>2020-05-30T17:10:21Z</time>
      </trkpt>
      <trkpt lat="46.52365" lon="0.1476">
        <ele>147.3</ele>
        <time>2020-05-30T17:10:22Z</time>
      </trkpt>
      <trkpt lat="46.52364" lon="0.14751">
        <ele>147.3</ele>
        <time>2020-05-30T17:10:23Z</time>
      </trkpt>
      <trkpt lat="46.52363" lon="0.14743">
        <ele>147.2</ele>
        <time>2020-05-30T17:10:24Z</time>
      </trkpt>
      <trkpt lat="46.52363" lon="0.14735">
        <ele>147.1</ele>
        <time>2020-05-30T17:10:25Z</time>
      </trkpt>
      <trkpt lat="46.52362" lon="0.14726">
        <ele>147.1</ele>
        <time>2020-05-30T17:10:26Z</time>
      </trkpt>
      <trkpt lat="46.52361" lon="0.14718">
        <ele>147</ele>
        <time>2020-05-30T17:10:27Z</time>
      </trkpt>
      <trkpt lat="46.52361" lon="0.1471">
        <ele>147</ele>
        <time>2020-05-30T17:10:28Z</time>
      </trkpt>
      <trkpt lat="46.52361" lon="0.14702">
        <ele>146.9</ele>
        <time>2020-05-30T17:10:29Z</time>
      </trkpt>
      <trkpt lat="46.52361" lon="0.14694">
        <ele>146.9</ele>
        <time>2020-05-30T17:10:30Z</time>
      </trkpt>
      <trkpt lat="46.5236" lon="0.14687">
        <ele>146.8</ele>
        <time>2020-05-30T17:10:31Z</time>
      </trkpt>
      <trkpt lat="46.5236" lon="0.14679">
        <ele>146.8</ele>
        <time>2020-05-30T17:10:32Z</time>
      </trkpt>
      <trkpt lat="46.52361" lon="0.14671">
        <ele>146.8</ele>
        <time>2020-05-30T17:10:33Z</time>
      </trkpt>
      <trkpt lat="46.52361" lon="0.14663">
        <ele>146.8</ele>
        <time>2020-05-30T17:10:34Z</time>
      </trkpt>
      <trkpt lat="46.5236" lon="0.14655">
        <ele>146.8</ele>
        <time>2020-05-30T17:10:35Z</time>
      </trkpt>
      <trkpt lat="46.52359" lon="0.14646">
        <ele>146.8</ele>
        <time>2020-05-30T17:10:36Z</time>
      </trkpt>
      <trkpt lat="46.52358" lon="0.14636">
        <ele>146.7</ele>
        <time>2020-05-30T17:10:37Z</time>
      </trkpt>
      <trkpt lat="46.52357" lon="0.14627">
        <ele>146.7</ele>
        <time>2020-05-30T17:10:38Z</time>
      </trkpt>
      <trkpt lat="46.52356" lon="0.14617">
        <ele>146.6</ele>
        <time>2020-05-30T17:10:39Z</time>
      </trkpt>
      <trkpt lat="46.52356" lon="0.14607">
        <ele>146.6</ele>
        <time>2020-05-30T17:10:40Z</time>
      </trkpt>
      <trkpt lat="46.52355" lon="0.14597">
        <ele>146.5</ele>
        <time>2020-05-30T17:10:41Z</time>
      </trkpt>
      <trkpt lat="46.52355" lon="0.14588">
        <ele>146.4</ele>
        <time>2020-05-30T17:10:42Z</time>
      </trkpt>
      <trkpt lat="46.52354" lon="0.14578">
        <ele>146.4</ele>
        <time>2020-05-30T17:10:43Z</time>
      </trkpt>
      <trkpt lat="46.52354" lon="0.14569">
        <ele>146.3</ele>
        <time>2020-05-30T17:10:44Z</time>
      </trkpt>
      <trkpt lat="46.52353" lon="0.14559">
        <ele>146.2</ele>
        <time>2020-05-30T17:10:45Z</time>
      </trkpt>
      <trkpt lat="46.52355" lon="0.1455">
        <ele>146.2</ele>
        <time>2020-05-30T17:10:46Z</time>
      </trkpt>
      <trkpt lat="46.52354" lon="0.1454">
        <ele>146.1</ele>
        <time>2020-05-30T17:10:47Z</time>
      </trkpt>
      <trkpt lat="46.52353" lon="0.14531">
        <ele>146.1</ele>
        <time>2020-05-30T17:10:48Z</time>
      </trkpt>
      <trkpt lat="46.52352" lon="0.14521">
        <ele>146</ele>
        <time>2020-05-30T17:10:49Z</time>
      </trkpt>
      <trkpt lat="46.52351" lon="0.14512">
        <ele>146</ele>
        <time>2020-05-30T17:10:50Z</time>
      </trkpt>
      <trkpt lat="46.5235" lon="0.14502">
        <ele>146</ele>
        <time>2020-05-30T17:10:51Z</time>
      </trkpt>
      <trkpt lat="46.5235" lon="0.14492">
        <ele>146</ele>
        <time>2020-05-30T17:10:52Z</time>
      </trkpt>
      <trkpt lat="46.5235" lon="0.14481">
        <ele>146</ele>
        <time>2020-05-30T17:10:53Z</time>
      </trkpt>
      <trkpt lat="46.52349" lon="0.14471">
        <ele>146</ele>
        <time>2020-05-30T17:10:54Z</time>
      </trkpt>
      <trkpt lat="46.52349" lon="0.1446">
        <ele>146</ele>
        <time>2020-05-30T17:10:55Z</time>
      </trkpt>
      <trkpt lat="46.52349" lon="0.14449">
        <ele>146</ele>
        <time>2020-05-30T17:10:56Z</time>
      </trkpt>
      <trkpt lat="46.52348" lon="0.14439">
        <ele>146</ele>
        <time>2020-05-30T17:10:57Z</time>
      </trkpt>
      <trkpt lat="46.52347" lon="0.14428">
        <ele>146</ele>
        <time>2020-05-30T17:10:58Z</time>
      </trkpt>
      <trkpt lat="46.52346" lon="0.14417">
        <ele>146</ele>
        <time>2020-05-30T17:10:59Z</time>
      </trkpt>
      <trkpt lat="46.52345" lon="0.14407">
        <ele>146</ele>
        <time>2020-05-30T17:11:00Z</time>
      </trkpt>
      <trkpt lat="46.52344" lon="0.14397">
        <ele>146.1</ele>
        <time>2020-05-30T17:11:01Z</time>
      </trkpt>
      <trkpt lat="46.52343" lon="0.14387">
        <ele>146.1</ele>
        <time>2020-05-30T17:11:02Z</time>
      </trkpt>
      <trkpt lat="46.52343" lon="0.14377">
        <ele>146.1</ele>
        <time>2020-05-30T17:11:03Z</time>
      </trkpt>
      <trkpt lat="46.52342" lon="0.14367">
        <ele>146.1</ele>
        <time>2020-05-30T17:11:04Z</time>
      </trkpt>
      <trkpt lat="46.52341" lon="0.14357">
        <ele>146.2</ele>
        <time>2020-05-30T17:11:05Z</time>
      </trkpt>
      <trkpt lat="46.52341" lon="0.14347">
        <ele>146.2</ele>
        <time>2020-05-30T17:11:06Z</time>
      </trkpt>
      <trkpt lat="46.5234" lon="0.14338">
        <ele>146.3</ele>
        <time>2020-05-30T17:11:07Z</time>
      </trkpt>
      <trkpt lat="46.52339" lon="0.14328">
        <ele>146.3</ele>
        <time>2020-05-30T17:11:08Z</time>
      </trkpt>
      <trkpt lat="46.52339" lon="0.14318">
        <ele>146.4</ele>
        <time>2020-05-30T17:11:09Z</time>
      </trkpt>
      <trkpt lat="46.52339" lon="0.14309">
        <ele>146.5</ele>
        <time>2020-05-30T17:11:10Z</time>
      </trkpt>
      <trkpt lat="46.52338" lon="0.14299">
        <ele>146.5</ele>
        <time>2020-05-30T17:11:11Z</time>
      </trkpt>
      <trkpt lat="46.52337" lon="0.14289">
        <ele>146.6</ele>
        <time>2020-05-30T17:11:12Z</time>
      </trkpt>
      <trkpt lat="46.52336" lon="0.14279">
        <ele>146.6</ele>
        <time>2020-05-30T17:11:13Z</time>
      </trkpt>
      <trkpt lat="46.52336" lon="0.1427">
        <ele>146.7</ele>
        <time>2020-05-30T17:11:14Z</time>
      </trkpt>
      <trkpt lat="46.52335" lon="0.1426">
        <ele>146.8</ele>
        <time>2020-05-30T17:11:15Z</time>
      </trkpt>
      <trkpt lat="46.52334" lon="0.1425">
        <ele>146.9</ele>
        <time>2020-05-30T17:11:16Z</time>
      </trkpt>
      <trkpt lat="46.52333" lon="0.14241">
        <ele>146.9</ele>
        <time>2020-05-30T17:11:17Z</time>
      </trkpt>
      <trkpt lat="46.52332" lon="0.14231">
        <ele>147</ele>
        <time>2020-05-30T17:11:18Z</time>
      </trkpt>
      <trkpt lat="46.52332" lon="0.14222">
        <ele>147.1</ele>
        <time>2020-05-30T17:11:19Z</time>
      </trkpt>
      <trkpt lat="46.52331" lon="0.14213">
        <ele>147.2</ele>
        <time>2020-05-30T17:11:20Z</time>
      </trkpt>
      <trkpt lat="46.5233" lon="0.14203">
        <ele>147.3</ele>
        <time>2020-05-30T17:11:21Z</time>
      </trkpt>
      <trkpt lat="46.5233" lon="0.14194">
        <ele>147.4</ele>
        <time>2020-05-30T17:11:22Z</time>
      </trkpt>
      <trkpt lat="46.52331" lon="0.14185">
        <ele>147.5</ele>
        <time>2020-05-30T17:11:23Z</time>
      </trkpt>
      <trkpt lat="46.5233" lon="0.14176">
        <ele>147.6</ele>
        <time>2020-05-30T17:11:24Z</time>
      </trkpt>
      <trkpt lat="46.52329" lon="0.14167">
        <ele>147.7</ele>
        <time>2020-05-30T17:11:25Z</time>
      </trkpt>
      <trkpt lat="46.52329" lon="0.14158">
        <ele>147.8</ele>
        <time>2020-05-30T17:11:26Z</time>
      </trkpt>
      <trkpt lat="46.52327" lon="0.14149">
        <ele>147.9</ele>
        <time>2020-05-30T17:11:27Z</time>
      </trkpt>
      <trkpt lat="46.52327" lon="0.14141">
        <ele>148</ele>
        <time>2020-05-30T17:11:28Z</time>
      </trkpt>
      <trkpt lat="46.52327" lon="0.14132">
        <ele>148.1</ele>
        <time>2020-05-30T17:11:29Z</time>
      </trkpt>
      <trkpt lat="46.52327" lon="0.14123">
        <ele>148.2</ele>
        <time>2020-05-30T17:11:30Z</time>
      </trkpt>
      <trkpt lat="46.52327" lon="0.14114">
        <ele>148.3</ele>
        <time>2020-05-30T17:11:31Z</time>
      </trkpt>
      <trkpt lat="46.52326" lon="0.14105">
        <ele>148.4</ele>
        <time>2020-05-30T17:11:32Z</time>
      </trkpt>
      <trkpt lat="46.52326" lon="0.14096">
        <ele>148.5</ele>
        <time>2020-05-30T17:11:33Z</time>
      </trkpt>
      <trkpt lat="46.52327" lon="0.14087">
        <ele>148.6</ele>
        <time>2020-05-30T17:11:34Z</time>
      </trkpt>
      <trkpt lat="46.52327" lon="0.14079">
        <ele>148.7</ele>
        <time>2020-05-30T17:11:35Z</time>
      </trkpt>
      <trkpt lat="46.52327" lon="0.1407">
        <ele>148.7</ele>
        <time>2020-05-30T17:11:36Z</time>
      </trkpt>
      <trkpt lat="46.52328" lon="0.14061">
        <ele>148.8</ele>
        <time>2020-05-30T17:11:37Z</time>
      </trkpt>
      <trkpt lat="46.52329" lon="0.14053">
        <ele>148.8</ele>
        <time>2020-05-30T17:11:38Z</time>
      </trkpt>
      <trkpt lat="46.5233" lon="0.14044">
        <ele>148.8</ele>
        <time>2020-05-30T17:11:39Z</time>
      </trkpt>
      <trkpt lat="46.5233" lon="0.14035">
        <ele>148.8</ele>
        <time>2020-05-30T17:11:40Z</time>
      </trkpt>
      <trkpt lat="46.52331" lon="0.14027">
        <ele>148.8</ele>
        <time>2020-05-30T17:11:41Z</time>
      </trkpt>
      <trkpt lat="46.52332" lon="0.14018">
        <ele>148.7</ele>
        <time>2020-05-30T17:11:42Z</time>
      </trkpt>
      <trkpt lat="46.5233" lon="0.14009">
        <ele>148.7</ele>
        <time>2020-05-30T17:11:43Z</time>
      </trkpt>
      <trkpt lat="46.5233" lon="0.14001">
        <ele>148.7</ele>
        <time>2020-05-30T17:11:44Z</time>
      </trkpt>
      <trkpt lat="46.52331" lon="0.13993">
        <ele>148.7</ele>
        <time>2020-05-30T17:11:45Z</time>
      </trkpt>
      <trkpt lat="46.52331" lon="0.13984">
        <ele>148.7</ele>
        <time>2020-05-30T17:11:46Z</time>
      </trkpt>
      <trkpt lat="46.52331" lon="0.13976">
        <ele>148.7</ele>
        <time>2020-05-30T17:11:47Z</time>
      </trkpt>
      <trkpt lat="46.5233" lon="0.13966">
        <ele>148.7</ele>
        <time>2020-05-30T17:11:48Z</time>
      </trkpt>
      <trkpt lat="46.52331" lon="0.13957">
        <ele>148.7</ele>
        <time>2020-05-30T17:11:49Z</time>
      </trkpt>
      <trkpt lat="46.52331" lon="0.13947">
        <ele>148.7</ele>
        <time>2020-05-30T17:11:50Z</time>
      </trkpt>
      <trkpt lat="46.52331" lon="0.13938">
        <ele>148.8</ele>
        <time>2020-05-30T17:11:51Z</time>
      </trkpt>
      <trkpt lat="46.52331" lon="0.13927">
        <ele>148.7</ele>
        <time>2020-05-30T17:11:52Z</time>
      </trkpt>
      <trkpt lat="46.52331" lon="0.13921">
        <ele>148.7</ele>
        <time>2020-05-30T17:11:53Z</time>
      </trkpt>
      <trkpt lat="46.52329" lon="0.13911">
        <ele>148.7</ele>
        <time>2020-05-30T17:11:54Z</time>
      </trkpt>
      <trkpt lat="46.52328" lon="0.13902">
        <ele>148.7</ele>
        <time>2020-05-30T17:11:55Z</time>
      </trkpt>
      <trkpt lat="46.52325" lon="0.13894">
        <ele>148.7</ele>
        <time>2020-05-30T17:11:56Z</time>
      </trkpt>
      <trkpt lat="46.52322" lon="0.13886">
        <ele>148.7</ele>
        <time>2020-05-30T17:11:57Z</time>
      </trkpt>
      <trkpt lat="46.52319" lon="0.13878">
        <ele>148.7</ele>
        <time>2020-05-30T17:11:58Z</time>
      </trkpt>
      <trkpt lat="46.52316" lon="0.13869">
        <ele>148.6</ele>
        <time>2020-05-30T17:11:59Z</time>
      </trkpt>
      <trkpt lat="46.52313" lon="0.1386">
        <ele>148.6</ele>
        <time>2020-05-30T17:12:00Z</time>
      </trkpt>
      <trkpt lat="46.5231" lon="0.13853">
        <ele>148.6</ele>
        <time>2020-05-30T17:12:01Z</time>
      </trkpt>
      <trkpt lat="46.52307" lon="0.13845">
        <ele>148.6</ele>
        <time>2020-05-30T17:12:02Z</time>
      </trkpt>
      <trkpt lat="46.52304" lon="0.13837">
        <ele>148.6</ele>
        <time>2020-05-30T17:12:03Z</time>
      </trkpt>
      <trkpt lat="46.52301" lon="0.13828">
        <ele>148.6</ele>
        <time>2020-05-30T17:12:04Z</time>
      </trkpt>
      <trkpt lat="46.52297" lon="0.13819">
        <ele>148.6</ele>
        <time>2020-05-30T17:12:05Z</time>
      </trkpt>
      <trkpt lat="46.52295" lon="0.13812">
        <ele>148.6</ele>
        <time>2020-05-30T17:12:06Z</time>
      </trkpt>
      <trkpt lat="46.52291" lon="0.13804">
        <ele>148.6</ele>
        <time>2020-05-30T17:12:07Z</time>
      </trkpt>
      <trkpt lat="46.52288" lon="0.13795">
        <ele>148.6</ele>
        <time>2020-05-30T17:12:08Z</time>
      </trkpt>
      <trkpt lat="46.52284" lon="0.13786">
        <ele>148.6</ele>
        <time>2020-05-30T17:12:09Z</time>
      </trkpt>
      <trkpt lat="46.52281" lon="0.13777">
        <ele>148.6</ele>
        <time>2020-05-30T17:12:10Z</time>
      </trkpt>
      <trkpt lat="46.52278" lon="0.13769">
        <ele>148.6</ele>
        <time>2020-05-30T17:12:11Z</time>
      </trkpt>
      <trkpt lat="46.52275" lon="0.13762">
        <ele>148.6</ele>
        <time>2020-05-30T17:12:12Z</time>
      </trkpt>
      <trkpt lat="46.52272" lon="0.13755">
        <ele>148.6</ele>
        <time>2020-05-30T17:12:13Z</time>
      </trkpt>
      <trkpt lat="46.52269" lon="0.13747">
        <ele>148.6</ele>
        <time>2020-05-30T17:12:14Z</time>
      </trkpt>
      <trkpt lat="46.52266" lon="0.1374">
        <ele>148.6</ele>
        <time>2020-05-30T17:12:15Z</time>
      </trkpt>
      <trkpt lat="46.52263" lon="0.13733">
        <ele>148.6</ele>
        <time>2020-05-30T17:12:16Z</time>
      </trkpt>
      <trkpt lat="46.5226" lon="0.13726">
        <ele>148.6</ele>
        <time>2020-05-30T17:12:17Z</time>
      </trkpt>
      <trkpt lat="46.52258" lon="0.13718">
        <ele>148.6</ele>
        <time>2020-05-30T17:12:18Z</time>
      </trkpt>
      <trkpt lat="46.52255" lon="0.13711">
        <ele>148.6</ele>
        <time>2020-05-30T17:12:19Z</time>
      </trkpt>
      <trkpt lat="46.52252" lon="0.13704">
        <ele>148.6</ele>
        <time>2020-05-30T17:12:20Z</time>
      </trkpt>
      <trkpt lat="46.52249" lon="0.13696">
        <ele>148.6</ele>
        <time>2020-05-30T17:12:21Z</time>
      </trkpt>
      <trkpt lat="46.52247" lon="0.13689">
        <ele>148.6</ele>
        <time>2020-05-30T17:12:22Z</time>
      </trkpt>
      <trkpt lat="46.52244" lon="0.13681">
        <ele>148.6</ele>
        <time>2020-05-30T17:12:23Z</time>
      </trkpt>
      <trkpt lat="46.52242" lon="0.13673">
        <ele>148.6</ele>
        <time>2020-05-30T17:12:24Z</time>
      </trkpt>
      <trkpt lat="46.52239" lon="0.13666">
        <ele>148.7</ele>
        <time>2020-05-30T17:12:25Z</time>
      </trkpt>
      <trkpt lat="46.52237" lon="0.13658">
        <ele>148.7</ele>
        <time>2020-05-30T17:12:26Z</time>
      </trkpt>
      <trkpt lat="46.52233" lon="0.13651">
        <ele>148.7</ele>
        <time>2020-05-30T17:12:27Z</time>
      </trkpt>
      <trkpt lat="46.5223" lon="0.13643">
        <ele>148.7</ele>
        <time>2020-05-30T17:12:28Z</time>
      </trkpt>
      <trkpt lat="46.52228" lon="0.13635">
        <ele>148.7</ele>
        <time>2020-05-30T17:12:29Z</time>
      </trkpt>
      <trkpt lat="46.52224" lon="0.13628">
        <ele>148.7</ele>
        <time>2020-05-30T17:12:30Z</time>
      </trkpt>
      <trkpt lat="46.5222" lon="0.13621">
        <ele>148.7</ele>
        <time>2020-05-30T17:12:31Z</time>
      </trkpt>
      <trkpt lat="46.52217" lon="0.13613">
        <ele>148.7</ele>
        <time>2020-05-30T17:12:32Z</time>
      </trkpt>
      <trkpt lat="46.52214" lon="0.13606">
        <ele>148.7</ele>
        <time>2020-05-30T17:12:33Z</time>
      </trkpt>
      <trkpt lat="46.5221" lon="0.13599">
        <ele>148.7</ele>
        <time>2020-05-30T17:12:34Z</time>
      </trkpt>
      <trkpt lat="46.52207" lon="0.13591">
        <ele>148.7</ele>
        <time>2020-05-30T17:12:35Z</time>
      </trkpt>
      <trkpt lat="46.52204" lon="0.13583">
        <ele>148.8</ele>
        <time>2020-05-30T17:12:36Z</time>
      </trkpt>
      <trkpt lat="46.52202" lon="0.13576">
        <ele>148.8</ele>
        <time>2020-05-30T17:12:37Z</time>
      </trkpt>
      <trkpt lat="46.522" lon="0.13567">
        <ele>148.8</ele>
        <time>2020-05-30T17:12:38Z</time>
      </trkpt>
      <trkpt lat="46.52197" lon="0.13559">
        <ele>148.8</ele>
        <time>2020-05-30T17:12:39Z</time>
      </trkpt>
      <trkpt lat="46.52194" lon="0.13551">
        <ele>148.8</ele>
        <time>2020-05-30T17:12:40Z</time>
      </trkpt>
      <trkpt lat="46.52191" lon="0.13543">
        <ele>148.9</ele>
        <time>2020-05-30T17:12:41Z</time>
      </trkpt>
      <trkpt lat="46.52188" lon="0.13535">
        <ele>148.9</ele>
        <time>2020-05-30T17:12:42Z</time>
      </trkpt>
      <trkpt lat="46.52184" lon="0.13527">
        <ele>148.9</ele>
        <time>2020-05-30T17:12:43Z</time>
      </trkpt>
      <trkpt lat="46.52181" lon="0.13519">
        <ele>148.9</ele>
        <time>2020-05-30T17:12:44Z</time>
      </trkpt>
      <trkpt lat="46.52178" lon="0.1351">
        <ele>148.9</ele>
        <time>2020-05-30T17:12:45Z</time>
      </trkpt>
      <trkpt lat="46.52175" lon="0.13502">
        <ele>148.9</ele>
        <time>2020-05-30T17:12:46Z</time>
      </trkpt>
      <trkpt lat="46.52171" lon="0.13494">
        <ele>149</ele>
        <time>2020-05-30T17:12:47Z</time>
      </trkpt>
      <trkpt lat="46.52168" lon="0.13486">
        <ele>149</ele>
        <time>2020-05-30T17:12:48Z</time>
      </trkpt>
      <trkpt lat="46.52165" lon="0.13478">
        <ele>149</ele>
        <time>2020-05-30T17:12:49Z</time>
      </trkpt>
      <trkpt lat="46.52161" lon="0.1347">
        <ele>149</ele>
        <time>2020-05-30T17:12:50Z</time>
      </trkpt>
      <trkpt lat="46.52158" lon="0.13461">
        <ele>149</ele>
        <time>2020-05-30T17:12:51Z</time>
      </trkpt>
      <trkpt lat="46.52155" lon="0.13453">
        <ele>149.1</ele>
        <time>2020-05-30T17:12:52Z</time>
      </trkpt>
      <trkpt lat="46.52152" lon="0.13444">
        <ele>149.1</ele>
        <time>2020-05-30T17:12:53Z</time>
      </trkpt>
      <trkpt lat="46.52149" lon="0.13436">
        <ele>149.2</ele>
        <time>2020-05-30T17:12:54Z</time>
      </trkpt>
      <trkpt lat="46.52146" lon="0.13427">
        <ele>149.2</ele>
        <time>2020-05-30T17:12:55Z</time>
      </trkpt>
      <trkpt lat="46.52143" lon="0.13419">
        <ele>149.2</ele>
        <time>2020-05-30T17:12:56Z</time>
      </trkpt>
      <trkpt lat="46.5214" lon="0.1341">
        <ele>149.3</ele>
        <time>2020-05-30T17:12:57Z</time>
      </trkpt>
      <trkpt lat="46.52137" lon="0.13402">
        <ele>149.3</ele>
        <time>2020-05-30T17:12:58Z</time>
      </trkpt>
      <trkpt lat="46.52134" lon="0.13393">
        <ele>149.3</ele>
        <time>2020-05-30T17:12:59Z</time>
      </trkpt>
      <trkpt lat="46.52131" lon="0.13385">
        <ele>149.3</ele>
        <time>2020-05-30T17:13:00Z</time>
      </trkpt>
      <trkpt lat="46.52127" lon="0.13377">
        <ele>149.3</ele>
        <time>2020-05-30T17:13:01Z</time>
      </trkpt>
      <trkpt lat="46.52124" lon="0.13368">
        <ele>149.3</ele>
        <time>2020-05-30T17:13:02Z</time>
      </trkpt>
      <trkpt lat="46.5212" lon="0.1336">
        <ele>149.3</ele>
        <time>2020-05-30T17:13:03Z</time>
      </trkpt>
      <trkpt lat="46.52117" lon="0.13351">
        <ele>149.3</ele>
        <time>2020-05-30T17:13:04Z</time>
      </trkpt>
      <trkpt lat="46.52114" lon="0.13343">
        <ele>149.3</ele>
        <time>2020-05-30T17:13:05Z</time>
      </trkpt>
      <trkpt lat="46.52111" lon="0.13334">
        <ele>149.3</ele>
        <time>2020-05-30T17:13:06Z</time>
      </trkpt>
      <trkpt lat="46.52108" lon="0.13325">
        <ele>149.3</ele>
        <time>2020-05-30T17:13:07Z</time>
      </trkpt>
      <trkpt lat="46.52105" lon="0.13317">
        <ele>149.2</ele>
        <time>2020-05-30T17:13:08Z</time>
      </trkpt>
      <trkpt lat="46.52102" lon="0.13308">
        <ele>149.2</ele>
        <time>2020-05-30T17:13:09Z</time>
      </trkpt>
      <trkpt lat="46.52099" lon="0.13299">
        <ele>149.1</ele>
        <time>2020-05-30T17:13:10Z</time>
      </trkpt>
      <trkpt lat="46.52097" lon="0.1329">
        <ele>149.1</ele>
        <time>2020-05-30T17:13:11Z</time>
      </trkpt>
      <trkpt lat="46.52095" lon="0.13281">
        <ele>149.1</ele>
        <time>2020-05-30T17:13:12Z</time>
      </trkpt>
      <trkpt lat="46.52093" lon="0.13271">
        <ele>149</ele>
        <time>2020-05-30T17:13:13Z</time>
      </trkpt>
      <trkpt lat="46.52093" lon="0.13261">
        <ele>149</ele>
        <time>2020-05-30T17:13:14Z</time>
      </trkpt>
      <trkpt lat="46.52092" lon="0.13252">
        <ele>149</ele>
        <time>2020-05-30T17:13:15Z</time>
      </trkpt>
      <trkpt lat="46.52092" lon="0.13242">
        <ele>148.9</ele>
        <time>2020-05-30T17:13:16Z</time>
      </trkpt>
      <trkpt lat="46.52091" lon="0.13232">
        <ele>148.9</ele>
        <time>2020-05-30T17:13:17Z</time>
      </trkpt>
      <trkpt lat="46.52091" lon="0.13222">
        <ele>148.9</ele>
        <time>2020-05-30T17:13:18Z</time>
      </trkpt>
      <trkpt lat="46.52091" lon="0.13211">
        <ele>148.8</ele>
        <time>2020-05-30T17:13:19Z</time>
      </trkpt>
      <trkpt lat="46.5209" lon="0.13201">
        <ele>148.8</ele>
        <time>2020-05-30T17:13:20Z</time>
      </trkpt>
      <trkpt lat="46.5209" lon="0.13191">
        <ele>148.7</ele>
        <time>2020-05-30T17:13:21Z</time>
      </trkpt>
      <trkpt lat="46.52089" lon="0.13182">
        <ele>148.6</ele>
        <time>2020-05-30T17:13:22Z</time>
      </trkpt>
      <trkpt lat="46.52087" lon="0.13172">
        <ele>148.5</ele>
        <time>2020-05-30T17:13:23Z</time>
      </trkpt>
      <trkpt lat="46.52086" lon="0.13162">
        <ele>148.5</ele>
        <time>2020-05-30T17:13:24Z</time>
      </trkpt>
      <trkpt lat="46.52085" lon="0.13151">
        <ele>148.4</ele>
        <time>2020-05-30T17:13:25Z</time>
      </trkpt>
      <trkpt lat="46.52084" lon="0.13141">
        <ele>148.2</ele>
        <time>2020-05-30T17:13:26Z</time>
      </trkpt>
      <trkpt lat="46.52084" lon="0.13131">
        <ele>148.1</ele>
        <time>2020-05-30T17:13:27Z</time>
      </trkpt>
      <trkpt lat="46.52083" lon="0.1312">
        <ele>147.9</ele>
        <time>2020-05-30T17:13:28Z</time>
      </trkpt>
      <trkpt lat="46.52082" lon="0.1311">
        <ele>147.7</ele>
        <time>2020-05-30T17:13:29Z</time>
      </trkpt>
      <trkpt lat="46.52081" lon="0.131">
        <ele>147.6</ele>
        <time>2020-05-30T17:13:30Z</time>
      </trkpt>
      <trkpt lat="46.5208" lon="0.13089">
        <ele>147.5</ele>
        <time>2020-05-30T17:13:31Z</time>
      </trkpt>
      <trkpt lat="46.52079" lon="0.13079">
        <ele>147.5</ele>
        <time>2020-05-30T17:13:32Z</time>
      </trkpt>
      <trkpt lat="46.52078" lon="0.13068">
        <ele>147.5</ele>
        <time>2020-05-30T17:13:33Z</time>
      </trkpt>
      <trkpt lat="46.52077" lon="0.13058">
        <ele>147.3</ele>
        <time>2020-05-30T17:13:34Z</time>
      </trkpt>
      <trkpt lat="46.52076" lon="0.13048">
        <ele>147.2</ele>
        <time>2020-05-30T17:13:35Z</time>
      </trkpt>
      <trkpt lat="46.52075" lon="0.13037">
        <ele>147</ele>
        <time>2020-05-30T17:13:36Z</time>
      </trkpt>
      <trkpt lat="46.52073" lon="0.13027">
        <ele>146.9</ele>
        <time>2020-05-30T17:13:37Z</time>
      </trkpt>
      <trkpt lat="46.52071" lon="0.13016">
        <ele>146.8</ele>
        <time>2020-05-30T17:13:38Z</time>
      </trkpt>
      <trkpt lat="46.52069" lon="0.13006">
        <ele>146.6</ele>
        <time>2020-05-30T17:13:39Z</time>
      </trkpt>
      <trkpt lat="46.52066" lon="0.12996">
        <ele>146.5</ele>
        <time>2020-05-30T17:13:40Z</time>
      </trkpt>
      <trkpt lat="46.52064" lon="0.12986">
        <ele>146.3</ele>
        <time>2020-05-30T17:13:41Z</time>
      </trkpt>
      <trkpt lat="46.5206" lon="0.12975">
        <ele>146</ele>
        <time>2020-05-30T17:13:42Z</time>
      </trkpt>
      <trkpt lat="46.52057" lon="0.12965">
        <ele>145.8</ele>
        <time>2020-05-30T17:13:43Z</time>
      </trkpt>
      <trkpt lat="46.52053" lon="0.12956">
        <ele>145.6</ele>
        <time>2020-05-30T17:13:44Z</time>
      </trkpt>
      <trkpt lat="46.52048" lon="0.12947">
        <ele>145.4</ele>
        <time>2020-05-30T17:13:45Z</time>
      </trkpt>
      <trkpt lat="46.52043" lon="0.12938">
        <ele>145.1</ele>
        <time>2020-05-30T17:13:46Z</time>
      </trkpt>
      <trkpt lat="46.52038" lon="0.12929">
        <ele>145</ele>
        <time>2020-05-30T17:13:47Z</time>
      </trkpt>
      <trkpt lat="46.52032" lon="0.1292">
        <ele>144.8</ele>
        <time>2020-05-30T17:13:48Z</time>
      </trkpt>
      <trkpt lat="46.52027" lon="0.12912">
        <ele>144.6</ele>
        <time>2020-05-30T17:13:49Z</time>
      </trkpt>
      <trkpt lat="46.52022" lon="0.12902">
        <ele>144.4</ele>
        <time>2020-05-30T17:13:50Z</time>
      </trkpt>
      <trkpt lat="46.52016" lon="0.12894">
        <ele>144.2</ele>
        <time>2020-05-30T17:13:51Z</time>
      </trkpt>
      <trkpt lat="46.52011" lon="0.12885">
        <ele>144.1</ele>
        <time>2020-05-30T17:13:52Z</time>
      </trkpt>
      <trkpt lat="46.52005" lon="0.12875">
        <ele>143.9</ele>
        <time>2020-05-30T17:13:53Z</time>
      </trkpt>
      <trkpt lat="46.52001" lon="0.12865">
        <ele>143.8</ele>
        <time>2020-05-30T17:13:54Z</time>
      </trkpt>
      <trkpt lat="46.51995" lon="0.12855">
        <ele>143.6</ele>
        <time>2020-05-30T17:13:55Z</time>
      </trkpt>
      <trkpt lat="46.5199" lon="0.12845">
        <ele>143.5</ele>
        <time>2020-05-30T17:13:56Z</time>
      </trkpt>
      <trkpt lat="46.51985" lon="0.12834">
        <ele>143.4</ele>
        <time>2020-05-30T17:13:57Z</time>
      </trkpt>
      <trkpt lat="46.51981" lon="0.12824">
        <ele>143.3</ele>
        <time>2020-05-30T17:13:58Z</time>
      </trkpt>
      <trkpt lat="46.51977" lon="0.12813">
        <ele>143.2</ele>
        <time>2020-05-30T17:13:59Z</time>
      </trkpt>
      <trkpt lat="46.51973" lon="0.12802">
        <ele>143.1</ele>
        <time>2020-05-30T17:14:00Z</time>
      </trkpt>
      <trkpt lat="46.51971" lon="0.12792">
        <ele>143</ele>
        <time>2020-05-30T17:14:01Z</time>
      </trkpt>
      <trkpt lat="46.51968" lon="0.12781">
        <ele>142.9</ele>
        <time>2020-05-30T17:14:02Z</time>
      </trkpt>
      <trkpt lat="46.51967" lon="0.12769">
        <ele>142.9</ele>
        <time>2020-05-30T17:14:03Z</time>
      </trkpt>
      <trkpt lat="46.51965" lon="0.12758">
        <ele>142.9</ele>
        <time>2020-05-30T17:14:04Z</time>
      </trkpt>
      <trkpt lat="46.51963" lon="0.12747">
        <ele>142.9</ele>
        <time>2020-05-30T17:14:05Z</time>
      </trkpt>
      <trkpt lat="46.51961" lon="0.12736">
        <ele>142.9</ele>
        <time>2020-05-30T17:14:06Z</time>
      </trkpt>
      <trkpt lat="46.5196" lon="0.12726">
        <ele>142.9</ele>
        <time>2020-05-30T17:14:07Z</time>
      </trkpt>
      <trkpt lat="46.51959" lon="0.12715">
        <ele>143</ele>
        <time>2020-05-30T17:14:08Z</time>
      </trkpt>
      <trkpt lat="46.51957" lon="0.12705">
        <ele>143</ele>
        <time>2020-05-30T17:14:09Z</time>
      </trkpt>
      <trkpt lat="46.51956" lon="0.12694">
        <ele>143.1</ele>
        <time>2020-05-30T17:14:10Z</time>
      </trkpt>
      <trkpt lat="46.51955" lon="0.12684">
        <ele>143.1</ele>
        <time>2020-05-30T17:14:11Z</time>
      </trkpt>
      <trkpt lat="46.51953" lon="0.12675">
        <ele>143.2</ele>
        <time>2020-05-30T17:14:12Z</time>
      </trkpt>
      <trkpt lat="46.51951" lon="0.12666">
        <ele>143.2</ele>
        <time>2020-05-30T17:14:13Z</time>
      </trkpt>
      <trkpt lat="46.5195" lon="0.12657">
        <ele>143.2</ele>
        <time>2020-05-30T17:14:14Z</time>
      </trkpt>
      <trkpt lat="46.51949" lon="0.12649">
        <ele>143.2</ele>
        <time>2020-05-30T17:14:15Z</time>
      </trkpt>
      <trkpt lat="46.51947" lon="0.12641">
        <ele>143.2</ele>
        <time>2020-05-30T17:14:16Z</time>
      </trkpt>
      <trkpt lat="46.51947" lon="0.12634">
        <ele>143.2</ele>
        <time>2020-05-30T17:14:17Z</time>
      </trkpt>
      <trkpt lat="46.51946" lon="0.12626">
        <ele>143.3</ele>
        <time>2020-05-30T17:14:18Z</time>
      </trkpt>
      <trkpt lat="46.51946" lon="0.12617">
        <ele>143.3</ele>
        <time>2020-05-30T17:14:19Z</time>
      </trkpt>
      <trkpt lat="46.51944" lon="0.1261">
        <ele>143.3</ele>
        <time>2020-05-30T17:14:20Z</time>
      </trkpt>
      <trkpt lat="46.51943" lon="0.12602">
        <ele>143.4</ele>
        <time>2020-05-30T17:14:21Z</time>
      </trkpt>
      <trkpt lat="46.51941" lon="0.12595">
        <ele>143.4</ele>
        <time>2020-05-30T17:14:22Z</time>
      </trkpt>
      <trkpt lat="46.5194" lon="0.12587">
        <ele>143.5</ele>
        <time>2020-05-30T17:14:23Z</time>
      </trkpt>
      <trkpt lat="46.51939" lon="0.12579">
        <ele>143.6</ele>
        <time>2020-05-30T17:14:24Z</time>
      </trkpt>
      <trkpt lat="46.51939" lon="0.1257">
        <ele>143.7</ele>
        <time>2020-05-30T17:14:25Z</time>
      </trkpt>
      <trkpt lat="46.51938" lon="0.12563">
        <ele>143.8</ele>
        <time>2020-05-30T17:14:26Z</time>
      </trkpt>
      <trkpt lat="46.51936" lon="0.12555">
        <ele>143.8</ele>
        <time>2020-05-30T17:14:27Z</time>
      </trkpt>
      <trkpt lat="46.51935" lon="0.12547">
        <ele>143.9</ele>
        <time>2020-05-30T17:14:28Z</time>
      </trkpt>
      <trkpt lat="46.51935" lon="0.12539">
        <ele>144</ele>
        <time>2020-05-30T17:14:29Z</time>
      </trkpt>
      <trkpt lat="46.51933" lon="0.1253">
        <ele>144.1</ele>
        <time>2020-05-30T17:14:30Z</time>
      </trkpt>
      <trkpt lat="46.51931" lon="0.12522">
        <ele>144.2</ele>
        <time>2020-05-30T17:14:31Z</time>
      </trkpt>
      <trkpt lat="46.51929" lon="0.12514">
        <ele>144.3</ele>
        <time>2020-05-30T17:14:32Z</time>
      </trkpt>
      <trkpt lat="46.51929" lon="0.12504">
        <ele>144.4</ele>
        <time>2020-05-30T17:14:33Z</time>
      </trkpt>
      <trkpt lat="46.51927" lon="0.12496">
        <ele>144.5</ele>
        <time>2020-05-30T17:14:34Z</time>
      </trkpt>
      <trkpt lat="46.51926" lon="0.12486">
        <ele>144.6</ele>
        <time>2020-05-30T17:14:35Z</time>
      </trkpt>
      <trkpt lat="46.51925" lon="0.12477">
        <ele>144.7</ele>
        <time>2020-05-30T17:14:36Z</time>
      </trkpt>
      <trkpt lat="46.51924" lon="0.12468">
        <ele>144.8</ele>
        <time>2020-05-30T17:14:37Z</time>
      </trkpt>
      <trkpt lat="46.51923" lon="0.12459">
        <ele>144.9</ele>
        <time>2020-05-30T17:14:38Z</time>
      </trkpt>
      <trkpt lat="46.5192" lon="0.12451">
        <ele>145</ele>
        <time>2020-05-30T17:14:39Z</time>
      </trkpt>
      <trkpt lat="46.51918" lon="0.12443">
        <ele>145.2</ele>
        <time>2020-05-30T17:14:40Z</time>
      </trkpt>
      <trkpt lat="46.51914" lon="0.12435">
        <ele>145.3</ele>
        <time>2020-05-30T17:14:41Z</time>
      </trkpt>
      <trkpt lat="46.5191" lon="0.12428">
        <ele>145.4</ele>
        <time>2020-05-30T17:14:42Z</time>
      </trkpt>
      <trkpt lat="46.51906" lon="0.12421">
        <ele>145.5</ele>
        <time>2020-05-30T17:14:43Z</time>
      </trkpt>
      <trkpt lat="46.51903" lon="0.12414">
        <ele>145.6</ele>
        <time>2020-05-30T17:14:44Z</time>
      </trkpt>
      <trkpt lat="46.51898" lon="0.12407">
        <ele>145.7</ele>
        <time>2020-05-30T17:14:45Z</time>
      </trkpt>
      <trkpt lat="46.51894" lon="0.12401">
        <ele>145.8</ele>
        <time>2020-05-30T17:14:46Z</time>
      </trkpt>
      <trkpt lat="46.51889" lon="0.12395">
        <ele>145.9</ele>
        <time>2020-05-30T17:14:47Z</time>
      </trkpt>
      <trkpt lat="46.51885" lon="0.1239">
        <ele>146</ele>
        <time>2020-05-30T17:14:48Z</time>
      </trkpt>
      <trkpt lat="46.5188" lon="0.12384">
        <ele>146.1</ele>
        <time>2020-05-30T17:14:49Z</time>
      </trkpt>
      <trkpt lat="46.51875" lon="0.1238">
        <ele>146.1</ele>
        <time>2020-05-30T17:14:50Z</time>
      </trkpt>
      <trkpt lat="46.51871" lon="0.12376">
        <ele>146.2</ele>
        <time>2020-05-30T17:14:51Z</time>
      </trkpt>
      <trkpt lat="46.51866" lon="0.12374">
        <ele>146.3</ele>
        <time>2020-05-30T17:14:52Z</time>
      </trkpt>
      <trkpt lat="46.51863" lon="0.1237">
        <ele>146.4</ele>
        <time>2020-05-30T17:14:53Z</time>
      </trkpt>
      <trkpt lat="46.5186" lon="0.12365">
        <ele>146.5</ele>
        <time>2020-05-30T17:14:54Z</time>
      </trkpt>
      <trkpt lat="46.51857" lon="0.12361">
        <ele>146.5</ele>
        <time>2020-05-30T17:14:55Z</time>
      </trkpt>
      <trkpt lat="46.51855" lon="0.12357">
        <ele>146.6</ele>
        <time>2020-05-30T17:14:56Z</time>
      </trkpt>
      <trkpt lat="46.51852" lon="0.12352">
        <ele>146.6</ele>
        <time>2020-05-30T17:14:57Z</time>
      </trkpt>
      <trkpt lat="46.51849" lon="0.12348">
        <ele>146.7</ele>
        <time>2020-05-30T17:14:58Z</time>
      </trkpt>
      <trkpt lat="46.51845" lon="0.12343">
        <ele>146.7</ele>
        <time>2020-05-30T17:14:59Z</time>
      </trkpt>
      <trkpt lat="46.51842" lon="0.12338">
        <ele>146.8</ele>
        <time>2020-05-30T17:15:00Z</time>
      </trkpt>
      <trkpt lat="46.51838" lon="0.12334">
        <ele>146.8</ele>
        <time>2020-05-30T17:15:01Z</time>
      </trkpt>
      <trkpt lat="46.51835" lon="0.12329">
        <ele>146.8</ele>
        <time>2020-05-30T17:15:02Z</time>
      </trkpt>
      <trkpt lat="46.51832" lon="0.12323">
        <ele>146.9</ele>
        <time>2020-05-30T17:15:03Z</time>
      </trkpt>
      <trkpt lat="46.51828" lon="0.12319">
        <ele>146.9</ele>
        <time>2020-05-30T17:15:04Z</time>
      </trkpt>
      <trkpt lat="46.51825" lon="0.12314">
        <ele>147</ele>
        <time>2020-05-30T17:15:05Z</time>
      </trkpt>
      <trkpt lat="46.51821" lon="0.12309">
        <ele>147</ele>
        <time>2020-05-30T17:15:06Z</time>
      </trkpt>
      <trkpt lat="46.51818" lon="0.12305">
        <ele>147.1</ele>
        <time>2020-05-30T17:15:07Z</time>
      </trkpt>
      <trkpt lat="46.51813" lon="0.12302">
        <ele>147.2</ele>
        <time>2020-05-30T17:15:08Z</time>
      </trkpt>
      <trkpt lat="46.51809" lon="0.12297">
        <ele>147.3</ele>
        <time>2020-05-30T17:15:09Z</time>
      </trkpt>
      <trkpt lat="46.51806" lon="0.12292">
        <ele>147.4</ele>
        <time>2020-05-30T17:15:10Z</time>
      </trkpt>
      <trkpt lat="46.51802" lon="0.12288">
        <ele>147.4</ele>
        <time>2020-05-30T17:15:11Z</time>
      </trkpt>
      <trkpt lat="46.51797" lon="0.12284">
        <ele>147.5</ele>
        <time>2020-05-30T17:15:12Z</time>
      </trkpt>
      <trkpt lat="46.51794" lon="0.12279">
        <ele>147.5</ele>
        <time>2020-05-30T17:15:13Z</time>
      </trkpt>
      <trkpt lat="46.5179" lon="0.12274">
        <ele>147.6</ele>
        <time>2020-05-30T17:15:14Z</time>
      </trkpt>
      <trkpt lat="46.51786" lon="0.12269">
        <ele>147.6</ele>
        <time>2020-05-30T17:15:15Z</time>
      </trkpt>
      <trkpt lat="46.51782" lon="0.12264">
        <ele>147.6</ele>
        <time>2020-05-30T17:15:16Z</time>
      </trkpt>
      <trkpt lat="46.51778" lon="0.1226">
        <ele>147.7</ele>
        <time>2020-05-30T17:15:17Z</time>
      </trkpt>
      <trkpt lat="46.51773" lon="0.12256">
        <ele>147.7</ele>
        <time>2020-05-30T17:15:18Z</time>
      </trkpt>
      <trkpt lat="46.51769" lon="0.12251">
        <ele>147.7</ele>
        <time>2020-05-30T17:15:19Z</time>
      </trkpt>
      <trkpt lat="46.51766" lon="0.12245">
        <ele>147.8</ele>
        <time>2020-05-30T17:15:20Z</time>
      </trkpt>
      <trkpt lat="46.51763" lon="0.12238">
        <ele>147.8</ele>
        <time>2020-05-30T17:15:21Z</time>
      </trkpt>
      <trkpt lat="46.51759" lon="0.12232">
        <ele>147.9</ele>
        <time>2020-05-30T17:15:22Z</time>
      </trkpt>
      <trkpt lat="46.51755" lon="0.12227">
        <ele>148</ele>
        <time>2020-05-30T17:15:23Z</time>
      </trkpt>
      <trkpt lat="46.5175" lon="0.12223">
        <ele>148.1</ele>
        <time>2020-05-30T17:15:24Z</time>
      </trkpt>
      <trkpt lat="46.51746" lon="0.12218">
        <ele>148.3</ele>
        <time>2020-05-30T17:15:25Z</time>
      </trkpt>
      <trkpt lat="46.51742" lon="0.12213">
        <ele>148.4</ele>
        <time>2020-05-30T17:15:26Z</time>
      </trkpt>
      <trkpt lat="46.51738" lon="0.12208">
        <ele>148.5</ele>
        <time>2020-05-30T17:15:27Z</time>
      </trkpt>
      <trkpt lat="46.51733" lon="0.12203">
        <ele>148.5</ele>
        <time>2020-05-30T17:15:28Z</time>
      </trkpt>
      <trkpt lat="46.51729" lon="0.12199">
        <ele>148.5</ele>
        <time>2020-05-30T17:15:29Z</time>
      </trkpt>
      <trkpt lat="46.51725" lon="0.12193">
        <ele>148.6</ele>
        <time>2020-05-30T17:15:30Z</time>
      </trkpt>
      <trkpt lat="46.51721" lon="0.12188">
        <ele>148.6</ele>
        <time>2020-05-30T17:15:31Z</time>
      </trkpt>
      <trkpt lat="46.51717" lon="0.12183">
        <ele>148.6</ele>
        <time>2020-05-30T17:15:32Z</time>
      </trkpt>
      <trkpt lat="46.51712" lon="0.12179">
        <ele>148.6</ele>
        <time>2020-05-30T17:15:33Z</time>
      </trkpt>
      <trkpt lat="46.51708" lon="0.12173">
        <ele>148.6</ele>
        <time>2020-05-30T17:15:34Z</time>
      </trkpt>
      <trkpt lat="46.51705" lon="0.12167">
        <ele>148.7</ele>
        <time>2020-05-30T17:15:35Z</time>
      </trkpt>
      <trkpt lat="46.51701" lon="0.12162">
        <ele>148.7</ele>
        <time>2020-05-30T17:15:36Z</time>
      </trkpt>
      <trkpt lat="46.51696" lon="0.12158">
        <ele>148.8</ele>
        <time>2020-05-30T17:15:37Z</time>
      </trkpt>
      <trkpt lat="46.51692" lon="0.12153">
        <ele>148.8</ele>
        <time>2020-05-30T17:15:38Z</time>
      </trkpt>
      <trkpt lat="46.51689" lon="0.12147">
        <ele>148.9</ele>
        <time>2020-05-30T17:15:39Z</time>
      </trkpt>
      <trkpt lat="46.51685" lon="0.12141">
        <ele>149</ele>
        <time>2020-05-30T17:15:40Z</time>
      </trkpt>
      <trkpt lat="46.51682" lon="0.12134">
        <ele>149.1</ele>
        <time>2020-05-30T17:15:41Z</time>
      </trkpt>
      <trkpt lat="46.51677" lon="0.12131">
        <ele>149.2</ele>
        <time>2020-05-30T17:15:42Z</time>
      </trkpt>
      <trkpt lat="46.51674" lon="0.12126">
        <ele>149.3</ele>
        <time>2020-05-30T17:15:43Z</time>
      </trkpt>
      <trkpt lat="46.51671" lon="0.1212">
        <ele>149.3</ele>
        <time>2020-05-30T17:15:44Z</time>
      </trkpt>
      <trkpt lat="46.51667" lon="0.12114">
        <ele>149.4</ele>
        <time>2020-05-30T17:15:45Z</time>
      </trkpt>
      <trkpt lat="46.51666" lon="0.12107">
        <ele>149.5</ele>
        <time>2020-05-30T17:15:46Z</time>
      </trkpt>
      <trkpt lat="46.51663" lon="0.12101">
        <ele>149.5</ele>
        <time>2020-05-30T17:15:47Z</time>
      </trkpt>
      <trkpt lat="46.51661" lon="0.12094">
        <ele>149.5</ele>
        <time>2020-05-30T17:15:48Z</time>
      </trkpt>
      <trkpt lat="46.51659" lon="0.12087">
        <ele>149.6</ele>
        <time>2020-05-30T17:15:49Z</time>
      </trkpt>
      <trkpt lat="46.51659" lon="0.12079">
        <ele>149.6</ele>
        <time>2020-05-30T17:15:50Z</time>
      </trkpt>
      <trkpt lat="46.51658" lon="0.12072">
        <ele>149.6</ele>
        <time>2020-05-30T17:15:51Z</time>
      </trkpt>
      <trkpt lat="46.51658" lon="0.12064">
        <ele>149.7</ele>
        <time>2020-05-30T17:15:52Z</time>
      </trkpt>
      <trkpt lat="46.51658" lon="0.12057">
        <ele>149.7</ele>
        <time>2020-05-30T17:15:53Z</time>
      </trkpt>
      <trkpt lat="46.51657" lon="0.1205">
        <ele>149.8</ele>
        <time>2020-05-30T17:15:54Z</time>
      </trkpt>
      <trkpt lat="46.51659" lon="0.12043">
        <ele>149.8</ele>
        <time>2020-05-30T17:15:55Z</time>
      </trkpt>
      <trkpt lat="46.51659" lon="0.12036">
        <ele>149.8</ele>
        <time>2020-05-30T17:15:56Z</time>
      </trkpt>
      <trkpt lat="46.51661" lon="0.12029">
        <ele>149.9</ele>
        <time>2020-05-30T17:15:57Z</time>
      </trkpt>
      <trkpt lat="46.51662" lon="0.12021">
        <ele>150</ele>
        <time>2020-05-30T17:15:58Z</time>
      </trkpt>
      <trkpt lat="46.51663" lon="0.12014">
        <ele>150.1</ele>
        <time>2020-05-30T17:15:59Z</time>
      </trkpt>
      <trkpt lat="46.51665" lon="0.12007">
        <ele>150.2</ele>
        <time>2020-05-30T17:16:00Z</time>
      </trkpt>
      <trkpt lat="46.51668" lon="0.12001">
        <ele>150.2</ele>
        <time>2020-05-30T17:16:01Z</time>
      </trkpt>
      <trkpt lat="46.51671" lon="0.11996">
        <ele>150.3</ele>
        <time>2020-05-30T17:16:02Z</time>
      </trkpt>
      <trkpt lat="46.51674" lon="0.1199">
        <ele>150.4</ele>
        <time>2020-05-30T17:16:03Z</time>
      </trkpt>
      <trkpt lat="46.51676" lon="0.11983">
        <ele>150.4</ele>
        <time>2020-05-30T17:16:04Z</time>
      </trkpt>
      <trkpt lat="46.51679" lon="0.11977">
        <ele>150.5</ele>
        <time>2020-05-30T17:16:05Z</time>
      </trkpt>
      <trkpt lat="46.51682" lon="0.11971">
        <ele>150.6</ele>
        <time>2020-05-30T17:16:06Z</time>
      </trkpt>
      <trkpt lat="46.51685" lon="0.11965">
        <ele>150.6</ele>
        <time>2020-05-30T17:16:07Z</time>
      </trkpt>
      <trkpt lat="46.51688" lon="0.11959">
        <ele>150.7</ele>
        <time>2020-05-30T17:16:08Z</time>
      </trkpt>
      <trkpt lat="46.51691" lon="0.11953">
        <ele>150.8</ele>
        <time>2020-05-30T17:16:09Z</time>
      </trkpt>
      <trkpt lat="46.51694" lon="0.11947">
        <ele>150.8</ele>
        <time>2020-05-30T17:16:10Z</time>
      </trkpt>
      <trkpt lat="46.51697" lon="0.1194">
        <ele>150.9</ele>
        <time>2020-05-30T17:16:11Z</time>
      </trkpt>
      <trkpt lat="46.517" lon="0.11934">
        <ele>151</ele>
        <time>2020-05-30T17:16:12Z</time>
      </trkpt>
      <trkpt lat="46.51702" lon="0.11928">
        <ele>151</ele>
        <time>2020-05-30T17:16:13Z</time>
      </trkpt>
      <trkpt lat="46.51705" lon="0.11922">
        <ele>151.1</ele>
        <time>2020-05-30T17:16:14Z</time>
      </trkpt>
      <trkpt lat="46.51708" lon="0.11915">
        <ele>151.1</ele>
        <time>2020-05-30T17:16:15Z</time>
      </trkpt>
      <trkpt lat="46.51711" lon="0.11909">
        <ele>151.2</ele>
        <time>2020-05-30T17:16:16Z</time>
      </trkpt>
      <trkpt lat="46.51714" lon="0.11904">
        <ele>151.2</ele>
        <time>2020-05-30T17:16:17Z</time>
      </trkpt>
      <trkpt lat="46.51716" lon="0.11898">
        <ele>151.3</ele>
        <time>2020-05-30T17:16:18Z</time>
      </trkpt>
      <trkpt lat="46.51719" lon="0.11892">
        <ele>151.3</ele>
        <time>2020-05-30T17:16:19Z</time>
      </trkpt>
      <trkpt lat="46.51721" lon="0.11885">
        <ele>151.4</ele>
        <time>2020-05-30T17:16:20Z</time>
      </trkpt>
      <trkpt lat="46.51724" lon="0.11879">
        <ele>151.4</ele>
        <time>2020-05-30T17:16:21Z</time>
      </trkpt>
      <trkpt lat="46.51727" lon="0.11872">
        <ele>151.4</ele>
        <time>2020-05-30T17:16:22Z</time>
      </trkpt>
      <trkpt lat="46.5173" lon="0.11866">
        <ele>151.5</ele>
        <time>2020-05-30T17:16:23Z</time>
      </trkpt>
      <trkpt lat="46.51733" lon="0.1186">
        <ele>151.5</ele>
        <time>2020-05-30T17:16:24Z</time>
      </trkpt>
      <trkpt lat="46.51735" lon="0.11854">
        <ele>151.5</ele>
        <time>2020-05-30T17:16:25Z</time>
      </trkpt>
      <trkpt lat="46.51737" lon="0.11847">
        <ele>151.6</ele>
        <time>2020-05-30T17:16:26Z</time>
      </trkpt>
      <trkpt lat="46.5174" lon="0.11842">
        <ele>151.6</ele>
        <time>2020-05-30T17:16:27Z</time>
      </trkpt>
      <trkpt lat="46.51742" lon="0.11836">
        <ele>151.7</ele>
        <time>2020-05-30T17:16:28Z</time>
      </trkpt>
      <trkpt lat="46.51746" lon="0.11831">
        <ele>151.7</ele>
        <time>2020-05-30T17:16:29Z</time>
      </trkpt>
      <trkpt lat="46.51749" lon="0.11826">
        <ele>151.8</ele>
        <time>2020-05-30T17:16:30Z</time>
      </trkpt>
      <trkpt lat="46.51751" lon="0.1182">
        <ele>151.8</ele>
        <time>2020-05-30T17:16:31Z</time>
      </trkpt>
      <trkpt lat="46.51754" lon="0.11814">
        <ele>151.9</ele>
        <time>2020-05-30T17:16:32Z</time>
      </trkpt>
      <trkpt lat="46.51757" lon="0.11808">
        <ele>151.9</ele>
        <time>2020-05-30T17:16:33Z</time>
      </trkpt>
      <trkpt lat="46.5176" lon="0.11802">
        <ele>151.9</ele>
        <time>2020-05-30T17:16:34Z</time>
      </trkpt>
      <trkpt lat="46.51762" lon="0.11795">
        <ele>151.9</ele>
        <time>2020-05-30T17:16:35Z</time>
      </trkpt>
      <trkpt lat="46.51764" lon="0.11788">
        <ele>151.9</ele>
        <time>2020-05-30T17:16:36Z</time>
      </trkpt>
      <trkpt lat="46.51766" lon="0.11781">
        <ele>151.9</ele>
        <time>2020-05-30T17:16:37Z</time>
      </trkpt>
      <trkpt lat="46.51768" lon="0.11774">
        <ele>151.9</ele>
        <time>2020-05-30T17:16:38Z</time>
      </trkpt>
      <trkpt lat="46.5177" lon="0.11767">
        <ele>151.8</ele>
        <time>2020-05-30T17:16:39Z</time>
      </trkpt>
      <trkpt lat="46.51772" lon="0.1176">
        <ele>151.8</ele>
        <time>2020-05-30T17:16:40Z</time>
      </trkpt>
      <trkpt lat="46.51774" lon="0.11752">
        <ele>151.7</ele>
        <time>2020-05-30T17:16:41Z</time>
      </trkpt>
      <trkpt lat="46.51776" lon="0.11745">
        <ele>151.6</ele>
        <time>2020-05-30T17:16:42Z</time>
      </trkpt>
      <trkpt lat="46.51776" lon="0.11737">
        <ele>151.6</ele>
        <time>2020-05-30T17:16:43Z</time>
      </trkpt>
      <trkpt lat="46.51778" lon="0.11729">
        <ele>151.5</ele>
        <time>2020-05-30T17:16:44Z</time>
      </trkpt>
      <trkpt lat="46.51778" lon="0.11721">
        <ele>151.4</ele>
        <time>2020-05-30T17:16:45Z</time>
      </trkpt>
      <trkpt lat="46.51779" lon="0.11713">
        <ele>151.3</ele>
        <time>2020-05-30T17:16:46Z</time>
      </trkpt>
      <trkpt lat="46.51781" lon="0.11705">
        <ele>151.3</ele>
        <time>2020-05-30T17:16:47Z</time>
      </trkpt>
      <trkpt lat="46.51782" lon="0.11698">
        <ele>151.2</ele>
        <time>2020-05-30T17:16:48Z</time>
      </trkpt>
      <trkpt lat="46.51784" lon="0.1169">
        <ele>151.1</ele>
        <time>2020-05-30T17:16:49Z</time>
      </trkpt>
      <trkpt lat="46.51785" lon="0.11683">
        <ele>151</ele>
        <time>2020-05-30T17:16:50Z</time>
      </trkpt>
      <trkpt lat="46.51786" lon="0.11675">
        <ele>150.9</ele>
        <time>2020-05-30T17:16:51Z</time>
      </trkpt>
      <trkpt lat="46.51787" lon="0.11667">
        <ele>150.8</ele>
        <time>2020-05-30T17:16:52Z</time>
      </trkpt>
      <trkpt lat="46.51789" lon="0.11659">
        <ele>150.8</ele>
        <time>2020-05-30T17:16:53Z</time>
      </trkpt>
      <trkpt lat="46.51789" lon="0.11651">
        <ele>150.7</ele>
        <time>2020-05-30T17:16:54Z</time>
      </trkpt>
      <trkpt lat="46.5179" lon="0.11644">
        <ele>150.6</ele>
        <time>2020-05-30T17:16:55Z</time>
      </trkpt>
      <trkpt lat="46.51791" lon="0.11636">
        <ele>150.5</ele>
        <time>2020-05-30T17:16:56Z</time>
      </trkpt>
      <trkpt lat="46.51792" lon="0.11627">
        <ele>150.4</ele>
        <time>2020-05-30T17:16:57Z</time>
      </trkpt>
      <trkpt lat="46.51793" lon="0.11619">
        <ele>150.4</ele>
        <time>2020-05-30T17:16:58Z</time>
      </trkpt>
      <trkpt lat="46.51794" lon="0.11611">
        <ele>150.2</ele>
        <time>2020-05-30T17:16:59Z</time>
      </trkpt>
      <trkpt lat="46.51795" lon="0.11602">
        <ele>150.1</ele>
        <time>2020-05-30T17:17:00Z</time>
      </trkpt>
      <trkpt lat="46.51798" lon="0.11594">
        <ele>150</ele>
        <time>2020-05-30T17:17:01Z</time>
      </trkpt>
      <trkpt lat="46.51798" lon="0.11586">
        <ele>149.8</ele>
        <time>2020-05-30T17:17:02Z</time>
      </trkpt>
      <trkpt lat="46.51799" lon="0.11577">
        <ele>149.8</ele>
        <time>2020-05-30T17:17:03Z</time>
      </trkpt>
      <trkpt lat="46.51799" lon="0.1157">
        <ele>149.7</ele>
        <time>2020-05-30T17:17:04Z</time>
      </trkpt>
      <trkpt lat="46.51801" lon="0.11563">
        <ele>149.7</ele>
        <time>2020-05-30T17:17:05Z</time>
      </trkpt>
      <trkpt lat="46.51803" lon="0.11555">
        <ele>149.7</ele>
        <time>2020-05-30T17:17:06Z</time>
      </trkpt>
      <trkpt lat="46.51804" lon="0.11548">
        <ele>149.6</ele>
        <time>2020-05-30T17:17:07Z</time>
      </trkpt>
      <trkpt lat="46.51805" lon="0.1154">
        <ele>149.6</ele>
        <time>2020-05-30T17:17:08Z</time>
      </trkpt>
      <trkpt lat="46.51807" lon="0.11532">
        <ele>149.6</ele>
        <time>2020-05-30T17:17:09Z</time>
      </trkpt>
      <trkpt lat="46.51806" lon="0.11524">
        <ele>149.6</ele>
        <time>2020-05-30T17:17:10Z</time>
      </trkpt>
      <trkpt lat="46.51806" lon="0.11517">
        <ele>149.6</ele>
        <time>2020-05-30T17:17:11Z</time>
      </trkpt>
      <trkpt lat="46.51807" lon="0.1151">
        <ele>149.6</ele>
        <time>2020-05-30T17:17:12Z</time>
      </trkpt>
      <trkpt lat="46.51808" lon="0.11502">
        <ele>149.6</ele>
        <time>2020-05-30T17:17:13Z</time>
      </trkpt>
      <trkpt lat="46.51809" lon="0.11494">
        <ele>149.6</ele>
        <time>2020-05-30T17:17:14Z</time>
      </trkpt>
      <trkpt lat="46.51811" lon="0.11486">
        <ele>149.6</ele>
        <time>2020-05-30T17:17:15Z</time>
      </trkpt>
      <trkpt lat="46.51813" lon="0.11478">
        <ele>149.6</ele>
        <time>2020-05-30T17:17:16Z</time>
      </trkpt>
      <trkpt lat="46.51814" lon="0.1147">
        <ele>149.5</ele>
        <time>2020-05-30T17:17:17Z</time>
      </trkpt>
      <trkpt lat="46.51814" lon="0.11461">
        <ele>149.5</ele>
        <time>2020-05-30T17:17:18Z</time>
      </trkpt>
      <trkpt lat="46.51816" lon="0.11453">
        <ele>149.5</ele>
        <time>2020-05-30T17:17:19Z</time>
      </trkpt>
      <trkpt lat="46.51819" lon="0.11446">
        <ele>149.5</ele>
        <time>2020-05-30T17:17:20Z</time>
      </trkpt>
      <trkpt lat="46.5182" lon="0.11438">
        <ele>149.5</ele>
        <time>2020-05-30T17:17:21Z</time>
      </trkpt>
      <trkpt lat="46.51823" lon="0.11431">
        <ele>149.5</ele>
        <time>2020-05-30T17:17:22Z</time>
      </trkpt>
      <trkpt lat="46.51825" lon="0.11424">
        <ele>149.5</ele>
        <time>2020-05-30T17:17:23Z</time>
      </trkpt>
      <trkpt lat="46.51827" lon="0.11416">
        <ele>149.5</ele>
        <time>2020-05-30T17:17:24Z</time>
      </trkpt>
      <trkpt lat="46.5183" lon="0.11408">
        <ele>149.5</ele>
        <time>2020-05-30T17:17:25Z</time>
      </trkpt>
      <trkpt lat="46.51833" lon="0.114">
        <ele>149.5</ele>
        <time>2020-05-30T17:17:26Z</time>
      </trkpt>
      <trkpt lat="46.51835" lon="0.11393">
        <ele>149.5</ele>
        <time>2020-05-30T17:17:27Z</time>
      </trkpt>
      <trkpt lat="46.51837" lon="0.11385">
        <ele>149.6</ele>
        <time>2020-05-30T17:17:28Z</time>
      </trkpt>
      <trkpt lat="46.5184" lon="0.11377">
        <ele>149.6</ele>
        <time>2020-05-30T17:17:29Z</time>
      </trkpt>
      <trkpt lat="46.51843" lon="0.11369">
        <ele>149.6</ele>
        <time>2020-05-30T17:17:30Z</time>
      </trkpt>
      <trkpt lat="46.51845" lon="0.11361">
        <ele>149.6</ele>
        <time>2020-05-30T17:17:31Z</time>
      </trkpt>
      <trkpt lat="46.51848" lon="0.11353">
        <ele>149.6</ele>
        <time>2020-05-30T17:17:32Z</time>
      </trkpt>
      <trkpt lat="46.5185" lon="0.11345">
        <ele>149.7</ele>
        <time>2020-05-30T17:17:33Z</time>
      </trkpt>
      <trkpt lat="46.51853" lon="0.11337">
        <ele>149.7</ele>
        <time>2020-05-30T17:17:34Z</time>
      </trkpt>
      <trkpt lat="46.51855" lon="0.11328">
        <ele>149.7</ele>
        <time>2020-05-30T17:17:35Z</time>
      </trkpt>
      <trkpt lat="46.51857" lon="0.11321">
        <ele>149.7</ele>
        <time>2020-05-30T17:17:36Z</time>
      </trkpt>
      <trkpt lat="46.51859" lon="0.11313">
        <ele>149.8</ele>
        <time>2020-05-30T17:17:37Z</time>
      </trkpt>
      <trkpt lat="46.5186" lon="0.11305">
        <ele>149.8</ele>
        <time>2020-05-30T17:17:38Z</time>
      </trkpt>
      <trkpt lat="46.51862" lon="0.11297">
        <ele>149.8</ele>
        <time>2020-05-30T17:17:39Z</time>
      </trkpt>
      <trkpt lat="46.51863" lon="0.1129">
        <ele>149.9</ele>
        <time>2020-05-30T17:17:40Z</time>
      </trkpt>
      <trkpt lat="46.51865" lon="0.11282">
        <ele>149.9</ele>
        <time>2020-05-30T17:17:41Z</time>
      </trkpt>
      <trkpt lat="46.51866" lon="0.11273">
        <ele>149.9</ele>
        <time>2020-05-30T17:17:42Z</time>
      </trkpt>
      <trkpt lat="46.51868" lon="0.11264">
        <ele>149.9</ele>
        <time>2020-05-30T17:17:43Z</time>
      </trkpt>
      <trkpt lat="46.51869" lon="0.11255">
        <ele>149.9</ele>
        <time>2020-05-30T17:17:44Z</time>
      </trkpt>
      <trkpt lat="46.5187" lon="0.11247">
        <ele>149.9</ele>
        <time>2020-05-30T17:17:45Z</time>
      </trkpt>
      <trkpt lat="46.51871" lon="0.11238">
        <ele>149.9</ele>
        <time>2020-05-30T17:17:46Z</time>
      </trkpt>
      <trkpt lat="46.51872" lon="0.1123">
        <ele>149.9</ele>
        <time>2020-05-30T17:17:47Z</time>
      </trkpt>
      <trkpt lat="46.51874" lon="0.11222">
        <ele>149.9</ele>
        <time>2020-05-30T17:17:48Z</time>
      </trkpt>
      <trkpt lat="46.51875" lon="0.11214">
        <ele>149.9</ele>
        <time>2020-05-30T17:17:49Z</time>
      </trkpt>
      <trkpt lat="46.51876" lon="0.11206">
        <ele>150</ele>
        <time>2020-05-30T17:17:50Z</time>
      </trkpt>
      <trkpt lat="46.51877" lon="0.11198">
        <ele>150</ele>
        <time>2020-05-30T17:17:51Z</time>
      </trkpt>
      <trkpt lat="46.51878" lon="0.1119">
        <ele>150</ele>
        <time>2020-05-30T17:17:52Z</time>
      </trkpt>
      <trkpt lat="46.51879" lon="0.11181">
        <ele>150</ele>
        <time>2020-05-30T17:17:53Z</time>
      </trkpt>
      <trkpt lat="46.51881" lon="0.11173">
        <ele>150</ele>
        <time>2020-05-30T17:17:54Z</time>
      </trkpt>
      <trkpt lat="46.51882" lon="0.11164">
        <ele>150</ele>
        <time>2020-05-30T17:17:55Z</time>
      </trkpt>
      <trkpt lat="46.51884" lon="0.11156">
        <ele>150</ele>
        <time>2020-05-30T17:17:56Z</time>
      </trkpt>
      <trkpt lat="46.51886" lon="0.11148">
        <ele>150</ele>
        <time>2020-05-30T17:17:57Z</time>
      </trkpt>
      <trkpt lat="46.51888" lon="0.11139">
        <ele>150</ele>
        <time>2020-05-30T17:17:58Z</time>
      </trkpt>
      <trkpt lat="46.5189" lon="0.11131">
        <ele>150</ele>
        <time>2020-05-30T17:17:59Z</time>
      </trkpt>
      <trkpt lat="46.51892" lon="0.11123">
        <ele>150</ele>
        <time>2020-05-30T17:18:00Z</time>
      </trkpt>
      <trkpt lat="46.51895" lon="0.11115">
        <ele>150</ele>
        <time>2020-05-30T17:18:01Z</time>
      </trkpt>
      <trkpt lat="46.51898" lon="0.11108">
        <ele>149.9</ele>
        <time>2020-05-30T17:18:02Z</time>
      </trkpt>
      <trkpt lat="46.51901" lon="0.111">
        <ele>149.9</ele>
        <time>2020-05-30T17:18:03Z</time>
      </trkpt>
      <trkpt lat="46.51904" lon="0.11092">
        <ele>149.9</ele>
        <time>2020-05-30T17:18:04Z</time>
      </trkpt>
      <trkpt lat="46.51906" lon="0.11084">
        <ele>149.9</ele>
        <time>2020-05-30T17:18:05Z</time>
      </trkpt>
      <trkpt lat="46.51909" lon="0.11076">
        <ele>149.9</ele>
        <time>2020-05-30T17:18:06Z</time>
      </trkpt>
      <trkpt lat="46.51913" lon="0.11069">
        <ele>149.9</ele>
        <time>2020-05-30T17:18:07Z</time>
      </trkpt>
      <trkpt lat="46.51916" lon="0.11061">
        <ele>149.9</ele>
        <time>2020-05-30T17:18:08Z</time>
      </trkpt>
      <trkpt lat="46.5192" lon="0.11053">
        <ele>149.9</ele>
        <time>2020-05-30T17:18:09Z</time>
      </trkpt>
      <trkpt lat="46.51923" lon="0.11045">
        <ele>149.9</ele>
        <time>2020-05-30T17:18:10Z</time>
      </trkpt>
      <trkpt lat="46.51926" lon="0.11037">
        <ele>149.9</ele>
        <time>2020-05-30T17:18:11Z</time>
      </trkpt>
      <trkpt lat="46.51929" lon="0.11028">
        <ele>149.9</ele>
        <time>2020-05-30T17:18:12Z</time>
      </trkpt>
      <trkpt lat="46.51933" lon="0.1102">
        <ele>149.9</ele>
        <time>2020-05-30T17:18:13Z</time>
      </trkpt>
      <trkpt lat="46.51936" lon="0.11011">
        <ele>149.9</ele>
        <time>2020-05-30T17:18:14Z</time>
      </trkpt>
      <trkpt lat="46.51938" lon="0.11004">
        <ele>149.9</ele>
        <time>2020-05-30T17:18:15Z</time>
      </trkpt>
      <trkpt lat="46.51941" lon="0.10996">
        <ele>149.9</ele>
        <time>2020-05-30T17:18:16Z</time>
      </trkpt>
      <trkpt lat="46.51943" lon="0.10987">
        <ele>149.9</ele>
        <time>2020-05-30T17:18:17Z</time>
      </trkpt>
      <trkpt lat="46.51946" lon="0.10981">
        <ele>149.9</ele>
        <time>2020-05-30T17:18:18Z</time>
      </trkpt>
      <trkpt lat="46.51948" lon="0.10976">
        <ele>149.8</ele>
        <time>2020-05-30T17:18:19Z</time>
      </trkpt>
      <trkpt lat="46.51951" lon="0.10969">
        <ele>149.8</ele>
        <time>2020-05-30T17:18:20Z</time>
      </trkpt>
      <trkpt lat="46.51954" lon="0.10961">
        <ele>149.8</ele>
        <time>2020-05-30T17:18:21Z</time>
      </trkpt>
      <trkpt lat="46.51957" lon="0.10954">
        <ele>149.8</ele>
        <time>2020-05-30T17:18:22Z</time>
      </trkpt>
      <trkpt lat="46.51959" lon="0.10948">
        <ele>149.8</ele>
        <time>2020-05-30T17:18:23Z</time>
      </trkpt>
      <trkpt lat="46.51962" lon="0.10941">
        <ele>149.8</ele>
        <time>2020-05-30T17:18:24Z</time>
      </trkpt>
      <trkpt lat="46.51965" lon="0.10935">
        <ele>149.8</ele>
        <time>2020-05-30T17:18:25Z</time>
      </trkpt>
      <trkpt lat="46.51967" lon="0.10929">
        <ele>149.8</ele>
        <time>2020-05-30T17:18:26Z</time>
      </trkpt>
      <trkpt lat="46.5197" lon="0.10922">
        <ele>149.8</ele>
        <time>2020-05-30T17:18:27Z</time>
      </trkpt>
      <trkpt lat="46.51973" lon="0.10915">
        <ele>149.8</ele>
        <time>2020-05-30T17:18:28Z</time>
      </trkpt>
      <trkpt lat="46.51975" lon="0.10911">
        <ele>149.8</ele>
        <time>2020-05-30T17:18:29Z</time>
      </trkpt>
      <trkpt lat="46.51977" lon="0.10905">
        <ele>149.8</ele>
        <time>2020-05-30T17:18:30Z</time>
      </trkpt>
      <trkpt lat="46.5198" lon="0.10899">
        <ele>149.8</ele>
        <time>2020-05-30T17:18:31Z</time>
      </trkpt>
      <trkpt lat="46.51983" lon="0.10893">
        <ele>149.8</ele>
        <time>2020-05-30T17:18:32Z</time>
      </trkpt>
      <trkpt lat="46.51986" lon="0.10886">
        <ele>149.9</ele>
        <time>2020-05-30T17:18:33Z</time>
      </trkpt>
      <trkpt lat="46.5199" lon="0.1088">
        <ele>149.9</ele>
        <time>2020-05-30T17:18:34Z</time>
      </trkpt>
      <trkpt lat="46.51993" lon="0.10873">
        <ele>149.9</ele>
        <time>2020-05-30T17:18:35Z</time>
      </trkpt>
      <trkpt lat="46.51996" lon="0.10867">
        <ele>150</ele>
        <time>2020-05-30T17:18:36Z</time>
      </trkpt>
      <trkpt lat="46.51999" lon="0.10861">
        <ele>150</ele>
        <time>2020-05-30T17:18:37Z</time>
      </trkpt>
      <trkpt lat="46.52002" lon="0.10854">
        <ele>150</ele>
        <time>2020-05-30T17:18:38Z</time>
      </trkpt>
      <trkpt lat="46.52004" lon="0.10848">
        <ele>150</ele>
        <time>2020-05-30T17:18:39Z</time>
      </trkpt>
      <trkpt lat="46.52008" lon="0.10842">
        <ele>150</ele>
        <time>2020-05-30T17:18:40Z</time>
      </trkpt>
      <trkpt lat="46.5201" lon="0.10836">
        <ele>150.1</ele>
        <time>2020-05-30T17:18:41Z</time>
      </trkpt>
      <trkpt lat="46.52013" lon="0.10831">
        <ele>150.1</ele>
        <time>2020-05-30T17:18:42Z</time>
      </trkpt>
      <trkpt lat="46.52016" lon="0.10824">
        <ele>150.1</ele>
        <time>2020-05-30T17:18:43Z</time>
      </trkpt>
      <trkpt lat="46.52019" lon="0.10819">
        <ele>150.1</ele>
        <time>2020-05-30T17:18:44Z</time>
      </trkpt>
      <trkpt lat="46.52023" lon="0.1081">
        <ele>150.1</ele>
        <time>2020-05-30T17:18:45Z</time>
      </trkpt>
      <trkpt lat="46.52025" lon="0.10804">
        <ele>150.1</ele>
        <time>2020-05-30T17:18:46Z</time>
      </trkpt>
      <trkpt lat="46.52028" lon="0.10798">
        <ele>150.1</ele>
        <time>2020-05-30T17:18:47Z</time>
      </trkpt>
      <trkpt lat="46.52032" lon="0.10792">
        <ele>150.1</ele>
        <time>2020-05-30T17:18:48Z</time>
      </trkpt>
      <trkpt lat="46.52035" lon="0.10785">
        <ele>150.1</ele>
        <time>2020-05-30T17:18:49Z</time>
      </trkpt>
      <trkpt lat="46.52037" lon="0.10779">
        <ele>150.1</ele>
        <time>2020-05-30T17:18:50Z</time>
      </trkpt>
      <trkpt lat="46.52041" lon="0.10772">
        <ele>150.1</ele>
        <time>2020-05-30T17:18:51Z</time>
      </trkpt>
      <trkpt lat="46.52044" lon="0.10766">
        <ele>150.1</ele>
        <time>2020-05-30T17:18:52Z</time>
      </trkpt>
      <trkpt lat="46.52048" lon="0.10757">
        <ele>150.1</ele>
        <time>2020-05-30T17:18:53Z</time>
      </trkpt>
      <trkpt lat="46.52052" lon="0.1075">
        <ele>150.1</ele>
        <time>2020-05-30T17:18:54Z</time>
      </trkpt>
      <trkpt lat="46.52054" lon="0.10743">
        <ele>150</ele>
        <time>2020-05-30T17:18:55Z</time>
      </trkpt>
      <trkpt lat="46.52058" lon="0.10738">
        <ele>149.9</ele>
        <time>2020-05-30T17:18:56Z</time>
      </trkpt>
      <trkpt lat="46.52061" lon="0.1073">
        <ele>149.8</ele>
        <time>2020-05-30T17:18:57Z</time>
      </trkpt>
      <trkpt lat="46.52064" lon="0.10723">
        <ele>149.7</ele>
        <time>2020-05-30T17:18:58Z</time>
      </trkpt>
      <trkpt lat="46.52067" lon="0.10716">
        <ele>149.6</ele>
        <time>2020-05-30T17:18:59Z</time>
      </trkpt>
      <trkpt lat="46.52071" lon="0.10709">
        <ele>149.5</ele>
        <time>2020-05-30T17:19:00Z</time>
      </trkpt>
      <trkpt lat="46.52073" lon="0.10703">
        <ele>149.5</ele>
        <time>2020-05-30T17:19:01Z</time>
      </trkpt>
      <trkpt lat="46.52075" lon="0.10696">
        <ele>149.4</ele>
        <time>2020-05-30T17:19:02Z</time>
      </trkpt>
      <trkpt lat="46.52077" lon="0.10689">
        <ele>149.4</ele>
        <time>2020-05-30T17:19:03Z</time>
      </trkpt>
      <trkpt lat="46.5208" lon="0.10679">
        <ele>149.4</ele>
        <time>2020-05-30T17:19:04Z</time>
      </trkpt>
      <trkpt lat="46.52081" lon="0.1067">
        <ele>149.4</ele>
        <time>2020-05-30T17:19:05Z</time>
      </trkpt>
      <trkpt lat="46.52082" lon="0.1066">
        <ele>149.5</ele>
        <time>2020-05-30T17:19:06Z</time>
      </trkpt>
      <trkpt lat="46.52083" lon="0.10653">
        <ele>149.5</ele>
        <time>2020-05-30T17:19:07Z</time>
      </trkpt>
      <trkpt lat="46.52084" lon="0.10646">
        <ele>149.5</ele>
        <time>2020-05-30T17:19:08Z</time>
      </trkpt>
      <trkpt lat="46.52085" lon="0.10639">
        <ele>149.4</ele>
        <time>2020-05-30T17:19:09Z</time>
      </trkpt>
      <trkpt lat="46.52086" lon="0.1063">
        <ele>149.3</ele>
        <time>2020-05-30T17:19:10Z</time>
      </trkpt>
      <trkpt lat="46.52087" lon="0.10622">
        <ele>149.2</ele>
        <time>2020-05-30T17:19:11Z</time>
      </trkpt>
      <trkpt lat="46.52089" lon="0.10612">
        <ele>149.1</ele>
        <time>2020-05-30T17:19:12Z</time>
      </trkpt>
      <trkpt lat="46.5209" lon="0.10607">
        <ele>149</ele>
        <time>2020-05-30T17:19:13Z</time>
      </trkpt>
      <trkpt lat="46.52092" lon="0.10599">
        <ele>148.9</ele>
        <time>2020-05-30T17:19:14Z</time>
      </trkpt>
      <trkpt lat="46.52093" lon="0.10589">
        <ele>148.8</ele>
        <time>2020-05-30T17:19:15Z</time>
      </trkpt>
      <trkpt lat="46.52094" lon="0.10581">
        <ele>148.7</ele>
        <time>2020-05-30T17:19:16Z</time>
      </trkpt>
      <trkpt lat="46.52095" lon="0.10573">
        <ele>148.6</ele>
        <time>2020-05-30T17:19:17Z</time>
      </trkpt>
      <trkpt lat="46.52097" lon="0.10566">
        <ele>148.5</ele>
        <time>2020-05-30T17:19:18Z</time>
      </trkpt>
      <trkpt lat="46.52098" lon="0.10559">
        <ele>148.4</ele>
        <time>2020-05-30T17:19:19Z</time>
      </trkpt>
      <trkpt lat="46.52098" lon="0.1055">
        <ele>148.2</ele>
        <time>2020-05-30T17:19:20Z</time>
      </trkpt>
      <trkpt lat="46.52099" lon="0.10542">
        <ele>148.1</ele>
        <time>2020-05-30T17:19:21Z</time>
      </trkpt>
      <trkpt lat="46.521" lon="0.10534">
        <ele>147.9</ele>
        <time>2020-05-30T17:19:22Z</time>
      </trkpt>
      <trkpt lat="46.52102" lon="0.10525">
        <ele>147.7</ele>
        <time>2020-05-30T17:19:23Z</time>
      </trkpt>
      <trkpt lat="46.52104" lon="0.10516">
        <ele>147.5</ele>
        <time>2020-05-30T17:19:24Z</time>
      </trkpt>
      <trkpt lat="46.52105" lon="0.10508">
        <ele>147.4</ele>
        <time>2020-05-30T17:19:25Z</time>
      </trkpt>
      <trkpt lat="46.52107" lon="0.10498">
        <ele>147.2</ele>
        <time>2020-05-30T17:19:26Z</time>
      </trkpt>
      <trkpt lat="46.52108" lon="0.10489">
        <ele>147</ele>
        <time>2020-05-30T17:19:27Z</time>
      </trkpt>
      <trkpt lat="46.5211" lon="0.10479">
        <ele>146.8</ele>
        <time>2020-05-30T17:19:28Z</time>
      </trkpt>
      <trkpt lat="46.52112" lon="0.10469">
        <ele>146.6</ele>
        <time>2020-05-30T17:19:29Z</time>
      </trkpt>
      <trkpt lat="46.52114" lon="0.1046">
        <ele>146.4</ele>
        <time>2020-05-30T17:19:30Z</time>
      </trkpt>
      <trkpt lat="46.52115" lon="0.10449">
        <ele>146.2</ele>
        <time>2020-05-30T17:19:31Z</time>
      </trkpt>
      <trkpt lat="46.52117" lon="0.10438">
        <ele>146</ele>
        <time>2020-05-30T17:19:32Z</time>
      </trkpt>
      <trkpt lat="46.52117" lon="0.10426">
        <ele>145.8</ele>
        <time>2020-05-30T17:19:33Z</time>
      </trkpt>
      <trkpt lat="46.52116" lon="0.10415">
        <ele>145.7</ele>
        <time>2020-05-30T17:19:34Z</time>
      </trkpt>
      <trkpt lat="46.52115" lon="0.10403">
        <ele>145.5</ele>
        <time>2020-05-30T17:19:35Z</time>
      </trkpt>
      <trkpt lat="46.52113" lon="0.10393">
        <ele>145.4</ele>
        <time>2020-05-30T17:19:36Z</time>
      </trkpt>
      <trkpt lat="46.52111" lon="0.10381">
        <ele>145.2</ele>
        <time>2020-05-30T17:19:37Z</time>
      </trkpt>
      <trkpt lat="46.52108" lon="0.1037">
        <ele>145.1</ele>
        <time>2020-05-30T17:19:38Z</time>
      </trkpt>
      <trkpt lat="46.52107" lon="0.10358">
        <ele>145</ele>
        <time>2020-05-30T17:19:39Z</time>
      </trkpt>
      <trkpt lat="46.52106" lon="0.10347">
        <ele>145</ele>
        <time>2020-05-30T17:19:40Z</time>
      </trkpt>
      <trkpt lat="46.52104" lon="0.10336">
        <ele>145</ele>
        <time>2020-05-30T17:19:41Z</time>
      </trkpt>
      <trkpt lat="46.52103" lon="0.10326">
        <ele>145</ele>
        <time>2020-05-30T17:19:42Z</time>
      </trkpt>
      <trkpt lat="46.52101" lon="0.10316">
        <ele>145</ele>
        <time>2020-05-30T17:19:43Z</time>
      </trkpt>
      <trkpt lat="46.521" lon="0.10307">
        <ele>145</ele>
        <time>2020-05-30T17:19:44Z</time>
      </trkpt>
      <trkpt lat="46.52099" lon="0.10299">
        <ele>145</ele>
        <time>2020-05-30T17:19:45Z</time>
      </trkpt>
      <trkpt lat="46.52098" lon="0.10291">
        <ele>145.1</ele>
        <time>2020-05-30T17:19:46Z</time>
      </trkpt>
      <trkpt lat="46.52096" lon="0.10282">
        <ele>145.2</ele>
        <time>2020-05-30T17:19:47Z</time>
      </trkpt>
      <trkpt lat="46.52094" lon="0.10274">
        <ele>145.3</ele>
        <time>2020-05-30T17:19:48Z</time>
      </trkpt>
      <trkpt lat="46.52092" lon="0.10266">
        <ele>145.4</ele>
        <time>2020-05-30T17:19:49Z</time>
      </trkpt>
      <trkpt lat="46.5209" lon="0.10258">
        <ele>145.5</ele>
        <time>2020-05-30T17:19:50Z</time>
      </trkpt>
      <trkpt lat="46.52089" lon="0.10249">
        <ele>145.7</ele>
        <time>2020-05-30T17:19:51Z</time>
      </trkpt>
      <trkpt lat="46.52088" lon="0.1024">
        <ele>145.8</ele>
        <time>2020-05-30T17:19:52Z</time>
      </trkpt>
      <trkpt lat="46.52087" lon="0.10232">
        <ele>145.9</ele>
        <time>2020-05-30T17:19:53Z</time>
      </trkpt>
      <trkpt lat="46.52086" lon="0.10223">
        <ele>146</ele>
        <time>2020-05-30T17:19:54Z</time>
      </trkpt>
      <trkpt lat="46.52085" lon="0.10214">
        <ele>146.1</ele>
        <time>2020-05-30T17:19:55Z</time>
      </trkpt>
      <trkpt lat="46.52083" lon="0.10206">
        <ele>146.2</ele>
        <time>2020-05-30T17:19:56Z</time>
      </trkpt>
      <trkpt lat="46.52083" lon="0.10197">
        <ele>146.4</ele>
        <time>2020-05-30T17:19:57Z</time>
      </trkpt>
      <trkpt lat="46.52082" lon="0.10189">
        <ele>146.5</ele>
        <time>2020-05-30T17:19:58Z</time>
      </trkpt>
      <trkpt lat="46.52079" lon="0.10181">
        <ele>146.7</ele>
        <time>2020-05-30T17:19:59Z</time>
      </trkpt>
      <trkpt lat="46.52078" lon="0.10172">
        <ele>146.9</ele>
        <time>2020-05-30T17:20:00Z</time>
      </trkpt>
      <trkpt lat="46.52078" lon="0.10164">
        <ele>147</ele>
        <time>2020-05-30T17:20:01Z</time>
      </trkpt>
      <trkpt lat="46.52076" lon="0.10155">
        <ele>147.2</ele>
        <time>2020-05-30T17:20:02Z</time>
      </trkpt>
      <trkpt lat="46.52075" lon="0.10146">
        <ele>147.3</ele>
        <time>2020-05-30T17:20:03Z</time>
      </trkpt>
      <trkpt lat="46.52074" lon="0.10138">
        <ele>147.5</ele>
        <time>2020-05-30T17:20:04Z</time>
      </trkpt>
      <trkpt lat="46.52072" lon="0.1013">
        <ele>147.6</ele>
        <time>2020-05-30T17:20:05Z</time>
      </trkpt>
      <trkpt lat="46.5207" lon="0.10121">
        <ele>147.7</ele>
        <time>2020-05-30T17:20:06Z</time>
      </trkpt>
      <trkpt lat="46.52069" lon="0.10113">
        <ele>147.8</ele>
        <time>2020-05-30T17:20:07Z</time>
      </trkpt>
      <trkpt lat="46.52068" lon="0.10103">
        <ele>148</ele>
        <time>2020-05-30T17:20:08Z</time>
      </trkpt>
      <trkpt lat="46.52066" lon="0.10093">
        <ele>148.1</ele>
        <time>2020-05-30T17:20:09Z</time>
      </trkpt>
      <trkpt lat="46.52065" lon="0.10083">
        <ele>148.3</ele>
        <time>2020-05-30T17:20:10Z</time>
      </trkpt>
      <trkpt lat="46.52064" lon="0.10074">
        <ele>148.4</ele>
        <time>2020-05-30T17:20:11Z</time>
      </trkpt>
      <trkpt lat="46.52063" lon="0.10066">
        <ele>148.5</ele>
        <time>2020-05-30T17:20:12Z</time>
      </trkpt>
      <trkpt lat="46.52062" lon="0.10058">
        <ele>148.5</ele>
        <time>2020-05-30T17:20:13Z</time>
      </trkpt>
      <trkpt lat="46.5206" lon="0.10051">
        <ele>148.6</ele>
        <time>2020-05-30T17:20:14Z</time>
      </trkpt>
      <trkpt lat="46.52059" lon="0.10043">
        <ele>148.6</ele>
        <time>2020-05-30T17:20:15Z</time>
      </trkpt>
      <trkpt lat="46.52057" lon="0.10034">
        <ele>148.7</ele>
        <time>2020-05-30T17:20:16Z</time>
      </trkpt>
      <trkpt lat="46.52056" lon="0.10025">
        <ele>148.8</ele>
        <time>2020-05-30T17:20:17Z</time>
      </trkpt>
      <trkpt lat="46.52055" lon="0.10016">
        <ele>148.9</ele>
        <time>2020-05-30T17:20:18Z</time>
      </trkpt>
      <trkpt lat="46.52054" lon="0.10008">
        <ele>149.1</ele>
        <time>2020-05-30T17:20:19Z</time>
      </trkpt>
      <trkpt lat="46.52052" lon="0.1">
        <ele>149.2</ele>
        <time>2020-05-30T17:20:20Z</time>
      </trkpt>
      <trkpt lat="46.52051" lon="0.09992">
        <ele>149.3</ele>
        <time>2020-05-30T17:20:21Z</time>
      </trkpt>
      <trkpt lat="46.5205" lon="0.09983">
        <ele>149.4</ele>
        <time>2020-05-30T17:20:22Z</time>
      </trkpt>
      <trkpt lat="46.52049" lon="0.09976">
        <ele>149.5</ele>
        <time>2020-05-30T17:20:23Z</time>
      </trkpt>
      <trkpt lat="46.52048" lon="0.09968">
        <ele>149.5</ele>
        <time>2020-05-30T17:20:24Z</time>
      </trkpt>
      <trkpt lat="46.52047" lon="0.0996">
        <ele>149.5</ele>
        <time>2020-05-30T17:20:25Z</time>
      </trkpt>
      <trkpt lat="46.52046" lon="0.09952">
        <ele>149.5</ele>
        <time>2020-05-30T17:20:26Z</time>
      </trkpt>
      <trkpt lat="46.52044" lon="0.09944">
        <ele>149.5</ele>
        <time>2020-05-30T17:20:27Z</time>
      </trkpt>
      <trkpt lat="46.52043" lon="0.09935">
        <ele>149.5</ele>
        <time>2020-05-30T17:20:28Z</time>
      </trkpt>
      <trkpt lat="46.52043" lon="0.09927">
        <ele>149.5</ele>
        <time>2020-05-30T17:20:29Z</time>
      </trkpt>
      <trkpt lat="46.52042" lon="0.0992">
        <ele>149.5</ele>
        <time>2020-05-30T17:20:30Z</time>
      </trkpt>
      <trkpt lat="46.52041" lon="0.09912">
        <ele>149.5</ele>
        <time>2020-05-30T17:20:31Z</time>
      </trkpt>
      <trkpt lat="46.5204" lon="0.09904">
        <ele>149.5</ele>
        <time>2020-05-30T17:20:32Z</time>
      </trkpt>
      <trkpt lat="46.52038" lon="0.09895">
        <ele>149.5</ele>
        <time>2020-05-30T17:20:33Z</time>
      </trkpt>
      <trkpt lat="46.52037" lon="0.09888">
        <ele>149.5</ele>
        <time>2020-05-30T17:20:34Z</time>
      </trkpt>
      <trkpt lat="46.52035" lon="0.0988">
        <ele>149.5</ele>
        <time>2020-05-30T17:20:35Z</time>
      </trkpt>
      <trkpt lat="46.52034" lon="0.09871">
        <ele>149.5</ele>
        <time>2020-05-30T17:20:36Z</time>
      </trkpt>
      <trkpt lat="46.52032" lon="0.09863">
        <ele>149.5</ele>
        <time>2020-05-30T17:20:37Z</time>
      </trkpt>
      <trkpt lat="46.52032" lon="0.09854">
        <ele>149.5</ele>
        <time>2020-05-30T17:20:38Z</time>
      </trkpt>
      <trkpt lat="46.52031" lon="0.09846">
        <ele>149.5</ele>
        <time>2020-05-30T17:20:39Z</time>
      </trkpt>
      <trkpt lat="46.5203" lon="0.09837">
        <ele>149.5</ele>
        <time>2020-05-30T17:20:40Z</time>
      </trkpt>
      <trkpt lat="46.52029" lon="0.0983">
        <ele>149.5</ele>
        <time>2020-05-30T17:20:41Z</time>
      </trkpt>
      <trkpt lat="46.52029" lon="0.09821">
        <ele>149.5</ele>
        <time>2020-05-30T17:20:42Z</time>
      </trkpt>
      <trkpt lat="46.52028" lon="0.09812">
        <ele>149.5</ele>
        <time>2020-05-30T17:20:43Z</time>
      </trkpt>
      <trkpt lat="46.52028" lon="0.09803">
        <ele>149.5</ele>
        <time>2020-05-30T17:20:44Z</time>
      </trkpt>
      <trkpt lat="46.52028" lon="0.09795">
        <ele>149.5</ele>
        <time>2020-05-30T17:20:45Z</time>
      </trkpt>
      <trkpt lat="46.52028" lon="0.09787">
        <ele>149.5</ele>
        <time>2020-05-30T17:20:46Z</time>
      </trkpt>
      <trkpt lat="46.52028" lon="0.0978">
        <ele>149.5</ele>
        <time>2020-05-30T17:20:47Z</time>
      </trkpt>
      <trkpt lat="46.52029" lon="0.0977">
        <ele>149.4</ele>
        <time>2020-05-30T17:20:48Z</time>
      </trkpt>
      <trkpt lat="46.5203" lon="0.09761">
        <ele>149.3</ele>
        <time>2020-05-30T17:20:49Z</time>
      </trkpt>
      <trkpt lat="46.52031" lon="0.09752">
        <ele>149.2</ele>
        <time>2020-05-30T17:20:50Z</time>
      </trkpt>
      <trkpt lat="46.52032" lon="0.09744">
        <ele>149.1</ele>
        <time>2020-05-30T17:20:51Z</time>
      </trkpt>
      <trkpt lat="46.52032" lon="0.09732">
        <ele>149</ele>
        <time>2020-05-30T17:20:52Z</time>
      </trkpt>
      <trkpt lat="46.52033" lon="0.09721">
        <ele>148.8</ele>
        <time>2020-05-30T17:20:53Z</time>
      </trkpt>
      <trkpt lat="46.52034" lon="0.09712">
        <ele>148.7</ele>
        <time>2020-05-30T17:20:54Z</time>
      </trkpt>
      <trkpt lat="46.52034" lon="0.09702">
        <ele>148.6</ele>
        <time>2020-05-30T17:20:55Z</time>
      </trkpt>
      <trkpt lat="46.52035" lon="0.09692">
        <ele>148.4</ele>
        <time>2020-05-30T17:20:56Z</time>
      </trkpt>
      <trkpt lat="46.52035" lon="0.09682">
        <ele>148.3</ele>
        <time>2020-05-30T17:20:57Z</time>
      </trkpt>
      <trkpt lat="46.52036" lon="0.09672">
        <ele>148.2</ele>
        <time>2020-05-30T17:20:58Z</time>
      </trkpt>
      <trkpt lat="46.52037" lon="0.09662">
        <ele>148</ele>
        <time>2020-05-30T17:20:59Z</time>
      </trkpt>
      <trkpt lat="46.52038" lon="0.09651">
        <ele>147.9</ele>
        <time>2020-05-30T17:21:00Z</time>
      </trkpt>
      <trkpt lat="46.52039" lon="0.09641">
        <ele>147.8</ele>
        <time>2020-05-30T17:21:01Z</time>
      </trkpt>
      <trkpt lat="46.52039" lon="0.09631">
        <ele>147.6</ele>
        <time>2020-05-30T17:21:02Z</time>
      </trkpt>
      <trkpt lat="46.5204" lon="0.09621">
        <ele>147.5</ele>
        <time>2020-05-30T17:21:03Z</time>
      </trkpt>
      <trkpt lat="46.5204" lon="0.09612">
        <ele>147.5</ele>
        <time>2020-05-30T17:21:04Z</time>
      </trkpt>
      <trkpt lat="46.52042" lon="0.09602">
        <ele>147.4</ele>
        <time>2020-05-30T17:21:05Z</time>
      </trkpt>
      <trkpt lat="46.52042" lon="0.09593">
        <ele>147.3</ele>
        <time>2020-05-30T17:21:06Z</time>
      </trkpt>
      <trkpt lat="46.52042" lon="0.09585">
        <ele>147.3</ele>
        <time>2020-05-30T17:21:07Z</time>
      </trkpt>
      <trkpt lat="46.52043" lon="0.09576">
        <ele>147.3</ele>
        <time>2020-05-30T17:21:08Z</time>
      </trkpt>
      <trkpt lat="46.52043" lon="0.09567">
        <ele>147.3</ele>
        <time>2020-05-30T17:21:09Z</time>
      </trkpt>
      <trkpt lat="46.52044" lon="0.09558">
        <ele>147.3</ele>
        <time>2020-05-30T17:21:10Z</time>
      </trkpt>
      <trkpt lat="46.52044" lon="0.0955">
        <ele>147.3</ele>
        <time>2020-05-30T17:21:11Z</time>
      </trkpt>
      <trkpt lat="46.52045" lon="0.09541">
        <ele>147.4</ele>
        <time>2020-05-30T17:21:12Z</time>
      </trkpt>
      <trkpt lat="46.52045" lon="0.09532">
        <ele>147.4</ele>
        <time>2020-05-30T17:21:13Z</time>
      </trkpt>
      <trkpt lat="46.52044" lon="0.09523">
        <ele>147.4</ele>
        <time>2020-05-30T17:21:14Z</time>
      </trkpt>
      <trkpt lat="46.52045" lon="0.09515">
        <ele>147.5</ele>
        <time>2020-05-30T17:21:15Z</time>
      </trkpt>
      <trkpt lat="46.52046" lon="0.09507">
        <ele>147.5</ele>
        <time>2020-05-30T17:21:16Z</time>
      </trkpt>
      <trkpt lat="46.52047" lon="0.09499">
        <ele>147.5</ele>
        <time>2020-05-30T17:21:17Z</time>
      </trkpt>
      <trkpt lat="46.52048" lon="0.09491">
        <ele>147.6</ele>
        <time>2020-05-30T17:21:18Z</time>
      </trkpt>
      <trkpt lat="46.52049" lon="0.09483">
        <ele>147.6</ele>
        <time>2020-05-30T17:21:19Z</time>
      </trkpt>
      <trkpt lat="46.5205" lon="0.09476">
        <ele>147.7</ele>
        <time>2020-05-30T17:21:20Z</time>
      </trkpt>
      <trkpt lat="46.52049" lon="0.09468">
        <ele>147.8</ele>
        <time>2020-05-30T17:21:21Z</time>
      </trkpt>
      <trkpt lat="46.52049" lon="0.0946">
        <ele>147.8</ele>
        <time>2020-05-30T17:21:22Z</time>
      </trkpt>
      <trkpt lat="46.52049" lon="0.09453">
        <ele>147.9</ele>
        <time>2020-05-30T17:21:23Z</time>
      </trkpt>
      <trkpt lat="46.5205" lon="0.09445">
        <ele>148</ele>
        <time>2020-05-30T17:21:24Z</time>
      </trkpt>
      <trkpt lat="46.5205" lon="0.09438">
        <ele>148</ele>
        <time>2020-05-30T17:21:25Z</time>
      </trkpt>
      <trkpt lat="46.5205" lon="0.0943">
        <ele>148.1</ele>
        <time>2020-05-30T17:21:26Z</time>
      </trkpt>
      <trkpt lat="46.52052" lon="0.09422">
        <ele>148.2</ele>
        <time>2020-05-30T17:21:27Z</time>
      </trkpt>
      <trkpt lat="46.52054" lon="0.09414">
        <ele>148.2</ele>
        <time>2020-05-30T17:21:28Z</time>
      </trkpt>
      <trkpt lat="46.52054" lon="0.09407">
        <ele>148.3</ele>
        <time>2020-05-30T17:21:29Z</time>
      </trkpt>
      <trkpt lat="46.52056" lon="0.09399">
        <ele>148.4</ele>
        <time>2020-05-30T17:21:30Z</time>
      </trkpt>
      <trkpt lat="46.52057" lon="0.09392">
        <ele>148.5</ele>
        <time>2020-05-30T17:21:31Z</time>
      </trkpt>
      <trkpt lat="46.52058" lon="0.09384">
        <ele>148.5</ele>
        <time>2020-05-30T17:21:32Z</time>
      </trkpt>
      <trkpt lat="46.5206" lon="0.09377">
        <ele>148.6</ele>
        <time>2020-05-30T17:21:33Z</time>
      </trkpt>
      <trkpt lat="46.52061" lon="0.0937">
        <ele>148.6</ele>
        <time>2020-05-30T17:21:34Z</time>
      </trkpt>
      <trkpt lat="46.52063" lon="0.09363">
        <ele>148.7</ele>
        <time>2020-05-30T17:21:35Z</time>
      </trkpt>
      <trkpt lat="46.52064" lon="0.09356">
        <ele>148.7</ele>
        <time>2020-05-30T17:21:36Z</time>
      </trkpt>
      <trkpt lat="46.52065" lon="0.09348">
        <ele>148.8</ele>
        <time>2020-05-30T17:21:37Z</time>
      </trkpt>
      <trkpt lat="46.52067" lon="0.09341">
        <ele>148.9</ele>
        <time>2020-05-30T17:21:38Z</time>
      </trkpt>
      <trkpt lat="46.52069" lon="0.09334">
        <ele>148.9</ele>
        <time>2020-05-30T17:21:39Z</time>
      </trkpt>
      <trkpt lat="46.5207" lon="0.09327">
        <ele>149</ele>
        <time>2020-05-30T17:21:40Z</time>
      </trkpt>
      <trkpt lat="46.52073" lon="0.09321">
        <ele>149</ele>
        <time>2020-05-30T17:21:41Z</time>
      </trkpt>
      <trkpt lat="46.52075" lon="0.09314">
        <ele>149.1</ele>
        <time>2020-05-30T17:21:42Z</time>
      </trkpt>
      <trkpt lat="46.52077" lon="0.09306">
        <ele>149.1</ele>
        <time>2020-05-30T17:21:43Z</time>
      </trkpt>
      <trkpt lat="46.52078" lon="0.09298">
        <ele>149.2</ele>
        <time>2020-05-30T17:21:44Z</time>
      </trkpt>
      <trkpt lat="46.5208" lon="0.0929">
        <ele>149.2</ele>
        <time>2020-05-30T17:21:45Z</time>
      </trkpt>
      <trkpt lat="46.52082" lon="0.09283">
        <ele>149.3</ele>
        <time>2020-05-30T17:21:46Z</time>
      </trkpt>
      <trkpt lat="46.52083" lon="0.09275">
        <ele>149.3</ele>
        <time>2020-05-30T17:21:47Z</time>
      </trkpt>
      <trkpt lat="46.52084" lon="0.09268">
        <ele>149.3</ele>
        <time>2020-05-30T17:21:48Z</time>
      </trkpt>
      <trkpt lat="46.52086" lon="0.09262">
        <ele>149.3</ele>
        <time>2020-05-30T17:21:49Z</time>
      </trkpt>
      <trkpt lat="46.52088" lon="0.09255">
        <ele>149.3</ele>
        <time>2020-05-30T17:21:50Z</time>
      </trkpt>
      <trkpt lat="46.5209" lon="0.09248">
        <ele>149.3</ele>
        <time>2020-05-30T17:21:51Z</time>
      </trkpt>
      <trkpt lat="46.52091" lon="0.09241">
        <ele>149.3</ele>
        <time>2020-05-30T17:21:52Z</time>
      </trkpt>
      <trkpt lat="46.52093" lon="0.09233">
        <ele>149.3</ele>
        <time>2020-05-30T17:21:53Z</time>
      </trkpt>
      <trkpt lat="46.52095" lon="0.09225">
        <ele>149.3</ele>
        <time>2020-05-30T17:21:54Z</time>
      </trkpt>
      <trkpt lat="46.52097" lon="0.09217">
        <ele>149.2</ele>
        <time>2020-05-30T17:21:55Z</time>
      </trkpt>
      <trkpt lat="46.521" lon="0.0921">
        <ele>149.2</ele>
        <time>2020-05-30T17:21:56Z</time>
      </trkpt>
      <trkpt lat="46.52101" lon="0.09202">
        <ele>149.2</ele>
        <time>2020-05-30T17:21:57Z</time>
      </trkpt>
      <trkpt lat="46.52103" lon="0.09194">
        <ele>149.1</ele>
        <time>2020-05-30T17:21:58Z</time>
      </trkpt>
      <trkpt lat="46.52105" lon="0.09186">
        <ele>149.1</ele>
        <time>2020-05-30T17:21:59Z</time>
      </trkpt>
      <trkpt lat="46.52107" lon="0.09178">
        <ele>149</ele>
        <time>2020-05-30T17:22:00Z</time>
      </trkpt>
      <trkpt lat="46.52109" lon="0.0917">
        <ele>148.9</ele>
        <time>2020-05-30T17:22:01Z</time>
      </trkpt>
      <trkpt lat="46.52111" lon="0.09161">
        <ele>148.9</ele>
        <time>2020-05-30T17:22:02Z</time>
      </trkpt>
      <trkpt lat="46.52112" lon="0.09153">
        <ele>148.9</ele>
        <time>2020-05-30T17:22:03Z</time>
      </trkpt>
      <trkpt lat="46.52115" lon="0.09145">
        <ele>148.8</ele>
        <time>2020-05-30T17:22:04Z</time>
      </trkpt>
      <trkpt lat="46.52118" lon="0.09137">
        <ele>148.8</ele>
        <time>2020-05-30T17:22:05Z</time>
      </trkpt>
      <trkpt lat="46.5212" lon="0.09129">
        <ele>148.7</ele>
        <time>2020-05-30T17:22:06Z</time>
      </trkpt>
      <trkpt lat="46.52122" lon="0.0912">
        <ele>148.7</ele>
        <time>2020-05-30T17:22:07Z</time>
      </trkpt>
      <trkpt lat="46.52132" lon="0.09116">
        <ele>148.5</ele>
        <time>2020-05-30T17:22:08Z</time>
      </trkpt>
      <trkpt lat="46.52132" lon="0.09107">
        <ele>148.4</ele>
        <time>2020-05-30T17:22:09Z</time>
      </trkpt>
      <trkpt lat="46.52134" lon="0.09099">
        <ele>148.4</ele>
        <time>2020-05-30T17:22:10Z</time>
      </trkpt>
      <trkpt lat="46.52136" lon="0.09091">
        <ele>148.3</ele>
        <time>2020-05-30T17:22:11Z</time>
      </trkpt>
      <trkpt lat="46.52138" lon="0.09083">
        <ele>148.2</ele>
        <time>2020-05-30T17:22:12Z</time>
      </trkpt>
      <trkpt lat="46.52139" lon="0.09075">
        <ele>148.2</ele>
        <time>2020-05-30T17:22:13Z</time>
      </trkpt>
      <trkpt lat="46.52141" lon="0.09068">
        <ele>148.2</ele>
        <time>2020-05-30T17:22:14Z</time>
      </trkpt>
      <trkpt lat="46.52142" lon="0.0906">
        <ele>148.1</ele>
        <time>2020-05-30T17:22:15Z</time>
      </trkpt>
      <trkpt lat="46.52142" lon="0.09053">
        <ele>148.1</ele>
        <time>2020-05-30T17:22:16Z</time>
      </trkpt>
      <trkpt lat="46.5214" lon="0.09045">
        <ele>148.1</ele>
        <time>2020-05-30T17:22:17Z</time>
      </trkpt>
      <trkpt lat="46.52142" lon="0.09037">
        <ele>148</ele>
        <time>2020-05-30T17:22:18Z</time>
      </trkpt>
      <trkpt lat="46.52142" lon="0.09028">
        <ele>148</ele>
        <time>2020-05-30T17:22:19Z</time>
      </trkpt>
      <trkpt lat="46.52143" lon="0.0902">
        <ele>147.9</ele>
        <time>2020-05-30T17:22:20Z</time>
      </trkpt>
      <trkpt lat="46.52142" lon="0.09012">
        <ele>147.9</ele>
        <time>2020-05-30T17:22:21Z</time>
      </trkpt>
      <trkpt lat="46.52142" lon="0.09004">
        <ele>147.8</ele>
        <time>2020-05-30T17:22:22Z</time>
      </trkpt>
      <trkpt lat="46.52142" lon="0.08997">
        <ele>147.8</ele>
        <time>2020-05-30T17:22:23Z</time>
      </trkpt>
      <trkpt lat="46.52141" lon="0.0899">
        <ele>147.8</ele>
        <time>2020-05-30T17:22:24Z</time>
      </trkpt>
      <trkpt lat="46.5214" lon="0.08983">
        <ele>147.8</ele>
        <time>2020-05-30T17:22:25Z</time>
      </trkpt>
      <trkpt lat="46.52139" lon="0.08976">
        <ele>147.8</ele>
        <time>2020-05-30T17:22:26Z</time>
      </trkpt>
      <trkpt lat="46.52139" lon="0.08968">
        <ele>147.8</ele>
        <time>2020-05-30T17:22:27Z</time>
      </trkpt>
      <trkpt lat="46.52139" lon="0.0896">
        <ele>147.8</ele>
        <time>2020-05-30T17:22:28Z</time>
      </trkpt>
      <trkpt lat="46.52139" lon="0.08952">
        <ele>147.8</ele>
        <time>2020-05-30T17:22:29Z</time>
      </trkpt>
      <trkpt lat="46.52138" lon="0.08945">
        <ele>147.8</ele>
        <time>2020-05-30T17:22:30Z</time>
      </trkpt>
      <trkpt lat="46.52138" lon="0.08937">
        <ele>147.8</ele>
        <time>2020-05-30T17:22:31Z</time>
      </trkpt>
      <trkpt lat="46.52138" lon="0.08929">
        <ele>147.8</ele>
        <time>2020-05-30T17:22:32Z</time>
      </trkpt>
      <trkpt lat="46.52137" lon="0.08921">
        <ele>147.8</ele>
        <time>2020-05-30T17:22:33Z</time>
      </trkpt>
      <trkpt lat="46.52137" lon="0.08913">
        <ele>147.8</ele>
        <time>2020-05-30T17:22:34Z</time>
      </trkpt>
      <trkpt lat="46.52137" lon="0.08904">
        <ele>147.8</ele>
        <time>2020-05-30T17:22:35Z</time>
      </trkpt>
      <trkpt lat="46.52136" lon="0.08895">
        <ele>147.8</ele>
        <time>2020-05-30T17:22:36Z</time>
      </trkpt>
      <trkpt lat="46.52136" lon="0.08886">
        <ele>147.9</ele>
        <time>2020-05-30T17:22:37Z</time>
      </trkpt>
      <trkpt lat="46.52136" lon="0.08878">
        <ele>147.9</ele>
        <time>2020-05-30T17:22:38Z</time>
      </trkpt>
      <trkpt lat="46.52135" lon="0.08869">
        <ele>147.9</ele>
        <time>2020-05-30T17:22:39Z</time>
      </trkpt>
      <trkpt lat="46.52135" lon="0.08861">
        <ele>147.9</ele>
        <time>2020-05-30T17:22:40Z</time>
      </trkpt>
      <trkpt lat="46.52134" lon="0.08852">
        <ele>147.9</ele>
        <time>2020-05-30T17:22:41Z</time>
      </trkpt>
      <trkpt lat="46.52134" lon="0.08843">
        <ele>147.9</ele>
        <time>2020-05-30T17:22:42Z</time>
      </trkpt>
      <trkpt lat="46.52134" lon="0.08835">
        <ele>147.9</ele>
        <time>2020-05-30T17:22:43Z</time>
      </trkpt>
      <trkpt lat="46.52133" lon="0.08826">
        <ele>148</ele>
        <time>2020-05-30T17:22:44Z</time>
      </trkpt>
      <trkpt lat="46.52133" lon="0.08817">
        <ele>148</ele>
        <time>2020-05-30T17:22:45Z</time>
      </trkpt>
      <trkpt lat="46.52133" lon="0.08809">
        <ele>148.1</ele>
        <time>2020-05-30T17:22:46Z</time>
      </trkpt>
      <trkpt lat="46.52132" lon="0.08801">
        <ele>148.1</ele>
        <time>2020-05-30T17:22:47Z</time>
      </trkpt>
      <trkpt lat="46.52132" lon="0.08793">
        <ele>148.3</ele>
        <time>2020-05-30T17:22:48Z</time>
      </trkpt>
      <trkpt lat="46.52132" lon="0.08784">
        <ele>148.4</ele>
        <time>2020-05-30T17:22:49Z</time>
      </trkpt>
      <trkpt lat="46.52131" lon="0.08777">
        <ele>148.5</ele>
        <time>2020-05-30T17:22:50Z</time>
      </trkpt>
      <trkpt lat="46.52131" lon="0.08768">
        <ele>148.6</ele>
        <time>2020-05-30T17:22:51Z</time>
      </trkpt>
      <trkpt lat="46.52131" lon="0.0876">
        <ele>148.7</ele>
        <time>2020-05-30T17:22:52Z</time>
      </trkpt>
      <trkpt lat="46.5213" lon="0.08752">
        <ele>148.8</ele>
        <time>2020-05-30T17:22:53Z</time>
      </trkpt>
      <trkpt lat="46.5213" lon="0.08743">
        <ele>148.9</ele>
        <time>2020-05-30T17:22:54Z</time>
      </trkpt>
      <trkpt lat="46.52129" lon="0.08735">
        <ele>149</ele>
        <time>2020-05-30T17:22:55Z</time>
      </trkpt>
      <trkpt lat="46.52129" lon="0.08727">
        <ele>149</ele>
        <time>2020-05-30T17:22:56Z</time>
      </trkpt>
      <trkpt lat="46.52129" lon="0.08719">
        <ele>149.1</ele>
        <time>2020-05-30T17:22:57Z</time>
      </trkpt>
      <trkpt lat="46.52129" lon="0.08711">
        <ele>149.1</ele>
        <time>2020-05-30T17:22:58Z</time>
      </trkpt>
      <trkpt lat="46.52128" lon="0.08702">
        <ele>149.2</ele>
        <time>2020-05-30T17:22:59Z</time>
      </trkpt>
      <trkpt lat="46.52128" lon="0.08694">
        <ele>149.2</ele>
        <time>2020-05-30T17:23:00Z</time>
      </trkpt>
      <trkpt lat="46.52128" lon="0.08687">
        <ele>149.3</ele>
        <time>2020-05-30T17:23:01Z</time>
      </trkpt>
      <trkpt lat="46.52127" lon="0.08679">
        <ele>149.3</ele>
        <time>2020-05-30T17:23:02Z</time>
      </trkpt>
      <trkpt lat="46.52127" lon="0.08671">
        <ele>149.3</ele>
        <time>2020-05-30T17:23:03Z</time>
      </trkpt>
      <trkpt lat="46.52126" lon="0.08663">
        <ele>149.4</ele>
        <time>2020-05-30T17:23:04Z</time>
      </trkpt>
      <trkpt lat="46.52126" lon="0.08655">
        <ele>149.4</ele>
        <time>2020-05-30T17:23:05Z</time>
      </trkpt>
      <trkpt lat="46.52126" lon="0.08647">
        <ele>149.4</ele>
        <time>2020-05-30T17:23:06Z</time>
      </trkpt>
      <trkpt lat="46.52126" lon="0.08639">
        <ele>149.5</ele>
        <time>2020-05-30T17:23:07Z</time>
      </trkpt>
      <trkpt lat="46.52125" lon="0.08632">
        <ele>149.5</ele>
        <time>2020-05-30T17:23:08Z</time>
      </trkpt>
      <trkpt lat="46.52125" lon="0.08624">
        <ele>149.6</ele>
        <time>2020-05-30T17:23:09Z</time>
      </trkpt>
      <trkpt lat="46.52125" lon="0.08615">
        <ele>149.6</ele>
        <time>2020-05-30T17:23:10Z</time>
      </trkpt>
      <trkpt lat="46.52124" lon="0.08607">
        <ele>149.7</ele>
        <time>2020-05-30T17:23:11Z</time>
      </trkpt>
      <trkpt lat="46.52124" lon="0.08599">
        <ele>149.7</ele>
        <time>2020-05-30T17:23:12Z</time>
      </trkpt>
      <trkpt lat="46.52124" lon="0.08591">
        <ele>149.8</ele>
        <time>2020-05-30T17:23:13Z</time>
      </trkpt>
      <trkpt lat="46.52124" lon="0.08583">
        <ele>149.8</ele>
        <time>2020-05-30T17:23:14Z</time>
      </trkpt>
      <trkpt lat="46.52124" lon="0.08576">
        <ele>149.9</ele>
        <time>2020-05-30T17:23:15Z</time>
      </trkpt>
      <trkpt lat="46.52123" lon="0.08568">
        <ele>149.9</ele>
        <time>2020-05-30T17:23:16Z</time>
      </trkpt>
      <trkpt lat="46.52123" lon="0.08561">
        <ele>149.9</ele>
        <time>2020-05-30T17:23:17Z</time>
      </trkpt>
      <trkpt lat="46.52123" lon="0.08553">
        <ele>150</ele>
        <time>2020-05-30T17:23:18Z</time>
      </trkpt>
      <trkpt lat="46.52122" lon="0.08546">
        <ele>150</ele>
        <time>2020-05-30T17:23:19Z</time>
      </trkpt>
      <trkpt lat="46.52123" lon="0.08538">
        <ele>150.1</ele>
        <time>2020-05-30T17:23:20Z</time>
      </trkpt>
      <trkpt lat="46.52123" lon="0.08531">
        <ele>150.1</ele>
        <time>2020-05-30T17:23:21Z</time>
      </trkpt>
      <trkpt lat="46.52122" lon="0.08523">
        <ele>150.2</ele>
        <time>2020-05-30T17:23:22Z</time>
      </trkpt>
      <trkpt lat="46.52122" lon="0.08515">
        <ele>150.2</ele>
        <time>2020-05-30T17:23:23Z</time>
      </trkpt>
      <trkpt lat="46.52122" lon="0.08508">
        <ele>150.3</ele>
        <time>2020-05-30T17:23:24Z</time>
      </trkpt>
      <trkpt lat="46.52121" lon="0.085">
        <ele>150.3</ele>
        <time>2020-05-30T17:23:25Z</time>
      </trkpt>
      <trkpt lat="46.5212" lon="0.08493">
        <ele>150.4</ele>
        <time>2020-05-30T17:23:26Z</time>
      </trkpt>
      <trkpt lat="46.5212" lon="0.08485">
        <ele>150.5</ele>
        <time>2020-05-30T17:23:27Z</time>
      </trkpt>
      <trkpt lat="46.5212" lon="0.08478">
        <ele>150.5</ele>
        <time>2020-05-30T17:23:28Z</time>
      </trkpt>
      <trkpt lat="46.52119" lon="0.0847">
        <ele>150.6</ele>
        <time>2020-05-30T17:23:29Z</time>
      </trkpt>
      <trkpt lat="46.52119" lon="0.08463">
        <ele>150.7</ele>
        <time>2020-05-30T17:23:30Z</time>
      </trkpt>
      <trkpt lat="46.52118" lon="0.08456">
        <ele>150.7</ele>
        <time>2020-05-30T17:23:31Z</time>
      </trkpt>
      <trkpt lat="46.52117" lon="0.08449">
        <ele>150.8</ele>
        <time>2020-05-30T17:23:32Z</time>
      </trkpt>
      <trkpt lat="46.52116" lon="0.08442">
        <ele>150.9</ele>
        <time>2020-05-30T17:23:33Z</time>
      </trkpt>
      <trkpt lat="46.52116" lon="0.08434">
        <ele>151</ele>
        <time>2020-05-30T17:23:34Z</time>
      </trkpt>
      <trkpt lat="46.52115" lon="0.08427">
        <ele>151</ele>
        <time>2020-05-30T17:23:35Z</time>
      </trkpt>
      <trkpt lat="46.52114" lon="0.08419">
        <ele>151.1</ele>
        <time>2020-05-30T17:23:36Z</time>
      </trkpt>
      <trkpt lat="46.52113" lon="0.08412">
        <ele>151.1</ele>
        <time>2020-05-30T17:23:37Z</time>
      </trkpt>
      <trkpt lat="46.52112" lon="0.08404">
        <ele>151.2</ele>
        <time>2020-05-30T17:23:38Z</time>
      </trkpt>
      <trkpt lat="46.52111" lon="0.08396">
        <ele>151.2</ele>
        <time>2020-05-30T17:23:39Z</time>
      </trkpt>
      <trkpt lat="46.52111" lon="0.08388">
        <ele>151.2</ele>
        <time>2020-05-30T17:23:40Z</time>
      </trkpt>
      <trkpt lat="46.5211" lon="0.0838">
        <ele>151.2</ele>
        <time>2020-05-30T17:23:41Z</time>
      </trkpt>
      <trkpt lat="46.5211" lon="0.0837">
        <ele>151.2</ele>
        <time>2020-05-30T17:23:42Z</time>
      </trkpt>
      <trkpt lat="46.5211" lon="0.0836">
        <ele>151.2</ele>
        <time>2020-05-30T17:23:43Z</time>
      </trkpt>
      <trkpt lat="46.52112" lon="0.08352">
        <ele>151.3</ele>
        <time>2020-05-30T17:23:44Z</time>
      </trkpt>
      <trkpt lat="46.52112" lon="0.08343">
        <ele>151.4</ele>
        <time>2020-05-30T17:23:45Z</time>
      </trkpt>
      <trkpt lat="46.52112" lon="0.08333">
        <ele>151.5</ele>
        <time>2020-05-30T17:23:46Z</time>
      </trkpt>
      <trkpt lat="46.52112" lon="0.08325">
        <ele>151.6</ele>
        <time>2020-05-30T17:23:47Z</time>
      </trkpt>
      <trkpt lat="46.52111" lon="0.08317">
        <ele>151.7</ele>
        <time>2020-05-30T17:23:48Z</time>
      </trkpt>
      <trkpt lat="46.5211" lon="0.08309">
        <ele>151.8</ele>
        <time>2020-05-30T17:23:49Z</time>
      </trkpt>
      <trkpt lat="46.5211" lon="0.08301">
        <ele>151.9</ele>
        <time>2020-05-30T17:23:50Z</time>
      </trkpt>
      <trkpt lat="46.5211" lon="0.08294">
        <ele>152</ele>
        <time>2020-05-30T17:23:51Z</time>
      </trkpt>
      <trkpt lat="46.52108" lon="0.08284">
        <ele>152</ele>
        <time>2020-05-30T17:23:52Z</time>
      </trkpt>
      <trkpt lat="46.52108" lon="0.08276">
        <ele>152.1</ele>
        <time>2020-05-30T17:23:53Z</time>
      </trkpt>
      <trkpt lat="46.52108" lon="0.0827">
        <ele>152.1</ele>
        <time>2020-05-30T17:23:54Z</time>
      </trkpt>
      <trkpt lat="46.52107" lon="0.08263">
        <ele>152.1</ele>
        <time>2020-05-30T17:23:55Z</time>
      </trkpt>
      <trkpt lat="46.52106" lon="0.08255">
        <ele>152.2</ele>
        <time>2020-05-30T17:23:56Z</time>
      </trkpt>
      <trkpt lat="46.52106" lon="0.08247">
        <ele>152.2</ele>
        <time>2020-05-30T17:23:57Z</time>
      </trkpt>
      <trkpt lat="46.52105" lon="0.08239">
        <ele>152.3</ele>
        <time>2020-05-30T17:23:58Z</time>
      </trkpt>
      <trkpt lat="46.52104" lon="0.08231">
        <ele>152.3</ele>
        <time>2020-05-30T17:23:59Z</time>
      </trkpt>
      <trkpt lat="46.52103" lon="0.08222">
        <ele>152.4</ele>
        <time>2020-05-30T17:24:00Z</time>
      </trkpt>
      <trkpt lat="46.52103" lon="0.08214">
        <ele>152.5</ele>
        <time>2020-05-30T17:24:01Z</time>
      </trkpt>
      <trkpt lat="46.52102" lon="0.08206">
        <ele>152.5</ele>
        <time>2020-05-30T17:24:02Z</time>
      </trkpt>
      <trkpt lat="46.52102" lon="0.08197">
        <ele>152.6</ele>
        <time>2020-05-30T17:24:03Z</time>
      </trkpt>
      <trkpt lat="46.52102" lon="0.08189">
        <ele>152.7</ele>
        <time>2020-05-30T17:24:04Z</time>
      </trkpt>
      <trkpt lat="46.52101" lon="0.08181">
        <ele>152.8</ele>
        <time>2020-05-30T17:24:05Z</time>
      </trkpt>
      <trkpt lat="46.52099" lon="0.08174">
        <ele>152.8</ele>
        <time>2020-05-30T17:24:06Z</time>
      </trkpt>
      <trkpt lat="46.52098" lon="0.08166">
        <ele>152.9</ele>
        <time>2020-05-30T17:24:07Z</time>
      </trkpt>
      <trkpt lat="46.52096" lon="0.08157">
        <ele>152.9</ele>
        <time>2020-05-30T17:24:08Z</time>
      </trkpt>
      <trkpt lat="46.52096" lon="0.08152">
        <ele>152.9</ele>
        <time>2020-05-30T17:24:09Z</time>
      </trkpt>
      <trkpt lat="46.52096" lon="0.08144">
        <ele>153</ele>
        <time>2020-05-30T17:24:10Z</time>
      </trkpt>
      <trkpt lat="46.52096" lon="0.08136">
        <ele>153</ele>
        <time>2020-05-30T17:24:11Z</time>
      </trkpt>
      <trkpt lat="46.52095" lon="0.08129">
        <ele>153.1</ele>
        <time>2020-05-30T17:24:12Z</time>
      </trkpt>
      <trkpt lat="46.52095" lon="0.08122">
        <ele>153.2</ele>
        <time>2020-05-30T17:24:13Z</time>
      </trkpt>
      <trkpt lat="46.52094" lon="0.08114">
        <ele>153.2</ele>
        <time>2020-05-30T17:24:14Z</time>
      </trkpt>
      <trkpt lat="46.52093" lon="0.08105">
        <ele>153.3</ele>
        <time>2020-05-30T17:24:15Z</time>
      </trkpt>
      <trkpt lat="46.52093" lon="0.08099">
        <ele>153.4</ele>
        <time>2020-05-30T17:24:16Z</time>
      </trkpt>
      <trkpt lat="46.52092" lon="0.08092">
        <ele>153.4</ele>
        <time>2020-05-30T17:24:17Z</time>
      </trkpt>
      <trkpt lat="46.52092" lon="0.08083">
        <ele>153.5</ele>
        <time>2020-05-30T17:24:18Z</time>
      </trkpt>
      <trkpt lat="46.52092" lon="0.08076">
        <ele>153.5</ele>
        <time>2020-05-30T17:24:19Z</time>
      </trkpt>
      <trkpt lat="46.52091" lon="0.08068">
        <ele>153.5</ele>
        <time>2020-05-30T17:24:20Z</time>
      </trkpt>
      <trkpt lat="46.5209" lon="0.0806">
        <ele>153.6</ele>
        <time>2020-05-30T17:24:21Z</time>
      </trkpt>
      <trkpt lat="46.52089" lon="0.0805">
        <ele>153.6</ele>
        <time>2020-05-30T17:24:22Z</time>
      </trkpt>
      <trkpt lat="46.52088" lon="0.08045">
        <ele>153.6</ele>
        <time>2020-05-30T17:24:23Z</time>
      </trkpt>
      <trkpt lat="46.52087" lon="0.08037">
        <ele>153.6</ele>
        <time>2020-05-30T17:24:24Z</time>
      </trkpt>
      <trkpt lat="46.52086" lon="0.08031">
        <ele>153.6</ele>
        <time>2020-05-30T17:24:25Z</time>
      </trkpt>
      <trkpt lat="46.52086" lon="0.08022">
        <ele>153.7</ele>
        <time>2020-05-30T17:24:26Z</time>
      </trkpt>
      <trkpt lat="46.52086" lon="0.08015">
        <ele>153.7</ele>
        <time>2020-05-30T17:24:27Z</time>
      </trkpt>
      <trkpt lat="46.52084" lon="0.08007">
        <ele>153.8</ele>
        <time>2020-05-30T17:24:28Z</time>
      </trkpt>
      <trkpt lat="46.52083" lon="0.08">
        <ele>153.8</ele>
        <time>2020-05-30T17:24:29Z</time>
      </trkpt>
      <trkpt lat="46.52082" lon="0.07991">
        <ele>153.9</ele>
        <time>2020-05-30T17:24:30Z</time>
      </trkpt>
      <trkpt lat="46.52082" lon="0.07984">
        <ele>153.9</ele>
        <time>2020-05-30T17:24:31Z</time>
      </trkpt>
      <trkpt lat="46.52081" lon="0.07975">
        <ele>154</ele>
        <time>2020-05-30T17:24:32Z</time>
      </trkpt>
      <trkpt lat="46.52081" lon="0.07967">
        <ele>154</ele>
        <time>2020-05-30T17:24:33Z</time>
      </trkpt>
      <trkpt lat="46.52081" lon="0.07959">
        <ele>154.1</ele>
        <time>2020-05-30T17:24:34Z</time>
      </trkpt>
      <trkpt lat="46.5208" lon="0.07951">
        <ele>154.1</ele>
        <time>2020-05-30T17:24:35Z</time>
      </trkpt>
      <trkpt lat="46.5208" lon="0.07945">
        <ele>154.1</ele>
        <time>2020-05-30T17:24:36Z</time>
      </trkpt>
      <trkpt lat="46.52079" lon="0.07936">
        <ele>154.1</ele>
        <time>2020-05-30T17:24:37Z</time>
      </trkpt>
      <trkpt lat="46.52079" lon="0.07929">
        <ele>154.1</ele>
        <time>2020-05-30T17:24:38Z</time>
      </trkpt>
      <trkpt lat="46.52079" lon="0.07922">
        <ele>154.1</ele>
        <time>2020-05-30T17:24:39Z</time>
      </trkpt>
      <trkpt lat="46.52077" lon="0.07912">
        <ele>154.1</ele>
        <time>2020-05-30T17:24:40Z</time>
      </trkpt>
      <trkpt lat="46.52077" lon="0.07904">
        <ele>154.1</ele>
        <time>2020-05-30T17:24:41Z</time>
      </trkpt>
      <trkpt lat="46.52076" lon="0.07895">
        <ele>154.1</ele>
        <time>2020-05-30T17:24:42Z</time>
      </trkpt>
      <trkpt lat="46.52075" lon="0.07888">
        <ele>154.2</ele>
        <time>2020-05-30T17:24:43Z</time>
      </trkpt>
      <trkpt lat="46.52074" lon="0.0788">
        <ele>154.2</ele>
        <time>2020-05-30T17:24:44Z</time>
      </trkpt>
      <trkpt lat="46.52074" lon="0.07874">
        <ele>154.2</ele>
        <time>2020-05-30T17:24:45Z</time>
      </trkpt>
      <trkpt lat="46.52073" lon="0.07866">
        <ele>154.2</ele>
        <time>2020-05-30T17:24:46Z</time>
      </trkpt>
      <trkpt lat="46.52071" lon="0.07857">
        <ele>154.2</ele>
        <time>2020-05-30T17:24:47Z</time>
      </trkpt>
      <trkpt lat="46.52069" lon="0.07848">
        <ele>154.2</ele>
        <time>2020-05-30T17:24:48Z</time>
      </trkpt>
      <trkpt lat="46.52067" lon="0.07839">
        <ele>154.2</ele>
        <time>2020-05-30T17:24:49Z</time>
      </trkpt>
      <trkpt lat="46.52066" lon="0.07831">
        <ele>154.2</ele>
        <time>2020-05-30T17:24:50Z</time>
      </trkpt>
      <trkpt lat="46.52065" lon="0.07822">
        <ele>154.2</ele>
        <time>2020-05-30T17:24:51Z</time>
      </trkpt>
      <trkpt lat="46.52064" lon="0.07813">
        <ele>154.2</ele>
        <time>2020-05-30T17:24:52Z</time>
      </trkpt>
      <trkpt lat="46.52063" lon="0.07806">
        <ele>154.1</ele>
        <time>2020-05-30T17:24:53Z</time>
      </trkpt>
      <trkpt lat="46.52062" lon="0.07798">
        <ele>154.1</ele>
        <time>2020-05-30T17:24:54Z</time>
      </trkpt>
      <trkpt lat="46.5206" lon="0.07791">
        <ele>154</ele>
        <time>2020-05-30T17:24:55Z</time>
      </trkpt>
      <trkpt lat="46.52059" lon="0.07783">
        <ele>154</ele>
        <time>2020-05-30T17:24:56Z</time>
      </trkpt>
      <trkpt lat="46.52057" lon="0.07776">
        <ele>154</ele>
        <time>2020-05-30T17:24:57Z</time>
      </trkpt>
      <trkpt lat="46.52056" lon="0.07768">
        <ele>153.9</ele>
        <time>2020-05-30T17:24:58Z</time>
      </trkpt>
      <trkpt lat="46.52055" lon="0.0776">
        <ele>153.9</ele>
        <time>2020-05-30T17:24:59Z</time>
      </trkpt>
      <trkpt lat="46.52053" lon="0.07751">
        <ele>153.9</ele>
        <time>2020-05-30T17:25:00Z</time>
      </trkpt>
      <trkpt lat="46.5205" lon="0.07743">
        <ele>153.9</ele>
        <time>2020-05-30T17:25:01Z</time>
      </trkpt>
      <trkpt lat="46.52047" lon="0.07735">
        <ele>153.9</ele>
        <time>2020-05-30T17:25:02Z</time>
      </trkpt>
      <trkpt lat="46.52045" lon="0.07728">
        <ele>153.9</ele>
        <time>2020-05-30T17:25:03Z</time>
      </trkpt>
      <trkpt lat="46.52043" lon="0.07719">
        <ele>153.9</ele>
        <time>2020-05-30T17:25:04Z</time>
      </trkpt>
      <trkpt lat="46.52041" lon="0.07711">
        <ele>153.9</ele>
        <time>2020-05-30T17:25:05Z</time>
      </trkpt>
      <trkpt lat="46.52039" lon="0.07703">
        <ele>153.9</ele>
        <time>2020-05-30T17:25:06Z</time>
      </trkpt>
      <trkpt lat="46.52037" lon="0.07696">
        <ele>153.9</ele>
        <time>2020-05-30T17:25:07Z</time>
      </trkpt>
      <trkpt lat="46.52035" lon="0.07691">
        <ele>153.8</ele>
        <time>2020-05-30T17:25:08Z</time>
      </trkpt>
      <trkpt lat="46.52032" lon="0.07684">
        <ele>153.8</ele>
        <time>2020-05-30T17:25:09Z</time>
      </trkpt>
      <trkpt lat="46.5203" lon="0.07678">
        <ele>153.7</ele>
        <time>2020-05-30T17:25:10Z</time>
      </trkpt>
      <trkpt lat="46.52028" lon="0.07673">
        <ele>153.7</ele>
        <time>2020-05-30T17:25:11Z</time>
      </trkpt>
      <trkpt lat="46.52026" lon="0.07665">
        <ele>153.6</ele>
        <time>2020-05-30T17:25:12Z</time>
      </trkpt>
      <trkpt lat="46.52025" lon="0.0766">
        <ele>153.6</ele>
        <time>2020-05-30T17:25:13Z</time>
      </trkpt>
      <trkpt lat="46.52023" lon="0.07651">
        <ele>153.5</ele>
        <time>2020-05-30T17:25:14Z</time>
      </trkpt>
      <trkpt lat="46.52022" lon="0.07643">
        <ele>153.5</ele>
        <time>2020-05-30T17:25:15Z</time>
      </trkpt>
      <trkpt lat="46.52019" lon="0.07634">
        <ele>153.4</ele>
        <time>2020-05-30T17:25:16Z</time>
      </trkpt>
      <trkpt lat="46.52017" lon="0.07625">
        <ele>153.3</ele>
        <time>2020-05-30T17:25:17Z</time>
      </trkpt>
      <trkpt lat="46.52015" lon="0.07618">
        <ele>153.3</ele>
        <time>2020-05-30T17:25:18Z</time>
      </trkpt>
      <trkpt lat="46.52013" lon="0.07607">
        <ele>153.3</ele>
        <time>2020-05-30T17:25:19Z</time>
      </trkpt>
      <trkpt lat="46.52011" lon="0.07598">
        <ele>153.2</ele>
        <time>2020-05-30T17:25:20Z</time>
      </trkpt>
      <trkpt lat="46.52008" lon="0.0759">
        <ele>153.2</ele>
        <time>2020-05-30T17:25:21Z</time>
      </trkpt>
      <trkpt lat="46.52006" lon="0.07583">
        <ele>153.1</ele>
        <time>2020-05-30T17:25:22Z</time>
      </trkpt>
      <trkpt lat="46.52004" lon="0.07575">
        <ele>153.1</ele>
        <time>2020-05-30T17:25:23Z</time>
      </trkpt>
      <trkpt lat="46.52002" lon="0.07567">
        <ele>153.1</ele>
        <time>2020-05-30T17:25:24Z</time>
      </trkpt>
      <trkpt lat="46.52001" lon="0.07559">
        <ele>153.1</ele>
        <time>2020-05-30T17:25:25Z</time>
      </trkpt>
      <trkpt lat="46.51999" lon="0.07551">
        <ele>153.1</ele>
        <time>2020-05-30T17:25:26Z</time>
      </trkpt>
      <trkpt lat="46.51997" lon="0.07542">
        <ele>153</ele>
        <time>2020-05-30T17:25:27Z</time>
      </trkpt>
      <trkpt lat="46.51995" lon="0.07532">
        <ele>153.1</ele>
        <time>2020-05-30T17:25:28Z</time>
      </trkpt>
      <trkpt lat="46.51992" lon="0.07524">
        <ele>153.1</ele>
        <time>2020-05-30T17:25:29Z</time>
      </trkpt>
      <trkpt lat="46.5199" lon="0.07516">
        <ele>153.1</ele>
        <time>2020-05-30T17:25:30Z</time>
      </trkpt>
      <trkpt lat="46.51988" lon="0.07507">
        <ele>153.1</ele>
        <time>2020-05-30T17:25:31Z</time>
      </trkpt>
      <trkpt lat="46.51985" lon="0.07497">
        <ele>153.1</ele>
        <time>2020-05-30T17:25:32Z</time>
      </trkpt>
      <trkpt lat="46.51982" lon="0.07493">
        <ele>153.1</ele>
        <time>2020-05-30T17:25:33Z</time>
      </trkpt>
      <trkpt lat="46.51979" lon="0.07486">
        <ele>153.1</ele>
        <time>2020-05-30T17:25:34Z</time>
      </trkpt>
      <trkpt lat="46.51976" lon="0.07479">
        <ele>153</ele>
        <time>2020-05-30T17:25:35Z</time>
      </trkpt>
      <trkpt lat="46.51973" lon="0.07473">
        <ele>153</ele>
        <time>2020-05-30T17:25:36Z</time>
      </trkpt>
      <trkpt lat="46.5197" lon="0.07466">
        <ele>153</ele>
        <time>2020-05-30T17:25:37Z</time>
      </trkpt>
      <trkpt lat="46.51968" lon="0.07459">
        <ele>152.9</ele>
        <time>2020-05-30T17:25:38Z</time>
      </trkpt>
      <trkpt lat="46.51966" lon="0.07454">
        <ele>152.9</ele>
        <time>2020-05-30T17:25:39Z</time>
      </trkpt>
      <trkpt lat="46.51963" lon="0.07448">
        <ele>152.8</ele>
        <time>2020-05-30T17:25:40Z</time>
      </trkpt>
      <trkpt lat="46.51961" lon="0.07441">
        <ele>152.7</ele>
        <time>2020-05-30T17:25:41Z</time>
      </trkpt>
      <trkpt lat="46.51958" lon="0.07434">
        <ele>152.6</ele>
        <time>2020-05-30T17:25:42Z</time>
      </trkpt>
      <trkpt lat="46.51956" lon="0.07425">
        <ele>152.4</ele>
        <time>2020-05-30T17:25:43Z</time>
      </trkpt>
      <trkpt lat="46.51953" lon="0.07419">
        <ele>152.3</ele>
        <time>2020-05-30T17:25:44Z</time>
      </trkpt>
      <trkpt lat="46.5195" lon="0.07412">
        <ele>152.3</ele>
        <time>2020-05-30T17:25:45Z</time>
      </trkpt>
      <trkpt lat="46.51947" lon="0.07404">
        <ele>152.2</ele>
        <time>2020-05-30T17:25:46Z</time>
      </trkpt>
      <trkpt lat="46.51945" lon="0.07396">
        <ele>152.2</ele>
        <time>2020-05-30T17:25:47Z</time>
      </trkpt>
      <trkpt lat="46.51941" lon="0.07388">
        <ele>152.2</ele>
        <time>2020-05-30T17:25:48Z</time>
      </trkpt>
      <trkpt lat="46.51939" lon="0.0738">
        <ele>152.2</ele>
        <time>2020-05-30T17:25:49Z</time>
      </trkpt>
      <trkpt lat="46.51935" lon="0.07373">
        <ele>152.2</ele>
        <time>2020-05-30T17:25:50Z</time>
      </trkpt>
      <trkpt lat="46.51933" lon="0.07365">
        <ele>152.2</ele>
        <time>2020-05-30T17:25:51Z</time>
      </trkpt>
      <trkpt lat="46.51931" lon="0.0736">
        <ele>152.2</ele>
        <time>2020-05-30T17:25:52Z</time>
      </trkpt>
      <trkpt lat="46.51928" lon="0.07354">
        <ele>152.1</ele>
        <time>2020-05-30T17:25:53Z</time>
      </trkpt>
      <trkpt lat="46.51926" lon="0.07347">
        <ele>152.1</ele>
        <time>2020-05-30T17:25:54Z</time>
      </trkpt>
      <trkpt lat="46.51923" lon="0.07338">
        <ele>152.1</ele>
        <time>2020-05-30T17:25:55Z</time>
      </trkpt>
      <trkpt lat="46.5192" lon="0.0733">
        <ele>152.1</ele>
        <time>2020-05-30T17:25:56Z</time>
      </trkpt>
      <trkpt lat="46.51917" lon="0.07322">
        <ele>152.1</ele>
        <time>2020-05-30T17:25:57Z</time>
      </trkpt>
      <trkpt lat="46.51914" lon="0.07315">
        <ele>152.1</ele>
        <time>2020-05-30T17:25:58Z</time>
      </trkpt>
      <trkpt lat="46.51912" lon="0.07306">
        <ele>152.1</ele>
        <time>2020-05-30T17:25:59Z</time>
      </trkpt>
      <trkpt lat="46.51909" lon="0.07299">
        <ele>152.1</ele>
        <time>2020-05-30T17:26:00Z</time>
      </trkpt>
      <trkpt lat="46.51906" lon="0.07295">
        <ele>152.1</ele>
        <time>2020-05-30T17:26:01Z</time>
      </trkpt>
      <trkpt lat="46.51904" lon="0.07288">
        <ele>152.1</ele>
        <time>2020-05-30T17:26:02Z</time>
      </trkpt>
      <trkpt lat="46.51901" lon="0.07281">
        <ele>152.1</ele>
        <time>2020-05-30T17:26:03Z</time>
      </trkpt>
      <trkpt lat="46.51897" lon="0.07273">
        <ele>152.1</ele>
        <time>2020-05-30T17:26:04Z</time>
      </trkpt>
      <trkpt lat="46.51893" lon="0.07265">
        <ele>152.1</ele>
        <time>2020-05-30T17:26:05Z</time>
      </trkpt>
      <trkpt lat="46.5189" lon="0.07258">
        <ele>152.1</ele>
        <time>2020-05-30T17:26:06Z</time>
      </trkpt>
      <trkpt lat="46.51887" lon="0.07251">
        <ele>152.2</ele>
        <time>2020-05-30T17:26:07Z</time>
      </trkpt>
      <trkpt lat="46.51884" lon="0.07242">
        <ele>152.2</ele>
        <time>2020-05-30T17:26:08Z</time>
      </trkpt>
      <trkpt lat="46.51882" lon="0.07236">
        <ele>152.2</ele>
        <time>2020-05-30T17:26:09Z</time>
      </trkpt>
      <trkpt lat="46.51879" lon="0.07228">
        <ele>152.3</ele>
        <time>2020-05-30T17:26:10Z</time>
      </trkpt>
      <trkpt lat="46.51877" lon="0.07221">
        <ele>152.3</ele>
        <time>2020-05-30T17:26:11Z</time>
      </trkpt>
      <trkpt lat="46.51873" lon="0.07215">
        <ele>152.3</ele>
        <time>2020-05-30T17:26:12Z</time>
      </trkpt>
      <trkpt lat="46.5187" lon="0.07208">
        <ele>152.4</ele>
        <time>2020-05-30T17:26:13Z</time>
      </trkpt>
      <trkpt lat="46.51868" lon="0.07202">
        <ele>152.4</ele>
        <time>2020-05-30T17:26:14Z</time>
      </trkpt>
      <trkpt lat="46.51865" lon="0.07195">
        <ele>152.5</ele>
        <time>2020-05-30T17:26:15Z</time>
      </trkpt>
      <trkpt lat="46.51862" lon="0.07187">
        <ele>152.5</ele>
        <time>2020-05-30T17:26:16Z</time>
      </trkpt>
      <trkpt lat="46.51859" lon="0.07181">
        <ele>152.5</ele>
        <time>2020-05-30T17:26:17Z</time>
      </trkpt>
      <trkpt lat="46.51858" lon="0.07174">
        <ele>152.5</ele>
        <time>2020-05-30T17:26:18Z</time>
      </trkpt>
      <trkpt lat="46.51856" lon="0.07168">
        <ele>152.6</ele>
        <time>2020-05-30T17:26:19Z</time>
      </trkpt>
      <trkpt lat="46.51853" lon="0.07162">
        <ele>152.6</ele>
        <time>2020-05-30T17:26:20Z</time>
      </trkpt>
      <trkpt lat="46.51851" lon="0.07154">
        <ele>152.6</ele>
        <time>2020-05-30T17:26:21Z</time>
      </trkpt>
      <trkpt lat="46.51848" lon="0.07147">
        <ele>152.7</ele>
        <time>2020-05-30T17:26:22Z</time>
      </trkpt>
      <trkpt lat="46.51846" lon="0.07142">
        <ele>152.7</ele>
        <time>2020-05-30T17:26:23Z</time>
      </trkpt>
      <trkpt lat="46.51843" lon="0.07135">
        <ele>152.7</ele>
        <time>2020-05-30T17:26:24Z</time>
      </trkpt>
      <trkpt lat="46.51839" lon="0.07127">
        <ele>152.8</ele>
        <time>2020-05-30T17:26:25Z</time>
      </trkpt>
      <trkpt lat="46.51836" lon="0.07118">
        <ele>152.8</ele>
        <time>2020-05-30T17:26:26Z</time>
      </trkpt>
      <trkpt lat="46.51833" lon="0.07111">
        <ele>152.8</ele>
        <time>2020-05-30T17:26:27Z</time>
      </trkpt>
      <trkpt lat="46.5183" lon="0.07103">
        <ele>152.9</ele>
        <time>2020-05-30T17:26:28Z</time>
      </trkpt>
      <trkpt lat="46.51827" lon="0.07096">
        <ele>152.9</ele>
        <time>2020-05-30T17:26:29Z</time>
      </trkpt>
      <trkpt lat="46.51824" lon="0.07089">
        <ele>152.9</ele>
        <time>2020-05-30T17:26:30Z</time>
      </trkpt>
      <trkpt lat="46.51822" lon="0.07081">
        <ele>152.9</ele>
        <time>2020-05-30T17:26:31Z</time>
      </trkpt>
      <trkpt lat="46.5182" lon="0.07073">
        <ele>152.9</ele>
        <time>2020-05-30T17:26:32Z</time>
      </trkpt>
      <trkpt lat="46.51817" lon="0.07065">
        <ele>152.9</ele>
        <time>2020-05-30T17:26:33Z</time>
      </trkpt>
      <trkpt lat="46.51814" lon="0.07058">
        <ele>152.9</ele>
        <time>2020-05-30T17:26:34Z</time>
      </trkpt>
      <trkpt lat="46.51812" lon="0.07049">
        <ele>152.9</ele>
        <time>2020-05-30T17:26:35Z</time>
      </trkpt>
      <trkpt lat="46.51809" lon="0.07042">
        <ele>152.9</ele>
        <time>2020-05-30T17:26:36Z</time>
      </trkpt>
      <trkpt lat="46.51806" lon="0.07033">
        <ele>152.9</ele>
        <time>2020-05-30T17:26:37Z</time>
      </trkpt>
      <trkpt lat="46.51804" lon="0.07027">
        <ele>152.9</ele>
        <time>2020-05-30T17:26:38Z</time>
      </trkpt>
      <trkpt lat="46.518" lon="0.07017">
        <ele>152.8</ele>
        <time>2020-05-30T17:26:39Z</time>
      </trkpt>
      <trkpt lat="46.51798" lon="0.0701">
        <ele>152.8</ele>
        <time>2020-05-30T17:26:40Z</time>
      </trkpt>
      <trkpt lat="46.51796" lon="0.07001">
        <ele>152.7</ele>
        <time>2020-05-30T17:26:41Z</time>
      </trkpt>
      <trkpt lat="46.51794" lon="0.06993">
        <ele>152.7</ele>
        <time>2020-05-30T17:26:42Z</time>
      </trkpt>
      <trkpt lat="46.51792" lon="0.06984">
        <ele>152.6</ele>
        <time>2020-05-30T17:26:43Z</time>
      </trkpt>
      <trkpt lat="46.5179" lon="0.06976">
        <ele>152.6</ele>
        <time>2020-05-30T17:26:44Z</time>
      </trkpt>
      <trkpt lat="46.51788" lon="0.06969">
        <ele>152.6</ele>
        <time>2020-05-30T17:26:45Z</time>
      </trkpt>
      <trkpt lat="46.51787" lon="0.06962">
        <ele>152.6</ele>
        <time>2020-05-30T17:26:46Z</time>
      </trkpt>
      <trkpt lat="46.51786" lon="0.06954">
        <ele>152.5</ele>
        <time>2020-05-30T17:26:47Z</time>
      </trkpt>
      <trkpt lat="46.51784" lon="0.06947">
        <ele>152.5</ele>
        <time>2020-05-30T17:26:48Z</time>
      </trkpt>
      <trkpt lat="46.51782" lon="0.06939">
        <ele>152.5</ele>
        <time>2020-05-30T17:26:49Z</time>
      </trkpt>
      <trkpt lat="46.51779" lon="0.0693">
        <ele>152.5</ele>
        <time>2020-05-30T17:26:50Z</time>
      </trkpt>
      <trkpt lat="46.51776" lon="0.0692">
        <ele>152.5</ele>
        <time>2020-05-30T17:26:51Z</time>
      </trkpt>
      <trkpt lat="46.51774" lon="0.06913">
        <ele>152.4</ele>
        <time>2020-05-30T17:26:52Z</time>
      </trkpt>
      <trkpt lat="46.51773" lon="0.06905">
        <ele>152.4</ele>
        <time>2020-05-30T17:26:53Z</time>
      </trkpt>
      <trkpt lat="46.51771" lon="0.06898">
        <ele>152.4</ele>
        <time>2020-05-30T17:26:54Z</time>
      </trkpt>
      <trkpt lat="46.5177" lon="0.06891">
        <ele>152.3</ele>
        <time>2020-05-30T17:26:55Z</time>
      </trkpt>
      <trkpt lat="46.51769" lon="0.06884">
        <ele>152.3</ele>
        <time>2020-05-30T17:26:56Z</time>
      </trkpt>
      <trkpt lat="46.51768" lon="0.06878">
        <ele>152.3</ele>
        <time>2020-05-30T17:26:57Z</time>
      </trkpt>
      <trkpt lat="46.51765" lon="0.06871">
        <ele>152.3</ele>
        <time>2020-05-30T17:26:58Z</time>
      </trkpt>
      <trkpt lat="46.51764" lon="0.06864">
        <ele>152.3</ele>
        <time>2020-05-30T17:26:59Z</time>
      </trkpt>
      <trkpt lat="46.51763" lon="0.06856">
        <ele>152.2</ele>
        <time>2020-05-30T17:27:00Z</time>
      </trkpt>
      <trkpt lat="46.51762" lon="0.06849">
        <ele>152.2</ele>
        <time>2020-05-30T17:27:01Z</time>
      </trkpt>
      <trkpt lat="46.51759" lon="0.06841">
        <ele>152.2</ele>
        <time>2020-05-30T17:27:02Z</time>
      </trkpt>
      <trkpt lat="46.51758" lon="0.06833">
        <ele>152.2</ele>
        <time>2020-05-30T17:27:03Z</time>
      </trkpt>
      <trkpt lat="46.51756" lon="0.06826">
        <ele>152.2</ele>
        <time>2020-05-30T17:27:04Z</time>
      </trkpt>
      <trkpt lat="46.51755" lon="0.06819">
        <ele>152.3</ele>
        <time>2020-05-30T17:27:05Z</time>
      </trkpt>
      <trkpt lat="46.51754" lon="0.06813">
        <ele>152.3</ele>
        <time>2020-05-30T17:27:06Z</time>
      </trkpt>
      <trkpt lat="46.51752" lon="0.06806">
        <ele>152.3</ele>
        <time>2020-05-30T17:27:07Z</time>
      </trkpt>
      <trkpt lat="46.5175" lon="0.06799">
        <ele>152.4</ele>
        <time>2020-05-30T17:27:08Z</time>
      </trkpt>
      <trkpt lat="46.51747" lon="0.0679">
        <ele>152.4</ele>
        <time>2020-05-30T17:27:09Z</time>
      </trkpt>
      <trkpt lat="46.51746" lon="0.06782">
        <ele>152.5</ele>
        <time>2020-05-30T17:27:10Z</time>
      </trkpt>
      <trkpt lat="46.51744" lon="0.06774">
        <ele>152.5</ele>
        <time>2020-05-30T17:27:11Z</time>
      </trkpt>
      <trkpt lat="46.51742" lon="0.06767">
        <ele>152.6</ele>
        <time>2020-05-30T17:27:12Z</time>
      </trkpt>
      <trkpt lat="46.51742" lon="0.06763">
        <ele>152.6</ele>
        <time>2020-05-30T17:27:13Z</time>
      </trkpt>
      <trkpt lat="46.5174" lon="0.06755">
        <ele>152.7</ele>
        <time>2020-05-30T17:27:14Z</time>
      </trkpt>
      <trkpt lat="46.51738" lon="0.06748">
        <ele>152.7</ele>
        <time>2020-05-30T17:27:15Z</time>
      </trkpt>
      <trkpt lat="46.51737" lon="0.06741">
        <ele>152.8</ele>
        <time>2020-05-30T17:27:16Z</time>
      </trkpt>
      <trkpt lat="46.51735" lon="0.06735">
        <ele>152.8</ele>
        <time>2020-05-30T17:27:17Z</time>
      </trkpt>
      <trkpt lat="46.51733" lon="0.06727">
        <ele>152.8</ele>
        <time>2020-05-30T17:27:18Z</time>
      </trkpt>
      <trkpt lat="46.51731" lon="0.06718">
        <ele>152.9</ele>
        <time>2020-05-30T17:27:19Z</time>
      </trkpt>
      <trkpt lat="46.51729" lon="0.06711">
        <ele>152.9</ele>
        <time>2020-05-30T17:27:20Z</time>
      </trkpt>
      <trkpt lat="46.51727" lon="0.06703">
        <ele>153</ele>
        <time>2020-05-30T17:27:21Z</time>
      </trkpt>
      <trkpt lat="46.51726" lon="0.06696">
        <ele>153</ele>
        <time>2020-05-30T17:27:22Z</time>
      </trkpt>
      <trkpt lat="46.51725" lon="0.0669">
        <ele>153</ele>
        <time>2020-05-30T17:27:23Z</time>
      </trkpt>
      <trkpt lat="46.51723" lon="0.06684">
        <ele>153.1</ele>
        <time>2020-05-30T17:27:24Z</time>
      </trkpt>
      <trkpt lat="46.51721" lon="0.06676">
        <ele>153.1</ele>
        <time>2020-05-30T17:27:25Z</time>
      </trkpt>
      <trkpt lat="46.51719" lon="0.06667">
        <ele>153.2</ele>
        <time>2020-05-30T17:27:26Z</time>
      </trkpt>
      <trkpt lat="46.51719" lon="0.06661">
        <ele>153.2</ele>
        <time>2020-05-30T17:27:27Z</time>
      </trkpt>
      <trkpt lat="46.51717" lon="0.06655">
        <ele>153.2</ele>
        <time>2020-05-30T17:27:28Z</time>
      </trkpt>
      <trkpt lat="46.51716" lon="0.06648">
        <ele>153.3</ele>
        <time>2020-05-30T17:27:29Z</time>
      </trkpt>
      <trkpt lat="46.51713" lon="0.0664">
        <ele>153.3</ele>
        <time>2020-05-30T17:27:30Z</time>
      </trkpt>
      <trkpt lat="46.51712" lon="0.06633">
        <ele>153.3</ele>
        <time>2020-05-30T17:27:31Z</time>
      </trkpt>
      <trkpt lat="46.5171" lon="0.06625">
        <ele>153.4</ele>
        <time>2020-05-30T17:27:32Z</time>
      </trkpt>
      <trkpt lat="46.51709" lon="0.06619">
        <ele>153.4</ele>
        <time>2020-05-30T17:27:33Z</time>
      </trkpt>
      <trkpt lat="46.51707" lon="0.06613">
        <ele>153.5</ele>
        <time>2020-05-30T17:27:34Z</time>
      </trkpt>
      <trkpt lat="46.51705" lon="0.06607">
        <ele>153.5</ele>
        <time>2020-05-30T17:27:35Z</time>
      </trkpt>
      <trkpt lat="46.51704" lon="0.06599">
        <ele>153.6</ele>
        <time>2020-05-30T17:27:36Z</time>
      </trkpt>
      <trkpt lat="46.51702" lon="0.06592">
        <ele>153.7</ele>
        <time>2020-05-30T17:27:37Z</time>
      </trkpt>
      <trkpt lat="46.517" lon="0.06585">
        <ele>153.7</ele>
        <time>2020-05-30T17:27:38Z</time>
      </trkpt>
      <trkpt lat="46.51699" lon="0.06579">
        <ele>153.8</ele>
        <time>2020-05-30T17:27:39Z</time>
      </trkpt>
      <trkpt lat="46.51698" lon="0.06573">
        <ele>153.8</ele>
        <time>2020-05-30T17:27:40Z</time>
      </trkpt>
      <trkpt lat="46.51696" lon="0.06565">
        <ele>153.9</ele>
        <time>2020-05-30T17:27:41Z</time>
      </trkpt>
      <trkpt lat="46.51694" lon="0.06559">
        <ele>153.9</ele>
        <time>2020-05-30T17:27:42Z</time>
      </trkpt>
      <trkpt lat="46.51692" lon="0.06553">
        <ele>154</ele>
        <time>2020-05-30T17:27:43Z</time>
      </trkpt>
      <trkpt lat="46.51691" lon="0.06545">
        <ele>154</ele>
        <time>2020-05-30T17:27:44Z</time>
      </trkpt>
      <trkpt lat="46.5169" lon="0.06538">
        <ele>154</ele>
        <time>2020-05-30T17:27:45Z</time>
      </trkpt>
      <trkpt lat="46.51688" lon="0.0653">
        <ele>154.1</ele>
        <time>2020-05-30T17:27:46Z</time>
      </trkpt>
      <trkpt lat="46.51687" lon="0.06523">
        <ele>154.1</ele>
        <time>2020-05-30T17:27:47Z</time>
      </trkpt>
      <trkpt lat="46.51685" lon="0.06516">
        <ele>154.1</ele>
        <time>2020-05-30T17:27:48Z</time>
      </trkpt>
      <trkpt lat="46.51684" lon="0.06511">
        <ele>154.2</ele>
        <time>2020-05-30T17:27:49Z</time>
      </trkpt>
      <trkpt lat="46.51683" lon="0.06505">
        <ele>154.2</ele>
        <time>2020-05-30T17:27:50Z</time>
      </trkpt>
      <trkpt lat="46.51682" lon="0.06498">
        <ele>154.2</ele>
        <time>2020-05-30T17:27:51Z</time>
      </trkpt>
      <trkpt lat="46.51681" lon="0.06492">
        <ele>154.2</ele>
        <time>2020-05-30T17:27:52Z</time>
      </trkpt>
      <trkpt lat="46.51679" lon="0.06485">
        <ele>154.2</ele>
        <time>2020-05-30T17:27:53Z</time>
      </trkpt>
      <trkpt lat="46.51677" lon="0.06478">
        <ele>154.2</ele>
        <time>2020-05-30T17:27:54Z</time>
      </trkpt>
      <trkpt lat="46.51675" lon="0.06471">
        <ele>154.2</ele>
        <time>2020-05-30T17:27:55Z</time>
      </trkpt>
      <trkpt lat="46.51674" lon="0.06464">
        <ele>154.3</ele>
        <time>2020-05-30T17:27:56Z</time>
      </trkpt>
      <trkpt lat="46.51673" lon="0.06457">
        <ele>154.3</ele>
        <time>2020-05-30T17:27:57Z</time>
      </trkpt>
      <trkpt lat="46.51671" lon="0.06449">
        <ele>154.3</ele>
        <time>2020-05-30T17:27:58Z</time>
      </trkpt>
      <trkpt lat="46.5167" lon="0.06441">
        <ele>154.4</ele>
        <time>2020-05-30T17:27:59Z</time>
      </trkpt>
      <trkpt lat="46.51668" lon="0.06432">
        <ele>154.5</ele>
        <time>2020-05-30T17:28:00Z</time>
      </trkpt>
      <trkpt lat="46.51667" lon="0.06424">
        <ele>154.5</ele>
        <time>2020-05-30T17:28:01Z</time>
      </trkpt>
      <trkpt lat="46.51666" lon="0.06415">
        <ele>154.6</ele>
        <time>2020-05-30T17:28:02Z</time>
      </trkpt>
      <trkpt lat="46.51664" lon="0.06406">
        <ele>154.6</ele>
        <time>2020-05-30T17:28:03Z</time>
      </trkpt>
      <trkpt lat="46.51663" lon="0.06398">
        <ele>154.6</ele>
        <time>2020-05-30T17:28:04Z</time>
      </trkpt>
      <trkpt lat="46.51662" lon="0.06391">
        <ele>154.7</ele>
        <time>2020-05-30T17:28:05Z</time>
      </trkpt>
      <trkpt lat="46.51662" lon="0.06384">
        <ele>154.7</ele>
        <time>2020-05-30T17:28:06Z</time>
      </trkpt>
      <trkpt lat="46.51661" lon="0.06377">
        <ele>154.7</ele>
        <time>2020-05-30T17:28:07Z</time>
      </trkpt>
      <trkpt lat="46.5166" lon="0.06369">
        <ele>154.7</ele>
        <time>2020-05-30T17:28:08Z</time>
      </trkpt>
      <trkpt lat="46.51658" lon="0.0636">
        <ele>154.7</ele>
        <time>2020-05-30T17:28:09Z</time>
      </trkpt>
      <trkpt lat="46.51657" lon="0.06352">
        <ele>154.6</ele>
        <time>2020-05-30T17:28:10Z</time>
      </trkpt>
      <trkpt lat="46.51655" lon="0.06344">
        <ele>154.6</ele>
        <time>2020-05-30T17:28:11Z</time>
      </trkpt>
      <trkpt lat="46.51654" lon="0.06339">
        <ele>154.6</ele>
        <time>2020-05-30T17:28:12Z</time>
      </trkpt>
      <trkpt lat="46.51652" lon="0.0633">
        <ele>154.6</ele>
        <time>2020-05-30T17:28:13Z</time>
      </trkpt>
      <trkpt lat="46.51651" lon="0.06324">
        <ele>154.6</ele>
        <time>2020-05-30T17:28:14Z</time>
      </trkpt>
      <trkpt lat="46.51649" lon="0.06316">
        <ele>154.6</ele>
        <time>2020-05-30T17:28:15Z</time>
      </trkpt>
      <trkpt lat="46.51648" lon="0.06309">
        <ele>154.5</ele>
        <time>2020-05-30T17:28:16Z</time>
      </trkpt>
      <trkpt lat="46.51646" lon="0.06299">
        <ele>154.5</ele>
        <time>2020-05-30T17:28:17Z</time>
      </trkpt>
      <trkpt lat="46.51645" lon="0.06292">
        <ele>154.5</ele>
        <time>2020-05-30T17:28:18Z</time>
      </trkpt>
      <trkpt lat="46.51642" lon="0.06284">
        <ele>154.5</ele>
        <time>2020-05-30T17:28:19Z</time>
      </trkpt>
      <trkpt lat="46.51641" lon="0.06278">
        <ele>154.5</ele>
        <time>2020-05-30T17:28:20Z</time>
      </trkpt>
      <trkpt lat="46.51641" lon="0.06272">
        <ele>154.4</ele>
        <time>2020-05-30T17:28:21Z</time>
      </trkpt>
      <trkpt lat="46.5164" lon="0.06266">
        <ele>154.4</ele>
        <time>2020-05-30T17:28:22Z</time>
      </trkpt>
      <trkpt lat="46.5164" lon="0.06261">
        <ele>154.4</ele>
        <time>2020-05-30T17:28:23Z</time>
      </trkpt>
      <trkpt lat="46.51641" lon="0.0626">
        <ele>154.4</ele>
        <time>2020-05-30T17:28:24Z</time>
      </trkpt>
      <trkpt lat="46.51642" lon="0.06258">
        <ele>154.4</ele>
        <time>2020-05-30T17:28:25Z</time>
      </trkpt>
      <trkpt lat="46.51643" lon="0.06256">
        <ele>154.4</ele>
        <time>2020-05-30T17:28:26Z</time>
      </trkpt>
      <trkpt lat="46.51643" lon="0.06256">
        <ele>154.4</ele>
        <time>2020-05-30T17:28:27Z</time>
      </trkpt>
      <trkpt lat="46.51643" lon="0.06257">
        <ele>154.4</ele>
        <time>2020-05-30T17:28:28Z</time>
      </trkpt>
      <trkpt lat="46.51643" lon="0.06258">
        <ele>154.4</ele>
        <time>2020-05-30T17:28:29Z</time>
      </trkpt>
      <trkpt lat="46.51643" lon="0.06258">
        <ele>154.4</ele>
        <time>2020-05-30T17:28:30Z</time>
      </trkpt>
      <trkpt lat="46.51643" lon="0.0626">
        <ele>154.4</ele>
        <time>2020-05-30T17:28:31Z</time>
      </trkpt>
      <trkpt lat="46.51644" lon="0.0626">
        <ele>154.4</ele>
        <time>2020-05-30T17:28:32Z</time>
      </trkpt>
      <trkpt lat="46.51644" lon="0.06262">
        <ele>154.3</ele>
        <time>2020-05-30T17:28:33Z</time>
      </trkpt>
      <trkpt lat="46.51644" lon="0.06262">
        <ele>154.3</ele>
        <time>2020-05-30T17:28:34Z</time>
      </trkpt>
      <trkpt lat="46.51644" lon="0.06263">
        <ele>154.3</ele>
        <time>2020-05-30T17:28:35Z</time>
      </trkpt>
      <trkpt lat="46.51645" lon="0.06263">
        <ele>154.3</ele>
        <time>2020-05-30T17:28:36Z</time>
      </trkpt>
      <trkpt lat="46.51645" lon="0.06263">
        <ele>154.3</ele>
        <time>2020-05-30T17:28:37Z</time>
      </trkpt>
      <trkpt lat="46.51645" lon="0.06263">
        <ele>154.3</ele>
        <time>2020-05-30T17:28:38Z</time>
      </trkpt>
      <trkpt lat="46.51645" lon="0.06263">
        <ele>154.3</ele>
        <time>2020-05-30T17:28:39Z</time>
      </trkpt>
      <trkpt lat="46.51645" lon="0.06264">
        <ele>154.3</ele>
        <time>2020-05-30T17:28:40Z</time>
      </trkpt>
      <trkpt lat="46.51645" lon="0.06263">
        <ele>154.3</ele>
        <time>2020-05-30T17:28:41Z</time>
      </trkpt>
      <trkpt lat="46.51645" lon="0.06262">
        <ele>154.3</ele>
        <time>2020-05-30T17:28:42Z</time>
      </trkpt>
      <trkpt lat="46.51645" lon="0.06262">
        <ele>154.3</ele>
        <time>2020-05-30T17:28:43Z</time>
      </trkpt>
      <trkpt lat="46.51645" lon="0.06262">
        <ele>154.3</ele>
        <time>2020-05-30T17:28:44Z</time>
      </trkpt>
      <trkpt lat="46.51645" lon="0.06262">
        <ele>154.3</ele>
        <time>2020-05-30T17:28:45Z</time>
      </trkpt>
      <trkpt lat="46.51645" lon="0.06262">
        <ele>154.3</ele>
        <time>2020-05-30T17:28:46Z</time>
      </trkpt>
      <trkpt lat="46.51645" lon="0.06263">
        <ele>154.3</ele>
        <time>2020-05-30T17:28:47Z</time>
      </trkpt>
      <trkpt lat="46.51645" lon="0.06263">
        <ele>154.3</ele>
        <time>2020-05-30T17:28:48Z</time>
      </trkpt>
      <trkpt lat="46.51645" lon="0.06263">
        <ele>154.3</ele>
        <time>2020-05-30T17:28:49Z</time>
      </trkpt>
      <trkpt lat="46.51645" lon="0.06264">
        <ele>154.3</ele>
        <time>2020-05-30T17:28:50Z</time>
      </trkpt>
      <trkpt lat="46.51645" lon="0.06265">
        <ele>154.3</ele>
        <time>2020-05-30T17:28:51Z</time>
      </trkpt>
      <trkpt lat="46.51645" lon="0.06266">
        <ele>154.3</ele>
        <time>2020-05-30T17:28:52Z</time>
      </trkpt>
      <trkpt lat="46.51645" lon="0.06264">
        <ele>154.3</ele>
        <time>2020-05-30T17:28:53Z</time>
      </trkpt>
      <trkpt lat="46.51646" lon="0.06264">
        <ele>154.3</ele>
        <time>2020-05-30T17:28:54Z</time>
      </trkpt>
      <trkpt lat="46.51646" lon="0.06264">
        <ele>154.3</ele>
        <time>2020-05-30T17:28:55Z</time>
      </trkpt>
      <trkpt lat="46.51646" lon="0.06264">
        <ele>154.3</ele>
        <time>2020-05-30T17:28:56Z</time>
      </trkpt>
      <trkpt lat="46.51646" lon="0.06263">
        <ele>154.3</ele>
        <time>2020-05-30T17:28:57Z</time>
      </trkpt>
      <trkpt lat="46.51646" lon="0.06263">
        <ele>154.3</ele>
        <time>2020-05-30T17:28:58Z</time>
      </trkpt>
      <trkpt lat="46.51646" lon="0.06262">
        <ele>154.3</ele>
        <time>2020-05-30T17:28:59Z</time>
      </trkpt>
      <trkpt lat="46.51646" lon="0.06261">
        <ele>154.3</ele>
        <time>2020-05-30T17:29:00Z</time>
      </trkpt>
      <trkpt lat="46.51646" lon="0.06262">
        <ele>154.3</ele>
        <time>2020-05-30T17:29:01Z</time>
      </trkpt>
      <trkpt lat="46.51645" lon="0.06262">
        <ele>154.3</ele>
        <time>2020-05-30T17:29:02Z</time>
      </trkpt>
      <trkpt lat="46.51646" lon="0.06261">
        <ele>154.3</ele>
        <time>2020-05-30T17:29:03Z</time>
      </trkpt>
      <trkpt lat="46.51646" lon="0.0626">
        <ele>154.3</ele>
        <time>2020-05-30T17:29:04Z</time>
      </trkpt>
      <trkpt lat="46.51646" lon="0.0626">
        <ele>154.3</ele>
        <time>2020-05-30T17:29:05Z</time>
      </trkpt>
      <trkpt lat="46.51646" lon="0.06261">
        <ele>154.3</ele>
        <time>2020-05-30T17:29:06Z</time>
      </trkpt>
      <trkpt lat="46.51647" lon="0.06261">
        <ele>154.3</ele>
        <time>2020-05-30T17:29:07Z</time>
      </trkpt>
      <trkpt lat="46.51647" lon="0.06262">
        <ele>154.3</ele>
        <time>2020-05-30T17:29:08Z</time>
      </trkpt>
      <trkpt lat="46.51647" lon="0.06261">
        <ele>154.3</ele>
        <time>2020-05-30T17:29:09Z</time>
      </trkpt>
      <trkpt lat="46.51647" lon="0.06261">
        <ele>154.3</ele>
        <time>2020-05-30T17:29:10Z</time>
      </trkpt>
      <trkpt lat="46.51646" lon="0.0626">
        <ele>154.3</ele>
        <time>2020-05-30T17:29:11Z</time>
      </trkpt>
      <trkpt lat="46.51646" lon="0.06261">
        <ele>154.2</ele>
        <time>2020-05-30T17:29:12Z</time>
      </trkpt>
      <trkpt lat="46.51646" lon="0.0626">
        <ele>154.2</ele>
        <time>2020-05-30T17:29:13Z</time>
      </trkpt>
      <trkpt lat="46.51646" lon="0.0626">
        <ele>154.2</ele>
        <time>2020-05-30T17:29:14Z</time>
      </trkpt>
      <trkpt lat="46.51646" lon="0.0626">
        <ele>154.2</ele>
        <time>2020-05-30T17:29:15Z</time>
      </trkpt>
      <trkpt lat="46.51646" lon="0.0626">
        <ele>154.2</ele>
        <time>2020-05-30T17:29:16Z</time>
      </trkpt>
      <trkpt lat="46.51646" lon="0.0626">
        <ele>154.2</ele>
        <time>2020-05-30T17:29:17Z</time>
      </trkpt>
      <trkpt lat="46.51645" lon="0.0626">
        <ele>154.2</ele>
        <time>2020-05-30T17:29:18Z</time>
      </trkpt>
      <trkpt lat="46.51645" lon="0.06261">
        <ele>154.2</ele>
        <time>2020-05-30T17:29:19Z</time>
      </trkpt>
      <trkpt lat="46.51645" lon="0.06262">
        <ele>154.2</ele>
        <time>2020-05-30T17:29:20Z</time>
      </trkpt>
      <trkpt lat="46.51645" lon="0.06262">
        <ele>154.2</ele>
        <time>2020-05-30T17:29:21Z</time>
      </trkpt>
      <trkpt lat="46.51644" lon="0.0626">
        <ele>154.2</ele>
        <time>2020-05-30T17:29:22Z</time>
      </trkpt>
      <trkpt lat="46.51644" lon="0.06261">
        <ele>154.2</ele>
        <time>2020-05-30T17:29:23Z</time>
      </trkpt>
      <trkpt lat="46.51643" lon="0.06261">
        <ele>154.2</ele>
        <time>2020-05-30T17:29:24Z</time>
      </trkpt>
      <trkpt lat="46.51643" lon="0.0626">
        <ele>154.2</ele>
        <time>2020-05-30T17:29:25Z</time>
      </trkpt>
      <trkpt lat="46.51643" lon="0.06261">
        <ele>154.2</ele>
        <time>2020-05-30T17:29:26Z</time>
      </trkpt>
      <trkpt lat="46.51643" lon="0.06261">
        <ele>154.2</ele>
        <time>2020-05-30T17:29:27Z</time>
      </trkpt>
      <trkpt lat="46.51643" lon="0.06261">
        <ele>154.2</ele>
        <time>2020-05-30T17:29:28Z</time>
      </trkpt>
      <trkpt lat="46.51642" lon="0.06261">
        <ele>154.2</ele>
        <time>2020-05-30T17:29:29Z</time>
      </trkpt>
      <trkpt lat="46.51642" lon="0.06262">
        <ele>154.2</ele>
        <time>2020-05-30T17:29:30Z</time>
      </trkpt>
      <trkpt lat="46.51642" lon="0.06261">
        <ele>154.2</ele>
        <time>2020-05-30T17:29:31Z</time>
      </trkpt>
      <trkpt lat="46.51642" lon="0.06261">
        <ele>154.2</ele>
        <time>2020-05-30T17:29:32Z</time>
      </trkpt>
      <trkpt lat="46.51642" lon="0.0626">
        <ele>154.2</ele>
        <time>2020-05-30T17:29:33Z</time>
      </trkpt>
      <trkpt lat="46.51642" lon="0.0626">
        <ele>154.2</ele>
        <time>2020-05-30T17:29:34Z</time>
      </trkpt>
      <trkpt lat="46.51642" lon="0.0626">
        <ele>154.2</ele>
        <time>2020-05-30T17:29:35Z</time>
      </trkpt>
      <trkpt lat="46.51642" lon="0.06261">
        <ele>154.2</ele>
        <time>2020-05-30T17:29:36Z</time>
      </trkpt>
      <trkpt lat="46.51642" lon="0.06261">
        <ele>154.2</ele>
        <time>2020-05-30T17:29:37Z</time>
      </trkpt>
      <trkpt lat="46.51642" lon="0.0626">
        <ele>154.2</ele>
        <time>2020-05-30T17:29:38Z</time>
      </trkpt>
      <trkpt lat="46.51642" lon="0.06261">
        <ele>154.2</ele>
        <time>2020-05-30T17:29:39Z</time>
      </trkpt>
      <trkpt lat="46.51642" lon="0.06261">
        <ele>154.2</ele>
        <time>2020-05-30T17:29:40Z</time>
      </trkpt>
      <trkpt lat="46.51642" lon="0.0626">
        <ele>154.2</ele>
        <time>2020-05-30T17:29:41Z</time>
      </trkpt>
      <trkpt lat="46.51642" lon="0.06261">
        <ele>154.2</ele>
        <time>2020-05-30T17:29:42Z</time>
      </trkpt>
      <trkpt lat="46.51642" lon="0.06262">
        <ele>154.1</ele>
        <time>2020-05-30T17:29:43Z</time>
      </trkpt>
      <trkpt lat="46.51642" lon="0.06261">
        <ele>154.1</ele>
        <time>2020-05-30T17:29:44Z</time>
      </trkpt>
      <trkpt lat="46.51642" lon="0.0626">
        <ele>154.1</ele>
        <time>2020-05-30T17:29:45Z</time>
      </trkpt>
      <trkpt lat="46.51641" lon="0.0626">
        <ele>154.1</ele>
        <time>2020-05-30T17:29:46Z</time>
      </trkpt>
      <trkpt lat="46.51642" lon="0.06259">
        <ele>154.1</ele>
        <time>2020-05-30T17:29:47Z</time>
      </trkpt>
      <trkpt lat="46.51642" lon="0.06259">
        <ele>154.1</ele>
        <time>2020-05-30T17:29:48Z</time>
      </trkpt>
      <trkpt lat="46.51642" lon="0.06257">
        <ele>154.1</ele>
        <time>2020-05-30T17:29:49Z</time>
      </trkpt>
      <trkpt lat="46.51642" lon="0.06257">
        <ele>154.1</ele>
        <time>2020-05-30T17:29:50Z</time>
      </trkpt>
      <trkpt lat="46.51641" lon="0.06256">
        <ele>154.1</ele>
        <time>2020-05-30T17:29:51Z</time>
      </trkpt>
      <trkpt lat="46.51641" lon="0.06256">
        <ele>154.1</ele>
        <time>2020-05-30T17:29:52Z</time>
      </trkpt>
      <trkpt lat="46.51641" lon="0.06257">
        <ele>154.1</ele>
        <time>2020-05-30T17:29:53Z</time>
      </trkpt>
      <trkpt lat="46.51641" lon="0.06257">
        <ele>154.1</ele>
        <time>2020-05-30T17:29:54Z</time>
      </trkpt>
      <trkpt lat="46.51641" lon="0.06257">
        <ele>154.1</ele>
        <time>2020-05-30T17:29:55Z</time>
      </trkpt>
      <trkpt lat="46.51641" lon="0.06256">
        <ele>154.1</ele>
        <time>2020-05-30T17:29:56Z</time>
      </trkpt>
      <trkpt lat="46.51641" lon="0.06258">
        <ele>154.1</ele>
        <time>2020-05-30T17:29:57Z</time>
      </trkpt>
      <trkpt lat="46.51641" lon="0.06258">
        <ele>154.1</ele>
        <time>2020-05-30T17:29:58Z</time>
      </trkpt>
      <trkpt lat="46.51641" lon="0.06258">
        <ele>154.1</ele>
        <time>2020-05-30T17:29:59Z</time>
      </trkpt>
      <trkpt lat="46.51641" lon="0.06257">
        <ele>154.1</ele>
        <time>2020-05-30T17:30:00Z</time>
      </trkpt>
      <trkpt lat="46.51641" lon="0.06258">
        <ele>154.1</ele>
        <time>2020-05-30T17:30:01Z</time>
      </trkpt>
      <trkpt lat="46.51641" lon="0.06258">
        <ele>154.1</ele>
        <time>2020-05-30T17:30:02Z</time>
      </trkpt>
      <trkpt lat="46.51642" lon="0.06256">
        <ele>154.1</ele>
        <time>2020-05-30T17:30:03Z</time>
      </trkpt>
      <trkpt lat="46.51642" lon="0.06255">
        <ele>154.1</ele>
        <time>2020-05-30T17:30:04Z</time>
      </trkpt>
      <trkpt lat="46.51641" lon="0.06255">
        <ele>154.1</ele>
        <time>2020-05-30T17:30:05Z</time>
      </trkpt>
      <trkpt lat="46.51642" lon="0.06255">
        <ele>154.1</ele>
        <time>2020-05-30T17:30:06Z</time>
      </trkpt>
      <trkpt lat="46.51641" lon="0.06254">
        <ele>154.1</ele>
        <time>2020-05-30T17:30:07Z</time>
      </trkpt>
      <trkpt lat="46.51641" lon="0.06254">
        <ele>154.1</ele>
        <time>2020-05-30T17:30:08Z</time>
      </trkpt>
      <trkpt lat="46.51641" lon="0.06254">
        <ele>154.1</ele>
        <time>2020-05-30T17:30:09Z</time>
      </trkpt>
      <trkpt lat="46.51642" lon="0.06254">
        <ele>154.1</ele>
        <time>2020-05-30T17:30:10Z</time>
      </trkpt>
      <trkpt lat="46.51642" lon="0.06255">
        <ele>154.1</ele>
        <time>2020-05-30T17:30:11Z</time>
      </trkpt>
      <trkpt lat="46.51642" lon="0.06255">
        <ele>154.1</ele>
        <time>2020-05-30T17:30:12Z</time>
      </trkpt>
      <trkpt lat="46.51642" lon="0.06256">
        <ele>154.1</ele>
        <time>2020-05-30T17:30:13Z</time>
      </trkpt>
      <trkpt lat="46.51643" lon="0.06256">
        <ele>154.1</ele>
        <time>2020-05-30T17:30:14Z</time>
      </trkpt>
      <trkpt lat="46.51643" lon="0.06256">
        <ele>154.1</ele>
        <time>2020-05-30T17:30:15Z</time>
      </trkpt>
      <trkpt lat="46.51642" lon="0.06256">
        <ele>154</ele>
        <time>2020-05-30T17:30:16Z</time>
      </trkpt>
      <trkpt lat="46.51643" lon="0.06256">
        <ele>154</ele>
        <time>2020-05-30T17:30:17Z</time>
      </trkpt>
      <trkpt lat="46.51643" lon="0.06256">
        <ele>154</ele>
        <time>2020-05-30T17:30:18Z</time>
      </trkpt>
      <trkpt lat="46.51643" lon="0.06255">
        <ele>154</ele>
        <time>2020-05-30T17:30:19Z</time>
      </trkpt>
      <trkpt lat="46.51643" lon="0.06255">
        <ele>154</ele>
        <time>2020-05-30T17:30:20Z</time>
      </trkpt>
      <trkpt lat="46.51643" lon="0.06254">
        <ele>154</ele>
        <time>2020-05-30T17:30:21Z</time>
      </trkpt>
      <trkpt lat="46.51643" lon="0.06255">
        <ele>154</ele>
        <time>2020-05-30T17:30:22Z</time>
      </trkpt>
      <trkpt lat="46.51644" lon="0.06256">
        <ele>154</ele>
        <time>2020-05-30T17:30:23Z</time>
      </trkpt>
      <trkpt lat="46.51643" lon="0.06257">
        <ele>154</ele>
        <time>2020-05-30T17:30:24Z</time>
      </trkpt>
      <trkpt lat="46.51643" lon="0.06256">
        <ele>154</ele>
        <time>2020-05-30T17:30:25Z</time>
      </trkpt>
      <trkpt lat="46.51643" lon="0.06255">
        <ele>154</ele>
        <time>2020-05-30T17:30:26Z</time>
      </trkpt>
      <trkpt lat="46.51643" lon="0.06255">
        <ele>154</ele>
        <time>2020-05-30T17:30:27Z</time>
      </trkpt>
      <trkpt lat="46.51643" lon="0.06255">
        <ele>154</ele>
        <time>2020-05-30T17:30:28Z</time>
      </trkpt>
      <trkpt lat="46.51643" lon="0.06255">
        <ele>154</ele>
        <time>2020-05-30T17:30:29Z</time>
      </trkpt>
      <trkpt lat="46.51643" lon="0.06255">
        <ele>154</ele>
        <time>2020-05-30T17:30:30Z</time>
      </trkpt>
      <trkpt lat="46.51643" lon="0.06255">
        <ele>154</ele>
        <time>2020-05-30T17:30:31Z</time>
      </trkpt>
      <trkpt lat="46.51643" lon="0.06256">
        <ele>154</ele>
        <time>2020-05-30T17:30:32Z</time>
      </trkpt>
      <trkpt lat="46.51643" lon="0.06256">
        <ele>154</ele>
        <time>2020-05-30T17:30:33Z</time>
      </trkpt>
      <trkpt lat="46.51643" lon="0.06256">
        <ele>154</ele>
        <time>2020-05-30T17:30:34Z</time>
      </trkpt>
      <trkpt lat="46.51643" lon="0.06256">
        <ele>154</ele>
        <time>2020-05-30T17:30:35Z</time>
      </trkpt>
      <trkpt lat="46.51642" lon="0.06256">
        <ele>154</ele>
        <time>2020-05-30T17:30:36Z</time>
      </trkpt>
      <trkpt lat="46.51642" lon="0.06257">
        <ele>154</ele>
        <time>2020-05-30T17:30:37Z</time>
      </trkpt>
      <trkpt lat="46.51642" lon="0.06257">
        <ele>154</ele>
        <time>2020-05-30T17:30:38Z</time>
      </trkpt>
      <trkpt lat="46.51642" lon="0.06257">
        <ele>154</ele>
        <time>2020-05-30T17:30:39Z</time>
      </trkpt>
      <trkpt lat="46.51642" lon="0.06258">
        <ele>154</ele>
        <time>2020-05-30T17:30:40Z</time>
      </trkpt>
      <trkpt lat="46.51642" lon="0.06258">
        <ele>154</ele>
        <time>2020-05-30T17:30:41Z</time>
      </trkpt>
      <trkpt lat="46.51642" lon="0.06257">
        <ele>154</ele>
        <time>2020-05-30T17:30:42Z</time>
      </trkpt>
      <trkpt lat="46.51643" lon="0.06257">
        <ele>154</ele>
        <time>2020-05-30T17:30:43Z</time>
      </trkpt>
      <trkpt lat="46.51643" lon="0.06256">
        <ele>154</ele>
        <time>2020-05-30T17:30:44Z</time>
      </trkpt>
      <trkpt lat="46.51643" lon="0.06256">
        <ele>154</ele>
        <time>2020-05-30T17:30:45Z</time>
      </trkpt>
      <trkpt lat="46.51643" lon="0.06256">
        <ele>154</ele>
        <time>2020-05-30T17:30:46Z</time>
      </trkpt>
      <trkpt lat="46.51643" lon="0.06256">
        <ele>154</ele>
        <time>2020-05-30T17:30:47Z</time>
      </trkpt>
      <trkpt lat="46.51644" lon="0.06257">
        <ele>154</ele>
        <time>2020-05-30T17:30:48Z</time>
      </trkpt>
      <trkpt lat="46.51644" lon="0.06258">
        <ele>154</ele>
        <time>2020-05-30T17:30:49Z</time>
      </trkpt>
      <trkpt lat="46.51644" lon="0.06259">
        <ele>154</ele>
        <time>2020-05-30T17:30:50Z</time>
      </trkpt>
      <trkpt lat="46.51644" lon="0.0626">
        <ele>154</ele>
        <time>2020-05-30T17:30:51Z</time>
      </trkpt>
      <trkpt lat="46.51643" lon="0.06259">
        <ele>153.9</ele>
        <time>2020-05-30T17:30:52Z</time>
      </trkpt>
      <trkpt lat="46.51643" lon="0.0626">
        <ele>153.9</ele>
        <time>2020-05-30T17:30:53Z</time>
      </trkpt>
      <trkpt lat="46.51644" lon="0.06261">
        <ele>153.9</ele>
        <time>2020-05-30T17:30:54Z</time>
      </trkpt>
      <trkpt lat="46.51644" lon="0.06261">
        <ele>153.9</ele>
        <time>2020-05-30T17:30:55Z</time>
      </trkpt>
      <trkpt lat="46.51643" lon="0.06259">
        <ele>153.9</ele>
        <time>2020-05-30T17:30:56Z</time>
      </trkpt>
      <trkpt lat="46.51643" lon="0.06259">
        <ele>153.9</ele>
        <time>2020-05-30T17:30:57Z</time>
      </trkpt>
      <trkpt lat="46.51643" lon="0.06259">
        <ele>153.9</ele>
        <time>2020-05-30T17:30:58Z</time>
      </trkpt>
      <trkpt lat="46.51643" lon="0.0626">
        <ele>153.9</ele>
        <time>2020-05-30T17:30:59Z</time>
      </trkpt>
      <trkpt lat="46.51643" lon="0.06261">
        <ele>153.9</ele>
        <time>2020-05-30T17:31:00Z</time>
      </trkpt>
      <trkpt lat="46.51643" lon="0.06261">
        <ele>153.9</ele>
        <time>2020-05-30T17:31:01Z</time>
      </trkpt>
      <trkpt lat="46.51643" lon="0.06261">
        <ele>153.9</ele>
        <time>2020-05-30T17:31:02Z</time>
      </trkpt>
      <trkpt lat="46.51643" lon="0.06262">
        <ele>153.9</ele>
        <time>2020-05-30T17:31:03Z</time>
      </trkpt>
      <trkpt lat="46.51642" lon="0.06262">
        <ele>153.9</ele>
        <time>2020-05-30T17:31:04Z</time>
      </trkpt>
      <trkpt lat="46.51642" lon="0.06262">
        <ele>153.9</ele>
        <time>2020-05-30T17:31:05Z</time>
      </trkpt>
      <trkpt lat="46.51642" lon="0.06262">
        <ele>153.9</ele>
        <time>2020-05-30T17:31:06Z</time>
      </trkpt>
      <trkpt lat="46.51642" lon="0.06263">
        <ele>153.9</ele>
        <time>2020-05-30T17:31:07Z</time>
      </trkpt>
      <trkpt lat="46.51642" lon="0.06264">
        <ele>153.9</ele>
        <time>2020-05-30T17:31:08Z</time>
      </trkpt>
      <trkpt lat="46.51642" lon="0.06265">
        <ele>153.9</ele>
        <time>2020-05-30T17:31:09Z</time>
      </trkpt>
      <trkpt lat="46.51642" lon="0.06264">
        <ele>153.9</ele>
        <time>2020-05-30T17:31:10Z</time>
      </trkpt>
      <trkpt lat="46.51642" lon="0.06264">
        <ele>153.9</ele>
        <time>2020-05-30T17:31:11Z</time>
      </trkpt>
      <trkpt lat="46.51642" lon="0.06262">
        <ele>153.9</ele>
        <time>2020-05-30T17:31:12Z</time>
      </trkpt>
      <trkpt lat="46.51642" lon="0.06262">
        <ele>153.9</ele>
        <time>2020-05-30T17:31:13Z</time>
      </trkpt>
      <trkpt lat="46.51641" lon="0.06262">
        <ele>153.9</ele>
        <time>2020-05-30T17:31:14Z</time>
      </trkpt>
      <trkpt lat="46.51641" lon="0.06262">
        <ele>153.9</ele>
        <time>2020-05-30T17:31:15Z</time>
      </trkpt>
      <trkpt lat="46.51641" lon="0.06263">
        <ele>153.9</ele>
        <time>2020-05-30T17:31:16Z</time>
      </trkpt>
      <trkpt lat="46.51641" lon="0.06263">
        <ele>153.9</ele>
        <time>2020-05-30T17:31:17Z</time>
      </trkpt>
      <trkpt lat="46.51641" lon="0.06264">
        <ele>153.8</ele>
        <time>2020-05-30T17:31:18Z</time>
      </trkpt>
      <trkpt lat="46.51641" lon="0.06264">
        <ele>153.8</ele>
        <time>2020-05-30T17:31:19Z</time>
      </trkpt>
      <trkpt lat="46.51642" lon="0.06264">
        <ele>153.8</ele>
        <time>2020-05-30T17:31:20Z</time>
      </trkpt>
      <trkpt lat="46.51641" lon="0.06264">
        <ele>153.8</ele>
        <time>2020-05-30T17:31:21Z</time>
      </trkpt>
      <trkpt lat="46.51641" lon="0.06263">
        <ele>153.8</ele>
        <time>2020-05-30T17:31:22Z</time>
      </trkpt>
      <trkpt lat="46.51642" lon="0.06265">
        <ele>153.8</ele>
        <time>2020-05-30T17:31:23Z</time>
      </trkpt>
      <trkpt lat="46.51642" lon="0.06266">
        <ele>153.8</ele>
        <time>2020-05-30T17:31:24Z</time>
      </trkpt>
      <trkpt lat="46.51643" lon="0.06268">
        <ele>153.8</ele>
        <time>2020-05-30T17:31:25Z</time>
      </trkpt>
      <trkpt lat="46.51643" lon="0.06267">
        <ele>153.8</ele>
        <time>2020-05-30T17:31:26Z</time>
      </trkpt>
      <trkpt lat="46.51643" lon="0.06267">
        <ele>153.8</ele>
        <time>2020-05-30T17:31:27Z</time>
      </trkpt>
      <trkpt lat="46.51643" lon="0.06267">
        <ele>153.8</ele>
        <time>2020-05-30T17:31:28Z</time>
      </trkpt>
      <trkpt lat="46.51643" lon="0.06267">
        <ele>153.8</ele>
        <time>2020-05-30T17:31:29Z</time>
      </trkpt>
      <trkpt lat="46.51643" lon="0.06267">
        <ele>153.8</ele>
        <time>2020-05-30T17:31:30Z</time>
      </trkpt>
      <trkpt lat="46.51643" lon="0.06268">
        <ele>153.8</ele>
        <time>2020-05-30T17:31:31Z</time>
      </trkpt>
      <trkpt lat="46.51643" lon="0.06268">
        <ele>153.8</ele>
        <time>2020-05-30T17:31:32Z</time>
      </trkpt>
      <trkpt lat="46.51643" lon="0.06267">
        <ele>153.8</ele>
        <time>2020-05-30T17:31:33Z</time>
      </trkpt>
      <trkpt lat="46.51643" lon="0.06267">
        <ele>153.8</ele>
        <time>2020-05-30T17:31:34Z</time>
      </trkpt>
      <trkpt lat="46.51644" lon="0.06266">
        <ele>153.8</ele>
        <time>2020-05-30T17:31:35Z</time>
      </trkpt>
      <trkpt lat="46.51644" lon="0.06265">
        <ele>153.8</ele>
        <time>2020-05-30T17:31:36Z</time>
      </trkpt>
      <trkpt lat="46.51644" lon="0.06264">
        <ele>153.8</ele>
        <time>2020-05-30T17:31:37Z</time>
      </trkpt>
      <trkpt lat="46.51644" lon="0.06264">
        <ele>153.8</ele>
        <time>2020-05-30T17:31:38Z</time>
      </trkpt>
      <trkpt lat="46.51644" lon="0.06264">
        <ele>153.8</ele>
        <time>2020-05-30T17:31:39Z</time>
      </trkpt>
      <trkpt lat="46.51643" lon="0.06264">
        <ele>153.8</ele>
        <time>2020-05-30T17:31:40Z</time>
      </trkpt>
      <trkpt lat="46.51643" lon="0.06264">
        <ele>153.8</ele>
        <time>2020-05-30T17:31:41Z</time>
      </trkpt>
      <trkpt lat="46.51643" lon="0.06264">
        <ele>153.8</ele>
        <time>2020-05-30T17:31:42Z</time>
      </trkpt>
      <trkpt lat="46.51643" lon="0.06264">
        <ele>153.8</ele>
        <time>2020-05-30T17:31:43Z</time>
      </trkpt>
      <trkpt lat="46.51643" lon="0.06263">
        <ele>153.8</ele>
        <time>2020-05-30T17:31:44Z</time>
      </trkpt>
      <trkpt lat="46.51643" lon="0.06263">
        <ele>153.8</ele>
        <time>2020-05-30T17:31:45Z</time>
      </trkpt>
      <trkpt lat="46.51643" lon="0.06263">
        <ele>153.8</ele>
        <time>2020-05-30T17:31:46Z</time>
      </trkpt>
      <trkpt lat="46.51643" lon="0.06263">
        <ele>153.8</ele>
        <time>2020-05-30T17:31:47Z</time>
      </trkpt>
      <trkpt lat="46.51643" lon="0.06263">
        <ele>153.8</ele>
        <time>2020-05-30T17:31:48Z</time>
      </trkpt>
      <trkpt lat="46.51643" lon="0.06263">
        <ele>153.8</ele>
        <time>2020-05-30T17:31:49Z</time>
      </trkpt>
      <trkpt lat="46.51643" lon="0.06263">
        <ele>153.8</ele>
        <time>2020-05-30T17:31:50Z</time>
      </trkpt>
      <trkpt lat="46.51643" lon="0.06263">
        <ele>153.8</ele>
        <time>2020-05-30T17:31:51Z</time>
      </trkpt>
      <trkpt lat="46.51643" lon="0.06263">
        <ele>153.8</ele>
        <time>2020-05-30T17:31:52Z</time>
      </trkpt>
      <trkpt lat="46.51643" lon="0.06263">
        <ele>153.8</ele>
        <time>2020-05-30T17:31:53Z</time>
      </trkpt>
      <trkpt lat="46.51643" lon="0.06263">
        <ele>153.8</ele>
        <time>2020-05-30T17:31:54Z</time>
      </trkpt>
      <trkpt lat="46.51643" lon="0.06263">
        <ele>153.8</ele>
        <time>2020-05-30T17:31:55Z</time>
      </trkpt>
      <trkpt lat="46.51643" lon="0.06263">
        <ele>153.8</ele>
        <time>2020-05-30T17:31:56Z</time>
      </trkpt>
      <trkpt lat="46.51643" lon="0.06263">
        <ele>153.8</ele>
        <time>2020-05-30T17:31:57Z</time>
      </trkpt>
      <trkpt lat="46.51643" lon="0.06263">
        <ele>153.8</ele>
        <time>2020-05-30T17:31:58Z</time>
      </trkpt>
      <trkpt lat="46.51643" lon="0.06262">
        <ele>153.8</ele>
        <time>2020-05-30T17:31:59Z</time>
      </trkpt>
      <trkpt lat="46.51643" lon="0.06262">
        <ele>153.8</ele>
        <time>2020-05-30T17:32:00Z</time>
      </trkpt>
      <trkpt lat="46.51643" lon="0.06262">
        <ele>153.8</ele>
        <time>2020-05-30T17:32:01Z</time>
      </trkpt>
      <trkpt lat="46.51643" lon="0.06262">
        <ele>153.8</ele>
        <time>2020-05-30T17:32:02Z</time>
      </trkpt>
      <trkpt lat="46.51643" lon="0.06262">
        <ele>153.8</ele>
        <time>2020-05-30T17:32:03Z</time>
      </trkpt>
      <trkpt lat="46.51643" lon="0.06262">
        <ele>153.8</ele>
        <time>2020-05-30T17:32:04Z</time>
      </trkpt>
      <trkpt lat="46.51643" lon="0.06262">
        <ele>153.8</ele>
        <time>2020-05-30T17:32:05Z</time>
      </trkpt>
      <trkpt lat="46.51643" lon="0.06262">
        <ele>153.8</ele>
        <time>2020-05-30T17:32:06Z</time>
      </trkpt>
      <trkpt lat="46.51643" lon="0.06262">
        <ele>153.8</ele>
        <time>2020-05-30T17:32:07Z</time>
      </trkpt>
      <trkpt lat="46.51643" lon="0.06262">
        <ele>153.8</ele>
        <time>2020-05-30T17:32:08Z</time>
      </trkpt>
      <trkpt lat="46.51643" lon="0.06262">
        <ele>153.8</ele>
        <time>2020-05-30T17:32:09Z</time>
      </trkpt>
      <trkpt lat="46.51643" lon="0.06262">
        <ele>153.8</ele>
        <time>2020-05-30T17:32:10Z</time>
      </trkpt>
      <trkpt lat="46.51643" lon="0.06262">
        <ele>153.8</ele>
        <time>2020-05-30T17:32:11Z</time>
      </trkpt>
      <trkpt lat="46.51643" lon="0.06262">
        <ele>153.8</ele>
        <time>2020-05-30T17:32:12Z</time>
      </trkpt>
      <trkpt lat="46.51643" lon="0.06263">
        <ele>153.8</ele>
        <time>2020-05-30T17:32:13Z</time>
      </trkpt>
      <trkpt lat="46.51643" lon="0.06262">
        <ele>153.8</ele>
        <time>2020-05-30T17:32:14Z</time>
      </trkpt>
      <trkpt lat="46.51643" lon="0.06262">
        <ele>153.8</ele>
        <time>2020-05-30T17:32:15Z</time>
      </trkpt>
      <trkpt lat="46.51643" lon="0.06262">
        <ele>153.8</ele>
        <time>2020-05-30T17:32:16Z</time>
      </trkpt>
      <trkpt lat="46.51643" lon="0.06262">
        <ele>153.8</ele>
        <time>2020-05-30T17:32:17Z</time>
      </trkpt>
      <trkpt lat="46.51643" lon="0.06262">
        <ele>153.8</ele>
        <time>2020-05-30T17:32:18Z</time>
      </trkpt>
      <trkpt lat="46.51644" lon="0.06262">
        <ele>153.8</ele>
        <time>2020-05-30T17:32:19Z</time>
      </trkpt>
      <trkpt lat="46.51644" lon="0.06262">
        <ele>153.8</ele>
        <time>2020-05-30T17:32:20Z</time>
      </trkpt>
      <trkpt lat="46.51644" lon="0.06262">
        <ele>153.8</ele>
        <time>2020-05-30T17:32:21Z</time>
      </trkpt>
      <trkpt lat="46.51644" lon="0.06262">
        <ele>153.8</ele>
        <time>2020-05-30T17:32:22Z</time>
      </trkpt>
      <trkpt lat="46.51644" lon="0.06262">
        <ele>153.8</ele>
        <time>2020-05-30T17:32:23Z</time>
      </trkpt>
      <trkpt lat="46.51644" lon="0.06261">
        <ele>153.8</ele>
        <time>2020-05-30T17:32:24Z</time>
      </trkpt>
      <trkpt lat="46.51644" lon="0.06261">
        <ele>153.8</ele>
        <time>2020-05-30T17:32:25Z</time>
      </trkpt>
      <trkpt lat="46.51644" lon="0.06261">
        <ele>153.8</ele>
        <time>2020-05-30T17:32:26Z</time>
      </trkpt>
      <trkpt lat="46.51644" lon="0.06261">
        <ele>153.8</ele>
        <time>2020-05-30T17:32:27Z</time>
      </trkpt>
      <trkpt lat="46.51644" lon="0.06261">
        <ele>153.8</ele>
        <time>2020-05-30T17:32:28Z</time>
      </trkpt>
      <trkpt lat="46.51644" lon="0.06261">
        <ele>153.8</ele>
        <time>2020-05-30T17:32:29Z</time>
      </trkpt>
      <trkpt lat="46.51644" lon="0.06261">
        <ele>153.8</ele>
        <time>2020-05-30T17:32:30Z</time>
      </trkpt>
      <trkpt lat="46.51644" lon="0.06261">
        <ele>153.8</ele>
        <time>2020-05-30T17:32:31Z</time>
      </trkpt>
      <trkpt lat="46.51644" lon="0.06261">
        <ele>153.7</ele>
        <time>2020-05-30T17:32:32Z</time>
      </trkpt>
      <trkpt lat="46.51643" lon="0.06261">
        <ele>153.7</ele>
        <time>2020-05-30T17:32:33Z</time>
      </trkpt>
      <trkpt lat="46.51642" lon="0.06262">
        <ele>153.7</ele>
        <time>2020-05-30T17:32:34Z</time>
      </trkpt>
      <trkpt lat="46.51642" lon="0.06261">
        <ele>153.7</ele>
        <time>2020-05-30T17:32:35Z</time>
      </trkpt>
      <trkpt lat="46.51642" lon="0.06261">
        <ele>153.7</ele>
        <time>2020-05-30T17:32:36Z</time>
      </trkpt>
      <trkpt lat="46.51642" lon="0.06261">
        <ele>153.7</ele>
        <time>2020-05-30T17:32:37Z</time>
      </trkpt>
      <trkpt lat="46.51642" lon="0.06261">
        <ele>153.7</ele>
        <time>2020-05-30T17:32:38Z</time>
      </trkpt>
      <trkpt lat="46.51642" lon="0.06261">
        <ele>153.7</ele>
        <time>2020-05-30T17:32:39Z</time>
      </trkpt>
      <trkpt lat="46.51642" lon="0.06261">
        <ele>153.7</ele>
        <time>2020-05-30T17:32:40Z</time>
      </trkpt>
      <trkpt lat="46.51642" lon="0.06261">
        <ele>153.7</ele>
        <time>2020-05-30T17:32:41Z</time>
      </trkpt>
      <trkpt lat="46.51642" lon="0.06261">
        <ele>153.7</ele>
        <time>2020-05-30T17:32:42Z</time>
      </trkpt>
      <trkpt lat="46.51642" lon="0.06261">
        <ele>153.7</ele>
        <time>2020-05-30T17:32:43Z</time>
      </trkpt>
      <trkpt lat="46.51642" lon="0.06261">
        <ele>153.7</ele>
        <time>2020-05-30T17:32:44Z</time>
      </trkpt>
      <trkpt lat="46.51642" lon="0.06261">
        <ele>153.7</ele>
        <time>2020-05-30T17:32:45Z</time>
      </trkpt>
      <trkpt lat="46.51642" lon="0.06261">
        <ele>153.7</ele>
        <time>2020-05-30T17:32:46Z</time>
      </trkpt>
      <trkpt lat="46.51642" lon="0.06261">
        <ele>153.7</ele>
        <time>2020-05-30T17:32:47Z</time>
      </trkpt>
      <trkpt lat="46.51642" lon="0.06261">
        <ele>153.7</ele>
        <time>2020-05-30T17:32:48Z</time>
      </trkpt>
      <trkpt lat="46.51642" lon="0.06261">
        <ele>153.7</ele>
        <time>2020-05-30T17:32:49Z</time>
      </trkpt>
      <trkpt lat="46.51642" lon="0.06261">
        <ele>153.7</ele>
        <time>2020-05-30T17:32:50Z</time>
      </trkpt>
      <trkpt lat="46.51642" lon="0.06261">
        <ele>153.7</ele>
        <time>2020-05-30T17:32:51Z</time>
      </trkpt>
      <trkpt lat="46.51642" lon="0.06261">
        <ele>153.7</ele>
        <time>2020-05-30T17:32:52Z</time>
      </trkpt>
      <trkpt lat="46.51642" lon="0.06261">
        <ele>153.7</ele>
        <time>2020-05-30T17:32:53Z</time>
      </trkpt>
      <trkpt lat="46.51642" lon="0.06261">
        <ele>153.7</ele>
        <time>2020-05-30T17:32:54Z</time>
      </trkpt>
      <trkpt lat="46.51642" lon="0.06261">
        <ele>153.7</ele>
        <time>2020-05-30T17:32:55Z</time>
      </trkpt>
      <trkpt lat="46.51643" lon="0.06261">
        <ele>153.7</ele>
        <time>2020-05-30T17:32:56Z</time>
      </trkpt>
      <trkpt lat="46.51642" lon="0.06261">
        <ele>153.7</ele>
        <time>2020-05-30T17:32:57Z</time>
      </trkpt>
      <trkpt lat="46.51642" lon="0.0626">
        <ele>153.7</ele>
        <time>2020-05-30T17:32:58Z</time>
      </trkpt>
      <trkpt lat="46.51642" lon="0.0626">
        <ele>153.7</ele>
        <time>2020-05-30T17:32:59Z</time>
      </trkpt>
      <trkpt lat="46.51642" lon="0.0626">
        <ele>153.7</ele>
        <time>2020-05-30T17:33:00Z</time>
      </trkpt>
      <trkpt lat="46.51643" lon="0.0626">
        <ele>153.7</ele>
        <time>2020-05-30T17:33:01Z</time>
      </trkpt>
      <trkpt lat="46.51643" lon="0.0626">
        <ele>153.7</ele>
        <time>2020-05-30T17:33:02Z</time>
      </trkpt>
      <trkpt lat="46.51643" lon="0.0626">
        <ele>153.7</ele>
        <time>2020-05-30T17:33:03Z</time>
      </trkpt>
      <trkpt lat="46.51643" lon="0.0626">
        <ele>153.7</ele>
        <time>2020-05-30T17:33:04Z</time>
      </trkpt>
      <trkpt lat="46.51643" lon="0.0626">
        <ele>153.7</ele>
        <time>2020-05-30T17:33:05Z</time>
      </trkpt>
      <trkpt lat="46.51643" lon="0.0626">
        <ele>153.7</ele>
        <time>2020-05-30T17:33:06Z</time>
      </trkpt>
      <trkpt lat="46.51643" lon="0.0626">
        <ele>153.7</ele>
        <time>2020-05-30T17:33:07Z</time>
      </trkpt>
      <trkpt lat="46.51643" lon="0.06259">
        <ele>153.7</ele>
        <time>2020-05-30T17:33:08Z</time>
      </trkpt>
      <trkpt lat="46.51643" lon="0.06259">
        <ele>153.7</ele>
        <time>2020-05-30T17:33:09Z</time>
      </trkpt>
      <trkpt lat="46.51643" lon="0.06259">
        <ele>153.7</ele>
        <time>2020-05-30T17:33:10Z</time>
      </trkpt>
      <trkpt lat="46.51643" lon="0.06259">
        <ele>153.7</ele>
        <time>2020-05-30T17:33:11Z</time>
      </trkpt>
      <trkpt lat="46.51643" lon="0.06259">
        <ele>153.7</ele>
        <time>2020-05-30T17:33:12Z</time>
      </trkpt>
      <trkpt lat="46.51643" lon="0.06259">
        <ele>153.7</ele>
        <time>2020-05-30T17:33:13Z</time>
      </trkpt>
      <trkpt lat="46.51644" lon="0.06259">
        <ele>153.7</ele>
        <time>2020-05-30T17:33:14Z</time>
      </trkpt>
      <trkpt lat="46.51644" lon="0.06259">
        <ele>153.7</ele>
        <time>2020-05-30T17:33:15Z</time>
      </trkpt>
      <trkpt lat="46.51644" lon="0.06259">
        <ele>153.7</ele>
        <time>2020-05-30T17:33:16Z</time>
      </trkpt>
      <trkpt lat="46.51644" lon="0.06259">
        <ele>153.7</ele>
        <time>2020-05-30T17:33:17Z</time>
      </trkpt>
      <trkpt lat="46.51644" lon="0.06259">
        <ele>153.7</ele>
        <time>2020-05-30T17:33:18Z</time>
      </trkpt>
      <trkpt lat="46.51644" lon="0.06258">
        <ele>153.7</ele>
        <time>2020-05-30T17:33:19Z</time>
      </trkpt>
      <trkpt lat="46.51644" lon="0.06258">
        <ele>153.7</ele>
        <time>2020-05-30T17:33:20Z</time>
      </trkpt>
      <trkpt lat="46.51644" lon="0.06258">
        <ele>153.7</ele>
        <time>2020-05-30T17:33:21Z</time>
      </trkpt>
      <trkpt lat="46.51644" lon="0.06258">
        <ele>153.7</ele>
        <time>2020-05-30T17:33:22Z</time>
      </trkpt>
      <trkpt lat="46.51644" lon="0.06258">
        <ele>153.7</ele>
        <time>2020-05-30T17:33:23Z</time>
      </trkpt>
      <trkpt lat="46.51644" lon="0.06258">
        <ele>153.7</ele>
        <time>2020-05-30T17:33:24Z</time>
      </trkpt>
      <trkpt lat="46.51644" lon="0.06258">
        <ele>153.7</ele>
        <time>2020-05-30T17:33:25Z</time>
      </trkpt>
      <trkpt lat="46.51644" lon="0.06258">
        <ele>153.7</ele>
        <time>2020-05-30T17:33:26Z</time>
      </trkpt>
      <trkpt lat="46.51644" lon="0.06258">
        <ele>153.7</ele>
        <time>2020-05-30T17:33:27Z</time>
      </trkpt>
      <trkpt lat="46.51645" lon="0.06258">
        <ele>153.7</ele>
        <time>2020-05-30T17:33:28Z</time>
      </trkpt>
      <trkpt lat="46.51645" lon="0.06257">
        <ele>153.7</ele>
        <time>2020-05-30T17:33:29Z</time>
      </trkpt>
      <trkpt lat="46.51645" lon="0.06257">
        <ele>153.7</ele>
        <time>2020-05-30T17:33:30Z</time>
      </trkpt>
      <trkpt lat="46.51645" lon="0.06257">
        <ele>153.7</ele>
        <time>2020-05-30T17:33:31Z</time>
      </trkpt>
      <trkpt lat="46.51645" lon="0.06257">
        <ele>153.7</ele>
        <time>2020-05-30T17:33:32Z</time>
      </trkpt>
      <trkpt lat="46.51645" lon="0.06257">
        <ele>153.7</ele>
        <time>2020-05-30T17:33:33Z</time>
      </trkpt>
      <trkpt lat="46.51645" lon="0.06257">
        <ele>153.7</ele>
        <time>2020-05-30T17:33:34Z</time>
      </trkpt>
      <trkpt lat="46.51645" lon="0.06257">
        <ele>153.7</ele>
        <time>2020-05-30T17:33:35Z</time>
      </trkpt>
      <trkpt lat="46.51645" lon="0.06257">
        <ele>153.7</ele>
        <time>2020-05-30T17:33:36Z</time>
      </trkpt>
      <trkpt lat="46.51645" lon="0.06257">
        <ele>153.7</ele>
        <time>2020-05-30T17:33:37Z</time>
      </trkpt>
      <trkpt lat="46.51645" lon="0.06257">
        <ele>153.7</ele>
        <time>2020-05-30T17:33:38Z</time>
      </trkpt>
      <trkpt lat="46.51645" lon="0.06257">
        <ele>153.7</ele>
        <time>2020-05-30T17:33:39Z</time>
      </trkpt>
      <trkpt lat="46.51645" lon="0.06257">
        <ele>153.7</ele>
        <time>2020-05-30T17:33:40Z</time>
      </trkpt>
      <trkpt lat="46.51645" lon="0.06257">
        <ele>153.7</ele>
        <time>2020-05-30T17:33:41Z</time>
      </trkpt>
      <trkpt lat="46.51645" lon="0.06257">
        <ele>153.7</ele>
        <time>2020-05-30T17:33:42Z</time>
      </trkpt>
      <trkpt lat="46.51645" lon="0.06257">
        <ele>153.7</ele>
        <time>2020-05-30T17:33:43Z</time>
      </trkpt>
      <trkpt lat="46.51645" lon="0.06256">
        <ele>153.7</ele>
        <time>2020-05-30T17:33:44Z</time>
      </trkpt>
      <trkpt lat="46.51645" lon="0.06256">
        <ele>153.7</ele>
        <time>2020-05-30T17:33:45Z</time>
      </trkpt>
      <trkpt lat="46.51645" lon="0.06256">
        <ele>153.7</ele>
        <time>2020-05-30T17:33:46Z</time>
      </trkpt>
      <trkpt lat="46.51645" lon="0.06256">
        <ele>153.7</ele>
        <time>2020-05-30T17:33:47Z</time>
      </trkpt>
      <trkpt lat="46.51645" lon="0.06256">
        <ele>153.7</ele>
        <time>2020-05-30T17:33:48Z</time>
      </trkpt>
      <trkpt lat="46.51645" lon="0.06256">
        <ele>153.7</ele>
        <time>2020-05-30T17:33:49Z</time>
      </trkpt>
      <trkpt lat="46.51645" lon="0.06255">
        <ele>153.7</ele>
        <time>2020-05-30T17:33:50Z</time>
      </trkpt>
      <trkpt lat="46.51645" lon="0.06255">
        <ele>153.7</ele>
        <time>2020-05-30T17:33:51Z</time>
      </trkpt>
      <trkpt lat="46.51645" lon="0.06255">
        <ele>153.7</ele>
        <time>2020-05-30T17:33:52Z</time>
      </trkpt>
      <trkpt lat="46.51645" lon="0.06255">
        <ele>153.7</ele>
        <time>2020-05-30T17:33:53Z</time>
      </trkpt>
      <trkpt lat="46.51645" lon="0.06255">
        <ele>153.7</ele>
        <time>2020-05-30T17:33:54Z</time>
      </trkpt>
      <trkpt lat="46.51645" lon="0.06255">
        <ele>153.7</ele>
        <time>2020-05-30T17:33:55Z</time>
      </trkpt>
      <trkpt lat="46.51645" lon="0.06255">
        <ele>153.7</ele>
        <time>2020-05-30T17:33:56Z</time>
      </trkpt>
      <trkpt lat="46.51645" lon="0.06255">
        <ele>153.7</ele>
        <time>2020-05-30T17:33:57Z</time>
      </trkpt>
      <trkpt lat="46.51645" lon="0.06255">
        <ele>153.7</ele>
        <time>2020-05-30T17:33:58Z</time>
      </trkpt>
      <trkpt lat="46.51646" lon="0.06255">
        <ele>153.7</ele>
        <time>2020-05-30T17:33:59Z</time>
      </trkpt>
      <trkpt lat="46.51646" lon="0.06256">
        <ele>153.7</ele>
        <time>2020-05-30T17:34:00Z</time>
      </trkpt>
      <trkpt lat="46.51646" lon="0.06256">
        <ele>153.7</ele>
        <time>2020-05-30T17:34:01Z</time>
      </trkpt>
      <trkpt lat="46.51646" lon="0.06255">
        <ele>153.7</ele>
        <time>2020-05-30T17:34:02Z</time>
      </trkpt>
      <trkpt lat="46.51646" lon="0.06255">
        <ele>153.7</ele>
        <time>2020-05-30T17:34:03Z</time>
      </trkpt>
      <trkpt lat="46.51646" lon="0.06255">
        <ele>153.7</ele>
        <time>2020-05-30T17:34:04Z</time>
      </trkpt>
      <trkpt lat="46.51646" lon="0.06255">
        <ele>153.7</ele>
        <time>2020-05-30T17:34:05Z</time>
      </trkpt>
      <trkpt lat="46.51646" lon="0.06255">
        <ele>153.7</ele>
        <time>2020-05-30T17:34:06Z</time>
      </trkpt>
      <trkpt lat="46.51646" lon="0.06255">
        <ele>153.7</ele>
        <time>2020-05-30T17:34:07Z</time>
      </trkpt>
      <trkpt lat="46.51646" lon="0.06255">
        <ele>153.7</ele>
        <time>2020-05-30T17:34:08Z</time>
      </trkpt>
      <trkpt lat="46.51644" lon="0.06257">
        <ele>153.7</ele>
        <time>2020-05-30T17:34:09Z</time>
      </trkpt>
      <trkpt lat="46.51643" lon="0.06257">
        <ele>153.7</ele>
        <time>2020-05-30T17:34:10Z</time>
      </trkpt>
      <trkpt lat="46.51643" lon="0.06257">
        <ele>153.7</ele>
        <time>2020-05-30T17:34:11Z</time>
      </trkpt>
      <trkpt lat="46.51643" lon="0.06257">
        <ele>153.7</ele>
        <time>2020-05-30T17:34:12Z</time>
      </trkpt>
      <trkpt lat="46.51643" lon="0.06257">
        <ele>153.7</ele>
        <time>2020-05-30T17:34:13Z</time>
      </trkpt>
      <trkpt lat="46.51643" lon="0.06257">
        <ele>153.7</ele>
        <time>2020-05-30T17:34:14Z</time>
      </trkpt>
      <trkpt lat="46.51643" lon="0.06257">
        <ele>153.7</ele>
        <time>2020-05-30T17:34:15Z</time>
      </trkpt>
      <trkpt lat="46.51643" lon="0.06257">
        <ele>153.7</ele>
        <time>2020-05-30T17:34:16Z</time>
      </trkpt>
      <trkpt lat="46.51643" lon="0.06257">
        <ele>153.7</ele>
        <time>2020-05-30T17:34:17Z</time>
      </trkpt>
      <trkpt lat="46.51643" lon="0.06257">
        <ele>153.7</ele>
        <time>2020-05-30T17:34:18Z</time>
      </trkpt>
      <trkpt lat="46.51643" lon="0.06257">
        <ele>153.7</ele>
        <time>2020-05-30T17:34:19Z</time>
      </trkpt>
      <trkpt lat="46.51643" lon="0.06257">
        <ele>153.7</ele>
        <time>2020-05-30T17:34:20Z</time>
      </trkpt>
      <trkpt lat="46.51643" lon="0.06257">
        <ele>153.7</ele>
        <time>2020-05-30T17:34:21Z</time>
      </trkpt>
      <trkpt lat="46.51643" lon="0.06256">
        <ele>153.6</ele>
        <time>2020-05-30T17:34:22Z</time>
      </trkpt>
      <trkpt lat="46.51643" lon="0.06256">
        <ele>153.6</ele>
        <time>2020-05-30T17:34:23Z</time>
      </trkpt>
      <trkpt lat="46.51643" lon="0.06256">
        <ele>153.6</ele>
        <time>2020-05-30T17:34:24Z</time>
      </trkpt>
      <trkpt lat="46.51643" lon="0.06256">
        <ele>153.6</ele>
        <time>2020-05-30T17:34:25Z</time>
      </trkpt>
      <trkpt lat="46.51642" lon="0.06256">
        <ele>153.6</ele>
        <time>2020-05-30T17:34:26Z</time>
      </trkpt>
      <trkpt lat="46.51643" lon="0.06256">
        <ele>153.6</ele>
        <time>2020-05-30T17:34:27Z</time>
      </trkpt>
      <trkpt lat="46.51643" lon="0.06256">
        <ele>153.6</ele>
        <time>2020-05-30T17:34:28Z</time>
      </trkpt>
      <trkpt lat="46.51643" lon="0.06256">
        <ele>153.6</ele>
        <time>2020-05-30T17:34:29Z</time>
      </trkpt>
      <trkpt lat="46.51643" lon="0.06256">
        <ele>153.6</ele>
        <time>2020-05-30T17:34:30Z</time>
      </trkpt>
      <trkpt lat="46.51643" lon="0.06256">
        <ele>153.6</ele>
        <time>2020-05-30T17:34:31Z</time>
      </trkpt>
      <trkpt lat="46.51643" lon="0.06257">
        <ele>153.6</ele>
        <time>2020-05-30T17:34:32Z</time>
      </trkpt>
      <trkpt lat="46.51643" lon="0.06257">
        <ele>153.6</ele>
        <time>2020-05-30T17:34:33Z</time>
      </trkpt>
      <trkpt lat="46.51643" lon="0.06257">
        <ele>153.6</ele>
        <time>2020-05-30T17:34:34Z</time>
      </trkpt>
      <trkpt lat="46.51643" lon="0.06257">
        <ele>153.6</ele>
        <time>2020-05-30T17:34:35Z</time>
      </trkpt>
      <trkpt lat="46.51643" lon="0.06257">
        <ele>153.6</ele>
        <time>2020-05-30T17:34:36Z</time>
      </trkpt>
      <trkpt lat="46.51643" lon="0.06257">
        <ele>153.6</ele>
        <time>2020-05-30T17:34:37Z</time>
      </trkpt>
      <trkpt lat="46.51644" lon="0.06257">
        <ele>153.6</ele>
        <time>2020-05-30T17:34:38Z</time>
      </trkpt>
      <trkpt lat="46.51644" lon="0.06257">
        <ele>153.6</ele>
        <time>2020-05-30T17:34:39Z</time>
      </trkpt>
      <trkpt lat="46.51644" lon="0.06257">
        <ele>153.6</ele>
        <time>2020-05-30T17:34:40Z</time>
      </trkpt>
      <trkpt lat="46.51644" lon="0.06257">
        <ele>153.6</ele>
        <time>2020-05-30T17:34:41Z</time>
      </trkpt>
      <trkpt lat="46.51644" lon="0.06257">
        <ele>153.6</ele>
        <time>2020-05-30T17:34:42Z</time>
      </trkpt>
      <trkpt lat="46.51644" lon="0.06257">
        <ele>153.6</ele>
        <time>2020-05-30T17:34:43Z</time>
      </trkpt>
      <trkpt lat="46.51644" lon="0.06257">
        <ele>153.6</ele>
        <time>2020-05-30T17:34:44Z</time>
      </trkpt>
      <trkpt lat="46.51644" lon="0.06257">
        <ele>153.6</ele>
        <time>2020-05-30T17:34:45Z</time>
      </trkpt>
      <trkpt lat="46.51644" lon="0.06257">
        <ele>153.6</ele>
        <time>2020-05-30T17:34:46Z</time>
      </trkpt>
      <trkpt lat="46.51644" lon="0.06257">
        <ele>153.6</ele>
        <time>2020-05-30T17:34:47Z</time>
      </trkpt>
      <trkpt lat="46.51644" lon="0.06257">
        <ele>153.6</ele>
        <time>2020-05-30T17:34:48Z</time>
      </trkpt>
      <trkpt lat="46.51644" lon="0.06257">
        <ele>153.6</ele>
        <time>2020-05-30T17:34:49Z</time>
      </trkpt>
      <trkpt lat="46.51644" lon="0.06257">
        <ele>153.6</ele>
        <time>2020-05-30T17:34:50Z</time>
      </trkpt>
      <trkpt lat="46.51644" lon="0.06257">
        <ele>153.6</ele>
        <time>2020-05-30T17:34:51Z</time>
      </trkpt>
      <trkpt lat="46.51644" lon="0.06257">
        <ele>153.6</ele>
        <time>2020-05-30T17:34:52Z</time>
      </trkpt>
      <trkpt lat="46.51644" lon="0.06257">
        <ele>153.6</ele>
        <time>2020-05-30T17:34:53Z</time>
      </trkpt>
      <trkpt lat="46.51644" lon="0.06257">
        <ele>153.6</ele>
        <time>2020-05-30T17:34:54Z</time>
      </trkpt>
      <trkpt lat="46.51644" lon="0.06257">
        <ele>153.6</ele>
        <time>2020-05-30T17:34:55Z</time>
      </trkpt>
      <trkpt lat="46.51644" lon="0.06257">
        <ele>153.6</ele>
        <time>2020-05-30T17:34:56Z</time>
      </trkpt>
      <trkpt lat="46.51644" lon="0.06257">
        <ele>153.6</ele>
        <time>2020-05-30T17:34:57Z</time>
      </trkpt>
      <trkpt lat="46.51644" lon="0.06256">
        <ele>153.6</ele>
        <time>2020-05-30T17:34:58Z</time>
      </trkpt>
      <trkpt lat="46.51644" lon="0.06256">
        <ele>153.6</ele>
        <time>2020-05-30T17:34:59Z</time>
      </trkpt>
      <trkpt lat="46.51644" lon="0.06256">
        <ele>153.6</ele>
        <time>2020-05-30T17:35:00Z</time>
      </trkpt>
      <trkpt lat="46.51644" lon="0.06256">
        <ele>153.6</ele>
        <time>2020-05-30T17:35:01Z</time>
      </trkpt>
      <trkpt lat="46.51644" lon="0.06256">
        <ele>153.6</ele>
        <time>2020-05-30T17:35:02Z</time>
      </trkpt>
      <trkpt lat="46.51644" lon="0.06256">
        <ele>153.6</ele>
        <time>2020-05-30T17:35:03Z</time>
      </trkpt>
      <trkpt lat="46.51644" lon="0.06256">
        <ele>153.6</ele>
        <time>2020-05-30T17:35:04Z</time>
      </trkpt>
      <trkpt lat="46.51644" lon="0.06256">
        <ele>153.6</ele>
        <time>2020-05-30T17:35:05Z</time>
      </trkpt>
      <trkpt lat="46.51644" lon="0.06256">
        <ele>153.6</ele>
        <time>2020-05-30T17:35:06Z</time>
      </trkpt>
      <trkpt lat="46.51644" lon="0.06256">
        <ele>153.6</ele>
        <time>2020-05-30T17:35:07Z</time>
      </trkpt>
      <trkpt lat="46.51644" lon="0.06256">
        <ele>153.6</ele>
        <time>2020-05-30T17:35:08Z</time>
      </trkpt>
      <trkpt lat="46.51644" lon="0.06256">
        <ele>153.6</ele>
        <time>2020-05-30T17:35:09Z</time>
      </trkpt>
      <trkpt lat="46.51645" lon="0.06257">
        <ele>153.6</ele>
        <time>2020-05-30T17:35:10Z</time>
      </trkpt>
      <trkpt lat="46.51645" lon="0.06257">
        <ele>153.6</ele>
        <time>2020-05-30T17:35:11Z</time>
      </trkpt>
      <trkpt lat="46.51646" lon="0.06256">
        <ele>153.6</ele>
        <time>2020-05-30T17:35:12Z</time>
      </trkpt>
      <trkpt lat="46.51646" lon="0.06256">
        <ele>153.6</ele>
        <time>2020-05-30T17:35:13Z</time>
      </trkpt>
      <trkpt lat="46.51646" lon="0.06256">
        <ele>153.6</ele>
        <time>2020-05-30T17:35:14Z</time>
      </trkpt>
      <trkpt lat="46.51646" lon="0.06256">
        <ele>153.6</ele>
        <time>2020-05-30T17:35:15Z</time>
      </trkpt>
      <trkpt lat="46.51646" lon="0.06256">
        <ele>153.6</ele>
        <time>2020-05-30T17:35:16Z</time>
      </trkpt>
      <trkpt lat="46.51646" lon="0.06256">
        <ele>153.6</ele>
        <time>2020-05-30T17:35:17Z</time>
      </trkpt>
      <trkpt lat="46.51646" lon="0.06256">
        <ele>153.6</ele>
        <time>2020-05-30T17:35:18Z</time>
      </trkpt>
      <trkpt lat="46.51646" lon="0.06256">
        <ele>153.6</ele>
        <time>2020-05-30T17:35:19Z</time>
      </trkpt>
      <trkpt lat="46.51646" lon="0.06255">
        <ele>153.6</ele>
        <time>2020-05-30T17:35:20Z</time>
      </trkpt>
      <trkpt lat="46.51647" lon="0.06255">
        <ele>153.6</ele>
        <time>2020-05-30T17:35:21Z</time>
      </trkpt>
      <trkpt lat="46.51647" lon="0.06255">
        <ele>153.6</ele>
        <time>2020-05-30T17:35:22Z</time>
      </trkpt>
      <trkpt lat="46.51647" lon="0.06255">
        <ele>153.6</ele>
        <time>2020-05-30T17:35:23Z</time>
      </trkpt>
      <trkpt lat="46.51648" lon="0.06255">
        <ele>153.6</ele>
        <time>2020-05-30T17:35:24Z</time>
      </trkpt>
      <trkpt lat="46.51648" lon="0.06255">
        <ele>153.6</ele>
        <time>2020-05-30T17:35:25Z</time>
      </trkpt>
      <trkpt lat="46.51648" lon="0.06255">
        <ele>153.6</ele>
        <time>2020-05-30T17:35:26Z</time>
      </trkpt>
      <trkpt lat="46.51648" lon="0.06255">
        <ele>153.6</ele>
        <time>2020-05-30T17:35:27Z</time>
      </trkpt>
      <trkpt lat="46.51647" lon="0.06255">
        <ele>153.6</ele>
        <time>2020-05-30T17:35:28Z</time>
      </trkpt>
      <trkpt lat="46.51647" lon="0.06255">
        <ele>153.6</ele>
        <time>2020-05-30T17:35:29Z</time>
      </trkpt>
      <trkpt lat="46.51647" lon="0.06255">
        <ele>153.6</ele>
        <time>2020-05-30T17:35:30Z</time>
      </trkpt>
      <trkpt lat="46.51647" lon="0.06255">
        <ele>153.6</ele>
        <time>2020-05-30T17:35:31Z</time>
      </trkpt>
      <trkpt lat="46.51647" lon="0.06255">
        <ele>153.6</ele>
        <time>2020-05-30T17:35:32Z</time>
      </trkpt>
      <trkpt lat="46.51647" lon="0.06255">
        <ele>153.6</ele>
        <time>2020-05-30T17:35:33Z</time>
      </trkpt>
      <trkpt lat="46.51647" lon="0.06255">
        <ele>153.6</ele>
        <time>2020-05-30T17:35:34Z</time>
      </trkpt>
      <trkpt lat="46.51647" lon="0.06255">
        <ele>153.6</ele>
        <time>2020-05-30T17:35:35Z</time>
      </trkpt>
      <trkpt lat="46.51647" lon="0.06255">
        <ele>153.6</ele>
        <time>2020-05-30T17:35:36Z</time>
      </trkpt>
      <trkpt lat="46.51647" lon="0.06255">
        <ele>153.6</ele>
        <time>2020-05-30T17:35:37Z</time>
      </trkpt>
      <trkpt lat="46.51647" lon="0.06255">
        <ele>153.6</ele>
        <time>2020-05-30T17:35:38Z</time>
      </trkpt>
      <trkpt lat="46.51647" lon="0.06255">
        <ele>153.6</ele>
        <time>2020-05-30T17:35:39Z</time>
      </trkpt>
      <trkpt lat="46.51647" lon="0.06255">
        <ele>153.6</ele>
        <time>2020-05-30T17:35:40Z</time>
      </trkpt>
      <trkpt lat="46.51647" lon="0.06255">
        <ele>153.6</ele>
        <time>2020-05-30T17:35:41Z</time>
      </trkpt>
      <trkpt lat="46.51647" lon="0.06255">
        <ele>153.6</ele>
        <time>2020-05-30T17:35:42Z</time>
      </trkpt>
      <trkpt lat="46.51647" lon="0.06254">
        <ele>153.6</ele>
        <time>2020-05-30T17:35:43Z</time>
      </trkpt>
      <trkpt lat="46.51648" lon="0.06254">
        <ele>153.6</ele>
        <time>2020-05-30T17:35:44Z</time>
      </trkpt>
      <trkpt lat="46.51648" lon="0.06254">
        <ele>153.6</ele>
        <time>2020-05-30T17:35:45Z</time>
      </trkpt>
      <trkpt lat="46.51648" lon="0.06254">
        <ele>153.6</ele>
        <time>2020-05-30T17:35:46Z</time>
      </trkpt>
      <trkpt lat="46.51648" lon="0.06254">
        <ele>153.6</ele>
        <time>2020-05-30T17:35:47Z</time>
      </trkpt>
      <trkpt lat="46.51648" lon="0.06254">
        <ele>153.6</ele>
        <time>2020-05-30T17:35:48Z</time>
      </trkpt>
      <trkpt lat="46.51648" lon="0.06254">
        <ele>153.6</ele>
        <time>2020-05-30T17:35:49Z</time>
      </trkpt>
      <trkpt lat="46.51648" lon="0.06254">
        <ele>153.6</ele>
        <time>2020-05-30T17:35:50Z</time>
      </trkpt>
      <trkpt lat="46.51648" lon="0.06254">
        <ele>153.6</ele>
        <time>2020-05-30T17:35:51Z</time>
      </trkpt>
      <trkpt lat="46.51648" lon="0.06254">
        <ele>153.6</ele>
        <time>2020-05-30T17:35:52Z</time>
      </trkpt>
      <trkpt lat="46.51648" lon="0.06254">
        <ele>153.6</ele>
        <time>2020-05-30T17:35:53Z</time>
      </trkpt>
      <trkpt lat="46.51648" lon="0.06254">
        <ele>153.6</ele>
        <time>2020-05-30T17:35:54Z</time>
      </trkpt>
      <trkpt lat="46.51648" lon="0.06254">
        <ele>153.6</ele>
        <time>2020-05-30T17:35:55Z</time>
      </trkpt>
      <trkpt lat="46.51648" lon="0.06254">
        <ele>153.6</ele>
        <time>2020-05-30T17:35:56Z</time>
      </trkpt>
      <trkpt lat="46.51648" lon="0.06254">
        <ele>153.6</ele>
        <time>2020-05-30T17:35:57Z</time>
      </trkpt>
      <trkpt lat="46.51648" lon="0.06254">
        <ele>153.6</ele>
        <time>2020-05-30T17:35:58Z</time>
      </trkpt>
      <trkpt lat="46.51648" lon="0.06254">
        <ele>153.6</ele>
        <time>2020-05-30T17:35:59Z</time>
      </trkpt>
      <trkpt lat="46.51648" lon="0.06254">
        <ele>153.6</ele>
        <time>2020-05-30T17:36:00Z</time>
      </trkpt>
      <trkpt lat="46.51648" lon="0.06254">
        <ele>153.6</ele>
        <time>2020-05-30T17:36:01Z</time>
      </trkpt>
      <trkpt lat="46.51648" lon="0.06254">
        <ele>153.6</ele>
        <time>2020-05-30T17:36:02Z</time>
      </trkpt>
      <trkpt lat="46.51648" lon="0.06254">
        <ele>153.6</ele>
        <time>2020-05-30T17:36:03Z</time>
      </trkpt>
      <trkpt lat="46.51648" lon="0.06254">
        <ele>153.6</ele>
        <time>2020-05-30T17:36:04Z</time>
      </trkpt>
      <trkpt lat="46.51648" lon="0.06254">
        <ele>153.6</ele>
        <time>2020-05-30T17:36:05Z</time>
      </trkpt>
      <trkpt lat="46.51648" lon="0.06254">
        <ele>153.6</ele>
        <time>2020-05-30T17:36:06Z</time>
      </trkpt>
      <trkpt lat="46.51648" lon="0.06254">
        <ele>153.6</ele>
        <time>2020-05-30T17:36:07Z</time>
      </trkpt>
      <trkpt lat="46.51648" lon="0.06253">
        <ele>153.6</ele>
        <time>2020-05-30T17:36:08Z</time>
      </trkpt>
      <trkpt lat="46.51648" lon="0.06254">
        <ele>153.6</ele>
        <time>2020-05-30T17:36:09Z</time>
      </trkpt>
      <trkpt lat="46.51648" lon="0.06254">
        <ele>153.6</ele>
        <time>2020-05-30T17:36:10Z</time>
      </trkpt>
      <trkpt lat="46.51648" lon="0.06254">
        <ele>153.6</ele>
        <time>2020-05-30T17:36:11Z</time>
      </trkpt>
      <trkpt lat="46.51648" lon="0.06254">
        <ele>153.6</ele>
        <time>2020-05-30T17:36:12Z</time>
      </trkpt>
      <trkpt lat="46.51648" lon="0.06254">
        <ele>153.6</ele>
        <time>2020-05-30T17:36:13Z</time>
      </trkpt>
      <trkpt lat="46.51648" lon="0.06254">
        <ele>153.6</ele>
        <time>2020-05-30T17:36:14Z</time>
      </trkpt>
      <trkpt lat="46.51648" lon="0.06254">
        <ele>153.6</ele>
        <time>2020-05-30T17:36:15Z</time>
      </trkpt>
      <trkpt lat="46.51648" lon="0.06254">
        <ele>153.6</ele>
        <time>2020-05-30T17:36:16Z</time>
      </trkpt>
      <trkpt lat="46.51648" lon="0.06254">
        <ele>153.6</ele>
        <time>2020-05-30T17:36:17Z</time>
      </trkpt>
      <trkpt lat="46.51648" lon="0.06254">
        <ele>153.6</ele>
        <time>2020-05-30T17:36:18Z</time>
      </trkpt>
      <trkpt lat="46.51648" lon="0.06254">
        <ele>153.6</ele>
        <time>2020-05-30T17:36:19Z</time>
      </trkpt>
      <trkpt lat="46.51648" lon="0.06254">
        <ele>153.6</ele>
        <time>2020-05-30T17:36:20Z</time>
      </trkpt>
      <trkpt lat="46.51648" lon="0.06254">
        <ele>153.6</ele>
        <time>2020-05-30T17:36:21Z</time>
      </trkpt>
      <trkpt lat="46.51648" lon="0.06254">
        <ele>153.6</ele>
        <time>2020-05-30T17:36:22Z</time>
      </trkpt>
      <trkpt lat="46.51648" lon="0.06254">
        <ele>153.6</ele>
        <time>2020-05-30T17:36:23Z</time>
      </trkpt>
      <trkpt lat="46.51648" lon="0.06254">
        <ele>153.6</ele>
        <time>2020-05-30T17:36:24Z</time>
      </trkpt>
      <trkpt lat="46.51648" lon="0.06254">
        <ele>153.6</ele>
        <time>2020-05-30T17:36:25Z</time>
      </trkpt>
      <trkpt lat="46.51648" lon="0.06254">
        <ele>153.5</ele>
        <time>2020-05-30T17:36:26Z</time>
      </trkpt>
      <trkpt lat="46.51648" lon="0.06254">
        <ele>153.5</ele>
        <time>2020-05-30T17:36:27Z</time>
      </trkpt>
      <trkpt lat="46.51648" lon="0.06254">
        <ele>153.5</ele>
        <time>2020-05-30T17:36:28Z</time>
      </trkpt>
      <trkpt lat="46.51648" lon="0.06254">
        <ele>153.5</ele>
        <time>2020-05-30T17:36:29Z</time>
      </trkpt>
      <trkpt lat="46.51648" lon="0.06255">
        <ele>153.5</ele>
        <time>2020-05-30T17:36:30Z</time>
      </trkpt>
      <trkpt lat="46.51648" lon="0.06255">
        <ele>153.5</ele>
        <time>2020-05-30T17:36:31Z</time>
      </trkpt>
      <trkpt lat="46.51648" lon="0.06255">
        <ele>153.5</ele>
        <time>2020-05-30T17:36:32Z</time>
      </trkpt>
      <trkpt lat="46.51648" lon="0.06255">
        <ele>153.5</ele>
        <time>2020-05-30T17:36:33Z</time>
      </trkpt>
      <trkpt lat="46.51648" lon="0.06255">
        <ele>153.5</ele>
        <time>2020-05-30T17:36:34Z</time>
      </trkpt>
      <trkpt lat="46.51648" lon="0.06255">
        <ele>153.5</ele>
        <time>2020-05-30T17:36:35Z</time>
      </trkpt>
      <trkpt lat="46.51648" lon="0.06254">
        <ele>153.5</ele>
        <time>2020-05-30T17:36:36Z</time>
      </trkpt>
      <trkpt lat="46.51648" lon="0.06254">
        <ele>153.5</ele>
        <time>2020-05-30T17:36:37Z</time>
      </trkpt>
      <trkpt lat="46.51648" lon="0.06254">
        <ele>153.5</ele>
        <time>2020-05-30T17:36:38Z</time>
      </trkpt>
      <trkpt lat="46.51648" lon="0.06254">
        <ele>153.5</ele>
        <time>2020-05-30T17:36:39Z</time>
      </trkpt>
      <trkpt lat="46.51648" lon="0.06254">
        <ele>153.5</ele>
        <time>2020-05-30T17:36:40Z</time>
      </trkpt>
      <trkpt lat="46.51648" lon="0.06254">
        <ele>153.4</ele>
        <time>2020-05-30T17:36:41Z</time>
      </trkpt>
      <trkpt lat="46.51648" lon="0.06255">
        <ele>153.4</ele>
        <time>2020-05-30T17:36:42Z</time>
      </trkpt>
      <trkpt lat="46.51648" lon="0.06255">
        <ele>153.4</ele>
        <time>2020-05-30T17:36:43Z</time>
      </trkpt>
      <trkpt lat="46.51648" lon="0.06255">
        <ele>153.4</ele>
        <time>2020-05-30T17:36:44Z</time>
      </trkpt>
      <trkpt lat="46.51648" lon="0.06255">
        <ele>153.4</ele>
        <time>2020-05-30T17:36:45Z</time>
      </trkpt>
      <trkpt lat="46.51648" lon="0.06255">
        <ele>153.4</ele>
        <time>2020-05-30T17:36:46Z</time>
      </trkpt>
      <trkpt lat="46.51648" lon="0.06255">
        <ele>153.4</ele>
        <time>2020-05-30T17:36:47Z</time>
      </trkpt>
      <trkpt lat="46.51648" lon="0.06255">
        <ele>153.4</ele>
        <time>2020-05-30T17:36:48Z</time>
      </trkpt>
      <trkpt lat="46.51647" lon="0.06255">
        <ele>153.4</ele>
        <time>2020-05-30T17:36:49Z</time>
      </trkpt>
      <trkpt lat="46.51647" lon="0.06255">
        <ele>153.4</ele>
        <time>2020-05-30T17:36:50Z</time>
      </trkpt>
      <trkpt lat="46.51647" lon="0.06255">
        <ele>153.4</ele>
        <time>2020-05-30T17:36:51Z</time>
      </trkpt>
      <trkpt lat="46.51647" lon="0.06255">
        <ele>153.4</ele>
        <time>2020-05-30T17:36:52Z</time>
      </trkpt>
      <trkpt lat="46.51648" lon="0.06254">
        <ele>153.3</ele>
        <time>2020-05-30T17:36:53Z</time>
      </trkpt>
      <trkpt lat="46.51647" lon="0.06254">
        <ele>153.3</ele>
        <time>2020-05-30T17:36:54Z</time>
      </trkpt>
      <trkpt lat="46.51647" lon="0.06254">
        <ele>153.3</ele>
        <time>2020-05-30T17:36:55Z</time>
      </trkpt>
      <trkpt lat="46.51647" lon="0.06254">
        <ele>153.3</ele>
        <time>2020-05-30T17:36:56Z</time>
      </trkpt>
      <trkpt lat="46.51647" lon="0.06254">
        <ele>153.3</ele>
        <time>2020-05-30T17:36:57Z</time>
      </trkpt>
      <trkpt lat="46.51647" lon="0.06254">
        <ele>153.3</ele>
        <time>2020-05-30T17:36:58Z</time>
      </trkpt>
      <trkpt lat="46.51647" lon="0.06254">
        <ele>153.2</ele>
        <time>2020-05-30T17:36:59Z</time>
      </trkpt>
      <trkpt lat="46.51647" lon="0.06254">
        <ele>153.2</ele>
        <time>2020-05-30T17:37:00Z</time>
      </trkpt>
      <trkpt lat="46.51647" lon="0.06254">
        <ele>153.2</ele>
        <time>2020-05-30T17:37:01Z</time>
      </trkpt>
      <trkpt lat="46.51647" lon="0.06254">
        <ele>153.2</ele>
        <time>2020-05-30T17:37:02Z</time>
      </trkpt>
      <trkpt lat="46.51647" lon="0.06254">
        <ele>153.2</ele>
        <time>2020-05-30T17:37:03Z</time>
      </trkpt>
      <trkpt lat="46.51647" lon="0.06254">
        <ele>153.2</ele>
        <time>2020-05-30T17:37:04Z</time>
      </trkpt>
      <trkpt lat="46.51647" lon="0.06254">
        <ele>153.2</ele>
        <time>2020-05-30T17:37:05Z</time>
      </trkpt>
      <trkpt lat="46.51647" lon="0.06254">
        <ele>153.2</ele>
        <time>2020-05-30T17:37:06Z</time>
      </trkpt>
      <trkpt lat="46.51647" lon="0.06254">
        <ele>153.2</ele>
        <time>2020-05-30T17:37:07Z</time>
      </trkpt>
      <trkpt lat="46.51647" lon="0.06254">
        <ele>153.2</ele>
        <time>2020-05-30T17:37:08Z</time>
      </trkpt>
      <trkpt lat="46.51647" lon="0.06254">
        <ele>153.2</ele>
        <time>2020-05-30T17:37:09Z</time>
      </trkpt>
      <trkpt lat="46.51647" lon="0.06254">
        <ele>153.2</ele>
        <time>2020-05-30T17:37:10Z</time>
      </trkpt>
      <trkpt lat="46.51647" lon="0.06254">
        <ele>153.2</ele>
        <time>2020-05-30T17:37:11Z</time>
      </trkpt>
      <trkpt lat="46.51647" lon="0.06254">
        <ele>153.2</ele>
        <time>2020-05-30T17:37:12Z</time>
      </trkpt>
      <trkpt lat="46.51647" lon="0.06254">
        <ele>153.2</ele>
        <time>2020-05-30T17:37:13Z</time>
      </trkpt>
      <trkpt lat="46.51647" lon="0.06254">
        <ele>153.2</ele>
        <time>2020-05-30T17:37:14Z</time>
      </trkpt>
      <trkpt lat="46.51647" lon="0.06254">
        <ele>153.2</ele>
        <time>2020-05-30T17:37:15Z</time>
      </trkpt>
      <trkpt lat="46.51647" lon="0.06254">
        <ele>153.1</ele>
        <time>2020-05-30T17:37:16Z</time>
      </trkpt>
      <trkpt lat="46.51647" lon="0.06254">
        <ele>153.1</ele>
        <time>2020-05-30T17:37:17Z</time>
      </trkpt>
      <trkpt lat="46.51647" lon="0.06254">
        <ele>153.1</ele>
        <time>2020-05-30T17:37:18Z</time>
      </trkpt>
      <trkpt lat="46.51647" lon="0.06254">
        <ele>153.1</ele>
        <time>2020-05-30T17:37:19Z</time>
      </trkpt>
      <trkpt lat="46.51647" lon="0.06254">
        <ele>153.1</ele>
        <time>2020-05-30T17:37:20Z</time>
      </trkpt>
      <trkpt lat="46.51647" lon="0.06254">
        <ele>153.1</ele>
        <time>2020-05-30T17:37:21Z</time>
      </trkpt>
      <trkpt lat="46.51647" lon="0.06254">
        <ele>153.1</ele>
        <time>2020-05-30T17:37:22Z</time>
      </trkpt>
      <trkpt lat="46.51647" lon="0.06254">
        <ele>153.1</ele>
        <time>2020-05-30T17:37:23Z</time>
      </trkpt>
      <trkpt lat="46.51647" lon="0.06254">
        <ele>153.1</ele>
        <time>2020-05-30T17:37:24Z</time>
      </trkpt>
      <trkpt lat="46.51647" lon="0.06254">
        <ele>153.1</ele>
        <time>2020-05-30T17:37:25Z</time>
      </trkpt>
      <trkpt lat="46.51647" lon="0.06254">
        <ele>153.1</ele>
        <time>2020-05-30T17:37:26Z</time>
      </trkpt>
      <trkpt lat="46.51647" lon="0.06254">
        <ele>153</ele>
        <time>2020-05-30T17:37:27Z</time>
      </trkpt>
      <trkpt lat="46.51647" lon="0.06254">
        <ele>153</ele>
        <time>2020-05-30T17:37:28Z</time>
      </trkpt>
      <trkpt lat="46.51647" lon="0.06254">
        <ele>153</ele>
        <time>2020-05-30T17:37:29Z</time>
      </trkpt>
      <trkpt lat="46.51647" lon="0.06255">
        <ele>153</ele>
        <time>2020-05-30T17:37:30Z</time>
      </trkpt>
      <trkpt lat="46.51647" lon="0.06254">
        <ele>153</ele>
        <time>2020-05-30T17:37:31Z</time>
      </trkpt>
      <trkpt lat="46.51647" lon="0.06254">
        <ele>153</ele>
        <time>2020-05-30T17:37:32Z</time>
      </trkpt>
      <trkpt lat="46.51647" lon="0.06254">
        <ele>153</ele>
        <time>2020-05-30T17:37:33Z</time>
      </trkpt>
      <trkpt lat="46.51647" lon="0.06255">
        <ele>153</ele>
        <time>2020-05-30T17:37:34Z</time>
      </trkpt>
      <trkpt lat="46.51647" lon="0.06255">
        <ele>153</ele>
        <time>2020-05-30T17:37:35Z</time>
      </trkpt>
      <trkpt lat="46.51647" lon="0.06255">
        <ele>152.9</ele>
        <time>2020-05-30T17:37:36Z</time>
      </trkpt>
      <trkpt lat="46.51647" lon="0.06255">
        <ele>152.9</ele>
        <time>2020-05-30T17:37:37Z</time>
      </trkpt>
      <trkpt lat="46.51647" lon="0.06255">
        <ele>152.9</ele>
        <time>2020-05-30T17:37:38Z</time>
      </trkpt>
      <trkpt lat="46.51647" lon="0.06255">
        <ele>152.9</ele>
        <time>2020-05-30T17:37:39Z</time>
      </trkpt>
      <trkpt lat="46.51647" lon="0.06255">
        <ele>152.9</ele>
        <time>2020-05-30T17:37:40Z</time>
      </trkpt>
      <trkpt lat="46.51647" lon="0.06255">
        <ele>152.9</ele>
        <time>2020-05-30T17:37:41Z</time>
      </trkpt>
      <trkpt lat="46.51647" lon="0.06255">
        <ele>152.9</ele>
        <time>2020-05-30T17:37:42Z</time>
      </trkpt>
      <trkpt lat="46.51647" lon="0.06254">
        <ele>152.9</ele>
        <time>2020-05-30T17:37:43Z</time>
      </trkpt>
      <trkpt lat="46.51647" lon="0.06254">
        <ele>152.9</ele>
        <time>2020-05-30T17:37:44Z</time>
      </trkpt>
      <trkpt lat="46.51647" lon="0.06254">
        <ele>152.9</ele>
        <time>2020-05-30T17:37:45Z</time>
      </trkpt>
      <trkpt lat="46.51647" lon="0.06254">
        <ele>152.9</ele>
        <time>2020-05-30T17:37:46Z</time>
      </trkpt>
      <trkpt lat="46.51647" lon="0.06254">
        <ele>152.9</ele>
        <time>2020-05-30T17:37:47Z</time>
      </trkpt>
      <trkpt lat="46.51647" lon="0.06254">
        <ele>152.9</ele>
        <time>2020-05-30T17:37:48Z</time>
      </trkpt>
      <trkpt lat="46.51647" lon="0.06254">
        <ele>152.9</ele>
        <time>2020-05-30T17:37:49Z</time>
      </trkpt>
      <trkpt lat="46.51647" lon="0.06254">
        <ele>152.8</ele>
        <time>2020-05-30T17:37:50Z</time>
      </trkpt>
      <trkpt lat="46.51647" lon="0.06254">
        <ele>152.8</ele>
        <time>2020-05-30T17:37:51Z</time>
      </trkpt>
      <trkpt lat="46.51647" lon="0.06254">
        <ele>152.8</ele>
        <time>2020-05-30T17:37:52Z</time>
      </trkpt>
      <trkpt lat="46.51647" lon="0.06254">
        <ele>152.8</ele>
        <time>2020-05-30T17:37:53Z</time>
      </trkpt>
      <trkpt lat="46.51647" lon="0.06254">
        <ele>152.8</ele>
        <time>2020-05-30T17:37:54Z</time>
      </trkpt>
      <trkpt lat="46.51647" lon="0.06255">
        <ele>152.8</ele>
        <time>2020-05-30T17:37:55Z</time>
      </trkpt>
      <trkpt lat="46.51647" lon="0.06255">
        <ele>152.8</ele>
        <time>2020-05-30T17:37:56Z</time>
      </trkpt>
      <trkpt lat="46.51647" lon="0.06255">
        <ele>152.8</ele>
        <time>2020-05-30T17:37:57Z</time>
      </trkpt>
      <trkpt lat="46.51647" lon="0.06255">
        <ele>152.8</ele>
        <time>2020-05-30T17:37:58Z</time>
      </trkpt>
      <trkpt lat="46.51647" lon="0.06256">
        <ele>152.8</ele>
        <time>2020-05-30T17:37:59Z</time>
      </trkpt>
      <trkpt lat="46.51647" lon="0.06256">
        <ele>152.8</ele>
        <time>2020-05-30T17:38:00Z</time>
      </trkpt>
      <trkpt lat="46.51647" lon="0.06256">
        <ele>152.8</ele>
        <time>2020-05-30T17:38:01Z</time>
      </trkpt>
      <trkpt lat="46.51647" lon="0.06256">
        <ele>152.8</ele>
        <time>2020-05-30T17:38:02Z</time>
      </trkpt>
      <trkpt lat="46.51647" lon="0.06256">
        <ele>152.8</ele>
        <time>2020-05-30T17:38:03Z</time>
      </trkpt>
      <trkpt lat="46.51647" lon="0.06256">
        <ele>152.8</ele>
        <time>2020-05-30T17:38:04Z</time>
      </trkpt>
      <trkpt lat="46.51647" lon="0.06256">
        <ele>152.8</ele>
        <time>2020-05-30T17:38:05Z</time>
      </trkpt>
      <trkpt lat="46.51647" lon="0.06256">
        <ele>152.8</ele>
        <time>2020-05-30T17:38:06Z</time>
      </trkpt>
      <trkpt lat="46.51647" lon="0.06255">
        <ele>152.8</ele>
        <time>2020-05-30T17:38:07Z</time>
      </trkpt>
      <trkpt lat="46.51647" lon="0.06255">
        <ele>152.8</ele>
        <time>2020-05-30T17:38:08Z</time>
      </trkpt>
      <trkpt lat="46.51647" lon="0.06255">
        <ele>152.8</ele>
        <time>2020-05-30T17:38:09Z</time>
      </trkpt>
      <trkpt lat="46.51647" lon="0.06255">
        <ele>152.8</ele>
        <time>2020-05-30T17:38:10Z</time>
      </trkpt>
      <trkpt lat="46.51647" lon="0.06255">
        <ele>152.8</ele>
        <time>2020-05-30T17:38:11Z</time>
      </trkpt>
      <trkpt lat="46.51647" lon="0.06255">
        <ele>152.7</ele>
        <time>2020-05-30T17:38:12Z</time>
      </trkpt>
      <trkpt lat="46.51647" lon="0.06255">
        <ele>152.7</ele>
        <time>2020-05-30T17:38:13Z</time>
      </trkpt>
      <trkpt lat="46.51647" lon="0.06255">
        <ele>152.7</ele>
        <time>2020-05-30T17:38:14Z</time>
      </trkpt>
      <trkpt lat="46.51647" lon="0.06255">
        <ele>152.7</ele>
        <time>2020-05-30T17:38:15Z</time>
      </trkpt>
      <trkpt lat="46.51647" lon="0.06255">
        <ele>152.7</ele>
        <time>2020-05-30T17:38:16Z</time>
      </trkpt>
      <trkpt lat="46.51647" lon="0.06255">
        <ele>152.7</ele>
        <time>2020-05-30T17:38:17Z</time>
      </trkpt>
      <trkpt lat="46.51647" lon="0.06255">
        <ele>152.7</ele>
        <time>2020-05-30T17:38:18Z</time>
      </trkpt>
      <trkpt lat="46.51647" lon="0.06255">
        <ele>152.7</ele>
        <time>2020-05-30T17:38:19Z</time>
      </trkpt>
      <trkpt lat="46.51647" lon="0.06255">
        <ele>152.7</ele>
        <time>2020-05-30T17:38:20Z</time>
      </trkpt>
      <trkpt lat="46.51646" lon="0.06255">
        <ele>152.7</ele>
        <time>2020-05-30T17:38:21Z</time>
      </trkpt>
      <trkpt lat="46.51646" lon="0.06255">
        <ele>152.7</ele>
        <time>2020-05-30T17:38:22Z</time>
      </trkpt>
      <trkpt lat="46.51646" lon="0.06255">
        <ele>152.7</ele>
        <time>2020-05-30T17:38:23Z</time>
      </trkpt>
      <trkpt lat="46.51646" lon="0.06255">
        <ele>152.7</ele>
        <time>2020-05-30T17:38:24Z</time>
      </trkpt>
      <trkpt lat="46.51646" lon="0.06254">
        <ele>152.7</ele>
        <time>2020-05-30T17:38:25Z</time>
      </trkpt>
      <trkpt lat="46.51646" lon="0.06254">
        <ele>152.7</ele>
        <time>2020-05-30T17:38:26Z</time>
      </trkpt>
      <trkpt lat="46.51646" lon="0.06255">
        <ele>152.7</ele>
        <time>2020-05-30T17:38:27Z</time>
      </trkpt>
      <trkpt lat="46.51646" lon="0.06255">
        <ele>152.7</ele>
        <time>2020-05-30T17:38:28Z</time>
      </trkpt>
      <trkpt lat="46.51646" lon="0.06255">
        <ele>152.7</ele>
        <time>2020-05-30T17:38:29Z</time>
      </trkpt>
      <trkpt lat="46.51646" lon="0.06255">
        <ele>152.7</ele>
        <time>2020-05-30T17:38:30Z</time>
      </trkpt>
      <trkpt lat="46.51646" lon="0.06255">
        <ele>152.7</ele>
        <time>2020-05-30T17:38:31Z</time>
      </trkpt>
      <trkpt lat="46.51646" lon="0.06255">
        <ele>152.7</ele>
        <time>2020-05-30T17:38:32Z</time>
      </trkpt>
      <trkpt lat="46.51646" lon="0.06255">
        <ele>152.7</ele>
        <time>2020-05-30T17:38:33Z</time>
      </trkpt>
      <trkpt lat="46.51646" lon="0.06255">
        <ele>152.7</ele>
        <time>2020-05-30T17:38:34Z</time>
      </trkpt>
      <trkpt lat="46.51646" lon="0.06255">
        <ele>152.7</ele>
        <time>2020-05-30T17:38:35Z</time>
      </trkpt>
      <trkpt lat="46.51647" lon="0.06255">
        <ele>152.7</ele>
        <time>2020-05-30T17:38:36Z</time>
      </trkpt>
      <trkpt lat="46.51647" lon="0.06255">
        <ele>152.7</ele>
        <time>2020-05-30T17:38:37Z</time>
      </trkpt>
      <trkpt lat="46.51647" lon="0.06254">
        <ele>152.7</ele>
        <time>2020-05-30T17:38:38Z</time>
      </trkpt>
      <trkpt lat="46.51647" lon="0.06254">
        <ele>152.7</ele>
        <time>2020-05-30T17:38:39Z</time>
      </trkpt>
      <trkpt lat="46.51647" lon="0.06254">
        <ele>152.7</ele>
        <time>2020-05-30T17:38:40Z</time>
      </trkpt>
      <trkpt lat="46.51646" lon="0.06254">
        <ele>152.7</ele>
        <time>2020-05-30T17:38:41Z</time>
      </trkpt>
      <trkpt lat="46.51646" lon="0.06254">
        <ele>152.7</ele>
        <time>2020-05-30T17:38:42Z</time>
      </trkpt>
      <trkpt lat="46.51647" lon="0.06254">
        <ele>152.7</ele>
        <time>2020-05-30T17:38:43Z</time>
      </trkpt>
      <trkpt lat="46.51647" lon="0.06254">
        <ele>152.7</ele>
        <time>2020-05-30T17:38:44Z</time>
      </trkpt>
      <trkpt lat="46.51646" lon="0.06254">
        <ele>152.7</ele>
        <time>2020-05-30T17:38:45Z</time>
      </trkpt>
      <trkpt lat="46.51646" lon="0.06254">
        <ele>152.7</ele>
        <time>2020-05-30T17:38:46Z</time>
      </trkpt>
      <trkpt lat="46.51646" lon="0.06254">
        <ele>152.7</ele>
        <time>2020-05-30T17:38:47Z</time>
      </trkpt>
      <trkpt lat="46.51646" lon="0.06254">
        <ele>152.7</ele>
        <time>2020-05-30T17:38:48Z</time>
      </trkpt>
      <trkpt lat="46.51646" lon="0.06254">
        <ele>152.7</ele>
        <time>2020-05-30T17:38:49Z</time>
      </trkpt>
      <trkpt lat="46.51646" lon="0.06254">
        <ele>152.7</ele>
        <time>2020-05-30T17:38:50Z</time>
      </trkpt>
      <trkpt lat="46.51646" lon="0.06254">
        <ele>152.7</ele>
        <time>2020-05-30T17:38:51Z</time>
      </trkpt>
      <trkpt lat="46.51646" lon="0.06253">
        <ele>152.7</ele>
        <time>2020-05-30T17:38:52Z</time>
      </trkpt>
      <trkpt lat="46.51646" lon="0.06254">
        <ele>152.7</ele>
        <time>2020-05-30T17:38:53Z</time>
      </trkpt>
      <trkpt lat="46.51646" lon="0.06254">
        <ele>152.7</ele>
        <time>2020-05-30T17:38:54Z</time>
      </trkpt>
      <trkpt lat="46.51646" lon="0.06254">
        <ele>152.7</ele>
        <time>2020-05-30T17:38:55Z</time>
      </trkpt>
      <trkpt lat="46.51646" lon="0.06254">
        <ele>152.7</ele>
        <time>2020-05-30T17:38:56Z</time>
      </trkpt>
      <trkpt lat="46.51646" lon="0.06254">
        <ele>152.7</ele>
        <time>2020-05-30T17:38:57Z</time>
      </trkpt>
      <trkpt lat="46.51646" lon="0.06254">
        <ele>152.7</ele>
        <time>2020-05-30T17:38:58Z</time>
      </trkpt>
      <trkpt lat="46.51646" lon="0.06254">
        <ele>152.7</ele>
        <time>2020-05-30T17:38:59Z</time>
      </trkpt>
      <trkpt lat="46.51646" lon="0.06254">
        <ele>152.7</ele>
        <time>2020-05-30T17:39:00Z</time>
      </trkpt>
      <trkpt lat="46.51646" lon="0.06255">
        <ele>152.7</ele>
        <time>2020-05-30T17:39:01Z</time>
      </trkpt>
      <trkpt lat="46.51646" lon="0.06255">
        <ele>152.7</ele>
        <time>2020-05-30T17:39:02Z</time>
      </trkpt>
      <trkpt lat="46.51646" lon="0.06255">
        <ele>152.7</ele>
        <time>2020-05-30T17:39:03Z</time>
      </trkpt>
      <trkpt lat="46.51646" lon="0.06255">
        <ele>152.7</ele>
        <time>2020-05-30T17:39:04Z</time>
      </trkpt>
      <trkpt lat="46.51646" lon="0.06255">
        <ele>152.7</ele>
        <time>2020-05-30T17:39:05Z</time>
      </trkpt>
      <trkpt lat="46.51646" lon="0.06255">
        <ele>152.7</ele>
        <time>2020-05-30T17:39:06Z</time>
      </trkpt>
      <trkpt lat="46.51646" lon="0.06255">
        <ele>152.7</ele>
        <time>2020-05-30T17:39:07Z</time>
      </trkpt>
      <trkpt lat="46.51646" lon="0.06255">
        <ele>152.7</ele>
        <time>2020-05-30T17:39:08Z</time>
      </trkpt>
      <trkpt lat="46.51646" lon="0.06255">
        <ele>152.7</ele>
        <time>2020-05-30T17:39:09Z</time>
      </trkpt>
      <trkpt lat="46.51646" lon="0.06255">
        <ele>152.7</ele>
        <time>2020-05-30T17:39:10Z</time>
      </trkpt>
      <trkpt lat="46.51646" lon="0.06255">
        <ele>152.7</ele>
        <time>2020-05-30T17:39:11Z</time>
      </trkpt>
      <trkpt lat="46.51646" lon="0.06255">
        <ele>152.6</ele>
        <time>2020-05-30T17:39:12Z</time>
      </trkpt>
      <trkpt lat="46.51646" lon="0.06255">
        <ele>152.6</ele>
        <time>2020-05-30T17:39:13Z</time>
      </trkpt>
      <trkpt lat="46.51646" lon="0.06255">
        <ele>152.6</ele>
        <time>2020-05-30T17:39:14Z</time>
      </trkpt>
      <trkpt lat="46.51646" lon="0.06255">
        <ele>152.6</ele>
        <time>2020-05-30T17:39:15Z</time>
      </trkpt>
      <trkpt lat="46.51646" lon="0.06255">
        <ele>152.6</ele>
        <time>2020-05-30T17:39:16Z</time>
      </trkpt>
      <trkpt lat="46.51646" lon="0.06255">
        <ele>152.6</ele>
        <time>2020-05-30T17:39:17Z</time>
      </trkpt>
      <trkpt lat="46.51647" lon="0.06255">
        <ele>152.6</ele>
        <time>2020-05-30T17:39:18Z</time>
      </trkpt>
      <trkpt lat="46.51647" lon="0.06255">
        <ele>152.6</ele>
        <time>2020-05-30T17:39:19Z</time>
      </trkpt>
      <trkpt lat="46.51646" lon="0.06255">
        <ele>152.6</ele>
        <time>2020-05-30T17:39:20Z</time>
      </trkpt>
      <trkpt lat="46.51646" lon="0.06255">
        <ele>152.6</ele>
        <time>2020-05-30T17:39:21Z</time>
      </trkpt>
      <trkpt lat="46.51646" lon="0.06255">
        <ele>152.6</ele>
        <time>2020-05-30T17:39:22Z</time>
      </trkpt>
      <trkpt lat="46.51646" lon="0.06255">
        <ele>152.6</ele>
        <time>2020-05-30T17:39:23Z</time>
      </trkpt>
      <trkpt lat="46.51646" lon="0.06255">
        <ele>152.6</ele>
        <time>2020-05-30T17:39:24Z</time>
      </trkpt>
      <trkpt lat="46.51646" lon="0.06255">
        <ele>152.6</ele>
        <time>2020-05-30T17:39:25Z</time>
      </trkpt>
      <trkpt lat="46.51646" lon="0.06255">
        <ele>152.6</ele>
        <time>2020-05-30T17:39:26Z</time>
      </trkpt>
      <trkpt lat="46.51646" lon="0.06255">
        <ele>152.6</ele>
        <time>2020-05-30T17:39:27Z</time>
      </trkpt>
      <trkpt lat="46.51646" lon="0.06255">
        <ele>152.6</ele>
        <time>2020-05-30T17:39:28Z</time>
      </trkpt>
      <trkpt lat="46.51646" lon="0.06255">
        <ele>152.6</ele>
        <time>2020-05-30T17:39:29Z</time>
      </trkpt>
      <trkpt lat="46.51646" lon="0.06255">
        <ele>152.6</ele>
        <time>2020-05-30T17:39:30Z</time>
      </trkpt>
      <trkpt lat="46.51646" lon="0.06255">
        <ele>152.6</ele>
        <time>2020-05-30T17:39:31Z</time>
      </trkpt>
      <trkpt lat="46.51646" lon="0.06255">
        <ele>152.6</ele>
        <time>2020-05-30T17:39:32Z</time>
      </trkpt>
      <trkpt lat="46.51646" lon="0.06255">
        <ele>152.6</ele>
        <time>2020-05-30T17:39:33Z</time>
      </trkpt>
      <trkpt lat="46.51646" lon="0.06255">
        <ele>152.6</ele>
        <time>2020-05-30T17:39:34Z</time>
      </trkpt>
      <trkpt lat="46.51646" lon="0.06255">
        <ele>152.6</ele>
        <time>2020-05-30T17:39:35Z</time>
      </trkpt>
      <trkpt lat="46.51646" lon="0.06255">
        <ele>152.6</ele>
        <time>2020-05-30T17:39:36Z</time>
      </trkpt>
      <trkpt lat="46.51646" lon="0.06255">
        <ele>152.6</ele>
        <time>2020-05-30T17:39:37Z</time>
      </trkpt>
      <trkpt lat="46.51646" lon="0.06255">
        <ele>152.6</ele>
        <time>2020-05-30T17:39:38Z</time>
      </trkpt>
      <trkpt lat="46.51646" lon="0.06255">
        <ele>152.6</ele>
        <time>2020-05-30T17:39:39Z</time>
      </trkpt>
      <trkpt lat="46.51646" lon="0.06255">
        <ele>152.6</ele>
        <time>2020-05-30T17:39:40Z</time>
      </trkpt>
      <trkpt lat="46.51646" lon="0.06255">
        <ele>152.6</ele>
        <time>2020-05-30T17:39:41Z</time>
      </trkpt>
      <trkpt lat="46.51646" lon="0.06255">
        <ele>152.6</ele>
        <time>2020-05-30T17:39:42Z</time>
      </trkpt>
      <trkpt lat="46.51646" lon="0.06255">
        <ele>152.6</ele>
        <time>2020-05-30T17:39:43Z</time>
      </trkpt>
      <trkpt lat="46.51646" lon="0.06255">
        <ele>152.6</ele>
        <time>2020-05-30T17:39:44Z</time>
      </trkpt>
      <trkpt lat="46.51646" lon="0.06255">
        <ele>152.6</ele>
        <time>2020-05-30T17:39:45Z</time>
      </trkpt>
      <trkpt lat="46.51645" lon="0.06255">
        <ele>152.6</ele>
        <time>2020-05-30T17:39:46Z</time>
      </trkpt>
      <trkpt lat="46.51645" lon="0.06255">
        <ele>152.6</ele>
        <time>2020-05-30T17:39:47Z</time>
      </trkpt>
      <trkpt lat="46.51645" lon="0.06255">
        <ele>152.6</ele>
        <time>2020-05-30T17:39:48Z</time>
      </trkpt>
      <trkpt lat="46.51645" lon="0.06255">
        <ele>152.6</ele>
        <time>2020-05-30T17:39:49Z</time>
      </trkpt>
      <trkpt lat="46.51645" lon="0.06255">
        <ele>152.6</ele>
        <time>2020-05-30T17:39:50Z</time>
      </trkpt>
      <trkpt lat="46.51645" lon="0.06254">
        <ele>152.6</ele>
        <time>2020-05-30T17:39:51Z</time>
      </trkpt>
      <trkpt lat="46.51645" lon="0.06254">
        <ele>152.6</ele>
        <time>2020-05-30T17:39:52Z</time>
      </trkpt>
      <trkpt lat="46.51645" lon="0.06255">
        <ele>152.6</ele>
        <time>2020-05-30T17:39:53Z</time>
      </trkpt>
      <trkpt lat="46.51645" lon="0.06255">
        <ele>152.6</ele>
        <time>2020-05-30T17:39:54Z</time>
      </trkpt>
      <trkpt lat="46.51645" lon="0.06255">
        <ele>152.6</ele>
        <time>2020-05-30T17:39:55Z</time>
      </trkpt>
      <trkpt lat="46.51645" lon="0.06255">
        <ele>152.6</ele>
        <time>2020-05-30T17:39:56Z</time>
      </trkpt>
      <trkpt lat="46.51645" lon="0.06255">
        <ele>152.6</ele>
        <time>2020-05-30T17:39:57Z</time>
      </trkpt>
      <trkpt lat="46.51645" lon="0.06255">
        <ele>152.6</ele>
        <time>2020-05-30T17:39:58Z</time>
      </trkpt>
      <trkpt lat="46.51645" lon="0.06255">
        <ele>152.6</ele>
        <time>2020-05-30T17:39:59Z</time>
      </trkpt>
      <trkpt lat="46.51645" lon="0.06255">
        <ele>152.6</ele>
        <time>2020-05-30T17:40:00Z</time>
      </trkpt>
      <trkpt lat="46.51645" lon="0.06255">
        <ele>152.6</ele>
        <time>2020-05-30T17:40:01Z</time>
      </trkpt>
      <trkpt lat="46.51645" lon="0.06255">
        <ele>152.6</ele>
        <time>2020-05-30T17:40:02Z</time>
      </trkpt>
      <trkpt lat="46.51645" lon="0.06255">
        <ele>152.6</ele>
        <time>2020-05-30T17:40:03Z</time>
      </trkpt>
      <trkpt lat="46.51645" lon="0.06255">
        <ele>152.6</ele>
        <time>2020-05-30T17:40:04Z</time>
      </trkpt>
      <trkpt lat="46.51645" lon="0.06255">
        <ele>152.6</ele>
        <time>2020-05-30T17:40:05Z</time>
      </trkpt>
      <trkpt lat="46.51645" lon="0.06255">
        <ele>152.6</ele>
        <time>2020-05-30T17:40:06Z</time>
      </trkpt>
      <trkpt lat="46.51645" lon="0.06255">
        <ele>152.6</ele>
        <time>2020-05-30T17:40:07Z</time>
      </trkpt>
      <trkpt lat="46.51645" lon="0.06255">
        <ele>152.6</ele>
        <time>2020-05-30T17:40:08Z</time>
      </trkpt>
      <trkpt lat="46.51645" lon="0.06255">
        <ele>152.6</ele>
        <time>2020-05-30T17:40:09Z</time>
      </trkpt>
      <trkpt lat="46.51645" lon="0.06255">
        <ele>152.6</ele>
        <time>2020-05-30T17:40:10Z</time>
      </trkpt>
      <trkpt lat="46.51644" lon="0.06255">
        <ele>152.6</ele>
        <time>2020-05-30T17:40:11Z</time>
      </trkpt>
      <trkpt lat="46.51644" lon="0.06255">
        <ele>152.6</ele>
        <time>2020-05-30T17:40:12Z</time>
      </trkpt>
      <trkpt lat="46.51644" lon="0.06255">
        <ele>152.6</ele>
        <time>2020-05-30T17:40:13Z</time>
      </trkpt>
      <trkpt lat="46.51644" lon="0.06255">
        <ele>152.6</ele>
        <time>2020-05-30T17:40:14Z</time>
      </trkpt>
      <trkpt lat="46.51644" lon="0.06255">
        <ele>152.6</ele>
        <time>2020-05-30T17:40:15Z</time>
      </trkpt>
      <trkpt lat="46.51644" lon="0.06255">
        <ele>152.6</ele>
        <time>2020-05-30T17:40:16Z</time>
      </trkpt>
      <trkpt lat="46.51644" lon="0.06255">
        <ele>152.6</ele>
        <time>2020-05-30T17:40:17Z</time>
      </trkpt>
      <trkpt lat="46.51644" lon="0.06255">
        <ele>152.6</ele>
        <time>2020-05-30T17:40:18Z</time>
      </trkpt>
      <trkpt lat="46.51644" lon="0.06254">
        <ele>152.6</ele>
        <time>2020-05-30T17:40:19Z</time>
      </trkpt>
      <trkpt lat="46.51644" lon="0.06254">
        <ele>152.6</ele>
        <time>2020-05-30T17:40:20Z</time>
      </trkpt>
      <trkpt lat="46.51644" lon="0.06254">
        <ele>152.6</ele>
        <time>2020-05-30T17:40:21Z</time>
      </trkpt>
      <trkpt lat="46.51644" lon="0.06254">
        <ele>152.6</ele>
        <time>2020-05-30T17:40:22Z</time>
      </trkpt>
      <trkpt lat="46.51644" lon="0.06254">
        <ele>152.6</ele>
        <time>2020-05-30T17:40:23Z</time>
      </trkpt>
      <trkpt lat="46.51644" lon="0.06254">
        <ele>152.6</ele>
        <time>2020-05-30T17:40:24Z</time>
      </trkpt>
      <trkpt lat="46.51644" lon="0.06254">
        <ele>152.6</ele>
        <time>2020-05-30T17:40:25Z</time>
      </trkpt>
      <trkpt lat="46.51644" lon="0.06254">
        <ele>152.6</ele>
        <time>2020-05-30T17:40:26Z</time>
      </trkpt>
      <trkpt lat="46.51644" lon="0.06254">
        <ele>152.5</ele>
        <time>2020-05-30T17:40:27Z</time>
      </trkpt>
      <trkpt lat="46.51643" lon="0.06254">
        <ele>152.5</ele>
        <time>2020-05-30T17:40:28Z</time>
      </trkpt>
      <trkpt lat="46.51643" lon="0.06254">
        <ele>152.5</ele>
        <time>2020-05-30T17:40:29Z</time>
      </trkpt>
      <trkpt lat="46.51643" lon="0.06254">
        <ele>152.5</ele>
        <time>2020-05-30T17:40:30Z</time>
      </trkpt>
      <trkpt lat="46.51644" lon="0.06254">
        <ele>152.5</ele>
        <time>2020-05-30T17:40:31Z</time>
      </trkpt>
      <trkpt lat="46.51643" lon="0.06254">
        <ele>152.5</ele>
        <time>2020-05-30T17:40:32Z</time>
      </trkpt>
      <trkpt lat="46.51643" lon="0.06254">
        <ele>152.5</ele>
        <time>2020-05-30T17:40:33Z</time>
      </trkpt>
      <trkpt lat="46.51643" lon="0.06255">
        <ele>152.5</ele>
        <time>2020-05-30T17:40:34Z</time>
      </trkpt>
      <trkpt lat="46.51643" lon="0.06254">
        <ele>152.5</ele>
        <time>2020-05-30T17:40:35Z</time>
      </trkpt>
      <trkpt lat="46.51643" lon="0.06254">
        <ele>152.5</ele>
        <time>2020-05-30T17:40:36Z</time>
      </trkpt>
      <trkpt lat="46.51643" lon="0.06254">
        <ele>152.5</ele>
        <time>2020-05-30T17:40:37Z</time>
      </trkpt>
      <trkpt lat="46.51643" lon="0.06254">
        <ele>152.5</ele>
        <time>2020-05-30T17:40:38Z</time>
      </trkpt>
      <trkpt lat="46.51642" lon="0.06253">
        <ele>152.5</ele>
        <time>2020-05-30T17:40:39Z</time>
      </trkpt>
      <trkpt lat="46.51641" lon="0.06253">
        <ele>152.5</ele>
        <time>2020-05-30T17:40:40Z</time>
      </trkpt>
      <trkpt lat="46.5164" lon="0.06253">
        <ele>152.5</ele>
        <time>2020-05-30T17:40:41Z</time>
      </trkpt>
      <trkpt lat="46.51639" lon="0.06251">
        <ele>152.5</ele>
        <time>2020-05-30T17:40:42Z</time>
      </trkpt>
      <trkpt lat="46.51639" lon="0.0625">
        <ele>152.4</ele>
        <time>2020-05-30T17:40:43Z</time>
      </trkpt>
      <trkpt lat="46.5164" lon="0.06247">
        <ele>152.4</ele>
        <time>2020-05-30T17:40:44Z</time>
      </trkpt>
      <trkpt lat="46.51639" lon="0.06242">
        <ele>152.4</ele>
        <time>2020-05-30T17:40:45Z</time>
      </trkpt>
      <trkpt lat="46.51639" lon="0.06241">
        <ele>152.4</ele>
        <time>2020-05-30T17:40:46Z</time>
      </trkpt>
      <trkpt lat="46.51637" lon="0.06235">
        <ele>152.3</ele>
        <time>2020-05-30T17:40:47Z</time>
      </trkpt>
      <trkpt lat="46.51636" lon="0.06233">
        <ele>152.3</ele>
        <time>2020-05-30T17:40:48Z</time>
      </trkpt>
      <trkpt lat="46.51635" lon="0.0623">
        <ele>152.3</ele>
        <time>2020-05-30T17:40:49Z</time>
      </trkpt>
      <trkpt lat="46.51635" lon="0.06228">
        <ele>152.3</ele>
        <time>2020-05-30T17:40:50Z</time>
      </trkpt>
      <trkpt lat="46.51634" lon="0.06224">
        <ele>152.2</ele>
        <time>2020-05-30T17:40:51Z</time>
      </trkpt>
      <trkpt lat="46.51632" lon="0.06218">
        <ele>152.2</ele>
        <time>2020-05-30T17:40:52Z</time>
      </trkpt>
      <trkpt lat="46.51632" lon="0.06217">
        <ele>152.2</ele>
        <time>2020-05-30T17:40:53Z</time>
      </trkpt>
      <trkpt lat="46.5163" lon="0.06209">
        <ele>152.2</ele>
        <time>2020-05-30T17:40:54Z</time>
      </trkpt>
      <trkpt lat="46.51629" lon="0.06204">
        <ele>152.2</ele>
        <time>2020-05-30T17:40:55Z</time>
      </trkpt>
      <trkpt lat="46.51628" lon="0.06196">
        <ele>152.1</ele>
        <time>2020-05-30T17:40:56Z</time>
      </trkpt>
      <trkpt lat="46.51626" lon="0.06189">
        <ele>152.1</ele>
        <time>2020-05-30T17:40:57Z</time>
      </trkpt>
      <trkpt lat="46.51624" lon="0.0618">
        <ele>152.1</ele>
        <time>2020-05-30T17:40:58Z</time>
      </trkpt>
      <trkpt lat="46.51623" lon="0.06171">
        <ele>152.1</ele>
        <time>2020-05-30T17:40:59Z</time>
      </trkpt>
      <trkpt lat="46.5162" lon="0.0616">
        <ele>152</ele>
        <time>2020-05-30T17:41:00Z</time>
      </trkpt>
      <trkpt lat="46.51617" lon="0.06151">
        <ele>152</ele>
        <time>2020-05-30T17:41:01Z</time>
      </trkpt>
      <trkpt lat="46.51616" lon="0.06142">
        <ele>152</ele>
        <time>2020-05-30T17:41:02Z</time>
      </trkpt>
      <trkpt lat="46.51614" lon="0.06132">
        <ele>151.9</ele>
        <time>2020-05-30T17:41:03Z</time>
      </trkpt>
      <trkpt lat="46.51612" lon="0.06124">
        <ele>151.9</ele>
        <time>2020-05-30T17:41:04Z</time>
      </trkpt>
      <trkpt lat="46.51611" lon="0.06114">
        <ele>151.8</ele>
        <time>2020-05-30T17:41:05Z</time>
      </trkpt>
      <trkpt lat="46.5161" lon="0.06105">
        <ele>151.8</ele>
        <time>2020-05-30T17:41:06Z</time>
      </trkpt>
      <trkpt lat="46.51609" lon="0.06097">
        <ele>151.8</ele>
        <time>2020-05-30T17:41:07Z</time>
      </trkpt>
      <trkpt lat="46.51608" lon="0.06088">
        <ele>151.8</ele>
        <time>2020-05-30T17:41:08Z</time>
      </trkpt>
      <trkpt lat="46.51607" lon="0.06081">
        <ele>151.8</ele>
        <time>2020-05-30T17:41:09Z</time>
      </trkpt>
      <trkpt lat="46.51606" lon="0.06073">
        <ele>151.7</ele>
        <time>2020-05-30T17:41:10Z</time>
      </trkpt>
      <trkpt lat="46.51606" lon="0.06063">
        <ele>151.7</ele>
        <time>2020-05-30T17:41:11Z</time>
      </trkpt>
      <trkpt lat="46.51605" lon="0.06056">
        <ele>151.7</ele>
        <time>2020-05-30T17:41:12Z</time>
      </trkpt>
      <trkpt lat="46.51604" lon="0.06048">
        <ele>151.7</ele>
        <time>2020-05-30T17:41:13Z</time>
      </trkpt>
      <trkpt lat="46.51603" lon="0.06039">
        <ele>151.7</ele>
        <time>2020-05-30T17:41:14Z</time>
      </trkpt>
      <trkpt lat="46.51601" lon="0.06031">
        <ele>151.7</ele>
        <time>2020-05-30T17:41:15Z</time>
      </trkpt>
      <trkpt lat="46.516" lon="0.06023">
        <ele>151.7</ele>
        <time>2020-05-30T17:41:16Z</time>
      </trkpt>
      <trkpt lat="46.51598" lon="0.06014">
        <ele>151.7</ele>
        <time>2020-05-30T17:41:17Z</time>
      </trkpt>
      <trkpt lat="46.51597" lon="0.06005">
        <ele>151.7</ele>
        <time>2020-05-30T17:41:18Z</time>
      </trkpt>
      <trkpt lat="46.51595" lon="0.05998">
        <ele>151.7</ele>
        <time>2020-05-30T17:41:19Z</time>
      </trkpt>
      <trkpt lat="46.51593" lon="0.05989">
        <ele>151.8</ele>
        <time>2020-05-30T17:41:20Z</time>
      </trkpt>
      <trkpt lat="46.51592" lon="0.0598">
        <ele>151.8</ele>
        <time>2020-05-30T17:41:21Z</time>
      </trkpt>
      <trkpt lat="46.5159" lon="0.05971">
        <ele>151.9</ele>
        <time>2020-05-30T17:41:22Z</time>
      </trkpt>
      <trkpt lat="46.51589" lon="0.05964">
        <ele>151.9</ele>
        <time>2020-05-30T17:41:23Z</time>
      </trkpt>
      <trkpt lat="46.51587" lon="0.05955">
        <ele>151.9</ele>
        <time>2020-05-30T17:41:24Z</time>
      </trkpt>
      <trkpt lat="46.51586" lon="0.05946">
        <ele>152</ele>
        <time>2020-05-30T17:41:25Z</time>
      </trkpt>
      <trkpt lat="46.51585" lon="0.05938">
        <ele>152</ele>
        <time>2020-05-30T17:41:26Z</time>
      </trkpt>
      <trkpt lat="46.51584" lon="0.05929">
        <ele>152.1</ele>
        <time>2020-05-30T17:41:27Z</time>
      </trkpt>
      <trkpt lat="46.51582" lon="0.05922">
        <ele>152.2</ele>
        <time>2020-05-30T17:41:28Z</time>
      </trkpt>
      <trkpt lat="46.51581" lon="0.05915">
        <ele>152.2</ele>
        <time>2020-05-30T17:41:29Z</time>
      </trkpt>
      <trkpt lat="46.5158" lon="0.05909">
        <ele>152.3</ele>
        <time>2020-05-30T17:41:30Z</time>
      </trkpt>
      <trkpt lat="46.51579" lon="0.059">
        <ele>152.4</ele>
        <time>2020-05-30T17:41:31Z</time>
      </trkpt>
      <trkpt lat="46.51578" lon="0.05893">
        <ele>152.5</ele>
        <time>2020-05-30T17:41:32Z</time>
      </trkpt>
      <trkpt lat="46.51577" lon="0.05884">
        <ele>152.6</ele>
        <time>2020-05-30T17:41:33Z</time>
      </trkpt>
      <trkpt lat="46.51576" lon="0.05876">
        <ele>152.6</ele>
        <time>2020-05-30T17:41:34Z</time>
      </trkpt>
      <trkpt lat="46.51575" lon="0.05868">
        <ele>152.6</ele>
        <time>2020-05-30T17:41:35Z</time>
      </trkpt>
      <trkpt lat="46.51574" lon="0.05861">
        <ele>152.7</ele>
        <time>2020-05-30T17:41:36Z</time>
      </trkpt>
      <trkpt lat="46.51573" lon="0.05854">
        <ele>152.7</ele>
        <time>2020-05-30T17:41:37Z</time>
      </trkpt>
      <trkpt lat="46.51571" lon="0.05848">
        <ele>152.7</ele>
        <time>2020-05-30T17:41:38Z</time>
      </trkpt>
      <trkpt lat="46.5157" lon="0.0584">
        <ele>152.7</ele>
        <time>2020-05-30T17:41:39Z</time>
      </trkpt>
      <trkpt lat="46.5157" lon="0.05832">
        <ele>152.8</ele>
        <time>2020-05-30T17:41:40Z</time>
      </trkpt>
      <trkpt lat="46.51568" lon="0.05823">
        <ele>152.8</ele>
        <time>2020-05-30T17:41:41Z</time>
      </trkpt>
      <trkpt lat="46.51567" lon="0.05815">
        <ele>152.8</ele>
        <time>2020-05-30T17:41:42Z</time>
      </trkpt>
      <trkpt lat="46.51565" lon="0.05808">
        <ele>152.9</ele>
        <time>2020-05-30T17:41:43Z</time>
      </trkpt>
      <trkpt lat="46.51564" lon="0.058">
        <ele>152.9</ele>
        <time>2020-05-30T17:41:44Z</time>
      </trkpt>
      <trkpt lat="46.51563" lon="0.05791">
        <ele>153</ele>
        <time>2020-05-30T17:41:45Z</time>
      </trkpt>
      <trkpt lat="46.51561" lon="0.05784">
        <ele>153</ele>
        <time>2020-05-30T17:41:46Z</time>
      </trkpt>
      <trkpt lat="46.51559" lon="0.05776">
        <ele>153</ele>
        <time>2020-05-30T17:41:47Z</time>
      </trkpt>
      <trkpt lat="46.51558" lon="0.05769">
        <ele>153.1</ele>
        <time>2020-05-30T17:41:48Z</time>
      </trkpt>
      <trkpt lat="46.51556" lon="0.05761">
        <ele>153.1</ele>
        <time>2020-05-30T17:41:49Z</time>
      </trkpt>
      <trkpt lat="46.51554" lon="0.05754">
        <ele>153.1</ele>
        <time>2020-05-30T17:41:50Z</time>
      </trkpt>
      <trkpt lat="46.51553" lon="0.05746">
        <ele>153.1</ele>
        <time>2020-05-30T17:41:51Z</time>
      </trkpt>
      <trkpt lat="46.51552" lon="0.05739">
        <ele>153.2</ele>
        <time>2020-05-30T17:41:52Z</time>
      </trkpt>
      <trkpt lat="46.51551" lon="0.0573">
        <ele>153.3</ele>
        <time>2020-05-30T17:41:53Z</time>
      </trkpt>
      <trkpt lat="46.5155" lon="0.05721">
        <ele>153.3</ele>
        <time>2020-05-30T17:41:54Z</time>
      </trkpt>
      <trkpt lat="46.51549" lon="0.05712">
        <ele>153.4</ele>
        <time>2020-05-30T17:41:55Z</time>
      </trkpt>
      <trkpt lat="46.51548" lon="0.05704">
        <ele>153.5</ele>
        <time>2020-05-30T17:41:56Z</time>
      </trkpt>
      <trkpt lat="46.51547" lon="0.05696">
        <ele>153.5</ele>
        <time>2020-05-30T17:41:57Z</time>
      </trkpt>
      <trkpt lat="46.51545" lon="0.05688">
        <ele>153.6</ele>
        <time>2020-05-30T17:41:58Z</time>
      </trkpt>
      <trkpt lat="46.51545" lon="0.05681">
        <ele>153.6</ele>
        <time>2020-05-30T17:41:59Z</time>
      </trkpt>
      <trkpt lat="46.51544" lon="0.05674">
        <ele>153.6</ele>
        <time>2020-05-30T17:42:00Z</time>
      </trkpt>
      <trkpt lat="46.51543" lon="0.05666">
        <ele>153.7</ele>
        <time>2020-05-30T17:42:01Z</time>
      </trkpt>
      <trkpt lat="46.51542" lon="0.05658">
        <ele>153.7</ele>
        <time>2020-05-30T17:42:02Z</time>
      </trkpt>
      <trkpt lat="46.51541" lon="0.0565">
        <ele>153.8</ele>
        <time>2020-05-30T17:42:03Z</time>
      </trkpt>
      <trkpt lat="46.5154" lon="0.05642">
        <ele>153.8</ele>
        <time>2020-05-30T17:42:04Z</time>
      </trkpt>
      <trkpt lat="46.51539" lon="0.05634">
        <ele>153.8</ele>
        <time>2020-05-30T17:42:05Z</time>
      </trkpt>
      <trkpt lat="46.51538" lon="0.05626">
        <ele>153.9</ele>
        <time>2020-05-30T17:42:06Z</time>
      </trkpt>
      <trkpt lat="46.51538" lon="0.05619">
        <ele>153.9</ele>
        <time>2020-05-30T17:42:07Z</time>
      </trkpt>
      <trkpt lat="46.51538" lon="0.0561">
        <ele>154</ele>
        <time>2020-05-30T17:42:08Z</time>
      </trkpt>
      <trkpt lat="46.51537" lon="0.05601">
        <ele>154</ele>
        <time>2020-05-30T17:42:09Z</time>
      </trkpt>
      <trkpt lat="46.51536" lon="0.05592">
        <ele>154.1</ele>
        <time>2020-05-30T17:42:10Z</time>
      </trkpt>
      <trkpt lat="46.51534" lon="0.05585">
        <ele>154.1</ele>
        <time>2020-05-30T17:42:11Z</time>
      </trkpt>
      <trkpt lat="46.51533" lon="0.05577">
        <ele>154.2</ele>
        <time>2020-05-30T17:42:12Z</time>
      </trkpt>
      <trkpt lat="46.51532" lon="0.05569">
        <ele>154.2</ele>
        <time>2020-05-30T17:42:13Z</time>
      </trkpt>
      <trkpt lat="46.51532" lon="0.05562">
        <ele>154.2</ele>
        <time>2020-05-30T17:42:14Z</time>
      </trkpt>
      <trkpt lat="46.51532" lon="0.05554">
        <ele>154.3</ele>
        <time>2020-05-30T17:42:15Z</time>
      </trkpt>
      <trkpt lat="46.51531" lon="0.05545">
        <ele>154.3</ele>
        <time>2020-05-30T17:42:16Z</time>
      </trkpt>
      <trkpt lat="46.51529" lon="0.05536">
        <ele>154.3</ele>
        <time>2020-05-30T17:42:17Z</time>
      </trkpt>
      <trkpt lat="46.5153" lon="0.05527">
        <ele>154.3</ele>
        <time>2020-05-30T17:42:18Z</time>
      </trkpt>
      <trkpt lat="46.51531" lon="0.05518">
        <ele>154.3</ele>
        <time>2020-05-30T17:42:19Z</time>
      </trkpt>
      <trkpt lat="46.51532" lon="0.05509">
        <ele>154.3</ele>
        <time>2020-05-30T17:42:20Z</time>
      </trkpt>
      <trkpt lat="46.51532" lon="0.055">
        <ele>154.3</ele>
        <time>2020-05-30T17:42:21Z</time>
      </trkpt>
      <trkpt lat="46.51533" lon="0.05492">
        <ele>154.3</ele>
        <time>2020-05-30T17:42:22Z</time>
      </trkpt>
      <trkpt lat="46.51533" lon="0.05483">
        <ele>154.3</ele>
        <time>2020-05-30T17:42:23Z</time>
      </trkpt>
      <trkpt lat="46.51533" lon="0.05475">
        <ele>154.3</ele>
        <time>2020-05-30T17:42:24Z</time>
      </trkpt>
      <trkpt lat="46.51534" lon="0.05466">
        <ele>154.3</ele>
        <time>2020-05-30T17:42:25Z</time>
      </trkpt>
      <trkpt lat="46.51536" lon="0.05459">
        <ele>154.3</ele>
        <time>2020-05-30T17:42:26Z</time>
      </trkpt>
      <trkpt lat="46.51536" lon="0.05447">
        <ele>154.4</ele>
        <time>2020-05-30T17:42:27Z</time>
      </trkpt>
      <trkpt lat="46.51537" lon="0.05439">
        <ele>154.4</ele>
        <time>2020-05-30T17:42:28Z</time>
      </trkpt>
      <trkpt lat="46.51538" lon="0.0543">
        <ele>154.5</ele>
        <time>2020-05-30T17:42:29Z</time>
      </trkpt>
      <trkpt lat="46.51539" lon="0.05422">
        <ele>154.6</ele>
        <time>2020-05-30T17:42:30Z</time>
      </trkpt>
      <trkpt lat="46.51539" lon="0.05413">
        <ele>154.7</ele>
        <time>2020-05-30T17:42:31Z</time>
      </trkpt>
      <trkpt lat="46.51539" lon="0.05405">
        <ele>154.8</ele>
        <time>2020-05-30T17:42:32Z</time>
      </trkpt>
      <trkpt lat="46.51539" lon="0.05396">
        <ele>154.8</ele>
        <time>2020-05-30T17:42:33Z</time>
      </trkpt>
      <trkpt lat="46.51539" lon="0.05388">
        <ele>154.9</ele>
        <time>2020-05-30T17:42:34Z</time>
      </trkpt>
      <trkpt lat="46.5154" lon="0.05379">
        <ele>154.9</ele>
        <time>2020-05-30T17:42:35Z</time>
      </trkpt>
      <trkpt lat="46.51541" lon="0.0537">
        <ele>154.9</ele>
        <time>2020-05-30T17:42:36Z</time>
      </trkpt>
      <trkpt lat="46.51542" lon="0.05362">
        <ele>154.9</ele>
        <time>2020-05-30T17:42:37Z</time>
      </trkpt>
      <trkpt lat="46.51543" lon="0.05354">
        <ele>154.9</ele>
        <time>2020-05-30T17:42:38Z</time>
      </trkpt>
      <trkpt lat="46.51544" lon="0.05346">
        <ele>154.9</ele>
        <time>2020-05-30T17:42:39Z</time>
      </trkpt>
      <trkpt lat="46.51544" lon="0.05337">
        <ele>154.8</ele>
        <time>2020-05-30T17:42:40Z</time>
      </trkpt>
      <trkpt lat="46.51545" lon="0.05327">
        <ele>154.8</ele>
        <time>2020-05-30T17:42:41Z</time>
      </trkpt>
      <trkpt lat="46.51545" lon="0.05318">
        <ele>154.9</ele>
        <time>2020-05-30T17:42:42Z</time>
      </trkpt>
      <trkpt lat="46.51545" lon="0.05309">
        <ele>154.9</ele>
        <time>2020-05-30T17:42:43Z</time>
      </trkpt>
      <trkpt lat="46.51546" lon="0.053">
        <ele>154.9</ele>
        <time>2020-05-30T17:42:44Z</time>
      </trkpt>
      <trkpt lat="46.51546" lon="0.05293">
        <ele>155</ele>
        <time>2020-05-30T17:42:45Z</time>
      </trkpt>
      <trkpt lat="46.51547" lon="0.05286">
        <ele>155</ele>
        <time>2020-05-30T17:42:46Z</time>
      </trkpt>
      <trkpt lat="46.51547" lon="0.05279">
        <ele>155</ele>
        <time>2020-05-30T17:42:47Z</time>
      </trkpt>
      <trkpt lat="46.51548" lon="0.05272">
        <ele>155</ele>
        <time>2020-05-30T17:42:48Z</time>
      </trkpt>
      <trkpt lat="46.5155" lon="0.05262">
        <ele>155.1</ele>
        <time>2020-05-30T17:42:49Z</time>
      </trkpt>
      <trkpt lat="46.5155" lon="0.05255">
        <ele>155.1</ele>
        <time>2020-05-30T17:42:50Z</time>
      </trkpt>
      <trkpt lat="46.51551" lon="0.05245">
        <ele>155.2</ele>
        <time>2020-05-30T17:42:51Z</time>
      </trkpt>
      <trkpt lat="46.51552" lon="0.05236">
        <ele>155.3</ele>
        <time>2020-05-30T17:42:52Z</time>
      </trkpt>
      <trkpt lat="46.51552" lon="0.05229">
        <ele>155.3</ele>
        <time>2020-05-30T17:42:53Z</time>
      </trkpt>
      <trkpt lat="46.51553" lon="0.05219">
        <ele>155.4</ele>
        <time>2020-05-30T17:42:54Z</time>
      </trkpt>
      <trkpt lat="46.51554" lon="0.05211">
        <ele>155.5</ele>
        <time>2020-05-30T17:42:55Z</time>
      </trkpt>
      <trkpt lat="46.51555" lon="0.05204">
        <ele>155.5</ele>
        <time>2020-05-30T17:42:56Z</time>
      </trkpt>
      <trkpt lat="46.51556" lon="0.05194">
        <ele>155.5</ele>
        <time>2020-05-30T17:42:57Z</time>
      </trkpt>
      <trkpt lat="46.51556" lon="0.05185">
        <ele>155.6</ele>
        <time>2020-05-30T17:42:58Z</time>
      </trkpt>
      <trkpt lat="46.51556" lon="0.05176">
        <ele>155.6</ele>
        <time>2020-05-30T17:42:59Z</time>
      </trkpt>
      <trkpt lat="46.51557" lon="0.05169">
        <ele>155.6</ele>
        <time>2020-05-30T17:43:00Z</time>
      </trkpt>
      <trkpt lat="46.51559" lon="0.0516">
        <ele>155.6</ele>
        <time>2020-05-30T17:43:01Z</time>
      </trkpt>
      <trkpt lat="46.51559" lon="0.05153">
        <ele>155.7</ele>
        <time>2020-05-30T17:43:02Z</time>
      </trkpt>
      <trkpt lat="46.5156" lon="0.05144">
        <ele>155.7</ele>
        <time>2020-05-30T17:43:03Z</time>
      </trkpt>
      <trkpt lat="46.51561" lon="0.05135">
        <ele>155.7</ele>
        <time>2020-05-30T17:43:04Z</time>
      </trkpt>
      <trkpt lat="46.51561" lon="0.05127">
        <ele>155.7</ele>
        <time>2020-05-30T17:43:05Z</time>
      </trkpt>
      <trkpt lat="46.51561" lon="0.05118">
        <ele>155.7</ele>
        <time>2020-05-30T17:43:06Z</time>
      </trkpt>
      <trkpt lat="46.51562" lon="0.05109">
        <ele>155.7</ele>
        <time>2020-05-30T17:43:07Z</time>
      </trkpt>
      <trkpt lat="46.51562" lon="0.05102">
        <ele>155.7</ele>
        <time>2020-05-30T17:43:08Z</time>
      </trkpt>
      <trkpt lat="46.51563" lon="0.05092">
        <ele>155.7</ele>
        <time>2020-05-30T17:43:09Z</time>
      </trkpt>
      <trkpt lat="46.51563" lon="0.05084">
        <ele>155.7</ele>
        <time>2020-05-30T17:43:10Z</time>
      </trkpt>
      <trkpt lat="46.51563" lon="0.05075">
        <ele>155.6</ele>
        <time>2020-05-30T17:43:11Z</time>
      </trkpt>
      <trkpt lat="46.51563" lon="0.05067">
        <ele>155.6</ele>
        <time>2020-05-30T17:43:12Z</time>
      </trkpt>
      <trkpt lat="46.51564" lon="0.05058">
        <ele>155.6</ele>
        <time>2020-05-30T17:43:13Z</time>
      </trkpt>
      <trkpt lat="46.51564" lon="0.0505">
        <ele>155.6</ele>
        <time>2020-05-30T17:43:14Z</time>
      </trkpt>
      <trkpt lat="46.51565" lon="0.05041">
        <ele>155.6</ele>
        <time>2020-05-30T17:43:15Z</time>
      </trkpt>
      <trkpt lat="46.51565" lon="0.05032">
        <ele>155.5</ele>
        <time>2020-05-30T17:43:16Z</time>
      </trkpt>
      <trkpt lat="46.51565" lon="0.05026">
        <ele>155.5</ele>
        <time>2020-05-30T17:43:17Z</time>
      </trkpt>
      <trkpt lat="46.51567" lon="0.05016">
        <ele>155.5</ele>
        <time>2020-05-30T17:43:18Z</time>
      </trkpt>
      <trkpt lat="46.51568" lon="0.05008">
        <ele>155.5</ele>
        <time>2020-05-30T17:43:19Z</time>
      </trkpt>
      <trkpt lat="46.51568" lon="0.05">
        <ele>155.4</ele>
        <time>2020-05-30T17:43:20Z</time>
      </trkpt>
      <trkpt lat="46.51569" lon="0.04992">
        <ele>155.4</ele>
        <time>2020-05-30T17:43:21Z</time>
      </trkpt>
      <trkpt lat="46.51569" lon="0.04983">
        <ele>155.4</ele>
        <time>2020-05-30T17:43:22Z</time>
      </trkpt>
      <trkpt lat="46.5157" lon="0.04974">
        <ele>155.4</ele>
        <time>2020-05-30T17:43:23Z</time>
      </trkpt>
      <trkpt lat="46.5157" lon="0.04966">
        <ele>155.3</ele>
        <time>2020-05-30T17:43:24Z</time>
      </trkpt>
      <trkpt lat="46.5157" lon="0.04958">
        <ele>155.3</ele>
        <time>2020-05-30T17:43:25Z</time>
      </trkpt>
      <trkpt lat="46.51569" lon="0.0495">
        <ele>155.3</ele>
        <time>2020-05-30T17:43:26Z</time>
      </trkpt>
      <trkpt lat="46.51568" lon="0.04941">
        <ele>155.3</ele>
        <time>2020-05-30T17:43:27Z</time>
      </trkpt>
      <trkpt lat="46.51568" lon="0.04933">
        <ele>155.3</ele>
        <time>2020-05-30T17:43:28Z</time>
      </trkpt>
      <trkpt lat="46.51567" lon="0.04923">
        <ele>155.3</ele>
        <time>2020-05-30T17:43:29Z</time>
      </trkpt>
      <trkpt lat="46.51567" lon="0.04916">
        <ele>155.3</ele>
        <time>2020-05-30T17:43:30Z</time>
      </trkpt>
      <trkpt lat="46.51566" lon="0.04907">
        <ele>155.2</ele>
        <time>2020-05-30T17:43:31Z</time>
      </trkpt>
      <trkpt lat="46.51565" lon="0.04899">
        <ele>155.2</ele>
        <time>2020-05-30T17:43:32Z</time>
      </trkpt>
      <trkpt lat="46.51563" lon="0.04888">
        <ele>155.2</ele>
        <time>2020-05-30T17:43:33Z</time>
      </trkpt>
      <trkpt lat="46.51562" lon="0.0488">
        <ele>155.2</ele>
        <time>2020-05-30T17:43:34Z</time>
      </trkpt>
      <trkpt lat="46.5156" lon="0.04871">
        <ele>155.2</ele>
        <time>2020-05-30T17:43:35Z</time>
      </trkpt>
      <trkpt lat="46.51558" lon="0.04863">
        <ele>155.2</ele>
        <time>2020-05-30T17:43:36Z</time>
      </trkpt>
      <trkpt lat="46.51556" lon="0.04854">
        <ele>155.1</ele>
        <time>2020-05-30T17:43:37Z</time>
      </trkpt>
      <trkpt lat="46.51554" lon="0.04844">
        <ele>155.1</ele>
        <time>2020-05-30T17:43:38Z</time>
      </trkpt>
      <trkpt lat="46.51551" lon="0.04835">
        <ele>155</ele>
        <time>2020-05-30T17:43:39Z</time>
      </trkpt>
      <trkpt lat="46.51549" lon="0.04826">
        <ele>154.8</ele>
        <time>2020-05-30T17:43:40Z</time>
      </trkpt>
      <trkpt lat="46.51545" lon="0.04818">
        <ele>154.7</ele>
        <time>2020-05-30T17:43:41Z</time>
      </trkpt>
      <trkpt lat="46.51542" lon="0.04811">
        <ele>154.6</ele>
        <time>2020-05-30T17:43:42Z</time>
      </trkpt>
      <trkpt lat="46.51538" lon="0.04803">
        <ele>154.5</ele>
        <time>2020-05-30T17:43:43Z</time>
      </trkpt>
      <trkpt lat="46.51534" lon="0.04795">
        <ele>154.3</ele>
        <time>2020-05-30T17:43:44Z</time>
      </trkpt>
      <trkpt lat="46.51529" lon="0.04787">
        <ele>154.2</ele>
        <time>2020-05-30T17:43:45Z</time>
      </trkpt>
      <trkpt lat="46.51525" lon="0.0478">
        <ele>154.1</ele>
        <time>2020-05-30T17:43:46Z</time>
      </trkpt>
      <trkpt lat="46.5152" lon="0.04773">
        <ele>154</ele>
        <time>2020-05-30T17:43:47Z</time>
      </trkpt>
      <trkpt lat="46.51516" lon="0.04765">
        <ele>154</ele>
        <time>2020-05-30T17:43:48Z</time>
      </trkpt>
      <trkpt lat="46.51512" lon="0.04757">
        <ele>153.9</ele>
        <time>2020-05-30T17:43:49Z</time>
      </trkpt>
      <trkpt lat="46.51507" lon="0.0475">
        <ele>153.8</ele>
        <time>2020-05-30T17:43:50Z</time>
      </trkpt>
      <trkpt lat="46.51503" lon="0.04743">
        <ele>153.7</ele>
        <time>2020-05-30T17:43:51Z</time>
      </trkpt>
      <trkpt lat="46.51499" lon="0.04736">
        <ele>153.7</ele>
        <time>2020-05-30T17:43:52Z</time>
      </trkpt>
      <trkpt lat="46.51494" lon="0.04729">
        <ele>153.6</ele>
        <time>2020-05-30T17:43:53Z</time>
      </trkpt>
      <trkpt lat="46.5149" lon="0.04722">
        <ele>153.6</ele>
        <time>2020-05-30T17:43:54Z</time>
      </trkpt>
      <trkpt lat="46.51486" lon="0.04716">
        <ele>153.6</ele>
        <time>2020-05-30T17:43:55Z</time>
      </trkpt>
      <trkpt lat="46.51481" lon="0.04709">
        <ele>153.6</ele>
        <time>2020-05-30T17:43:56Z</time>
      </trkpt>
      <trkpt lat="46.51477" lon="0.04702">
        <ele>153.5</ele>
        <time>2020-05-30T17:43:57Z</time>
      </trkpt>
      <trkpt lat="46.51473" lon="0.04695">
        <ele>153.5</ele>
        <time>2020-05-30T17:43:58Z</time>
      </trkpt>
      <trkpt lat="46.51469" lon="0.04689">
        <ele>153.5</ele>
        <time>2020-05-30T17:43:59Z</time>
      </trkpt>
      <trkpt lat="46.51465" lon="0.04682">
        <ele>153.5</ele>
        <time>2020-05-30T17:44:00Z</time>
      </trkpt>
      <trkpt lat="46.51461" lon="0.04675">
        <ele>153.5</ele>
        <time>2020-05-30T17:44:01Z</time>
      </trkpt>
      <trkpt lat="46.51456" lon="0.04668">
        <ele>153.5</ele>
        <time>2020-05-30T17:44:02Z</time>
      </trkpt>
      <trkpt lat="46.51452" lon="0.04661">
        <ele>153.4</ele>
        <time>2020-05-30T17:44:03Z</time>
      </trkpt>
      <trkpt lat="46.51448" lon="0.04655">
        <ele>153.4</ele>
        <time>2020-05-30T17:44:04Z</time>
      </trkpt>
      <trkpt lat="46.51443" lon="0.04648">
        <ele>153.4</ele>
        <time>2020-05-30T17:44:05Z</time>
      </trkpt>
      <trkpt lat="46.51439" lon="0.04641">
        <ele>153.4</ele>
        <time>2020-05-30T17:44:06Z</time>
      </trkpt>
      <trkpt lat="46.51435" lon="0.04634">
        <ele>153.4</ele>
        <time>2020-05-30T17:44:07Z</time>
      </trkpt>
      <trkpt lat="46.51431" lon="0.04627">
        <ele>153.4</ele>
        <time>2020-05-30T17:44:08Z</time>
      </trkpt>
      <trkpt lat="46.51427" lon="0.0462">
        <ele>153.4</ele>
        <time>2020-05-30T17:44:09Z</time>
      </trkpt>
      <trkpt lat="46.51423" lon="0.04614">
        <ele>153.4</ele>
        <time>2020-05-30T17:44:10Z</time>
      </trkpt>
      <trkpt lat="46.51419" lon="0.04607">
        <ele>153.5</ele>
        <time>2020-05-30T17:44:11Z</time>
      </trkpt>
      <trkpt lat="46.51414" lon="0.046">
        <ele>153.6</ele>
        <time>2020-05-30T17:44:12Z</time>
      </trkpt>
      <trkpt lat="46.5141" lon="0.04593">
        <ele>153.7</ele>
        <time>2020-05-30T17:44:13Z</time>
      </trkpt>
      <trkpt lat="46.51406" lon="0.04587">
        <ele>153.7</ele>
        <time>2020-05-30T17:44:14Z</time>
      </trkpt>
      <trkpt lat="46.51401" lon="0.0458">
        <ele>153.8</ele>
        <time>2020-05-30T17:44:15Z</time>
      </trkpt>
      <trkpt lat="46.51398" lon="0.04574">
        <ele>153.9</ele>
        <time>2020-05-30T17:44:16Z</time>
      </trkpt>
      <trkpt lat="46.51393" lon="0.04567">
        <ele>153.9</ele>
        <time>2020-05-30T17:44:17Z</time>
      </trkpt>
      <trkpt lat="46.51389" lon="0.04561">
        <ele>153.9</ele>
        <time>2020-05-30T17:44:18Z</time>
      </trkpt>
      <trkpt lat="46.51385" lon="0.04555">
        <ele>154</ele>
        <time>2020-05-30T17:44:19Z</time>
      </trkpt>
      <trkpt lat="46.51381" lon="0.04549">
        <ele>154</ele>
        <time>2020-05-30T17:44:20Z</time>
      </trkpt>
      <trkpt lat="46.51377" lon="0.04543">
        <ele>154.1</ele>
        <time>2020-05-30T17:44:21Z</time>
      </trkpt>
      <trkpt lat="46.51373" lon="0.04536">
        <ele>154.1</ele>
        <time>2020-05-30T17:44:22Z</time>
      </trkpt>
      <trkpt lat="46.51369" lon="0.0453">
        <ele>154.2</ele>
        <time>2020-05-30T17:44:23Z</time>
      </trkpt>
      <trkpt lat="46.51365" lon="0.04523">
        <ele>154.3</ele>
        <time>2020-05-30T17:44:24Z</time>
      </trkpt>
      <trkpt lat="46.51361" lon="0.04518">
        <ele>154.3</ele>
        <time>2020-05-30T17:44:25Z</time>
      </trkpt>
      <trkpt lat="46.51357" lon="0.04511">
        <ele>154.4</ele>
        <time>2020-05-30T17:44:26Z</time>
      </trkpt>
      <trkpt lat="46.51353" lon="0.04505">
        <ele>154.4</ele>
        <time>2020-05-30T17:44:27Z</time>
      </trkpt>
      <trkpt lat="46.51349" lon="0.04498">
        <ele>154.5</ele>
        <time>2020-05-30T17:44:28Z</time>
      </trkpt>
      <trkpt lat="46.51345" lon="0.04492">
        <ele>154.5</ele>
        <time>2020-05-30T17:44:29Z</time>
      </trkpt>
      <trkpt lat="46.51341" lon="0.04485">
        <ele>154.6</ele>
        <time>2020-05-30T17:44:30Z</time>
      </trkpt>
      <trkpt lat="46.51337" lon="0.04479">
        <ele>154.6</ele>
        <time>2020-05-30T17:44:31Z</time>
      </trkpt>
      <trkpt lat="46.51333" lon="0.04472">
        <ele>154.7</ele>
        <time>2020-05-30T17:44:32Z</time>
      </trkpt>
      <trkpt lat="46.51329" lon="0.04465">
        <ele>154.7</ele>
        <time>2020-05-30T17:44:33Z</time>
      </trkpt>
      <trkpt lat="46.51324" lon="0.04458">
        <ele>154.7</ele>
        <time>2020-05-30T17:44:34Z</time>
      </trkpt>
      <trkpt lat="46.5132" lon="0.04452">
        <ele>154.7</ele>
        <time>2020-05-30T17:44:35Z</time>
      </trkpt>
      <trkpt lat="46.51316" lon="0.04445">
        <ele>154.8</ele>
        <time>2020-05-30T17:44:36Z</time>
      </trkpt>
      <trkpt lat="46.51312" lon="0.04438">
        <ele>154.8</ele>
        <time>2020-05-30T17:44:37Z</time>
      </trkpt>
      <trkpt lat="46.51308" lon="0.04432">
        <ele>154.8</ele>
        <time>2020-05-30T17:44:38Z</time>
      </trkpt>
      <trkpt lat="46.51304" lon="0.04426">
        <ele>154.8</ele>
        <time>2020-05-30T17:44:39Z</time>
      </trkpt>
      <trkpt lat="46.513" lon="0.04419">
        <ele>154.9</ele>
        <time>2020-05-30T17:44:40Z</time>
      </trkpt>
      <trkpt lat="46.51296" lon="0.04412">
        <ele>154.9</ele>
        <time>2020-05-30T17:44:41Z</time>
      </trkpt>
      <trkpt lat="46.51292" lon="0.04406">
        <ele>154.9</ele>
        <time>2020-05-30T17:44:42Z</time>
      </trkpt>
      <trkpt lat="46.51288" lon="0.04399">
        <ele>154.9</ele>
        <time>2020-05-30T17:44:43Z</time>
      </trkpt>
      <trkpt lat="46.51284" lon="0.04392">
        <ele>154.9</ele>
        <time>2020-05-30T17:44:44Z</time>
      </trkpt>
      <trkpt lat="46.5128" lon="0.04385">
        <ele>154.9</ele>
        <time>2020-05-30T17:44:45Z</time>
      </trkpt>
      <trkpt lat="46.51276" lon="0.04379">
        <ele>155</ele>
        <time>2020-05-30T17:44:46Z</time>
      </trkpt>
      <trkpt lat="46.51271" lon="0.04372">
        <ele>155</ele>
        <time>2020-05-30T17:44:47Z</time>
      </trkpt>
      <trkpt lat="46.51268" lon="0.04365">
        <ele>155</ele>
        <time>2020-05-30T17:44:48Z</time>
      </trkpt>
      <trkpt lat="46.51264" lon="0.04358">
        <ele>155</ele>
        <time>2020-05-30T17:44:49Z</time>
      </trkpt>
      <trkpt lat="46.5126" lon="0.04351">
        <ele>155</ele>
        <time>2020-05-30T17:44:50Z</time>
      </trkpt>
      <trkpt lat="46.51255" lon="0.04345">
        <ele>155</ele>
        <time>2020-05-30T17:44:51Z</time>
      </trkpt>
      <trkpt lat="46.51251" lon="0.04338">
        <ele>155</ele>
        <time>2020-05-30T17:44:52Z</time>
      </trkpt>
      <trkpt lat="46.51247" lon="0.04331">
        <ele>155.1</ele>
        <time>2020-05-30T17:44:53Z</time>
      </trkpt>
      <trkpt lat="46.51243" lon="0.04325">
        <ele>155.1</ele>
        <time>2020-05-30T17:44:54Z</time>
      </trkpt>
      <trkpt lat="46.51238" lon="0.04318">
        <ele>155.1</ele>
        <time>2020-05-30T17:44:55Z</time>
      </trkpt>
      <trkpt lat="46.51234" lon="0.04312">
        <ele>155.1</ele>
        <time>2020-05-30T17:44:56Z</time>
      </trkpt>
      <trkpt lat="46.5123" lon="0.04305">
        <ele>155.1</ele>
        <time>2020-05-30T17:44:57Z</time>
      </trkpt>
      <trkpt lat="46.51226" lon="0.04297">
        <ele>155.1</ele>
        <time>2020-05-30T17:44:58Z</time>
      </trkpt>
      <trkpt lat="46.51221" lon="0.04291">
        <ele>155.1</ele>
        <time>2020-05-30T17:44:59Z</time>
      </trkpt>
      <trkpt lat="46.51217" lon="0.04283">
        <ele>155.1</ele>
        <time>2020-05-30T17:45:00Z</time>
      </trkpt>
      <trkpt lat="46.51212" lon="0.04276">
        <ele>155.1</ele>
        <time>2020-05-30T17:45:01Z</time>
      </trkpt>
      <trkpt lat="46.51208" lon="0.04269">
        <ele>155.2</ele>
        <time>2020-05-30T17:45:02Z</time>
      </trkpt>
      <trkpt lat="46.51204" lon="0.04262">
        <ele>155.2</ele>
        <time>2020-05-30T17:45:03Z</time>
      </trkpt>
      <trkpt lat="46.51201" lon="0.04254">
        <ele>155.2</ele>
        <time>2020-05-30T17:45:04Z</time>
      </trkpt>
      <trkpt lat="46.51197" lon="0.04246">
        <ele>155.3</ele>
        <time>2020-05-30T17:45:05Z</time>
      </trkpt>
      <trkpt lat="46.51193" lon="0.04239">
        <ele>155.4</ele>
        <time>2020-05-30T17:45:06Z</time>
      </trkpt>
      <trkpt lat="46.51189" lon="0.04231">
        <ele>155.5</ele>
        <time>2020-05-30T17:45:07Z</time>
      </trkpt>
      <trkpt lat="46.51186" lon="0.04223">
        <ele>155.7</ele>
        <time>2020-05-30T17:45:08Z</time>
      </trkpt>
      <trkpt lat="46.51182" lon="0.04215">
        <ele>155.8</ele>
        <time>2020-05-30T17:45:09Z</time>
      </trkpt>
      <trkpt lat="46.51179" lon="0.04207">
        <ele>156</ele>
        <time>2020-05-30T17:45:10Z</time>
      </trkpt>
      <trkpt lat="46.51176" lon="0.04199">
        <ele>156.1</ele>
        <time>2020-05-30T17:45:11Z</time>
      </trkpt>
      <trkpt lat="46.51173" lon="0.04192">
        <ele>156.2</ele>
        <time>2020-05-30T17:45:12Z</time>
      </trkpt>
      <trkpt lat="46.5117" lon="0.04184">
        <ele>156.3</ele>
        <time>2020-05-30T17:45:13Z</time>
      </trkpt>
      <trkpt lat="46.51167" lon="0.04176">
        <ele>156.4</ele>
        <time>2020-05-30T17:45:14Z</time>
      </trkpt>
      <trkpt lat="46.51164" lon="0.04168">
        <ele>156.5</ele>
        <time>2020-05-30T17:45:15Z</time>
      </trkpt>
      <trkpt lat="46.51161" lon="0.04161">
        <ele>156.6</ele>
        <time>2020-05-30T17:45:16Z</time>
      </trkpt>
      <trkpt lat="46.51158" lon="0.04153">
        <ele>156.6</ele>
        <time>2020-05-30T17:45:17Z</time>
      </trkpt>
      <trkpt lat="46.51155" lon="0.04146">
        <ele>156.7</ele>
        <time>2020-05-30T17:45:18Z</time>
      </trkpt>
      <trkpt lat="46.51152" lon="0.04138">
        <ele>156.7</ele>
        <time>2020-05-30T17:45:19Z</time>
      </trkpt>
      <trkpt lat="46.51149" lon="0.04131">
        <ele>156.8</ele>
        <time>2020-05-30T17:45:20Z</time>
      </trkpt>
      <trkpt lat="46.51146" lon="0.04123">
        <ele>156.8</ele>
        <time>2020-05-30T17:45:21Z</time>
      </trkpt>
      <trkpt lat="46.51143" lon="0.04115">
        <ele>156.8</ele>
        <time>2020-05-30T17:45:22Z</time>
      </trkpt>
      <trkpt lat="46.5114" lon="0.04108">
        <ele>156.9</ele>
        <time>2020-05-30T17:45:23Z</time>
      </trkpt>
      <trkpt lat="46.51138" lon="0.041">
        <ele>156.9</ele>
        <time>2020-05-30T17:45:24Z</time>
      </trkpt>
      <trkpt lat="46.51135" lon="0.04092">
        <ele>156.9</ele>
        <time>2020-05-30T17:45:25Z</time>
      </trkpt>
      <trkpt lat="46.51132" lon="0.04085">
        <ele>156.9</ele>
        <time>2020-05-30T17:45:26Z</time>
      </trkpt>
      <trkpt lat="46.51129" lon="0.04077">
        <ele>156.9</ele>
        <time>2020-05-30T17:45:27Z</time>
      </trkpt>
      <trkpt lat="46.51126" lon="0.04069">
        <ele>156.9</ele>
        <time>2020-05-30T17:45:28Z</time>
      </trkpt>
      <trkpt lat="46.51124" lon="0.04061">
        <ele>156.9</ele>
        <time>2020-05-30T17:45:29Z</time>
      </trkpt>
      <trkpt lat="46.51122" lon="0.04052">
        <ele>156.8</ele>
        <time>2020-05-30T17:45:30Z</time>
      </trkpt>
      <trkpt lat="46.5112" lon="0.04044">
        <ele>156.8</ele>
        <time>2020-05-30T17:45:31Z</time>
      </trkpt>
      <trkpt lat="46.51118" lon="0.04035">
        <ele>156.8</ele>
        <time>2020-05-30T17:45:32Z</time>
      </trkpt>
      <trkpt lat="46.51117" lon="0.04026">
        <ele>156.7</ele>
        <time>2020-05-30T17:45:33Z</time>
      </trkpt>
      <trkpt lat="46.51115" lon="0.04018">
        <ele>156.7</ele>
        <time>2020-05-30T17:45:34Z</time>
      </trkpt>
      <trkpt lat="46.51113" lon="0.04009">
        <ele>156.7</ele>
        <time>2020-05-30T17:45:35Z</time>
      </trkpt>
      <trkpt lat="46.51111" lon="0.04">
        <ele>156.7</ele>
        <time>2020-05-30T17:45:36Z</time>
      </trkpt>
      <trkpt lat="46.51109" lon="0.03991">
        <ele>156.6</ele>
        <time>2020-05-30T17:45:37Z</time>
      </trkpt>
      <trkpt lat="46.51108" lon="0.03982">
        <ele>156.6</ele>
        <time>2020-05-30T17:45:38Z</time>
      </trkpt>
      <trkpt lat="46.51106" lon="0.03972">
        <ele>156.6</ele>
        <time>2020-05-30T17:45:39Z</time>
      </trkpt>
      <trkpt lat="46.51104" lon="0.03963">
        <ele>156.6</ele>
        <time>2020-05-30T17:45:40Z</time>
      </trkpt>
      <trkpt lat="46.51102" lon="0.03954">
        <ele>156.6</ele>
        <time>2020-05-30T17:45:41Z</time>
      </trkpt>
      <trkpt lat="46.511" lon="0.03945">
        <ele>156.6</ele>
        <time>2020-05-30T17:45:42Z</time>
      </trkpt>
      <trkpt lat="46.51099" lon="0.03936">
        <ele>156.5</ele>
        <time>2020-05-30T17:45:43Z</time>
      </trkpt>
      <trkpt lat="46.51097" lon="0.03927">
        <ele>156.5</ele>
        <time>2020-05-30T17:45:44Z</time>
      </trkpt>
      <trkpt lat="46.51095" lon="0.03918">
        <ele>156.5</ele>
        <time>2020-05-30T17:45:45Z</time>
      </trkpt>
      <trkpt lat="46.51093" lon="0.03908">
        <ele>156.4</ele>
        <time>2020-05-30T17:45:46Z</time>
      </trkpt>
      <trkpt lat="46.51091" lon="0.03899">
        <ele>156.4</ele>
        <time>2020-05-30T17:45:47Z</time>
      </trkpt>
      <trkpt lat="46.5109" lon="0.0389">
        <ele>156.4</ele>
        <time>2020-05-30T17:45:48Z</time>
      </trkpt>
      <trkpt lat="46.51088" lon="0.0388">
        <ele>156.3</ele>
        <time>2020-05-30T17:45:49Z</time>
      </trkpt>
      <trkpt lat="46.51086" lon="0.03871">
        <ele>156.3</ele>
        <time>2020-05-30T17:45:50Z</time>
      </trkpt>
      <trkpt lat="46.51084" lon="0.03862">
        <ele>156.3</ele>
        <time>2020-05-30T17:45:51Z</time>
      </trkpt>
      <trkpt lat="46.51082" lon="0.03852">
        <ele>156.3</ele>
        <time>2020-05-30T17:45:52Z</time>
      </trkpt>
      <trkpt lat="46.51081" lon="0.03843">
        <ele>156.4</ele>
        <time>2020-05-30T17:45:53Z</time>
      </trkpt>
      <trkpt lat="46.51079" lon="0.03834">
        <ele>156.4</ele>
        <time>2020-05-30T17:45:54Z</time>
      </trkpt>
      <trkpt lat="46.51077" lon="0.03825">
        <ele>156.5</ele>
        <time>2020-05-30T17:45:55Z</time>
      </trkpt>
      <trkpt lat="46.51075" lon="0.03815">
        <ele>156.5</ele>
        <time>2020-05-30T17:45:56Z</time>
      </trkpt>
      <trkpt lat="46.51073" lon="0.03806">
        <ele>156.6</ele>
        <time>2020-05-30T17:45:57Z</time>
      </trkpt>
      <trkpt lat="46.51071" lon="0.03797">
        <ele>156.6</ele>
        <time>2020-05-30T17:45:58Z</time>
      </trkpt>
      <trkpt lat="46.5107" lon="0.03788">
        <ele>156.7</ele>
        <time>2020-05-30T17:45:59Z</time>
      </trkpt>
      <trkpt lat="46.51068" lon="0.03779">
        <ele>156.7</ele>
        <time>2020-05-30T17:46:00Z</time>
      </trkpt>
      <trkpt lat="46.51066" lon="0.0377">
        <ele>156.7</ele>
        <time>2020-05-30T17:46:01Z</time>
      </trkpt>
      <trkpt lat="46.51064" lon="0.03762">
        <ele>156.8</ele>
        <time>2020-05-30T17:46:02Z</time>
      </trkpt>
      <trkpt lat="46.51061" lon="0.03753">
        <ele>156.8</ele>
        <time>2020-05-30T17:46:03Z</time>
      </trkpt>
      <trkpt lat="46.51059" lon="0.03744">
        <ele>156.9</ele>
        <time>2020-05-30T17:46:04Z</time>
      </trkpt>
      <trkpt lat="46.51056" lon="0.03736">
        <ele>156.9</ele>
        <time>2020-05-30T17:46:05Z</time>
      </trkpt>
      <trkpt lat="46.51054" lon="0.03727">
        <ele>157</ele>
        <time>2020-05-30T17:46:06Z</time>
      </trkpt>
      <trkpt lat="46.51051" lon="0.03718">
        <ele>157</ele>
        <time>2020-05-30T17:46:07Z</time>
      </trkpt>
      <trkpt lat="46.51049" lon="0.0371">
        <ele>157.1</ele>
        <time>2020-05-30T17:46:08Z</time>
      </trkpt>
      <trkpt lat="46.51047" lon="0.03701">
        <ele>157.1</ele>
        <time>2020-05-30T17:46:09Z</time>
      </trkpt>
      <trkpt lat="46.51045" lon="0.03692">
        <ele>157.2</ele>
        <time>2020-05-30T17:46:10Z</time>
      </trkpt>
      <trkpt lat="46.51042" lon="0.03683">
        <ele>157.3</ele>
        <time>2020-05-30T17:46:11Z</time>
      </trkpt>
      <trkpt lat="46.51039" lon="0.03674">
        <ele>157.3</ele>
        <time>2020-05-30T17:46:12Z</time>
      </trkpt>
      <trkpt lat="46.51037" lon="0.03666">
        <ele>157.4</ele>
        <time>2020-05-30T17:46:13Z</time>
      </trkpt>
      <trkpt lat="46.51035" lon="0.03657">
        <ele>157.5</ele>
        <time>2020-05-30T17:46:14Z</time>
      </trkpt>
      <trkpt lat="46.51032" lon="0.03649">
        <ele>157.6</ele>
        <time>2020-05-30T17:46:15Z</time>
      </trkpt>
      <trkpt lat="46.5103" lon="0.0364">
        <ele>157.6</ele>
        <time>2020-05-30T17:46:16Z</time>
      </trkpt>
      <trkpt lat="46.51028" lon="0.03632">
        <ele>157.7</ele>
        <time>2020-05-30T17:46:17Z</time>
      </trkpt>
      <trkpt lat="46.51025" lon="0.03624">
        <ele>157.8</ele>
        <time>2020-05-30T17:46:18Z</time>
      </trkpt>
      <trkpt lat="46.51023" lon="0.03616">
        <ele>157.9</ele>
        <time>2020-05-30T17:46:19Z</time>
      </trkpt>
      <trkpt lat="46.5102" lon="0.03608">
        <ele>157.9</ele>
        <time>2020-05-30T17:46:20Z</time>
      </trkpt>
      <trkpt lat="46.51017" lon="0.03599">
        <ele>157.9</ele>
        <time>2020-05-30T17:46:21Z</time>
      </trkpt>
      <trkpt lat="46.51015" lon="0.03591">
        <ele>157.9</ele>
        <time>2020-05-30T17:46:22Z</time>
      </trkpt>
      <trkpt lat="46.51012" lon="0.03584">
        <ele>157.9</ele>
        <time>2020-05-30T17:46:23Z</time>
      </trkpt>
      <trkpt lat="46.51009" lon="0.03577">
        <ele>157.9</ele>
        <time>2020-05-30T17:46:24Z</time>
      </trkpt>
      <trkpt lat="46.51005" lon="0.03571">
        <ele>157.8</ele>
        <time>2020-05-30T17:46:25Z</time>
      </trkpt>
      <trkpt lat="46.51001" lon="0.03565">
        <ele>157.8</ele>
        <time>2020-05-30T17:46:26Z</time>
      </trkpt>
      <trkpt lat="46.50997" lon="0.03559">
        <ele>157.7</ele>
        <time>2020-05-30T17:46:27Z</time>
      </trkpt>
      <trkpt lat="46.50991" lon="0.03554">
        <ele>157.6</ele>
        <time>2020-05-30T17:46:28Z</time>
      </trkpt>
      <trkpt lat="46.50985" lon="0.03553">
        <ele>157.4</ele>
        <time>2020-05-30T17:46:29Z</time>
      </trkpt>
      <trkpt lat="46.50979" lon="0.03553">
        <ele>157.2</ele>
        <time>2020-05-30T17:46:30Z</time>
      </trkpt>
      <trkpt lat="46.50972" lon="0.03553">
        <ele>157</ele>
        <time>2020-05-30T17:46:31Z</time>
      </trkpt>
      <trkpt lat="46.50965" lon="0.03554">
        <ele>156.7</ele>
        <time>2020-05-30T17:46:32Z</time>
      </trkpt>
      <trkpt lat="46.50958" lon="0.03555">
        <ele>156.4</ele>
        <time>2020-05-30T17:46:33Z</time>
      </trkpt>
      <trkpt lat="46.5095" lon="0.03556">
        <ele>156</ele>
        <time>2020-05-30T17:46:34Z</time>
      </trkpt>
      <trkpt lat="46.50943" lon="0.03557">
        <ele>155.6</ele>
        <time>2020-05-30T17:46:35Z</time>
      </trkpt>
      <trkpt lat="46.50935" lon="0.03558">
        <ele>155.2</ele>
        <time>2020-05-30T17:46:36Z</time>
      </trkpt>
      <trkpt lat="46.50926" lon="0.03559">
        <ele>154.7</ele>
        <time>2020-05-30T17:46:37Z</time>
      </trkpt>
      <trkpt lat="46.50918" lon="0.03559">
        <ele>154.1</ele>
        <time>2020-05-30T17:46:38Z</time>
      </trkpt>
      <trkpt lat="46.50909" lon="0.0356">
        <ele>153.6</ele>
        <time>2020-05-30T17:46:39Z</time>
      </trkpt>
      <trkpt lat="46.509" lon="0.03561">
        <ele>153.1</ele>
        <time>2020-05-30T17:46:40Z</time>
      </trkpt>
      <trkpt lat="46.5089" lon="0.03559">
        <ele>152.6</ele>
        <time>2020-05-30T17:46:41Z</time>
      </trkpt>
      <trkpt lat="46.50881" lon="0.03557">
        <ele>152.5</ele>
        <time>2020-05-30T17:46:42Z</time>
      </trkpt>
      <trkpt lat="46.50873" lon="0.03551">
        <ele>152.4</ele>
        <time>2020-05-30T17:46:43Z</time>
      </trkpt>
      <trkpt lat="46.50865" lon="0.03542">
        <ele>152</ele>
        <time>2020-05-30T17:46:44Z</time>
      </trkpt>
      <trkpt lat="46.5086" lon="0.0353">
        <ele>151.4</ele>
        <time>2020-05-30T17:46:45Z</time>
      </trkpt>
      <trkpt lat="46.50857" lon="0.03515">
        <ele>150.7</ele>
        <time>2020-05-30T17:46:46Z</time>
      </trkpt>
      <trkpt lat="46.50858" lon="0.035">
        <ele>150</ele>
        <time>2020-05-30T17:46:47Z</time>
      </trkpt>
      <trkpt lat="46.5086" lon="0.03486">
        <ele>149.3</ele>
        <time>2020-05-30T17:46:48Z</time>
      </trkpt>
      <trkpt lat="46.50863" lon="0.03471">
        <ele>148.6</ele>
        <time>2020-05-30T17:46:49Z</time>
      </trkpt>
      <trkpt lat="46.50867" lon="0.03458">
        <ele>148</ele>
        <time>2020-05-30T17:46:50Z</time>
      </trkpt>
      <trkpt lat="46.50872" lon="0.03444">
        <ele>147.3</ele>
        <time>2020-05-30T17:46:51Z</time>
      </trkpt>
      <trkpt lat="46.50877" lon="0.0343">
        <ele>146.5</ele>
        <time>2020-05-30T17:46:52Z</time>
      </trkpt>
      <trkpt lat="46.50883" lon="0.03417">
        <ele>145.8</ele>
        <time>2020-05-30T17:46:53Z</time>
      </trkpt>
      <trkpt lat="46.5089" lon="0.03404">
        <ele>145</ele>
        <time>2020-05-30T17:46:54Z</time>
      </trkpt>
      <trkpt lat="46.50896" lon="0.0339">
        <ele>144.4</ele>
        <time>2020-05-30T17:46:55Z</time>
      </trkpt>
      <trkpt lat="46.50902" lon="0.03377">
        <ele>143.7</ele>
        <time>2020-05-30T17:46:56Z</time>
      </trkpt>
      <trkpt lat="46.50908" lon="0.03363">
        <ele>142.9</ele>
        <time>2020-05-30T17:46:57Z</time>
      </trkpt>
      <trkpt lat="46.50915" lon="0.03349">
        <ele>142.2</ele>
        <time>2020-05-30T17:46:58Z</time>
      </trkpt>
      <trkpt lat="46.50921" lon="0.03336">
        <ele>141.5</ele>
        <time>2020-05-30T17:46:59Z</time>
      </trkpt>
      <trkpt lat="46.50926" lon="0.03322">
        <ele>140.9</ele>
        <time>2020-05-30T17:47:00Z</time>
      </trkpt>
      <trkpt lat="46.50932" lon="0.03309">
        <ele>140.3</ele>
        <time>2020-05-30T17:47:01Z</time>
      </trkpt>
      <trkpt lat="46.50935" lon="0.03296">
        <ele>139.8</ele>
        <time>2020-05-30T17:47:02Z</time>
      </trkpt>
      <trkpt lat="46.50936" lon="0.03283">
        <ele>139.2</ele>
        <time>2020-05-30T17:47:03Z</time>
      </trkpt>
      <trkpt lat="46.50935" lon="0.03268">
        <ele>138.7</ele>
        <time>2020-05-30T17:47:04Z</time>
      </trkpt>
      <trkpt lat="46.50933" lon="0.03252">
        <ele>138.2</ele>
        <time>2020-05-30T17:47:05Z</time>
      </trkpt>
      <trkpt lat="46.50929" lon="0.03236">
        <ele>137.7</ele>
        <time>2020-05-30T17:47:06Z</time>
      </trkpt>
      <trkpt lat="46.50925" lon="0.03219">
        <ele>137.3</ele>
        <time>2020-05-30T17:47:07Z</time>
      </trkpt>
      <trkpt lat="46.50922" lon="0.03203">
        <ele>136.9</ele>
        <time>2020-05-30T17:47:08Z</time>
      </trkpt>
      <trkpt lat="46.50918" lon="0.03187">
        <ele>136.6</ele>
        <time>2020-05-30T17:47:09Z</time>
      </trkpt>
      <trkpt lat="46.50914" lon="0.03171">
        <ele>136.3</ele>
        <time>2020-05-30T17:47:10Z</time>
      </trkpt>
      <trkpt lat="46.5091" lon="0.03155">
        <ele>136.1</ele>
        <time>2020-05-30T17:47:11Z</time>
      </trkpt>
      <trkpt lat="46.50906" lon="0.0314">
        <ele>136</ele>
        <time>2020-05-30T17:47:12Z</time>
      </trkpt>
      <trkpt lat="46.50902" lon="0.03125">
        <ele>136</ele>
        <time>2020-05-30T17:47:13Z</time>
      </trkpt>
      <trkpt lat="46.50899" lon="0.0311">
        <ele>136</ele>
        <time>2020-05-30T17:47:14Z</time>
      </trkpt>
      <trkpt lat="46.50895" lon="0.03095">
        <ele>136</ele>
        <time>2020-05-30T17:47:15Z</time>
      </trkpt>
      <trkpt lat="46.50892" lon="0.03081">
        <ele>136.2</ele>
        <time>2020-05-30T17:47:16Z</time>
      </trkpt>
      <trkpt lat="46.50888" lon="0.03068">
        <ele>136.3</ele>
        <time>2020-05-30T17:47:17Z</time>
      </trkpt>
      <trkpt lat="46.50885" lon="0.03054">
        <ele>136.6</ele>
        <time>2020-05-30T17:47:18Z</time>
      </trkpt>
      <trkpt lat="46.50882" lon="0.03041">
        <ele>136.8</ele>
        <time>2020-05-30T17:47:19Z</time>
      </trkpt>
      <trkpt lat="46.50879" lon="0.03028">
        <ele>137</ele>
        <time>2020-05-30T17:47:20Z</time>
      </trkpt>
      <trkpt lat="46.50876" lon="0.03015">
        <ele>137.3</ele>
        <time>2020-05-30T17:47:21Z</time>
      </trkpt>
      <trkpt lat="46.50873" lon="0.03003">
        <ele>137.7</ele>
        <time>2020-05-30T17:47:22Z</time>
      </trkpt>
      <trkpt lat="46.5087" lon="0.0299">
        <ele>138</ele>
        <time>2020-05-30T17:47:23Z</time>
      </trkpt>
      <trkpt lat="46.50868" lon="0.02978">
        <ele>138.3</ele>
        <time>2020-05-30T17:47:24Z</time>
      </trkpt>
      <trkpt lat="46.50865" lon="0.02966">
        <ele>138.6</ele>
        <time>2020-05-30T17:47:25Z</time>
      </trkpt>
      <trkpt lat="46.50862" lon="0.02954">
        <ele>138.9</ele>
        <time>2020-05-30T17:47:26Z</time>
      </trkpt>
      <trkpt lat="46.50859" lon="0.02943">
        <ele>139.2</ele>
        <time>2020-05-30T17:47:27Z</time>
      </trkpt>
      <trkpt lat="46.50857" lon="0.02931">
        <ele>139.5</ele>
        <time>2020-05-30T17:47:28Z</time>
      </trkpt>
      <trkpt lat="46.50854" lon="0.0292">
        <ele>139.7</ele>
        <time>2020-05-30T17:47:29Z</time>
      </trkpt>
      <trkpt lat="46.50852" lon="0.02908">
        <ele>139.9</ele>
        <time>2020-05-30T17:47:30Z</time>
      </trkpt>
      <trkpt lat="46.5085" lon="0.02897">
        <ele>140.2</ele>
        <time>2020-05-30T17:47:31Z</time>
      </trkpt>
      <trkpt lat="46.50847" lon="0.02887">
        <ele>140.4</ele>
        <time>2020-05-30T17:47:32Z</time>
      </trkpt>
      <trkpt lat="46.50844" lon="0.02877">
        <ele>140.6</ele>
        <time>2020-05-30T17:47:33Z</time>
      </trkpt>
      <trkpt lat="46.50842" lon="0.02868">
        <ele>140.8</ele>
        <time>2020-05-30T17:47:34Z</time>
      </trkpt>
      <trkpt lat="46.5084" lon="0.02858">
        <ele>141</ele>
        <time>2020-05-30T17:47:35Z</time>
      </trkpt>
      <trkpt lat="46.50838" lon="0.02849">
        <ele>141.2</ele>
        <time>2020-05-30T17:47:36Z</time>
      </trkpt>
      <trkpt lat="46.50835" lon="0.0284">
        <ele>141.3</ele>
        <time>2020-05-30T17:47:37Z</time>
      </trkpt>
      <trkpt lat="46.50834" lon="0.0283">
        <ele>141.5</ele>
        <time>2020-05-30T17:47:38Z</time>
      </trkpt>
      <trkpt lat="46.50832" lon="0.02821">
        <ele>141.7</ele>
        <time>2020-05-30T17:47:39Z</time>
      </trkpt>
      <trkpt lat="46.5083" lon="0.02811">
        <ele>141.8</ele>
        <time>2020-05-30T17:47:40Z</time>
      </trkpt>
      <trkpt lat="46.50828" lon="0.02802">
        <ele>142</ele>
        <time>2020-05-30T17:47:41Z</time>
      </trkpt>
      <trkpt lat="46.50826" lon="0.02794">
        <ele>142.1</ele>
        <time>2020-05-30T17:47:42Z</time>
      </trkpt>
      <trkpt lat="46.50824" lon="0.02785">
        <ele>142.3</ele>
        <time>2020-05-30T17:47:43Z</time>
      </trkpt>
      <trkpt lat="46.50822" lon="0.02777">
        <ele>142.4</ele>
        <time>2020-05-30T17:47:44Z</time>
      </trkpt>
      <trkpt lat="46.5082" lon="0.02769">
        <ele>142.5</ele>
        <time>2020-05-30T17:47:45Z</time>
      </trkpt>
      <trkpt lat="46.50818" lon="0.0276">
        <ele>142.6</ele>
        <time>2020-05-30T17:47:46Z</time>
      </trkpt>
      <trkpt lat="46.50816" lon="0.02752">
        <ele>142.7</ele>
        <time>2020-05-30T17:47:47Z</time>
      </trkpt>
      <trkpt lat="46.50814" lon="0.02744">
        <ele>142.8</ele>
        <time>2020-05-30T17:47:48Z</time>
      </trkpt>
      <trkpt lat="46.50812" lon="0.02737">
        <ele>143</ele>
        <time>2020-05-30T17:47:49Z</time>
      </trkpt>
      <trkpt lat="46.5081" lon="0.02729">
        <ele>143</ele>
        <time>2020-05-30T17:47:50Z</time>
      </trkpt>
      <trkpt lat="46.50808" lon="0.02722">
        <ele>143.1</ele>
        <time>2020-05-30T17:47:51Z</time>
      </trkpt>
      <trkpt lat="46.50806" lon="0.02715">
        <ele>143.2</ele>
        <time>2020-05-30T17:47:52Z</time>
      </trkpt>
      <trkpt lat="46.50804" lon="0.02708">
        <ele>143.3</ele>
        <time>2020-05-30T17:47:53Z</time>
      </trkpt>
      <trkpt lat="46.50802" lon="0.02701">
        <ele>143.4</ele>
        <time>2020-05-30T17:47:54Z</time>
      </trkpt>
      <trkpt lat="46.50801" lon="0.02695">
        <ele>143.6</ele>
        <time>2020-05-30T17:47:55Z</time>
      </trkpt>
      <trkpt lat="46.50799" lon="0.02688">
        <ele>143.7</ele>
        <time>2020-05-30T17:47:56Z</time>
      </trkpt>
      <trkpt lat="46.50798" lon="0.02682">
        <ele>143.8</ele>
        <time>2020-05-30T17:47:57Z</time>
      </trkpt>
      <trkpt lat="46.50797" lon="0.02678">
        <ele>143.8</ele>
        <time>2020-05-30T17:47:58Z</time>
      </trkpt>
      <trkpt lat="46.50796" lon="0.02672">
        <ele>143.9</ele>
        <time>2020-05-30T17:47:59Z</time>
      </trkpt>
      <trkpt lat="46.50795" lon="0.02668">
        <ele>143.9</ele>
        <time>2020-05-30T17:48:00Z</time>
      </trkpt>
      <trkpt lat="46.50794" lon="0.02661">
        <ele>144</ele>
        <time>2020-05-30T17:48:01Z</time>
      </trkpt>
      <trkpt lat="46.50793" lon="0.02656">
        <ele>144</ele>
        <time>2020-05-30T17:48:02Z</time>
      </trkpt>
      <trkpt lat="46.50792" lon="0.02651">
        <ele>144</ele>
        <time>2020-05-30T17:48:03Z</time>
      </trkpt>
      <trkpt lat="46.5079" lon="0.02646">
        <ele>144.1</ele>
        <time>2020-05-30T17:48:04Z</time>
      </trkpt>
      <trkpt lat="46.50789" lon="0.02641">
        <ele>144.1</ele>
        <time>2020-05-30T17:48:05Z</time>
      </trkpt>
      <trkpt lat="46.50788" lon="0.02636">
        <ele>144.2</ele>
        <time>2020-05-30T17:48:06Z</time>
      </trkpt>
      <trkpt lat="46.50788" lon="0.02634">
        <ele>144.2</ele>
        <time>2020-05-30T17:48:07Z</time>
      </trkpt>
      <trkpt lat="46.50787" lon="0.02629">
        <ele>144.3</ele>
        <time>2020-05-30T17:48:08Z</time>
      </trkpt>
      <trkpt lat="46.50787" lon="0.02623">
        <ele>144.4</ele>
        <time>2020-05-30T17:48:09Z</time>
      </trkpt>
      <trkpt lat="46.50787" lon="0.02622">
        <ele>144.4</ele>
        <time>2020-05-30T17:48:10Z</time>
      </trkpt>
      <trkpt lat="46.50786" lon="0.02618">
        <ele>144.4</ele>
        <time>2020-05-30T17:48:11Z</time>
      </trkpt>
      <trkpt lat="46.50785" lon="0.02616">
        <ele>144.4</ele>
        <time>2020-05-30T17:48:12Z</time>
      </trkpt>
      <trkpt lat="46.50784" lon="0.02614">
        <ele>144.5</ele>
        <time>2020-05-30T17:48:13Z</time>
      </trkpt>
      <trkpt lat="46.50783" lon="0.0261">
        <ele>144.5</ele>
        <time>2020-05-30T17:48:14Z</time>
      </trkpt>
      <trkpt lat="46.50782" lon="0.02608">
        <ele>144.6</ele>
        <time>2020-05-30T17:48:15Z</time>
      </trkpt>
      <trkpt lat="46.50781" lon="0.02603">
        <ele>144.6</ele>
        <time>2020-05-30T17:48:16Z</time>
      </trkpt>
      <trkpt lat="46.50781" lon="0.02602">
        <ele>144.6</ele>
        <time>2020-05-30T17:48:17Z</time>
      </trkpt>
      <trkpt lat="46.50781" lon="0.02599">
        <ele>144.7</ele>
        <time>2020-05-30T17:48:18Z</time>
      </trkpt>
      <trkpt lat="46.50781" lon="0.02597">
        <ele>144.7</ele>
        <time>2020-05-30T17:48:19Z</time>
      </trkpt>
      <trkpt lat="46.50778" lon="0.02593">
        <ele>144.7</ele>
        <time>2020-05-30T17:48:20Z</time>
      </trkpt>
      <trkpt lat="46.50777" lon="0.02592">
        <ele>144.7</ele>
        <time>2020-05-30T17:48:21Z</time>
      </trkpt>
      <trkpt lat="46.50777" lon="0.02587">
        <ele>144.8</ele>
        <time>2020-05-30T17:48:22Z</time>
      </trkpt>
      <trkpt lat="46.50777" lon="0.02583">
        <ele>144.8</ele>
        <time>2020-05-30T17:48:23Z</time>
      </trkpt>
      <trkpt lat="46.50776" lon="0.02576">
        <ele>144.9</ele>
        <time>2020-05-30T17:48:24Z</time>
      </trkpt>
      <trkpt lat="46.50776" lon="0.02573">
        <ele>144.9</ele>
        <time>2020-05-30T17:48:25Z</time>
      </trkpt>
      <trkpt lat="46.50775" lon="0.02568">
        <ele>145</ele>
        <time>2020-05-30T17:48:26Z</time>
      </trkpt>
      <trkpt lat="46.50774" lon="0.02562">
        <ele>145</ele>
        <time>2020-05-30T17:48:27Z</time>
      </trkpt>
      <trkpt lat="46.50773" lon="0.02557">
        <ele>145.1</ele>
        <time>2020-05-30T17:48:28Z</time>
      </trkpt>
      <trkpt lat="46.50772" lon="0.02551">
        <ele>145.1</ele>
        <time>2020-05-30T17:48:29Z</time>
      </trkpt>
      <trkpt lat="46.50771" lon="0.02547">
        <ele>145.2</ele>
        <time>2020-05-30T17:48:30Z</time>
      </trkpt>
      <trkpt lat="46.5077" lon="0.02543">
        <ele>145.2</ele>
        <time>2020-05-30T17:48:31Z</time>
      </trkpt>
      <trkpt lat="46.5077" lon="0.02538">
        <ele>145.3</ele>
        <time>2020-05-30T17:48:32Z</time>
      </trkpt>
      <trkpt lat="46.50768" lon="0.02531">
        <ele>145.4</ele>
        <time>2020-05-30T17:48:33Z</time>
      </trkpt>
      <trkpt lat="46.50768" lon="0.02526">
        <ele>145.5</ele>
        <time>2020-05-30T17:48:34Z</time>
      </trkpt>
      <trkpt lat="46.50767" lon="0.02522">
        <ele>145.5</ele>
        <time>2020-05-30T17:48:35Z</time>
      </trkpt>
      <trkpt lat="46.50766" lon="0.02516">
        <ele>145.6</ele>
        <time>2020-05-30T17:48:36Z</time>
      </trkpt>
      <trkpt lat="46.50766" lon="0.02511">
        <ele>145.7</ele>
        <time>2020-05-30T17:48:37Z</time>
      </trkpt>
      <trkpt lat="46.50765" lon="0.02508">
        <ele>145.8</ele>
        <time>2020-05-30T17:48:38Z</time>
      </trkpt>
      <trkpt lat="46.50764" lon="0.02504">
        <ele>145.8</ele>
        <time>2020-05-30T17:48:39Z</time>
      </trkpt>
      <trkpt lat="46.50764" lon="0.02499">
        <ele>145.9</ele>
        <time>2020-05-30T17:48:40Z</time>
      </trkpt>
      <trkpt lat="46.50763" lon="0.02495">
        <ele>146</ele>
        <time>2020-05-30T17:48:41Z</time>
      </trkpt>
      <trkpt lat="46.50763" lon="0.02491">
        <ele>146</ele>
        <time>2020-05-30T17:48:42Z</time>
      </trkpt>
      <trkpt lat="46.50762" lon="0.02486">
        <ele>146.1</ele>
        <time>2020-05-30T17:48:43Z</time>
      </trkpt>
      <trkpt lat="46.50762" lon="0.02481">
        <ele>146.2</ele>
        <time>2020-05-30T17:48:44Z</time>
      </trkpt>
      <trkpt lat="46.50761" lon="0.02476">
        <ele>146.3</ele>
        <time>2020-05-30T17:48:45Z</time>
      </trkpt>
      <trkpt lat="46.5076" lon="0.02473">
        <ele>146.3</ele>
        <time>2020-05-30T17:48:46Z</time>
      </trkpt>
      <trkpt lat="46.50759" lon="0.02468">
        <ele>146.4</ele>
        <time>2020-05-30T17:48:47Z</time>
      </trkpt>
      <trkpt lat="46.50759" lon="0.02466">
        <ele>146.4</ele>
        <time>2020-05-30T17:48:48Z</time>
      </trkpt>
      <trkpt lat="46.50759" lon="0.02461">
        <ele>146.5</ele>
        <time>2020-05-30T17:48:49Z</time>
      </trkpt>
      <trkpt lat="46.50759" lon="0.02457">
        <ele>146.5</ele>
        <time>2020-05-30T17:48:50Z</time>
      </trkpt>
      <trkpt lat="46.50759" lon="0.02455">
        <ele>146.5</ele>
        <time>2020-05-30T17:48:51Z</time>
      </trkpt>
      <trkpt lat="46.50758" lon="0.0245">
        <ele>146.6</ele>
        <time>2020-05-30T17:48:52Z</time>
      </trkpt>
      <trkpt lat="46.50758" lon="0.02445">
        <ele>146.7</ele>
        <time>2020-05-30T17:48:53Z</time>
      </trkpt>
      <trkpt lat="46.50757" lon="0.0244">
        <ele>146.7</ele>
        <time>2020-05-30T17:48:54Z</time>
      </trkpt>
      <trkpt lat="46.50757" lon="0.02436">
        <ele>146.8</ele>
        <time>2020-05-30T17:48:55Z</time>
      </trkpt>
      <trkpt lat="46.50756" lon="0.02431">
        <ele>146.8</ele>
        <time>2020-05-30T17:48:56Z</time>
      </trkpt>
      <trkpt lat="46.50756" lon="0.02426">
        <ele>146.9</ele>
        <time>2020-05-30T17:48:57Z</time>
      </trkpt>
      <trkpt lat="46.50755" lon="0.02422">
        <ele>147</ele>
        <time>2020-05-30T17:48:58Z</time>
      </trkpt>
      <trkpt lat="46.50755" lon="0.02417">
        <ele>147</ele>
        <time>2020-05-30T17:48:59Z</time>
      </trkpt>
      <trkpt lat="46.50754" lon="0.02411">
        <ele>147.1</ele>
        <time>2020-05-30T17:49:00Z</time>
      </trkpt>
      <trkpt lat="46.50753" lon="0.02405">
        <ele>147.2</ele>
        <time>2020-05-30T17:49:01Z</time>
      </trkpt>
      <trkpt lat="46.50752" lon="0.024">
        <ele>147.2</ele>
        <time>2020-05-30T17:49:02Z</time>
      </trkpt>
      <trkpt lat="46.50752" lon="0.02394">
        <ele>147.3</ele>
        <time>2020-05-30T17:49:03Z</time>
      </trkpt>
      <trkpt lat="46.50751" lon="0.02389">
        <ele>147.4</ele>
        <time>2020-05-30T17:49:04Z</time>
      </trkpt>
      <trkpt lat="46.5075" lon="0.02384">
        <ele>147.4</ele>
        <time>2020-05-30T17:49:05Z</time>
      </trkpt>
      <trkpt lat="46.50749" lon="0.02378">
        <ele>147.5</ele>
        <time>2020-05-30T17:49:06Z</time>
      </trkpt>
      <trkpt lat="46.50748" lon="0.02372">
        <ele>147.6</ele>
        <time>2020-05-30T17:49:07Z</time>
      </trkpt>
      <trkpt lat="46.50747" lon="0.02365">
        <ele>147.7</ele>
        <time>2020-05-30T17:49:08Z</time>
      </trkpt>
      <trkpt lat="46.50746" lon="0.02359">
        <ele>147.7</ele>
        <time>2020-05-30T17:49:09Z</time>
      </trkpt>
      <trkpt lat="46.50745" lon="0.0235">
        <ele>147.8</ele>
        <time>2020-05-30T17:49:10Z</time>
      </trkpt>
      <trkpt lat="46.50744" lon="0.02345">
        <ele>147.9</ele>
        <time>2020-05-30T17:49:11Z</time>
      </trkpt>
      <trkpt lat="46.50744" lon="0.02339">
        <ele>148</ele>
        <time>2020-05-30T17:49:12Z</time>
      </trkpt>
      <trkpt lat="46.50743" lon="0.02334">
        <ele>148</ele>
        <time>2020-05-30T17:49:13Z</time>
      </trkpt>
      <trkpt lat="46.50742" lon="0.02327">
        <ele>148.1</ele>
        <time>2020-05-30T17:49:14Z</time>
      </trkpt>
      <trkpt lat="46.50742" lon="0.02322">
        <ele>148.1</ele>
        <time>2020-05-30T17:49:15Z</time>
      </trkpt>
      <trkpt lat="46.5074" lon="0.02315">
        <ele>148.2</ele>
        <time>2020-05-30T17:49:16Z</time>
      </trkpt>
      <trkpt lat="46.50739" lon="0.02309">
        <ele>148.2</ele>
        <time>2020-05-30T17:49:17Z</time>
      </trkpt>
      <trkpt lat="46.50738" lon="0.02301">
        <ele>148.3</ele>
        <time>2020-05-30T17:49:18Z</time>
      </trkpt>
      <trkpt lat="46.50737" lon="0.02296">
        <ele>148.3</ele>
        <time>2020-05-30T17:49:19Z</time>
      </trkpt>
      <trkpt lat="46.50736" lon="0.0229">
        <ele>148.4</ele>
        <time>2020-05-30T17:49:20Z</time>
      </trkpt>
      <trkpt lat="46.50735" lon="0.02285">
        <ele>148.5</ele>
        <time>2020-05-30T17:49:21Z</time>
      </trkpt>
      <trkpt lat="46.50734" lon="0.0228">
        <ele>148.5</ele>
        <time>2020-05-30T17:49:22Z</time>
      </trkpt>
      <trkpt lat="46.50733" lon="0.02276">
        <ele>148.6</ele>
        <time>2020-05-30T17:49:23Z</time>
      </trkpt>
      <trkpt lat="46.50731" lon="0.0227">
        <ele>148.7</ele>
        <time>2020-05-30T17:49:24Z</time>
      </trkpt>
      <trkpt lat="46.50729" lon="0.02263">
        <ele>148.8</ele>
        <time>2020-05-30T17:49:25Z</time>
      </trkpt>
      <trkpt lat="46.50727" lon="0.02257">
        <ele>148.8</ele>
        <time>2020-05-30T17:49:26Z</time>
      </trkpt>
      <trkpt lat="46.50726" lon="0.02253">
        <ele>148.9</ele>
        <time>2020-05-30T17:49:27Z</time>
      </trkpt>
      <trkpt lat="46.50725" lon="0.02249">
        <ele>148.9</ele>
        <time>2020-05-30T17:49:28Z</time>
      </trkpt>
      <trkpt lat="46.50723" lon="0.02242">
        <ele>149</ele>
        <time>2020-05-30T17:49:29Z</time>
      </trkpt>
      <trkpt lat="46.50721" lon="0.02237">
        <ele>149</ele>
        <time>2020-05-30T17:49:30Z</time>
      </trkpt>
      <trkpt lat="46.50719" lon="0.02232">
        <ele>149</ele>
        <time>2020-05-30T17:49:31Z</time>
      </trkpt>
      <trkpt lat="46.50717" lon="0.02227">
        <ele>149</ele>
        <time>2020-05-30T17:49:32Z</time>
      </trkpt>
      <trkpt lat="46.50714" lon="0.02222">
        <ele>149</ele>
        <time>2020-05-30T17:49:33Z</time>
      </trkpt>
      <trkpt lat="46.50712" lon="0.02218">
        <ele>149</ele>
        <time>2020-05-30T17:49:34Z</time>
      </trkpt>
      <trkpt lat="46.5071" lon="0.02213">
        <ele>149</ele>
        <time>2020-05-30T17:49:35Z</time>
      </trkpt>
      <trkpt lat="46.50709" lon="0.02208">
        <ele>149</ele>
        <time>2020-05-30T17:49:36Z</time>
      </trkpt>
      <trkpt lat="46.50708" lon="0.02204">
        <ele>149</ele>
        <time>2020-05-30T17:49:37Z</time>
      </trkpt>
      <trkpt lat="46.50706" lon="0.02198">
        <ele>148.9</ele>
        <time>2020-05-30T17:49:38Z</time>
      </trkpt>
      <trkpt lat="46.50704" lon="0.02193">
        <ele>148.9</ele>
        <time>2020-05-30T17:49:39Z</time>
      </trkpt>
      <trkpt lat="46.50703" lon="0.02186">
        <ele>148.9</ele>
        <time>2020-05-30T17:49:40Z</time>
      </trkpt>
      <trkpt lat="46.50702" lon="0.02182">
        <ele>148.8</ele>
        <time>2020-05-30T17:49:41Z</time>
      </trkpt>
      <trkpt lat="46.507" lon="0.02177">
        <ele>148.8</ele>
        <time>2020-05-30T17:49:42Z</time>
      </trkpt>
      <trkpt lat="46.50699" lon="0.0217">
        <ele>148.8</ele>
        <time>2020-05-30T17:49:43Z</time>
      </trkpt>
      <trkpt lat="46.50697" lon="0.02166">
        <ele>148.8</ele>
        <time>2020-05-30T17:49:44Z</time>
      </trkpt>
      <trkpt lat="46.50695" lon="0.0216">
        <ele>148.7</ele>
        <time>2020-05-30T17:49:45Z</time>
      </trkpt>
      <trkpt lat="46.50693" lon="0.02153">
        <ele>148.7</ele>
        <time>2020-05-30T17:49:46Z</time>
      </trkpt>
      <trkpt lat="46.50691" lon="0.02146">
        <ele>148.6</ele>
        <time>2020-05-30T17:49:47Z</time>
      </trkpt>
      <trkpt lat="46.50687" lon="0.02138">
        <ele>148.5</ele>
        <time>2020-05-30T17:49:48Z</time>
      </trkpt>
      <trkpt lat="46.50685" lon="0.02132">
        <ele>148.5</ele>
        <time>2020-05-30T17:49:49Z</time>
      </trkpt>
      <trkpt lat="46.50682" lon="0.02124">
        <ele>148.4</ele>
        <time>2020-05-30T17:49:50Z</time>
      </trkpt>
      <trkpt lat="46.5068" lon="0.02118">
        <ele>148.3</ele>
        <time>2020-05-30T17:49:51Z</time>
      </trkpt>
      <trkpt lat="46.50678" lon="0.02112">
        <ele>148.2</ele>
        <time>2020-05-30T17:49:52Z</time>
      </trkpt>
      <trkpt lat="46.50676" lon="0.02104">
        <ele>148.2</ele>
        <time>2020-05-30T17:49:53Z</time>
      </trkpt>
      <trkpt lat="46.50674" lon="0.02098">
        <ele>148.1</ele>
        <time>2020-05-30T17:49:54Z</time>
      </trkpt>
      <trkpt lat="46.50673" lon="0.02091">
        <ele>148.1</ele>
        <time>2020-05-30T17:49:55Z</time>
      </trkpt>
      <trkpt lat="46.50671" lon="0.02084">
        <ele>148.1</ele>
        <time>2020-05-30T17:49:56Z</time>
      </trkpt>
      <trkpt lat="46.50669" lon="0.02077">
        <ele>148</ele>
        <time>2020-05-30T17:49:57Z</time>
      </trkpt>
      <trkpt lat="46.50666" lon="0.0207">
        <ele>148</ele>
        <time>2020-05-30T17:49:58Z</time>
      </trkpt>
      <trkpt lat="46.50663" lon="0.02063">
        <ele>148</ele>
        <time>2020-05-30T17:49:59Z</time>
      </trkpt>
      <trkpt lat="46.50661" lon="0.02057">
        <ele>147.9</ele>
        <time>2020-05-30T17:50:00Z</time>
      </trkpt>
      <trkpt lat="46.50659" lon="0.0205">
        <ele>147.9</ele>
        <time>2020-05-30T17:50:01Z</time>
      </trkpt>
      <trkpt lat="46.50656" lon="0.02043">
        <ele>147.8</ele>
        <time>2020-05-30T17:50:02Z</time>
      </trkpt>
      <trkpt lat="46.50654" lon="0.02036">
        <ele>147.8</ele>
        <time>2020-05-30T17:50:03Z</time>
      </trkpt>
      <trkpt lat="46.50651" lon="0.02028">
        <ele>147.7</ele>
        <time>2020-05-30T17:50:04Z</time>
      </trkpt>
      <trkpt lat="46.50649" lon="0.02023">
        <ele>147.7</ele>
        <time>2020-05-30T17:50:05Z</time>
      </trkpt>
      <trkpt lat="46.50647" lon="0.02017">
        <ele>147.6</ele>
        <time>2020-05-30T17:50:06Z</time>
      </trkpt>
      <trkpt lat="46.50645" lon="0.0201">
        <ele>147.6</ele>
        <time>2020-05-30T17:50:07Z</time>
      </trkpt>
      <trkpt lat="46.50643" lon="0.02003">
        <ele>147.6</ele>
        <time>2020-05-30T17:50:08Z</time>
      </trkpt>
      <trkpt lat="46.50641" lon="0.01997">
        <ele>147.5</ele>
        <time>2020-05-30T17:50:09Z</time>
      </trkpt>
      <trkpt lat="46.50638" lon="0.0199">
        <ele>147.5</ele>
        <time>2020-05-30T17:50:10Z</time>
      </trkpt>
      <trkpt lat="46.50636" lon="0.01983">
        <ele>147.4</ele>
        <time>2020-05-30T17:50:11Z</time>
      </trkpt>
      <trkpt lat="46.50634" lon="0.01976">
        <ele>147.4</ele>
        <time>2020-05-30T17:50:12Z</time>
      </trkpt>
      <trkpt lat="46.50632" lon="0.01969">
        <ele>147.3</ele>
        <time>2020-05-30T17:50:13Z</time>
      </trkpt>
      <trkpt lat="46.50629" lon="0.0196">
        <ele>147.3</ele>
        <time>2020-05-30T17:50:14Z</time>
      </trkpt>
      <trkpt lat="46.50628" lon="0.01955">
        <ele>147.2</ele>
        <time>2020-05-30T17:50:15Z</time>
      </trkpt>
      <trkpt lat="46.50625" lon="0.01948">
        <ele>147.2</ele>
        <time>2020-05-30T17:50:16Z</time>
      </trkpt>
      <trkpt lat="46.50623" lon="0.01943">
        <ele>147.1</ele>
        <time>2020-05-30T17:50:17Z</time>
      </trkpt>
      <trkpt lat="46.50621" lon="0.01936">
        <ele>147.1</ele>
        <time>2020-05-30T17:50:18Z</time>
      </trkpt>
      <trkpt lat="46.50619" lon="0.01931">
        <ele>147</ele>
        <time>2020-05-30T17:50:19Z</time>
      </trkpt>
      <trkpt lat="46.50616" lon="0.01922">
        <ele>147</ele>
        <time>2020-05-30T17:50:20Z</time>
      </trkpt>
      <trkpt lat="46.50614" lon="0.01916">
        <ele>146.9</ele>
        <time>2020-05-30T17:50:21Z</time>
      </trkpt>
      <trkpt lat="46.50612" lon="0.01909">
        <ele>146.9</ele>
        <time>2020-05-30T17:50:22Z</time>
      </trkpt>
      <trkpt lat="46.5061" lon="0.01903">
        <ele>146.9</ele>
        <time>2020-05-30T17:50:23Z</time>
      </trkpt>
      <trkpt lat="46.50607" lon="0.01896">
        <ele>146.8</ele>
        <time>2020-05-30T17:50:24Z</time>
      </trkpt>
      <trkpt lat="46.50605" lon="0.01888">
        <ele>146.8</ele>
        <time>2020-05-30T17:50:25Z</time>
      </trkpt>
      <trkpt lat="46.50603" lon="0.01882">
        <ele>146.8</ele>
        <time>2020-05-30T17:50:26Z</time>
      </trkpt>
      <trkpt lat="46.50601" lon="0.01874">
        <ele>146.7</ele>
        <time>2020-05-30T17:50:27Z</time>
      </trkpt>
      <trkpt lat="46.50598" lon="0.01866">
        <ele>146.7</ele>
        <time>2020-05-30T17:50:28Z</time>
      </trkpt>
      <trkpt lat="46.50596" lon="0.01859">
        <ele>146.7</ele>
        <time>2020-05-30T17:50:29Z</time>
      </trkpt>
      <trkpt lat="46.50594" lon="0.01851">
        <ele>146.6</ele>
        <time>2020-05-30T17:50:30Z</time>
      </trkpt>
      <trkpt lat="46.50593" lon="0.01843">
        <ele>146.6</ele>
        <time>2020-05-30T17:50:31Z</time>
      </trkpt>
      <trkpt lat="46.50591" lon="0.01834">
        <ele>146.6</ele>
        <time>2020-05-30T17:50:32Z</time>
      </trkpt>
      <trkpt lat="46.5059" lon="0.01827">
        <ele>146.6</ele>
        <time>2020-05-30T17:50:33Z</time>
      </trkpt>
      <trkpt lat="46.5059" lon="0.01819">
        <ele>146.6</ele>
        <time>2020-05-30T17:50:34Z</time>
      </trkpt>
      <trkpt lat="46.50589" lon="0.01811">
        <ele>146.6</ele>
        <time>2020-05-30T17:50:35Z</time>
      </trkpt>
      <trkpt lat="46.50589" lon="0.01803">
        <ele>146.6</ele>
        <time>2020-05-30T17:50:36Z</time>
      </trkpt>
      <trkpt lat="46.50589" lon="0.01793">
        <ele>146.6</ele>
        <time>2020-05-30T17:50:37Z</time>
      </trkpt>
      <trkpt lat="46.5059" lon="0.01784">
        <ele>146.6</ele>
        <time>2020-05-30T17:50:38Z</time>
      </trkpt>
      <trkpt lat="46.50592" lon="0.01775">
        <ele>146.6</ele>
        <time>2020-05-30T17:50:39Z</time>
      </trkpt>
      <trkpt lat="46.50593" lon="0.01767">
        <ele>146.6</ele>
        <time>2020-05-30T17:50:40Z</time>
      </trkpt>
      <trkpt lat="46.50595" lon="0.01761">
        <ele>146.6</ele>
        <time>2020-05-30T17:50:41Z</time>
      </trkpt>
      <trkpt lat="46.50598" lon="0.01753">
        <ele>146.6</ele>
        <time>2020-05-30T17:50:42Z</time>
      </trkpt>
      <trkpt lat="46.506" lon="0.01746">
        <ele>146.6</ele>
        <time>2020-05-30T17:50:43Z</time>
      </trkpt>
      <trkpt lat="46.50603" lon="0.01738">
        <ele>146.6</ele>
        <time>2020-05-30T17:50:44Z</time>
      </trkpt>
      <trkpt lat="46.50605" lon="0.01731">
        <ele>146.6</ele>
        <time>2020-05-30T17:50:45Z</time>
      </trkpt>
      <trkpt lat="46.50608" lon="0.01723">
        <ele>146.6</ele>
        <time>2020-05-30T17:50:46Z</time>
      </trkpt>
      <trkpt lat="46.5061" lon="0.01717">
        <ele>146.6</ele>
        <time>2020-05-30T17:50:47Z</time>
      </trkpt>
      <trkpt lat="46.50613" lon="0.0171">
        <ele>146.6</ele>
        <time>2020-05-30T17:50:48Z</time>
      </trkpt>
      <trkpt lat="46.50616" lon="0.01702">
        <ele>146.6</ele>
        <time>2020-05-30T17:50:49Z</time>
      </trkpt>
      <trkpt lat="46.50618" lon="0.01695">
        <ele>146.7</ele>
        <time>2020-05-30T17:50:50Z</time>
      </trkpt>
      <trkpt lat="46.50621" lon="0.01688">
        <ele>146.7</ele>
        <time>2020-05-30T17:50:51Z</time>
      </trkpt>
      <trkpt lat="46.50624" lon="0.01681">
        <ele>146.7</ele>
        <time>2020-05-30T17:50:52Z</time>
      </trkpt>
      <trkpt lat="46.50626" lon="0.01673">
        <ele>146.8</ele>
        <time>2020-05-30T17:50:53Z</time>
      </trkpt>
      <trkpt lat="46.50628" lon="0.01668">
        <ele>146.8</ele>
        <time>2020-05-30T17:50:54Z</time>
      </trkpt>
      <trkpt lat="46.50631" lon="0.01661">
        <ele>146.8</ele>
        <time>2020-05-30T17:50:55Z</time>
      </trkpt>
      <trkpt lat="46.50633" lon="0.01654">
        <ele>146.9</ele>
        <time>2020-05-30T17:50:56Z</time>
      </trkpt>
      <trkpt lat="46.50635" lon="0.01646">
        <ele>146.9</ele>
        <time>2020-05-30T17:50:57Z</time>
      </trkpt>
      <trkpt lat="46.50637" lon="0.01639">
        <ele>147</ele>
        <time>2020-05-30T17:50:58Z</time>
      </trkpt>
      <trkpt lat="46.50639" lon="0.01632">
        <ele>147</ele>
        <time>2020-05-30T17:50:59Z</time>
      </trkpt>
      <trkpt lat="46.50641" lon="0.01628">
        <ele>147.1</ele>
        <time>2020-05-30T17:51:00Z</time>
      </trkpt>
      <trkpt lat="46.50643" lon="0.01621">
        <ele>147.1</ele>
        <time>2020-05-30T17:51:01Z</time>
      </trkpt>
      <trkpt lat="46.50645" lon="0.01615">
        <ele>147.2</ele>
        <time>2020-05-30T17:51:02Z</time>
      </trkpt>
      <trkpt lat="46.50648" lon="0.01607">
        <ele>147.3</ele>
        <time>2020-05-30T17:51:03Z</time>
      </trkpt>
      <trkpt lat="46.5065" lon="0.016">
        <ele>147.4</ele>
        <time>2020-05-30T17:51:04Z</time>
      </trkpt>
      <trkpt lat="46.50652" lon="0.01593">
        <ele>147.5</ele>
        <time>2020-05-30T17:51:05Z</time>
      </trkpt>
      <trkpt lat="46.50653" lon="0.01587">
        <ele>147.5</ele>
        <time>2020-05-30T17:51:06Z</time>
      </trkpt>
      <trkpt lat="46.50654" lon="0.0158">
        <ele>147.6</ele>
        <time>2020-05-30T17:51:07Z</time>
      </trkpt>
      <trkpt lat="46.50656" lon="0.01572">
        <ele>147.7</ele>
        <time>2020-05-30T17:51:08Z</time>
      </trkpt>
      <trkpt lat="46.50657" lon="0.01566">
        <ele>147.8</ele>
        <time>2020-05-30T17:51:09Z</time>
      </trkpt>
      <trkpt lat="46.50658" lon="0.01559">
        <ele>147.8</ele>
        <time>2020-05-30T17:51:10Z</time>
      </trkpt>
      <trkpt lat="46.50659" lon="0.01553">
        <ele>147.9</ele>
        <time>2020-05-30T17:51:11Z</time>
      </trkpt>
      <trkpt lat="46.50659" lon="0.01547">
        <ele>147.9</ele>
        <time>2020-05-30T17:51:12Z</time>
      </trkpt>
      <trkpt lat="46.5066" lon="0.01541">
        <ele>148</ele>
        <time>2020-05-30T17:51:13Z</time>
      </trkpt>
      <trkpt lat="46.5066" lon="0.01536">
        <ele>148</ele>
        <time>2020-05-30T17:51:14Z</time>
      </trkpt>
      <trkpt lat="46.5066" lon="0.01529">
        <ele>148.1</ele>
        <time>2020-05-30T17:51:15Z</time>
      </trkpt>
      <trkpt lat="46.5066" lon="0.01523">
        <ele>148.1</ele>
        <time>2020-05-30T17:51:16Z</time>
      </trkpt>
      <trkpt lat="46.5066" lon="0.01515">
        <ele>148.2</ele>
        <time>2020-05-30T17:51:17Z</time>
      </trkpt>
      <trkpt lat="46.5066" lon="0.01507">
        <ele>148.3</ele>
        <time>2020-05-30T17:51:18Z</time>
      </trkpt>
      <trkpt lat="46.5066" lon="0.01501">
        <ele>148.4</ele>
        <time>2020-05-30T17:51:19Z</time>
      </trkpt>
      <trkpt lat="46.5066" lon="0.01493">
        <ele>148.4</ele>
        <time>2020-05-30T17:51:20Z</time>
      </trkpt>
      <trkpt lat="46.5066" lon="0.01487">
        <ele>148.5</ele>
        <time>2020-05-30T17:51:21Z</time>
      </trkpt>
      <trkpt lat="46.5066" lon="0.01478">
        <ele>148.5</ele>
        <time>2020-05-30T17:51:22Z</time>
      </trkpt>
      <trkpt lat="46.5066" lon="0.01473">
        <ele>148.6</ele>
        <time>2020-05-30T17:51:23Z</time>
      </trkpt>
      <trkpt lat="46.50659" lon="0.01466">
        <ele>148.6</ele>
        <time>2020-05-30T17:51:24Z</time>
      </trkpt>
      <trkpt lat="46.50658" lon="0.01459">
        <ele>148.6</ele>
        <time>2020-05-30T17:51:25Z</time>
      </trkpt>
      <trkpt lat="46.50657" lon="0.01452">
        <ele>148.7</ele>
        <time>2020-05-30T17:51:26Z</time>
      </trkpt>
      <trkpt lat="46.50655" lon="0.01445">
        <ele>148.8</ele>
        <time>2020-05-30T17:51:27Z</time>
      </trkpt>
      <trkpt lat="46.50654" lon="0.01438">
        <ele>148.8</ele>
        <time>2020-05-30T17:51:28Z</time>
      </trkpt>
      <trkpt lat="46.50653" lon="0.01433">
        <ele>148.9</ele>
        <time>2020-05-30T17:51:29Z</time>
      </trkpt>
      <trkpt lat="46.50651" lon="0.01424">
        <ele>149</ele>
        <time>2020-05-30T17:51:30Z</time>
      </trkpt>
      <trkpt lat="46.50649" lon="0.01419">
        <ele>149</ele>
        <time>2020-05-30T17:51:31Z</time>
      </trkpt>
      <trkpt lat="46.50647" lon="0.01413">
        <ele>149.1</ele>
        <time>2020-05-30T17:51:32Z</time>
      </trkpt>
      <trkpt lat="46.50645" lon="0.01405">
        <ele>149.2</ele>
        <time>2020-05-30T17:51:33Z</time>
      </trkpt>
      <trkpt lat="46.50643" lon="0.01401">
        <ele>149.3</ele>
        <time>2020-05-30T17:51:34Z</time>
      </trkpt>
      <trkpt lat="46.50641" lon="0.01395">
        <ele>149.3</ele>
        <time>2020-05-30T17:51:35Z</time>
      </trkpt>
      <trkpt lat="46.50638" lon="0.0139">
        <ele>149.4</ele>
        <time>2020-05-30T17:51:36Z</time>
      </trkpt>
      <trkpt lat="46.50636" lon="0.01384">
        <ele>149.5</ele>
        <time>2020-05-30T17:51:37Z</time>
      </trkpt>
      <trkpt lat="46.50634" lon="0.01378">
        <ele>149.5</ele>
        <time>2020-05-30T17:51:38Z</time>
      </trkpt>
      <trkpt lat="46.50632" lon="0.01373">
        <ele>149.6</ele>
        <time>2020-05-30T17:51:39Z</time>
      </trkpt>
      <trkpt lat="46.5063" lon="0.01368">
        <ele>149.6</ele>
        <time>2020-05-30T17:51:40Z</time>
      </trkpt>
      <trkpt lat="46.50628" lon="0.01362">
        <ele>149.7</ele>
        <time>2020-05-30T17:51:41Z</time>
      </trkpt>
      <trkpt lat="46.50625" lon="0.01356">
        <ele>149.8</ele>
        <time>2020-05-30T17:51:42Z</time>
      </trkpt>
      <trkpt lat="46.50622" lon="0.01351">
        <ele>149.9</ele>
        <time>2020-05-30T17:51:43Z</time>
      </trkpt>
      <trkpt lat="46.50619" lon="0.01346">
        <ele>150</ele>
        <time>2020-05-30T17:51:44Z</time>
      </trkpt>
      <trkpt lat="46.50616" lon="0.01341">
        <ele>150.1</ele>
        <time>2020-05-30T17:51:45Z</time>
      </trkpt>
      <trkpt lat="46.50614" lon="0.01336">
        <ele>150.2</ele>
        <time>2020-05-30T17:51:46Z</time>
      </trkpt>
      <trkpt lat="46.5061" lon="0.0133">
        <ele>150.2</ele>
        <time>2020-05-30T17:51:47Z</time>
      </trkpt>
      <trkpt lat="46.50608" lon="0.01325">
        <ele>150.3</ele>
        <time>2020-05-30T17:51:48Z</time>
      </trkpt>
      <trkpt lat="46.50605" lon="0.0132">
        <ele>150.4</ele>
        <time>2020-05-30T17:51:49Z</time>
      </trkpt>
      <trkpt lat="46.50602" lon="0.01315">
        <ele>150.4</ele>
        <time>2020-05-30T17:51:50Z</time>
      </trkpt>
      <trkpt lat="46.506" lon="0.01309">
        <ele>150.5</ele>
        <time>2020-05-30T17:51:51Z</time>
      </trkpt>
      <trkpt lat="46.50597" lon="0.01306">
        <ele>150.5</ele>
        <time>2020-05-30T17:51:52Z</time>
      </trkpt>
      <trkpt lat="46.50595" lon="0.01301">
        <ele>150.6</ele>
        <time>2020-05-30T17:51:53Z</time>
      </trkpt>
      <trkpt lat="46.50592" lon="0.01295">
        <ele>150.6</ele>
        <time>2020-05-30T17:51:54Z</time>
      </trkpt>
      <trkpt lat="46.50589" lon="0.01289">
        <ele>150.7</ele>
        <time>2020-05-30T17:51:55Z</time>
      </trkpt>
      <trkpt lat="46.50586" lon="0.01284">
        <ele>150.8</ele>
        <time>2020-05-30T17:51:56Z</time>
      </trkpt>
      <trkpt lat="46.50585" lon="0.01281">
        <ele>150.8</ele>
        <time>2020-05-30T17:51:57Z</time>
      </trkpt>
      <trkpt lat="46.50582" lon="0.01275">
        <ele>150.9</ele>
        <time>2020-05-30T17:51:58Z</time>
      </trkpt>
      <trkpt lat="46.50579" lon="0.0127">
        <ele>150.9</ele>
        <time>2020-05-30T17:51:59Z</time>
      </trkpt>
      <trkpt lat="46.50576" lon="0.01263">
        <ele>150.9</ele>
        <time>2020-05-30T17:52:00Z</time>
      </trkpt>
      <trkpt lat="46.50574" lon="0.01259">
        <ele>150.9</ele>
        <time>2020-05-30T17:52:01Z</time>
      </trkpt>
      <trkpt lat="46.50571" lon="0.01254">
        <ele>150.9</ele>
        <time>2020-05-30T17:52:02Z</time>
      </trkpt>
      <trkpt lat="46.50568" lon="0.01247">
        <ele>150.9</ele>
        <time>2020-05-30T17:52:03Z</time>
      </trkpt>
      <trkpt lat="46.50565" lon="0.01241">
        <ele>150.8</ele>
        <time>2020-05-30T17:52:04Z</time>
      </trkpt>
      <trkpt lat="46.50562" lon="0.01236">
        <ele>150.8</ele>
        <time>2020-05-30T17:52:05Z</time>
      </trkpt>
      <trkpt lat="46.50558" lon="0.01229">
        <ele>150.7</ele>
        <time>2020-05-30T17:52:06Z</time>
      </trkpt>
      <trkpt lat="46.50554" lon="0.01223">
        <ele>150.6</ele>
        <time>2020-05-30T17:52:07Z</time>
      </trkpt>
      <trkpt lat="46.50552" lon="0.01217">
        <ele>150.5</ele>
        <time>2020-05-30T17:52:08Z</time>
      </trkpt>
      <trkpt lat="46.50548" lon="0.0121">
        <ele>150.4</ele>
        <time>2020-05-30T17:52:09Z</time>
      </trkpt>
      <trkpt lat="46.50545" lon="0.01203">
        <ele>150.3</ele>
        <time>2020-05-30T17:52:10Z</time>
      </trkpt>
      <trkpt lat="46.50541" lon="0.01197">
        <ele>150.2</ele>
        <time>2020-05-30T17:52:11Z</time>
      </trkpt>
      <trkpt lat="46.50539" lon="0.01191">
        <ele>150.1</ele>
        <time>2020-05-30T17:52:12Z</time>
      </trkpt>
      <trkpt lat="46.50536" lon="0.01186">
        <ele>150.1</ele>
        <time>2020-05-30T17:52:13Z</time>
      </trkpt>
      <trkpt lat="46.50533" lon="0.0118">
        <ele>150</ele>
        <time>2020-05-30T17:52:14Z</time>
      </trkpt>
      <trkpt lat="46.5053" lon="0.01174">
        <ele>149.9</ele>
        <time>2020-05-30T17:52:15Z</time>
      </trkpt>
      <trkpt lat="46.50527" lon="0.01167">
        <ele>149.8</ele>
        <time>2020-05-30T17:52:16Z</time>
      </trkpt>
      <trkpt lat="46.50524" lon="0.01161">
        <ele>149.6</ele>
        <time>2020-05-30T17:52:17Z</time>
      </trkpt>
      <trkpt lat="46.50521" lon="0.01154">
        <ele>149.5</ele>
        <time>2020-05-30T17:52:18Z</time>
      </trkpt>
      <trkpt lat="46.50517" lon="0.01147">
        <ele>149.3</ele>
        <time>2020-05-30T17:52:19Z</time>
      </trkpt>
      <trkpt lat="46.50513" lon="0.0114">
        <ele>149.1</ele>
        <time>2020-05-30T17:52:20Z</time>
      </trkpt>
      <trkpt lat="46.50509" lon="0.01132">
        <ele>148.9</ele>
        <time>2020-05-30T17:52:21Z</time>
      </trkpt>
      <trkpt lat="46.50506" lon="0.01125">
        <ele>148.6</ele>
        <time>2020-05-30T17:52:22Z</time>
      </trkpt>
      <trkpt lat="46.50502" lon="0.01118">
        <ele>148.3</ele>
        <time>2020-05-30T17:52:23Z</time>
      </trkpt>
      <trkpt lat="46.50498" lon="0.0111">
        <ele>148</ele>
        <time>2020-05-30T17:52:24Z</time>
      </trkpt>
      <trkpt lat="46.50494" lon="0.01102">
        <ele>147.7</ele>
        <time>2020-05-30T17:52:25Z</time>
      </trkpt>
      <trkpt lat="46.5049" lon="0.01094">
        <ele>147.4</ele>
        <time>2020-05-30T17:52:26Z</time>
      </trkpt>
      <trkpt lat="46.50486" lon="0.01086">
        <ele>147.1</ele>
        <time>2020-05-30T17:52:27Z</time>
      </trkpt>
      <trkpt lat="46.50482" lon="0.01078">
        <ele>146.8</ele>
        <time>2020-05-30T17:52:28Z</time>
      </trkpt>
      <trkpt lat="46.50478" lon="0.0107">
        <ele>146.5</ele>
        <time>2020-05-30T17:52:29Z</time>
      </trkpt>
      <trkpt lat="46.50474" lon="0.01062">
        <ele>146.2</ele>
        <time>2020-05-30T17:52:30Z</time>
      </trkpt>
      <trkpt lat="46.50469" lon="0.01054">
        <ele>145.9</ele>
        <time>2020-05-30T17:52:31Z</time>
      </trkpt>
      <trkpt lat="46.50465" lon="0.01046">
        <ele>145.5</ele>
        <time>2020-05-30T17:52:32Z</time>
      </trkpt>
      <trkpt lat="46.50461" lon="0.01037">
        <ele>145.1</ele>
        <time>2020-05-30T17:52:33Z</time>
      </trkpt>
      <trkpt lat="46.50457" lon="0.01028">
        <ele>144.8</ele>
        <time>2020-05-30T17:52:34Z</time>
      </trkpt>
      <trkpt lat="46.50452" lon="0.01019">
        <ele>144.4</ele>
        <time>2020-05-30T17:52:35Z</time>
      </trkpt>
      <trkpt lat="46.50448" lon="0.0101">
        <ele>144</ele>
        <time>2020-05-30T17:52:36Z</time>
      </trkpt>
      <trkpt lat="46.50443" lon="0.01001">
        <ele>143.7</ele>
        <time>2020-05-30T17:52:37Z</time>
      </trkpt>
      <trkpt lat="46.50439" lon="0.00991">
        <ele>143.3</ele>
        <time>2020-05-30T17:52:38Z</time>
      </trkpt>
      <trkpt lat="46.50434" lon="0.00982">
        <ele>142.9</ele>
        <time>2020-05-30T17:52:39Z</time>
      </trkpt>
      <trkpt lat="46.50429" lon="0.00972">
        <ele>142.4</ele>
        <time>2020-05-30T17:52:40Z</time>
      </trkpt>
      <trkpt lat="46.50424" lon="0.00962">
        <ele>142.1</ele>
        <time>2020-05-30T17:52:41Z</time>
      </trkpt>
      <trkpt lat="46.50419" lon="0.00952">
        <ele>141.8</ele>
        <time>2020-05-30T17:52:42Z</time>
      </trkpt>
      <trkpt lat="46.50415" lon="0.00942">
        <ele>141.6</ele>
        <time>2020-05-30T17:52:43Z</time>
      </trkpt>
      <trkpt lat="46.5041" lon="0.00931">
        <ele>141.5</ele>
        <time>2020-05-30T17:52:44Z</time>
      </trkpt>
      <trkpt lat="46.50405" lon="0.00921">
        <ele>141.2</ele>
        <time>2020-05-30T17:52:45Z</time>
      </trkpt>
      <trkpt lat="46.50399" lon="0.0091">
        <ele>140.9</ele>
        <time>2020-05-30T17:52:46Z</time>
      </trkpt>
      <trkpt lat="46.50394" lon="0.00899">
        <ele>140.5</ele>
        <time>2020-05-30T17:52:47Z</time>
      </trkpt>
      <trkpt lat="46.50388" lon="0.00888">
        <ele>140.1</ele>
        <time>2020-05-30T17:52:48Z</time>
      </trkpt>
      <trkpt lat="46.50383" lon="0.00876">
        <ele>139.7</ele>
        <time>2020-05-30T17:52:49Z</time>
      </trkpt>
      <trkpt lat="46.50378" lon="0.00865">
        <ele>139.3</ele>
        <time>2020-05-30T17:52:50Z</time>
      </trkpt>
      <trkpt lat="46.50372" lon="0.00854">
        <ele>138.9</ele>
        <time>2020-05-30T17:52:51Z</time>
      </trkpt>
      <trkpt lat="46.50367" lon="0.00842">
        <ele>138.5</ele>
        <time>2020-05-30T17:52:52Z</time>
      </trkpt>
      <trkpt lat="46.50362" lon="0.00831">
        <ele>138.3</ele>
        <time>2020-05-30T17:52:53Z</time>
      </trkpt>
      <trkpt lat="46.50356" lon="0.00819">
        <ele>138.1</ele>
        <time>2020-05-30T17:52:54Z</time>
      </trkpt>
      <trkpt lat="46.5035" lon="0.00807">
        <ele>138</ele>
        <time>2020-05-30T17:52:55Z</time>
      </trkpt>
      <trkpt lat="46.50344" lon="0.00795">
        <ele>138</ele>
        <time>2020-05-30T17:52:56Z</time>
      </trkpt>
      <trkpt lat="46.50339" lon="0.00784">
        <ele>138.2</ele>
        <time>2020-05-30T17:52:57Z</time>
      </trkpt>
      <trkpt lat="46.50333" lon="0.00773">
        <ele>138.3</ele>
        <time>2020-05-30T17:52:58Z</time>
      </trkpt>
      <trkpt lat="46.50328" lon="0.00763">
        <ele>138.5</ele>
        <time>2020-05-30T17:52:59Z</time>
      </trkpt>
      <trkpt lat="46.50324" lon="0.00753">
        <ele>138.7</ele>
        <time>2020-05-30T17:53:00Z</time>
      </trkpt>
      <trkpt lat="46.50319" lon="0.00745">
        <ele>138.9</ele>
        <time>2020-05-30T17:53:01Z</time>
      </trkpt>
      <trkpt lat="46.50315" lon="0.00737">
        <ele>139.2</ele>
        <time>2020-05-30T17:53:02Z</time>
      </trkpt>
      <trkpt lat="46.50312" lon="0.00729">
        <ele>139.5</ele>
        <time>2020-05-30T17:53:03Z</time>
      </trkpt>
      <trkpt lat="46.50308" lon="0.00722">
        <ele>139.8</ele>
        <time>2020-05-30T17:53:04Z</time>
      </trkpt>
      <trkpt lat="46.50305" lon="0.00716">
        <ele>140</ele>
        <time>2020-05-30T17:53:05Z</time>
      </trkpt>
      <trkpt lat="46.50302" lon="0.0071">
        <ele>140.2</ele>
        <time>2020-05-30T17:53:06Z</time>
      </trkpt>
      <trkpt lat="46.503" lon="0.00705">
        <ele>140.4</ele>
        <time>2020-05-30T17:53:07Z</time>
      </trkpt>
      <trkpt lat="46.50296" lon="0.007">
        <ele>140.6</ele>
        <time>2020-05-30T17:53:08Z</time>
      </trkpt>
      <trkpt lat="46.50294" lon="0.00695">
        <ele>140.8</ele>
        <time>2020-05-30T17:53:09Z</time>
      </trkpt>
      <trkpt lat="46.50293" lon="0.00689">
        <ele>140.8</ele>
        <time>2020-05-30T17:53:10Z</time>
      </trkpt>
      <trkpt lat="46.50291" lon="0.00683">
        <ele>140.8</ele>
        <time>2020-05-30T17:53:11Z</time>
      </trkpt>
      <trkpt lat="46.5029" lon="0.00678">
        <ele>140.8</ele>
        <time>2020-05-30T17:53:12Z</time>
      </trkpt>
      <trkpt lat="46.50288" lon="0.00672">
        <ele>141.2</ele>
        <time>2020-05-30T17:53:13Z</time>
      </trkpt>
      <trkpt lat="46.50286" lon="0.00667">
        <ele>141.2</ele>
        <time>2020-05-30T17:53:14Z</time>
      </trkpt>
      <trkpt lat="46.50285" lon="0.00663">
        <ele>141.3</ele>
        <time>2020-05-30T17:53:15Z</time>
      </trkpt>
      <trkpt lat="46.50284" lon="0.00658">
        <ele>141.3</ele>
        <time>2020-05-30T17:53:16Z</time>
      </trkpt>
      <trkpt lat="46.50284" lon="0.00657">
        <ele>141.3</ele>
        <time>2020-05-30T17:53:17Z</time>
      </trkpt>
      <trkpt lat="46.50285" lon="0.00656">
        <ele>141.4</ele>
        <time>2020-05-30T17:53:18Z</time>
      </trkpt>
      <trkpt lat="46.50286" lon="0.00655">
        <ele>141.4</ele>
        <time>2020-05-30T17:53:19Z</time>
      </trkpt>
      <trkpt lat="46.50288" lon="0.00655">
        <ele>141.4</ele>
        <time>2020-05-30T17:53:20Z</time>
      </trkpt>
      <trkpt lat="46.50289" lon="0.00656">
        <ele>141.4</ele>
        <time>2020-05-30T17:53:21Z</time>
      </trkpt>
      <trkpt lat="46.50289" lon="0.00656">
        <ele>141.4</ele>
        <time>2020-05-30T17:53:22Z</time>
      </trkpt>
      <trkpt lat="46.50289" lon="0.00657">
        <ele>141.4</ele>
        <time>2020-05-30T17:53:23Z</time>
      </trkpt>
      <trkpt lat="46.5029" lon="0.00657">
        <ele>141.4</ele>
        <time>2020-05-30T17:53:24Z</time>
      </trkpt>
      <trkpt lat="46.5029" lon="0.00658">
        <ele>141.5</ele>
        <time>2020-05-30T17:53:25Z</time>
      </trkpt>
      <trkpt lat="46.50291" lon="0.00658">
        <ele>141.5</ele>
        <time>2020-05-30T17:53:26Z</time>
      </trkpt>
      <trkpt lat="46.50291" lon="0.00659">
        <ele>141.5</ele>
        <time>2020-05-30T17:53:27Z</time>
      </trkpt>
      <trkpt lat="46.50291" lon="0.00659">
        <ele>141.5</ele>
        <time>2020-05-30T17:53:28Z</time>
      </trkpt>
      <trkpt lat="46.50291" lon="0.00659">
        <ele>141.5</ele>
        <time>2020-05-30T17:53:29Z</time>
      </trkpt>
      <trkpt lat="46.50291" lon="0.00658">
        <ele>141.5</ele>
        <time>2020-05-30T17:53:30Z</time>
      </trkpt>
      <trkpt lat="46.50291" lon="0.00658">
        <ele>141.5</ele>
        <time>2020-05-30T17:53:31Z</time>
      </trkpt>
      <trkpt lat="46.50291" lon="0.00658">
        <ele>141.5</ele>
        <time>2020-05-30T17:53:32Z</time>
      </trkpt>
      <trkpt lat="46.50291" lon="0.00657">
        <ele>141.5</ele>
        <time>2020-05-30T17:53:33Z</time>
      </trkpt>
      <trkpt lat="46.50291" lon="0.00657">
        <ele>141.5</ele>
        <time>2020-05-30T17:53:34Z</time>
      </trkpt>
      <trkpt lat="46.50292" lon="0.00659">
        <ele>141.5</ele>
        <time>2020-05-30T17:53:35Z</time>
      </trkpt>
      <trkpt lat="46.50293" lon="0.00659">
        <ele>141.5</ele>
        <time>2020-05-30T17:53:36Z</time>
      </trkpt>
      <trkpt lat="46.50293" lon="0.00659">
        <ele>141.5</ele>
        <time>2020-05-30T17:53:37Z</time>
      </trkpt>
      <trkpt lat="46.50292" lon="0.00658">
        <ele>141.6</ele>
        <time>2020-05-30T17:53:38Z</time>
      </trkpt>
      <trkpt lat="46.50293" lon="0.00658">
        <ele>141.6</ele>
        <time>2020-05-30T17:53:39Z</time>
      </trkpt>
      <trkpt lat="46.50292" lon="0.00657">
        <ele>141.6</ele>
        <time>2020-05-30T17:53:40Z</time>
      </trkpt>
      <trkpt lat="46.50292" lon="0.00657">
        <ele>141.6</ele>
        <time>2020-05-30T17:53:41Z</time>
      </trkpt>
      <trkpt lat="46.50292" lon="0.00656">
        <ele>141.6</ele>
        <time>2020-05-30T17:53:42Z</time>
      </trkpt>
      <trkpt lat="46.50292" lon="0.00656">
        <ele>141.6</ele>
        <time>2020-05-30T17:53:43Z</time>
      </trkpt>
      <trkpt lat="46.50293" lon="0.00657">
        <ele>141.6</ele>
        <time>2020-05-30T17:53:44Z</time>
      </trkpt>
      <trkpt lat="46.50293" lon="0.00655">
        <ele>141.6</ele>
        <time>2020-05-30T17:53:45Z</time>
      </trkpt>
      <trkpt lat="46.50293" lon="0.00655">
        <ele>141.6</ele>
        <time>2020-05-30T17:53:46Z</time>
      </trkpt>
      <trkpt lat="46.50293" lon="0.00655">
        <ele>141.7</ele>
        <time>2020-05-30T17:53:47Z</time>
      </trkpt>
      <trkpt lat="46.50293" lon="0.00655">
        <ele>141.7</ele>
        <time>2020-05-30T17:53:48Z</time>
      </trkpt>
      <trkpt lat="46.50293" lon="0.00655">
        <ele>141.7</ele>
        <time>2020-05-30T17:53:49Z</time>
      </trkpt>
      <trkpt lat="46.50292" lon="0.00653">
        <ele>141.7</ele>
        <time>2020-05-30T17:53:50Z</time>
      </trkpt>
      <trkpt lat="46.50292" lon="0.00653">
        <ele>141.7</ele>
        <time>2020-05-30T17:53:51Z</time>
      </trkpt>
      <trkpt lat="46.50292" lon="0.00652">
        <ele>141.7</ele>
        <time>2020-05-30T17:53:52Z</time>
      </trkpt>
      <trkpt lat="46.50292" lon="0.00652">
        <ele>141.7</ele>
        <time>2020-05-30T17:53:53Z</time>
      </trkpt>
      <trkpt lat="46.50291" lon="0.0065">
        <ele>141.7</ele>
        <time>2020-05-30T17:53:54Z</time>
      </trkpt>
      <trkpt lat="46.50291" lon="0.00649">
        <ele>141.7</ele>
        <time>2020-05-30T17:53:55Z</time>
      </trkpt>
      <trkpt lat="46.50291" lon="0.00649">
        <ele>141.7</ele>
        <time>2020-05-30T17:53:56Z</time>
      </trkpt>
      <trkpt lat="46.50291" lon="0.00649">
        <ele>141.7</ele>
        <time>2020-05-30T17:53:57Z</time>
      </trkpt>
      <trkpt lat="46.50291" lon="0.00649">
        <ele>141.8</ele>
        <time>2020-05-30T17:53:58Z</time>
      </trkpt>
      <trkpt lat="46.50292" lon="0.0065">
        <ele>141.8</ele>
        <time>2020-05-30T17:53:59Z</time>
      </trkpt>
      <trkpt lat="46.50292" lon="0.00651">
        <ele>141.8</ele>
        <time>2020-05-30T17:54:00Z</time>
      </trkpt>
      <trkpt lat="46.50292" lon="0.00651">
        <ele>141.8</ele>
        <time>2020-05-30T17:54:01Z</time>
      </trkpt>
      <trkpt lat="46.50293" lon="0.00652">
        <ele>141.8</ele>
        <time>2020-05-30T17:54:02Z</time>
      </trkpt>
      <trkpt lat="46.50293" lon="0.00653">
        <ele>141.8</ele>
        <time>2020-05-30T17:54:03Z</time>
      </trkpt>
      <trkpt lat="46.50294" lon="0.00654">
        <ele>141.8</ele>
        <time>2020-05-30T17:54:04Z</time>
      </trkpt>
      <trkpt lat="46.50295" lon="0.00655">
        <ele>141.8</ele>
        <time>2020-05-30T17:54:05Z</time>
      </trkpt>
      <trkpt lat="46.50295" lon="0.00656">
        <ele>141.9</ele>
        <time>2020-05-30T17:54:06Z</time>
      </trkpt>
      <trkpt lat="46.50296" lon="0.00657">
        <ele>141.9</ele>
        <time>2020-05-30T17:54:07Z</time>
      </trkpt>
      <trkpt lat="46.50296" lon="0.00658">
        <ele>141.9</ele>
        <time>2020-05-30T17:54:08Z</time>
      </trkpt>
      <trkpt lat="46.50297" lon="0.00659">
        <ele>141.9</ele>
        <time>2020-05-30T17:54:09Z</time>
      </trkpt>
      <trkpt lat="46.50297" lon="0.00659">
        <ele>141.9</ele>
        <time>2020-05-30T17:54:10Z</time>
      </trkpt>
      <trkpt lat="46.50297" lon="0.0066">
        <ele>141.9</ele>
        <time>2020-05-30T17:54:11Z</time>
      </trkpt>
      <trkpt lat="46.50297" lon="0.00659">
        <ele>141.9</ele>
        <time>2020-05-30T17:54:12Z</time>
      </trkpt>
      <trkpt lat="46.50296" lon="0.00659">
        <ele>141.9</ele>
        <time>2020-05-30T17:54:13Z</time>
      </trkpt>
      <trkpt lat="46.50296" lon="0.00657">
        <ele>141.9</ele>
        <time>2020-05-30T17:54:14Z</time>
      </trkpt>
      <trkpt lat="46.50295" lon="0.00655">
        <ele>142</ele>
        <time>2020-05-30T17:54:15Z</time>
      </trkpt>
      <trkpt lat="46.50295" lon="0.00655">
        <ele>142</ele>
        <time>2020-05-30T17:54:16Z</time>
      </trkpt>
      <trkpt lat="46.50295" lon="0.00655">
        <ele>142</ele>
        <time>2020-05-30T17:54:17Z</time>
      </trkpt>
      <trkpt lat="46.50294" lon="0.00654">
        <ele>142</ele>
        <time>2020-05-30T17:54:18Z</time>
      </trkpt>
      <trkpt lat="46.50295" lon="0.00655">
        <ele>142</ele>
        <time>2020-05-30T17:54:19Z</time>
      </trkpt>
      <trkpt lat="46.50294" lon="0.00653">
        <ele>142</ele>
        <time>2020-05-30T17:54:20Z</time>
      </trkpt>
      <trkpt lat="46.50294" lon="0.00653">
        <ele>142</ele>
        <time>2020-05-30T17:54:21Z</time>
      </trkpt>
      <trkpt lat="46.50295" lon="0.00653">
        <ele>142</ele>
        <time>2020-05-30T17:54:22Z</time>
      </trkpt>
      <trkpt lat="46.50295" lon="0.00653">
        <ele>142</ele>
        <time>2020-05-30T17:54:23Z</time>
      </trkpt>
      <trkpt lat="46.50295" lon="0.00653">
        <ele>142</ele>
        <time>2020-05-30T17:54:24Z</time>
      </trkpt>
      <trkpt lat="46.50296" lon="0.00654">
        <ele>142.1</ele>
        <time>2020-05-30T17:54:25Z</time>
      </trkpt>
      <trkpt lat="46.50295" lon="0.00653">
        <ele>142.1</ele>
        <time>2020-05-30T17:54:26Z</time>
      </trkpt>
      <trkpt lat="46.50295" lon="0.00652">
        <ele>142.1</ele>
        <time>2020-05-30T17:54:27Z</time>
      </trkpt>
      <trkpt lat="46.50295" lon="0.0065">
        <ele>142.1</ele>
        <time>2020-05-30T17:54:28Z</time>
      </trkpt>
      <trkpt lat="46.50294" lon="0.00649">
        <ele>142.1</ele>
        <time>2020-05-30T17:54:29Z</time>
      </trkpt>
      <trkpt lat="46.50294" lon="0.00648">
        <ele>142.1</ele>
        <time>2020-05-30T17:54:30Z</time>
      </trkpt>
      <trkpt lat="46.50293" lon="0.00647">
        <ele>142.2</ele>
        <time>2020-05-30T17:54:31Z</time>
      </trkpt>
      <trkpt lat="46.50293" lon="0.00646">
        <ele>142</ele>
        <time>2020-05-30T17:54:32Z</time>
      </trkpt>
      <trkpt lat="46.50293" lon="0.00645">
        <ele>142</ele>
        <time>2020-05-30T17:54:33Z</time>
      </trkpt>
      <trkpt lat="46.50293" lon="0.00646">
        <ele>142</ele>
        <time>2020-05-30T17:54:34Z</time>
      </trkpt>
      <trkpt lat="46.50294" lon="0.00647">
        <ele>142.1</ele>
        <time>2020-05-30T17:54:35Z</time>
      </trkpt>
      <trkpt lat="46.50294" lon="0.00648">
        <ele>142.1</ele>
        <time>2020-05-30T17:54:36Z</time>
      </trkpt>
      <trkpt lat="46.50294" lon="0.00648">
        <ele>142.1</ele>
        <time>2020-05-30T17:54:37Z</time>
      </trkpt>
      <trkpt lat="46.50295" lon="0.00649">
        <ele>142.1</ele>
        <time>2020-05-30T17:54:38Z</time>
      </trkpt>
      <trkpt lat="46.50295" lon="0.0065">
        <ele>142.1</ele>
        <time>2020-05-30T17:54:39Z</time>
      </trkpt>
      <trkpt lat="46.50296" lon="0.00651">
        <ele>142.1</ele>
        <time>2020-05-30T17:54:40Z</time>
      </trkpt>
      <trkpt lat="46.50295" lon="0.00651">
        <ele>142.1</ele>
        <time>2020-05-30T17:54:41Z</time>
      </trkpt>
      <trkpt lat="46.50295" lon="0.0065">
        <ele>142.1</ele>
        <time>2020-05-30T17:54:42Z</time>
      </trkpt>
      <trkpt lat="46.50295" lon="0.00649">
        <ele>142.1</ele>
        <time>2020-05-30T17:54:43Z</time>
      </trkpt>
      <trkpt lat="46.50296" lon="0.0065">
        <ele>142.1</ele>
        <time>2020-05-30T17:54:44Z</time>
      </trkpt>
      <trkpt lat="46.50296" lon="0.0065">
        <ele>142.1</ele>
        <time>2020-05-30T17:54:45Z</time>
      </trkpt>
      <trkpt lat="46.50296" lon="0.0065">
        <ele>142.1</ele>
        <time>2020-05-30T17:54:46Z</time>
      </trkpt>
      <trkpt lat="46.50296" lon="0.0065">
        <ele>142.1</ele>
        <time>2020-05-30T17:54:47Z</time>
      </trkpt>
      <trkpt lat="46.50296" lon="0.0065">
        <ele>142.1</ele>
        <time>2020-05-30T17:54:48Z</time>
      </trkpt>
      <trkpt lat="46.50296" lon="0.00649">
        <ele>142.1</ele>
        <time>2020-05-30T17:54:49Z</time>
      </trkpt>
      <trkpt lat="46.50296" lon="0.00648">
        <ele>142.1</ele>
        <time>2020-05-30T17:54:50Z</time>
      </trkpt>
      <trkpt lat="46.50296" lon="0.00651">
        <ele>142.1</ele>
        <time>2020-05-30T17:54:51Z</time>
      </trkpt>
      <trkpt lat="46.50297" lon="0.00652">
        <ele>142.1</ele>
        <time>2020-05-30T17:54:52Z</time>
      </trkpt>
      <trkpt lat="46.50297" lon="0.00652">
        <ele>142.1</ele>
        <time>2020-05-30T17:54:53Z</time>
      </trkpt>
      <trkpt lat="46.50296" lon="0.00651">
        <ele>142.1</ele>
        <time>2020-05-30T17:54:54Z</time>
      </trkpt>
      <trkpt lat="46.50296" lon="0.00651">
        <ele>142.1</ele>
        <time>2020-05-30T17:54:55Z</time>
      </trkpt>
      <trkpt lat="46.50296" lon="0.00651">
        <ele>142.1</ele>
        <time>2020-05-30T17:54:56Z</time>
      </trkpt>
      <trkpt lat="46.50296" lon="0.0065">
        <ele>142.1</ele>
        <time>2020-05-30T17:54:57Z</time>
      </trkpt>
      <trkpt lat="46.50296" lon="0.0065">
        <ele>142.1</ele>
        <time>2020-05-30T17:54:58Z</time>
      </trkpt>
      <trkpt lat="46.50296" lon="0.00649">
        <ele>142.1</ele>
        <time>2020-05-30T17:54:59Z</time>
      </trkpt>
      <trkpt lat="46.50295" lon="0.00649">
        <ele>142.1</ele>
        <time>2020-05-30T17:55:00Z</time>
      </trkpt>
      <trkpt lat="46.50295" lon="0.00648">
        <ele>142.1</ele>
        <time>2020-05-30T17:55:01Z</time>
      </trkpt>
      <trkpt lat="46.50295" lon="0.00648">
        <ele>142.1</ele>
        <time>2020-05-30T17:55:02Z</time>
      </trkpt>
      <trkpt lat="46.50295" lon="0.00648">
        <ele>142.1</ele>
        <time>2020-05-30T17:55:03Z</time>
      </trkpt>
      <trkpt lat="46.50295" lon="0.00647">
        <ele>142.1</ele>
        <time>2020-05-30T17:55:04Z</time>
      </trkpt>
      <trkpt lat="46.50292" lon="0.00648">
        <ele>142.1</ele>
        <time>2020-05-30T17:55:05Z</time>
      </trkpt>
      <trkpt lat="46.50288" lon="0.00646">
        <ele>142</ele>
        <time>2020-05-30T17:55:06Z</time>
      </trkpt>
      <trkpt lat="46.50283" lon="0.00645">
        <ele>141.9</ele>
        <time>2020-05-30T17:55:07Z</time>
      </trkpt>
      <trkpt lat="46.50278" lon="0.00642">
        <ele>141.7</ele>
        <time>2020-05-30T17:55:08Z</time>
      </trkpt>
      <trkpt lat="46.50273" lon="0.0064">
        <ele>141.6</ele>
        <time>2020-05-30T17:55:09Z</time>
      </trkpt>
      <trkpt lat="46.50268" lon="0.00638">
        <ele>141.5</ele>
        <time>2020-05-30T17:55:10Z</time>
      </trkpt>
      <trkpt lat="46.50262" lon="0.00638">
        <ele>141.4</ele>
        <time>2020-05-30T17:55:11Z</time>
      </trkpt>
      <trkpt lat="46.50257" lon="0.00636">
        <ele>141.3</ele>
        <time>2020-05-30T17:55:12Z</time>
      </trkpt>
      <trkpt lat="46.50251" lon="0.00634">
        <ele>141.1</ele>
        <time>2020-05-30T17:55:13Z</time>
      </trkpt>
      <trkpt lat="46.50244" lon="0.00633">
        <ele>141</ele>
        <time>2020-05-30T17:55:14Z</time>
      </trkpt>
      <trkpt lat="46.50238" lon="0.0063">
        <ele>140.8</ele>
        <time>2020-05-30T17:55:15Z</time>
      </trkpt>
      <trkpt lat="46.50231" lon="0.00627">
        <ele>140.4</ele>
        <time>2020-05-30T17:55:16Z</time>
      </trkpt>
      <trkpt lat="46.50224" lon="0.00623">
        <ele>140.1</ele>
        <time>2020-05-30T17:55:17Z</time>
      </trkpt>
      <trkpt lat="46.50216" lon="0.00624">
        <ele>139.6</ele>
        <time>2020-05-30T17:55:18Z</time>
      </trkpt>
      <trkpt lat="46.50208" lon="0.0062">
        <ele>139.2</ele>
        <time>2020-05-30T17:55:19Z</time>
      </trkpt>
      <trkpt lat="46.502" lon="0.00616">
        <ele>138.8</ele>
        <time>2020-05-30T17:55:20Z</time>
      </trkpt>
      <trkpt lat="46.50191" lon="0.00611">
        <ele>138.3</ele>
        <time>2020-05-30T17:55:21Z</time>
      </trkpt>
      <trkpt lat="46.50182" lon="0.00605">
        <ele>137.9</ele>
        <time>2020-05-30T17:55:22Z</time>
      </trkpt>
      <trkpt lat="46.50173" lon="0.006">
        <ele>137.4</ele>
        <time>2020-05-30T17:55:23Z</time>
      </trkpt>
      <trkpt lat="46.50164" lon="0.00595">
        <ele>136.9</ele>
        <time>2020-05-30T17:55:24Z</time>
      </trkpt>
      <trkpt lat="46.50155" lon="0.00589">
        <ele>136.4</ele>
        <time>2020-05-30T17:55:25Z</time>
      </trkpt>
      <trkpt lat="46.50146" lon="0.00584">
        <ele>135.9</ele>
        <time>2020-05-30T17:55:26Z</time>
      </trkpt>
      <trkpt lat="46.50137" lon="0.00578">
        <ele>135.5</ele>
        <time>2020-05-30T17:55:27Z</time>
      </trkpt>
      <trkpt lat="46.50128" lon="0.00572">
        <ele>135</ele>
        <time>2020-05-30T17:55:28Z</time>
      </trkpt>
      <trkpt lat="46.50119" lon="0.00566">
        <ele>134.6</ele>
        <time>2020-05-30T17:55:29Z</time>
      </trkpt>
      <trkpt lat="46.5011" lon="0.00561">
        <ele>134.1</ele>
        <time>2020-05-30T17:55:30Z</time>
      </trkpt>
      <trkpt lat="46.501" lon="0.00555">
        <ele>133.5</ele>
        <time>2020-05-30T17:55:31Z</time>
      </trkpt>
      <trkpt lat="46.50091" lon="0.00548">
        <ele>133</ele>
        <time>2020-05-30T17:55:32Z</time>
      </trkpt>
      <trkpt lat="46.50081" lon="0.00542">
        <ele>132.5</ele>
        <time>2020-05-30T17:55:33Z</time>
      </trkpt>
      <trkpt lat="46.50071" lon="0.00535">
        <ele>131.9</ele>
        <time>2020-05-30T17:55:34Z</time>
      </trkpt>
      <trkpt lat="46.5006" lon="0.00529">
        <ele>131.3</ele>
        <time>2020-05-30T17:55:35Z</time>
      </trkpt>
      <trkpt lat="46.50049" lon="0.00524">
        <ele>130.6</ele>
        <time>2020-05-30T17:55:36Z</time>
      </trkpt>
      <trkpt lat="46.50039" lon="0.00512">
        <ele>129.9</ele>
        <time>2020-05-30T17:55:37Z</time>
      </trkpt>
      <trkpt lat="46.5003" lon="0.005">
        <ele>129.2</ele>
        <time>2020-05-30T17:55:38Z</time>
      </trkpt>
      <trkpt lat="46.50023" lon="0.00486">
        <ele>128.4</ele>
        <time>2020-05-30T17:55:39Z</time>
      </trkpt>
      <trkpt lat="46.50014" lon="0.00472">
        <ele>127.7</ele>
        <time>2020-05-30T17:55:40Z</time>
      </trkpt>
      <trkpt lat="46.50007" lon="0.00456">
        <ele>127</ele>
        <time>2020-05-30T17:55:41Z</time>
      </trkpt>
      <trkpt lat="46.49999" lon="0.00441">
        <ele>126.3</ele>
        <time>2020-05-30T17:55:42Z</time>
      </trkpt>
      <trkpt lat="46.49991" lon="0.00424">
        <ele>125.8</ele>
        <time>2020-05-30T17:55:43Z</time>
      </trkpt>
      <trkpt lat="46.49984" lon="0.00408">
        <ele>125.3</ele>
        <time>2020-05-30T17:55:44Z</time>
      </trkpt>
      <trkpt lat="46.49975" lon="0.00392">
        <ele>124.8</ele>
        <time>2020-05-30T17:55:45Z</time>
      </trkpt>
      <trkpt lat="46.49967" lon="0.00375">
        <ele>124.4</ele>
        <time>2020-05-30T17:55:46Z</time>
      </trkpt>
      <trkpt lat="46.49959" lon="0.00359">
        <ele>124</ele>
        <time>2020-05-30T17:55:47Z</time>
      </trkpt>
      <trkpt lat="46.49951" lon="0.00342">
        <ele>123.8</ele>
        <time>2020-05-30T17:55:48Z</time>
      </trkpt>
      <trkpt lat="46.49943" lon="0.00327">
        <ele>123.7</ele>
        <time>2020-05-30T17:55:49Z</time>
      </trkpt>
      <trkpt lat="46.49935" lon="0.00311">
        <ele>123.7</ele>
        <time>2020-05-30T17:55:50Z</time>
      </trkpt>
      <trkpt lat="46.49927" lon="0.00296">
        <ele>123.7</ele>
        <time>2020-05-30T17:55:51Z</time>
      </trkpt>
      <trkpt lat="46.49919" lon="0.00281">
        <ele>123.8</ele>
        <time>2020-05-30T17:55:52Z</time>
      </trkpt>
      <trkpt lat="46.49912" lon="0.00267">
        <ele>124</ele>
        <time>2020-05-30T17:55:53Z</time>
      </trkpt>
      <trkpt lat="46.49905" lon="0.00253">
        <ele>124.1</ele>
        <time>2020-05-30T17:55:54Z</time>
      </trkpt>
      <trkpt lat="46.49897" lon="0.00238">
        <ele>124.3</ele>
        <time>2020-05-30T17:55:55Z</time>
      </trkpt>
      <trkpt lat="46.49892" lon="0.00223">
        <ele>124.5</ele>
        <time>2020-05-30T17:55:56Z</time>
      </trkpt>
      <trkpt lat="46.49886" lon="0.00209">
        <ele>124.7</ele>
        <time>2020-05-30T17:55:57Z</time>
      </trkpt>
      <trkpt lat="46.4988" lon="0.00195">
        <ele>124.8</ele>
        <time>2020-05-30T17:55:58Z</time>
      </trkpt>
      <trkpt lat="46.49874" lon="0.00182">
        <ele>124.9</ele>
        <time>2020-05-30T17:55:59Z</time>
      </trkpt>
      <trkpt lat="46.49869" lon="0.0017">
        <ele>125.1</ele>
        <time>2020-05-30T17:56:00Z</time>
      </trkpt>
      <trkpt lat="46.49864" lon="0.00157">
        <ele>125.5</ele>
        <time>2020-05-30T17:56:01Z</time>
      </trkpt>
      <trkpt lat="46.49859" lon="0.00145">
        <ele>126</ele>
        <time>2020-05-30T17:56:02Z</time>
      </trkpt>
      <trkpt lat="46.49854" lon="0.00133">
        <ele>126.4</ele>
        <time>2020-05-30T17:56:03Z</time>
      </trkpt>
      <trkpt lat="46.49849" lon="0.00123">
        <ele>126.8</ele>
        <time>2020-05-30T17:56:04Z</time>
      </trkpt>
      <trkpt lat="46.49844" lon="0.00113">
        <ele>127.2</ele>
        <time>2020-05-30T17:56:05Z</time>
      </trkpt>
      <trkpt lat="46.49839" lon="0.00102">
        <ele>127.6</ele>
        <time>2020-05-30T17:56:06Z</time>
      </trkpt>
      <trkpt lat="46.49835" lon="0.00093">
        <ele>127.9</ele>
        <time>2020-05-30T17:56:07Z</time>
      </trkpt>
      <trkpt lat="46.49831" lon="0.00083">
        <ele>128.3</ele>
        <time>2020-05-30T17:56:08Z</time>
      </trkpt>
      <trkpt lat="46.49826" lon="0.00075">
        <ele>128.6</ele>
        <time>2020-05-30T17:56:09Z</time>
      </trkpt>
      <trkpt lat="46.49822" lon="0.00066">
        <ele>128.9</ele>
        <time>2020-05-30T17:56:10Z</time>
      </trkpt>
      <trkpt lat="46.49817" lon="0.00058">
        <ele>129.1</ele>
        <time>2020-05-30T17:56:11Z</time>
      </trkpt>
      <trkpt lat="46.49813" lon="0.0005">
        <ele>129.4</ele>
        <time>2020-05-30T17:56:12Z</time>
      </trkpt>
      <trkpt lat="46.4981" lon="0.00042">
        <ele>129.6</ele>
        <time>2020-05-30T17:56:13Z</time>
      </trkpt>
      <trkpt lat="46.49806" lon="0.00034">
        <ele>129.8</ele>
        <time>2020-05-30T17:56:14Z</time>
      </trkpt>
      <trkpt lat="46.49803" lon="0.00027">
        <ele>130</ele>
        <time>2020-05-30T17:56:15Z</time>
      </trkpt>
      <trkpt lat="46.498" lon="0.00019">
        <ele>130.1</ele>
        <time>2020-05-30T17:56:16Z</time>
      </trkpt>
      <trkpt lat="46.49796" lon="0.00013">
        <ele>130.3</ele>
        <time>2020-05-30T17:56:17Z</time>
      </trkpt>
      <trkpt lat="46.49794" lon="5.0E-5">
        <ele>130.4</ele>
        <time>2020-05-30T17:56:18Z</time>
      </trkpt>
      <trkpt lat="46.49791" lon="-1.0E-5">
        <ele>130.6</ele>
        <time>2020-05-30T17:56:19Z</time>
      </trkpt>
      <trkpt lat="46.49788" lon="-8.0E-5">
        <ele>130.6</ele>
        <time>2020-05-30T17:56:20Z</time>
      </trkpt>
      <trkpt lat="46.49785" lon="-0.00014">
        <ele>130.7</ele>
        <time>2020-05-30T17:56:21Z</time>
      </trkpt>
      <trkpt lat="46.49783" lon="-0.0002">
        <ele>130.7</ele>
        <time>2020-05-30T17:56:22Z</time>
      </trkpt>
      <trkpt lat="46.4978" lon="-0.00026">
        <ele>130.8</ele>
        <time>2020-05-30T17:56:23Z</time>
      </trkpt>
      <trkpt lat="46.49778" lon="-0.00032">
        <ele>130.8</ele>
        <time>2020-05-30T17:56:24Z</time>
      </trkpt>
      <trkpt lat="46.49775" lon="-0.00037">
        <ele>130.7</ele>
        <time>2020-05-30T17:56:25Z</time>
      </trkpt>
      <trkpt lat="46.49772" lon="-0.00043">
        <ele>130.7</ele>
        <time>2020-05-30T17:56:26Z</time>
      </trkpt>
      <trkpt lat="46.49768" lon="-0.00051">
        <ele>130.7</ele>
        <time>2020-05-30T17:56:27Z</time>
      </trkpt>
      <trkpt lat="46.49765" lon="-0.00059">
        <ele>130.6</ele>
        <time>2020-05-30T17:56:28Z</time>
      </trkpt>
      <trkpt lat="46.49761" lon="-0.00067">
        <ele>130.5</ele>
        <time>2020-05-30T17:56:29Z</time>
      </trkpt>
      <trkpt lat="46.49757" lon="-0.00074">
        <ele>130.4</ele>
        <time>2020-05-30T17:56:30Z</time>
      </trkpt>
      <trkpt lat="46.49753" lon="-0.00081">
        <ele>130.3</ele>
        <time>2020-05-30T17:56:31Z</time>
      </trkpt>
      <trkpt lat="46.49748" lon="-0.00089">
        <ele>130.1</ele>
        <time>2020-05-30T17:56:32Z</time>
      </trkpt>
      <trkpt lat="46.49743" lon="-0.00096">
        <ele>129.9</ele>
        <time>2020-05-30T17:56:33Z</time>
      </trkpt>
      <trkpt lat="46.4974" lon="-0.001">
        <ele>129.8</ele>
        <time>2020-05-30T17:56:34Z</time>
      </trkpt>
      <trkpt lat="46.49733" lon="-0.0011">
        <ele>129.6</ele>
        <time>2020-05-30T17:56:35Z</time>
      </trkpt>
      <trkpt lat="46.4973" lon="-0.00116">
        <ele>129.5</ele>
        <time>2020-05-30T17:56:36Z</time>
      </trkpt>
      <trkpt lat="46.49725" lon="-0.00125">
        <ele>129.3</ele>
        <time>2020-05-30T17:56:37Z</time>
      </trkpt>
      <trkpt lat="46.49719" lon="-0.00134">
        <ele>129.1</ele>
        <time>2020-05-30T17:56:38Z</time>
      </trkpt>
      <trkpt lat="46.49713" lon="-0.00144">
        <ele>128.8</ele>
        <time>2020-05-30T17:56:39Z</time>
      </trkpt>
      <trkpt lat="46.49708" lon="-0.00153">
        <ele>128.6</ele>
        <time>2020-05-30T17:56:40Z</time>
      </trkpt>
      <trkpt lat="46.49702" lon="-0.00162">
        <ele>128.4</ele>
        <time>2020-05-30T17:56:41Z</time>
      </trkpt>
      <trkpt lat="46.49697" lon="-0.00171">
        <ele>128.2</ele>
        <time>2020-05-30T17:56:42Z</time>
      </trkpt>
      <trkpt lat="46.49692" lon="-0.0018">
        <ele>128</ele>
        <time>2020-05-30T17:56:43Z</time>
      </trkpt>
      <trkpt lat="46.49687" lon="-0.0019">
        <ele>127.8</ele>
        <time>2020-05-30T17:56:44Z</time>
      </trkpt>
      <trkpt lat="46.49682" lon="-0.002">
        <ele>127.7</ele>
        <time>2020-05-30T17:56:45Z</time>
      </trkpt>
      <trkpt lat="46.49676" lon="-0.00209">
        <ele>127.5</ele>
        <time>2020-05-30T17:56:46Z</time>
      </trkpt>
      <trkpt lat="46.49671" lon="-0.00219">
        <ele>127.4</ele>
        <time>2020-05-30T17:56:47Z</time>
      </trkpt>
      <trkpt lat="46.49665" lon="-0.00229">
        <ele>127.3</ele>
        <time>2020-05-30T17:56:48Z</time>
      </trkpt>
      <trkpt lat="46.4966" lon="-0.00239">
        <ele>127.3</ele>
        <time>2020-05-30T17:56:49Z</time>
      </trkpt>
      <trkpt lat="46.49655" lon="-0.00249">
        <ele>127.3</ele>
        <time>2020-05-30T17:56:50Z</time>
      </trkpt>
      <trkpt lat="46.49649" lon="-0.00258">
        <ele>127.3</ele>
        <time>2020-05-30T17:56:51Z</time>
      </trkpt>
      <trkpt lat="46.49643" lon="-0.00267">
        <ele>127.4</ele>
        <time>2020-05-30T17:56:52Z</time>
      </trkpt>
      <trkpt lat="46.49637" lon="-0.00277">
        <ele>127.5</ele>
        <time>2020-05-30T17:56:53Z</time>
      </trkpt>
      <trkpt lat="46.49632" lon="-0.00286">
        <ele>127.6</ele>
        <time>2020-05-30T17:56:54Z</time>
      </trkpt>
      <trkpt lat="46.49627" lon="-0.00296">
        <ele>127.8</ele>
        <time>2020-05-30T17:56:55Z</time>
      </trkpt>
      <trkpt lat="46.49621" lon="-0.00305">
        <ele>127.9</ele>
        <time>2020-05-30T17:56:56Z</time>
      </trkpt>
      <trkpt lat="46.49616" lon="-0.00314">
        <ele>128</ele>
        <time>2020-05-30T17:56:57Z</time>
      </trkpt>
      <trkpt lat="46.4961" lon="-0.00323">
        <ele>128.2</ele>
        <time>2020-05-30T17:56:58Z</time>
      </trkpt>
      <trkpt lat="46.49606" lon="-0.00331">
        <ele>128.3</ele>
        <time>2020-05-30T17:56:59Z</time>
      </trkpt>
      <trkpt lat="46.49601" lon="-0.0034">
        <ele>128.5</ele>
        <time>2020-05-30T17:57:00Z</time>
      </trkpt>
      <trkpt lat="46.49596" lon="-0.00347">
        <ele>128.7</ele>
        <time>2020-05-30T17:57:01Z</time>
      </trkpt>
      <trkpt lat="46.49591" lon="-0.00355">
        <ele>128.8</ele>
        <time>2020-05-30T17:57:02Z</time>
      </trkpt>
      <trkpt lat="46.49586" lon="-0.00362">
        <ele>128.9</ele>
        <time>2020-05-30T17:57:03Z</time>
      </trkpt>
      <trkpt lat="46.49582" lon="-0.00369">
        <ele>129.1</ele>
        <time>2020-05-30T17:57:04Z</time>
      </trkpt>
      <trkpt lat="46.49577" lon="-0.00376">
        <ele>129.2</ele>
        <time>2020-05-30T17:57:05Z</time>
      </trkpt>
      <trkpt lat="46.49573" lon="-0.00383">
        <ele>129.3</ele>
        <time>2020-05-30T17:57:06Z</time>
      </trkpt>
      <trkpt lat="46.49569" lon="-0.0039">
        <ele>129.5</ele>
        <time>2020-05-30T17:57:07Z</time>
      </trkpt>
      <trkpt lat="46.49566" lon="-0.00396">
        <ele>129.6</ele>
        <time>2020-05-30T17:57:08Z</time>
      </trkpt>
      <trkpt lat="46.49563" lon="-0.00403">
        <ele>129.8</ele>
        <time>2020-05-30T17:57:09Z</time>
      </trkpt>
      <trkpt lat="46.4956" lon="-0.00409">
        <ele>129.9</ele>
        <time>2020-05-30T17:57:10Z</time>
      </trkpt>
      <trkpt lat="46.49558" lon="-0.00418">
        <ele>130</ele>
        <time>2020-05-30T17:57:11Z</time>
      </trkpt>
      <trkpt lat="46.49555" lon="-0.00425">
        <ele>130.1</ele>
        <time>2020-05-30T17:57:12Z</time>
      </trkpt>
      <trkpt lat="46.49551" lon="-0.00431">
        <ele>130.2</ele>
        <time>2020-05-30T17:57:13Z</time>
      </trkpt>
      <trkpt lat="46.49548" lon="-0.00438">
        <ele>130.2</ele>
        <time>2020-05-30T17:57:14Z</time>
      </trkpt>
      <trkpt lat="46.49543" lon="-0.00443">
        <ele>130.3</ele>
        <time>2020-05-30T17:57:15Z</time>
      </trkpt>
      <trkpt lat="46.49539" lon="-0.00449">
        <ele>130.4</ele>
        <time>2020-05-30T17:57:16Z</time>
      </trkpt>
      <trkpt lat="46.49536" lon="-0.00455">
        <ele>130.5</ele>
        <time>2020-05-30T17:57:17Z</time>
      </trkpt>
      <trkpt lat="46.49533" lon="-0.00462">
        <ele>130.5</ele>
        <time>2020-05-30T17:57:18Z</time>
      </trkpt>
      <trkpt lat="46.49529" lon="-0.00468">
        <ele>130.6</ele>
        <time>2020-05-30T17:57:19Z</time>
      </trkpt>
      <trkpt lat="46.49526" lon="-0.00474">
        <ele>130.7</ele>
        <time>2020-05-30T17:57:20Z</time>
      </trkpt>
      <trkpt lat="46.49523" lon="-0.00481">
        <ele>130.7</ele>
        <time>2020-05-30T17:57:21Z</time>
      </trkpt>
      <trkpt lat="46.4952" lon="-0.00487">
        <ele>130.8</ele>
        <time>2020-05-30T17:57:22Z</time>
      </trkpt>
      <trkpt lat="46.49516" lon="-0.00494">
        <ele>130.8</ele>
        <time>2020-05-30T17:57:23Z</time>
      </trkpt>
      <trkpt lat="46.49514" lon="-0.00501">
        <ele>130.9</ele>
        <time>2020-05-30T17:57:24Z</time>
      </trkpt>
      <trkpt lat="46.49511" lon="-0.00509">
        <ele>130.9</ele>
        <time>2020-05-30T17:57:25Z</time>
      </trkpt>
      <trkpt lat="46.49509" lon="-0.00516">
        <ele>130.9</ele>
        <time>2020-05-30T17:57:26Z</time>
      </trkpt>
      <trkpt lat="46.49506" lon="-0.00523">
        <ele>131</ele>
        <time>2020-05-30T17:57:27Z</time>
      </trkpt>
      <trkpt lat="46.49504" lon="-0.00531">
        <ele>131</ele>
        <time>2020-05-30T17:57:28Z</time>
      </trkpt>
      <trkpt lat="46.49501" lon="-0.00537">
        <ele>131</ele>
        <time>2020-05-30T17:57:29Z</time>
      </trkpt>
      <trkpt lat="46.49497" lon="-0.00542">
        <ele>130.9</ele>
        <time>2020-05-30T17:57:30Z</time>
      </trkpt>
      <trkpt lat="46.49495" lon="-0.00549">
        <ele>130.9</ele>
        <time>2020-05-30T17:57:31Z</time>
      </trkpt>
      <trkpt lat="46.49492" lon="-0.00555">
        <ele>130.9</ele>
        <time>2020-05-30T17:57:32Z</time>
      </trkpt>
      <trkpt lat="46.4949" lon="-0.00563">
        <ele>130.9</ele>
        <time>2020-05-30T17:57:33Z</time>
      </trkpt>
      <trkpt lat="46.49487" lon="-0.0057">
        <ele>130.8</ele>
        <time>2020-05-30T17:57:34Z</time>
      </trkpt>
      <trkpt lat="46.49484" lon="-0.00576">
        <ele>130.8</ele>
        <time>2020-05-30T17:57:35Z</time>
      </trkpt>
      <trkpt lat="46.4948" lon="-0.00585">
        <ele>130.7</ele>
        <time>2020-05-30T17:57:36Z</time>
      </trkpt>
      <trkpt lat="46.49476" lon="-0.00592">
        <ele>130.6</ele>
        <time>2020-05-30T17:57:37Z</time>
      </trkpt>
      <trkpt lat="46.49471" lon="-0.00599">
        <ele>130.5</ele>
        <time>2020-05-30T17:57:38Z</time>
      </trkpt>
      <trkpt lat="46.49466" lon="-0.00606">
        <ele>130.4</ele>
        <time>2020-05-30T17:57:39Z</time>
      </trkpt>
      <trkpt lat="46.49462" lon="-0.00612">
        <ele>130.3</ele>
        <time>2020-05-30T17:57:40Z</time>
      </trkpt>
      <trkpt lat="46.49457" lon="-0.00619">
        <ele>130.1</ele>
        <time>2020-05-30T17:57:41Z</time>
      </trkpt>
      <trkpt lat="46.49453" lon="-0.00626">
        <ele>130</ele>
        <time>2020-05-30T17:57:42Z</time>
      </trkpt>
      <trkpt lat="46.49448" lon="-0.00633">
        <ele>129.9</ele>
        <time>2020-05-30T17:57:43Z</time>
      </trkpt>
      <trkpt lat="46.49444" lon="-0.00641">
        <ele>129.7</ele>
        <time>2020-05-30T17:57:44Z</time>
      </trkpt>
      <trkpt lat="46.4944" lon="-0.0065">
        <ele>129.5</ele>
        <time>2020-05-30T17:57:45Z</time>
      </trkpt>
      <trkpt lat="46.49437" lon="-0.00659">
        <ele>129.3</ele>
        <time>2020-05-30T17:57:46Z</time>
      </trkpt>
      <trkpt lat="46.49435" lon="-0.00667">
        <ele>129.2</ele>
        <time>2020-05-30T17:57:47Z</time>
      </trkpt>
      <trkpt lat="46.49431" lon="-0.00675">
        <ele>129.1</ele>
        <time>2020-05-30T17:57:48Z</time>
      </trkpt>
      <trkpt lat="46.49428" lon="-0.00682">
        <ele>129.1</ele>
        <time>2020-05-30T17:57:49Z</time>
      </trkpt>
      <trkpt lat="46.49427" lon="-0.00688">
        <ele>129</ele>
        <time>2020-05-30T17:57:50Z</time>
      </trkpt>
      <trkpt lat="46.49428" lon="-0.00694">
        <ele>128.9</ele>
        <time>2020-05-30T17:57:51Z</time>
      </trkpt>
      <trkpt lat="46.49428" lon="-0.00698">
        <ele>128.9</ele>
        <time>2020-05-30T17:57:52Z</time>
      </trkpt>
      <trkpt lat="46.49428" lon="-0.00701">
        <ele>128.9</ele>
        <time>2020-05-30T17:57:53Z</time>
      </trkpt>
      <trkpt lat="46.49428" lon="-0.00703">
        <ele>128.8</ele>
        <time>2020-05-30T17:57:54Z</time>
      </trkpt>
      <trkpt lat="46.49428" lon="-0.00703">
        <ele>128.8</ele>
        <time>2020-05-30T17:57:55Z</time>
      </trkpt>
      <trkpt lat="46.49428" lon="-0.00703">
        <ele>128.8</ele>
        <time>2020-05-30T17:57:56Z</time>
      </trkpt>
      <trkpt lat="46.49427" lon="-0.00703">
        <ele>128.8</ele>
        <time>2020-05-30T17:57:57Z</time>
      </trkpt>
      <trkpt lat="46.49426" lon="-0.00703">
        <ele>128.8</ele>
        <time>2020-05-30T17:57:58Z</time>
      </trkpt>
      <trkpt lat="46.49427" lon="-0.00703">
        <ele>128.8</ele>
        <time>2020-05-30T17:57:59Z</time>
      </trkpt>
      <trkpt lat="46.49427" lon="-0.00703">
        <ele>128.8</ele>
        <time>2020-05-30T17:58:00Z</time>
      </trkpt>
      <trkpt lat="46.49427" lon="-0.00703">
        <ele>128.8</ele>
        <time>2020-05-30T17:58:01Z</time>
      </trkpt>
      <trkpt lat="46.49427" lon="-0.00703">
        <ele>128.8</ele>
        <time>2020-05-30T17:58:02Z</time>
      </trkpt>
      <trkpt lat="46.49427" lon="-0.00703">
        <ele>128.8</ele>
        <time>2020-05-30T17:58:03Z</time>
      </trkpt>
      <trkpt lat="46.49427" lon="-0.00703">
        <ele>128.8</ele>
        <time>2020-05-30T17:58:04Z</time>
      </trkpt>
      <trkpt lat="46.49427" lon="-0.00703">
        <ele>128.8</ele>
        <time>2020-05-30T17:58:05Z</time>
      </trkpt>
      <trkpt lat="46.49427" lon="-0.00703">
        <ele>128.8</ele>
        <time>2020-05-30T17:58:06Z</time>
      </trkpt>
      <trkpt lat="46.49427" lon="-0.00703">
        <ele>128.8</ele>
        <time>2020-05-30T17:58:07Z</time>
      </trkpt>
      <trkpt lat="46.49428" lon="-0.00704">
        <ele>128.8</ele>
        <time>2020-05-30T17:58:08Z</time>
      </trkpt>
      <trkpt lat="46.49428" lon="-0.00704">
        <ele>128.8</ele>
        <time>2020-05-30T17:58:09Z</time>
      </trkpt>
      <trkpt lat="46.49428" lon="-0.00704">
        <ele>128.8</ele>
        <time>2020-05-30T17:58:10Z</time>
      </trkpt>
      <trkpt lat="46.49428" lon="-0.00704">
        <ele>128.8</ele>
        <time>2020-05-30T17:58:11Z</time>
      </trkpt>
      <trkpt lat="46.49428" lon="-0.00704">
        <ele>128.8</ele>
        <time>2020-05-30T17:58:12Z</time>
      </trkpt>
      <trkpt lat="46.49428" lon="-0.00704">
        <ele>128.8</ele>
        <time>2020-05-30T17:58:13Z</time>
      </trkpt>
      <trkpt lat="46.4943" lon="-0.00704">
        <ele>128.7</ele>
        <time>2020-05-30T17:58:14Z</time>
      </trkpt>
      <trkpt lat="46.49429" lon="-0.00704">
        <ele>128.7</ele>
        <time>2020-05-30T17:58:15Z</time>
      </trkpt>
      <trkpt lat="46.49429" lon="-0.00704">
        <ele>128.7</ele>
        <time>2020-05-30T17:58:16Z</time>
      </trkpt>
      <trkpt lat="46.49428" lon="-0.00704">
        <ele>128.7</ele>
        <time>2020-05-30T17:58:17Z</time>
      </trkpt>
      <trkpt lat="46.49428" lon="-0.00704">
        <ele>128.7</ele>
        <time>2020-05-30T17:58:18Z</time>
      </trkpt>
      <trkpt lat="46.49427" lon="-0.00704">
        <ele>128.7</ele>
        <time>2020-05-30T17:58:19Z</time>
      </trkpt>
      <trkpt lat="46.49427" lon="-0.00705">
        <ele>128.7</ele>
        <time>2020-05-30T17:58:20Z</time>
      </trkpt>
      <trkpt lat="46.49427" lon="-0.00705">
        <ele>128.7</ele>
        <time>2020-05-30T17:58:21Z</time>
      </trkpt>
      <trkpt lat="46.49427" lon="-0.00705">
        <ele>128.7</ele>
        <time>2020-05-30T17:58:22Z</time>
      </trkpt>
      <trkpt lat="46.49427" lon="-0.00705">
        <ele>128.7</ele>
        <time>2020-05-30T17:58:23Z</time>
      </trkpt>
      <trkpt lat="46.49427" lon="-0.00705">
        <ele>128.7</ele>
        <time>2020-05-30T17:58:24Z</time>
      </trkpt>
      <trkpt lat="46.49427" lon="-0.00705">
        <ele>128.7</ele>
        <time>2020-05-30T17:58:25Z</time>
      </trkpt>
      <trkpt lat="46.49427" lon="-0.00705">
        <ele>128.7</ele>
        <time>2020-05-30T17:58:26Z</time>
      </trkpt>
      <trkpt lat="46.49427" lon="-0.00705">
        <ele>128.7</ele>
        <time>2020-05-30T17:58:27Z</time>
      </trkpt>
      <trkpt lat="46.49428" lon="-0.00705">
        <ele>128.7</ele>
        <time>2020-05-30T17:58:28Z</time>
      </trkpt>
      <trkpt lat="46.49429" lon="-0.00705">
        <ele>128.6</ele>
        <time>2020-05-30T17:58:29Z</time>
      </trkpt>
      <trkpt lat="46.49429" lon="-0.00704">
        <ele>128.6</ele>
        <time>2020-05-30T17:58:30Z</time>
      </trkpt>
      <trkpt lat="46.49429" lon="-0.00704">
        <ele>128.6</ele>
        <time>2020-05-30T17:58:31Z</time>
      </trkpt>
      <trkpt lat="46.49428" lon="-0.00704">
        <ele>128.6</ele>
        <time>2020-05-30T17:58:32Z</time>
      </trkpt>
      <trkpt lat="46.49428" lon="-0.00704">
        <ele>128.6</ele>
        <time>2020-05-30T17:58:33Z</time>
      </trkpt>
      <trkpt lat="46.49428" lon="-0.00704">
        <ele>128.6</ele>
        <time>2020-05-30T17:58:34Z</time>
      </trkpt>
      <trkpt lat="46.49429" lon="-0.00703">
        <ele>128.6</ele>
        <time>2020-05-30T17:58:35Z</time>
      </trkpt>
      <trkpt lat="46.4943" lon="-0.00703">
        <ele>128.6</ele>
        <time>2020-05-30T17:58:36Z</time>
      </trkpt>
      <trkpt lat="46.4943" lon="-0.00703">
        <ele>128.6</ele>
        <time>2020-05-30T17:58:37Z</time>
      </trkpt>
      <trkpt lat="46.49431" lon="-0.00702">
        <ele>128.6</ele>
        <time>2020-05-30T17:58:38Z</time>
      </trkpt>
      <trkpt lat="46.4943" lon="-0.00702">
        <ele>128.6</ele>
        <time>2020-05-30T17:58:39Z</time>
      </trkpt>
      <trkpt lat="46.49431" lon="-0.00702">
        <ele>128.6</ele>
        <time>2020-05-30T17:58:40Z</time>
      </trkpt>
      <trkpt lat="46.49431" lon="-0.00702">
        <ele>128.6</ele>
        <time>2020-05-30T17:58:41Z</time>
      </trkpt>
      <trkpt lat="46.4943" lon="-0.00703">
        <ele>128.6</ele>
        <time>2020-05-30T17:58:42Z</time>
      </trkpt>
      <trkpt lat="46.49429" lon="-0.00703">
        <ele>128.6</ele>
        <time>2020-05-30T17:58:43Z</time>
      </trkpt>
      <trkpt lat="46.49429" lon="-0.00703">
        <ele>128.6</ele>
        <time>2020-05-30T17:58:44Z</time>
      </trkpt>
      <trkpt lat="46.4943" lon="-0.00703">
        <ele>128.5</ele>
        <time>2020-05-30T17:58:45Z</time>
      </trkpt>
      <trkpt lat="46.4943" lon="-0.00703">
        <ele>128.5</ele>
        <time>2020-05-30T17:58:46Z</time>
      </trkpt>
      <trkpt lat="46.49429" lon="-0.00703">
        <ele>128.5</ele>
        <time>2020-05-30T17:58:47Z</time>
      </trkpt>
      <trkpt lat="46.49429" lon="-0.00703">
        <ele>128.5</ele>
        <time>2020-05-30T17:58:48Z</time>
      </trkpt>
      <trkpt lat="46.4943" lon="-0.00703">
        <ele>128.5</ele>
        <time>2020-05-30T17:58:49Z</time>
      </trkpt>
      <trkpt lat="46.4943" lon="-0.00703">
        <ele>128.5</ele>
        <time>2020-05-30T17:58:50Z</time>
      </trkpt>
      <trkpt lat="46.4943" lon="-0.00704">
        <ele>128.5</ele>
        <time>2020-05-30T17:58:51Z</time>
      </trkpt>
      <trkpt lat="46.4943" lon="-0.00704">
        <ele>128.5</ele>
        <time>2020-05-30T17:58:52Z</time>
      </trkpt>
      <trkpt lat="46.49431" lon="-0.00704">
        <ele>128.5</ele>
        <time>2020-05-30T17:58:53Z</time>
      </trkpt>
      <trkpt lat="46.49431" lon="-0.00704">
        <ele>128.5</ele>
        <time>2020-05-30T17:58:54Z</time>
      </trkpt>
      <trkpt lat="46.49431" lon="-0.00704">
        <ele>128.5</ele>
        <time>2020-05-30T17:58:55Z</time>
      </trkpt>
      <trkpt lat="46.49431" lon="-0.00704">
        <ele>128.5</ele>
        <time>2020-05-30T17:58:56Z</time>
      </trkpt>
      <trkpt lat="46.49431" lon="-0.00704">
        <ele>128.5</ele>
        <time>2020-05-30T17:58:57Z</time>
      </trkpt>
      <trkpt lat="46.49431" lon="-0.00704">
        <ele>128.5</ele>
        <time>2020-05-30T17:58:58Z</time>
      </trkpt>
      <trkpt lat="46.49431" lon="-0.00704">
        <ele>128.5</ele>
        <time>2020-05-30T17:58:59Z</time>
      </trkpt>
      <trkpt lat="46.49432" lon="-0.00703">
        <ele>128.5</ele>
        <time>2020-05-30T17:59:00Z</time>
      </trkpt>
      <trkpt lat="46.49433" lon="-0.00703">
        <ele>128.5</ele>
        <time>2020-05-30T17:59:01Z</time>
      </trkpt>
      <trkpt lat="46.49433" lon="-0.00703">
        <ele>128.5</ele>
        <time>2020-05-30T17:59:02Z</time>
      </trkpt>
      <trkpt lat="46.49433" lon="-0.00703">
        <ele>128.4</ele>
        <time>2020-05-30T17:59:03Z</time>
      </trkpt>
      <trkpt lat="46.49433" lon="-0.00703">
        <ele>128.4</ele>
        <time>2020-05-30T17:59:04Z</time>
      </trkpt>
      <trkpt lat="46.49433" lon="-0.00703">
        <ele>128.4</ele>
        <time>2020-05-30T17:59:05Z</time>
      </trkpt>
      <trkpt lat="46.49433" lon="-0.00703">
        <ele>128.4</ele>
        <time>2020-05-30T17:59:06Z</time>
      </trkpt>
      <trkpt lat="46.49433" lon="-0.00703">
        <ele>128.4</ele>
        <time>2020-05-30T17:59:07Z</time>
      </trkpt>
      <trkpt lat="46.49433" lon="-0.00703">
        <ele>128.4</ele>
        <time>2020-05-30T17:59:08Z</time>
      </trkpt>
      <trkpt lat="46.49433" lon="-0.00703">
        <ele>128.4</ele>
        <time>2020-05-30T17:59:09Z</time>
      </trkpt>
      <trkpt lat="46.49433" lon="-0.00703">
        <ele>128.4</ele>
        <time>2020-05-30T17:59:10Z</time>
      </trkpt>
      <trkpt lat="46.49434" lon="-0.00702">
        <ele>128.4</ele>
        <time>2020-05-30T17:59:11Z</time>
      </trkpt>
      <trkpt lat="46.49434" lon="-0.00702">
        <ele>128.4</ele>
        <time>2020-05-30T17:59:12Z</time>
      </trkpt>
      <trkpt lat="46.49435" lon="-0.00702">
        <ele>128.4</ele>
        <time>2020-05-30T17:59:13Z</time>
      </trkpt>
      <trkpt lat="46.49435" lon="-0.00701">
        <ele>128.4</ele>
        <time>2020-05-30T17:59:14Z</time>
      </trkpt>
      <trkpt lat="46.49435" lon="-0.00702">
        <ele>128.4</ele>
        <time>2020-05-30T17:59:15Z</time>
      </trkpt>
      <trkpt lat="46.49435" lon="-0.00702">
        <ele>128.4</ele>
        <time>2020-05-30T17:59:16Z</time>
      </trkpt>
      <trkpt lat="46.49435" lon="-0.00702">
        <ele>128.4</ele>
        <time>2020-05-30T17:59:17Z</time>
      </trkpt>
      <trkpt lat="46.49435" lon="-0.00702">
        <ele>128.4</ele>
        <time>2020-05-30T17:59:18Z</time>
      </trkpt>
      <trkpt lat="46.49435" lon="-0.00702">
        <ele>128.4</ele>
        <time>2020-05-30T17:59:19Z</time>
      </trkpt>
      <trkpt lat="46.49434" lon="-0.00703">
        <ele>128.4</ele>
        <time>2020-05-30T17:59:20Z</time>
      </trkpt>
      <trkpt lat="46.49435" lon="-0.00703">
        <ele>128.4</ele>
        <time>2020-05-30T17:59:21Z</time>
      </trkpt>
      <trkpt lat="46.49434" lon="-0.00703">
        <ele>128.3</ele>
        <time>2020-05-30T17:59:22Z</time>
      </trkpt>
      <trkpt lat="46.49434" lon="-0.00704">
        <ele>128.3</ele>
        <time>2020-05-30T17:59:23Z</time>
      </trkpt>
      <trkpt lat="46.49433" lon="-0.00704">
        <ele>128.3</ele>
        <time>2020-05-30T17:59:24Z</time>
      </trkpt>
      <trkpt lat="46.49433" lon="-0.00705">
        <ele>128.3</ele>
        <time>2020-05-30T17:59:25Z</time>
      </trkpt>
      <trkpt lat="46.49432" lon="-0.00705">
        <ele>128.3</ele>
        <time>2020-05-30T17:59:26Z</time>
      </trkpt>
      <trkpt lat="46.49431" lon="-0.00706">
        <ele>128.3</ele>
        <time>2020-05-30T17:59:27Z</time>
      </trkpt>
      <trkpt lat="46.4943" lon="-0.00707">
        <ele>128.3</ele>
        <time>2020-05-30T17:59:28Z</time>
      </trkpt>
      <trkpt lat="46.4943" lon="-0.00707">
        <ele>128.3</ele>
        <time>2020-05-30T17:59:29Z</time>
      </trkpt>
      <trkpt lat="46.4943" lon="-0.00706">
        <ele>128.3</ele>
        <time>2020-05-30T17:59:30Z</time>
      </trkpt>
      <trkpt lat="46.4943" lon="-0.00707">
        <ele>128.2</ele>
        <time>2020-05-30T17:59:31Z</time>
      </trkpt>
      <trkpt lat="46.49429" lon="-0.00707">
        <ele>128.2</ele>
        <time>2020-05-30T17:59:32Z</time>
      </trkpt>
      <trkpt lat="46.4943" lon="-0.00707">
        <ele>128.2</ele>
        <time>2020-05-30T17:59:33Z</time>
      </trkpt>
      <trkpt lat="46.49431" lon="-0.00705">
        <ele>128.2</ele>
        <time>2020-05-30T17:59:34Z</time>
      </trkpt>
      <trkpt lat="46.49431" lon="-0.00705">
        <ele>128.2</ele>
        <time>2020-05-30T17:59:35Z</time>
      </trkpt>
      <trkpt lat="46.4943" lon="-0.00705">
        <ele>128.2</ele>
        <time>2020-05-30T17:59:36Z</time>
      </trkpt>
      <trkpt lat="46.4943" lon="-0.00706">
        <ele>128.2</ele>
        <time>2020-05-30T17:59:37Z</time>
      </trkpt>
      <trkpt lat="46.4943" lon="-0.00705">
        <ele>128.2</ele>
        <time>2020-05-30T17:59:38Z</time>
      </trkpt>
      <trkpt lat="46.4943" lon="-0.00705">
        <ele>128.2</ele>
        <time>2020-05-30T17:59:39Z</time>
      </trkpt>
      <trkpt lat="46.4943" lon="-0.00703">
        <ele>128.1</ele>
        <time>2020-05-30T17:59:40Z</time>
      </trkpt>
      <trkpt lat="46.4943" lon="-0.00703">
        <ele>128.1</ele>
        <time>2020-05-30T17:59:41Z</time>
      </trkpt>
      <trkpt lat="46.49431" lon="-0.00703">
        <ele>128.1</ele>
        <time>2020-05-30T17:59:42Z</time>
      </trkpt>
      <trkpt lat="46.4943" lon="-0.00704">
        <ele>128.1</ele>
        <time>2020-05-30T17:59:43Z</time>
      </trkpt>
      <trkpt lat="46.49429" lon="-0.00704">
        <ele>128.1</ele>
        <time>2020-05-30T17:59:44Z</time>
      </trkpt>
      <trkpt lat="46.49428" lon="-0.00705">
        <ele>128.1</ele>
        <time>2020-05-30T17:59:45Z</time>
      </trkpt>
      <trkpt lat="46.49428" lon="-0.00706">
        <ele>128.1</ele>
        <time>2020-05-30T17:59:46Z</time>
      </trkpt>
      <trkpt lat="46.49427" lon="-0.00707">
        <ele>128</ele>
        <time>2020-05-30T17:59:47Z</time>
      </trkpt>
      <trkpt lat="46.49426" lon="-0.00708">
        <ele>128</ele>
        <time>2020-05-30T17:59:48Z</time>
      </trkpt>
      <trkpt lat="46.49425" lon="-0.00709">
        <ele>128</ele>
        <time>2020-05-30T17:59:49Z</time>
      </trkpt>
      <trkpt lat="46.49425" lon="-0.0071">
        <ele>128</ele>
        <time>2020-05-30T17:59:50Z</time>
      </trkpt>
      <trkpt lat="46.49426" lon="-0.00709">
        <ele>128</ele>
        <time>2020-05-30T17:59:51Z</time>
      </trkpt>
      <trkpt lat="46.49426" lon="-0.0071">
        <ele>128</ele>
        <time>2020-05-30T17:59:52Z</time>
      </trkpt>
      <trkpt lat="46.49426" lon="-0.00711">
        <ele>128</ele>
        <time>2020-05-30T17:59:53Z</time>
      </trkpt>
      <trkpt lat="46.49426" lon="-0.00713">
        <ele>127.9</ele>
        <time>2020-05-30T17:59:54Z</time>
      </trkpt>
      <trkpt lat="46.49426" lon="-0.00714">
        <ele>127.9</ele>
        <time>2020-05-30T17:59:55Z</time>
      </trkpt>
      <trkpt lat="46.49424" lon="-0.00715">
        <ele>127.9</ele>
        <time>2020-05-30T17:59:56Z</time>
      </trkpt>
      <trkpt lat="46.49423" lon="-0.00715">
        <ele>127.9</ele>
        <time>2020-05-30T17:59:57Z</time>
      </trkpt>
      <trkpt lat="46.49422" lon="-0.00715">
        <ele>127.8</ele>
        <time>2020-05-30T17:59:58Z</time>
      </trkpt>
      <trkpt lat="46.49419" lon="-0.00715">
        <ele>127.6</ele>
        <time>2020-05-30T17:59:59Z</time>
      </trkpt>
      <trkpt lat="46.49416" lon="-0.00717">
        <ele>127.5</ele>
        <time>2020-05-30T18:00:00Z</time>
      </trkpt>
      <trkpt lat="46.49413" lon="-0.00718">
        <ele>127.5</ele>
        <time>2020-05-30T18:00:01Z</time>
      </trkpt>
      <trkpt lat="46.4941" lon="-0.0072">
        <ele>127.4</ele>
        <time>2020-05-30T18:00:02Z</time>
      </trkpt>
      <trkpt lat="46.49407" lon="-0.00723">
        <ele>127.3</ele>
        <time>2020-05-30T18:00:03Z</time>
      </trkpt>
      <trkpt lat="46.49403" lon="-0.00725">
        <ele>127.2</ele>
        <time>2020-05-30T18:00:04Z</time>
      </trkpt>
      <trkpt lat="46.49399" lon="-0.00729">
        <ele>127.1</ele>
        <time>2020-05-30T18:00:05Z</time>
      </trkpt>
      <trkpt lat="46.49394" lon="-0.00733">
        <ele>127</ele>
        <time>2020-05-30T18:00:06Z</time>
      </trkpt>
      <trkpt lat="46.4939" lon="-0.00737">
        <ele>126.8</ele>
        <time>2020-05-30T18:00:07Z</time>
      </trkpt>
      <trkpt lat="46.49386" lon="-0.00742">
        <ele>126.6</ele>
        <time>2020-05-30T18:00:08Z</time>
      </trkpt>
      <trkpt lat="46.49382" lon="-0.00746">
        <ele>126.4</ele>
        <time>2020-05-30T18:00:09Z</time>
      </trkpt>
      <trkpt lat="46.49378" lon="-0.00751">
        <ele>126.2</ele>
        <time>2020-05-30T18:00:10Z</time>
      </trkpt>
      <trkpt lat="46.49374" lon="-0.00757">
        <ele>126</ele>
        <time>2020-05-30T18:00:11Z</time>
      </trkpt>
      <trkpt lat="46.49371" lon="-0.00759">
        <ele>125.9</ele>
        <time>2020-05-30T18:00:12Z</time>
      </trkpt>
      <trkpt lat="46.49368" lon="-0.00762">
        <ele>125.5</ele>
        <time>2020-05-30T18:00:13Z</time>
      </trkpt>
      <trkpt lat="46.49366" lon="-0.00761">
        <ele>125.4</ele>
        <time>2020-05-30T18:00:14Z</time>
      </trkpt>
      <trkpt lat="46.49365" lon="-0.00762">
        <ele>125.3</ele>
        <time>2020-05-30T18:00:15Z</time>
      </trkpt>
      <trkpt lat="46.49366" lon="-0.00761">
        <ele>125.3</ele>
        <time>2020-05-30T18:00:16Z</time>
      </trkpt>
      <trkpt lat="46.49366" lon="-0.00761">
        <ele>125.3</ele>
        <time>2020-05-30T18:00:17Z</time>
      </trkpt>
      <trkpt lat="46.49366" lon="-0.00762">
        <ele>125.3</ele>
        <time>2020-05-30T18:00:18Z</time>
      </trkpt>
      <trkpt lat="46.49366" lon="-0.00762">
        <ele>125.3</ele>
        <time>2020-05-30T18:00:19Z</time>
      </trkpt>
      <trkpt lat="46.49366" lon="-0.00763">
        <ele>125.2</ele>
        <time>2020-05-30T18:00:20Z</time>
      </trkpt>
      <trkpt lat="46.49367" lon="-0.00764">
        <ele>125.2</ele>
        <time>2020-05-30T18:00:21Z</time>
      </trkpt>
      <trkpt lat="46.49367" lon="-0.00764">
        <ele>125.2</ele>
        <time>2020-05-30T18:00:22Z</time>
      </trkpt>
      <trkpt lat="46.49367" lon="-0.00765">
        <ele>125.2</ele>
        <time>2020-05-30T18:00:23Z</time>
      </trkpt>
      <trkpt lat="46.49367" lon="-0.00767">
        <ele>125.1</ele>
        <time>2020-05-30T18:00:24Z</time>
      </trkpt>
      <trkpt lat="46.49367" lon="-0.00768">
        <ele>125.1</ele>
        <time>2020-05-30T18:00:25Z</time>
      </trkpt>
      <trkpt lat="46.49367" lon="-0.00768">
        <ele>125.1</ele>
        <time>2020-05-30T18:00:26Z</time>
      </trkpt>
      <trkpt lat="46.49367" lon="-0.00769">
        <ele>125.1</ele>
        <time>2020-05-30T18:00:27Z</time>
      </trkpt>
      <trkpt lat="46.49367" lon="-0.00769">
        <ele>125.1</ele>
        <time>2020-05-30T18:00:28Z</time>
      </trkpt>
      <trkpt lat="46.49367" lon="-0.0077">
        <ele>125.1</ele>
        <time>2020-05-30T18:00:29Z</time>
      </trkpt>
      <trkpt lat="46.49367" lon="-0.00771">
        <ele>125.1</ele>
        <time>2020-05-30T18:00:30Z</time>
      </trkpt>
      <trkpt lat="46.4937" lon="-0.00775">
        <ele>124.9</ele>
        <time>2020-05-30T18:00:31Z</time>
      </trkpt>
      <trkpt lat="46.49372" lon="-0.00783">
        <ele>124.8</ele>
        <time>2020-05-30T18:00:32Z</time>
      </trkpt>
      <trkpt lat="46.49375" lon="-0.0079">
        <ele>124.6</ele>
        <time>2020-05-30T18:00:33Z</time>
      </trkpt>
      <trkpt lat="46.49377" lon="-0.00799">
        <ele>124.4</ele>
        <time>2020-05-30T18:00:34Z</time>
      </trkpt>
      <trkpt lat="46.49378" lon="-0.00809">
        <ele>124.2</ele>
        <time>2020-05-30T18:00:35Z</time>
      </trkpt>
      <trkpt lat="46.4938" lon="-0.00818">
        <ele>124.1</ele>
        <time>2020-05-30T18:00:36Z</time>
      </trkpt>
      <trkpt lat="46.49382" lon="-0.00827">
        <ele>124</ele>
        <time>2020-05-30T18:00:37Z</time>
      </trkpt>
      <trkpt lat="46.49384" lon="-0.00835">
        <ele>123.8</ele>
        <time>2020-05-30T18:00:38Z</time>
      </trkpt>
      <trkpt lat="46.49388" lon="-0.00843">
        <ele>123.7</ele>
        <time>2020-05-30T18:00:39Z</time>
      </trkpt>
      <trkpt lat="46.49391" lon="-0.0085">
        <ele>123.6</ele>
        <time>2020-05-30T18:00:40Z</time>
      </trkpt>
      <trkpt lat="46.49393" lon="-0.00856">
        <ele>123.5</ele>
        <time>2020-05-30T18:00:41Z</time>
      </trkpt>
      <trkpt lat="46.49396" lon="-0.00862">
        <ele>123.4</ele>
        <time>2020-05-30T18:00:42Z</time>
      </trkpt>
      <trkpt lat="46.49398" lon="-0.00869">
        <ele>123.3</ele>
        <time>2020-05-30T18:00:43Z</time>
      </trkpt>
      <trkpt lat="46.49402" lon="-0.00875">
        <ele>123.1</ele>
        <time>2020-05-30T18:00:44Z</time>
      </trkpt>
      <trkpt lat="46.49404" lon="-0.00882">
        <ele>123</ele>
        <time>2020-05-30T18:00:45Z</time>
      </trkpt>
      <trkpt lat="46.49406" lon="-0.0089">
        <ele>122.8</ele>
        <time>2020-05-30T18:00:46Z</time>
      </trkpt>
      <trkpt lat="46.49408" lon="-0.00897">
        <ele>122.7</ele>
        <time>2020-05-30T18:00:47Z</time>
      </trkpt>
      <trkpt lat="46.4941" lon="-0.00905">
        <ele>122.6</ele>
        <time>2020-05-30T18:00:48Z</time>
      </trkpt>
      <trkpt lat="46.49412" lon="-0.00912">
        <ele>122.5</ele>
        <time>2020-05-30T18:00:49Z</time>
      </trkpt>
      <trkpt lat="46.49414" lon="-0.0092">
        <ele>122.5</ele>
        <time>2020-05-30T18:00:50Z</time>
      </trkpt>
      <trkpt lat="46.49416" lon="-0.00928">
        <ele>122.5</ele>
        <time>2020-05-30T18:00:51Z</time>
      </trkpt>
      <trkpt lat="46.49418" lon="-0.00936">
        <ele>122.5</ele>
        <time>2020-05-30T18:00:52Z</time>
      </trkpt>
      <trkpt lat="46.4942" lon="-0.00944">
        <ele>122.5</ele>
        <time>2020-05-30T18:00:53Z</time>
      </trkpt>
      <trkpt lat="46.49423" lon="-0.00953">
        <ele>122.5</ele>
        <time>2020-05-30T18:00:54Z</time>
      </trkpt>
      <trkpt lat="46.49425" lon="-0.00962">
        <ele>122.5</ele>
        <time>2020-05-30T18:00:55Z</time>
      </trkpt>
      <trkpt lat="46.49427" lon="-0.0097">
        <ele>122.6</ele>
        <time>2020-05-30T18:00:56Z</time>
      </trkpt>
      <trkpt lat="46.49428" lon="-0.00978">
        <ele>122.6</ele>
        <time>2020-05-30T18:00:57Z</time>
      </trkpt>
      <trkpt lat="46.49429" lon="-0.00985">
        <ele>122.6</ele>
        <time>2020-05-30T18:00:58Z</time>
      </trkpt>
      <trkpt lat="46.49431" lon="-0.00991">
        <ele>122.7</ele>
        <time>2020-05-30T18:00:59Z</time>
      </trkpt>
      <trkpt lat="46.49432" lon="-0.00997">
        <ele>122.7</ele>
        <time>2020-05-30T18:01:00Z</time>
      </trkpt>
      <trkpt lat="46.49433" lon="-0.01003">
        <ele>122.7</ele>
        <time>2020-05-30T18:01:01Z</time>
      </trkpt>
      <trkpt lat="46.49433" lon="-0.01008">
        <ele>122.7</ele>
        <time>2020-05-30T18:01:02Z</time>
      </trkpt>
      <trkpt lat="46.4943" lon="-0.01012">
        <ele>122.8</ele>
        <time>2020-05-30T18:01:03Z</time>
      </trkpt>
      <trkpt lat="46.49429" lon="-0.01013">
        <ele>122.8</ele>
        <time>2020-05-30T18:01:04Z</time>
      </trkpt>
      <trkpt lat="46.49427" lon="-0.01017">
        <ele>122.8</ele>
        <time>2020-05-30T18:01:05Z</time>
      </trkpt>
      <trkpt lat="46.49426" lon="-0.01019">
        <ele>122.8</ele>
        <time>2020-05-30T18:01:06Z</time>
      </trkpt>
      <trkpt lat="46.49427" lon="-0.01023">
        <ele>122.8</ele>
        <time>2020-05-30T18:01:07Z</time>
      </trkpt>
      <trkpt lat="46.49428" lon="-0.01025">
        <ele>122.8</ele>
        <time>2020-05-30T18:01:08Z</time>
      </trkpt>
      <trkpt lat="46.49431" lon="-0.01026">
        <ele>122.8</ele>
        <time>2020-05-30T18:01:09Z</time>
      </trkpt>
      <trkpt lat="46.49432" lon="-0.01025">
        <ele>122.8</ele>
        <time>2020-05-30T18:01:10Z</time>
      </trkpt>
      <trkpt lat="46.49434" lon="-0.01019">
        <ele>122.9</ele>
        <time>2020-05-30T18:01:11Z</time>
      </trkpt>
      <trkpt lat="46.49434" lon="-0.01017">
        <ele>122.9</ele>
        <time>2020-05-30T18:01:12Z</time>
      </trkpt>
      <trkpt lat="46.49434" lon="-0.01012">
        <ele>122.8</ele>
        <time>2020-05-30T18:01:13Z</time>
      </trkpt>
      <trkpt lat="46.49434" lon="-0.01007">
        <ele>122.8</ele>
        <time>2020-05-30T18:01:14Z</time>
      </trkpt>
      <trkpt lat="46.49433" lon="-0.01001">
        <ele>122.8</ele>
        <time>2020-05-30T18:01:15Z</time>
      </trkpt>
      <trkpt lat="46.49433" lon="-0.00995">
        <ele>122.8</ele>
        <time>2020-05-30T18:01:16Z</time>
      </trkpt>
      <trkpt lat="46.49432" lon="-0.00989">
        <ele>122.7</ele>
        <time>2020-05-30T18:01:17Z</time>
      </trkpt>
      <trkpt lat="46.49432" lon="-0.00981">
        <ele>122.7</ele>
        <time>2020-05-30T18:01:18Z</time>
      </trkpt>
      <trkpt lat="46.49431" lon="-0.00975">
        <ele>122.7</ele>
        <time>2020-05-30T18:01:19Z</time>
      </trkpt>
      <trkpt lat="46.4943" lon="-0.00968">
        <ele>122.6</ele>
        <time>2020-05-30T18:01:20Z</time>
      </trkpt>
      <trkpt lat="46.4943" lon="-0.00961">
        <ele>122.6</ele>
        <time>2020-05-30T18:01:21Z</time>
      </trkpt>
      <trkpt lat="46.49429" lon="-0.00954">
        <ele>122.6</ele>
        <time>2020-05-30T18:01:22Z</time>
      </trkpt>
      <trkpt lat="46.49427" lon="-0.00947">
        <ele>122.5</ele>
        <time>2020-05-30T18:01:23Z</time>
      </trkpt>
      <trkpt lat="46.49426" lon="-0.0094">
        <ele>122.5</ele>
        <time>2020-05-30T18:01:24Z</time>
      </trkpt>
      <trkpt lat="46.49424" lon="-0.00933">
        <ele>122.5</ele>
        <time>2020-05-30T18:01:25Z</time>
      </trkpt>
      <trkpt lat="46.49422" lon="-0.00927">
        <ele>122.5</ele>
        <time>2020-05-30T18:01:26Z</time>
      </trkpt>
      <trkpt lat="46.49419" lon="-0.00921">
        <ele>122.5</ele>
        <time>2020-05-30T18:01:27Z</time>
      </trkpt>
      <trkpt lat="46.49417" lon="-0.00915">
        <ele>122.5</ele>
        <time>2020-05-30T18:01:28Z</time>
      </trkpt>
      <trkpt lat="46.49415" lon="-0.00908">
        <ele>122.5</ele>
        <time>2020-05-30T18:01:29Z</time>
      </trkpt>
      <trkpt lat="46.49412" lon="-0.00902">
        <ele>122.6</ele>
        <time>2020-05-30T18:01:30Z</time>
      </trkpt>
      <trkpt lat="46.49411" lon="-0.00894">
        <ele>122.7</ele>
        <time>2020-05-30T18:01:31Z</time>
      </trkpt>
      <trkpt lat="46.49409" lon="-0.00888">
        <ele>122.8</ele>
        <time>2020-05-30T18:01:32Z</time>
      </trkpt>
      <trkpt lat="46.49407" lon="-0.00883">
        <ele>122.9</ele>
        <time>2020-05-30T18:01:33Z</time>
      </trkpt>
      <trkpt lat="46.49406" lon="-0.00878">
        <ele>123</ele>
        <time>2020-05-30T18:01:34Z</time>
      </trkpt>
      <trkpt lat="46.49404" lon="-0.00874">
        <ele>123</ele>
        <time>2020-05-30T18:01:35Z</time>
      </trkpt>
      <trkpt lat="46.49403" lon="-0.00873">
        <ele>123</ele>
        <time>2020-05-30T18:01:36Z</time>
      </trkpt>
      <trkpt lat="46.49402" lon="-0.00872">
        <ele>122.9</ele>
        <time>2020-05-30T18:01:37Z</time>
      </trkpt>
      <trkpt lat="46.49402" lon="-0.00871">
        <ele>122.9</ele>
        <time>2020-05-30T18:01:38Z</time>
      </trkpt>
      <trkpt lat="46.49402" lon="-0.00871">
        <ele>122.9</ele>
        <time>2020-05-30T18:01:39Z</time>
      </trkpt>
      <trkpt lat="46.49402" lon="-0.0087">
        <ele>122.9</ele>
        <time>2020-05-30T18:01:40Z</time>
      </trkpt>
      <trkpt lat="46.49402" lon="-0.00872">
        <ele>122.9</ele>
        <time>2020-05-30T18:01:41Z</time>
      </trkpt>
      <trkpt lat="46.49402" lon="-0.00872">
        <ele>122.9</ele>
        <time>2020-05-30T18:01:42Z</time>
      </trkpt>
      <trkpt lat="46.49401" lon="-0.00872">
        <ele>122.9</ele>
        <time>2020-05-30T18:01:43Z</time>
      </trkpt>
      <trkpt lat="46.49401" lon="-0.00873">
        <ele>122.9</ele>
        <time>2020-05-30T18:01:44Z</time>
      </trkpt>
      <trkpt lat="46.49402" lon="-0.00872">
        <ele>122.9</ele>
        <time>2020-05-30T18:01:45Z</time>
      </trkpt>
      <trkpt lat="46.49402" lon="-0.00872">
        <ele>122.9</ele>
        <time>2020-05-30T18:01:46Z</time>
      </trkpt>
      <trkpt lat="46.49402" lon="-0.00874">
        <ele>122.9</ele>
        <time>2020-05-30T18:01:47Z</time>
      </trkpt>
      <trkpt lat="46.49401" lon="-0.00873">
        <ele>122.9</ele>
        <time>2020-05-30T18:01:48Z</time>
      </trkpt>
      <trkpt lat="46.49401" lon="-0.00875">
        <ele>122.9</ele>
        <time>2020-05-30T18:01:49Z</time>
      </trkpt>
      <trkpt lat="46.49402" lon="-0.00873">
        <ele>122.9</ele>
        <time>2020-05-30T18:01:50Z</time>
      </trkpt>
      <trkpt lat="46.49402" lon="-0.00874">
        <ele>122.9</ele>
        <time>2020-05-30T18:01:51Z</time>
      </trkpt>
      <trkpt lat="46.49403" lon="-0.00874">
        <ele>122.9</ele>
        <time>2020-05-30T18:01:52Z</time>
      </trkpt>
      <trkpt lat="46.49403" lon="-0.00874">
        <ele>122.9</ele>
        <time>2020-05-30T18:01:53Z</time>
      </trkpt>
      <trkpt lat="46.49403" lon="-0.00874">
        <ele>122.9</ele>
        <time>2020-05-30T18:01:54Z</time>
      </trkpt>
      <trkpt lat="46.49403" lon="-0.00874">
        <ele>122.9</ele>
        <time>2020-05-30T18:01:55Z</time>
      </trkpt>
      <trkpt lat="46.49403" lon="-0.00874">
        <ele>122.9</ele>
        <time>2020-05-30T18:01:56Z</time>
      </trkpt>
      <trkpt lat="46.49403" lon="-0.00874">
        <ele>122.9</ele>
        <time>2020-05-30T18:01:57Z</time>
      </trkpt>
      <trkpt lat="46.49403" lon="-0.00874">
        <ele>122.9</ele>
        <time>2020-05-30T18:01:58Z</time>
      </trkpt>
      <trkpt lat="46.49403" lon="-0.00874">
        <ele>122.9</ele>
        <time>2020-05-30T18:01:59Z</time>
      </trkpt>
      <trkpt lat="46.49403" lon="-0.00874">
        <ele>122.9</ele>
        <time>2020-05-30T18:02:00Z</time>
      </trkpt>
      <trkpt lat="46.49403" lon="-0.00874">
        <ele>122.9</ele>
        <time>2020-05-30T18:02:01Z</time>
      </trkpt>
      <trkpt lat="46.49403" lon="-0.00874">
        <ele>122.9</ele>
        <time>2020-05-30T18:02:02Z</time>
      </trkpt>
      <trkpt lat="46.49403" lon="-0.00874">
        <ele>122.9</ele>
        <time>2020-05-30T18:02:03Z</time>
      </trkpt>
      <trkpt lat="46.49403" lon="-0.00874">
        <ele>122.9</ele>
        <time>2020-05-30T18:02:04Z</time>
      </trkpt>
      <trkpt lat="46.49403" lon="-0.00874">
        <ele>122.9</ele>
        <time>2020-05-30T18:02:05Z</time>
      </trkpt>
      <trkpt lat="46.49403" lon="-0.00874">
        <ele>122.9</ele>
        <time>2020-05-30T18:02:06Z</time>
      </trkpt>
      <trkpt lat="46.49403" lon="-0.00874">
        <ele>122.9</ele>
        <time>2020-05-30T18:02:07Z</time>
      </trkpt>
      <trkpt lat="46.49403" lon="-0.00874">
        <ele>122.9</ele>
        <time>2020-05-30T18:02:08Z</time>
      </trkpt>
      <trkpt lat="46.49403" lon="-0.00874">
        <ele>122.9</ele>
        <time>2020-05-30T18:02:09Z</time>
      </trkpt>
      <trkpt lat="46.49403" lon="-0.00874">
        <ele>122.9</ele>
        <time>2020-05-30T18:02:10Z</time>
      </trkpt>
      <trkpt lat="46.49403" lon="-0.00874">
        <ele>122.9</ele>
        <time>2020-05-30T18:02:11Z</time>
      </trkpt>
      <trkpt lat="46.49403" lon="-0.00874">
        <ele>122.9</ele>
        <time>2020-05-30T18:02:12Z</time>
      </trkpt>
      <trkpt lat="46.49403" lon="-0.00874">
        <ele>122.9</ele>
        <time>2020-05-30T18:02:13Z</time>
      </trkpt>
      <trkpt lat="46.49403" lon="-0.00874">
        <ele>122.9</ele>
        <time>2020-05-30T18:02:14Z</time>
      </trkpt>
      <trkpt lat="46.49403" lon="-0.00874">
        <ele>122.9</ele>
        <time>2020-05-30T18:02:15Z</time>
      </trkpt>
      <trkpt lat="46.49403" lon="-0.00874">
        <ele>122.9</ele>
        <time>2020-05-30T18:02:16Z</time>
      </trkpt>
      <trkpt lat="46.49403" lon="-0.00874">
        <ele>122.9</ele>
        <time>2020-05-30T18:02:17Z</time>
      </trkpt>
      <trkpt lat="46.49403" lon="-0.00874">
        <ele>122.9</ele>
        <time>2020-05-30T18:02:18Z</time>
      </trkpt>
      <trkpt lat="46.49403" lon="-0.00874">
        <ele>122.9</ele>
        <time>2020-05-30T18:02:19Z</time>
      </trkpt>
      <trkpt lat="46.49403" lon="-0.00874">
        <ele>122.9</ele>
        <time>2020-05-30T18:02:20Z</time>
      </trkpt>
      <trkpt lat="46.49403" lon="-0.00874">
        <ele>122.9</ele>
        <time>2020-05-30T18:02:21Z</time>
      </trkpt>
      <trkpt lat="46.49403" lon="-0.00874">
        <ele>122.9</ele>
        <time>2020-05-30T18:02:22Z</time>
      </trkpt>
      <trkpt lat="46.49403" lon="-0.00874">
        <ele>122.9</ele>
        <time>2020-05-30T18:02:23Z</time>
      </trkpt>
      <trkpt lat="46.49403" lon="-0.00874">
        <ele>122.9</ele>
        <time>2020-05-30T18:02:24Z</time>
      </trkpt>
      <trkpt lat="46.49403" lon="-0.00874">
        <ele>122.9</ele>
        <time>2020-05-30T18:02:25Z</time>
      </trkpt>
      <trkpt lat="46.49403" lon="-0.00874">
        <ele>122.9</ele>
        <time>2020-05-30T18:02:26Z</time>
      </trkpt>
      <trkpt lat="46.49403" lon="-0.00874">
        <ele>122.9</ele>
        <time>2020-05-30T18:02:27Z</time>
      </trkpt>
      <trkpt lat="46.49403" lon="-0.00874">
        <ele>122.9</ele>
        <time>2020-05-30T18:02:28Z</time>
      </trkpt>
      <trkpt lat="46.49403" lon="-0.00874">
        <ele>122.9</ele>
        <time>2020-05-30T18:02:29Z</time>
      </trkpt>
      <trkpt lat="46.49403" lon="-0.00874">
        <ele>122.9</ele>
        <time>2020-05-30T18:02:30Z</time>
      </trkpt>
      <trkpt lat="46.49403" lon="-0.00874">
        <ele>122.9</ele>
        <time>2020-05-30T18:02:31Z</time>
      </trkpt>
      <trkpt lat="46.49403" lon="-0.00874">
        <ele>122.9</ele>
        <time>2020-05-30T18:02:32Z</time>
      </trkpt>
      <trkpt lat="46.49403" lon="-0.00874">
        <ele>122.9</ele>
        <time>2020-05-30T18:02:33Z</time>
      </trkpt>
      <trkpt lat="46.49403" lon="-0.00874">
        <ele>122.9</ele>
        <time>2020-05-30T18:02:34Z</time>
      </trkpt>
      <trkpt lat="46.49403" lon="-0.00874">
        <ele>122.9</ele>
        <time>2020-05-30T18:02:35Z</time>
      </trkpt>
      <trkpt lat="46.49403" lon="-0.00874">
        <ele>122.9</ele>
        <time>2020-05-30T18:02:36Z</time>
      </trkpt>
      <trkpt lat="46.49403" lon="-0.00874">
        <ele>122.9</ele>
        <time>2020-05-30T18:02:37Z</time>
      </trkpt>
      <trkpt lat="46.49403" lon="-0.00874">
        <ele>122.9</ele>
        <time>2020-05-30T18:02:38Z</time>
      </trkpt>
      <trkpt lat="46.49403" lon="-0.00874">
        <ele>122.9</ele>
        <time>2020-05-30T18:02:39Z</time>
      </trkpt>
      <trkpt lat="46.49403" lon="-0.00874">
        <ele>122.9</ele>
        <time>2020-05-30T18:02:40Z</time>
      </trkpt>
      <trkpt lat="46.49403" lon="-0.00874">
        <ele>122.9</ele>
        <time>2020-05-30T18:02:41Z</time>
      </trkpt>
      <trkpt lat="46.49402" lon="-0.00872">
        <ele>122.9</ele>
        <time>2020-05-30T18:02:42Z</time>
      </trkpt>
      <trkpt lat="46.49402" lon="-0.00872">
        <ele>122.9</ele>
        <time>2020-05-30T18:02:43Z</time>
      </trkpt>
      <trkpt lat="46.49402" lon="-0.00871">
        <ele>122.9</ele>
        <time>2020-05-30T18:02:44Z</time>
      </trkpt>
      <trkpt lat="46.49402" lon="-0.00871">
        <ele>122.9</ele>
        <time>2020-05-30T18:02:45Z</time>
      </trkpt>
      <trkpt lat="46.49402" lon="-0.00872">
        <ele>122.9</ele>
        <time>2020-05-30T18:02:46Z</time>
      </trkpt>
      <trkpt lat="46.49402" lon="-0.00871">
        <ele>122.8</ele>
        <time>2020-05-30T18:02:47Z</time>
      </trkpt>
      <trkpt lat="46.49402" lon="-0.00871">
        <ele>122.8</ele>
        <time>2020-05-30T18:02:48Z</time>
      </trkpt>
      <trkpt lat="46.49401" lon="-0.00871">
        <ele>122.8</ele>
        <time>2020-05-30T18:02:49Z</time>
      </trkpt>
      <trkpt lat="46.49402" lon="-0.00871">
        <ele>122.8</ele>
        <time>2020-05-30T18:02:50Z</time>
      </trkpt>
      <trkpt lat="46.494" lon="-0.00874">
        <ele>122.8</ele>
        <time>2020-05-30T18:02:51Z</time>
      </trkpt>
      <trkpt lat="46.49401" lon="-0.00876">
        <ele>122.8</ele>
        <time>2020-05-30T18:02:52Z</time>
      </trkpt>
      <trkpt lat="46.49401" lon="-0.00877">
        <ele>122.8</ele>
        <time>2020-05-30T18:02:53Z</time>
      </trkpt>
      <trkpt lat="46.49401" lon="-0.00879">
        <ele>122.8</ele>
        <time>2020-05-30T18:02:54Z</time>
      </trkpt>
      <trkpt lat="46.49401" lon="-0.00883">
        <ele>122.8</ele>
        <time>2020-05-30T18:02:55Z</time>
      </trkpt>
      <trkpt lat="46.49401" lon="-0.00883">
        <ele>122.8</ele>
        <time>2020-05-30T18:02:56Z</time>
      </trkpt>
      <trkpt lat="46.49401" lon="-0.00882">
        <ele>122.8</ele>
        <time>2020-05-30T18:02:57Z</time>
      </trkpt>
      <trkpt lat="46.49402" lon="-0.00879">
        <ele>122.8</ele>
        <time>2020-05-30T18:02:58Z</time>
      </trkpt>
      <trkpt lat="46.49401" lon="-0.00879">
        <ele>122.8</ele>
        <time>2020-05-30T18:02:59Z</time>
      </trkpt>
      <trkpt lat="46.49402" lon="-0.00879">
        <ele>122.8</ele>
        <time>2020-05-30T18:03:00Z</time>
      </trkpt>
      <trkpt lat="46.49401" lon="-0.0088">
        <ele>122.8</ele>
        <time>2020-05-30T18:03:01Z</time>
      </trkpt>
      <trkpt lat="46.49401" lon="-0.0088">
        <ele>122.7</ele>
        <time>2020-05-30T18:03:02Z</time>
      </trkpt>
      <trkpt lat="46.49401" lon="-0.00881">
        <ele>122.7</ele>
        <time>2020-05-30T18:03:03Z</time>
      </trkpt>
      <trkpt lat="46.49401" lon="-0.00879">
        <ele>122.7</ele>
        <time>2020-05-30T18:03:04Z</time>
      </trkpt>
      <trkpt lat="46.49401" lon="-0.0088">
        <ele>122.7</ele>
        <time>2020-05-30T18:03:05Z</time>
      </trkpt>
      <trkpt lat="46.49401" lon="-0.0088">
        <ele>122.7</ele>
        <time>2020-05-30T18:03:06Z</time>
      </trkpt>
      <trkpt lat="46.49401" lon="-0.00879">
        <ele>122.7</ele>
        <time>2020-05-30T18:03:07Z</time>
      </trkpt>
      <trkpt lat="46.49401" lon="-0.00878">
        <ele>122.7</ele>
        <time>2020-05-30T18:03:08Z</time>
      </trkpt>
      <trkpt lat="46.49401" lon="-0.00878">
        <ele>122.7</ele>
        <time>2020-05-30T18:03:09Z</time>
      </trkpt>
      <trkpt lat="46.49401" lon="-0.00878">
        <ele>122.7</ele>
        <time>2020-05-30T18:03:10Z</time>
      </trkpt>
      <trkpt lat="46.49401" lon="-0.00878">
        <ele>122.7</ele>
        <time>2020-05-30T18:03:11Z</time>
      </trkpt>
      <trkpt lat="46.49401" lon="-0.00879">
        <ele>122.7</ele>
        <time>2020-05-30T18:03:12Z</time>
      </trkpt>
      <trkpt lat="46.49402" lon="-0.0088">
        <ele>122.7</ele>
        <time>2020-05-30T18:03:13Z</time>
      </trkpt>
      <trkpt lat="46.49402" lon="-0.0088">
        <ele>122.7</ele>
        <time>2020-05-30T18:03:14Z</time>
      </trkpt>
      <trkpt lat="46.49402" lon="-0.00884">
        <ele>122.7</ele>
        <time>2020-05-30T18:03:15Z</time>
      </trkpt>
      <trkpt lat="46.49403" lon="-0.00886">
        <ele>122.7</ele>
        <time>2020-05-30T18:03:16Z</time>
      </trkpt>
      <trkpt lat="46.49402" lon="-0.00887">
        <ele>122.7</ele>
        <time>2020-05-30T18:03:17Z</time>
      </trkpt>
      <trkpt lat="46.49403" lon="-0.00888">
        <ele>122.7</ele>
        <time>2020-05-30T18:03:18Z</time>
      </trkpt>
      <trkpt lat="46.49404" lon="-0.00892">
        <ele>122.7</ele>
        <time>2020-05-30T18:03:19Z</time>
      </trkpt>
      <trkpt lat="46.49404" lon="-0.00894">
        <ele>122.6</ele>
        <time>2020-05-30T18:03:20Z</time>
      </trkpt>
      <trkpt lat="46.49406" lon="-0.00899">
        <ele>122.6</ele>
        <time>2020-05-30T18:03:21Z</time>
      </trkpt>
      <trkpt lat="46.49406" lon="-0.00902">
        <ele>122.6</ele>
        <time>2020-05-30T18:03:22Z</time>
      </trkpt>
      <trkpt lat="46.49407" lon="-0.00906">
        <ele>122.6</ele>
        <time>2020-05-30T18:03:23Z</time>
      </trkpt>
      <trkpt lat="46.49409" lon="-0.00912">
        <ele>122.5</ele>
        <time>2020-05-30T18:03:24Z</time>
      </trkpt>
      <trkpt lat="46.49411" lon="-0.00916">
        <ele>122.5</ele>
        <time>2020-05-30T18:03:25Z</time>
      </trkpt>
      <trkpt lat="46.49413" lon="-0.00921">
        <ele>122.5</ele>
        <time>2020-05-30T18:03:26Z</time>
      </trkpt>
      <trkpt lat="46.49414" lon="-0.00927">
        <ele>122.5</ele>
        <time>2020-05-30T18:03:27Z</time>
      </trkpt>
      <trkpt lat="46.49415" lon="-0.00931">
        <ele>122.5</ele>
        <time>2020-05-30T18:03:28Z</time>
      </trkpt>
      <trkpt lat="46.49418" lon="-0.00939">
        <ele>122.5</ele>
        <time>2020-05-30T18:03:29Z</time>
      </trkpt>
      <trkpt lat="46.4942" lon="-0.00945">
        <ele>122.5</ele>
        <time>2020-05-30T18:03:30Z</time>
      </trkpt>
      <trkpt lat="46.49422" lon="-0.00951">
        <ele>122.5</ele>
        <time>2020-05-30T18:03:31Z</time>
      </trkpt>
      <trkpt lat="46.49424" lon="-0.00957">
        <ele>122.6</ele>
        <time>2020-05-30T18:03:32Z</time>
      </trkpt>
      <trkpt lat="46.49426" lon="-0.00963">
        <ele>122.6</ele>
        <time>2020-05-30T18:03:33Z</time>
      </trkpt>
      <trkpt lat="46.49427" lon="-0.0097">
        <ele>122.6</ele>
        <time>2020-05-30T18:03:34Z</time>
      </trkpt>
      <trkpt lat="46.49428" lon="-0.00977">
        <ele>122.7</ele>
        <time>2020-05-30T18:03:35Z</time>
      </trkpt>
      <trkpt lat="46.49429" lon="-0.00984">
        <ele>122.7</ele>
        <time>2020-05-30T18:03:36Z</time>
      </trkpt>
      <trkpt lat="46.49429" lon="-0.00991">
        <ele>122.8</ele>
        <time>2020-05-30T18:03:37Z</time>
      </trkpt>
      <trkpt lat="46.4943" lon="-0.00996">
        <ele>122.8</ele>
        <time>2020-05-30T18:03:38Z</time>
      </trkpt>
      <trkpt lat="46.49431" lon="-0.01">
        <ele>122.8</ele>
        <time>2020-05-30T18:03:39Z</time>
      </trkpt>
      <trkpt lat="46.49432" lon="-0.01008">
        <ele>122.8</ele>
        <time>2020-05-30T18:03:40Z</time>
      </trkpt>
      <trkpt lat="46.49432" lon="-0.01015">
        <ele>122.9</ele>
        <time>2020-05-30T18:03:41Z</time>
      </trkpt>
      <trkpt lat="46.49432" lon="-0.01023">
        <ele>122.9</ele>
        <time>2020-05-30T18:03:42Z</time>
      </trkpt>
      <trkpt lat="46.49433" lon="-0.0103">
        <ele>122.9</ele>
        <time>2020-05-30T18:03:43Z</time>
      </trkpt>
      <trkpt lat="46.49433" lon="-0.01039">
        <ele>122.9</ele>
        <time>2020-05-30T18:03:44Z</time>
      </trkpt>
      <trkpt lat="46.49433" lon="-0.01046">
        <ele>123</ele>
        <time>2020-05-30T18:03:45Z</time>
      </trkpt>
      <trkpt lat="46.49433" lon="-0.01055">
        <ele>123</ele>
        <time>2020-05-30T18:03:46Z</time>
      </trkpt>
      <trkpt lat="46.49433" lon="-0.01063">
        <ele>123.1</ele>
        <time>2020-05-30T18:03:47Z</time>
      </trkpt>
      <trkpt lat="46.49435" lon="-0.0107">
        <ele>123.2</ele>
        <time>2020-05-30T18:03:48Z</time>
      </trkpt>
      <trkpt lat="46.49436" lon="-0.01076">
        <ele>123.2</ele>
        <time>2020-05-30T18:03:49Z</time>
      </trkpt>
      <trkpt lat="46.49438" lon="-0.01084">
        <ele>123.4</ele>
        <time>2020-05-30T18:03:50Z</time>
      </trkpt>
      <trkpt lat="46.4944" lon="-0.0109">
        <ele>123.5</ele>
        <time>2020-05-30T18:03:51Z</time>
      </trkpt>
      <trkpt lat="46.4944" lon="-0.01095">
        <ele>123.5</ele>
        <time>2020-05-30T18:03:52Z</time>
      </trkpt>
      <trkpt lat="46.49442" lon="-0.01101">
        <ele>123.7</ele>
        <time>2020-05-30T18:03:53Z</time>
      </trkpt>
      <trkpt lat="46.49444" lon="-0.01107">
        <ele>123.8</ele>
        <time>2020-05-30T18:03:54Z</time>
      </trkpt>
      <trkpt lat="46.49446" lon="-0.01112">
        <ele>123.9</ele>
        <time>2020-05-30T18:03:55Z</time>
      </trkpt>
      <trkpt lat="46.49447" lon="-0.01119">
        <ele>124</ele>
        <time>2020-05-30T18:03:56Z</time>
      </trkpt>
      <trkpt lat="46.49448" lon="-0.01125">
        <ele>124.1</ele>
        <time>2020-05-30T18:03:57Z</time>
      </trkpt>
      <trkpt lat="46.4945" lon="-0.01132">
        <ele>124.2</ele>
        <time>2020-05-30T18:03:58Z</time>
      </trkpt>
      <trkpt lat="46.49451" lon="-0.01135">
        <ele>124.3</ele>
        <time>2020-05-30T18:03:59Z</time>
      </trkpt>
      <trkpt lat="46.49453" lon="-0.0114">
        <ele>124.3</ele>
        <time>2020-05-30T18:04:00Z</time>
      </trkpt>
      <trkpt lat="46.49455" lon="-0.01145">
        <ele>124.4</ele>
        <time>2020-05-30T18:04:01Z</time>
      </trkpt>
      <trkpt lat="46.49456" lon="-0.0115">
        <ele>124.5</ele>
        <time>2020-05-30T18:04:02Z</time>
      </trkpt>
      <trkpt lat="46.49457" lon="-0.01156">
        <ele>124.6</ele>
        <time>2020-05-30T18:04:03Z</time>
      </trkpt>
      <trkpt lat="46.49458" lon="-0.01164">
        <ele>124.6</ele>
        <time>2020-05-30T18:04:04Z</time>
      </trkpt>
      <trkpt lat="46.49458" lon="-0.01168">
        <ele>124.7</ele>
        <time>2020-05-30T18:04:05Z</time>
      </trkpt>
      <trkpt lat="46.4946" lon="-0.01174">
        <ele>124.7</ele>
        <time>2020-05-30T18:04:06Z</time>
      </trkpt>
      <trkpt lat="46.49461" lon="-0.0118">
        <ele>124.8</ele>
        <time>2020-05-30T18:04:07Z</time>
      </trkpt>
      <trkpt lat="46.49462" lon="-0.01186">
        <ele>124.8</ele>
        <time>2020-05-30T18:04:08Z</time>
      </trkpt>
      <trkpt lat="46.49464" lon="-0.01191">
        <ele>124.8</ele>
        <time>2020-05-30T18:04:09Z</time>
      </trkpt>
      <trkpt lat="46.49463" lon="-0.01196">
        <ele>124.8</ele>
        <time>2020-05-30T18:04:10Z</time>
      </trkpt>
      <trkpt lat="46.49461" lon="-0.012">
        <ele>124.8</ele>
        <time>2020-05-30T18:04:11Z</time>
      </trkpt>
      <trkpt lat="46.4946" lon="-0.01205">
        <ele>124.8</ele>
        <time>2020-05-30T18:04:12Z</time>
      </trkpt>
      <trkpt lat="46.4946" lon="-0.01212">
        <ele>124.8</ele>
        <time>2020-05-30T18:04:13Z</time>
      </trkpt>
      <trkpt lat="46.49459" lon="-0.01219">
        <ele>124.8</ele>
        <time>2020-05-30T18:04:14Z</time>
      </trkpt>
      <trkpt lat="46.49457" lon="-0.01225">
        <ele>124.8</ele>
        <time>2020-05-30T18:04:15Z</time>
      </trkpt>
      <trkpt lat="46.49457" lon="-0.01232">
        <ele>124.8</ele>
        <time>2020-05-30T18:04:16Z</time>
      </trkpt>
      <trkpt lat="46.49458" lon="-0.01236">
        <ele>124.8</ele>
        <time>2020-05-30T18:04:17Z</time>
      </trkpt>
      <trkpt lat="46.49458" lon="-0.01241">
        <ele>124.8</ele>
        <time>2020-05-30T18:04:18Z</time>
      </trkpt>
      <trkpt lat="46.49457" lon="-0.01246">
        <ele>124.8</ele>
        <time>2020-05-30T18:04:19Z</time>
      </trkpt>
      <trkpt lat="46.49457" lon="-0.01252">
        <ele>124.8</ele>
        <time>2020-05-30T18:04:20Z</time>
      </trkpt>
      <trkpt lat="46.49457" lon="-0.01258">
        <ele>124.8</ele>
        <time>2020-05-30T18:04:21Z</time>
      </trkpt>
      <trkpt lat="46.49458" lon="-0.01264">
        <ele>124.8</ele>
        <time>2020-05-30T18:04:22Z</time>
      </trkpt>
      <trkpt lat="46.49458" lon="-0.0127">
        <ele>124.8</ele>
        <time>2020-05-30T18:04:23Z</time>
      </trkpt>
      <trkpt lat="46.49459" lon="-0.01276">
        <ele>124.8</ele>
        <time>2020-05-30T18:04:24Z</time>
      </trkpt>
      <trkpt lat="46.4946" lon="-0.01281">
        <ele>124.8</ele>
        <time>2020-05-30T18:04:25Z</time>
      </trkpt>
      <trkpt lat="46.4946" lon="-0.01288">
        <ele>124.8</ele>
        <time>2020-05-30T18:04:26Z</time>
      </trkpt>
      <trkpt lat="46.4946" lon="-0.01295">
        <ele>124.8</ele>
        <time>2020-05-30T18:04:27Z</time>
      </trkpt>
      <trkpt lat="46.49461" lon="-0.01301">
        <ele>124.9</ele>
        <time>2020-05-30T18:04:28Z</time>
      </trkpt>
      <trkpt lat="46.49461" lon="-0.01307">
        <ele>124.9</ele>
        <time>2020-05-30T18:04:29Z</time>
      </trkpt>
      <trkpt lat="46.49462" lon="-0.01312">
        <ele>124.9</ele>
        <time>2020-05-30T18:04:30Z</time>
      </trkpt>
      <trkpt lat="46.49461" lon="-0.01318">
        <ele>124.9</ele>
        <time>2020-05-30T18:04:31Z</time>
      </trkpt>
      <trkpt lat="46.49461" lon="-0.01324">
        <ele>125</ele>
        <time>2020-05-30T18:04:32Z</time>
      </trkpt>
      <trkpt lat="46.49464" lon="-0.0133">
        <ele>125</ele>
        <time>2020-05-30T18:04:33Z</time>
      </trkpt>
      <trkpt lat="46.49464" lon="-0.01337">
        <ele>125.1</ele>
        <time>2020-05-30T18:04:34Z</time>
      </trkpt>
      <trkpt lat="46.49464" lon="-0.01345">
        <ele>125.1</ele>
        <time>2020-05-30T18:04:35Z</time>
      </trkpt>
      <trkpt lat="46.49465" lon="-0.01351">
        <ele>125.2</ele>
        <time>2020-05-30T18:04:36Z</time>
      </trkpt>
      <trkpt lat="46.49465" lon="-0.01358">
        <ele>125.2</ele>
        <time>2020-05-30T18:04:37Z</time>
      </trkpt>
      <trkpt lat="46.49467" lon="-0.01364">
        <ele>125.3</ele>
        <time>2020-05-30T18:04:38Z</time>
      </trkpt>
      <trkpt lat="46.49466" lon="-0.01371">
        <ele>125.3</ele>
        <time>2020-05-30T18:04:39Z</time>
      </trkpt>
      <trkpt lat="46.49467" lon="-0.01377">
        <ele>125.4</ele>
        <time>2020-05-30T18:04:40Z</time>
      </trkpt>
      <trkpt lat="46.49467" lon="-0.01381">
        <ele>125.4</ele>
        <time>2020-05-30T18:04:41Z</time>
      </trkpt>
      <trkpt lat="46.49468" lon="-0.01386">
        <ele>125.4</ele>
        <time>2020-05-30T18:04:42Z</time>
      </trkpt>
      <trkpt lat="46.49468" lon="-0.01392">
        <ele>125.5</ele>
        <time>2020-05-30T18:04:43Z</time>
      </trkpt>
      <trkpt lat="46.49468" lon="-0.01399">
        <ele>125.5</ele>
        <time>2020-05-30T18:04:44Z</time>
      </trkpt>
      <trkpt lat="46.49469" lon="-0.01404">
        <ele>125.5</ele>
        <time>2020-05-30T18:04:45Z</time>
      </trkpt>
      <trkpt lat="46.4947" lon="-0.0141">
        <ele>125.6</ele>
        <time>2020-05-30T18:04:46Z</time>
      </trkpt>
      <trkpt lat="46.49472" lon="-0.01416">
        <ele>125.6</ele>
        <time>2020-05-30T18:04:47Z</time>
      </trkpt>
      <trkpt lat="46.49473" lon="-0.01423">
        <ele>125.6</ele>
        <time>2020-05-30T18:04:48Z</time>
      </trkpt>
      <trkpt lat="46.49473" lon="-0.01431">
        <ele>125.7</ele>
        <time>2020-05-30T18:04:49Z</time>
      </trkpt>
      <trkpt lat="46.49473" lon="-0.01438">
        <ele>125.7</ele>
        <time>2020-05-30T18:04:50Z</time>
      </trkpt>
      <trkpt lat="46.49474" lon="-0.01443">
        <ele>125.8</ele>
        <time>2020-05-30T18:04:51Z</time>
      </trkpt>
      <trkpt lat="46.49475" lon="-0.0145">
        <ele>125.8</ele>
        <time>2020-05-30T18:04:52Z</time>
      </trkpt>
      <trkpt lat="46.49478" lon="-0.01456">
        <ele>125.8</ele>
        <time>2020-05-30T18:04:53Z</time>
      </trkpt>
      <trkpt lat="46.4948" lon="-0.01461">
        <ele>125.8</ele>
        <time>2020-05-30T18:04:54Z</time>
      </trkpt>
      <trkpt lat="46.49481" lon="-0.01467">
        <ele>125.9</ele>
        <time>2020-05-30T18:04:55Z</time>
      </trkpt>
      <trkpt lat="46.49483" lon="-0.01473">
        <ele>125.9</ele>
        <time>2020-05-30T18:04:56Z</time>
      </trkpt>
      <trkpt lat="46.49485" lon="-0.01479">
        <ele>125.9</ele>
        <time>2020-05-30T18:04:57Z</time>
      </trkpt>
      <trkpt lat="46.49486" lon="-0.01487">
        <ele>126</ele>
        <time>2020-05-30T18:04:58Z</time>
      </trkpt>
      <trkpt lat="46.49487" lon="-0.01494">
        <ele>126.1</ele>
        <time>2020-05-30T18:04:59Z</time>
      </trkpt>
      <trkpt lat="46.49489" lon="-0.01499">
        <ele>126.1</ele>
        <time>2020-05-30T18:05:00Z</time>
      </trkpt>
      <trkpt lat="46.4949" lon="-0.01505">
        <ele>126.2</ele>
        <time>2020-05-30T18:05:01Z</time>
      </trkpt>
      <trkpt lat="46.49491" lon="-0.01511">
        <ele>126.3</ele>
        <time>2020-05-30T18:05:02Z</time>
      </trkpt>
      <trkpt lat="46.49493" lon="-0.01517">
        <ele>126.3</ele>
        <time>2020-05-30T18:05:03Z</time>
      </trkpt>
      <trkpt lat="46.49494" lon="-0.01523">
        <ele>126.3</ele>
        <time>2020-05-30T18:05:04Z</time>
      </trkpt>
      <trkpt lat="46.49496" lon="-0.01528">
        <ele>126.4</ele>
        <time>2020-05-30T18:05:05Z</time>
      </trkpt>
      <trkpt lat="46.49498" lon="-0.01533">
        <ele>126.4</ele>
        <time>2020-05-30T18:05:06Z</time>
      </trkpt>
      <trkpt lat="46.49499" lon="-0.01539">
        <ele>126.4</ele>
        <time>2020-05-30T18:05:07Z</time>
      </trkpt>
      <trkpt lat="46.49501" lon="-0.01545">
        <ele>126.5</ele>
        <time>2020-05-30T18:05:08Z</time>
      </trkpt>
      <trkpt lat="46.49502" lon="-0.01553">
        <ele>126.5</ele>
        <time>2020-05-30T18:05:09Z</time>
      </trkpt>
      <trkpt lat="46.49502" lon="-0.0156">
        <ele>126.6</ele>
        <time>2020-05-30T18:05:10Z</time>
      </trkpt>
      <trkpt lat="46.49503" lon="-0.01567">
        <ele>126.6</ele>
        <time>2020-05-30T18:05:11Z</time>
      </trkpt>
      <trkpt lat="46.49505" lon="-0.01574">
        <ele>126.7</ele>
        <time>2020-05-30T18:05:12Z</time>
      </trkpt>
      <trkpt lat="46.49505" lon="-0.01581">
        <ele>126.8</ele>
        <time>2020-05-30T18:05:13Z</time>
      </trkpt>
      <trkpt lat="46.49505" lon="-0.01588">
        <ele>126.8</ele>
        <time>2020-05-30T18:05:14Z</time>
      </trkpt>
      <trkpt lat="46.49506" lon="-0.01595">
        <ele>126.9</ele>
        <time>2020-05-30T18:05:15Z</time>
      </trkpt>
      <trkpt lat="46.49506" lon="-0.01603">
        <ele>127</ele>
        <time>2020-05-30T18:05:16Z</time>
      </trkpt>
      <trkpt lat="46.49507" lon="-0.0161">
        <ele>127.2</ele>
        <time>2020-05-30T18:05:17Z</time>
      </trkpt>
      <trkpt lat="46.49508" lon="-0.01617">
        <ele>127.3</ele>
        <time>2020-05-30T18:05:18Z</time>
      </trkpt>
      <trkpt lat="46.49508" lon="-0.01624">
        <ele>127.4</ele>
        <time>2020-05-30T18:05:19Z</time>
      </trkpt>
      <trkpt lat="46.49508" lon="-0.01631">
        <ele>127.6</ele>
        <time>2020-05-30T18:05:20Z</time>
      </trkpt>
      <trkpt lat="46.49508" lon="-0.01639">
        <ele>127.7</ele>
        <time>2020-05-30T18:05:21Z</time>
      </trkpt>
      <trkpt lat="46.49507" lon="-0.01646">
        <ele>127.9</ele>
        <time>2020-05-30T18:05:22Z</time>
      </trkpt>
      <trkpt lat="46.49507" lon="-0.01653">
        <ele>128</ele>
        <time>2020-05-30T18:05:23Z</time>
      </trkpt>
      <trkpt lat="46.49507" lon="-0.01661">
        <ele>128.1</ele>
        <time>2020-05-30T18:05:24Z</time>
      </trkpt>
      <trkpt lat="46.49507" lon="-0.01669">
        <ele>128.2</ele>
        <time>2020-05-30T18:05:25Z</time>
      </trkpt>
      <trkpt lat="46.49506" lon="-0.01675">
        <ele>128.3</ele>
        <time>2020-05-30T18:05:26Z</time>
      </trkpt>
      <trkpt lat="46.49505" lon="-0.01683">
        <ele>128.4</ele>
        <time>2020-05-30T18:05:27Z</time>
      </trkpt>
      <trkpt lat="46.49504" lon="-0.0169">
        <ele>128.6</ele>
        <time>2020-05-30T18:05:28Z</time>
      </trkpt>
      <trkpt lat="46.49502" lon="-0.01697">
        <ele>128.7</ele>
        <time>2020-05-30T18:05:29Z</time>
      </trkpt>
      <trkpt lat="46.49501" lon="-0.01705">
        <ele>128.8</ele>
        <time>2020-05-30T18:05:30Z</time>
      </trkpt>
      <trkpt lat="46.495" lon="-0.0171">
        <ele>128.9</ele>
        <time>2020-05-30T18:05:31Z</time>
      </trkpt>
      <trkpt lat="46.49499" lon="-0.01717">
        <ele>129.1</ele>
        <time>2020-05-30T18:05:32Z</time>
      </trkpt>
      <trkpt lat="46.49497" lon="-0.01725">
        <ele>129.3</ele>
        <time>2020-05-30T18:05:33Z</time>
      </trkpt>
      <trkpt lat="46.49495" lon="-0.01732">
        <ele>129.4</ele>
        <time>2020-05-30T18:05:34Z</time>
      </trkpt>
      <trkpt lat="46.49493" lon="-0.0174">
        <ele>129.6</ele>
        <time>2020-05-30T18:05:35Z</time>
      </trkpt>
      <trkpt lat="46.4949" lon="-0.01745">
        <ele>129.8</ele>
        <time>2020-05-30T18:05:36Z</time>
      </trkpt>
      <trkpt lat="46.49487" lon="-0.0175">
        <ele>130</ele>
        <time>2020-05-30T18:05:37Z</time>
      </trkpt>
      <trkpt lat="46.49485" lon="-0.01754">
        <ele>130.1</ele>
        <time>2020-05-30T18:05:38Z</time>
      </trkpt>
      <trkpt lat="46.49483" lon="-0.01759">
        <ele>130.3</ele>
        <time>2020-05-30T18:05:39Z</time>
      </trkpt>
      <trkpt lat="46.49482" lon="-0.01765">
        <ele>130.5</ele>
        <time>2020-05-30T18:05:40Z</time>
      </trkpt>
      <trkpt lat="46.4948" lon="-0.0177">
        <ele>130.7</ele>
        <time>2020-05-30T18:05:41Z</time>
      </trkpt>
      <trkpt lat="46.49478" lon="-0.01775">
        <ele>130.9</ele>
        <time>2020-05-30T18:05:42Z</time>
      </trkpt>
      <trkpt lat="46.49476" lon="-0.01781">
        <ele>131.1</ele>
        <time>2020-05-30T18:05:43Z</time>
      </trkpt>
      <trkpt lat="46.49473" lon="-0.01786">
        <ele>131.3</ele>
        <time>2020-05-30T18:05:44Z</time>
      </trkpt>
      <trkpt lat="46.4947" lon="-0.01791">
        <ele>131.5</ele>
        <time>2020-05-30T18:05:45Z</time>
      </trkpt>
      <trkpt lat="46.49469" lon="-0.01797">
        <ele>131.7</ele>
        <time>2020-05-30T18:05:46Z</time>
      </trkpt>
      <trkpt lat="46.49468" lon="-0.01803">
        <ele>131.9</ele>
        <time>2020-05-30T18:05:47Z</time>
      </trkpt>
      <trkpt lat="46.49466" lon="-0.01809">
        <ele>132.2</ele>
        <time>2020-05-30T18:05:48Z</time>
      </trkpt>
      <trkpt lat="46.49465" lon="-0.01816">
        <ele>132.5</ele>
        <time>2020-05-30T18:05:49Z</time>
      </trkpt>
      <trkpt lat="46.49463" lon="-0.01822">
        <ele>132.7</ele>
        <time>2020-05-30T18:05:50Z</time>
      </trkpt>
      <trkpt lat="46.4946" lon="-0.01831">
        <ele>133.1</ele>
        <time>2020-05-30T18:05:51Z</time>
      </trkpt>
      <trkpt lat="46.49457" lon="-0.0184">
        <ele>133.5</ele>
        <time>2020-05-30T18:05:52Z</time>
      </trkpt>
      <trkpt lat="46.49455" lon="-0.01848">
        <ele>133.9</ele>
        <time>2020-05-30T18:05:53Z</time>
      </trkpt>
      <trkpt lat="46.49453" lon="-0.01856">
        <ele>134.3</ele>
        <time>2020-05-30T18:05:54Z</time>
      </trkpt>
      <trkpt lat="46.49451" lon="-0.01863">
        <ele>134.6</ele>
        <time>2020-05-30T18:05:55Z</time>
      </trkpt>
      <trkpt lat="46.49448" lon="-0.01873">
        <ele>135</ele>
        <time>2020-05-30T18:05:56Z</time>
      </trkpt>
      <trkpt lat="46.49448" lon="-0.01881">
        <ele>135.4</ele>
        <time>2020-05-30T18:05:57Z</time>
      </trkpt>
      <trkpt lat="46.49447" lon="-0.01889">
        <ele>135.7</ele>
        <time>2020-05-30T18:05:58Z</time>
      </trkpt>
      <trkpt lat="46.49445" lon="-0.01897">
        <ele>135.9</ele>
        <time>2020-05-30T18:05:59Z</time>
      </trkpt>
      <trkpt lat="46.49443" lon="-0.01904">
        <ele>136.2</ele>
        <time>2020-05-30T18:06:00Z</time>
      </trkpt>
      <trkpt lat="46.49441" lon="-0.0191">
        <ele>136.3</ele>
        <time>2020-05-30T18:06:01Z</time>
      </trkpt>
      <trkpt lat="46.49439" lon="-0.01917">
        <ele>136.5</ele>
        <time>2020-05-30T18:06:02Z</time>
      </trkpt>
      <trkpt lat="46.49438" lon="-0.01923">
        <ele>136.6</ele>
        <time>2020-05-30T18:06:03Z</time>
      </trkpt>
      <trkpt lat="46.49437" lon="-0.01928">
        <ele>136.7</ele>
        <time>2020-05-30T18:06:04Z</time>
      </trkpt>
      <trkpt lat="46.49436" lon="-0.01934">
        <ele>136.8</ele>
        <time>2020-05-30T18:06:05Z</time>
      </trkpt>
      <trkpt lat="46.49435" lon="-0.0194">
        <ele>136.9</ele>
        <time>2020-05-30T18:06:06Z</time>
      </trkpt>
      <trkpt lat="46.49433" lon="-0.01945">
        <ele>137.1</ele>
        <time>2020-05-30T18:06:07Z</time>
      </trkpt>
      <trkpt lat="46.49432" lon="-0.01951">
        <ele>137.2</ele>
        <time>2020-05-30T18:06:08Z</time>
      </trkpt>
      <trkpt lat="46.4943" lon="-0.01955">
        <ele>137.3</ele>
        <time>2020-05-30T18:06:09Z</time>
      </trkpt>
      <trkpt lat="46.49428" lon="-0.01959">
        <ele>137.5</ele>
        <time>2020-05-30T18:06:10Z</time>
      </trkpt>
      <trkpt lat="46.49426" lon="-0.01963">
        <ele>137.6</ele>
        <time>2020-05-30T18:06:11Z</time>
      </trkpt>
      <trkpt lat="46.49424" lon="-0.01968">
        <ele>137.7</ele>
        <time>2020-05-30T18:06:12Z</time>
      </trkpt>
      <trkpt lat="46.49422" lon="-0.01972">
        <ele>137.8</ele>
        <time>2020-05-30T18:06:13Z</time>
      </trkpt>
      <trkpt lat="46.49422" lon="-0.01976">
        <ele>137.9</ele>
        <time>2020-05-30T18:06:14Z</time>
      </trkpt>
      <trkpt lat="46.49421" lon="-0.01982">
        <ele>138.1</ele>
        <time>2020-05-30T18:06:15Z</time>
      </trkpt>
      <trkpt lat="46.4942" lon="-0.01986">
        <ele>138.2</ele>
        <time>2020-05-30T18:06:16Z</time>
      </trkpt>
      <trkpt lat="46.49418" lon="-0.01992">
        <ele>138.3</ele>
        <time>2020-05-30T18:06:17Z</time>
      </trkpt>
      <trkpt lat="46.49417" lon="-0.01997">
        <ele>138.4</ele>
        <time>2020-05-30T18:06:18Z</time>
      </trkpt>
      <trkpt lat="46.49415" lon="-0.02003">
        <ele>138.5</ele>
        <time>2020-05-30T18:06:19Z</time>
      </trkpt>
      <trkpt lat="46.49414" lon="-0.02008">
        <ele>138.6</ele>
        <time>2020-05-30T18:06:20Z</time>
      </trkpt>
      <trkpt lat="46.49412" lon="-0.02012">
        <ele>138.7</ele>
        <time>2020-05-30T18:06:21Z</time>
      </trkpt>
      <trkpt lat="46.49411" lon="-0.02017">
        <ele>138.8</ele>
        <time>2020-05-30T18:06:22Z</time>
      </trkpt>
      <trkpt lat="46.49411" lon="-0.02019">
        <ele>138.8</ele>
        <time>2020-05-30T18:06:23Z</time>
      </trkpt>
      <trkpt lat="46.49409" lon="-0.02023">
        <ele>138.9</ele>
        <time>2020-05-30T18:06:24Z</time>
      </trkpt>
      <trkpt lat="46.49407" lon="-0.02028">
        <ele>139</ele>
        <time>2020-05-30T18:06:25Z</time>
      </trkpt>
      <trkpt lat="46.49406" lon="-0.02033">
        <ele>139.1</ele>
        <time>2020-05-30T18:06:26Z</time>
      </trkpt>
      <trkpt lat="46.49404" lon="-0.02039">
        <ele>139.2</ele>
        <time>2020-05-30T18:06:27Z</time>
      </trkpt>
      <trkpt lat="46.49402" lon="-0.02045">
        <ele>139.3</ele>
        <time>2020-05-30T18:06:28Z</time>
      </trkpt>
      <trkpt lat="46.49402" lon="-0.02047">
        <ele>139.4</ele>
        <time>2020-05-30T18:06:29Z</time>
      </trkpt>
      <trkpt lat="46.494" lon="-0.02054">
        <ele>139.5</ele>
        <time>2020-05-30T18:06:30Z</time>
      </trkpt>
      <trkpt lat="46.49399" lon="-0.02059">
        <ele>139.6</ele>
        <time>2020-05-30T18:06:31Z</time>
      </trkpt>
      <trkpt lat="46.49397" lon="-0.02065">
        <ele>139.7</ele>
        <time>2020-05-30T18:06:32Z</time>
      </trkpt>
      <trkpt lat="46.49396" lon="-0.0207">
        <ele>139.8</ele>
        <time>2020-05-30T18:06:33Z</time>
      </trkpt>
      <trkpt lat="46.49394" lon="-0.02076">
        <ele>139.9</ele>
        <time>2020-05-30T18:06:34Z</time>
      </trkpt>
      <trkpt lat="46.49392" lon="-0.02081">
        <ele>140</ele>
        <time>2020-05-30T18:06:35Z</time>
      </trkpt>
      <trkpt lat="46.49389" lon="-0.02087">
        <ele>140.2</ele>
        <time>2020-05-30T18:06:36Z</time>
      </trkpt>
      <trkpt lat="46.49387" lon="-0.02093">
        <ele>140.3</ele>
        <time>2020-05-30T18:06:37Z</time>
      </trkpt>
      <trkpt lat="46.49385" lon="-0.02098">
        <ele>140.4</ele>
        <time>2020-05-30T18:06:38Z</time>
      </trkpt>
      <trkpt lat="46.49383" lon="-0.02105">
        <ele>140.6</ele>
        <time>2020-05-30T18:06:39Z</time>
      </trkpt>
      <trkpt lat="46.4938" lon="-0.02111">
        <ele>140.7</ele>
        <time>2020-05-30T18:06:40Z</time>
      </trkpt>
      <trkpt lat="46.49379" lon="-0.02118">
        <ele>140.8</ele>
        <time>2020-05-30T18:06:41Z</time>
      </trkpt>
      <trkpt lat="46.49377" lon="-0.02125">
        <ele>140.9</ele>
        <time>2020-05-30T18:06:42Z</time>
      </trkpt>
      <trkpt lat="46.49375" lon="-0.02133">
        <ele>141</ele>
        <time>2020-05-30T18:06:43Z</time>
      </trkpt>
      <trkpt lat="46.49374" lon="-0.0214">
        <ele>141.1</ele>
        <time>2020-05-30T18:06:44Z</time>
      </trkpt>
      <trkpt lat="46.49372" lon="-0.02148">
        <ele>141.1</ele>
        <time>2020-05-30T18:06:45Z</time>
      </trkpt>
      <trkpt lat="46.4937" lon="-0.02156">
        <ele>141.2</ele>
        <time>2020-05-30T18:06:46Z</time>
      </trkpt>
      <trkpt lat="46.49367" lon="-0.02163">
        <ele>141.3</ele>
        <time>2020-05-30T18:06:47Z</time>
      </trkpt>
      <trkpt lat="46.49366" lon="-0.0217">
        <ele>141.4</ele>
        <time>2020-05-30T18:06:48Z</time>
      </trkpt>
      <trkpt lat="46.49364" lon="-0.02177">
        <ele>141.4</ele>
        <time>2020-05-30T18:06:49Z</time>
      </trkpt>
      <trkpt lat="46.49362" lon="-0.02184">
        <ele>141.5</ele>
        <time>2020-05-30T18:06:50Z</time>
      </trkpt>
      <trkpt lat="46.49361" lon="-0.02191">
        <ele>141.5</ele>
        <time>2020-05-30T18:06:51Z</time>
      </trkpt>
      <trkpt lat="46.49359" lon="-0.02196">
        <ele>141.5</ele>
        <time>2020-05-30T18:06:52Z</time>
      </trkpt>
      <trkpt lat="46.49357" lon="-0.022">
        <ele>141.5</ele>
        <time>2020-05-30T18:06:53Z</time>
      </trkpt>
      <trkpt lat="46.49355" lon="-0.02207">
        <ele>141.4</ele>
        <time>2020-05-30T18:06:54Z</time>
      </trkpt>
      <trkpt lat="46.49354" lon="-0.02213">
        <ele>141.4</ele>
        <time>2020-05-30T18:06:55Z</time>
      </trkpt>
      <trkpt lat="46.49353" lon="-0.02219">
        <ele>141.3</ele>
        <time>2020-05-30T18:06:56Z</time>
      </trkpt>
      <trkpt lat="46.49352" lon="-0.02224">
        <ele>141.3</ele>
        <time>2020-05-30T18:06:57Z</time>
      </trkpt>
      <trkpt lat="46.49351" lon="-0.0223">
        <ele>141.3</ele>
        <time>2020-05-30T18:06:58Z</time>
      </trkpt>
      <trkpt lat="46.49349" lon="-0.02235">
        <ele>141.3</ele>
        <time>2020-05-30T18:06:59Z</time>
      </trkpt>
      <trkpt lat="46.49348" lon="-0.0224">
        <ele>141.2</ele>
        <time>2020-05-30T18:07:00Z</time>
      </trkpt>
      <trkpt lat="46.49346" lon="-0.02246">
        <ele>141.2</ele>
        <time>2020-05-30T18:07:01Z</time>
      </trkpt>
      <trkpt lat="46.49344" lon="-0.02251">
        <ele>141.3</ele>
        <time>2020-05-30T18:07:02Z</time>
      </trkpt>
      <trkpt lat="46.49342" lon="-0.02255">
        <ele>141.4</ele>
        <time>2020-05-30T18:07:03Z</time>
      </trkpt>
      <trkpt lat="46.4934" lon="-0.02258">
        <ele>141.5</ele>
        <time>2020-05-30T18:07:04Z</time>
      </trkpt>
      <trkpt lat="46.49338" lon="-0.02258">
        <ele>141.5</ele>
        <time>2020-05-30T18:07:05Z</time>
      </trkpt>
      <trkpt lat="46.49338" lon="-0.02258">
        <ele>141.5</ele>
        <time>2020-05-30T18:07:06Z</time>
      </trkpt>
      <trkpt lat="46.49338" lon="-0.02258">
        <ele>141.5</ele>
        <time>2020-05-30T18:07:07Z</time>
      </trkpt>
      <trkpt lat="46.49337" lon="-0.02258">
        <ele>141.5</ele>
        <time>2020-05-30T18:07:08Z</time>
      </trkpt>
      <trkpt lat="46.49338" lon="-0.02258">
        <ele>141.6</ele>
        <time>2020-05-30T18:07:09Z</time>
      </trkpt>
      <trkpt lat="46.49337" lon="-0.02259">
        <ele>141.6</ele>
        <time>2020-05-30T18:07:10Z</time>
      </trkpt>
      <trkpt lat="46.49337" lon="-0.0226">
        <ele>141.6</ele>
        <time>2020-05-30T18:07:11Z</time>
      </trkpt>
      <trkpt lat="46.49337" lon="-0.0226">
        <ele>141.6</ele>
        <time>2020-05-30T18:07:12Z</time>
      </trkpt>
      <trkpt lat="46.49336" lon="-0.0226">
        <ele>141.6</ele>
        <time>2020-05-30T18:07:13Z</time>
      </trkpt>
      <trkpt lat="46.49336" lon="-0.0226">
        <ele>141.6</ele>
        <time>2020-05-30T18:07:14Z</time>
      </trkpt>
      <trkpt lat="46.49336" lon="-0.0226">
        <ele>141.6</ele>
        <time>2020-05-30T18:07:15Z</time>
      </trkpt>
      <trkpt lat="46.49336" lon="-0.0226">
        <ele>141.6</ele>
        <time>2020-05-30T18:07:16Z</time>
      </trkpt>
      <trkpt lat="46.49336" lon="-0.0226">
        <ele>141.6</ele>
        <time>2020-05-30T18:07:17Z</time>
      </trkpt>
      <trkpt lat="46.49336" lon="-0.02259">
        <ele>141.6</ele>
        <time>2020-05-30T18:07:18Z</time>
      </trkpt>
      <trkpt lat="46.49336" lon="-0.02259">
        <ele>141.6</ele>
        <time>2020-05-30T18:07:19Z</time>
      </trkpt>
      <trkpt lat="46.49336" lon="-0.02259">
        <ele>141.6</ele>
        <time>2020-05-30T18:07:20Z</time>
      </trkpt>
      <trkpt lat="46.49336" lon="-0.02259">
        <ele>141.6</ele>
        <time>2020-05-30T18:07:21Z</time>
      </trkpt>
      <trkpt lat="46.49336" lon="-0.02259">
        <ele>141.6</ele>
        <time>2020-05-30T18:07:22Z</time>
      </trkpt>
      <trkpt lat="46.49336" lon="-0.02259">
        <ele>141.6</ele>
        <time>2020-05-30T18:07:23Z</time>
      </trkpt>
      <trkpt lat="46.49336" lon="-0.02259">
        <ele>141.6</ele>
        <time>2020-05-30T18:07:24Z</time>
      </trkpt>
      <trkpt lat="46.49336" lon="-0.02259">
        <ele>141.6</ele>
        <time>2020-05-30T18:07:25Z</time>
      </trkpt>
      <trkpt lat="46.49336" lon="-0.02259">
        <ele>141.6</ele>
        <time>2020-05-30T18:07:26Z</time>
      </trkpt>
      <trkpt lat="46.49336" lon="-0.02258">
        <ele>141.7</ele>
        <time>2020-05-30T18:07:27Z</time>
      </trkpt>
      <trkpt lat="46.49337" lon="-0.02256">
        <ele>141.7</ele>
        <time>2020-05-30T18:07:28Z</time>
      </trkpt>
      <trkpt lat="46.49337" lon="-0.02255">
        <ele>141.7</ele>
        <time>2020-05-30T18:07:29Z</time>
      </trkpt>
      <trkpt lat="46.49337" lon="-0.02255">
        <ele>141.7</ele>
        <time>2020-05-30T18:07:30Z</time>
      </trkpt>
      <trkpt lat="46.49337" lon="-0.02255">
        <ele>141.7</ele>
        <time>2020-05-30T18:07:31Z</time>
      </trkpt>
      <trkpt lat="46.49337" lon="-0.02255">
        <ele>141.7</ele>
        <time>2020-05-30T18:07:32Z</time>
      </trkpt>
      <trkpt lat="46.49337" lon="-0.02255">
        <ele>141.7</ele>
        <time>2020-05-30T18:07:33Z</time>
      </trkpt>
      <trkpt lat="46.49337" lon="-0.02255">
        <ele>141.7</ele>
        <time>2020-05-30T18:07:34Z</time>
      </trkpt>
      <trkpt lat="46.49337" lon="-0.02255">
        <ele>141.7</ele>
        <time>2020-05-30T18:07:35Z</time>
      </trkpt>
      <trkpt lat="46.49337" lon="-0.02255">
        <ele>141.7</ele>
        <time>2020-05-30T18:07:36Z</time>
      </trkpt>
      <trkpt lat="46.49337" lon="-0.02255">
        <ele>141.7</ele>
        <time>2020-05-30T18:07:37Z</time>
      </trkpt>
      <trkpt lat="46.49337" lon="-0.02255">
        <ele>141.8</ele>
        <time>2020-05-30T18:07:38Z</time>
      </trkpt>
      <trkpt lat="46.49337" lon="-0.02255">
        <ele>141.8</ele>
        <time>2020-05-30T18:07:39Z</time>
      </trkpt>
      <trkpt lat="46.49337" lon="-0.02255">
        <ele>141.8</ele>
        <time>2020-05-30T18:07:40Z</time>
      </trkpt>
      <trkpt lat="46.49337" lon="-0.02255">
        <ele>141.8</ele>
        <time>2020-05-30T18:07:41Z</time>
      </trkpt>
      <trkpt lat="46.49337" lon="-0.02255">
        <ele>141.8</ele>
        <time>2020-05-30T18:07:42Z</time>
      </trkpt>
      <trkpt lat="46.49337" lon="-0.02255">
        <ele>141.8</ele>
        <time>2020-05-30T18:07:43Z</time>
      </trkpt>
      <trkpt lat="46.49335" lon="-0.02257">
        <ele>141.8</ele>
        <time>2020-05-30T18:07:44Z</time>
      </trkpt>
      <trkpt lat="46.49334" lon="-0.02259">
        <ele>141.9</ele>
        <time>2020-05-30T18:07:45Z</time>
      </trkpt>
      <trkpt lat="46.49332" lon="-0.02263">
        <ele>142</ele>
        <time>2020-05-30T18:07:46Z</time>
      </trkpt>
      <trkpt lat="46.49329" lon="-0.02268">
        <ele>142.1</ele>
        <time>2020-05-30T18:07:47Z</time>
      </trkpt>
      <trkpt lat="46.49326" lon="-0.02272">
        <ele>142.2</ele>
        <time>2020-05-30T18:07:48Z</time>
      </trkpt>
      <trkpt lat="46.49323" lon="-0.02277">
        <ele>142.4</ele>
        <time>2020-05-30T18:07:49Z</time>
      </trkpt>
      <trkpt lat="46.4932" lon="-0.02281">
        <ele>142.5</ele>
        <time>2020-05-30T18:07:50Z</time>
      </trkpt>
      <trkpt lat="46.49317" lon="-0.02286">
        <ele>142.7</ele>
        <time>2020-05-30T18:07:51Z</time>
      </trkpt>
      <trkpt lat="46.49314" lon="-0.02292">
        <ele>142.8</ele>
        <time>2020-05-30T18:07:52Z</time>
      </trkpt>
      <trkpt lat="46.4931" lon="-0.02297">
        <ele>142.9</ele>
        <time>2020-05-30T18:07:53Z</time>
      </trkpt>
      <trkpt lat="46.49307" lon="-0.02302">
        <ele>143</ele>
        <time>2020-05-30T18:07:54Z</time>
      </trkpt>
      <trkpt lat="46.49304" lon="-0.02307">
        <ele>143.1</ele>
        <time>2020-05-30T18:07:55Z</time>
      </trkpt>
      <trkpt lat="46.49301" lon="-0.0231">
        <ele>143.2</ele>
        <time>2020-05-30T18:07:56Z</time>
      </trkpt>
      <trkpt lat="46.49297" lon="-0.02313">
        <ele>143.4</ele>
        <time>2020-05-30T18:07:57Z</time>
      </trkpt>
      <trkpt lat="46.49291" lon="-0.02316">
        <ele>143.6</ele>
        <time>2020-05-30T18:07:58Z</time>
      </trkpt>
      <trkpt lat="46.49286" lon="-0.02319">
        <ele>143.8</ele>
        <time>2020-05-30T18:07:59Z</time>
      </trkpt>
      <trkpt lat="46.49281" lon="-0.02321">
        <ele>144</ele>
        <time>2020-05-30T18:08:00Z</time>
      </trkpt>
      <trkpt lat="46.49276" lon="-0.02324">
        <ele>144.2</ele>
        <time>2020-05-30T18:08:01Z</time>
      </trkpt>
      <trkpt lat="46.49271" lon="-0.02327">
        <ele>144.4</ele>
        <time>2020-05-30T18:08:02Z</time>
      </trkpt>
      <trkpt lat="46.49267" lon="-0.0233">
        <ele>144.5</ele>
        <time>2020-05-30T18:08:03Z</time>
      </trkpt>
      <trkpt lat="46.49263" lon="-0.02333">
        <ele>144.7</ele>
        <time>2020-05-30T18:08:04Z</time>
      </trkpt>
      <trkpt lat="46.49259" lon="-0.02336">
        <ele>144.9</ele>
        <time>2020-05-30T18:08:05Z</time>
      </trkpt>
      <trkpt lat="46.49256" lon="-0.0234">
        <ele>145.1</ele>
        <time>2020-05-30T18:08:06Z</time>
      </trkpt>
      <trkpt lat="46.49252" lon="-0.02343">
        <ele>145.3</ele>
        <time>2020-05-30T18:08:07Z</time>
      </trkpt>
      <trkpt lat="46.49249" lon="-0.02349">
        <ele>145.5</ele>
        <time>2020-05-30T18:08:08Z</time>
      </trkpt>
      <trkpt lat="46.49245" lon="-0.02354">
        <ele>145.7</ele>
        <time>2020-05-30T18:08:09Z</time>
      </trkpt>
      <trkpt lat="46.49241" lon="-0.02359">
        <ele>145.9</ele>
        <time>2020-05-30T18:08:10Z</time>
      </trkpt>
      <trkpt lat="46.49238" lon="-0.02364">
        <ele>146.1</ele>
        <time>2020-05-30T18:08:11Z</time>
      </trkpt>
      <trkpt lat="46.49235" lon="-0.02368">
        <ele>146.2</ele>
        <time>2020-05-30T18:08:12Z</time>
      </trkpt>
      <trkpt lat="46.49233" lon="-0.02372">
        <ele>146.4</ele>
        <time>2020-05-30T18:08:13Z</time>
      </trkpt>
      <trkpt lat="46.4923" lon="-0.02377">
        <ele>146.5</ele>
        <time>2020-05-30T18:08:14Z</time>
      </trkpt>
      <trkpt lat="46.49228" lon="-0.02382">
        <ele>146.6</ele>
        <time>2020-05-30T18:08:15Z</time>
      </trkpt>
      <trkpt lat="46.49226" lon="-0.02386">
        <ele>146.7</ele>
        <time>2020-05-30T18:08:16Z</time>
      </trkpt>
      <trkpt lat="46.49224" lon="-0.02391">
        <ele>146.7</ele>
        <time>2020-05-30T18:08:17Z</time>
      </trkpt>
      <trkpt lat="46.49222" lon="-0.02396">
        <ele>146.8</ele>
        <time>2020-05-30T18:08:18Z</time>
      </trkpt>
      <trkpt lat="46.4922" lon="-0.02401">
        <ele>146.9</ele>
        <time>2020-05-30T18:08:19Z</time>
      </trkpt>
      <trkpt lat="46.49218" lon="-0.02407">
        <ele>147</ele>
        <time>2020-05-30T18:08:20Z</time>
      </trkpt>
      <trkpt lat="46.49216" lon="-0.02412">
        <ele>147.1</ele>
        <time>2020-05-30T18:08:21Z</time>
      </trkpt>
      <trkpt lat="46.49214" lon="-0.02418">
        <ele>147.3</ele>
        <time>2020-05-30T18:08:22Z</time>
      </trkpt>
      <trkpt lat="46.49212" lon="-0.02424">
        <ele>147.4</ele>
        <time>2020-05-30T18:08:23Z</time>
      </trkpt>
      <trkpt lat="46.4921" lon="-0.02429">
        <ele>147.6</ele>
        <time>2020-05-30T18:08:24Z</time>
      </trkpt>
      <trkpt lat="46.49207" lon="-0.02435">
        <ele>147.7</ele>
        <time>2020-05-30T18:08:25Z</time>
      </trkpt>
      <trkpt lat="46.49205" lon="-0.02439">
        <ele>147.8</ele>
        <time>2020-05-30T18:08:26Z</time>
      </trkpt>
      <trkpt lat="46.49203" lon="-0.02443">
        <ele>147.9</ele>
        <time>2020-05-30T18:08:27Z</time>
      </trkpt>
      <trkpt lat="46.492" lon="-0.02448">
        <ele>148</ele>
        <time>2020-05-30T18:08:28Z</time>
      </trkpt>
      <trkpt lat="46.49197" lon="-0.02452">
        <ele>148.1</ele>
        <time>2020-05-30T18:08:29Z</time>
      </trkpt>
      <trkpt lat="46.49194" lon="-0.02455">
        <ele>148.2</ele>
        <time>2020-05-30T18:08:30Z</time>
      </trkpt>
      <trkpt lat="46.4919" lon="-0.02461">
        <ele>148.3</ele>
        <time>2020-05-30T18:08:31Z</time>
      </trkpt>
      <trkpt lat="46.49186" lon="-0.02465">
        <ele>148.4</ele>
        <time>2020-05-30T18:08:32Z</time>
      </trkpt>
      <trkpt lat="46.49183" lon="-0.02469">
        <ele>148.5</ele>
        <time>2020-05-30T18:08:33Z</time>
      </trkpt>
      <trkpt lat="46.4918" lon="-0.02474">
        <ele>148.6</ele>
        <time>2020-05-30T18:08:34Z</time>
      </trkpt>
      <trkpt lat="46.49177" lon="-0.02478">
        <ele>148.8</ele>
        <time>2020-05-30T18:08:35Z</time>
      </trkpt>
      <trkpt lat="46.49174" lon="-0.02482">
        <ele>149</ele>
        <time>2020-05-30T18:08:36Z</time>
      </trkpt>
      <trkpt lat="46.49171" lon="-0.02487">
        <ele>149.1</ele>
        <time>2020-05-30T18:08:37Z</time>
      </trkpt>
      <trkpt lat="46.49169" lon="-0.02492">
        <ele>149.2</ele>
        <time>2020-05-30T18:08:38Z</time>
      </trkpt>
      <trkpt lat="46.49166" lon="-0.02496">
        <ele>149.3</ele>
        <time>2020-05-30T18:08:39Z</time>
      </trkpt>
      <trkpt lat="46.49163" lon="-0.025">
        <ele>149.4</ele>
        <time>2020-05-30T18:08:40Z</time>
      </trkpt>
      <trkpt lat="46.49159" lon="-0.02503">
        <ele>149.5</ele>
        <time>2020-05-30T18:08:41Z</time>
      </trkpt>
      <trkpt lat="46.49156" lon="-0.02507">
        <ele>149.6</ele>
        <time>2020-05-30T18:08:42Z</time>
      </trkpt>
      <trkpt lat="46.49154" lon="-0.02514">
        <ele>149.7</ele>
        <time>2020-05-30T18:08:43Z</time>
      </trkpt>
      <trkpt lat="46.4915" lon="-0.02517">
        <ele>149.7</ele>
        <time>2020-05-30T18:08:44Z</time>
      </trkpt>
      <trkpt lat="46.49147" lon="-0.02522">
        <ele>149.8</ele>
        <time>2020-05-30T18:08:45Z</time>
      </trkpt>
      <trkpt lat="46.49146" lon="-0.02528">
        <ele>149.8</ele>
        <time>2020-05-30T18:08:46Z</time>
      </trkpt>
      <trkpt lat="46.49143" lon="-0.02532">
        <ele>149.9</ele>
        <time>2020-05-30T18:08:47Z</time>
      </trkpt>
      <trkpt lat="46.4914" lon="-0.02536">
        <ele>149.9</ele>
        <time>2020-05-30T18:08:48Z</time>
      </trkpt>
      <trkpt lat="46.49138" lon="-0.02541">
        <ele>150</ele>
        <time>2020-05-30T18:08:49Z</time>
      </trkpt>
      <trkpt lat="46.49134" lon="-0.02545">
        <ele>150</ele>
        <time>2020-05-30T18:08:50Z</time>
      </trkpt>
      <trkpt lat="46.49132" lon="-0.02549">
        <ele>150.1</ele>
        <time>2020-05-30T18:08:51Z</time>
      </trkpt>
      <trkpt lat="46.49129" lon="-0.02554">
        <ele>150.1</ele>
        <time>2020-05-30T18:08:52Z</time>
      </trkpt>
      <trkpt lat="46.49126" lon="-0.02559">
        <ele>150.1</ele>
        <time>2020-05-30T18:08:53Z</time>
      </trkpt>
      <trkpt lat="46.49124" lon="-0.02564">
        <ele>150.2</ele>
        <time>2020-05-30T18:08:54Z</time>
      </trkpt>
      <trkpt lat="46.49121" lon="-0.02568">
        <ele>150.2</ele>
        <time>2020-05-30T18:08:55Z</time>
      </trkpt>
      <trkpt lat="46.49118" lon="-0.02574">
        <ele>150.3</ele>
        <time>2020-05-30T18:08:56Z</time>
      </trkpt>
      <trkpt lat="46.49115" lon="-0.0258">
        <ele>150.3</ele>
        <time>2020-05-30T18:08:57Z</time>
      </trkpt>
      <trkpt lat="46.49111" lon="-0.02585">
        <ele>150.4</ele>
        <time>2020-05-30T18:08:58Z</time>
      </trkpt>
      <trkpt lat="46.49108" lon="-0.02591">
        <ele>150.5</ele>
        <time>2020-05-30T18:08:59Z</time>
      </trkpt>
      <trkpt lat="46.49105" lon="-0.02596">
        <ele>150.6</ele>
        <time>2020-05-30T18:09:00Z</time>
      </trkpt>
      <trkpt lat="46.49102" lon="-0.02602">
        <ele>150.7</ele>
        <time>2020-05-30T18:09:01Z</time>
      </trkpt>
      <trkpt lat="46.49099" lon="-0.02608">
        <ele>150.8</ele>
        <time>2020-05-30T18:09:02Z</time>
      </trkpt>
      <trkpt lat="46.49096" lon="-0.02614">
        <ele>150.9</ele>
        <time>2020-05-30T18:09:03Z</time>
      </trkpt>
      <trkpt lat="46.49093" lon="-0.02619">
        <ele>151</ele>
        <time>2020-05-30T18:09:04Z</time>
      </trkpt>
      <trkpt lat="46.4909" lon="-0.02626">
        <ele>151.1</ele>
        <time>2020-05-30T18:09:05Z</time>
      </trkpt>
      <trkpt lat="46.49088" lon="-0.0263">
        <ele>151.1</ele>
        <time>2020-05-30T18:09:06Z</time>
      </trkpt>
      <trkpt lat="46.49085" lon="-0.02635">
        <ele>151.2</ele>
        <time>2020-05-30T18:09:07Z</time>
      </trkpt>
      <trkpt lat="46.49082" lon="-0.02642">
        <ele>151.4</ele>
        <time>2020-05-30T18:09:08Z</time>
      </trkpt>
      <trkpt lat="46.4908" lon="-0.02647">
        <ele>151.5</ele>
        <time>2020-05-30T18:09:09Z</time>
      </trkpt>
      <trkpt lat="46.49077" lon="-0.02654">
        <ele>151.7</ele>
        <time>2020-05-30T18:09:10Z</time>
      </trkpt>
      <trkpt lat="46.49074" lon="-0.0266">
        <ele>151.9</ele>
        <time>2020-05-30T18:09:11Z</time>
      </trkpt>
      <trkpt lat="46.49071" lon="-0.02667">
        <ele>152</ele>
        <time>2020-05-30T18:09:12Z</time>
      </trkpt>
      <trkpt lat="46.49069" lon="-0.02674">
        <ele>152.1</ele>
        <time>2020-05-30T18:09:13Z</time>
      </trkpt>
      <trkpt lat="46.49065" lon="-0.02681">
        <ele>152.2</ele>
        <time>2020-05-30T18:09:14Z</time>
      </trkpt>
      <trkpt lat="46.49063" lon="-0.02687">
        <ele>152.3</ele>
        <time>2020-05-30T18:09:15Z</time>
      </trkpt>
      <trkpt lat="46.4906" lon="-0.02693">
        <ele>152.4</ele>
        <time>2020-05-30T18:09:16Z</time>
      </trkpt>
      <trkpt lat="46.49058" lon="-0.027">
        <ele>152.6</ele>
        <time>2020-05-30T18:09:17Z</time>
      </trkpt>
      <trkpt lat="46.49056" lon="-0.02705">
        <ele>152.7</ele>
        <time>2020-05-30T18:09:18Z</time>
      </trkpt>
      <trkpt lat="46.49054" lon="-0.02711">
        <ele>152.9</ele>
        <time>2020-05-30T18:09:19Z</time>
      </trkpt>
      <trkpt lat="46.49051" lon="-0.02718">
        <ele>153.1</ele>
        <time>2020-05-30T18:09:20Z</time>
      </trkpt>
      <trkpt lat="46.49049" lon="-0.02724">
        <ele>153.3</ele>
        <time>2020-05-30T18:09:21Z</time>
      </trkpt>
      <trkpt lat="46.49048" lon="-0.0273">
        <ele>153.5</ele>
        <time>2020-05-30T18:09:22Z</time>
      </trkpt>
      <trkpt lat="46.49045" lon="-0.02736">
        <ele>153.6</ele>
        <time>2020-05-30T18:09:23Z</time>
      </trkpt>
      <trkpt lat="46.49043" lon="-0.02741">
        <ele>153.7</ele>
        <time>2020-05-30T18:09:24Z</time>
      </trkpt>
      <trkpt lat="46.49041" lon="-0.02748">
        <ele>153.9</ele>
        <time>2020-05-30T18:09:25Z</time>
      </trkpt>
      <trkpt lat="46.4904" lon="-0.02755">
        <ele>154</ele>
        <time>2020-05-30T18:09:26Z</time>
      </trkpt>
      <trkpt lat="46.49038" lon="-0.02761">
        <ele>154.2</ele>
        <time>2020-05-30T18:09:27Z</time>
      </trkpt>
      <trkpt lat="46.49037" lon="-0.02768">
        <ele>154.3</ele>
        <time>2020-05-30T18:09:28Z</time>
      </trkpt>
      <trkpt lat="46.49036" lon="-0.02775">
        <ele>154.5</ele>
        <time>2020-05-30T18:09:29Z</time>
      </trkpt>
      <trkpt lat="46.49036" lon="-0.02781">
        <ele>154.6</ele>
        <time>2020-05-30T18:09:30Z</time>
      </trkpt>
      <trkpt lat="46.49034" lon="-0.02787">
        <ele>154.7</ele>
        <time>2020-05-30T18:09:31Z</time>
      </trkpt>
      <trkpt lat="46.49033" lon="-0.02795">
        <ele>154.8</ele>
        <time>2020-05-30T18:09:32Z</time>
      </trkpt>
      <trkpt lat="46.49032" lon="-0.02801">
        <ele>154.8</ele>
        <time>2020-05-30T18:09:33Z</time>
      </trkpt>
      <trkpt lat="46.49032" lon="-0.02809">
        <ele>154.8</ele>
        <time>2020-05-30T18:09:34Z</time>
      </trkpt>
      <trkpt lat="46.49031" lon="-0.02815">
        <ele>154.8</ele>
        <time>2020-05-30T18:09:35Z</time>
      </trkpt>
      <trkpt lat="46.49029" lon="-0.02823">
        <ele>154.8</ele>
        <time>2020-05-30T18:09:36Z</time>
      </trkpt>
      <trkpt lat="46.49029" lon="-0.02829">
        <ele>154.8</ele>
        <time>2020-05-30T18:09:37Z</time>
      </trkpt>
      <trkpt lat="46.49028" lon="-0.02835">
        <ele>154.8</ele>
        <time>2020-05-30T18:09:38Z</time>
      </trkpt>
      <trkpt lat="46.49027" lon="-0.02842">
        <ele>154.7</ele>
        <time>2020-05-30T18:09:39Z</time>
      </trkpt>
      <trkpt lat="46.49026" lon="-0.0285">
        <ele>154.7</ele>
        <time>2020-05-30T18:09:40Z</time>
      </trkpt>
      <trkpt lat="46.49025" lon="-0.02857">
        <ele>154.7</ele>
        <time>2020-05-30T18:09:41Z</time>
      </trkpt>
      <trkpt lat="46.49024" lon="-0.02863">
        <ele>154.7</ele>
        <time>2020-05-30T18:09:42Z</time>
      </trkpt>
      <trkpt lat="46.49023" lon="-0.02869">
        <ele>154.8</ele>
        <time>2020-05-30T18:09:43Z</time>
      </trkpt>
      <trkpt lat="46.49023" lon="-0.02876">
        <ele>154.8</ele>
        <time>2020-05-30T18:09:44Z</time>
      </trkpt>
      <trkpt lat="46.49022" lon="-0.02883">
        <ele>154.9</ele>
        <time>2020-05-30T18:09:45Z</time>
      </trkpt>
      <trkpt lat="46.49022" lon="-0.02891">
        <ele>155</ele>
        <time>2020-05-30T18:09:46Z</time>
      </trkpt>
      <trkpt lat="46.49022" lon="-0.02897">
        <ele>155.1</ele>
        <time>2020-05-30T18:09:47Z</time>
      </trkpt>
      <trkpt lat="46.49024" lon="-0.02907">
        <ele>155.2</ele>
        <time>2020-05-30T18:09:48Z</time>
      </trkpt>
      <trkpt lat="46.49024" lon="-0.02915">
        <ele>155.2</ele>
        <time>2020-05-30T18:09:49Z</time>
      </trkpt>
      <trkpt lat="46.49023" lon="-0.02922">
        <ele>155.3</ele>
        <time>2020-05-30T18:09:50Z</time>
      </trkpt>
      <trkpt lat="46.49023" lon="-0.02929">
        <ele>155.3</ele>
        <time>2020-05-30T18:09:51Z</time>
      </trkpt>
      <trkpt lat="46.49023" lon="-0.02936">
        <ele>155.3</ele>
        <time>2020-05-30T18:09:52Z</time>
      </trkpt>
      <trkpt lat="46.49023" lon="-0.02944">
        <ele>155.3</ele>
        <time>2020-05-30T18:09:53Z</time>
      </trkpt>
      <trkpt lat="46.49021" lon="-0.02952">
        <ele>155.3</ele>
        <time>2020-05-30T18:09:54Z</time>
      </trkpt>
      <trkpt lat="46.4902" lon="-0.02959">
        <ele>155.3</ele>
        <time>2020-05-30T18:09:55Z</time>
      </trkpt>
      <trkpt lat="46.49019" lon="-0.02967">
        <ele>155.3</ele>
        <time>2020-05-30T18:09:56Z</time>
      </trkpt>
      <trkpt lat="46.49018" lon="-0.02974">
        <ele>155.3</ele>
        <time>2020-05-30T18:09:57Z</time>
      </trkpt>
      <trkpt lat="46.49016" lon="-0.02981">
        <ele>155.3</ele>
        <time>2020-05-30T18:09:58Z</time>
      </trkpt>
      <trkpt lat="46.49014" lon="-0.0299">
        <ele>155.4</ele>
        <time>2020-05-30T18:09:59Z</time>
      </trkpt>
      <trkpt lat="46.49012" lon="-0.02997">
        <ele>155.4</ele>
        <time>2020-05-30T18:10:00Z</time>
      </trkpt>
      <trkpt lat="46.49011" lon="-0.03005">
        <ele>155.4</ele>
        <time>2020-05-30T18:10:01Z</time>
      </trkpt>
      <trkpt lat="46.49009" lon="-0.03013">
        <ele>155.4</ele>
        <time>2020-05-30T18:10:02Z</time>
      </trkpt>
      <trkpt lat="46.49009" lon="-0.0302">
        <ele>155.5</ele>
        <time>2020-05-30T18:10:03Z</time>
      </trkpt>
      <trkpt lat="46.49007" lon="-0.03027">
        <ele>155.5</ele>
        <time>2020-05-30T18:10:04Z</time>
      </trkpt>
      <trkpt lat="46.49006" lon="-0.03033">
        <ele>155.5</ele>
        <time>2020-05-30T18:10:05Z</time>
      </trkpt>
      <trkpt lat="46.49004" lon="-0.0304">
        <ele>155.5</ele>
        <time>2020-05-30T18:10:06Z</time>
      </trkpt>
      <trkpt lat="46.49003" lon="-0.03045">
        <ele>155.6</ele>
        <time>2020-05-30T18:10:07Z</time>
      </trkpt>
      <trkpt lat="46.49002" lon="-0.03052">
        <ele>155.6</ele>
        <time>2020-05-30T18:10:08Z</time>
      </trkpt>
      <trkpt lat="46.48999" lon="-0.03057">
        <ele>155.5</ele>
        <time>2020-05-30T18:10:09Z</time>
      </trkpt>
      <trkpt lat="46.48997" lon="-0.03065">
        <ele>155.5</ele>
        <time>2020-05-30T18:10:10Z</time>
      </trkpt>
      <trkpt lat="46.48994" lon="-0.03072">
        <ele>155.4</ele>
        <time>2020-05-30T18:10:11Z</time>
      </trkpt>
      <trkpt lat="46.48991" lon="-0.03078">
        <ele>155.3</ele>
        <time>2020-05-30T18:10:12Z</time>
      </trkpt>
      <trkpt lat="46.48989" lon="-0.03085">
        <ele>155.2</ele>
        <time>2020-05-30T18:10:13Z</time>
      </trkpt>
      <trkpt lat="46.48986" lon="-0.03093">
        <ele>155.1</ele>
        <time>2020-05-30T18:10:14Z</time>
      </trkpt>
      <trkpt lat="46.48984" lon="-0.03099">
        <ele>155</ele>
        <time>2020-05-30T18:10:15Z</time>
      </trkpt>
      <trkpt lat="46.48982" lon="-0.03106">
        <ele>155</ele>
        <time>2020-05-30T18:10:16Z</time>
      </trkpt>
      <trkpt lat="46.4898" lon="-0.03113">
        <ele>155</ele>
        <time>2020-05-30T18:10:17Z</time>
      </trkpt>
      <trkpt lat="46.48977" lon="-0.03119">
        <ele>155</ele>
        <time>2020-05-30T18:10:18Z</time>
      </trkpt>
      <trkpt lat="46.48974" lon="-0.03126">
        <ele>155</ele>
        <time>2020-05-30T18:10:19Z</time>
      </trkpt>
      <trkpt lat="46.48971" lon="-0.03132">
        <ele>155</ele>
        <time>2020-05-30T18:10:20Z</time>
      </trkpt>
      <trkpt lat="46.48969" lon="-0.03138">
        <ele>155.1</ele>
        <time>2020-05-30T18:10:21Z</time>
      </trkpt>
      <trkpt lat="46.48968" lon="-0.03144">
        <ele>155.1</ele>
        <time>2020-05-30T18:10:22Z</time>
      </trkpt>
      <trkpt lat="46.48966" lon="-0.0315">
        <ele>155.1</ele>
        <time>2020-05-30T18:10:23Z</time>
      </trkpt>
      <trkpt lat="46.48964" lon="-0.03157">
        <ele>155.1</ele>
        <time>2020-05-30T18:10:24Z</time>
      </trkpt>
      <trkpt lat="46.48963" lon="-0.03166">
        <ele>155.1</ele>
        <time>2020-05-30T18:10:25Z</time>
      </trkpt>
      <trkpt lat="46.48962" lon="-0.03172">
        <ele>155.1</ele>
        <time>2020-05-30T18:10:26Z</time>
      </trkpt>
      <trkpt lat="46.4896" lon="-0.03178">
        <ele>155.1</ele>
        <time>2020-05-30T18:10:27Z</time>
      </trkpt>
      <trkpt lat="46.48959" lon="-0.03182">
        <ele>155.1</ele>
        <time>2020-05-30T18:10:28Z</time>
      </trkpt>
      <trkpt lat="46.48957" lon="-0.03187">
        <ele>155.1</ele>
        <time>2020-05-30T18:10:29Z</time>
      </trkpt>
      <trkpt lat="46.48955" lon="-0.03191">
        <ele>155.1</ele>
        <time>2020-05-30T18:10:30Z</time>
      </trkpt>
      <trkpt lat="46.48953" lon="-0.03196">
        <ele>155.2</ele>
        <time>2020-05-30T18:10:31Z</time>
      </trkpt>
      <trkpt lat="46.4895" lon="-0.03201">
        <ele>155.3</ele>
        <time>2020-05-30T18:10:32Z</time>
      </trkpt>
      <trkpt lat="46.48947" lon="-0.03205">
        <ele>155.4</ele>
        <time>2020-05-30T18:10:33Z</time>
      </trkpt>
      <trkpt lat="46.48945" lon="-0.0321">
        <ele>155.6</ele>
        <time>2020-05-30T18:10:34Z</time>
      </trkpt>
      <trkpt lat="46.48942" lon="-0.03216">
        <ele>155.7</ele>
        <time>2020-05-30T18:10:35Z</time>
      </trkpt>
      <trkpt lat="46.48939" lon="-0.0322">
        <ele>155.8</ele>
        <time>2020-05-30T18:10:36Z</time>
      </trkpt>
      <trkpt lat="46.48938" lon="-0.03225">
        <ele>155.9</ele>
        <time>2020-05-30T18:10:37Z</time>
      </trkpt>
      <trkpt lat="46.48935" lon="-0.0323">
        <ele>156</ele>
        <time>2020-05-30T18:10:38Z</time>
      </trkpt>
      <trkpt lat="46.48932" lon="-0.03235">
        <ele>156</ele>
        <time>2020-05-30T18:10:39Z</time>
      </trkpt>
      <trkpt lat="46.4893" lon="-0.03239">
        <ele>156</ele>
        <time>2020-05-30T18:10:40Z</time>
      </trkpt>
      <trkpt lat="46.48927" lon="-0.03243">
        <ele>156</ele>
        <time>2020-05-30T18:10:41Z</time>
      </trkpt>
      <trkpt lat="46.48925" lon="-0.03248">
        <ele>156</ele>
        <time>2020-05-30T18:10:42Z</time>
      </trkpt>
      <trkpt lat="46.48923" lon="-0.03253">
        <ele>156</ele>
        <time>2020-05-30T18:10:43Z</time>
      </trkpt>
      <trkpt lat="46.4892" lon="-0.03259">
        <ele>156</ele>
        <time>2020-05-30T18:10:44Z</time>
      </trkpt>
      <trkpt lat="46.48917" lon="-0.03265">
        <ele>156</ele>
        <time>2020-05-30T18:10:45Z</time>
      </trkpt>
      <trkpt lat="46.48915" lon="-0.03271">
        <ele>156.1</ele>
        <time>2020-05-30T18:10:46Z</time>
      </trkpt>
      <trkpt lat="46.48913" lon="-0.03278">
        <ele>156.1</ele>
        <time>2020-05-30T18:10:47Z</time>
      </trkpt>
      <trkpt lat="46.4891" lon="-0.03285">
        <ele>156.2</ele>
        <time>2020-05-30T18:10:48Z</time>
      </trkpt>
      <trkpt lat="46.48907" lon="-0.03292">
        <ele>156.4</ele>
        <time>2020-05-30T18:10:49Z</time>
      </trkpt>
      <trkpt lat="46.48905" lon="-0.03297">
        <ele>156.6</ele>
        <time>2020-05-30T18:10:50Z</time>
      </trkpt>
      <trkpt lat="46.48902" lon="-0.03302">
        <ele>156.7</ele>
        <time>2020-05-30T18:10:51Z</time>
      </trkpt>
      <trkpt lat="46.489" lon="-0.03307">
        <ele>156.8</ele>
        <time>2020-05-30T18:10:52Z</time>
      </trkpt>
      <trkpt lat="46.48898" lon="-0.03312">
        <ele>156.9</ele>
        <time>2020-05-30T18:10:53Z</time>
      </trkpt>
      <trkpt lat="46.48896" lon="-0.03317">
        <ele>156.9</ele>
        <time>2020-05-30T18:10:54Z</time>
      </trkpt>
      <trkpt lat="46.48894" lon="-0.03322">
        <ele>157</ele>
        <time>2020-05-30T18:10:55Z</time>
      </trkpt>
      <trkpt lat="46.48892" lon="-0.03328">
        <ele>157</ele>
        <time>2020-05-30T18:10:56Z</time>
      </trkpt>
      <trkpt lat="46.4889" lon="-0.03333">
        <ele>157</ele>
        <time>2020-05-30T18:10:57Z</time>
      </trkpt>
      <trkpt lat="46.48888" lon="-0.03337">
        <ele>157</ele>
        <time>2020-05-30T18:10:58Z</time>
      </trkpt>
      <trkpt lat="46.48886" lon="-0.03342">
        <ele>157</ele>
        <time>2020-05-30T18:10:59Z</time>
      </trkpt>
      <trkpt lat="46.48884" lon="-0.03347">
        <ele>157</ele>
        <time>2020-05-30T18:11:00Z</time>
      </trkpt>
      <trkpt lat="46.48882" lon="-0.03352">
        <ele>157</ele>
        <time>2020-05-30T18:11:01Z</time>
      </trkpt>
      <trkpt lat="46.48879" lon="-0.03357">
        <ele>157</ele>
        <time>2020-05-30T18:11:02Z</time>
      </trkpt>
      <trkpt lat="46.48877" lon="-0.03362">
        <ele>157</ele>
        <time>2020-05-30T18:11:03Z</time>
      </trkpt>
      <trkpt lat="46.48874" lon="-0.03365">
        <ele>157</ele>
        <time>2020-05-30T18:11:04Z</time>
      </trkpt>
      <trkpt lat="46.48872" lon="-0.03369">
        <ele>157</ele>
        <time>2020-05-30T18:11:05Z</time>
      </trkpt>
      <trkpt lat="46.48869" lon="-0.03374">
        <ele>157</ele>
        <time>2020-05-30T18:11:06Z</time>
      </trkpt>
      <trkpt lat="46.48867" lon="-0.03377">
        <ele>157</ele>
        <time>2020-05-30T18:11:07Z</time>
      </trkpt>
      <trkpt lat="46.48864" lon="-0.0338">
        <ele>157</ele>
        <time>2020-05-30T18:11:08Z</time>
      </trkpt>
      <trkpt lat="46.48861" lon="-0.03384">
        <ele>156.9</ele>
        <time>2020-05-30T18:11:09Z</time>
      </trkpt>
      <trkpt lat="46.48859" lon="-0.03387">
        <ele>156.9</ele>
        <time>2020-05-30T18:11:10Z</time>
      </trkpt>
      <trkpt lat="46.48857" lon="-0.03392">
        <ele>156.9</ele>
        <time>2020-05-30T18:11:11Z</time>
      </trkpt>
      <trkpt lat="46.48854" lon="-0.03396">
        <ele>156.9</ele>
        <time>2020-05-30T18:11:12Z</time>
      </trkpt>
      <trkpt lat="46.48852" lon="-0.03401">
        <ele>156.9</ele>
        <time>2020-05-30T18:11:13Z</time>
      </trkpt>
      <trkpt lat="46.48849" lon="-0.03406">
        <ele>156.9</ele>
        <time>2020-05-30T18:11:14Z</time>
      </trkpt>
      <trkpt lat="46.48847" lon="-0.03411">
        <ele>157</ele>
        <time>2020-05-30T18:11:15Z</time>
      </trkpt>
      <trkpt lat="46.48843" lon="-0.03417">
        <ele>157</ele>
        <time>2020-05-30T18:11:16Z</time>
      </trkpt>
      <trkpt lat="46.4884" lon="-0.03421">
        <ele>157.1</ele>
        <time>2020-05-30T18:11:17Z</time>
      </trkpt>
      <trkpt lat="46.48838" lon="-0.03424">
        <ele>157.1</ele>
        <time>2020-05-30T18:11:18Z</time>
      </trkpt>
      <trkpt lat="46.48836" lon="-0.03428">
        <ele>157.2</ele>
        <time>2020-05-30T18:11:19Z</time>
      </trkpt>
      <trkpt lat="46.48833" lon="-0.03431">
        <ele>157.3</ele>
        <time>2020-05-30T18:11:20Z</time>
      </trkpt>
      <trkpt lat="46.4883" lon="-0.03436">
        <ele>157.4</ele>
        <time>2020-05-30T18:11:21Z</time>
      </trkpt>
      <trkpt lat="46.48828" lon="-0.03437">
        <ele>157.5</ele>
        <time>2020-05-30T18:11:22Z</time>
      </trkpt>
      <trkpt lat="46.48826" lon="-0.0344">
        <ele>157.5</ele>
        <time>2020-05-30T18:11:23Z</time>
      </trkpt>
      <trkpt lat="46.48824" lon="-0.03443">
        <ele>157.6</ele>
        <time>2020-05-30T18:11:24Z</time>
      </trkpt>
      <trkpt lat="46.48823" lon="-0.03448">
        <ele>157.7</ele>
        <time>2020-05-30T18:11:25Z</time>
      </trkpt>
      <trkpt lat="46.4882" lon="-0.03452">
        <ele>157.8</ele>
        <time>2020-05-30T18:11:26Z</time>
      </trkpt>
      <trkpt lat="46.4882" lon="-0.03454">
        <ele>157.9</ele>
        <time>2020-05-30T18:11:27Z</time>
      </trkpt>
      <trkpt lat="46.48819" lon="-0.03457">
        <ele>157.9</ele>
        <time>2020-05-30T18:11:28Z</time>
      </trkpt>
      <trkpt lat="46.48818" lon="-0.03459">
        <ele>157.9</ele>
        <time>2020-05-30T18:11:29Z</time>
      </trkpt>
      <trkpt lat="46.48817" lon="-0.03461">
        <ele>158</ele>
        <time>2020-05-30T18:11:30Z</time>
      </trkpt>
      <trkpt lat="46.48815" lon="-0.03464">
        <ele>158</ele>
        <time>2020-05-30T18:11:31Z</time>
      </trkpt>
      <trkpt lat="46.48813" lon="-0.03467">
        <ele>158.1</ele>
        <time>2020-05-30T18:11:32Z</time>
      </trkpt>
      <trkpt lat="46.48812" lon="-0.03473">
        <ele>158.2</ele>
        <time>2020-05-30T18:11:33Z</time>
      </trkpt>
      <trkpt lat="46.48812" lon="-0.03474">
        <ele>158.2</ele>
        <time>2020-05-30T18:11:34Z</time>
      </trkpt>
      <trkpt lat="46.4881" lon="-0.03478">
        <ele>158.3</ele>
        <time>2020-05-30T18:11:35Z</time>
      </trkpt>
      <trkpt lat="46.48808" lon="-0.03482">
        <ele>158.4</ele>
        <time>2020-05-30T18:11:36Z</time>
      </trkpt>
      <trkpt lat="46.48806" lon="-0.03486">
        <ele>158.6</ele>
        <time>2020-05-30T18:11:37Z</time>
      </trkpt>
      <trkpt lat="46.48803" lon="-0.03491">
        <ele>158.7</ele>
        <time>2020-05-30T18:11:38Z</time>
      </trkpt>
      <trkpt lat="46.48801" lon="-0.03495">
        <ele>158.7</ele>
        <time>2020-05-30T18:11:39Z</time>
      </trkpt>
      <trkpt lat="46.48798" lon="-0.03501">
        <ele>158.8</ele>
        <time>2020-05-30T18:11:40Z</time>
      </trkpt>
      <trkpt lat="46.48796" lon="-0.03505">
        <ele>158.8</ele>
        <time>2020-05-30T18:11:41Z</time>
      </trkpt>
      <trkpt lat="46.48793" lon="-0.0351">
        <ele>158.9</ele>
        <time>2020-05-30T18:11:42Z</time>
      </trkpt>
      <trkpt lat="46.48791" lon="-0.03515">
        <ele>158.9</ele>
        <time>2020-05-30T18:11:43Z</time>
      </trkpt>
      <trkpt lat="46.48789" lon="-0.0352">
        <ele>158.9</ele>
        <time>2020-05-30T18:11:44Z</time>
      </trkpt>
      <trkpt lat="46.48787" lon="-0.03524">
        <ele>158.9</ele>
        <time>2020-05-30T18:11:45Z</time>
      </trkpt>
      <trkpt lat="46.48784" lon="-0.03528">
        <ele>158.9</ele>
        <time>2020-05-30T18:11:46Z</time>
      </trkpt>
      <trkpt lat="46.48781" lon="-0.03532">
        <ele>158.9</ele>
        <time>2020-05-30T18:11:47Z</time>
      </trkpt>
      <trkpt lat="46.48779" lon="-0.03537">
        <ele>158.9</ele>
        <time>2020-05-30T18:11:48Z</time>
      </trkpt>
      <trkpt lat="46.48776" lon="-0.03541">
        <ele>158.9</ele>
        <time>2020-05-30T18:11:49Z</time>
      </trkpt>
      <trkpt lat="46.48775" lon="-0.03545">
        <ele>158.9</ele>
        <time>2020-05-30T18:11:50Z</time>
      </trkpt>
      <trkpt lat="46.48772" lon="-0.0355">
        <ele>158.9</ele>
        <time>2020-05-30T18:11:51Z</time>
      </trkpt>
      <trkpt lat="46.48771" lon="-0.03554">
        <ele>158.9</ele>
        <time>2020-05-30T18:11:52Z</time>
      </trkpt>
      <trkpt lat="46.48769" lon="-0.03559">
        <ele>158.9</ele>
        <time>2020-05-30T18:11:53Z</time>
      </trkpt>
      <trkpt lat="46.48766" lon="-0.03562">
        <ele>158.9</ele>
        <time>2020-05-30T18:11:54Z</time>
      </trkpt>
      <trkpt lat="46.48763" lon="-0.03567">
        <ele>159</ele>
        <time>2020-05-30T18:11:55Z</time>
      </trkpt>
      <trkpt lat="46.48761" lon="-0.03571">
        <ele>159</ele>
        <time>2020-05-30T18:11:56Z</time>
      </trkpt>
      <trkpt lat="46.48759" lon="-0.03575">
        <ele>159</ele>
        <time>2020-05-30T18:11:57Z</time>
      </trkpt>
      <trkpt lat="46.48757" lon="-0.0358">
        <ele>159.1</ele>
        <time>2020-05-30T18:11:58Z</time>
      </trkpt>
      <trkpt lat="46.48754" lon="-0.03584">
        <ele>159.1</ele>
        <time>2020-05-30T18:11:59Z</time>
      </trkpt>
      <trkpt lat="46.48751" lon="-0.03589">
        <ele>159.1</ele>
        <time>2020-05-30T18:12:00Z</time>
      </trkpt>
      <trkpt lat="46.48748" lon="-0.03593">
        <ele>159.1</ele>
        <time>2020-05-30T18:12:01Z</time>
      </trkpt>
      <trkpt lat="46.48745" lon="-0.03597">
        <ele>159.1</ele>
        <time>2020-05-30T18:12:02Z</time>
      </trkpt>
      <trkpt lat="46.48743" lon="-0.03602">
        <ele>159.1</ele>
        <time>2020-05-30T18:12:03Z</time>
      </trkpt>
      <trkpt lat="46.4874" lon="-0.03606">
        <ele>159.1</ele>
        <time>2020-05-30T18:12:04Z</time>
      </trkpt>
      <trkpt lat="46.48738" lon="-0.03612">
        <ele>159.2</ele>
        <time>2020-05-30T18:12:05Z</time>
      </trkpt>
      <trkpt lat="46.48736" lon="-0.03616">
        <ele>159.2</ele>
        <time>2020-05-30T18:12:06Z</time>
      </trkpt>
      <trkpt lat="46.48732" lon="-0.03619">
        <ele>159.3</ele>
        <time>2020-05-30T18:12:07Z</time>
      </trkpt>
      <trkpt lat="46.4873" lon="-0.03623">
        <ele>159.4</ele>
        <time>2020-05-30T18:12:08Z</time>
      </trkpt>
      <trkpt lat="46.48727" lon="-0.03626">
        <ele>159.5</ele>
        <time>2020-05-30T18:12:09Z</time>
      </trkpt>
      <trkpt lat="46.48725" lon="-0.0363">
        <ele>159.6</ele>
        <time>2020-05-30T18:12:10Z</time>
      </trkpt>
      <trkpt lat="46.48723" lon="-0.03634">
        <ele>159.7</ele>
        <time>2020-05-30T18:12:11Z</time>
      </trkpt>
      <trkpt lat="46.48721" lon="-0.03637">
        <ele>159.7</ele>
        <time>2020-05-30T18:12:12Z</time>
      </trkpt>
      <trkpt lat="46.48719" lon="-0.03641">
        <ele>159.8</ele>
        <time>2020-05-30T18:12:13Z</time>
      </trkpt>
      <trkpt lat="46.48716" lon="-0.03645">
        <ele>159.8</ele>
        <time>2020-05-30T18:12:14Z</time>
      </trkpt>
      <trkpt lat="46.48714" lon="-0.0365">
        <ele>159.8</ele>
        <time>2020-05-30T18:12:15Z</time>
      </trkpt>
      <trkpt lat="46.48712" lon="-0.03655">
        <ele>159.8</ele>
        <time>2020-05-30T18:12:16Z</time>
      </trkpt>
      <trkpt lat="46.48711" lon="-0.03659">
        <ele>159.8</ele>
        <time>2020-05-30T18:12:17Z</time>
      </trkpt>
      <trkpt lat="46.48709" lon="-0.03664">
        <ele>159.8</ele>
        <time>2020-05-30T18:12:18Z</time>
      </trkpt>
      <trkpt lat="46.48707" lon="-0.03668">
        <ele>159.8</ele>
        <time>2020-05-30T18:12:19Z</time>
      </trkpt>
      <trkpt lat="46.48704" lon="-0.03672">
        <ele>159.8</ele>
        <time>2020-05-30T18:12:20Z</time>
      </trkpt>
      <trkpt lat="46.48702" lon="-0.03676">
        <ele>159.8</ele>
        <time>2020-05-30T18:12:21Z</time>
      </trkpt>
      <trkpt lat="46.487" lon="-0.03681">
        <ele>159.8</ele>
        <time>2020-05-30T18:12:22Z</time>
      </trkpt>
      <trkpt lat="46.48697" lon="-0.03685">
        <ele>159.8</ele>
        <time>2020-05-30T18:12:23Z</time>
      </trkpt>
      <trkpt lat="46.48696" lon="-0.03689">
        <ele>159.8</ele>
        <time>2020-05-30T18:12:24Z</time>
      </trkpt>
      <trkpt lat="46.48694" lon="-0.03693">
        <ele>159.8</ele>
        <time>2020-05-30T18:12:25Z</time>
      </trkpt>
      <trkpt lat="46.48692" lon="-0.03698">
        <ele>159.8</ele>
        <time>2020-05-30T18:12:26Z</time>
      </trkpt>
      <trkpt lat="46.4869" lon="-0.03702">
        <ele>159.8</ele>
        <time>2020-05-30T18:12:27Z</time>
      </trkpt>
      <trkpt lat="46.48687" lon="-0.03706">
        <ele>159.8</ele>
        <time>2020-05-30T18:12:28Z</time>
      </trkpt>
      <trkpt lat="46.48685" lon="-0.03711">
        <ele>159.8</ele>
        <time>2020-05-30T18:12:29Z</time>
      </trkpt>
      <trkpt lat="46.48683" lon="-0.03715">
        <ele>159.8</ele>
        <time>2020-05-30T18:12:30Z</time>
      </trkpt>
      <trkpt lat="46.48681" lon="-0.03719">
        <ele>159.8</ele>
        <time>2020-05-30T18:12:31Z</time>
      </trkpt>
      <trkpt lat="46.48678" lon="-0.03723">
        <ele>159.8</ele>
        <time>2020-05-30T18:12:32Z</time>
      </trkpt>
      <trkpt lat="46.48676" lon="-0.03728">
        <ele>159.8</ele>
        <time>2020-05-30T18:12:33Z</time>
      </trkpt>
      <trkpt lat="46.48673" lon="-0.03732">
        <ele>159.8</ele>
        <time>2020-05-30T18:12:34Z</time>
      </trkpt>
      <trkpt lat="46.48671" lon="-0.03737">
        <ele>159.8</ele>
        <time>2020-05-30T18:12:35Z</time>
      </trkpt>
      <trkpt lat="46.4867" lon="-0.0374">
        <ele>159.8</ele>
        <time>2020-05-30T18:12:36Z</time>
      </trkpt>
      <trkpt lat="46.48668" lon="-0.03744">
        <ele>159.8</ele>
        <time>2020-05-30T18:12:37Z</time>
      </trkpt>
      <trkpt lat="46.48666" lon="-0.03749">
        <ele>159.9</ele>
        <time>2020-05-30T18:12:38Z</time>
      </trkpt>
      <trkpt lat="46.48663" lon="-0.03753">
        <ele>159.9</ele>
        <time>2020-05-30T18:12:39Z</time>
      </trkpt>
      <trkpt lat="46.48661" lon="-0.03758">
        <ele>160</ele>
        <time>2020-05-30T18:12:40Z</time>
      </trkpt>
      <trkpt lat="46.48659" lon="-0.03761">
        <ele>160.1</ele>
        <time>2020-05-30T18:12:41Z</time>
      </trkpt>
      <trkpt lat="46.48657" lon="-0.03765">
        <ele>160.2</ele>
        <time>2020-05-30T18:12:42Z</time>
      </trkpt>
      <trkpt lat="46.48655" lon="-0.03769">
        <ele>160.3</ele>
        <time>2020-05-30T18:12:43Z</time>
      </trkpt>
      <trkpt lat="46.48653" lon="-0.03772">
        <ele>160.4</ele>
        <time>2020-05-30T18:12:44Z</time>
      </trkpt>
      <trkpt lat="46.48651" lon="-0.03778">
        <ele>160.5</ele>
        <time>2020-05-30T18:12:45Z</time>
      </trkpt>
      <trkpt lat="46.48649" lon="-0.03781">
        <ele>160.6</ele>
        <time>2020-05-30T18:12:46Z</time>
      </trkpt>
      <trkpt lat="46.48647" lon="-0.03785">
        <ele>160.6</ele>
        <time>2020-05-30T18:12:47Z</time>
      </trkpt>
      <trkpt lat="46.48645" lon="-0.03789">
        <ele>160.7</ele>
        <time>2020-05-30T18:12:48Z</time>
      </trkpt>
      <trkpt lat="46.48644" lon="-0.03793">
        <ele>160.7</ele>
        <time>2020-05-30T18:12:49Z</time>
      </trkpt>
      <trkpt lat="46.48641" lon="-0.03797">
        <ele>160.7</ele>
        <time>2020-05-30T18:12:50Z</time>
      </trkpt>
      <trkpt lat="46.4864" lon="-0.038">
        <ele>160.7</ele>
        <time>2020-05-30T18:12:51Z</time>
      </trkpt>
      <trkpt lat="46.48637" lon="-0.03805">
        <ele>160.7</ele>
        <time>2020-05-30T18:12:52Z</time>
      </trkpt>
      <trkpt lat="46.48636" lon="-0.0381">
        <ele>160.7</ele>
        <time>2020-05-30T18:12:53Z</time>
      </trkpt>
      <trkpt lat="46.48633" lon="-0.03814">
        <ele>160.7</ele>
        <time>2020-05-30T18:12:54Z</time>
      </trkpt>
      <trkpt lat="46.4863" lon="-0.0382">
        <ele>160.7</ele>
        <time>2020-05-30T18:12:55Z</time>
      </trkpt>
      <trkpt lat="46.48629" lon="-0.03824">
        <ele>160.7</ele>
        <time>2020-05-30T18:12:56Z</time>
      </trkpt>
      <trkpt lat="46.48627" lon="-0.03829">
        <ele>160.7</ele>
        <time>2020-05-30T18:12:57Z</time>
      </trkpt>
      <trkpt lat="46.48625" lon="-0.03835">
        <ele>160.7</ele>
        <time>2020-05-30T18:12:58Z</time>
      </trkpt>
      <trkpt lat="46.48623" lon="-0.03839">
        <ele>160.7</ele>
        <time>2020-05-30T18:12:59Z</time>
      </trkpt>
      <trkpt lat="46.4862" lon="-0.03843">
        <ele>160.7</ele>
        <time>2020-05-30T18:13:00Z</time>
      </trkpt>
      <trkpt lat="46.48618" lon="-0.03847">
        <ele>160.7</ele>
        <time>2020-05-30T18:13:01Z</time>
      </trkpt>
      <trkpt lat="46.48616" lon="-0.03851">
        <ele>160.7</ele>
        <time>2020-05-30T18:13:02Z</time>
      </trkpt>
      <trkpt lat="46.48615" lon="-0.03856">
        <ele>160.7</ele>
        <time>2020-05-30T18:13:03Z</time>
      </trkpt>
      <trkpt lat="46.48613" lon="-0.03861">
        <ele>160.7</ele>
        <time>2020-05-30T18:13:04Z</time>
      </trkpt>
      <trkpt lat="46.48611" lon="-0.03865">
        <ele>160.7</ele>
        <time>2020-05-30T18:13:05Z</time>
      </trkpt>
      <trkpt lat="46.48609" lon="-0.0387">
        <ele>160.7</ele>
        <time>2020-05-30T18:13:06Z</time>
      </trkpt>
      <trkpt lat="46.48608" lon="-0.03872">
        <ele>160.7</ele>
        <time>2020-05-30T18:13:07Z</time>
      </trkpt>
      <trkpt lat="46.48606" lon="-0.03877">
        <ele>160.8</ele>
        <time>2020-05-30T18:13:08Z</time>
      </trkpt>
      <trkpt lat="46.48603" lon="-0.03881">
        <ele>160.8</ele>
        <time>2020-05-30T18:13:09Z</time>
      </trkpt>
      <trkpt lat="46.48601" lon="-0.03886">
        <ele>160.8</ele>
        <time>2020-05-30T18:13:10Z</time>
      </trkpt>
      <trkpt lat="46.48599" lon="-0.0389">
        <ele>160.8</ele>
        <time>2020-05-30T18:13:11Z</time>
      </trkpt>
      <trkpt lat="46.48596" lon="-0.03895">
        <ele>160.8</ele>
        <time>2020-05-30T18:13:12Z</time>
      </trkpt>
      <trkpt lat="46.48594" lon="-0.039">
        <ele>160.8</ele>
        <time>2020-05-30T18:13:13Z</time>
      </trkpt>
      <trkpt lat="46.48592" lon="-0.03904">
        <ele>160.8</ele>
        <time>2020-05-30T18:13:14Z</time>
      </trkpt>
      <trkpt lat="46.4859" lon="-0.03909">
        <ele>160.8</ele>
        <time>2020-05-30T18:13:15Z</time>
      </trkpt>
      <trkpt lat="46.48589" lon="-0.03913">
        <ele>160.8</ele>
        <time>2020-05-30T18:13:16Z</time>
      </trkpt>
      <trkpt lat="46.48588" lon="-0.03917">
        <ele>160.8</ele>
        <time>2020-05-30T18:13:17Z</time>
      </trkpt>
      <trkpt lat="46.48586" lon="-0.03923">
        <ele>160.8</ele>
        <time>2020-05-30T18:13:18Z</time>
      </trkpt>
      <trkpt lat="46.48584" lon="-0.03927">
        <ele>160.8</ele>
        <time>2020-05-30T18:13:19Z</time>
      </trkpt>
      <trkpt lat="46.48581" lon="-0.03931">
        <ele>160.9</ele>
        <time>2020-05-30T18:13:20Z</time>
      </trkpt>
      <trkpt lat="46.48579" lon="-0.03936">
        <ele>160.9</ele>
        <time>2020-05-30T18:13:21Z</time>
      </trkpt>
      <trkpt lat="46.48577" lon="-0.0394">
        <ele>160.9</ele>
        <time>2020-05-30T18:13:22Z</time>
      </trkpt>
      <trkpt lat="46.48575" lon="-0.03945">
        <ele>161</ele>
        <time>2020-05-30T18:13:23Z</time>
      </trkpt>
      <trkpt lat="46.48574" lon="-0.03951">
        <ele>161</ele>
        <time>2020-05-30T18:13:24Z</time>
      </trkpt>
      <trkpt lat="46.48572" lon="-0.03955">
        <ele>161.1</ele>
        <time>2020-05-30T18:13:25Z</time>
      </trkpt>
      <trkpt lat="46.4857" lon="-0.03959">
        <ele>161.2</ele>
        <time>2020-05-30T18:13:26Z</time>
      </trkpt>
      <trkpt lat="46.48568" lon="-0.03963">
        <ele>161.3</ele>
        <time>2020-05-30T18:13:27Z</time>
      </trkpt>
      <trkpt lat="46.48566" lon="-0.03967">
        <ele>161.4</ele>
        <time>2020-05-30T18:13:28Z</time>
      </trkpt>
      <trkpt lat="46.48563" lon="-0.03972">
        <ele>161.6</ele>
        <time>2020-05-30T18:13:29Z</time>
      </trkpt>
      <trkpt lat="46.4856" lon="-0.03976">
        <ele>161.7</ele>
        <time>2020-05-30T18:13:30Z</time>
      </trkpt>
      <trkpt lat="46.48559" lon="-0.0398">
        <ele>161.8</ele>
        <time>2020-05-30T18:13:31Z</time>
      </trkpt>
      <trkpt lat="46.48556" lon="-0.03984">
        <ele>161.8</ele>
        <time>2020-05-30T18:13:32Z</time>
      </trkpt>
      <trkpt lat="46.48554" lon="-0.03987">
        <ele>161.9</ele>
        <time>2020-05-30T18:13:33Z</time>
      </trkpt>
      <trkpt lat="46.48552" lon="-0.03991">
        <ele>161.9</ele>
        <time>2020-05-30T18:13:34Z</time>
      </trkpt>
      <trkpt lat="46.4855" lon="-0.03994">
        <ele>161.9</ele>
        <time>2020-05-30T18:13:35Z</time>
      </trkpt>
      <trkpt lat="46.48548" lon="-0.03998">
        <ele>161.9</ele>
        <time>2020-05-30T18:13:36Z</time>
      </trkpt>
      <trkpt lat="46.48545" lon="-0.04001">
        <ele>161.9</ele>
        <time>2020-05-30T18:13:37Z</time>
      </trkpt>
      <trkpt lat="46.48542" lon="-0.04006">
        <ele>162</ele>
        <time>2020-05-30T18:13:38Z</time>
      </trkpt>
      <trkpt lat="46.4854" lon="-0.0401">
        <ele>162</ele>
        <time>2020-05-30T18:13:39Z</time>
      </trkpt>
      <trkpt lat="46.48537" lon="-0.04014">
        <ele>162</ele>
        <time>2020-05-30T18:13:40Z</time>
      </trkpt>
      <trkpt lat="46.48534" lon="-0.04018">
        <ele>162</ele>
        <time>2020-05-30T18:13:41Z</time>
      </trkpt>
      <trkpt lat="46.48531" lon="-0.04022">
        <ele>162</ele>
        <time>2020-05-30T18:13:42Z</time>
      </trkpt>
      <trkpt lat="46.48528" lon="-0.04026">
        <ele>162.1</ele>
        <time>2020-05-30T18:13:43Z</time>
      </trkpt>
      <trkpt lat="46.48525" lon="-0.0403">
        <ele>162.1</ele>
        <time>2020-05-30T18:13:44Z</time>
      </trkpt>
      <trkpt lat="46.48523" lon="-0.04034">
        <ele>162.2</ele>
        <time>2020-05-30T18:13:45Z</time>
      </trkpt>
      <trkpt lat="46.48519" lon="-0.04038">
        <ele>162.3</ele>
        <time>2020-05-30T18:13:46Z</time>
      </trkpt>
      <trkpt lat="46.48517" lon="-0.04041">
        <ele>162.5</ele>
        <time>2020-05-30T18:13:47Z</time>
      </trkpt>
      <trkpt lat="46.48514" lon="-0.04044">
        <ele>162.6</ele>
        <time>2020-05-30T18:13:48Z</time>
      </trkpt>
      <trkpt lat="46.48511" lon="-0.04047">
        <ele>162.7</ele>
        <time>2020-05-30T18:13:49Z</time>
      </trkpt>
      <trkpt lat="46.48509" lon="-0.0405">
        <ele>162.8</ele>
        <time>2020-05-30T18:13:50Z</time>
      </trkpt>
      <trkpt lat="46.48507" lon="-0.04054">
        <ele>162.9</ele>
        <time>2020-05-30T18:13:51Z</time>
      </trkpt>
      <trkpt lat="46.48504" lon="-0.04058">
        <ele>163</ele>
        <time>2020-05-30T18:13:52Z</time>
      </trkpt>
      <trkpt lat="46.48503" lon="-0.0406">
        <ele>163</ele>
        <time>2020-05-30T18:13:53Z</time>
      </trkpt>
      <trkpt lat="46.48501" lon="-0.04063">
        <ele>163</ele>
        <time>2020-05-30T18:13:54Z</time>
      </trkpt>
      <trkpt lat="46.48499" lon="-0.04067">
        <ele>163.1</ele>
        <time>2020-05-30T18:13:55Z</time>
      </trkpt>
      <trkpt lat="46.48497" lon="-0.04071">
        <ele>163.1</ele>
        <time>2020-05-30T18:13:56Z</time>
      </trkpt>
      <trkpt lat="46.48495" lon="-0.04075">
        <ele>163.1</ele>
        <time>2020-05-30T18:13:57Z</time>
      </trkpt>
      <trkpt lat="46.48493" lon="-0.04079">
        <ele>163.2</ele>
        <time>2020-05-30T18:13:58Z</time>
      </trkpt>
      <trkpt lat="46.48491" lon="-0.04081">
        <ele>163.2</ele>
        <time>2020-05-30T18:13:59Z</time>
      </trkpt>
      <trkpt lat="46.48488" lon="-0.04085">
        <ele>163.3</ele>
        <time>2020-05-30T18:14:00Z</time>
      </trkpt>
      <trkpt lat="46.48486" lon="-0.04089">
        <ele>163.4</ele>
        <time>2020-05-30T18:14:01Z</time>
      </trkpt>
      <trkpt lat="46.48483" lon="-0.04092">
        <ele>163.5</ele>
        <time>2020-05-30T18:14:02Z</time>
      </trkpt>
      <trkpt lat="46.4848" lon="-0.04096">
        <ele>163.7</ele>
        <time>2020-05-30T18:14:03Z</time>
      </trkpt>
      <trkpt lat="46.48478" lon="-0.04099">
        <ele>163.8</ele>
        <time>2020-05-30T18:14:04Z</time>
      </trkpt>
      <trkpt lat="46.48476" lon="-0.04102">
        <ele>164</ele>
        <time>2020-05-30T18:14:05Z</time>
      </trkpt>
      <trkpt lat="46.48473" lon="-0.04106">
        <ele>164.1</ele>
        <time>2020-05-30T18:14:06Z</time>
      </trkpt>
      <trkpt lat="46.48471" lon="-0.0411">
        <ele>164.3</ele>
        <time>2020-05-30T18:14:07Z</time>
      </trkpt>
      <trkpt lat="46.48469" lon="-0.04114">
        <ele>164.4</ele>
        <time>2020-05-30T18:14:08Z</time>
      </trkpt>
      <trkpt lat="46.48467" lon="-0.0412">
        <ele>164.6</ele>
        <time>2020-05-30T18:14:09Z</time>
      </trkpt>
      <trkpt lat="46.48466" lon="-0.04122">
        <ele>164.6</ele>
        <time>2020-05-30T18:14:10Z</time>
      </trkpt>
      <trkpt lat="46.48465" lon="-0.04127">
        <ele>164.8</ele>
        <time>2020-05-30T18:14:11Z</time>
      </trkpt>
      <trkpt lat="46.48463" lon="-0.04132">
        <ele>164.9</ele>
        <time>2020-05-30T18:14:12Z</time>
      </trkpt>
      <trkpt lat="46.48462" lon="-0.04134">
        <ele>165</ele>
        <time>2020-05-30T18:14:13Z</time>
      </trkpt>
      <trkpt lat="46.4846" lon="-0.04137">
        <ele>165.1</ele>
        <time>2020-05-30T18:14:14Z</time>
      </trkpt>
      <trkpt lat="46.48459" lon="-0.04141">
        <ele>165.2</ele>
        <time>2020-05-30T18:14:15Z</time>
      </trkpt>
      <trkpt lat="46.48457" lon="-0.04146">
        <ele>165.3</ele>
        <time>2020-05-30T18:14:16Z</time>
      </trkpt>
      <trkpt lat="46.48456" lon="-0.04147">
        <ele>165.3</ele>
        <time>2020-05-30T18:14:17Z</time>
      </trkpt>
      <trkpt lat="46.48454" lon="-0.0415">
        <ele>165.4</ele>
        <time>2020-05-30T18:14:18Z</time>
      </trkpt>
      <trkpt lat="46.48452" lon="-0.04154">
        <ele>165.5</ele>
        <time>2020-05-30T18:14:19Z</time>
      </trkpt>
      <trkpt lat="46.48451" lon="-0.04156">
        <ele>165.6</ele>
        <time>2020-05-30T18:14:20Z</time>
      </trkpt>
      <trkpt lat="46.4845" lon="-0.04161">
        <ele>165.7</ele>
        <time>2020-05-30T18:14:21Z</time>
      </trkpt>
      <trkpt lat="46.48449" lon="-0.04164">
        <ele>165.8</ele>
        <time>2020-05-30T18:14:22Z</time>
      </trkpt>
      <trkpt lat="46.48447" lon="-0.04169">
        <ele>166</ele>
        <time>2020-05-30T18:14:23Z</time>
      </trkpt>
      <trkpt lat="46.48445" lon="-0.04173">
        <ele>166.2</ele>
        <time>2020-05-30T18:14:24Z</time>
      </trkpt>
      <trkpt lat="46.48443" lon="-0.04177">
        <ele>166.3</ele>
        <time>2020-05-30T18:14:25Z</time>
      </trkpt>
      <trkpt lat="46.48442" lon="-0.04181">
        <ele>166.5</ele>
        <time>2020-05-30T18:14:26Z</time>
      </trkpt>
      <trkpt lat="46.48442" lon="-0.04183">
        <ele>166.5</ele>
        <time>2020-05-30T18:14:27Z</time>
      </trkpt>
      <trkpt lat="46.48439" lon="-0.04188">
        <ele>166.8</ele>
        <time>2020-05-30T18:14:28Z</time>
      </trkpt>
      <trkpt lat="46.48438" lon="-0.04191">
        <ele>166.9</ele>
        <time>2020-05-30T18:14:29Z</time>
      </trkpt>
      <trkpt lat="46.48436" lon="-0.04195">
        <ele>167</ele>
        <time>2020-05-30T18:14:30Z</time>
      </trkpt>
      <trkpt lat="46.48435" lon="-0.04199">
        <ele>167.2</ele>
        <time>2020-05-30T18:14:31Z</time>
      </trkpt>
      <trkpt lat="46.48433" lon="-0.04203">
        <ele>167.4</ele>
        <time>2020-05-30T18:14:32Z</time>
      </trkpt>
      <trkpt lat="46.48432" lon="-0.04209">
        <ele>167.6</ele>
        <time>2020-05-30T18:14:33Z</time>
      </trkpt>
      <trkpt lat="46.48431" lon="-0.04211">
        <ele>167.7</ele>
        <time>2020-05-30T18:14:34Z</time>
      </trkpt>
      <trkpt lat="46.4843" lon="-0.04216">
        <ele>167.8</ele>
        <time>2020-05-30T18:14:35Z</time>
      </trkpt>
      <trkpt lat="46.48429" lon="-0.04218">
        <ele>167.9</ele>
        <time>2020-05-30T18:14:36Z</time>
      </trkpt>
      <trkpt lat="46.48427" lon="-0.04223">
        <ele>168</ele>
        <time>2020-05-30T18:14:37Z</time>
      </trkpt>
      <trkpt lat="46.48426" lon="-0.04225">
        <ele>168.1</ele>
        <time>2020-05-30T18:14:38Z</time>
      </trkpt>
      <trkpt lat="46.48423" lon="-0.04228">
        <ele>168.2</ele>
        <time>2020-05-30T18:14:39Z</time>
      </trkpt>
      <trkpt lat="46.48421" lon="-0.04233">
        <ele>168.2</ele>
        <time>2020-05-30T18:14:40Z</time>
      </trkpt>
      <trkpt lat="46.48421" lon="-0.04234">
        <ele>168.2</ele>
        <time>2020-05-30T18:14:41Z</time>
      </trkpt>
      <trkpt lat="46.48419" lon="-0.04238">
        <ele>168.3</ele>
        <time>2020-05-30T18:14:42Z</time>
      </trkpt>
      <trkpt lat="46.48417" lon="-0.04242">
        <ele>168.3</ele>
        <time>2020-05-30T18:14:43Z</time>
      </trkpt>
      <trkpt lat="46.48415" lon="-0.04246">
        <ele>168.3</ele>
        <time>2020-05-30T18:14:44Z</time>
      </trkpt>
      <trkpt lat="46.48413" lon="-0.0425">
        <ele>168.3</ele>
        <time>2020-05-30T18:14:45Z</time>
      </trkpt>
      <trkpt lat="46.48411" lon="-0.04255">
        <ele>168.4</ele>
        <time>2020-05-30T18:14:46Z</time>
      </trkpt>
      <trkpt lat="46.4841" lon="-0.0426">
        <ele>168.4</ele>
        <time>2020-05-30T18:14:47Z</time>
      </trkpt>
      <trkpt lat="46.48408" lon="-0.04264">
        <ele>168.4</ele>
        <time>2020-05-30T18:14:48Z</time>
      </trkpt>
      <trkpt lat="46.48406" lon="-0.04269">
        <ele>168.4</ele>
        <time>2020-05-30T18:14:49Z</time>
      </trkpt>
      <trkpt lat="46.48405" lon="-0.04272">
        <ele>168.4</ele>
        <time>2020-05-30T18:14:50Z</time>
      </trkpt>
      <trkpt lat="46.48403" lon="-0.04278">
        <ele>168.4</ele>
        <time>2020-05-30T18:14:51Z</time>
      </trkpt>
      <trkpt lat="46.48401" lon="-0.04282">
        <ele>168.4</ele>
        <time>2020-05-30T18:14:52Z</time>
      </trkpt>
      <trkpt lat="46.48399" lon="-0.04286">
        <ele>168.4</ele>
        <time>2020-05-30T18:14:53Z</time>
      </trkpt>
      <trkpt lat="46.48398" lon="-0.04291">
        <ele>168.3</ele>
        <time>2020-05-30T18:14:54Z</time>
      </trkpt>
      <trkpt lat="46.48396" lon="-0.04295">
        <ele>168.3</ele>
        <time>2020-05-30T18:14:55Z</time>
      </trkpt>
      <trkpt lat="46.48395" lon="-0.043">
        <ele>168.2</ele>
        <time>2020-05-30T18:14:56Z</time>
      </trkpt>
      <trkpt lat="46.48393" lon="-0.04305">
        <ele>168.1</ele>
        <time>2020-05-30T18:14:57Z</time>
      </trkpt>
      <trkpt lat="46.48392" lon="-0.04311">
        <ele>168</ele>
        <time>2020-05-30T18:14:58Z</time>
      </trkpt>
      <trkpt lat="46.4839" lon="-0.04316">
        <ele>167.9</ele>
        <time>2020-05-30T18:14:59Z</time>
      </trkpt>
      <trkpt lat="46.4839" lon="-0.04321">
        <ele>167.8</ele>
        <time>2020-05-30T18:15:00Z</time>
      </trkpt>
      <trkpt lat="46.48389" lon="-0.04324">
        <ele>167.7</ele>
        <time>2020-05-30T18:15:01Z</time>
      </trkpt>
      <trkpt lat="46.48389" lon="-0.0433">
        <ele>167.6</ele>
        <time>2020-05-30T18:15:02Z</time>
      </trkpt>
      <trkpt lat="46.48388" lon="-0.04335">
        <ele>167.6</ele>
        <time>2020-05-30T18:15:03Z</time>
      </trkpt>
      <trkpt lat="46.48388" lon="-0.04339">
        <ele>167.5</ele>
        <time>2020-05-30T18:15:04Z</time>
      </trkpt>
      <trkpt lat="46.48387" lon="-0.04347">
        <ele>167.5</ele>
        <time>2020-05-30T18:15:05Z</time>
      </trkpt>
      <trkpt lat="46.48385" lon="-0.04354">
        <ele>167.5</ele>
        <time>2020-05-30T18:15:06Z</time>
      </trkpt>
      <trkpt lat="46.48384" lon="-0.04361">
        <ele>167.5</ele>
        <time>2020-05-30T18:15:07Z</time>
      </trkpt>
      <trkpt lat="46.48382" lon="-0.04365">
        <ele>167.5</ele>
        <time>2020-05-30T18:15:08Z</time>
      </trkpt>
      <trkpt lat="46.48381" lon="-0.04372">
        <ele>167.4</ele>
        <time>2020-05-30T18:15:09Z</time>
      </trkpt>
      <trkpt lat="46.4838" lon="-0.0438">
        <ele>167.4</ele>
        <time>2020-05-30T18:15:10Z</time>
      </trkpt>
      <trkpt lat="46.48379" lon="-0.04387">
        <ele>167.3</ele>
        <time>2020-05-30T18:15:11Z</time>
      </trkpt>
      <trkpt lat="46.48378" lon="-0.04393">
        <ele>167.2</ele>
        <time>2020-05-30T18:15:12Z</time>
      </trkpt>
      <trkpt lat="46.48377" lon="-0.044">
        <ele>167</ele>
        <time>2020-05-30T18:15:13Z</time>
      </trkpt>
      <trkpt lat="46.48375" lon="-0.04407">
        <ele>166.9</ele>
        <time>2020-05-30T18:15:14Z</time>
      </trkpt>
      <trkpt lat="46.48375" lon="-0.04415">
        <ele>166.8</ele>
        <time>2020-05-30T18:15:15Z</time>
      </trkpt>
      <trkpt lat="46.48375" lon="-0.04422">
        <ele>166.7</ele>
        <time>2020-05-30T18:15:16Z</time>
      </trkpt>
      <trkpt lat="46.48374" lon="-0.04429">
        <ele>166.6</ele>
        <time>2020-05-30T18:15:17Z</time>
      </trkpt>
      <trkpt lat="46.48373" lon="-0.04436">
        <ele>166.6</ele>
        <time>2020-05-30T18:15:18Z</time>
      </trkpt>
      <trkpt lat="46.48372" lon="-0.04442">
        <ele>166.5</ele>
        <time>2020-05-30T18:15:19Z</time>
      </trkpt>
      <trkpt lat="46.4837" lon="-0.04448">
        <ele>166.4</ele>
        <time>2020-05-30T18:15:20Z</time>
      </trkpt>
      <trkpt lat="46.48369" lon="-0.04455">
        <ele>166.3</ele>
        <time>2020-05-30T18:15:21Z</time>
      </trkpt>
      <trkpt lat="46.48368" lon="-0.04462">
        <ele>166.1</ele>
        <time>2020-05-30T18:15:22Z</time>
      </trkpt>
      <trkpt lat="46.48367" lon="-0.04468">
        <ele>166</ele>
        <time>2020-05-30T18:15:23Z</time>
      </trkpt>
      <trkpt lat="46.48367" lon="-0.04475">
        <ele>165.9</ele>
        <time>2020-05-30T18:15:24Z</time>
      </trkpt>
      <trkpt lat="46.48365" lon="-0.04482">
        <ele>165.8</ele>
        <time>2020-05-30T18:15:25Z</time>
      </trkpt>
      <trkpt lat="46.48364" lon="-0.04489">
        <ele>165.7</ele>
        <time>2020-05-30T18:15:26Z</time>
      </trkpt>
      <trkpt lat="46.48363" lon="-0.04495">
        <ele>165.7</ele>
        <time>2020-05-30T18:15:27Z</time>
      </trkpt>
      <trkpt lat="46.48362" lon="-0.04503">
        <ele>165.7</ele>
        <time>2020-05-30T18:15:28Z</time>
      </trkpt>
      <trkpt lat="46.48361" lon="-0.04509">
        <ele>165.7</ele>
        <time>2020-05-30T18:15:29Z</time>
      </trkpt>
      <trkpt lat="46.48359" lon="-0.04515">
        <ele>165.7</ele>
        <time>2020-05-30T18:15:30Z</time>
      </trkpt>
      <trkpt lat="46.48358" lon="-0.04522">
        <ele>165.8</ele>
        <time>2020-05-30T18:15:31Z</time>
      </trkpt>
      <trkpt lat="46.48355" lon="-0.04527">
        <ele>165.8</ele>
        <time>2020-05-30T18:15:32Z</time>
      </trkpt>
      <trkpt lat="46.48354" lon="-0.04533">
        <ele>165.9</ele>
        <time>2020-05-30T18:15:33Z</time>
      </trkpt>
      <trkpt lat="46.48352" lon="-0.0454">
        <ele>166</ele>
        <time>2020-05-30T18:15:34Z</time>
      </trkpt>
      <trkpt lat="46.4835" lon="-0.04548">
        <ele>166.2</ele>
        <time>2020-05-30T18:15:35Z</time>
      </trkpt>
      <trkpt lat="46.48348" lon="-0.04554">
        <ele>166.3</ele>
        <time>2020-05-30T18:15:36Z</time>
      </trkpt>
      <trkpt lat="46.48347" lon="-0.0456">
        <ele>166.4</ele>
        <time>2020-05-30T18:15:37Z</time>
      </trkpt>
      <trkpt lat="46.48345" lon="-0.04566">
        <ele>166.6</ele>
        <time>2020-05-30T18:15:38Z</time>
      </trkpt>
      <trkpt lat="46.48344" lon="-0.04574">
        <ele>166.7</ele>
        <time>2020-05-30T18:15:39Z</time>
      </trkpt>
      <trkpt lat="46.48342" lon="-0.0458">
        <ele>166.7</ele>
        <time>2020-05-30T18:15:40Z</time>
      </trkpt>
      <trkpt lat="46.4834" lon="-0.04586">
        <ele>166.8</ele>
        <time>2020-05-30T18:15:41Z</time>
      </trkpt>
      <trkpt lat="46.48338" lon="-0.04591">
        <ele>166.8</ele>
        <time>2020-05-30T18:15:42Z</time>
      </trkpt>
      <trkpt lat="46.48336" lon="-0.04597">
        <ele>166.8</ele>
        <time>2020-05-30T18:15:43Z</time>
      </trkpt>
      <trkpt lat="46.48334" lon="-0.04603">
        <ele>166.8</ele>
        <time>2020-05-30T18:15:44Z</time>
      </trkpt>
      <trkpt lat="46.48332" lon="-0.0461">
        <ele>166.9</ele>
        <time>2020-05-30T18:15:45Z</time>
      </trkpt>
      <trkpt lat="46.4833" lon="-0.04617">
        <ele>166.9</ele>
        <time>2020-05-30T18:15:46Z</time>
      </trkpt>
      <trkpt lat="46.48327" lon="-0.04625">
        <ele>167</ele>
        <time>2020-05-30T18:15:47Z</time>
      </trkpt>
      <trkpt lat="46.48325" lon="-0.04633">
        <ele>167.1</ele>
        <time>2020-05-30T18:15:48Z</time>
      </trkpt>
      <trkpt lat="46.48325" lon="-0.0464">
        <ele>167.2</ele>
        <time>2020-05-30T18:15:49Z</time>
      </trkpt>
      <trkpt lat="46.48323" lon="-0.04647">
        <ele>167.4</ele>
        <time>2020-05-30T18:15:50Z</time>
      </trkpt>
      <trkpt lat="46.48321" lon="-0.04652">
        <ele>167.5</ele>
        <time>2020-05-30T18:15:51Z</time>
      </trkpt>
      <trkpt lat="46.48319" lon="-0.04659">
        <ele>167.6</ele>
        <time>2020-05-30T18:15:52Z</time>
      </trkpt>
      <trkpt lat="46.48317" lon="-0.04665">
        <ele>167.7</ele>
        <time>2020-05-30T18:15:53Z</time>
      </trkpt>
      <trkpt lat="46.48315" lon="-0.04672">
        <ele>167.7</ele>
        <time>2020-05-30T18:15:54Z</time>
      </trkpt>
      <trkpt lat="46.48315" lon="-0.04677">
        <ele>167.7</ele>
        <time>2020-05-30T18:15:55Z</time>
      </trkpt>
      <trkpt lat="46.48315" lon="-0.04683">
        <ele>167.6</ele>
        <time>2020-05-30T18:15:56Z</time>
      </trkpt>
      <trkpt lat="46.48314" lon="-0.04689">
        <ele>167.4</ele>
        <time>2020-05-30T18:15:57Z</time>
      </trkpt>
      <trkpt lat="46.48312" lon="-0.04696">
        <ele>167.2</ele>
        <time>2020-05-30T18:15:58Z</time>
      </trkpt>
      <trkpt lat="46.48312" lon="-0.04702">
        <ele>167</ele>
        <time>2020-05-30T18:15:59Z</time>
      </trkpt>
      <trkpt lat="46.48311" lon="-0.04707">
        <ele>167.1</ele>
        <time>2020-05-30T18:16:00Z</time>
      </trkpt>
      <trkpt lat="46.48311" lon="-0.04712">
        <ele>167.1</ele>
        <time>2020-05-30T18:16:01Z</time>
      </trkpt>
      <trkpt lat="46.48311" lon="-0.04714">
        <ele>167.1</ele>
        <time>2020-05-30T18:16:02Z</time>
      </trkpt>
      <trkpt lat="46.48311" lon="-0.0472">
        <ele>167.1</ele>
        <time>2020-05-30T18:16:03Z</time>
      </trkpt>
      <trkpt lat="46.48311" lon="-0.04723">
        <ele>167.2</ele>
        <time>2020-05-30T18:16:04Z</time>
      </trkpt>
      <trkpt lat="46.48312" lon="-0.04726">
        <ele>167.2</ele>
        <time>2020-05-30T18:16:05Z</time>
      </trkpt>
      <trkpt lat="46.48311" lon="-0.04726">
        <ele>167.2</ele>
        <time>2020-05-30T18:16:06Z</time>
      </trkpt>
      <trkpt lat="46.4831" lon="-0.04727">
        <ele>167.2</ele>
        <time>2020-05-30T18:16:07Z</time>
      </trkpt>
      <trkpt lat="46.4831" lon="-0.04727">
        <ele>167.2</ele>
        <time>2020-05-30T18:16:08Z</time>
      </trkpt>
      <trkpt lat="46.4831" lon="-0.04728">
        <ele>167.2</ele>
        <time>2020-05-30T18:16:09Z</time>
      </trkpt>
      <trkpt lat="46.48311" lon="-0.04727">
        <ele>167.2</ele>
        <time>2020-05-30T18:16:10Z</time>
      </trkpt>
      <trkpt lat="46.48311" lon="-0.04725">
        <ele>167.2</ele>
        <time>2020-05-30T18:16:11Z</time>
      </trkpt>
      <trkpt lat="46.48311" lon="-0.04724">
        <ele>167.2</ele>
        <time>2020-05-30T18:16:12Z</time>
      </trkpt>
      <trkpt lat="46.48311" lon="-0.04724">
        <ele>167.2</ele>
        <time>2020-05-30T18:16:13Z</time>
      </trkpt>
      <trkpt lat="46.4831" lon="-0.04724">
        <ele>167.2</ele>
        <time>2020-05-30T18:16:14Z</time>
      </trkpt>
      <trkpt lat="46.48311" lon="-0.04726">
        <ele>167.2</ele>
        <time>2020-05-30T18:16:15Z</time>
      </trkpt>
      <trkpt lat="46.4831" lon="-0.04727">
        <ele>167.1</ele>
        <time>2020-05-30T18:16:16Z</time>
      </trkpt>
      <trkpt lat="46.48309" lon="-0.04727">
        <ele>167.1</ele>
        <time>2020-05-30T18:16:17Z</time>
      </trkpt>
      <trkpt lat="46.48309" lon="-0.04729">
        <ele>167.1</ele>
        <time>2020-05-30T18:16:18Z</time>
      </trkpt>
      <trkpt lat="46.48309" lon="-0.04728">
        <ele>167.1</ele>
        <time>2020-05-30T18:16:19Z</time>
      </trkpt>
      <trkpt lat="46.48309" lon="-0.04728">
        <ele>167.1</ele>
        <time>2020-05-30T18:16:20Z</time>
      </trkpt>
      <trkpt lat="46.48309" lon="-0.04728">
        <ele>167.1</ele>
        <time>2020-05-30T18:16:21Z</time>
      </trkpt>
      <trkpt lat="46.48309" lon="-0.04728">
        <ele>167.1</ele>
        <time>2020-05-30T18:16:22Z</time>
      </trkpt>
      <trkpt lat="46.4831" lon="-0.04728">
        <ele>167.1</ele>
        <time>2020-05-30T18:16:23Z</time>
      </trkpt>
      <trkpt lat="46.4831" lon="-0.04728">
        <ele>167.1</ele>
        <time>2020-05-30T18:16:24Z</time>
      </trkpt>
      <trkpt lat="46.4831" lon="-0.04728">
        <ele>167.1</ele>
        <time>2020-05-30T18:16:25Z</time>
      </trkpt>
      <trkpt lat="46.4831" lon="-0.04728">
        <ele>167.1</ele>
        <time>2020-05-30T18:16:26Z</time>
      </trkpt>
      <trkpt lat="46.4831" lon="-0.04728">
        <ele>167.1</ele>
        <time>2020-05-30T18:16:27Z</time>
      </trkpt>
      <trkpt lat="46.4831" lon="-0.04728">
        <ele>167.1</ele>
        <time>2020-05-30T18:16:28Z</time>
      </trkpt>
      <trkpt lat="46.4831" lon="-0.04728">
        <ele>167.1</ele>
        <time>2020-05-30T18:16:29Z</time>
      </trkpt>
      <trkpt lat="46.48308" lon="-0.0473">
        <ele>167.1</ele>
        <time>2020-05-30T18:16:30Z</time>
      </trkpt>
      <trkpt lat="46.48309" lon="-0.04735">
        <ele>167.1</ele>
        <time>2020-05-30T18:16:31Z</time>
      </trkpt>
      <trkpt lat="46.48309" lon="-0.04737">
        <ele>167.1</ele>
        <time>2020-05-30T18:16:32Z</time>
      </trkpt>
      <trkpt lat="46.48312" lon="-0.04742">
        <ele>167.2</ele>
        <time>2020-05-30T18:16:33Z</time>
      </trkpt>
      <trkpt lat="46.48313" lon="-0.04748">
        <ele>167.2</ele>
        <time>2020-05-30T18:16:34Z</time>
      </trkpt>
      <trkpt lat="46.48315" lon="-0.04753">
        <ele>167.3</ele>
        <time>2020-05-30T18:16:35Z</time>
      </trkpt>
      <trkpt lat="46.48316" lon="-0.04756">
        <ele>167.4</ele>
        <time>2020-05-30T18:16:36Z</time>
      </trkpt>
      <trkpt lat="46.48317" lon="-0.04762">
        <ele>167.5</ele>
        <time>2020-05-30T18:16:37Z</time>
      </trkpt>
      <trkpt lat="46.48318" lon="-0.04766">
        <ele>167.6</ele>
        <time>2020-05-30T18:16:38Z</time>
      </trkpt>
      <trkpt lat="46.4832" lon="-0.04772">
        <ele>167.7</ele>
        <time>2020-05-30T18:16:39Z</time>
      </trkpt>
      <trkpt lat="46.48322" lon="-0.04777">
        <ele>167.8</ele>
        <time>2020-05-30T18:16:40Z</time>
      </trkpt>
      <trkpt lat="46.48323" lon="-0.04782">
        <ele>167.9</ele>
        <time>2020-05-30T18:16:41Z</time>
      </trkpt>
      <trkpt lat="46.48324" lon="-0.04788">
        <ele>168</ele>
        <time>2020-05-30T18:16:42Z</time>
      </trkpt>
      <trkpt lat="46.48324" lon="-0.04796">
        <ele>168.1</ele>
        <time>2020-05-30T18:16:43Z</time>
      </trkpt>
      <trkpt lat="46.48324" lon="-0.04801">
        <ele>168.2</ele>
        <time>2020-05-30T18:16:44Z</time>
      </trkpt>
      <trkpt lat="46.48323" lon="-0.04807">
        <ele>168.3</ele>
        <time>2020-05-30T18:16:45Z</time>
      </trkpt>
      <trkpt lat="46.48324" lon="-0.04813">
        <ele>168.3</ele>
        <time>2020-05-30T18:16:46Z</time>
      </trkpt>
      <trkpt lat="46.48323" lon="-0.0482">
        <ele>168.4</ele>
        <time>2020-05-30T18:16:47Z</time>
      </trkpt>
      <trkpt lat="46.48324" lon="-0.04826">
        <ele>168.4</ele>
        <time>2020-05-30T18:16:48Z</time>
      </trkpt>
      <trkpt lat="46.48324" lon="-0.04833">
        <ele>168.5</ele>
        <time>2020-05-30T18:16:49Z</time>
      </trkpt>
      <trkpt lat="46.48323" lon="-0.0484">
        <ele>168.5</ele>
        <time>2020-05-30T18:16:50Z</time>
      </trkpt>
      <trkpt lat="46.48323" lon="-0.04846">
        <ele>168.5</ele>
        <time>2020-05-30T18:16:51Z</time>
      </trkpt>
      <trkpt lat="46.48324" lon="-0.04851">
        <ele>168.5</ele>
        <time>2020-05-30T18:16:52Z</time>
      </trkpt>
      <trkpt lat="46.48324" lon="-0.04858">
        <ele>168.5</ele>
        <time>2020-05-30T18:16:53Z</time>
      </trkpt>
      <trkpt lat="46.48323" lon="-0.04864">
        <ele>168.5</ele>
        <time>2020-05-30T18:16:54Z</time>
      </trkpt>
      <trkpt lat="46.48324" lon="-0.04869">
        <ele>168.5</ele>
        <time>2020-05-30T18:16:55Z</time>
      </trkpt>
      <trkpt lat="46.48323" lon="-0.04875">
        <ele>168.5</ele>
        <time>2020-05-30T18:16:56Z</time>
      </trkpt>
      <trkpt lat="46.48323" lon="-0.04881">
        <ele>168.5</ele>
        <time>2020-05-30T18:16:57Z</time>
      </trkpt>
      <trkpt lat="46.48323" lon="-0.04889">
        <ele>168.5</ele>
        <time>2020-05-30T18:16:58Z</time>
      </trkpt>
      <trkpt lat="46.48323" lon="-0.04894">
        <ele>168.5</ele>
        <time>2020-05-30T18:16:59Z</time>
      </trkpt>
      <trkpt lat="46.48324" lon="-0.049">
        <ele>168.5</ele>
        <time>2020-05-30T18:17:00Z</time>
      </trkpt>
      <trkpt lat="46.48324" lon="-0.04906">
        <ele>168.5</ele>
        <time>2020-05-30T18:17:01Z</time>
      </trkpt>
      <trkpt lat="46.48323" lon="-0.04912">
        <ele>168.5</ele>
        <time>2020-05-30T18:17:02Z</time>
      </trkpt>
      <trkpt lat="46.48324" lon="-0.04918">
        <ele>168.5</ele>
        <time>2020-05-30T18:17:03Z</time>
      </trkpt>
      <trkpt lat="46.48324" lon="-0.04926">
        <ele>168.6</ele>
        <time>2020-05-30T18:17:04Z</time>
      </trkpt>
      <trkpt lat="46.48325" lon="-0.04933">
        <ele>168.6</ele>
        <time>2020-05-30T18:17:05Z</time>
      </trkpt>
      <trkpt lat="46.48324" lon="-0.0494">
        <ele>168.6</ele>
        <time>2020-05-30T18:17:06Z</time>
      </trkpt>
      <trkpt lat="46.48325" lon="-0.04946">
        <ele>168.7</ele>
        <time>2020-05-30T18:17:07Z</time>
      </trkpt>
      <trkpt lat="46.48325" lon="-0.04953">
        <ele>168.7</ele>
        <time>2020-05-30T18:17:08Z</time>
      </trkpt>
      <trkpt lat="46.48325" lon="-0.0496">
        <ele>168.7</ele>
        <time>2020-05-30T18:17:09Z</time>
      </trkpt>
      <trkpt lat="46.48325" lon="-0.04967">
        <ele>168.7</ele>
        <time>2020-05-30T18:17:10Z</time>
      </trkpt>
      <trkpt lat="46.48325" lon="-0.04974">
        <ele>168.8</ele>
        <time>2020-05-30T18:17:11Z</time>
      </trkpt>
      <trkpt lat="46.48325" lon="-0.04981">
        <ele>168.8</ele>
        <time>2020-05-30T18:17:12Z</time>
      </trkpt>
      <trkpt lat="46.48326" lon="-0.04989">
        <ele>168.8</ele>
        <time>2020-05-30T18:17:13Z</time>
      </trkpt>
      <trkpt lat="46.48327" lon="-0.04995">
        <ele>168.8</ele>
        <time>2020-05-30T18:17:14Z</time>
      </trkpt>
      <trkpt lat="46.48328" lon="-0.05001">
        <ele>168.8</ele>
        <time>2020-05-30T18:17:15Z</time>
      </trkpt>
      <trkpt lat="46.48329" lon="-0.05009">
        <ele>168.8</ele>
        <time>2020-05-30T18:17:16Z</time>
      </trkpt>
      <trkpt lat="46.48331" lon="-0.05016">
        <ele>168.8</ele>
        <time>2020-05-30T18:17:17Z</time>
      </trkpt>
      <trkpt lat="46.48335" lon="-0.05022">
        <ele>168.8</ele>
        <time>2020-05-30T18:17:18Z</time>
      </trkpt>
      <trkpt lat="46.48338" lon="-0.05028">
        <ele>168.7</ele>
        <time>2020-05-30T18:17:19Z</time>
      </trkpt>
      <trkpt lat="46.48341" lon="-0.05036">
        <ele>168.7</ele>
        <time>2020-05-30T18:17:20Z</time>
      </trkpt>
      <trkpt lat="46.48343" lon="-0.05042">
        <ele>168.7</ele>
        <time>2020-05-30T18:17:21Z</time>
      </trkpt>
      <trkpt lat="46.48346" lon="-0.05048">
        <ele>168.7</ele>
        <time>2020-05-30T18:17:22Z</time>
      </trkpt>
      <trkpt lat="46.48348" lon="-0.05054">
        <ele>168.7</ele>
        <time>2020-05-30T18:17:23Z</time>
      </trkpt>
      <trkpt lat="46.48352" lon="-0.05061">
        <ele>168.7</ele>
        <time>2020-05-30T18:17:24Z</time>
      </trkpt>
      <trkpt lat="46.48355" lon="-0.05066">
        <ele>168.7</ele>
        <time>2020-05-30T18:17:25Z</time>
      </trkpt>
      <trkpt lat="46.48359" lon="-0.05071">
        <ele>168.7</ele>
        <time>2020-05-30T18:17:26Z</time>
      </trkpt>
      <trkpt lat="46.48363" lon="-0.05077">
        <ele>168.7</ele>
        <time>2020-05-30T18:17:27Z</time>
      </trkpt>
      <trkpt lat="46.48367" lon="-0.05082">
        <ele>168.7</ele>
        <time>2020-05-30T18:17:28Z</time>
      </trkpt>
      <trkpt lat="46.4837" lon="-0.05088">
        <ele>168.7</ele>
        <time>2020-05-30T18:17:29Z</time>
      </trkpt>
      <trkpt lat="46.48374" lon="-0.05095">
        <ele>168.8</ele>
        <time>2020-05-30T18:17:30Z</time>
      </trkpt>
      <trkpt lat="46.48378" lon="-0.05101">
        <ele>168.8</ele>
        <time>2020-05-30T18:17:31Z</time>
      </trkpt>
      <trkpt lat="46.48381" lon="-0.05108">
        <ele>168.8</ele>
        <time>2020-05-30T18:17:32Z</time>
      </trkpt>
      <trkpt lat="46.48385" lon="-0.05114">
        <ele>168.8</ele>
        <time>2020-05-30T18:17:33Z</time>
      </trkpt>
      <trkpt lat="46.48387" lon="-0.05119">
        <ele>168.8</ele>
        <time>2020-05-30T18:17:34Z</time>
      </trkpt>
      <trkpt lat="46.48391" lon="-0.05125">
        <ele>168.8</ele>
        <time>2020-05-30T18:17:35Z</time>
      </trkpt>
      <trkpt lat="46.48394" lon="-0.0513">
        <ele>168.8</ele>
        <time>2020-05-30T18:17:36Z</time>
      </trkpt>
      <trkpt lat="46.48397" lon="-0.05135">
        <ele>168.7</ele>
        <time>2020-05-30T18:17:37Z</time>
      </trkpt>
      <trkpt lat="46.48401" lon="-0.0514">
        <ele>168.7</ele>
        <time>2020-05-30T18:17:38Z</time>
      </trkpt>
      <trkpt lat="46.48404" lon="-0.05146">
        <ele>168.6</ele>
        <time>2020-05-30T18:17:39Z</time>
      </trkpt>
      <trkpt lat="46.48408" lon="-0.05152">
        <ele>168.5</ele>
        <time>2020-05-30T18:17:40Z</time>
      </trkpt>
      <trkpt lat="46.48412" lon="-0.05158">
        <ele>168.5</ele>
        <time>2020-05-30T18:17:41Z</time>
      </trkpt>
      <trkpt lat="46.48416" lon="-0.05165">
        <ele>168.4</ele>
        <time>2020-05-30T18:17:42Z</time>
      </trkpt>
      <trkpt lat="46.4842" lon="-0.05172">
        <ele>168.3</ele>
        <time>2020-05-30T18:17:43Z</time>
      </trkpt>
      <trkpt lat="46.48423" lon="-0.05177">
        <ele>168.3</ele>
        <time>2020-05-30T18:17:44Z</time>
      </trkpt>
      <trkpt lat="46.48426" lon="-0.05184">
        <ele>168.2</ele>
        <time>2020-05-30T18:17:45Z</time>
      </trkpt>
      <trkpt lat="46.4843" lon="-0.0519">
        <ele>168.2</ele>
        <time>2020-05-30T18:17:46Z</time>
      </trkpt>
      <trkpt lat="46.48433" lon="-0.05197">
        <ele>168.2</ele>
        <time>2020-05-30T18:17:47Z</time>
      </trkpt>
      <trkpt lat="46.48435" lon="-0.05204">
        <ele>168.1</ele>
        <time>2020-05-30T18:17:48Z</time>
      </trkpt>
      <trkpt lat="46.48438" lon="-0.05211">
        <ele>168.1</ele>
        <time>2020-05-30T18:17:49Z</time>
      </trkpt>
      <trkpt lat="46.48439" lon="-0.05217">
        <ele>168.1</ele>
        <time>2020-05-30T18:17:50Z</time>
      </trkpt>
      <trkpt lat="46.48441" lon="-0.05223">
        <ele>168</ele>
        <time>2020-05-30T18:17:51Z</time>
      </trkpt>
      <trkpt lat="46.48444" lon="-0.05229">
        <ele>168</ele>
        <time>2020-05-30T18:17:52Z</time>
      </trkpt>
      <trkpt lat="46.48447" lon="-0.05235">
        <ele>168</ele>
        <time>2020-05-30T18:17:53Z</time>
      </trkpt>
      <trkpt lat="46.4845" lon="-0.05242">
        <ele>168</ele>
        <time>2020-05-30T18:17:54Z</time>
      </trkpt>
      <trkpt lat="46.48453" lon="-0.05249">
        <ele>167.9</ele>
        <time>2020-05-30T18:17:55Z</time>
      </trkpt>
      <trkpt lat="46.48456" lon="-0.05256">
        <ele>167.9</ele>
        <time>2020-05-30T18:17:56Z</time>
      </trkpt>
      <trkpt lat="46.48458" lon="-0.05264">
        <ele>167.9</ele>
        <time>2020-05-30T18:17:57Z</time>
      </trkpt>
      <trkpt lat="46.48461" lon="-0.0527">
        <ele>167.9</ele>
        <time>2020-05-30T18:17:58Z</time>
      </trkpt>
      <trkpt lat="46.48464" lon="-0.05277">
        <ele>167.9</ele>
        <time>2020-05-30T18:17:59Z</time>
      </trkpt>
      <trkpt lat="46.48467" lon="-0.05284">
        <ele>167.8</ele>
        <time>2020-05-30T18:18:00Z</time>
      </trkpt>
      <trkpt lat="46.4847" lon="-0.05291">
        <ele>167.8</ele>
        <time>2020-05-30T18:18:01Z</time>
      </trkpt>
      <trkpt lat="46.48473" lon="-0.05299">
        <ele>167.8</ele>
        <time>2020-05-30T18:18:02Z</time>
      </trkpt>
      <trkpt lat="46.48476" lon="-0.05306">
        <ele>167.8</ele>
        <time>2020-05-30T18:18:03Z</time>
      </trkpt>
      <trkpt lat="46.48479" lon="-0.05314">
        <ele>167.8</ele>
        <time>2020-05-30T18:18:04Z</time>
      </trkpt>
      <trkpt lat="46.48482" lon="-0.05322">
        <ele>167.8</ele>
        <time>2020-05-30T18:18:05Z</time>
      </trkpt>
      <trkpt lat="46.48485" lon="-0.05329">
        <ele>167.8</ele>
        <time>2020-05-30T18:18:06Z</time>
      </trkpt>
      <trkpt lat="46.48488" lon="-0.05336">
        <ele>167.7</ele>
        <time>2020-05-30T18:18:07Z</time>
      </trkpt>
      <trkpt lat="46.48492" lon="-0.05343">
        <ele>167.7</ele>
        <time>2020-05-30T18:18:08Z</time>
      </trkpt>
      <trkpt lat="46.48495" lon="-0.0535">
        <ele>167.7</ele>
        <time>2020-05-30T18:18:09Z</time>
      </trkpt>
      <trkpt lat="46.48497" lon="-0.05357">
        <ele>167.6</ele>
        <time>2020-05-30T18:18:10Z</time>
      </trkpt>
      <trkpt lat="46.48499" lon="-0.05364">
        <ele>167.6</ele>
        <time>2020-05-30T18:18:11Z</time>
      </trkpt>
      <trkpt lat="46.48502" lon="-0.0537">
        <ele>167.5</ele>
        <time>2020-05-30T18:18:12Z</time>
      </trkpt>
      <trkpt lat="46.48506" lon="-0.05377">
        <ele>167.4</ele>
        <time>2020-05-30T18:18:13Z</time>
      </trkpt>
      <trkpt lat="46.48509" lon="-0.05382">
        <ele>167.3</ele>
        <time>2020-05-30T18:18:14Z</time>
      </trkpt>
      <trkpt lat="46.48512" lon="-0.05387">
        <ele>167.2</ele>
        <time>2020-05-30T18:18:15Z</time>
      </trkpt>
      <trkpt lat="46.48514" lon="-0.05394">
        <ele>167.1</ele>
        <time>2020-05-30T18:18:16Z</time>
      </trkpt>
      <trkpt lat="46.48517" lon="-0.054">
        <ele>167</ele>
        <time>2020-05-30T18:18:17Z</time>
      </trkpt>
      <trkpt lat="46.4852" lon="-0.05406">
        <ele>166.8</ele>
        <time>2020-05-30T18:18:18Z</time>
      </trkpt>
      <trkpt lat="46.48522" lon="-0.05413">
        <ele>166.7</ele>
        <time>2020-05-30T18:18:19Z</time>
      </trkpt>
      <trkpt lat="46.48525" lon="-0.05419">
        <ele>166.5</ele>
        <time>2020-05-30T18:18:20Z</time>
      </trkpt>
      <trkpt lat="46.48528" lon="-0.05427">
        <ele>166.2</ele>
        <time>2020-05-30T18:18:21Z</time>
      </trkpt>
      <trkpt lat="46.48531" lon="-0.05434">
        <ele>166</ele>
        <time>2020-05-30T18:18:22Z</time>
      </trkpt>
      <trkpt lat="46.48534" lon="-0.05443">
        <ele>165.6</ele>
        <time>2020-05-30T18:18:23Z</time>
      </trkpt>
      <trkpt lat="46.48539" lon="-0.05451">
        <ele>165.3</ele>
        <time>2020-05-30T18:18:24Z</time>
      </trkpt>
      <trkpt lat="46.48543" lon="-0.05458">
        <ele>164.9</ele>
        <time>2020-05-30T18:18:25Z</time>
      </trkpt>
      <trkpt lat="46.48547" lon="-0.05465">
        <ele>164.6</ele>
        <time>2020-05-30T18:18:26Z</time>
      </trkpt>
      <trkpt lat="46.48551" lon="-0.05473">
        <ele>164.3</ele>
        <time>2020-05-30T18:18:27Z</time>
      </trkpt>
      <trkpt lat="46.48557" lon="-0.0548">
        <ele>163.8</ele>
        <time>2020-05-30T18:18:28Z</time>
      </trkpt>
      <trkpt lat="46.48564" lon="-0.05489">
        <ele>163.3</ele>
        <time>2020-05-30T18:18:29Z</time>
      </trkpt>
      <trkpt lat="46.48571" lon="-0.05497">
        <ele>162.8</ele>
        <time>2020-05-30T18:18:30Z</time>
      </trkpt>
      <trkpt lat="46.48577" lon="-0.05504">
        <ele>162.4</ele>
        <time>2020-05-30T18:18:31Z</time>
      </trkpt>
      <trkpt lat="46.4858" lon="-0.05509">
        <ele>162</ele>
        <time>2020-05-30T18:18:32Z</time>
      </trkpt>
      <trkpt lat="46.48587" lon="-0.05517">
        <ele>161.4</ele>
        <time>2020-05-30T18:18:33Z</time>
      </trkpt>
      <trkpt lat="46.48594" lon="-0.05525">
        <ele>160.8</ele>
        <time>2020-05-30T18:18:34Z</time>
      </trkpt>
      <trkpt lat="46.48601" lon="-0.05534">
        <ele>160.1</ele>
        <time>2020-05-30T18:18:35Z</time>
      </trkpt>
      <trkpt lat="46.48609" lon="-0.05543">
        <ele>159.5</ele>
        <time>2020-05-30T18:18:36Z</time>
      </trkpt>
      <trkpt lat="46.48616" lon="-0.05552">
        <ele>159</ele>
        <time>2020-05-30T18:18:37Z</time>
      </trkpt>
      <trkpt lat="46.48624" lon="-0.05559">
        <ele>158.8</ele>
        <time>2020-05-30T18:18:38Z</time>
      </trkpt>
      <trkpt lat="46.48632" lon="-0.05568">
        <ele>158.3</ele>
        <time>2020-05-30T18:18:39Z</time>
      </trkpt>
      <trkpt lat="46.48641" lon="-0.05576">
        <ele>157.8</ele>
        <time>2020-05-30T18:18:40Z</time>
      </trkpt>
      <trkpt lat="46.48649" lon="-0.05584">
        <ele>157.2</ele>
        <time>2020-05-30T18:18:41Z</time>
      </trkpt>
      <trkpt lat="46.48657" lon="-0.05592">
        <ele>156.7</ele>
        <time>2020-05-30T18:18:42Z</time>
      </trkpt>
      <trkpt lat="46.48665" lon="-0.056">
        <ele>156.1</ele>
        <time>2020-05-30T18:18:43Z</time>
      </trkpt>
      <trkpt lat="46.48673" lon="-0.05609">
        <ele>155.5</ele>
        <time>2020-05-30T18:18:44Z</time>
      </trkpt>
      <trkpt lat="46.48681" lon="-0.05618">
        <ele>154.9</ele>
        <time>2020-05-30T18:18:45Z</time>
      </trkpt>
      <trkpt lat="46.48688" lon="-0.05628">
        <ele>154.4</ele>
        <time>2020-05-30T18:18:46Z</time>
      </trkpt>
      <trkpt lat="46.48695" lon="-0.05638">
        <ele>153.9</ele>
        <time>2020-05-30T18:18:47Z</time>
      </trkpt>
      <trkpt lat="46.48702" lon="-0.05648">
        <ele>153.4</ele>
        <time>2020-05-30T18:18:48Z</time>
      </trkpt>
      <trkpt lat="46.4871" lon="-0.05658">
        <ele>153</ele>
        <time>2020-05-30T18:18:49Z</time>
      </trkpt>
      <trkpt lat="46.48716" lon="-0.05669">
        <ele>152.5</ele>
        <time>2020-05-30T18:18:50Z</time>
      </trkpt>
      <trkpt lat="46.48723" lon="-0.0568">
        <ele>152.2</ele>
        <time>2020-05-30T18:18:51Z</time>
      </trkpt>
      <trkpt lat="46.48729" lon="-0.05691">
        <ele>151.8</ele>
        <time>2020-05-30T18:18:52Z</time>
      </trkpt>
      <trkpt lat="46.48735" lon="-0.05701">
        <ele>151.4</ele>
        <time>2020-05-30T18:18:53Z</time>
      </trkpt>
      <trkpt lat="46.48741" lon="-0.05712">
        <ele>151</ele>
        <time>2020-05-30T18:18:54Z</time>
      </trkpt>
      <trkpt lat="46.48747" lon="-0.05723">
        <ele>150.6</ele>
        <time>2020-05-30T18:18:55Z</time>
      </trkpt>
      <trkpt lat="46.48752" lon="-0.05734">
        <ele>150.2</ele>
        <time>2020-05-30T18:18:56Z</time>
      </trkpt>
      <trkpt lat="46.48758" lon="-0.05745">
        <ele>149.9</ele>
        <time>2020-05-30T18:18:57Z</time>
      </trkpt>
      <trkpt lat="46.48764" lon="-0.05755">
        <ele>149.6</ele>
        <time>2020-05-30T18:18:58Z</time>
      </trkpt>
      <trkpt lat="46.4877" lon="-0.05766">
        <ele>149.2</ele>
        <time>2020-05-30T18:18:59Z</time>
      </trkpt>
      <trkpt lat="46.48776" lon="-0.05776">
        <ele>148.8</ele>
        <time>2020-05-30T18:19:00Z</time>
      </trkpt>
      <trkpt lat="46.48782" lon="-0.05786">
        <ele>148.4</ele>
        <time>2020-05-30T18:19:01Z</time>
      </trkpt>
      <trkpt lat="46.48788" lon="-0.05796">
        <ele>148.1</ele>
        <time>2020-05-30T18:19:02Z</time>
      </trkpt>
      <trkpt lat="46.48794" lon="-0.05807">
        <ele>147.7</ele>
        <time>2020-05-30T18:19:03Z</time>
      </trkpt>
      <trkpt lat="46.488" lon="-0.05816">
        <ele>147.2</ele>
        <time>2020-05-30T18:19:04Z</time>
      </trkpt>
      <trkpt lat="46.48806" lon="-0.05826">
        <ele>146.8</ele>
        <time>2020-05-30T18:19:05Z</time>
      </trkpt>
      <trkpt lat="46.48813" lon="-0.05835">
        <ele>146.4</ele>
        <time>2020-05-30T18:19:06Z</time>
      </trkpt>
      <trkpt lat="46.4882" lon="-0.05845">
        <ele>146</ele>
        <time>2020-05-30T18:19:07Z</time>
      </trkpt>
      <trkpt lat="46.48826" lon="-0.05855">
        <ele>145.5</ele>
        <time>2020-05-30T18:19:08Z</time>
      </trkpt>
      <trkpt lat="46.48832" lon="-0.05864">
        <ele>145.1</ele>
        <time>2020-05-30T18:19:09Z</time>
      </trkpt>
      <trkpt lat="46.48839" lon="-0.05875">
        <ele>144.6</ele>
        <time>2020-05-30T18:19:10Z</time>
      </trkpt>
      <trkpt lat="46.48846" lon="-0.05885">
        <ele>144.2</ele>
        <time>2020-05-30T18:19:11Z</time>
      </trkpt>
      <trkpt lat="46.48852" lon="-0.05895">
        <ele>143.9</ele>
        <time>2020-05-30T18:19:12Z</time>
      </trkpt>
      <trkpt lat="46.48859" lon="-0.05905">
        <ele>143.6</ele>
        <time>2020-05-30T18:19:13Z</time>
      </trkpt>
      <trkpt lat="46.48866" lon="-0.05916">
        <ele>143.4</ele>
        <time>2020-05-30T18:19:14Z</time>
      </trkpt>
      <trkpt lat="46.48873" lon="-0.05926">
        <ele>143.2</ele>
        <time>2020-05-30T18:19:15Z</time>
      </trkpt>
      <trkpt lat="46.48881" lon="-0.05935">
        <ele>143.1</ele>
        <time>2020-05-30T18:19:16Z</time>
      </trkpt>
      <trkpt lat="46.48889" lon="-0.05942">
        <ele>142.9</ele>
        <time>2020-05-30T18:19:17Z</time>
      </trkpt>
      <trkpt lat="46.48898" lon="-0.05944">
        <ele>142.8</ele>
        <time>2020-05-30T18:19:18Z</time>
      </trkpt>
      <trkpt lat="46.48908" lon="-0.05945">
        <ele>142.6</ele>
        <time>2020-05-30T18:19:19Z</time>
      </trkpt>
      <trkpt lat="46.48917" lon="-0.05944">
        <ele>142.2</ele>
        <time>2020-05-30T18:19:20Z</time>
      </trkpt>
      <trkpt lat="46.48925" lon="-0.05941">
        <ele>141.7</ele>
        <time>2020-05-30T18:19:21Z</time>
      </trkpt>
      <trkpt lat="46.48934" lon="-0.05938">
        <ele>141.2</ele>
        <time>2020-05-30T18:19:22Z</time>
      </trkpt>
      <trkpt lat="46.48942" lon="-0.05934">
        <ele>140.7</ele>
        <time>2020-05-30T18:19:23Z</time>
      </trkpt>
      <trkpt lat="46.48949" lon="-0.0593">
        <ele>140.1</ele>
        <time>2020-05-30T18:19:24Z</time>
      </trkpt>
      <trkpt lat="46.48957" lon="-0.05927">
        <ele>139.6</ele>
        <time>2020-05-30T18:19:25Z</time>
      </trkpt>
      <trkpt lat="46.48964" lon="-0.05923">
        <ele>139</ele>
        <time>2020-05-30T18:19:26Z</time>
      </trkpt>
      <trkpt lat="46.48972" lon="-0.05921">
        <ele>138.5</ele>
        <time>2020-05-30T18:19:27Z</time>
      </trkpt>
      <trkpt lat="46.48979" lon="-0.05917">
        <ele>137.9</ele>
        <time>2020-05-30T18:19:28Z</time>
      </trkpt>
      <trkpt lat="46.48986" lon="-0.05914">
        <ele>137.3</ele>
        <time>2020-05-30T18:19:29Z</time>
      </trkpt>
      <trkpt lat="46.48993" lon="-0.05911">
        <ele>136.7</ele>
        <time>2020-05-30T18:19:30Z</time>
      </trkpt>
      <trkpt lat="46.48999" lon="-0.05908">
        <ele>136.1</ele>
        <time>2020-05-30T18:19:31Z</time>
      </trkpt>
      <trkpt lat="46.49005" lon="-0.05904">
        <ele>135.6</ele>
        <time>2020-05-30T18:19:32Z</time>
      </trkpt>
      <trkpt lat="46.49011" lon="-0.05901">
        <ele>135.4</ele>
        <time>2020-05-30T18:19:33Z</time>
      </trkpt>
      <trkpt lat="46.49017" lon="-0.05899">
        <ele>135.6</ele>
        <time>2020-05-30T18:19:34Z</time>
      </trkpt>
      <trkpt lat="46.49023" lon="-0.059">
        <ele>135.8</ele>
        <time>2020-05-30T18:19:35Z</time>
      </trkpt>
      <trkpt lat="46.49028" lon="-0.05903">
        <ele>136.1</ele>
        <time>2020-05-30T18:19:36Z</time>
      </trkpt>
      <trkpt lat="46.49033" lon="-0.05906">
        <ele>136.4</ele>
        <time>2020-05-30T18:19:37Z</time>
      </trkpt>
      <trkpt lat="46.49037" lon="-0.0591">
        <ele>136.7</ele>
        <time>2020-05-30T18:19:38Z</time>
      </trkpt>
      <trkpt lat="46.4904" lon="-0.05914">
        <ele>136.9</ele>
        <time>2020-05-30T18:19:39Z</time>
      </trkpt>
      <trkpt lat="46.49044" lon="-0.05919">
        <ele>137.2</ele>
        <time>2020-05-30T18:19:40Z</time>
      </trkpt>
      <trkpt lat="46.49047" lon="-0.05923">
        <ele>137.4</ele>
        <time>2020-05-30T18:19:41Z</time>
      </trkpt>
      <trkpt lat="46.49048" lon="-0.05929">
        <ele>137.7</ele>
        <time>2020-05-30T18:19:42Z</time>
      </trkpt>
      <trkpt lat="46.49051" lon="-0.05933">
        <ele>138</ele>
        <time>2020-05-30T18:19:43Z</time>
      </trkpt>
      <trkpt lat="46.49052" lon="-0.05939">
        <ele>138.2</ele>
        <time>2020-05-30T18:19:44Z</time>
      </trkpt>
      <trkpt lat="46.49053" lon="-0.05943">
        <ele>138.4</ele>
        <time>2020-05-30T18:19:45Z</time>
      </trkpt>
      <trkpt lat="46.49055" lon="-0.05948">
        <ele>138.7</ele>
        <time>2020-05-30T18:19:46Z</time>
      </trkpt>
      <trkpt lat="46.49056" lon="-0.05952">
        <ele>138.9</ele>
        <time>2020-05-30T18:19:47Z</time>
      </trkpt>
      <trkpt lat="46.49056" lon="-0.05956">
        <ele>139.1</ele>
        <time>2020-05-30T18:19:48Z</time>
      </trkpt>
      <trkpt lat="46.49057" lon="-0.05961">
        <ele>139.3</ele>
        <time>2020-05-30T18:19:49Z</time>
      </trkpt>
      <trkpt lat="46.49057" lon="-0.05965">
        <ele>139.5</ele>
        <time>2020-05-30T18:19:50Z</time>
      </trkpt>
      <trkpt lat="46.49057" lon="-0.05969">
        <ele>139.7</ele>
        <time>2020-05-30T18:19:51Z</time>
      </trkpt>
      <trkpt lat="46.49056" lon="-0.05973">
        <ele>139.9</ele>
        <time>2020-05-30T18:19:52Z</time>
      </trkpt>
      <trkpt lat="46.49056" lon="-0.05979">
        <ele>140.2</ele>
        <time>2020-05-30T18:19:53Z</time>
      </trkpt>
      <trkpt lat="46.49055" lon="-0.05981">
        <ele>140.3</ele>
        <time>2020-05-30T18:19:54Z</time>
      </trkpt>
      <trkpt lat="46.49055" lon="-0.05986">
        <ele>140.5</ele>
        <time>2020-05-30T18:19:55Z</time>
      </trkpt>
      <trkpt lat="46.49055" lon="-0.05989">
        <ele>140.7</ele>
        <time>2020-05-30T18:19:56Z</time>
      </trkpt>
      <trkpt lat="46.49055" lon="-0.05995">
        <ele>141</ele>
        <time>2020-05-30T18:19:57Z</time>
      </trkpt>
      <trkpt lat="46.49055" lon="-0.05997">
        <ele>141.1</ele>
        <time>2020-05-30T18:19:58Z</time>
      </trkpt>
      <trkpt lat="46.49055" lon="-0.06002">
        <ele>141.4</ele>
        <time>2020-05-30T18:19:59Z</time>
      </trkpt>
      <trkpt lat="46.49054" lon="-0.06004">
        <ele>141.5</ele>
        <time>2020-05-30T18:20:00Z</time>
      </trkpt>
      <trkpt lat="46.49053" lon="-0.06009">
        <ele>141.7</ele>
        <time>2020-05-30T18:20:01Z</time>
      </trkpt>
      <trkpt lat="46.49053" lon="-0.06011">
        <ele>141.8</ele>
        <time>2020-05-30T18:20:02Z</time>
      </trkpt>
      <trkpt lat="46.49051" lon="-0.06015">
        <ele>142</ele>
        <time>2020-05-30T18:20:03Z</time>
      </trkpt>
      <trkpt lat="46.4905" lon="-0.06019">
        <ele>142.2</ele>
        <time>2020-05-30T18:20:04Z</time>
      </trkpt>
      <trkpt lat="46.4905" lon="-0.06023">
        <ele>142.4</ele>
        <time>2020-05-30T18:20:05Z</time>
      </trkpt>
      <trkpt lat="46.49048" lon="-0.06027">
        <ele>142.6</ele>
        <time>2020-05-30T18:20:06Z</time>
      </trkpt>
      <trkpt lat="46.49046" lon="-0.06031">
        <ele>142.9</ele>
        <time>2020-05-30T18:20:07Z</time>
      </trkpt>
      <trkpt lat="46.49043" lon="-0.06035">
        <ele>143.1</ele>
        <time>2020-05-30T18:20:08Z</time>
      </trkpt>
      <trkpt lat="46.49041" lon="-0.0604">
        <ele>143.4</ele>
        <time>2020-05-30T18:20:09Z</time>
      </trkpt>
      <trkpt lat="46.49039" lon="-0.06044">
        <ele>143.6</ele>
        <time>2020-05-30T18:20:10Z</time>
      </trkpt>
      <trkpt lat="46.49036" lon="-0.06048">
        <ele>143.9</ele>
        <time>2020-05-30T18:20:11Z</time>
      </trkpt>
      <trkpt lat="46.49033" lon="-0.06053">
        <ele>144.2</ele>
        <time>2020-05-30T18:20:12Z</time>
      </trkpt>
      <trkpt lat="46.4903" lon="-0.06058">
        <ele>144.4</ele>
        <time>2020-05-30T18:20:13Z</time>
      </trkpt>
      <trkpt lat="46.49026" lon="-0.06063">
        <ele>144.8</ele>
        <time>2020-05-30T18:20:14Z</time>
      </trkpt>
      <trkpt lat="46.49021" lon="-0.06069">
        <ele>145.1</ele>
        <time>2020-05-30T18:20:15Z</time>
      </trkpt>
      <trkpt lat="46.49019" lon="-0.06074">
        <ele>145.3</ele>
        <time>2020-05-30T18:20:16Z</time>
      </trkpt>
      <trkpt lat="46.49015" lon="-0.06081">
        <ele>145.6</ele>
        <time>2020-05-30T18:20:17Z</time>
      </trkpt>
      <trkpt lat="46.49011" lon="-0.0609">
        <ele>146</ele>
        <time>2020-05-30T18:20:18Z</time>
      </trkpt>
      <trkpt lat="46.49007" lon="-0.06095">
        <ele>146</ele>
        <time>2020-05-30T18:20:19Z</time>
      </trkpt>
      <trkpt lat="46.49002" lon="-0.06102">
        <ele>146.2</ele>
        <time>2020-05-30T18:20:20Z</time>
      </trkpt>
      <trkpt lat="46.48998" lon="-0.06108">
        <ele>146.3</ele>
        <time>2020-05-30T18:20:21Z</time>
      </trkpt>
      <trkpt lat="46.48993" lon="-0.06113">
        <ele>146.6</ele>
        <time>2020-05-30T18:20:22Z</time>
      </trkpt>
      <trkpt lat="46.48989" lon="-0.06118">
        <ele>146.9</ele>
        <time>2020-05-30T18:20:23Z</time>
      </trkpt>
      <trkpt lat="46.48985" lon="-0.06124">
        <ele>147.2</ele>
        <time>2020-05-30T18:20:24Z</time>
      </trkpt>
      <trkpt lat="46.48981" lon="-0.06129">
        <ele>147.5</ele>
        <time>2020-05-30T18:20:25Z</time>
      </trkpt>
      <trkpt lat="46.48977" lon="-0.06133">
        <ele>147.8</ele>
        <time>2020-05-30T18:20:26Z</time>
      </trkpt>
      <trkpt lat="46.48974" lon="-0.06137">
        <ele>148.1</ele>
        <time>2020-05-30T18:20:27Z</time>
      </trkpt>
      <trkpt lat="46.48971" lon="-0.06141">
        <ele>148.4</ele>
        <time>2020-05-30T18:20:28Z</time>
      </trkpt>
      <trkpt lat="46.48968" lon="-0.06144">
        <ele>148.6</ele>
        <time>2020-05-30T18:20:29Z</time>
      </trkpt>
      <trkpt lat="46.48966" lon="-0.06146">
        <ele>148.8</ele>
        <time>2020-05-30T18:20:30Z</time>
      </trkpt>
      <trkpt lat="46.48963" lon="-0.0615">
        <ele>149</ele>
        <time>2020-05-30T18:20:31Z</time>
      </trkpt>
      <trkpt lat="46.4896" lon="-0.06154">
        <ele>149.3</ele>
        <time>2020-05-30T18:20:32Z</time>
      </trkpt>
      <trkpt lat="46.48959" lon="-0.06156">
        <ele>149.4</ele>
        <time>2020-05-30T18:20:33Z</time>
      </trkpt>
      <trkpt lat="46.48957" lon="-0.06159">
        <ele>149.5</ele>
        <time>2020-05-30T18:20:34Z</time>
      </trkpt>
      <trkpt lat="46.48956" lon="-0.0616">
        <ele>149.6</ele>
        <time>2020-05-30T18:20:35Z</time>
      </trkpt>
      <trkpt lat="46.48954" lon="-0.06161">
        <ele>149.7</ele>
        <time>2020-05-30T18:20:36Z</time>
      </trkpt>
      <trkpt lat="46.48952" lon="-0.06164">
        <ele>149.9</ele>
        <time>2020-05-30T18:20:37Z</time>
      </trkpt>
      <trkpt lat="46.4895" lon="-0.06168">
        <ele>150.1</ele>
        <time>2020-05-30T18:20:38Z</time>
      </trkpt>
      <trkpt lat="46.48947" lon="-0.06171">
        <ele>150.3</ele>
        <time>2020-05-30T18:20:39Z</time>
      </trkpt>
      <trkpt lat="46.48946" lon="-0.06175">
        <ele>150.5</ele>
        <time>2020-05-30T18:20:40Z</time>
      </trkpt>
      <trkpt lat="46.48946" lon="-0.06177">
        <ele>150.5</ele>
        <time>2020-05-30T18:20:41Z</time>
      </trkpt>
      <trkpt lat="46.48944" lon="-0.0618">
        <ele>150.7</ele>
        <time>2020-05-30T18:20:42Z</time>
      </trkpt>
      <trkpt lat="46.48943" lon="-0.06181">
        <ele>150.8</ele>
        <time>2020-05-30T18:20:43Z</time>
      </trkpt>
      <trkpt lat="46.4894" lon="-0.06185">
        <ele>151</ele>
        <time>2020-05-30T18:20:44Z</time>
      </trkpt>
      <trkpt lat="46.48938" lon="-0.06187">
        <ele>151.1</ele>
        <time>2020-05-30T18:20:45Z</time>
      </trkpt>
      <trkpt lat="46.48936" lon="-0.06192">
        <ele>151.3</ele>
        <time>2020-05-30T18:20:46Z</time>
      </trkpt>
      <trkpt lat="46.48933" lon="-0.06196">
        <ele>151.5</ele>
        <time>2020-05-30T18:20:47Z</time>
      </trkpt>
      <trkpt lat="46.48931" lon="-0.06197">
        <ele>151.6</ele>
        <time>2020-05-30T18:20:48Z</time>
      </trkpt>
      <trkpt lat="46.48929" lon="-0.062">
        <ele>151.7</ele>
        <time>2020-05-30T18:20:49Z</time>
      </trkpt>
      <trkpt lat="46.48926" lon="-0.06204">
        <ele>151.9</ele>
        <time>2020-05-30T18:20:50Z</time>
      </trkpt>
      <trkpt lat="46.48923" lon="-0.06207">
        <ele>152</ele>
        <time>2020-05-30T18:20:51Z</time>
      </trkpt>
      <trkpt lat="46.48921" lon="-0.06212">
        <ele>152.2</ele>
        <time>2020-05-30T18:20:52Z</time>
      </trkpt>
      <trkpt lat="46.48919" lon="-0.06218">
        <ele>152.4</ele>
        <time>2020-05-30T18:20:53Z</time>
      </trkpt>
      <trkpt lat="46.48918" lon="-0.06221">
        <ele>152.5</ele>
        <time>2020-05-30T18:20:54Z</time>
      </trkpt>
      <trkpt lat="46.48916" lon="-0.06224">
        <ele>152.6</ele>
        <time>2020-05-30T18:20:55Z</time>
      </trkpt>
      <trkpt lat="46.48913" lon="-0.06228">
        <ele>152.8</ele>
        <time>2020-05-30T18:20:56Z</time>
      </trkpt>
      <trkpt lat="46.4891" lon="-0.06231">
        <ele>152.9</ele>
        <time>2020-05-30T18:20:57Z</time>
      </trkpt>
      <trkpt lat="46.48907" lon="-0.06235">
        <ele>153.1</ele>
        <time>2020-05-30T18:20:58Z</time>
      </trkpt>
      <trkpt lat="46.48905" lon="-0.06239">
        <ele>153.2</ele>
        <time>2020-05-30T18:20:59Z</time>
      </trkpt>
      <trkpt lat="46.48904" lon="-0.06241">
        <ele>153.3</ele>
        <time>2020-05-30T18:21:00Z</time>
      </trkpt>
      <trkpt lat="46.48901" lon="-0.06247">
        <ele>153.5</ele>
        <time>2020-05-30T18:21:01Z</time>
      </trkpt>
      <trkpt lat="46.48898" lon="-0.06251">
        <ele>153.7</ele>
        <time>2020-05-30T18:21:02Z</time>
      </trkpt>
      <trkpt lat="46.48896" lon="-0.06255">
        <ele>153.8</ele>
        <time>2020-05-30T18:21:03Z</time>
      </trkpt>
      <trkpt lat="46.48893" lon="-0.06258">
        <ele>153.9</ele>
        <time>2020-05-30T18:21:04Z</time>
      </trkpt>
      <trkpt lat="46.48891" lon="-0.06262">
        <ele>154</ele>
        <time>2020-05-30T18:21:05Z</time>
      </trkpt>
      <trkpt lat="46.48888" lon="-0.06266">
        <ele>154.2</ele>
        <time>2020-05-30T18:21:06Z</time>
      </trkpt>
      <trkpt lat="46.48886" lon="-0.06269">
        <ele>154.3</ele>
        <time>2020-05-30T18:21:07Z</time>
      </trkpt>
      <trkpt lat="46.48882" lon="-0.06273">
        <ele>154.5</ele>
        <time>2020-05-30T18:21:08Z</time>
      </trkpt>
      <trkpt lat="46.4888" lon="-0.06276">
        <ele>154.6</ele>
        <time>2020-05-30T18:21:09Z</time>
      </trkpt>
      <trkpt lat="46.48877" lon="-0.06279">
        <ele>154.7</ele>
        <time>2020-05-30T18:21:10Z</time>
      </trkpt>
      <trkpt lat="46.48876" lon="-0.06281">
        <ele>154.8</ele>
        <time>2020-05-30T18:21:11Z</time>
      </trkpt>
      <trkpt lat="46.48874" lon="-0.06285">
        <ele>154.9</ele>
        <time>2020-05-30T18:21:12Z</time>
      </trkpt>
      <trkpt lat="46.4887" lon="-0.06289">
        <ele>155.1</ele>
        <time>2020-05-30T18:21:13Z</time>
      </trkpt>
      <trkpt lat="46.48868" lon="-0.06291">
        <ele>155.2</ele>
        <time>2020-05-30T18:21:14Z</time>
      </trkpt>
      <trkpt lat="46.48864" lon="-0.06296">
        <ele>155.4</ele>
        <time>2020-05-30T18:21:15Z</time>
      </trkpt>
      <trkpt lat="46.48861" lon="-0.06298">
        <ele>155.5</ele>
        <time>2020-05-30T18:21:16Z</time>
      </trkpt>
      <trkpt lat="46.48857" lon="-0.06301">
        <ele>155.6</ele>
        <time>2020-05-30T18:21:17Z</time>
      </trkpt>
      <trkpt lat="46.48855" lon="-0.06304">
        <ele>155.7</ele>
        <time>2020-05-30T18:21:18Z</time>
      </trkpt>
      <trkpt lat="46.48852" lon="-0.06306">
        <ele>155.8</ele>
        <time>2020-05-30T18:21:19Z</time>
      </trkpt>
      <trkpt lat="46.48849" lon="-0.06309">
        <ele>155.9</ele>
        <time>2020-05-30T18:21:20Z</time>
      </trkpt>
      <trkpt lat="46.48845" lon="-0.06312">
        <ele>156.1</ele>
        <time>2020-05-30T18:21:21Z</time>
      </trkpt>
      <trkpt lat="46.48842" lon="-0.06314">
        <ele>156.2</ele>
        <time>2020-05-30T18:21:22Z</time>
      </trkpt>
      <trkpt lat="46.48838" lon="-0.06316">
        <ele>156.3</ele>
        <time>2020-05-30T18:21:23Z</time>
      </trkpt>
      <trkpt lat="46.48835" lon="-0.06318">
        <ele>156.4</ele>
        <time>2020-05-30T18:21:24Z</time>
      </trkpt>
      <trkpt lat="46.48832" lon="-0.0632">
        <ele>156.6</ele>
        <time>2020-05-30T18:21:25Z</time>
      </trkpt>
      <trkpt lat="46.48828" lon="-0.06322">
        <ele>156.7</ele>
        <time>2020-05-30T18:21:26Z</time>
      </trkpt>
      <trkpt lat="46.48824" lon="-0.06324">
        <ele>156.8</ele>
        <time>2020-05-30T18:21:27Z</time>
      </trkpt>
      <trkpt lat="46.48821" lon="-0.06325">
        <ele>156.9</ele>
        <time>2020-05-30T18:21:28Z</time>
      </trkpt>
      <trkpt lat="46.48818" lon="-0.06327">
        <ele>157</ele>
        <time>2020-05-30T18:21:29Z</time>
      </trkpt>
      <trkpt lat="46.48815" lon="-0.06328">
        <ele>157.1</ele>
        <time>2020-05-30T18:21:30Z</time>
      </trkpt>
      <trkpt lat="46.48812" lon="-0.06331">
        <ele>157.2</ele>
        <time>2020-05-30T18:21:31Z</time>
      </trkpt>
      <trkpt lat="46.48808" lon="-0.06333">
        <ele>157.3</ele>
        <time>2020-05-30T18:21:32Z</time>
      </trkpt>
      <trkpt lat="46.48804" lon="-0.06335">
        <ele>157.4</ele>
        <time>2020-05-30T18:21:33Z</time>
      </trkpt>
      <trkpt lat="46.488" lon="-0.06337">
        <ele>157.5</ele>
        <time>2020-05-30T18:21:34Z</time>
      </trkpt>
      <trkpt lat="46.48796" lon="-0.06339">
        <ele>157.6</ele>
        <time>2020-05-30T18:21:35Z</time>
      </trkpt>
      <trkpt lat="46.48792" lon="-0.06342">
        <ele>157.8</ele>
        <time>2020-05-30T18:21:36Z</time>
      </trkpt>
      <trkpt lat="46.48788" lon="-0.06343">
        <ele>157.9</ele>
        <time>2020-05-30T18:21:37Z</time>
      </trkpt>
      <trkpt lat="46.48784" lon="-0.06345">
        <ele>158</ele>
        <time>2020-05-30T18:21:38Z</time>
      </trkpt>
      <trkpt lat="46.48783" lon="-0.06345">
        <ele>158</ele>
        <time>2020-05-30T18:21:39Z</time>
      </trkpt>
      <trkpt lat="46.48779" lon="-0.06348">
        <ele>158.2</ele>
        <time>2020-05-30T18:21:40Z</time>
      </trkpt>
      <trkpt lat="46.48775" lon="-0.06352">
        <ele>158.3</ele>
        <time>2020-05-30T18:21:41Z</time>
      </trkpt>
      <trkpt lat="46.48773" lon="-0.06353">
        <ele>158.4</ele>
        <time>2020-05-30T18:21:42Z</time>
      </trkpt>
      <trkpt lat="46.48772" lon="-0.06353">
        <ele>158.4</ele>
        <time>2020-05-30T18:21:43Z</time>
      </trkpt>
      <trkpt lat="46.48769" lon="-0.06354">
        <ele>158.5</ele>
        <time>2020-05-30T18:21:44Z</time>
      </trkpt>
      <trkpt lat="46.48766" lon="-0.06357">
        <ele>158.6</ele>
        <time>2020-05-30T18:21:45Z</time>
      </trkpt>
      <trkpt lat="46.48762" lon="-0.0636">
        <ele>158.7</ele>
        <time>2020-05-30T18:21:46Z</time>
      </trkpt>
      <trkpt lat="46.48759" lon="-0.06362">
        <ele>158.8</ele>
        <time>2020-05-30T18:21:47Z</time>
      </trkpt>
      <trkpt lat="46.48756" lon="-0.06364">
        <ele>159</ele>
        <time>2020-05-30T18:21:48Z</time>
      </trkpt>
      <trkpt lat="46.48754" lon="-0.06365">
        <ele>159</ele>
        <time>2020-05-30T18:21:49Z</time>
      </trkpt>
      <trkpt lat="46.48751" lon="-0.06367">
        <ele>159.1</ele>
        <time>2020-05-30T18:21:50Z</time>
      </trkpt>
      <trkpt lat="46.48747" lon="-0.0637">
        <ele>159.2</ele>
        <time>2020-05-30T18:21:51Z</time>
      </trkpt>
      <trkpt lat="46.48743" lon="-0.06372">
        <ele>159.3</ele>
        <time>2020-05-30T18:21:52Z</time>
      </trkpt>
      <trkpt lat="46.48738" lon="-0.06375">
        <ele>159.4</ele>
        <time>2020-05-30T18:21:53Z</time>
      </trkpt>
      <trkpt lat="46.48734" lon="-0.06378">
        <ele>159.5</ele>
        <time>2020-05-30T18:21:54Z</time>
      </trkpt>
      <trkpt lat="46.4873" lon="-0.06379">
        <ele>159.6</ele>
        <time>2020-05-30T18:21:55Z</time>
      </trkpt>
      <trkpt lat="46.48728" lon="-0.06382">
        <ele>159.6</ele>
        <time>2020-05-30T18:21:56Z</time>
      </trkpt>
      <trkpt lat="46.48725" lon="-0.06384">
        <ele>159.7</ele>
        <time>2020-05-30T18:21:57Z</time>
      </trkpt>
      <trkpt lat="46.48721" lon="-0.06386">
        <ele>159.8</ele>
        <time>2020-05-30T18:21:58Z</time>
      </trkpt>
      <trkpt lat="46.48718" lon="-0.06388">
        <ele>159.8</ele>
        <time>2020-05-30T18:21:59Z</time>
      </trkpt>
      <trkpt lat="46.48713" lon="-0.0639">
        <ele>159.9</ele>
        <time>2020-05-30T18:22:00Z</time>
      </trkpt>
      <trkpt lat="46.4871" lon="-0.06392">
        <ele>159.9</ele>
        <time>2020-05-30T18:22:01Z</time>
      </trkpt>
      <trkpt lat="46.48707" lon="-0.06394">
        <ele>160</ele>
        <time>2020-05-30T18:22:02Z</time>
      </trkpt>
      <trkpt lat="46.48703" lon="-0.06397">
        <ele>160.1</ele>
        <time>2020-05-30T18:22:03Z</time>
      </trkpt>
      <trkpt lat="46.48697" lon="-0.06399">
        <ele>160.1</ele>
        <time>2020-05-30T18:22:04Z</time>
      </trkpt>
      <trkpt lat="46.48693" lon="-0.06401">
        <ele>160.2</ele>
        <time>2020-05-30T18:22:05Z</time>
      </trkpt>
      <trkpt lat="46.48688" lon="-0.06403">
        <ele>160.3</ele>
        <time>2020-05-30T18:22:06Z</time>
      </trkpt>
      <trkpt lat="46.48685" lon="-0.06407">
        <ele>160.3</ele>
        <time>2020-05-30T18:22:07Z</time>
      </trkpt>
      <trkpt lat="46.48681" lon="-0.06409">
        <ele>160.4</ele>
        <time>2020-05-30T18:22:08Z</time>
      </trkpt>
      <trkpt lat="46.48678" lon="-0.0641">
        <ele>160.5</ele>
        <time>2020-05-30T18:22:09Z</time>
      </trkpt>
      <trkpt lat="46.48672" lon="-0.06415">
        <ele>160.6</ele>
        <time>2020-05-30T18:22:10Z</time>
      </trkpt>
      <trkpt lat="46.48668" lon="-0.06417">
        <ele>160.7</ele>
        <time>2020-05-30T18:22:11Z</time>
      </trkpt>
      <trkpt lat="46.48663" lon="-0.0642">
        <ele>160.7</ele>
        <time>2020-05-30T18:22:12Z</time>
      </trkpt>
      <trkpt lat="46.48659" lon="-0.06422">
        <ele>160.8</ele>
        <time>2020-05-30T18:22:13Z</time>
      </trkpt>
      <trkpt lat="46.48654" lon="-0.06425">
        <ele>160.9</ele>
        <time>2020-05-30T18:22:14Z</time>
      </trkpt>
      <trkpt lat="46.4865" lon="-0.06428">
        <ele>161</ele>
        <time>2020-05-30T18:22:15Z</time>
      </trkpt>
      <trkpt lat="46.48647" lon="-0.06431">
        <ele>161.1</ele>
        <time>2020-05-30T18:22:16Z</time>
      </trkpt>
      <trkpt lat="46.48643" lon="-0.06435">
        <ele>161.2</ele>
        <time>2020-05-30T18:22:17Z</time>
      </trkpt>
      <trkpt lat="46.48639" lon="-0.06439">
        <ele>161.3</ele>
        <time>2020-05-30T18:22:18Z</time>
      </trkpt>
      <trkpt lat="46.48635" lon="-0.06443">
        <ele>161.4</ele>
        <time>2020-05-30T18:22:19Z</time>
      </trkpt>
      <trkpt lat="46.48632" lon="-0.06447">
        <ele>161.4</ele>
        <time>2020-05-30T18:22:20Z</time>
      </trkpt>
      <trkpt lat="46.48628" lon="-0.06451">
        <ele>161.5</ele>
        <time>2020-05-30T18:22:21Z</time>
      </trkpt>
      <trkpt lat="46.48625" lon="-0.06455">
        <ele>161.6</ele>
        <time>2020-05-30T18:22:22Z</time>
      </trkpt>
      <trkpt lat="46.48622" lon="-0.06459">
        <ele>161.7</ele>
        <time>2020-05-30T18:22:23Z</time>
      </trkpt>
      <trkpt lat="46.48619" lon="-0.06462">
        <ele>161.7</ele>
        <time>2020-05-30T18:22:24Z</time>
      </trkpt>
      <trkpt lat="46.48616" lon="-0.06467">
        <ele>161.8</ele>
        <time>2020-05-30T18:22:25Z</time>
      </trkpt>
      <trkpt lat="46.48612" lon="-0.06471">
        <ele>161.9</ele>
        <time>2020-05-30T18:22:26Z</time>
      </trkpt>
      <trkpt lat="46.48608" lon="-0.06476">
        <ele>162</ele>
        <time>2020-05-30T18:22:27Z</time>
      </trkpt>
      <trkpt lat="46.48604" lon="-0.06481">
        <ele>162.1</ele>
        <time>2020-05-30T18:22:28Z</time>
      </trkpt>
      <trkpt lat="46.486" lon="-0.06486">
        <ele>162.3</ele>
        <time>2020-05-30T18:22:29Z</time>
      </trkpt>
      <trkpt lat="46.48596" lon="-0.06492">
        <ele>162.5</ele>
        <time>2020-05-30T18:22:30Z</time>
      </trkpt>
      <trkpt lat="46.48594" lon="-0.06498">
        <ele>162.7</ele>
        <time>2020-05-30T18:22:31Z</time>
      </trkpt>
      <trkpt lat="46.4859" lon="-0.06503">
        <ele>162.9</ele>
        <time>2020-05-30T18:22:32Z</time>
      </trkpt>
      <trkpt lat="46.48588" lon="-0.06509">
        <ele>163.1</ele>
        <time>2020-05-30T18:22:33Z</time>
      </trkpt>
      <trkpt lat="46.48586" lon="-0.06514">
        <ele>163.3</ele>
        <time>2020-05-30T18:22:34Z</time>
      </trkpt>
      <trkpt lat="46.48584" lon="-0.06519">
        <ele>163.4</ele>
        <time>2020-05-30T18:22:35Z</time>
      </trkpt>
      <trkpt lat="46.48582" lon="-0.06524">
        <ele>163.6</ele>
        <time>2020-05-30T18:22:36Z</time>
      </trkpt>
      <trkpt lat="46.4858" lon="-0.06528">
        <ele>163.7</ele>
        <time>2020-05-30T18:22:37Z</time>
      </trkpt>
      <trkpt lat="46.48578" lon="-0.06532">
        <ele>163.9</ele>
        <time>2020-05-30T18:22:38Z</time>
      </trkpt>
      <trkpt lat="46.48576" lon="-0.06539">
        <ele>164.1</ele>
        <time>2020-05-30T18:22:39Z</time>
      </trkpt>
      <trkpt lat="46.48573" lon="-0.06542">
        <ele>164.2</ele>
        <time>2020-05-30T18:22:40Z</time>
      </trkpt>
      <trkpt lat="46.48572" lon="-0.06546">
        <ele>164.4</ele>
        <time>2020-05-30T18:22:41Z</time>
      </trkpt>
      <trkpt lat="46.4857" lon="-0.06551">
        <ele>164.5</ele>
        <time>2020-05-30T18:22:42Z</time>
      </trkpt>
      <trkpt lat="46.48569" lon="-0.06555">
        <ele>164.7</ele>
        <time>2020-05-30T18:22:43Z</time>
      </trkpt>
      <trkpt lat="46.48568" lon="-0.06559">
        <ele>164.8</ele>
        <time>2020-05-30T18:22:44Z</time>
      </trkpt>
      <trkpt lat="46.48566" lon="-0.06563">
        <ele>164.9</ele>
        <time>2020-05-30T18:22:45Z</time>
      </trkpt>
      <trkpt lat="46.48565" lon="-0.06567">
        <ele>165.1</ele>
        <time>2020-05-30T18:22:46Z</time>
      </trkpt>
      <trkpt lat="46.48565" lon="-0.06569">
        <ele>165.1</ele>
        <time>2020-05-30T18:22:47Z</time>
      </trkpt>
      <trkpt lat="46.48563" lon="-0.06573">
        <ele>165.3</ele>
        <time>2020-05-30T18:22:48Z</time>
      </trkpt>
      <trkpt lat="46.48561" lon="-0.06577">
        <ele>165.4</ele>
        <time>2020-05-30T18:22:49Z</time>
      </trkpt>
      <trkpt lat="46.48559" lon="-0.0658">
        <ele>165.5</ele>
        <time>2020-05-30T18:22:50Z</time>
      </trkpt>
      <trkpt lat="46.48558" lon="-0.06585">
        <ele>165.7</ele>
        <time>2020-05-30T18:22:51Z</time>
      </trkpt>
      <trkpt lat="46.48557" lon="-0.0659">
        <ele>165.8</ele>
        <time>2020-05-30T18:22:52Z</time>
      </trkpt>
      <trkpt lat="46.48556" lon="-0.06594">
        <ele>165.9</ele>
        <time>2020-05-30T18:22:53Z</time>
      </trkpt>
      <trkpt lat="46.48554" lon="-0.06599">
        <ele>166.1</ele>
        <time>2020-05-30T18:22:54Z</time>
      </trkpt>
      <trkpt lat="46.48554" lon="-0.06601">
        <ele>166.1</ele>
        <time>2020-05-30T18:22:55Z</time>
      </trkpt>
      <trkpt lat="46.48553" lon="-0.06606">
        <ele>166.2</ele>
        <time>2020-05-30T18:22:56Z</time>
      </trkpt>
      <trkpt lat="46.48552" lon="-0.06611">
        <ele>166.4</ele>
        <time>2020-05-30T18:22:57Z</time>
      </trkpt>
      <trkpt lat="46.48551" lon="-0.06616">
        <ele>166.5</ele>
        <time>2020-05-30T18:22:58Z</time>
      </trkpt>
      <trkpt lat="46.4855" lon="-0.0662">
        <ele>166.6</ele>
        <time>2020-05-30T18:22:59Z</time>
      </trkpt>
      <trkpt lat="46.48549" lon="-0.06625">
        <ele>166.8</ele>
        <time>2020-05-30T18:23:00Z</time>
      </trkpt>
      <trkpt lat="46.48549" lon="-0.06629">
        <ele>166.9</ele>
        <time>2020-05-30T18:23:01Z</time>
      </trkpt>
      <trkpt lat="46.48547" lon="-0.06633">
        <ele>167</ele>
        <time>2020-05-30T18:23:02Z</time>
      </trkpt>
      <trkpt lat="46.48547" lon="-0.06635">
        <ele>167</ele>
        <time>2020-05-30T18:23:03Z</time>
      </trkpt>
      <trkpt lat="46.48547" lon="-0.0664">
        <ele>167.2</ele>
        <time>2020-05-30T18:23:04Z</time>
      </trkpt>
      <trkpt lat="46.48547" lon="-0.06642">
        <ele>167.2</ele>
        <time>2020-05-30T18:23:05Z</time>
      </trkpt>
      <trkpt lat="46.48547" lon="-0.06646">
        <ele>167.3</ele>
        <time>2020-05-30T18:23:06Z</time>
      </trkpt>
      <trkpt lat="46.48546" lon="-0.06651">
        <ele>167.4</ele>
        <time>2020-05-30T18:23:07Z</time>
      </trkpt>
      <trkpt lat="46.48544" lon="-0.06655">
        <ele>167.6</ele>
        <time>2020-05-30T18:23:08Z</time>
      </trkpt>
      <trkpt lat="46.48545" lon="-0.0666">
        <ele>167.7</ele>
        <time>2020-05-30T18:23:09Z</time>
      </trkpt>
      <trkpt lat="46.48545" lon="-0.06664">
        <ele>167.8</ele>
        <time>2020-05-30T18:23:10Z</time>
      </trkpt>
      <trkpt lat="46.48545" lon="-0.06672">
        <ele>168</ele>
        <time>2020-05-30T18:23:11Z</time>
      </trkpt>
      <trkpt lat="46.48545" lon="-0.06676">
        <ele>168.1</ele>
        <time>2020-05-30T18:23:12Z</time>
      </trkpt>
      <trkpt lat="46.48545" lon="-0.0668">
        <ele>168.2</ele>
        <time>2020-05-30T18:23:13Z</time>
      </trkpt>
      <trkpt lat="46.48545" lon="-0.06682">
        <ele>168.2</ele>
        <time>2020-05-30T18:23:14Z</time>
      </trkpt>
      <trkpt lat="46.48545" lon="-0.06685">
        <ele>168.3</ele>
        <time>2020-05-30T18:23:15Z</time>
      </trkpt>
      <trkpt lat="46.48545" lon="-0.06692">
        <ele>168.5</ele>
        <time>2020-05-30T18:23:16Z</time>
      </trkpt>
      <trkpt lat="46.48544" lon="-0.06697">
        <ele>168.6</ele>
        <time>2020-05-30T18:23:17Z</time>
      </trkpt>
      <trkpt lat="46.48543" lon="-0.06703">
        <ele>168.7</ele>
        <time>2020-05-30T18:23:18Z</time>
      </trkpt>
      <trkpt lat="46.48543" lon="-0.06705">
        <ele>168.8</ele>
        <time>2020-05-30T18:23:19Z</time>
      </trkpt>
      <trkpt lat="46.48544" lon="-0.0671">
        <ele>168.9</ele>
        <time>2020-05-30T18:23:20Z</time>
      </trkpt>
      <trkpt lat="46.48545" lon="-0.06715">
        <ele>169</ele>
        <time>2020-05-30T18:23:21Z</time>
      </trkpt>
      <trkpt lat="46.48545" lon="-0.06721">
        <ele>169.1</ele>
        <time>2020-05-30T18:23:22Z</time>
      </trkpt>
      <trkpt lat="46.48545" lon="-0.06729">
        <ele>169.3</ele>
        <time>2020-05-30T18:23:23Z</time>
      </trkpt>
      <trkpt lat="46.48545" lon="-0.06733">
        <ele>169.4</ele>
        <time>2020-05-30T18:23:24Z</time>
      </trkpt>
      <trkpt lat="46.48545" lon="-0.06737">
        <ele>169.5</ele>
        <time>2020-05-30T18:23:25Z</time>
      </trkpt>
      <trkpt lat="46.48544" lon="-0.06741">
        <ele>169.6</ele>
        <time>2020-05-30T18:23:26Z</time>
      </trkpt>
      <trkpt lat="46.48545" lon="-0.06746">
        <ele>169.7</ele>
        <time>2020-05-30T18:23:27Z</time>
      </trkpt>
      <trkpt lat="46.48545" lon="-0.0675">
        <ele>169.8</ele>
        <time>2020-05-30T18:23:28Z</time>
      </trkpt>
      <trkpt lat="46.48545" lon="-0.06757">
        <ele>169.9</ele>
        <time>2020-05-30T18:23:29Z</time>
      </trkpt>
      <trkpt lat="46.48545" lon="-0.06764">
        <ele>170</ele>
        <time>2020-05-30T18:23:30Z</time>
      </trkpt>
      <trkpt lat="46.48546" lon="-0.06769">
        <ele>170.1</ele>
        <time>2020-05-30T18:23:31Z</time>
      </trkpt>
      <trkpt lat="46.48546" lon="-0.06773">
        <ele>170.2</ele>
        <time>2020-05-30T18:23:32Z</time>
      </trkpt>
      <trkpt lat="46.48546" lon="-0.06778">
        <ele>170.3</ele>
        <time>2020-05-30T18:23:33Z</time>
      </trkpt>
      <trkpt lat="46.48546" lon="-0.06784">
        <ele>170.4</ele>
        <time>2020-05-30T18:23:34Z</time>
      </trkpt>
      <trkpt lat="46.48547" lon="-0.06791">
        <ele>170.4</ele>
        <time>2020-05-30T18:23:35Z</time>
      </trkpt>
      <trkpt lat="46.48546" lon="-0.06797">
        <ele>170.5</ele>
        <time>2020-05-30T18:23:36Z</time>
      </trkpt>
      <trkpt lat="46.48547" lon="-0.06799">
        <ele>170.6</ele>
        <time>2020-05-30T18:23:37Z</time>
      </trkpt>
      <trkpt lat="46.48547" lon="-0.06806">
        <ele>170.6</ele>
        <time>2020-05-30T18:23:38Z</time>
      </trkpt>
      <trkpt lat="46.48548" lon="-0.06811">
        <ele>170.7</ele>
        <time>2020-05-30T18:23:39Z</time>
      </trkpt>
      <trkpt lat="46.48548" lon="-0.06817">
        <ele>170.8</ele>
        <time>2020-05-30T18:23:40Z</time>
      </trkpt>
      <trkpt lat="46.48549" lon="-0.06822">
        <ele>170.8</ele>
        <time>2020-05-30T18:23:41Z</time>
      </trkpt>
      <trkpt lat="46.48548" lon="-0.0683">
        <ele>170.9</ele>
        <time>2020-05-30T18:23:42Z</time>
      </trkpt>
      <trkpt lat="46.48549" lon="-0.06834">
        <ele>171</ele>
        <time>2020-05-30T18:23:43Z</time>
      </trkpt>
      <trkpt lat="46.48548" lon="-0.0684">
        <ele>171</ele>
        <time>2020-05-30T18:23:44Z</time>
      </trkpt>
      <trkpt lat="46.48548" lon="-0.06846">
        <ele>171.1</ele>
        <time>2020-05-30T18:23:45Z</time>
      </trkpt>
      <trkpt lat="46.48548" lon="-0.06851">
        <ele>171.1</ele>
        <time>2020-05-30T18:23:46Z</time>
      </trkpt>
      <trkpt lat="46.48549" lon="-0.06857">
        <ele>171.2</ele>
        <time>2020-05-30T18:23:47Z</time>
      </trkpt>
      <trkpt lat="46.48549" lon="-0.06864">
        <ele>171.2</ele>
        <time>2020-05-30T18:23:48Z</time>
      </trkpt>
      <trkpt lat="46.48549" lon="-0.0687">
        <ele>171.2</ele>
        <time>2020-05-30T18:23:49Z</time>
      </trkpt>
      <trkpt lat="46.48549" lon="-0.06876">
        <ele>171.2</ele>
        <time>2020-05-30T18:23:50Z</time>
      </trkpt>
      <trkpt lat="46.48549" lon="-0.06883">
        <ele>171.2</ele>
        <time>2020-05-30T18:23:51Z</time>
      </trkpt>
      <trkpt lat="46.48549" lon="-0.06889">
        <ele>171.2</ele>
        <time>2020-05-30T18:23:52Z</time>
      </trkpt>
      <trkpt lat="46.48549" lon="-0.06895">
        <ele>171.3</ele>
        <time>2020-05-30T18:23:53Z</time>
      </trkpt>
      <trkpt lat="46.48549" lon="-0.06901">
        <ele>171.3</ele>
        <time>2020-05-30T18:23:54Z</time>
      </trkpt>
      <trkpt lat="46.48549" lon="-0.06908">
        <ele>171.3</ele>
        <time>2020-05-30T18:23:55Z</time>
      </trkpt>
      <trkpt lat="46.4855" lon="-0.06914">
        <ele>171.3</ele>
        <time>2020-05-30T18:23:56Z</time>
      </trkpt>
      <trkpt lat="46.4855" lon="-0.06921">
        <ele>171.3</ele>
        <time>2020-05-30T18:23:57Z</time>
      </trkpt>
      <trkpt lat="46.48551" lon="-0.06927">
        <ele>171.3</ele>
        <time>2020-05-30T18:23:58Z</time>
      </trkpt>
      <trkpt lat="46.48553" lon="-0.06934">
        <ele>171.2</ele>
        <time>2020-05-30T18:23:59Z</time>
      </trkpt>
      <trkpt lat="46.48553" lon="-0.06942">
        <ele>171.2</ele>
        <time>2020-05-30T18:24:00Z</time>
      </trkpt>
      <trkpt lat="46.48553" lon="-0.06948">
        <ele>171.2</ele>
        <time>2020-05-30T18:24:01Z</time>
      </trkpt>
      <trkpt lat="46.48553" lon="-0.06953">
        <ele>171.2</ele>
        <time>2020-05-30T18:24:02Z</time>
      </trkpt>
      <trkpt lat="46.48552" lon="-0.06959">
        <ele>171.1</ele>
        <time>2020-05-30T18:24:03Z</time>
      </trkpt>
      <trkpt lat="46.48552" lon="-0.06966">
        <ele>171.1</ele>
        <time>2020-05-30T18:24:04Z</time>
      </trkpt>
      <trkpt lat="46.48552" lon="-0.06968">
        <ele>171.1</ele>
        <time>2020-05-30T18:24:05Z</time>
      </trkpt>
      <trkpt lat="46.48552" lon="-0.06974">
        <ele>171</ele>
        <time>2020-05-30T18:24:06Z</time>
      </trkpt>
      <trkpt lat="46.48552" lon="-0.0698">
        <ele>171</ele>
        <time>2020-05-30T18:24:07Z</time>
      </trkpt>
      <trkpt lat="46.48553" lon="-0.06986">
        <ele>170.9</ele>
        <time>2020-05-30T18:24:08Z</time>
      </trkpt>
      <trkpt lat="46.48554" lon="-0.06994">
        <ele>170.9</ele>
        <time>2020-05-30T18:24:09Z</time>
      </trkpt>
      <trkpt lat="46.48554" lon="-0.07">
        <ele>170.8</ele>
        <time>2020-05-30T18:24:10Z</time>
      </trkpt>
      <trkpt lat="46.48554" lon="-0.07006">
        <ele>170.8</ele>
        <time>2020-05-30T18:24:11Z</time>
      </trkpt>
      <trkpt lat="46.48554" lon="-0.07013">
        <ele>170.8</ele>
        <time>2020-05-30T18:24:12Z</time>
      </trkpt>
      <trkpt lat="46.48555" lon="-0.07018">
        <ele>170.7</ele>
        <time>2020-05-30T18:24:13Z</time>
      </trkpt>
      <trkpt lat="46.48554" lon="-0.07026">
        <ele>170.7</ele>
        <time>2020-05-30T18:24:14Z</time>
      </trkpt>
      <trkpt lat="46.48553" lon="-0.07034">
        <ele>170.6</ele>
        <time>2020-05-30T18:24:15Z</time>
      </trkpt>
      <trkpt lat="46.48551" lon="-0.07041">
        <ele>170.6</ele>
        <time>2020-05-30T18:24:16Z</time>
      </trkpt>
      <trkpt lat="46.4855" lon="-0.07047">
        <ele>170.6</ele>
        <time>2020-05-30T18:24:17Z</time>
      </trkpt>
      <trkpt lat="46.48549" lon="-0.07053">
        <ele>170.6</ele>
        <time>2020-05-30T18:24:18Z</time>
      </trkpt>
      <trkpt lat="46.48548" lon="-0.0706">
        <ele>170.5</ele>
        <time>2020-05-30T18:24:19Z</time>
      </trkpt>
      <trkpt lat="46.48547" lon="-0.07067">
        <ele>170.4</ele>
        <time>2020-05-30T18:24:20Z</time>
      </trkpt>
      <trkpt lat="46.48546" lon="-0.07075">
        <ele>170.3</ele>
        <time>2020-05-30T18:24:21Z</time>
      </trkpt>
      <trkpt lat="46.48543" lon="-0.07086">
        <ele>170</ele>
        <time>2020-05-30T18:24:22Z</time>
      </trkpt>
      <trkpt lat="46.4854" lon="-0.07095">
        <ele>169.8</ele>
        <time>2020-05-30T18:24:23Z</time>
      </trkpt>
      <trkpt lat="46.4854" lon="-0.07102">
        <ele>169.6</ele>
        <time>2020-05-30T18:24:24Z</time>
      </trkpt>
      <trkpt lat="46.48538" lon="-0.07113">
        <ele>169.3</ele>
        <time>2020-05-30T18:24:25Z</time>
      </trkpt>
      <trkpt lat="46.48537" lon="-0.07124">
        <ele>169</ele>
        <time>2020-05-30T18:24:26Z</time>
      </trkpt>
      <trkpt lat="46.48536" lon="-0.07133">
        <ele>168.7</ele>
        <time>2020-05-30T18:24:27Z</time>
      </trkpt>
      <trkpt lat="46.48534" lon="-0.07142">
        <ele>168.4</ele>
        <time>2020-05-30T18:24:28Z</time>
      </trkpt>
      <trkpt lat="46.48532" lon="-0.07154">
        <ele>168</ele>
        <time>2020-05-30T18:24:29Z</time>
      </trkpt>
      <trkpt lat="46.4853" lon="-0.07166">
        <ele>167.6</ele>
        <time>2020-05-30T18:24:30Z</time>
      </trkpt>
      <trkpt lat="46.48528" lon="-0.07178">
        <ele>167.2</ele>
        <time>2020-05-30T18:24:31Z</time>
      </trkpt>
      <trkpt lat="46.48526" lon="-0.07189">
        <ele>166.7</ele>
        <time>2020-05-30T18:24:32Z</time>
      </trkpt>
      <trkpt lat="46.48524" lon="-0.07202">
        <ele>166.3</ele>
        <time>2020-05-30T18:24:33Z</time>
      </trkpt>
      <trkpt lat="46.48522" lon="-0.07214">
        <ele>166</ele>
        <time>2020-05-30T18:24:34Z</time>
      </trkpt>
      <trkpt lat="46.4852" lon="-0.07226">
        <ele>165.7</ele>
        <time>2020-05-30T18:24:35Z</time>
      </trkpt>
      <trkpt lat="46.48518" lon="-0.07239">
        <ele>165.3</ele>
        <time>2020-05-30T18:24:36Z</time>
      </trkpt>
      <trkpt lat="46.48516" lon="-0.07251">
        <ele>165</ele>
        <time>2020-05-30T18:24:37Z</time>
      </trkpt>
      <trkpt lat="46.48514" lon="-0.07264">
        <ele>164.6</ele>
        <time>2020-05-30T18:24:38Z</time>
      </trkpt>
      <trkpt lat="46.48511" lon="-0.07277">
        <ele>164.3</ele>
        <time>2020-05-30T18:24:39Z</time>
      </trkpt>
      <trkpt lat="46.48509" lon="-0.07289">
        <ele>163.9</ele>
        <time>2020-05-30T18:24:40Z</time>
      </trkpt>
      <trkpt lat="46.48507" lon="-0.07302">
        <ele>163.6</ele>
        <time>2020-05-30T18:24:41Z</time>
      </trkpt>
      <trkpt lat="46.48504" lon="-0.07315">
        <ele>163.2</ele>
        <time>2020-05-30T18:24:42Z</time>
      </trkpt>
      <trkpt lat="46.48502" lon="-0.07328">
        <ele>162.9</ele>
        <time>2020-05-30T18:24:43Z</time>
      </trkpt>
      <trkpt lat="46.48499" lon="-0.0734">
        <ele>162.5</ele>
        <time>2020-05-30T18:24:44Z</time>
      </trkpt>
      <trkpt lat="46.48497" lon="-0.07355">
        <ele>162.1</ele>
        <time>2020-05-30T18:24:45Z</time>
      </trkpt>
      <trkpt lat="46.48494" lon="-0.07368">
        <ele>161.9</ele>
        <time>2020-05-30T18:24:46Z</time>
      </trkpt>
      <trkpt lat="46.48491" lon="-0.07382">
        <ele>161.7</ele>
        <time>2020-05-30T18:24:47Z</time>
      </trkpt>
      <trkpt lat="46.48488" lon="-0.07396">
        <ele>161.7</ele>
        <time>2020-05-30T18:24:48Z</time>
      </trkpt>
      <trkpt lat="46.48486" lon="-0.07409">
        <ele>161.5</ele>
        <time>2020-05-30T18:24:49Z</time>
      </trkpt>
      <trkpt lat="46.48484" lon="-0.07423">
        <ele>161.1</ele>
        <time>2020-05-30T18:24:50Z</time>
      </trkpt>
      <trkpt lat="46.48481" lon="-0.07436">
        <ele>160.7</ele>
        <time>2020-05-30T18:24:51Z</time>
      </trkpt>
      <trkpt lat="46.48479" lon="-0.0745">
        <ele>160.3</ele>
        <time>2020-05-30T18:24:52Z</time>
      </trkpt>
      <trkpt lat="46.48477" lon="-0.07464">
        <ele>159.9</ele>
        <time>2020-05-30T18:24:53Z</time>
      </trkpt>
      <trkpt lat="46.48475" lon="-0.07477">
        <ele>159.5</ele>
        <time>2020-05-30T18:24:54Z</time>
      </trkpt>
      <trkpt lat="46.48472" lon="-0.07491">
        <ele>159.1</ele>
        <time>2020-05-30T18:24:55Z</time>
      </trkpt>
      <trkpt lat="46.4847" lon="-0.07505">
        <ele>158.6</ele>
        <time>2020-05-30T18:24:56Z</time>
      </trkpt>
      <trkpt lat="46.48468" lon="-0.07518">
        <ele>158.2</ele>
        <time>2020-05-30T18:24:57Z</time>
      </trkpt>
      <trkpt lat="46.48466" lon="-0.07532">
        <ele>157.8</ele>
        <time>2020-05-30T18:24:58Z</time>
      </trkpt>
      <trkpt lat="46.48465" lon="-0.07546">
        <ele>157.3</ele>
        <time>2020-05-30T18:24:59Z</time>
      </trkpt>
      <trkpt lat="46.48464" lon="-0.0756">
        <ele>156.9</ele>
        <time>2020-05-30T18:25:00Z</time>
      </trkpt>
      <trkpt lat="46.48464" lon="-0.07574">
        <ele>156.3</ele>
        <time>2020-05-30T18:25:01Z</time>
      </trkpt>
      <trkpt lat="46.48463" lon="-0.07589">
        <ele>155.8</ele>
        <time>2020-05-30T18:25:02Z</time>
      </trkpt>
      <trkpt lat="46.48463" lon="-0.07603">
        <ele>155.4</ele>
        <time>2020-05-30T18:25:03Z</time>
      </trkpt>
      <trkpt lat="46.48464" lon="-0.07618">
        <ele>155</ele>
        <time>2020-05-30T18:25:04Z</time>
      </trkpt>
      <trkpt lat="46.48465" lon="-0.07633">
        <ele>154.5</ele>
        <time>2020-05-30T18:25:05Z</time>
      </trkpt>
      <trkpt lat="46.48467" lon="-0.07648">
        <ele>154.1</ele>
        <time>2020-05-30T18:25:06Z</time>
      </trkpt>
      <trkpt lat="46.48469" lon="-0.07663">
        <ele>153.7</ele>
        <time>2020-05-30T18:25:07Z</time>
      </trkpt>
      <trkpt lat="46.48471" lon="-0.07679">
        <ele>153.4</ele>
        <time>2020-05-30T18:25:08Z</time>
      </trkpt>
      <trkpt lat="46.48473" lon="-0.07694">
        <ele>153.3</ele>
        <time>2020-05-30T18:25:09Z</time>
      </trkpt>
      <trkpt lat="46.48476" lon="-0.07709">
        <ele>153</ele>
        <time>2020-05-30T18:25:10Z</time>
      </trkpt>
      <trkpt lat="46.48477" lon="-0.07724">
        <ele>152.6</ele>
        <time>2020-05-30T18:25:11Z</time>
      </trkpt>
      <trkpt lat="46.48479" lon="-0.07738">
        <ele>152.2</ele>
        <time>2020-05-30T18:25:12Z</time>
      </trkpt>
      <trkpt lat="46.4848" lon="-0.07752">
        <ele>152</ele>
        <time>2020-05-30T18:25:13Z</time>
      </trkpt>
      <trkpt lat="46.4848" lon="-0.07766">
        <ele>151.9</ele>
        <time>2020-05-30T18:25:14Z</time>
      </trkpt>
      <trkpt lat="46.48482" lon="-0.0778">
        <ele>151.7</ele>
        <time>2020-05-30T18:25:15Z</time>
      </trkpt>
      <trkpt lat="46.48484" lon="-0.07794">
        <ele>151.6</ele>
        <time>2020-05-30T18:25:16Z</time>
      </trkpt>
      <trkpt lat="46.48486" lon="-0.07807">
        <ele>151.4</ele>
        <time>2020-05-30T18:25:17Z</time>
      </trkpt>
      <trkpt lat="46.48487" lon="-0.0782">
        <ele>151.3</ele>
        <time>2020-05-30T18:25:18Z</time>
      </trkpt>
      <trkpt lat="46.48488" lon="-0.07833">
        <ele>151.2</ele>
        <time>2020-05-30T18:25:19Z</time>
      </trkpt>
      <trkpt lat="46.48489" lon="-0.07845">
        <ele>151.2</ele>
        <time>2020-05-30T18:25:20Z</time>
      </trkpt>
      <trkpt lat="46.48491" lon="-0.07857">
        <ele>151.1</ele>
        <time>2020-05-30T18:25:21Z</time>
      </trkpt>
      <trkpt lat="46.48492" lon="-0.07869">
        <ele>151</ele>
        <time>2020-05-30T18:25:22Z</time>
      </trkpt>
      <trkpt lat="46.48495" lon="-0.0788">
        <ele>151</ele>
        <time>2020-05-30T18:25:23Z</time>
      </trkpt>
      <trkpt lat="46.48496" lon="-0.07891">
        <ele>151</ele>
        <time>2020-05-30T18:25:24Z</time>
      </trkpt>
      <trkpt lat="46.48498" lon="-0.079">
        <ele>151</ele>
        <time>2020-05-30T18:25:25Z</time>
      </trkpt>
      <trkpt lat="46.48498" lon="-0.0791">
        <ele>151</ele>
        <time>2020-05-30T18:25:26Z</time>
      </trkpt>
      <trkpt lat="46.48499" lon="-0.07919">
        <ele>151.1</ele>
        <time>2020-05-30T18:25:27Z</time>
      </trkpt>
      <trkpt lat="46.485" lon="-0.07928">
        <ele>151.2</ele>
        <time>2020-05-30T18:25:28Z</time>
      </trkpt>
      <trkpt lat="46.48501" lon="-0.07936">
        <ele>151.3</ele>
        <time>2020-05-30T18:25:29Z</time>
      </trkpt>
      <trkpt lat="46.48502" lon="-0.07943">
        <ele>151.4</ele>
        <time>2020-05-30T18:25:30Z</time>
      </trkpt>
      <trkpt lat="46.48504" lon="-0.07951">
        <ele>151.6</ele>
        <time>2020-05-30T18:25:31Z</time>
      </trkpt>
      <trkpt lat="46.48505" lon="-0.07959">
        <ele>151.8</ele>
        <time>2020-05-30T18:25:32Z</time>
      </trkpt>
      <trkpt lat="46.48507" lon="-0.07966">
        <ele>151.9</ele>
        <time>2020-05-30T18:25:33Z</time>
      </trkpt>
      <trkpt lat="46.48506" lon="-0.07973">
        <ele>152.1</ele>
        <time>2020-05-30T18:25:34Z</time>
      </trkpt>
      <trkpt lat="46.48506" lon="-0.0798">
        <ele>152.3</ele>
        <time>2020-05-30T18:25:35Z</time>
      </trkpt>
      <trkpt lat="46.48506" lon="-0.07986">
        <ele>152.4</ele>
        <time>2020-05-30T18:25:36Z</time>
      </trkpt>
      <trkpt lat="46.48505" lon="-0.07993">
        <ele>152.6</ele>
        <time>2020-05-30T18:25:37Z</time>
      </trkpt>
      <trkpt lat="46.48504" lon="-0.07999">
        <ele>152.7</ele>
        <time>2020-05-30T18:25:38Z</time>
      </trkpt>
      <trkpt lat="46.48504" lon="-0.08006">
        <ele>152.9</ele>
        <time>2020-05-30T18:25:39Z</time>
      </trkpt>
      <trkpt lat="46.48504" lon="-0.08012">
        <ele>153</ele>
        <time>2020-05-30T18:25:40Z</time>
      </trkpt>
      <trkpt lat="46.48504" lon="-0.08019">
        <ele>153.2</ele>
        <time>2020-05-30T18:25:41Z</time>
      </trkpt>
      <trkpt lat="46.48504" lon="-0.08025">
        <ele>153.3</ele>
        <time>2020-05-30T18:25:42Z</time>
      </trkpt>
      <trkpt lat="46.48502" lon="-0.08031">
        <ele>153.5</ele>
        <time>2020-05-30T18:25:43Z</time>
      </trkpt>
      <trkpt lat="46.48501" lon="-0.08037">
        <ele>153.6</ele>
        <time>2020-05-30T18:25:44Z</time>
      </trkpt>
      <trkpt lat="46.485" lon="-0.08043">
        <ele>153.8</ele>
        <time>2020-05-30T18:25:45Z</time>
      </trkpt>
      <trkpt lat="46.48499" lon="-0.08049">
        <ele>153.9</ele>
        <time>2020-05-30T18:25:46Z</time>
      </trkpt>
      <trkpt lat="46.48498" lon="-0.08055">
        <ele>154</ele>
        <time>2020-05-30T18:25:47Z</time>
      </trkpt>
      <trkpt lat="46.48499" lon="-0.08062">
        <ele>154.2</ele>
        <time>2020-05-30T18:25:48Z</time>
      </trkpt>
      <trkpt lat="46.48498" lon="-0.08068">
        <ele>154.3</ele>
        <time>2020-05-30T18:25:49Z</time>
      </trkpt>
      <trkpt lat="46.48499" lon="-0.08074">
        <ele>154.5</ele>
        <time>2020-05-30T18:25:50Z</time>
      </trkpt>
      <trkpt lat="46.48498" lon="-0.08081">
        <ele>154.6</ele>
        <time>2020-05-30T18:25:51Z</time>
      </trkpt>
      <trkpt lat="46.48497" lon="-0.08087">
        <ele>154.7</ele>
        <time>2020-05-30T18:25:52Z</time>
      </trkpt>
      <trkpt lat="46.48496" lon="-0.08094">
        <ele>154.8</ele>
        <time>2020-05-30T18:25:53Z</time>
      </trkpt>
      <trkpt lat="46.48495" lon="-0.08099">
        <ele>154.9</ele>
        <time>2020-05-30T18:25:54Z</time>
      </trkpt>
      <trkpt lat="46.48494" lon="-0.08105">
        <ele>155</ele>
        <time>2020-05-30T18:25:55Z</time>
      </trkpt>
      <trkpt lat="46.48493" lon="-0.08112">
        <ele>155.1</ele>
        <time>2020-05-30T18:25:56Z</time>
      </trkpt>
      <trkpt lat="46.48493" lon="-0.0812">
        <ele>155.2</ele>
        <time>2020-05-30T18:25:57Z</time>
      </trkpt>
      <trkpt lat="46.48493" lon="-0.08127">
        <ele>155.3</ele>
        <time>2020-05-30T18:25:58Z</time>
      </trkpt>
      <trkpt lat="46.48492" lon="-0.08135">
        <ele>155.4</ele>
        <time>2020-05-30T18:25:59Z</time>
      </trkpt>
      <trkpt lat="46.48492" lon="-0.08141">
        <ele>155.4</ele>
        <time>2020-05-30T18:26:00Z</time>
      </trkpt>
      <trkpt lat="46.48491" lon="-0.08147">
        <ele>155.5</ele>
        <time>2020-05-30T18:26:01Z</time>
      </trkpt>
      <trkpt lat="46.48491" lon="-0.08152">
        <ele>155.6</ele>
        <time>2020-05-30T18:26:02Z</time>
      </trkpt>
      <trkpt lat="46.4849" lon="-0.08158">
        <ele>155.6</ele>
        <time>2020-05-30T18:26:03Z</time>
      </trkpt>
      <trkpt lat="46.48489" lon="-0.08164">
        <ele>155.7</ele>
        <time>2020-05-30T18:26:04Z</time>
      </trkpt>
      <trkpt lat="46.48488" lon="-0.08173">
        <ele>155.9</ele>
        <time>2020-05-30T18:26:05Z</time>
      </trkpt>
      <trkpt lat="46.48487" lon="-0.08179">
        <ele>156</ele>
        <time>2020-05-30T18:26:06Z</time>
      </trkpt>
      <trkpt lat="46.48486" lon="-0.08185">
        <ele>156.1</ele>
        <time>2020-05-30T18:26:07Z</time>
      </trkpt>
      <trkpt lat="46.48486" lon="-0.0819">
        <ele>156.2</ele>
        <time>2020-05-30T18:26:08Z</time>
      </trkpt>
      <trkpt lat="46.48485" lon="-0.08196">
        <ele>156.3</ele>
        <time>2020-05-30T18:26:09Z</time>
      </trkpt>
      <trkpt lat="46.48484" lon="-0.08204">
        <ele>156.5</ele>
        <time>2020-05-30T18:26:10Z</time>
      </trkpt>
      <trkpt lat="46.48484" lon="-0.08208">
        <ele>156.6</ele>
        <time>2020-05-30T18:26:11Z</time>
      </trkpt>
      <trkpt lat="46.48484" lon="-0.08214">
        <ele>156.7</ele>
        <time>2020-05-30T18:26:12Z</time>
      </trkpt>
      <trkpt lat="46.48483" lon="-0.08219">
        <ele>156.8</ele>
        <time>2020-05-30T18:26:13Z</time>
      </trkpt>
      <trkpt lat="46.48483" lon="-0.08225">
        <ele>157</ele>
        <time>2020-05-30T18:26:14Z</time>
      </trkpt>
      <trkpt lat="46.48483" lon="-0.08232">
        <ele>157.1</ele>
        <time>2020-05-30T18:26:15Z</time>
      </trkpt>
      <trkpt lat="46.48483" lon="-0.08237">
        <ele>157.3</ele>
        <time>2020-05-30T18:26:16Z</time>
      </trkpt>
      <trkpt lat="46.48484" lon="-0.08241">
        <ele>157.4</ele>
        <time>2020-05-30T18:26:17Z</time>
      </trkpt>
      <trkpt lat="46.48484" lon="-0.08247">
        <ele>157.6</ele>
        <time>2020-05-30T18:26:18Z</time>
      </trkpt>
      <trkpt lat="46.48484" lon="-0.08252">
        <ele>157.7</ele>
        <time>2020-05-30T18:26:19Z</time>
      </trkpt>
      <trkpt lat="46.48485" lon="-0.08256">
        <ele>157.8</ele>
        <time>2020-05-30T18:26:20Z</time>
      </trkpt>
      <trkpt lat="46.48484" lon="-0.08262">
        <ele>158</ele>
        <time>2020-05-30T18:26:21Z</time>
      </trkpt>
      <trkpt lat="46.48485" lon="-0.08267">
        <ele>158.1</ele>
        <time>2020-05-30T18:26:22Z</time>
      </trkpt>
      <trkpt lat="46.48485" lon="-0.08272">
        <ele>158.3</ele>
        <time>2020-05-30T18:26:23Z</time>
      </trkpt>
      <trkpt lat="46.48485" lon="-0.0828">
        <ele>158.5</ele>
        <time>2020-05-30T18:26:24Z</time>
      </trkpt>
      <trkpt lat="46.48485" lon="-0.08285">
        <ele>158.6</ele>
        <time>2020-05-30T18:26:25Z</time>
      </trkpt>
      <trkpt lat="46.48485" lon="-0.08291">
        <ele>158.8</ele>
        <time>2020-05-30T18:26:26Z</time>
      </trkpt>
      <trkpt lat="46.48486" lon="-0.08295">
        <ele>158.9</ele>
        <time>2020-05-30T18:26:27Z</time>
      </trkpt>
      <trkpt lat="46.48486" lon="-0.083">
        <ele>159</ele>
        <time>2020-05-30T18:26:28Z</time>
      </trkpt>
      <trkpt lat="46.48486" lon="-0.08306">
        <ele>159.2</ele>
        <time>2020-05-30T18:26:29Z</time>
      </trkpt>
      <trkpt lat="46.48486" lon="-0.08313">
        <ele>159.4</ele>
        <time>2020-05-30T18:26:30Z</time>
      </trkpt>
      <trkpt lat="46.48486" lon="-0.08319">
        <ele>159.6</ele>
        <time>2020-05-30T18:26:31Z</time>
      </trkpt>
      <trkpt lat="46.48486" lon="-0.08324">
        <ele>159.7</ele>
        <time>2020-05-30T18:26:32Z</time>
      </trkpt>
      <trkpt lat="46.48486" lon="-0.08329">
        <ele>159.8</ele>
        <time>2020-05-30T18:26:33Z</time>
      </trkpt>
      <trkpt lat="46.48487" lon="-0.08336">
        <ele>160</ele>
        <time>2020-05-30T18:26:34Z</time>
      </trkpt>
      <trkpt lat="46.48486" lon="-0.08342">
        <ele>160.2</ele>
        <time>2020-05-30T18:26:35Z</time>
      </trkpt>
      <trkpt lat="46.48486" lon="-0.08348">
        <ele>160.4</ele>
        <time>2020-05-30T18:26:36Z</time>
      </trkpt>
      <trkpt lat="46.48486" lon="-0.08353">
        <ele>160.6</ele>
        <time>2020-05-30T18:26:37Z</time>
      </trkpt>
      <trkpt lat="46.48487" lon="-0.08357">
        <ele>160.7</ele>
        <time>2020-05-30T18:26:38Z</time>
      </trkpt>
      <trkpt lat="46.48489" lon="-0.08364">
        <ele>160.9</ele>
        <time>2020-05-30T18:26:39Z</time>
      </trkpt>
      <trkpt lat="46.48489" lon="-0.08369">
        <ele>161.1</ele>
        <time>2020-05-30T18:26:40Z</time>
      </trkpt>
      <trkpt lat="46.4849" lon="-0.08374">
        <ele>161.3</ele>
        <time>2020-05-30T18:26:41Z</time>
      </trkpt>
      <trkpt lat="46.4849" lon="-0.0838">
        <ele>161.4</ele>
        <time>2020-05-30T18:26:42Z</time>
      </trkpt>
      <trkpt lat="46.48491" lon="-0.08384">
        <ele>161.6</ele>
        <time>2020-05-30T18:26:43Z</time>
      </trkpt>
      <trkpt lat="46.48492" lon="-0.08391">
        <ele>161.8</ele>
        <time>2020-05-30T18:26:44Z</time>
      </trkpt>
      <trkpt lat="46.48493" lon="-0.08397">
        <ele>162</ele>
        <time>2020-05-30T18:26:45Z</time>
      </trkpt>
      <trkpt lat="46.48495" lon="-0.08403">
        <ele>162.2</ele>
        <time>2020-05-30T18:26:46Z</time>
      </trkpt>
      <trkpt lat="46.48496" lon="-0.0841">
        <ele>162.4</ele>
        <time>2020-05-30T18:26:47Z</time>
      </trkpt>
      <trkpt lat="46.48498" lon="-0.08416">
        <ele>162.6</ele>
        <time>2020-05-30T18:26:48Z</time>
      </trkpt>
      <trkpt lat="46.485" lon="-0.08421">
        <ele>162.8</ele>
        <time>2020-05-30T18:26:49Z</time>
      </trkpt>
      <trkpt lat="46.48502" lon="-0.08428">
        <ele>163</ele>
        <time>2020-05-30T18:26:50Z</time>
      </trkpt>
      <trkpt lat="46.48504" lon="-0.08434">
        <ele>163.1</ele>
        <time>2020-05-30T18:26:51Z</time>
      </trkpt>
      <trkpt lat="46.48505" lon="-0.08439">
        <ele>163.2</ele>
        <time>2020-05-30T18:26:52Z</time>
      </trkpt>
      <trkpt lat="46.48507" lon="-0.08445">
        <ele>163.4</ele>
        <time>2020-05-30T18:26:53Z</time>
      </trkpt>
      <trkpt lat="46.48507" lon="-0.08451">
        <ele>163.5</ele>
        <time>2020-05-30T18:26:54Z</time>
      </trkpt>
      <trkpt lat="46.48508" lon="-0.08457">
        <ele>163.6</ele>
        <time>2020-05-30T18:26:55Z</time>
      </trkpt>
      <trkpt lat="46.48508" lon="-0.08464">
        <ele>163.7</ele>
        <time>2020-05-30T18:26:56Z</time>
      </trkpt>
      <trkpt lat="46.48509" lon="-0.08471">
        <ele>163.8</ele>
        <time>2020-05-30T18:26:57Z</time>
      </trkpt>
      <trkpt lat="46.48512" lon="-0.08478">
        <ele>164</ele>
        <time>2020-05-30T18:26:58Z</time>
      </trkpt>
      <trkpt lat="46.48513" lon="-0.08484">
        <ele>164.1</ele>
        <time>2020-05-30T18:26:59Z</time>
      </trkpt>
      <trkpt lat="46.48515" lon="-0.08488">
        <ele>164.1</ele>
        <time>2020-05-30T18:27:00Z</time>
      </trkpt>
      <trkpt lat="46.48517" lon="-0.08493">
        <ele>164.2</ele>
        <time>2020-05-30T18:27:01Z</time>
      </trkpt>
      <trkpt lat="46.48518" lon="-0.08498">
        <ele>164.3</ele>
        <time>2020-05-30T18:27:02Z</time>
      </trkpt>
      <trkpt lat="46.4852" lon="-0.08505">
        <ele>164.4</ele>
        <time>2020-05-30T18:27:03Z</time>
      </trkpt>
      <trkpt lat="46.48522" lon="-0.08512">
        <ele>164.6</ele>
        <time>2020-05-30T18:27:04Z</time>
      </trkpt>
      <trkpt lat="46.48523" lon="-0.0852">
        <ele>164.6</ele>
        <time>2020-05-30T18:27:05Z</time>
      </trkpt>
      <trkpt lat="46.48525" lon="-0.08526">
        <ele>164.7</ele>
        <time>2020-05-30T18:27:06Z</time>
      </trkpt>
      <trkpt lat="46.48526" lon="-0.08532">
        <ele>164.7</ele>
        <time>2020-05-30T18:27:07Z</time>
      </trkpt>
      <trkpt lat="46.48526" lon="-0.08539">
        <ele>164.8</ele>
        <time>2020-05-30T18:27:08Z</time>
      </trkpt>
      <trkpt lat="46.48526" lon="-0.08545">
        <ele>164.8</ele>
        <time>2020-05-30T18:27:09Z</time>
      </trkpt>
      <trkpt lat="46.48527" lon="-0.08551">
        <ele>164.8</ele>
        <time>2020-05-30T18:27:10Z</time>
      </trkpt>
      <trkpt lat="46.48527" lon="-0.08559">
        <ele>164.8</ele>
        <time>2020-05-30T18:27:11Z</time>
      </trkpt>
      <trkpt lat="46.48526" lon="-0.08565">
        <ele>164.9</ele>
        <time>2020-05-30T18:27:12Z</time>
      </trkpt>
      <trkpt lat="46.48525" lon="-0.08572">
        <ele>164.9</ele>
        <time>2020-05-30T18:27:13Z</time>
      </trkpt>
      <trkpt lat="46.48523" lon="-0.08579">
        <ele>164.9</ele>
        <time>2020-05-30T18:27:14Z</time>
      </trkpt>
      <trkpt lat="46.4852" lon="-0.08585">
        <ele>164.9</ele>
        <time>2020-05-30T18:27:15Z</time>
      </trkpt>
      <trkpt lat="46.48519" lon="-0.08592">
        <ele>164.9</ele>
        <time>2020-05-30T18:27:16Z</time>
      </trkpt>
      <trkpt lat="46.48516" lon="-0.08598">
        <ele>164.9</ele>
        <time>2020-05-30T18:27:17Z</time>
      </trkpt>
      <trkpt lat="46.48513" lon="-0.08606">
        <ele>164.9</ele>
        <time>2020-05-30T18:27:18Z</time>
      </trkpt>
      <trkpt lat="46.48511" lon="-0.08613">
        <ele>164.9</ele>
        <time>2020-05-30T18:27:19Z</time>
      </trkpt>
      <trkpt lat="46.48508" lon="-0.08616">
        <ele>164.9</ele>
        <time>2020-05-30T18:27:20Z</time>
      </trkpt>
      <trkpt lat="46.48506" lon="-0.08624">
        <ele>164.9</ele>
        <time>2020-05-30T18:27:21Z</time>
      </trkpt>
      <trkpt lat="46.48504" lon="-0.08629">
        <ele>164.9</ele>
        <time>2020-05-30T18:27:22Z</time>
      </trkpt>
      <trkpt lat="46.48502" lon="-0.08634">
        <ele>164.9</ele>
        <time>2020-05-30T18:27:23Z</time>
      </trkpt>
      <trkpt lat="46.48502" lon="-0.08638">
        <ele>164.9</ele>
        <time>2020-05-30T18:27:24Z</time>
      </trkpt>
      <trkpt lat="46.48502" lon="-0.08644">
        <ele>164.9</ele>
        <time>2020-05-30T18:27:25Z</time>
      </trkpt>
      <trkpt lat="46.48502" lon="-0.08646">
        <ele>164.9</ele>
        <time>2020-05-30T18:27:26Z</time>
      </trkpt>
      <trkpt lat="46.48502" lon="-0.08647">
        <ele>164.9</ele>
        <time>2020-05-30T18:27:27Z</time>
      </trkpt>
      <trkpt lat="46.48502" lon="-0.08649">
        <ele>164.9</ele>
        <time>2020-05-30T18:27:28Z</time>
      </trkpt>
      <trkpt lat="46.48503" lon="-0.08651">
        <ele>164.9</ele>
        <time>2020-05-30T18:27:29Z</time>
      </trkpt>
      <trkpt lat="46.48503" lon="-0.0865">
        <ele>164.9</ele>
        <time>2020-05-30T18:27:30Z</time>
      </trkpt>
      <trkpt lat="46.48503" lon="-0.0865">
        <ele>164.9</ele>
        <time>2020-05-30T18:27:31Z</time>
      </trkpt>
      <trkpt lat="46.48504" lon="-0.08648">
        <ele>164.9</ele>
        <time>2020-05-30T18:27:32Z</time>
      </trkpt>
      <trkpt lat="46.48504" lon="-0.08648">
        <ele>164.9</ele>
        <time>2020-05-30T18:27:33Z</time>
      </trkpt>
      <trkpt lat="46.48505" lon="-0.08647">
        <ele>164.9</ele>
        <time>2020-05-30T18:27:34Z</time>
      </trkpt>
      <trkpt lat="46.48506" lon="-0.08647">
        <ele>164.9</ele>
        <time>2020-05-30T18:27:35Z</time>
      </trkpt>
      <trkpt lat="46.48506" lon="-0.08646">
        <ele>164.9</ele>
        <time>2020-05-30T18:27:36Z</time>
      </trkpt>
      <trkpt lat="46.48506" lon="-0.08645">
        <ele>164.9</ele>
        <time>2020-05-30T18:27:37Z</time>
      </trkpt>
      <trkpt lat="46.48506" lon="-0.08645">
        <ele>164.9</ele>
        <time>2020-05-30T18:27:38Z</time>
      </trkpt>
      <trkpt lat="46.48506" lon="-0.08646">
        <ele>164.9</ele>
        <time>2020-05-30T18:27:39Z</time>
      </trkpt>
      <trkpt lat="46.48506" lon="-0.08644">
        <ele>164.9</ele>
        <time>2020-05-30T18:27:40Z</time>
      </trkpt>
      <trkpt lat="46.48505" lon="-0.08644">
        <ele>164.9</ele>
        <time>2020-05-30T18:27:41Z</time>
      </trkpt>
      <trkpt lat="46.48505" lon="-0.08645">
        <ele>164.9</ele>
        <time>2020-05-30T18:27:42Z</time>
      </trkpt>
      <trkpt lat="46.48505" lon="-0.08645">
        <ele>164.9</ele>
        <time>2020-05-30T18:27:43Z</time>
      </trkpt>
      <trkpt lat="46.48505" lon="-0.08644">
        <ele>164.9</ele>
        <time>2020-05-30T18:27:44Z</time>
      </trkpt>
      <trkpt lat="46.48505" lon="-0.08643">
        <ele>164.9</ele>
        <time>2020-05-30T18:27:45Z</time>
      </trkpt>
      <trkpt lat="46.48504" lon="-0.08644">
        <ele>164.9</ele>
        <time>2020-05-30T18:27:46Z</time>
      </trkpt>
      <trkpt lat="46.48504" lon="-0.08645">
        <ele>164.9</ele>
        <time>2020-05-30T18:27:47Z</time>
      </trkpt>
      <trkpt lat="46.48505" lon="-0.08643">
        <ele>164.9</ele>
        <time>2020-05-30T18:27:48Z</time>
      </trkpt>
      <trkpt lat="46.48505" lon="-0.08644">
        <ele>164.9</ele>
        <time>2020-05-30T18:27:49Z</time>
      </trkpt>
      <trkpt lat="46.48505" lon="-0.08644">
        <ele>164.9</ele>
        <time>2020-05-30T18:27:50Z</time>
      </trkpt>
      <trkpt lat="46.48505" lon="-0.08644">
        <ele>164.9</ele>
        <time>2020-05-30T18:27:51Z</time>
      </trkpt>
      <trkpt lat="46.48505" lon="-0.08644">
        <ele>164.9</ele>
        <time>2020-05-30T18:27:52Z</time>
      </trkpt>
      <trkpt lat="46.48505" lon="-0.08644">
        <ele>164.9</ele>
        <time>2020-05-30T18:27:53Z</time>
      </trkpt>
      <trkpt lat="46.48505" lon="-0.08644">
        <ele>164.9</ele>
        <time>2020-05-30T18:27:54Z</time>
      </trkpt>
      <trkpt lat="46.48505" lon="-0.08644">
        <ele>164.9</ele>
        <time>2020-05-30T18:27:55Z</time>
      </trkpt>
      <trkpt lat="46.48505" lon="-0.08645">
        <ele>164.9</ele>
        <time>2020-05-30T18:27:56Z</time>
      </trkpt>
      <trkpt lat="46.48505" lon="-0.08645">
        <ele>164.9</ele>
        <time>2020-05-30T18:27:57Z</time>
      </trkpt>
      <trkpt lat="46.48505" lon="-0.08645">
        <ele>164.9</ele>
        <time>2020-05-30T18:27:58Z</time>
      </trkpt>
      <trkpt lat="46.48504" lon="-0.08645">
        <ele>164.9</ele>
        <time>2020-05-30T18:27:59Z</time>
      </trkpt>
      <trkpt lat="46.48504" lon="-0.08647">
        <ele>164.9</ele>
        <time>2020-05-30T18:28:00Z</time>
      </trkpt>
      <trkpt lat="46.48504" lon="-0.08648">
        <ele>164.9</ele>
        <time>2020-05-30T18:28:01Z</time>
      </trkpt>
      <trkpt lat="46.48504" lon="-0.08648">
        <ele>164.9</ele>
        <time>2020-05-30T18:28:02Z</time>
      </trkpt>
      <trkpt lat="46.48504" lon="-0.08649">
        <ele>164.9</ele>
        <time>2020-05-30T18:28:03Z</time>
      </trkpt>
      <trkpt lat="46.48504" lon="-0.0865">
        <ele>164.9</ele>
        <time>2020-05-30T18:28:04Z</time>
      </trkpt>
      <trkpt lat="46.48505" lon="-0.08649">
        <ele>164.9</ele>
        <time>2020-05-30T18:28:05Z</time>
      </trkpt>
      <trkpt lat="46.48505" lon="-0.08648">
        <ele>164.9</ele>
        <time>2020-05-30T18:28:06Z</time>
      </trkpt>
      <trkpt lat="46.48505" lon="-0.08647">
        <ele>164.9</ele>
        <time>2020-05-30T18:28:07Z</time>
      </trkpt>
      <trkpt lat="46.48505" lon="-0.08646">
        <ele>164.9</ele>
        <time>2020-05-30T18:28:08Z</time>
      </trkpt>
      <trkpt lat="46.48505" lon="-0.08646">
        <ele>164.9</ele>
        <time>2020-05-30T18:28:09Z</time>
      </trkpt>
      <trkpt lat="46.48505" lon="-0.08646">
        <ele>164.9</ele>
        <time>2020-05-30T18:28:10Z</time>
      </trkpt>
      <trkpt lat="46.48505" lon="-0.08646">
        <ele>164.9</ele>
        <time>2020-05-30T18:28:11Z</time>
      </trkpt>
      <trkpt lat="46.48505" lon="-0.08645">
        <ele>164.9</ele>
        <time>2020-05-30T18:28:12Z</time>
      </trkpt>
      <trkpt lat="46.48505" lon="-0.08645">
        <ele>164.9</ele>
        <time>2020-05-30T18:28:13Z</time>
      </trkpt>
      <trkpt lat="46.48505" lon="-0.08645">
        <ele>164.9</ele>
        <time>2020-05-30T18:28:14Z</time>
      </trkpt>
      <trkpt lat="46.48505" lon="-0.08645">
        <ele>164.9</ele>
        <time>2020-05-30T18:28:15Z</time>
      </trkpt>
      <trkpt lat="46.48505" lon="-0.08646">
        <ele>164.9</ele>
        <time>2020-05-30T18:28:16Z</time>
      </trkpt>
      <trkpt lat="46.48505" lon="-0.08646">
        <ele>164.9</ele>
        <time>2020-05-30T18:28:17Z</time>
      </trkpt>
      <trkpt lat="46.48505" lon="-0.08646">
        <ele>164.9</ele>
        <time>2020-05-30T18:28:18Z</time>
      </trkpt>
      <trkpt lat="46.48504" lon="-0.08646">
        <ele>164.9</ele>
        <time>2020-05-30T18:28:19Z</time>
      </trkpt>
      <trkpt lat="46.48504" lon="-0.08646">
        <ele>164.9</ele>
        <time>2020-05-30T18:28:20Z</time>
      </trkpt>
      <trkpt lat="46.48504" lon="-0.08645">
        <ele>164.9</ele>
        <time>2020-05-30T18:28:21Z</time>
      </trkpt>
      <trkpt lat="46.48504" lon="-0.08645">
        <ele>164.9</ele>
        <time>2020-05-30T18:28:22Z</time>
      </trkpt>
      <trkpt lat="46.48504" lon="-0.08645">
        <ele>164.9</ele>
        <time>2020-05-30T18:28:23Z</time>
      </trkpt>
      <trkpt lat="46.48504" lon="-0.08644">
        <ele>164.9</ele>
        <time>2020-05-30T18:28:24Z</time>
      </trkpt>
      <trkpt lat="46.48505" lon="-0.08644">
        <ele>164.9</ele>
        <time>2020-05-30T18:28:25Z</time>
      </trkpt>
      <trkpt lat="46.48504" lon="-0.08645">
        <ele>164.9</ele>
        <time>2020-05-30T18:28:26Z</time>
      </trkpt>
      <trkpt lat="46.48504" lon="-0.08645">
        <ele>164.9</ele>
        <time>2020-05-30T18:28:27Z</time>
      </trkpt>
      <trkpt lat="46.48503" lon="-0.08646">
        <ele>164.9</ele>
        <time>2020-05-30T18:28:28Z</time>
      </trkpt>
      <trkpt lat="46.48504" lon="-0.08646">
        <ele>164.9</ele>
        <time>2020-05-30T18:28:29Z</time>
      </trkpt>
      <trkpt lat="46.48504" lon="-0.08646">
        <ele>164.9</ele>
        <time>2020-05-30T18:28:30Z</time>
      </trkpt>
      <trkpt lat="46.48504" lon="-0.08646">
        <ele>164.9</ele>
        <time>2020-05-30T18:28:31Z</time>
      </trkpt>
      <trkpt lat="46.48503" lon="-0.08646">
        <ele>164.9</ele>
        <time>2020-05-30T18:28:32Z</time>
      </trkpt>
      <trkpt lat="46.48503" lon="-0.08647">
        <ele>164.9</ele>
        <time>2020-05-30T18:28:33Z</time>
      </trkpt>
      <trkpt lat="46.48503" lon="-0.08647">
        <ele>164.9</ele>
        <time>2020-05-30T18:28:34Z</time>
      </trkpt>
      <trkpt lat="46.48503" lon="-0.08647">
        <ele>165.5</ele>
        <time>2020-05-30T18:28:35Z</time>
      </trkpt>
      <trkpt lat="46.48503" lon="-0.08647">
        <ele>165.5</ele>
        <time>2020-05-30T18:28:36Z</time>
      </trkpt>
      <trkpt lat="46.48503" lon="-0.08647">
        <ele>165.5</ele>
        <time>2020-05-30T18:28:37Z</time>
      </trkpt>
      <trkpt lat="46.48503" lon="-0.08647">
        <ele>165.5</ele>
        <time>2020-05-30T18:28:38Z</time>
      </trkpt>
      <trkpt lat="46.48503" lon="-0.08647">
        <ele>165.5</ele>
        <time>2020-05-30T18:28:39Z</time>
      </trkpt>
      <trkpt lat="46.48503" lon="-0.08647">
        <ele>165.5</ele>
        <time>2020-05-30T18:28:40Z</time>
      </trkpt>
      <trkpt lat="46.48503" lon="-0.08646">
        <ele>164.9</ele>
        <time>2020-05-30T18:28:41Z</time>
      </trkpt>
      <trkpt lat="46.48503" lon="-0.08646">
        <ele>164.9</ele>
        <time>2020-05-30T18:28:42Z</time>
      </trkpt>
      <trkpt lat="46.48502" lon="-0.08648">
        <ele>164.9</ele>
        <time>2020-05-30T18:28:43Z</time>
      </trkpt>
      <trkpt lat="46.48502" lon="-0.08647">
        <ele>164.9</ele>
        <time>2020-05-30T18:28:44Z</time>
      </trkpt>
      <trkpt lat="46.48502" lon="-0.08647">
        <ele>164.9</ele>
        <time>2020-05-30T18:28:45Z</time>
      </trkpt>
      <trkpt lat="46.48502" lon="-0.08647">
        <ele>164.9</ele>
        <time>2020-05-30T18:28:46Z</time>
      </trkpt>
      <trkpt lat="46.48503" lon="-0.08646">
        <ele>164.9</ele>
        <time>2020-05-30T18:28:47Z</time>
      </trkpt>
      <trkpt lat="46.48503" lon="-0.08645">
        <ele>164.9</ele>
        <time>2020-05-30T18:28:48Z</time>
      </trkpt>
      <trkpt lat="46.48504" lon="-0.08644">
        <ele>164.9</ele>
        <time>2020-05-30T18:28:49Z</time>
      </trkpt>
      <trkpt lat="46.48503" lon="-0.08644">
        <ele>164.9</ele>
        <time>2020-05-30T18:28:50Z</time>
      </trkpt>
      <trkpt lat="46.48503" lon="-0.08644">
        <ele>164.9</ele>
        <time>2020-05-30T18:28:51Z</time>
      </trkpt>
      <trkpt lat="46.48503" lon="-0.08644">
        <ele>164.9</ele>
        <time>2020-05-30T18:28:52Z</time>
      </trkpt>
      <trkpt lat="46.48504" lon="-0.08644">
        <ele>164.9</ele>
        <time>2020-05-30T18:28:53Z</time>
      </trkpt>
      <trkpt lat="46.48503" lon="-0.08644">
        <ele>164.9</ele>
        <time>2020-05-30T18:28:54Z</time>
      </trkpt>
      <trkpt lat="46.48503" lon="-0.08644">
        <ele>164.9</ele>
        <time>2020-05-30T18:28:55Z</time>
      </trkpt>
      <trkpt lat="46.48503" lon="-0.08645">
        <ele>164.9</ele>
        <time>2020-05-30T18:28:56Z</time>
      </trkpt>
      <trkpt lat="46.48503" lon="-0.08644">
        <ele>164.9</ele>
        <time>2020-05-30T18:28:57Z</time>
      </trkpt>
      <trkpt lat="46.48503" lon="-0.08645">
        <ele>164.9</ele>
        <time>2020-05-30T18:28:58Z</time>
      </trkpt>
      <trkpt lat="46.48503" lon="-0.08643">
        <ele>164.9</ele>
        <time>2020-05-30T18:28:59Z</time>
      </trkpt>
      <trkpt lat="46.48503" lon="-0.08643">
        <ele>164.9</ele>
        <time>2020-05-30T18:29:00Z</time>
      </trkpt>
      <trkpt lat="46.48503" lon="-0.08643">
        <ele>164.9</ele>
        <time>2020-05-30T18:29:01Z</time>
      </trkpt>
      <trkpt lat="46.48503" lon="-0.08643">
        <ele>164.9</ele>
        <time>2020-05-30T18:29:02Z</time>
      </trkpt>
      <trkpt lat="46.48503" lon="-0.08643">
        <ele>164.9</ele>
        <time>2020-05-30T18:29:03Z</time>
      </trkpt>
      <trkpt lat="46.48503" lon="-0.08644">
        <ele>164.9</ele>
        <time>2020-05-30T18:29:04Z</time>
      </trkpt>
      <trkpt lat="46.48503" lon="-0.08643">
        <ele>164.9</ele>
        <time>2020-05-30T18:29:05Z</time>
      </trkpt>
      <trkpt lat="46.48503" lon="-0.08644">
        <ele>164.9</ele>
        <time>2020-05-30T18:29:06Z</time>
      </trkpt>
      <trkpt lat="46.48503" lon="-0.08644">
        <ele>164.9</ele>
        <time>2020-05-30T18:29:07Z</time>
      </trkpt>
      <trkpt lat="46.48503" lon="-0.08644">
        <ele>164.9</ele>
        <time>2020-05-30T18:29:08Z</time>
      </trkpt>
      <trkpt lat="46.48503" lon="-0.08644">
        <ele>164.9</ele>
        <time>2020-05-30T18:29:09Z</time>
      </trkpt>
      <trkpt lat="46.48503" lon="-0.08644">
        <ele>164.9</ele>
        <time>2020-05-30T18:29:10Z</time>
      </trkpt>
      <trkpt lat="46.48502" lon="-0.08645">
        <ele>164.9</ele>
        <time>2020-05-30T18:29:11Z</time>
      </trkpt>
      <trkpt lat="46.48502" lon="-0.08645">
        <ele>164.9</ele>
        <time>2020-05-30T18:29:12Z</time>
      </trkpt>
      <trkpt lat="46.48502" lon="-0.08646">
        <ele>164.9</ele>
        <time>2020-05-30T18:29:13Z</time>
      </trkpt>
      <trkpt lat="46.48502" lon="-0.08647">
        <ele>164.9</ele>
        <time>2020-05-30T18:29:14Z</time>
      </trkpt>
      <trkpt lat="46.48502" lon="-0.08647">
        <ele>164.9</ele>
        <time>2020-05-30T18:29:15Z</time>
      </trkpt>
      <trkpt lat="46.48502" lon="-0.08647">
        <ele>164.9</ele>
        <time>2020-05-30T18:29:16Z</time>
      </trkpt>
      <trkpt lat="46.48502" lon="-0.08647">
        <ele>164.9</ele>
        <time>2020-05-30T18:29:17Z</time>
      </trkpt>
      <trkpt lat="46.48502" lon="-0.08646">
        <ele>164.9</ele>
        <time>2020-05-30T18:29:18Z</time>
      </trkpt>
      <trkpt lat="46.48502" lon="-0.08646">
        <ele>164.9</ele>
        <time>2020-05-30T18:29:19Z</time>
      </trkpt>
      <trkpt lat="46.48501" lon="-0.08646">
        <ele>164.9</ele>
        <time>2020-05-30T18:29:20Z</time>
      </trkpt>
      <trkpt lat="46.48501" lon="-0.08646">
        <ele>164.9</ele>
        <time>2020-05-30T18:29:21Z</time>
      </trkpt>
      <trkpt lat="46.48502" lon="-0.08646">
        <ele>164.9</ele>
        <time>2020-05-30T18:29:22Z</time>
      </trkpt>
      <trkpt lat="46.48502" lon="-0.08646">
        <ele>164.9</ele>
        <time>2020-05-30T18:29:23Z</time>
      </trkpt>
      <trkpt lat="46.48502" lon="-0.08646">
        <ele>164.9</ele>
        <time>2020-05-30T18:29:24Z</time>
      </trkpt>
      <trkpt lat="46.48502" lon="-0.08646">
        <ele>164.9</ele>
        <time>2020-05-30T18:29:25Z</time>
      </trkpt>
      <trkpt lat="46.48501" lon="-0.08647">
        <ele>164.9</ele>
        <time>2020-05-30T18:29:26Z</time>
      </trkpt>
      <trkpt lat="46.48501" lon="-0.08647">
        <ele>164.9</ele>
        <time>2020-05-30T18:29:27Z</time>
      </trkpt>
      <trkpt lat="46.48501" lon="-0.08647">
        <ele>164.9</ele>
        <time>2020-05-30T18:29:28Z</time>
      </trkpt>
      <trkpt lat="46.485" lon="-0.08648">
        <ele>164.9</ele>
        <time>2020-05-30T18:29:29Z</time>
      </trkpt>
      <trkpt lat="46.485" lon="-0.08648">
        <ele>164.9</ele>
        <time>2020-05-30T18:29:30Z</time>
      </trkpt>
      <trkpt lat="46.485" lon="-0.08648">
        <ele>164.9</ele>
        <time>2020-05-30T18:29:31Z</time>
      </trkpt>
      <trkpt lat="46.48499" lon="-0.08649">
        <ele>164.9</ele>
        <time>2020-05-30T18:29:32Z</time>
      </trkpt>
      <trkpt lat="46.48499" lon="-0.08649">
        <ele>164.9</ele>
        <time>2020-05-30T18:29:33Z</time>
      </trkpt>
      <trkpt lat="46.48499" lon="-0.08649">
        <ele>164.9</ele>
        <time>2020-05-30T18:29:34Z</time>
      </trkpt>
      <trkpt lat="46.48499" lon="-0.08649">
        <ele>164.9</ele>
        <time>2020-05-30T18:29:35Z</time>
      </trkpt>
      <trkpt lat="46.48499" lon="-0.08649">
        <ele>164.9</ele>
        <time>2020-05-30T18:29:36Z</time>
      </trkpt>
      <trkpt lat="46.485" lon="-0.08648">
        <ele>164.9</ele>
        <time>2020-05-30T18:29:37Z</time>
      </trkpt>
      <trkpt lat="46.48499" lon="-0.08648">
        <ele>164.9</ele>
        <time>2020-05-30T18:29:38Z</time>
      </trkpt>
      <trkpt lat="46.48499" lon="-0.08648">
        <ele>164.9</ele>
        <time>2020-05-30T18:29:39Z</time>
      </trkpt>
      <trkpt lat="46.485" lon="-0.08648">
        <ele>164.9</ele>
        <time>2020-05-30T18:29:40Z</time>
      </trkpt>
      <trkpt lat="46.485" lon="-0.08648">
        <ele>164.9</ele>
        <time>2020-05-30T18:29:41Z</time>
      </trkpt>
      <trkpt lat="46.48501" lon="-0.08649">
        <ele>164.9</ele>
        <time>2020-05-30T18:29:42Z</time>
      </trkpt>
      <trkpt lat="46.48502" lon="-0.08649">
        <ele>164.9</ele>
        <time>2020-05-30T18:29:43Z</time>
      </trkpt>
      <trkpt lat="46.48502" lon="-0.08648">
        <ele>164.9</ele>
        <time>2020-05-30T18:29:44Z</time>
      </trkpt>
      <trkpt lat="46.48502" lon="-0.08648">
        <ele>164.9</ele>
        <time>2020-05-30T18:29:45Z</time>
      </trkpt>
      <trkpt lat="46.48503" lon="-0.08648">
        <ele>164.9</ele>
        <time>2020-05-30T18:29:46Z</time>
      </trkpt>
      <trkpt lat="46.48503" lon="-0.08648">
        <ele>164.9</ele>
        <time>2020-05-30T18:29:47Z</time>
      </trkpt>
      <trkpt lat="46.48505" lon="-0.08647">
        <ele>164.9</ele>
        <time>2020-05-30T18:29:48Z</time>
      </trkpt>
      <trkpt lat="46.48505" lon="-0.08646">
        <ele>164.9</ele>
        <time>2020-05-30T18:29:49Z</time>
      </trkpt>
      <trkpt lat="46.48506" lon="-0.08645">
        <ele>164.9</ele>
        <time>2020-05-30T18:29:50Z</time>
      </trkpt>
      <trkpt lat="46.48506" lon="-0.08645">
        <ele>164.9</ele>
        <time>2020-05-30T18:29:51Z</time>
      </trkpt>
      <trkpt lat="46.48507" lon="-0.08645">
        <ele>164.9</ele>
        <time>2020-05-30T18:29:52Z</time>
      </trkpt>
      <trkpt lat="46.48508" lon="-0.08644">
        <ele>164.9</ele>
        <time>2020-05-30T18:29:53Z</time>
      </trkpt>
      <trkpt lat="46.48508" lon="-0.08643">
        <ele>164.9</ele>
        <time>2020-05-30T18:29:54Z</time>
      </trkpt>
      <trkpt lat="46.48508" lon="-0.08643">
        <ele>164.9</ele>
        <time>2020-05-30T18:29:55Z</time>
      </trkpt>
      <trkpt lat="46.48508" lon="-0.08643">
        <ele>164.9</ele>
        <time>2020-05-30T18:29:56Z</time>
      </trkpt>
      <trkpt lat="46.48508" lon="-0.08642">
        <ele>164.9</ele>
        <time>2020-05-30T18:29:57Z</time>
      </trkpt>
      <trkpt lat="46.48508" lon="-0.08642">
        <ele>164.9</ele>
        <time>2020-05-30T18:29:58Z</time>
      </trkpt>
      <trkpt lat="46.48508" lon="-0.08641">
        <ele>164.9</ele>
        <time>2020-05-30T18:29:59Z</time>
      </trkpt>
      <trkpt lat="46.48508" lon="-0.08641">
        <ele>164.9</ele>
        <time>2020-05-30T18:30:00Z</time>
      </trkpt>
      <trkpt lat="46.48509" lon="-0.08641">
        <ele>164.9</ele>
        <time>2020-05-30T18:30:01Z</time>
      </trkpt>
      <trkpt lat="46.48509" lon="-0.08641">
        <ele>164.9</ele>
        <time>2020-05-30T18:30:02Z</time>
      </trkpt>
      <trkpt lat="46.48509" lon="-0.08641">
        <ele>164.9</ele>
        <time>2020-05-30T18:30:03Z</time>
      </trkpt>
      <trkpt lat="46.48509" lon="-0.08641">
        <ele>164.9</ele>
        <time>2020-05-30T18:30:04Z</time>
      </trkpt>
      <trkpt lat="46.48507" lon="-0.08642">
        <ele>164.9</ele>
        <time>2020-05-30T18:30:05Z</time>
      </trkpt>
      <trkpt lat="46.48507" lon="-0.08643">
        <ele>164.9</ele>
        <time>2020-05-30T18:30:06Z</time>
      </trkpt>
      <trkpt lat="46.48507" lon="-0.08644">
        <ele>164.9</ele>
        <time>2020-05-30T18:30:07Z</time>
      </trkpt>
      <trkpt lat="46.48506" lon="-0.08645">
        <ele>164.9</ele>
        <time>2020-05-30T18:30:08Z</time>
      </trkpt>
      <trkpt lat="46.48505" lon="-0.08645">
        <ele>164.9</ele>
        <time>2020-05-30T18:30:09Z</time>
      </trkpt>
      <trkpt lat="46.48504" lon="-0.08649">
        <ele>164.9</ele>
        <time>2020-05-30T18:30:10Z</time>
      </trkpt>
      <trkpt lat="46.48503" lon="-0.08651">
        <ele>164.9</ele>
        <time>2020-05-30T18:30:11Z</time>
      </trkpt>
      <trkpt lat="46.48502" lon="-0.08655">
        <ele>164.9</ele>
        <time>2020-05-30T18:30:12Z</time>
      </trkpt>
      <trkpt lat="46.485" lon="-0.0866">
        <ele>164.9</ele>
        <time>2020-05-30T18:30:13Z</time>
      </trkpt>
      <trkpt lat="46.48499" lon="-0.08665">
        <ele>164.9</ele>
        <time>2020-05-30T18:30:14Z</time>
      </trkpt>
      <trkpt lat="46.48497" lon="-0.0867">
        <ele>164.9</ele>
        <time>2020-05-30T18:30:15Z</time>
      </trkpt>
      <trkpt lat="46.48496" lon="-0.08672">
        <ele>164.9</ele>
        <time>2020-05-30T18:30:16Z</time>
      </trkpt>
      <trkpt lat="46.48494" lon="-0.08677">
        <ele>164.9</ele>
        <time>2020-05-30T18:30:17Z</time>
      </trkpt>
      <trkpt lat="46.48492" lon="-0.08684">
        <ele>164.9</ele>
        <time>2020-05-30T18:30:18Z</time>
      </trkpt>
      <trkpt lat="46.48489" lon="-0.08688">
        <ele>164.9</ele>
        <time>2020-05-30T18:30:19Z</time>
      </trkpt>
      <trkpt lat="46.48487" lon="-0.08694">
        <ele>164.9</ele>
        <time>2020-05-30T18:30:20Z</time>
      </trkpt>
      <trkpt lat="46.48485" lon="-0.08699">
        <ele>164.9</ele>
        <time>2020-05-30T18:30:21Z</time>
      </trkpt>
      <trkpt lat="46.48483" lon="-0.08705">
        <ele>164.9</ele>
        <time>2020-05-30T18:30:22Z</time>
      </trkpt>
      <trkpt lat="46.48481" lon="-0.08711">
        <ele>164.9</ele>
        <time>2020-05-30T18:30:23Z</time>
      </trkpt>
      <trkpt lat="46.48479" lon="-0.08717">
        <ele>164.9</ele>
        <time>2020-05-30T18:30:24Z</time>
      </trkpt>
      <trkpt lat="46.48477" lon="-0.08723">
        <ele>164.9</ele>
        <time>2020-05-30T18:30:25Z</time>
      </trkpt>
      <trkpt lat="46.48476" lon="-0.08729">
        <ele>164.9</ele>
        <time>2020-05-30T18:30:26Z</time>
      </trkpt>
      <trkpt lat="46.48475" lon="-0.08736">
        <ele>164.9</ele>
        <time>2020-05-30T18:30:27Z</time>
      </trkpt>
      <trkpt lat="46.48473" lon="-0.08742">
        <ele>164.9</ele>
        <time>2020-05-30T18:30:28Z</time>
      </trkpt>
      <trkpt lat="46.48472" lon="-0.08748">
        <ele>164.9</ele>
        <time>2020-05-30T18:30:29Z</time>
      </trkpt>
      <trkpt lat="46.4847" lon="-0.08753">
        <ele>164.9</ele>
        <time>2020-05-30T18:30:30Z</time>
      </trkpt>
      <trkpt lat="46.48468" lon="-0.08759">
        <ele>164.9</ele>
        <time>2020-05-30T18:30:31Z</time>
      </trkpt>
      <trkpt lat="46.48466" lon="-0.08766">
        <ele>164.9</ele>
        <time>2020-05-30T18:30:32Z</time>
      </trkpt>
      <trkpt lat="46.48464" lon="-0.08773">
        <ele>164.9</ele>
        <time>2020-05-30T18:30:33Z</time>
      </trkpt>
      <trkpt lat="46.48462" lon="-0.08779">
        <ele>164.9</ele>
        <time>2020-05-30T18:30:34Z</time>
      </trkpt>
      <trkpt lat="46.48461" lon="-0.08786">
        <ele>164.9</ele>
        <time>2020-05-30T18:30:35Z</time>
      </trkpt>
      <trkpt lat="46.48459" lon="-0.08792">
        <ele>164.9</ele>
        <time>2020-05-30T18:30:36Z</time>
      </trkpt>
      <trkpt lat="46.48457" lon="-0.08798">
        <ele>164.9</ele>
        <time>2020-05-30T18:30:37Z</time>
      </trkpt>
      <trkpt lat="46.48455" lon="-0.08805">
        <ele>164.9</ele>
        <time>2020-05-30T18:30:38Z</time>
      </trkpt>
      <trkpt lat="46.48453" lon="-0.08809">
        <ele>164.9</ele>
        <time>2020-05-30T18:30:39Z</time>
      </trkpt>
      <trkpt lat="46.4845" lon="-0.08816">
        <ele>164.9</ele>
        <time>2020-05-30T18:30:40Z</time>
      </trkpt>
      <trkpt lat="46.48448" lon="-0.08822">
        <ele>164.9</ele>
        <time>2020-05-30T18:30:41Z</time>
      </trkpt>
      <trkpt lat="46.48446" lon="-0.0883">
        <ele>164.9</ele>
        <time>2020-05-30T18:30:42Z</time>
      </trkpt>
      <trkpt lat="46.48444" lon="-0.08838">
        <ele>164.9</ele>
        <time>2020-05-30T18:30:43Z</time>
      </trkpt>
      <trkpt lat="46.48442" lon="-0.08846">
        <ele>164.9</ele>
        <time>2020-05-30T18:30:44Z</time>
      </trkpt>
      <trkpt lat="46.4844" lon="-0.08853">
        <ele>164.9</ele>
        <time>2020-05-30T18:30:45Z</time>
      </trkpt>
      <trkpt lat="46.48437" lon="-0.0886">
        <ele>164.9</ele>
        <time>2020-05-30T18:30:46Z</time>
      </trkpt>
      <trkpt lat="46.48435" lon="-0.08868">
        <ele>164.9</ele>
        <time>2020-05-30T18:30:47Z</time>
      </trkpt>
      <trkpt lat="46.48432" lon="-0.08875">
        <ele>165</ele>
        <time>2020-05-30T18:30:48Z</time>
      </trkpt>
      <trkpt lat="46.4843" lon="-0.08882">
        <ele>165</ele>
        <time>2020-05-30T18:30:49Z</time>
      </trkpt>
      <trkpt lat="46.48427" lon="-0.08889">
        <ele>165</ele>
        <time>2020-05-30T18:30:50Z</time>
      </trkpt>
      <trkpt lat="46.48425" lon="-0.08896">
        <ele>165</ele>
        <time>2020-05-30T18:30:51Z</time>
      </trkpt>
      <trkpt lat="46.48422" lon="-0.08903">
        <ele>165</ele>
        <time>2020-05-30T18:30:52Z</time>
      </trkpt>
      <trkpt lat="46.4842" lon="-0.08911">
        <ele>165.1</ele>
        <time>2020-05-30T18:30:53Z</time>
      </trkpt>
      <trkpt lat="46.48419" lon="-0.08919">
        <ele>165.1</ele>
        <time>2020-05-30T18:30:54Z</time>
      </trkpt>
      <trkpt lat="46.48417" lon="-0.08925">
        <ele>165.1</ele>
        <time>2020-05-30T18:30:55Z</time>
      </trkpt>
      <trkpt lat="46.48414" lon="-0.08933">
        <ele>165.2</ele>
        <time>2020-05-30T18:30:56Z</time>
      </trkpt>
      <trkpt lat="46.48411" lon="-0.08941">
        <ele>165.2</ele>
        <time>2020-05-30T18:30:57Z</time>
      </trkpt>
      <trkpt lat="46.48408" lon="-0.08948">
        <ele>165.3</ele>
        <time>2020-05-30T18:30:58Z</time>
      </trkpt>
      <trkpt lat="46.48406" lon="-0.08955">
        <ele>165.3</ele>
        <time>2020-05-30T18:30:59Z</time>
      </trkpt>
      <trkpt lat="46.48403" lon="-0.08962">
        <ele>165.3</ele>
        <time>2020-05-30T18:31:00Z</time>
      </trkpt>
      <trkpt lat="46.48401" lon="-0.08971">
        <ele>165.3</ele>
        <time>2020-05-30T18:31:01Z</time>
      </trkpt>
      <trkpt lat="46.48399" lon="-0.08978">
        <ele>165.4</ele>
        <time>2020-05-30T18:31:02Z</time>
      </trkpt>
      <trkpt lat="46.48397" lon="-0.08986">
        <ele>165.4</ele>
        <time>2020-05-30T18:31:03Z</time>
      </trkpt>
      <trkpt lat="46.48395" lon="-0.08994">
        <ele>165.4</ele>
        <time>2020-05-30T18:31:04Z</time>
      </trkpt>
      <trkpt lat="46.48393" lon="-0.09001">
        <ele>165.4</ele>
        <time>2020-05-30T18:31:05Z</time>
      </trkpt>
      <trkpt lat="46.48391" lon="-0.09009">
        <ele>165.4</ele>
        <time>2020-05-30T18:31:06Z</time>
      </trkpt>
      <trkpt lat="46.48389" lon="-0.09016">
        <ele>165.4</ele>
        <time>2020-05-30T18:31:07Z</time>
      </trkpt>
      <trkpt lat="46.48386" lon="-0.09024">
        <ele>165.4</ele>
        <time>2020-05-30T18:31:08Z</time>
      </trkpt>
      <trkpt lat="46.48383" lon="-0.09031">
        <ele>165.4</ele>
        <time>2020-05-30T18:31:09Z</time>
      </trkpt>
      <trkpt lat="46.48381" lon="-0.09038">
        <ele>165.4</ele>
        <time>2020-05-30T18:31:10Z</time>
      </trkpt>
      <trkpt lat="46.48379" lon="-0.09045">
        <ele>165.5</ele>
        <time>2020-05-30T18:31:11Z</time>
      </trkpt>
      <trkpt lat="46.48377" lon="-0.09052">
        <ele>165.5</ele>
        <time>2020-05-30T18:31:12Z</time>
      </trkpt>
      <trkpt lat="46.48374" lon="-0.0906">
        <ele>165.5</ele>
        <time>2020-05-30T18:31:13Z</time>
      </trkpt>
      <trkpt lat="46.48373" lon="-0.09066">
        <ele>165.5</ele>
        <time>2020-05-30T18:31:14Z</time>
      </trkpt>
      <trkpt lat="46.48371" lon="-0.09073">
        <ele>165.5</ele>
        <time>2020-05-30T18:31:15Z</time>
      </trkpt>
      <trkpt lat="46.48369" lon="-0.09081">
        <ele>165.5</ele>
        <time>2020-05-30T18:31:16Z</time>
      </trkpt>
      <trkpt lat="46.48367" lon="-0.09088">
        <ele>165.5</ele>
        <time>2020-05-30T18:31:17Z</time>
      </trkpt>
      <trkpt lat="46.48365" lon="-0.09095">
        <ele>165.5</ele>
        <time>2020-05-30T18:31:18Z</time>
      </trkpt>
      <trkpt lat="46.48363" lon="-0.09103">
        <ele>165.5</ele>
        <time>2020-05-30T18:31:19Z</time>
      </trkpt>
      <trkpt lat="46.48361" lon="-0.0911">
        <ele>165.5</ele>
        <time>2020-05-30T18:31:20Z</time>
      </trkpt>
      <trkpt lat="46.48358" lon="-0.09118">
        <ele>165.5</ele>
        <time>2020-05-30T18:31:21Z</time>
      </trkpt>
      <trkpt lat="46.48356" lon="-0.09125">
        <ele>165.5</ele>
        <time>2020-05-30T18:31:22Z</time>
      </trkpt>
      <trkpt lat="46.48353" lon="-0.09132">
        <ele>165.5</ele>
        <time>2020-05-30T18:31:23Z</time>
      </trkpt>
      <trkpt lat="46.48352" lon="-0.0914">
        <ele>165.5</ele>
        <time>2020-05-30T18:31:24Z</time>
      </trkpt>
      <trkpt lat="46.4835" lon="-0.09148">
        <ele>165.5</ele>
        <time>2020-05-30T18:31:25Z</time>
      </trkpt>
      <trkpt lat="46.48348" lon="-0.09157">
        <ele>165.5</ele>
        <time>2020-05-30T18:31:26Z</time>
      </trkpt>
      <trkpt lat="46.48345" lon="-0.09163">
        <ele>165.6</ele>
        <time>2020-05-30T18:31:27Z</time>
      </trkpt>
      <trkpt lat="46.48343" lon="-0.09171">
        <ele>165.6</ele>
        <time>2020-05-30T18:31:28Z</time>
      </trkpt>
      <trkpt lat="46.48341" lon="-0.09177">
        <ele>165.7</ele>
        <time>2020-05-30T18:31:29Z</time>
      </trkpt>
      <trkpt lat="46.48339" lon="-0.09185">
        <ele>165.8</ele>
        <time>2020-05-30T18:31:30Z</time>
      </trkpt>
      <trkpt lat="46.48337" lon="-0.09192">
        <ele>165.9</ele>
        <time>2020-05-30T18:31:31Z</time>
      </trkpt>
      <trkpt lat="46.48335" lon="-0.09198">
        <ele>166</ele>
        <time>2020-05-30T18:31:32Z</time>
      </trkpt>
      <trkpt lat="46.48332" lon="-0.09205">
        <ele>166.1</ele>
        <time>2020-05-30T18:31:33Z</time>
      </trkpt>
      <trkpt lat="46.4833" lon="-0.09212">
        <ele>166.2</ele>
        <time>2020-05-30T18:31:34Z</time>
      </trkpt>
      <trkpt lat="46.48327" lon="-0.0922">
        <ele>166.3</ele>
        <time>2020-05-30T18:31:35Z</time>
      </trkpt>
      <trkpt lat="46.48325" lon="-0.09228">
        <ele>166.3</ele>
        <time>2020-05-30T18:31:36Z</time>
      </trkpt>
      <trkpt lat="46.48323" lon="-0.09236">
        <ele>166.4</ele>
        <time>2020-05-30T18:31:37Z</time>
      </trkpt>
      <trkpt lat="46.4832" lon="-0.09243">
        <ele>166.4</ele>
        <time>2020-05-30T18:31:38Z</time>
      </trkpt>
      <trkpt lat="46.48318" lon="-0.0925">
        <ele>166.4</ele>
        <time>2020-05-30T18:31:39Z</time>
      </trkpt>
      <trkpt lat="46.48315" lon="-0.09257">
        <ele>166.4</ele>
        <time>2020-05-30T18:31:40Z</time>
      </trkpt>
      <trkpt lat="46.48313" lon="-0.09263">
        <ele>166.4</ele>
        <time>2020-05-30T18:31:41Z</time>
      </trkpt>
      <trkpt lat="46.48311" lon="-0.0927">
        <ele>166.5</ele>
        <time>2020-05-30T18:31:42Z</time>
      </trkpt>
      <trkpt lat="46.48308" lon="-0.09278">
        <ele>166.5</ele>
        <time>2020-05-30T18:31:43Z</time>
      </trkpt>
      <trkpt lat="46.48306" lon="-0.09286">
        <ele>166.5</ele>
        <time>2020-05-30T18:31:44Z</time>
      </trkpt>
      <trkpt lat="46.48304" lon="-0.09293">
        <ele>166.6</ele>
        <time>2020-05-30T18:31:45Z</time>
      </trkpt>
      <trkpt lat="46.48303" lon="-0.09301">
        <ele>166.6</ele>
        <time>2020-05-30T18:31:46Z</time>
      </trkpt>
      <trkpt lat="46.483" lon="-0.09308">
        <ele>166.6</ele>
        <time>2020-05-30T18:31:47Z</time>
      </trkpt>
      <trkpt lat="46.48297" lon="-0.09317">
        <ele>166.7</ele>
        <time>2020-05-30T18:31:48Z</time>
      </trkpt>
      <trkpt lat="46.48295" lon="-0.09324">
        <ele>166.7</ele>
        <time>2020-05-30T18:31:49Z</time>
      </trkpt>
      <trkpt lat="46.48293" lon="-0.09331">
        <ele>166.8</ele>
        <time>2020-05-30T18:31:50Z</time>
      </trkpt>
      <trkpt lat="46.48291" lon="-0.09339">
        <ele>166.9</ele>
        <time>2020-05-30T18:31:51Z</time>
      </trkpt>
      <trkpt lat="46.48289" lon="-0.09347">
        <ele>167</ele>
        <time>2020-05-30T18:31:52Z</time>
      </trkpt>
      <trkpt lat="46.48287" lon="-0.09356">
        <ele>167.1</ele>
        <time>2020-05-30T18:31:53Z</time>
      </trkpt>
      <trkpt lat="46.48285" lon="-0.09364">
        <ele>167.2</ele>
        <time>2020-05-30T18:31:54Z</time>
      </trkpt>
      <trkpt lat="46.48283" lon="-0.09372">
        <ele>167.3</ele>
        <time>2020-05-30T18:31:55Z</time>
      </trkpt>
      <trkpt lat="46.48281" lon="-0.0938">
        <ele>167.3</ele>
        <time>2020-05-30T18:31:56Z</time>
      </trkpt>
      <trkpt lat="46.48279" lon="-0.09386">
        <ele>167.4</ele>
        <time>2020-05-30T18:31:57Z</time>
      </trkpt>
      <trkpt lat="46.48278" lon="-0.09393">
        <ele>167.4</ele>
        <time>2020-05-30T18:31:58Z</time>
      </trkpt>
      <trkpt lat="46.48277" lon="-0.094">
        <ele>167.5</ele>
        <time>2020-05-30T18:31:59Z</time>
      </trkpt>
      <trkpt lat="46.48276" lon="-0.09407">
        <ele>167.5</ele>
        <time>2020-05-30T18:32:00Z</time>
      </trkpt>
      <trkpt lat="46.48274" lon="-0.09415">
        <ele>167.6</ele>
        <time>2020-05-30T18:32:01Z</time>
      </trkpt>
      <trkpt lat="46.48272" lon="-0.09424">
        <ele>167.6</ele>
        <time>2020-05-30T18:32:02Z</time>
      </trkpt>
      <trkpt lat="46.48271" lon="-0.09432">
        <ele>167.7</ele>
        <time>2020-05-30T18:32:03Z</time>
      </trkpt>
      <trkpt lat="46.48269" lon="-0.0944">
        <ele>167.7</ele>
        <time>2020-05-30T18:32:04Z</time>
      </trkpt>
      <trkpt lat="46.48268" lon="-0.09447">
        <ele>167.7</ele>
        <time>2020-05-30T18:32:05Z</time>
      </trkpt>
      <trkpt lat="46.48267" lon="-0.09455">
        <ele>167.7</ele>
        <time>2020-05-30T18:32:06Z</time>
      </trkpt>
      <trkpt lat="46.48266" lon="-0.09464">
        <ele>167.7</ele>
        <time>2020-05-30T18:32:07Z</time>
      </trkpt>
      <trkpt lat="46.48265" lon="-0.09472">
        <ele>167.8</ele>
        <time>2020-05-30T18:32:08Z</time>
      </trkpt>
      <trkpt lat="46.48264" lon="-0.0948">
        <ele>167.8</ele>
        <time>2020-05-30T18:32:09Z</time>
      </trkpt>
      <trkpt lat="46.48264" lon="-0.09489">
        <ele>167.9</ele>
        <time>2020-05-30T18:32:10Z</time>
      </trkpt>
      <trkpt lat="46.48264" lon="-0.09497">
        <ele>168.1</ele>
        <time>2020-05-30T18:32:11Z</time>
      </trkpt>
      <trkpt lat="46.48263" lon="-0.09506">
        <ele>168.3</ele>
        <time>2020-05-30T18:32:12Z</time>
      </trkpt>
      <trkpt lat="46.48263" lon="-0.09514">
        <ele>168.4</ele>
        <time>2020-05-30T18:32:13Z</time>
      </trkpt>
      <trkpt lat="46.48264" lon="-0.09521">
        <ele>168.5</ele>
        <time>2020-05-30T18:32:14Z</time>
      </trkpt>
      <trkpt lat="46.48264" lon="-0.09529">
        <ele>168.6</ele>
        <time>2020-05-30T18:32:15Z</time>
      </trkpt>
      <trkpt lat="46.48263" lon="-0.09537">
        <ele>168.7</ele>
        <time>2020-05-30T18:32:16Z</time>
      </trkpt>
      <trkpt lat="46.48263" lon="-0.09546">
        <ele>168.7</ele>
        <time>2020-05-30T18:32:17Z</time>
      </trkpt>
      <trkpt lat="46.48263" lon="-0.09554">
        <ele>168.8</ele>
        <time>2020-05-30T18:32:18Z</time>
      </trkpt>
      <trkpt lat="46.48263" lon="-0.09562">
        <ele>168.8</ele>
        <time>2020-05-30T18:32:19Z</time>
      </trkpt>
      <trkpt lat="46.48262" lon="-0.09571">
        <ele>168.8</ele>
        <time>2020-05-30T18:32:20Z</time>
      </trkpt>
      <trkpt lat="46.48261" lon="-0.09579">
        <ele>168.9</ele>
        <time>2020-05-30T18:32:21Z</time>
      </trkpt>
      <trkpt lat="46.48261" lon="-0.09586">
        <ele>168.9</ele>
        <time>2020-05-30T18:32:22Z</time>
      </trkpt>
      <trkpt lat="46.4826" lon="-0.09594">
        <ele>169</ele>
        <time>2020-05-30T18:32:23Z</time>
      </trkpt>
      <trkpt lat="46.4826" lon="-0.09603">
        <ele>169.1</ele>
        <time>2020-05-30T18:32:24Z</time>
      </trkpt>
      <trkpt lat="46.4826" lon="-0.0961">
        <ele>169.2</ele>
        <time>2020-05-30T18:32:25Z</time>
      </trkpt>
      <trkpt lat="46.48259" lon="-0.09619">
        <ele>169.3</ele>
        <time>2020-05-30T18:32:26Z</time>
      </trkpt>
      <trkpt lat="46.48258" lon="-0.09627">
        <ele>169.4</ele>
        <time>2020-05-30T18:32:27Z</time>
      </trkpt>
      <trkpt lat="46.48258" lon="-0.09636">
        <ele>169.5</ele>
        <time>2020-05-30T18:32:28Z</time>
      </trkpt>
      <trkpt lat="46.48256" lon="-0.09643">
        <ele>169.6</ele>
        <time>2020-05-30T18:32:29Z</time>
      </trkpt>
      <trkpt lat="46.48256" lon="-0.09653">
        <ele>169.7</ele>
        <time>2020-05-30T18:32:30Z</time>
      </trkpt>
      <trkpt lat="46.48255" lon="-0.09661">
        <ele>169.8</ele>
        <time>2020-05-30T18:32:31Z</time>
      </trkpt>
      <trkpt lat="46.48255" lon="-0.09669">
        <ele>169.8</ele>
        <time>2020-05-30T18:32:32Z</time>
      </trkpt>
      <trkpt lat="46.48254" lon="-0.09676">
        <ele>169.9</ele>
        <time>2020-05-30T18:32:33Z</time>
      </trkpt>
      <trkpt lat="46.48254" lon="-0.09683">
        <ele>169.9</ele>
        <time>2020-05-30T18:32:34Z</time>
      </trkpt>
      <trkpt lat="46.48255" lon="-0.0969">
        <ele>170</ele>
        <time>2020-05-30T18:32:35Z</time>
      </trkpt>
      <trkpt lat="46.48255" lon="-0.09699">
        <ele>170</ele>
        <time>2020-05-30T18:32:36Z</time>
      </trkpt>
      <trkpt lat="46.48253" lon="-0.09707">
        <ele>170.1</ele>
        <time>2020-05-30T18:32:37Z</time>
      </trkpt>
      <trkpt lat="46.48253" lon="-0.09714">
        <ele>170.2</ele>
        <time>2020-05-30T18:32:38Z</time>
      </trkpt>
      <trkpt lat="46.48253" lon="-0.09724">
        <ele>170.3</ele>
        <time>2020-05-30T18:32:39Z</time>
      </trkpt>
      <trkpt lat="46.48253" lon="-0.09732">
        <ele>170.4</ele>
        <time>2020-05-30T18:32:40Z</time>
      </trkpt>
      <trkpt lat="46.48253" lon="-0.09738">
        <ele>170.5</ele>
        <time>2020-05-30T18:32:41Z</time>
      </trkpt>
      <trkpt lat="46.48252" lon="-0.09747">
        <ele>170.7</ele>
        <time>2020-05-30T18:32:42Z</time>
      </trkpt>
      <trkpt lat="46.48251" lon="-0.09755">
        <ele>170.7</ele>
        <time>2020-05-30T18:32:43Z</time>
      </trkpt>
      <trkpt lat="46.48251" lon="-0.09762">
        <ele>170.8</ele>
        <time>2020-05-30T18:32:44Z</time>
      </trkpt>
      <trkpt lat="46.48251" lon="-0.09771">
        <ele>170.8</ele>
        <time>2020-05-30T18:32:45Z</time>
      </trkpt>
      <trkpt lat="46.48251" lon="-0.09779">
        <ele>170.9</ele>
        <time>2020-05-30T18:32:46Z</time>
      </trkpt>
      <trkpt lat="46.48251" lon="-0.09787">
        <ele>170.9</ele>
        <time>2020-05-30T18:32:47Z</time>
      </trkpt>
      <trkpt lat="46.4825" lon="-0.09796">
        <ele>170.9</ele>
        <time>2020-05-30T18:32:48Z</time>
      </trkpt>
      <trkpt lat="46.4825" lon="-0.09804">
        <ele>171</ele>
        <time>2020-05-30T18:32:49Z</time>
      </trkpt>
      <trkpt lat="46.4825" lon="-0.09812">
        <ele>171</ele>
        <time>2020-05-30T18:32:50Z</time>
      </trkpt>
      <trkpt lat="46.4825" lon="-0.0982">
        <ele>171</ele>
        <time>2020-05-30T18:32:51Z</time>
      </trkpt>
      <trkpt lat="46.48249" lon="-0.09828">
        <ele>171.1</ele>
        <time>2020-05-30T18:32:52Z</time>
      </trkpt>
      <trkpt lat="46.48249" lon="-0.09835">
        <ele>171.1</ele>
        <time>2020-05-30T18:32:53Z</time>
      </trkpt>
      <trkpt lat="46.48249" lon="-0.09844">
        <ele>171.1</ele>
        <time>2020-05-30T18:32:54Z</time>
      </trkpt>
      <trkpt lat="46.48249" lon="-0.09851">
        <ele>171.2</ele>
        <time>2020-05-30T18:32:55Z</time>
      </trkpt>
      <trkpt lat="46.48249" lon="-0.09859">
        <ele>171.2</ele>
        <time>2020-05-30T18:32:56Z</time>
      </trkpt>
      <trkpt lat="46.48249" lon="-0.09867">
        <ele>171.3</ele>
        <time>2020-05-30T18:32:57Z</time>
      </trkpt>
      <trkpt lat="46.48248" lon="-0.09875">
        <ele>171.4</ele>
        <time>2020-05-30T18:32:58Z</time>
      </trkpt>
      <trkpt lat="46.48248" lon="-0.09881">
        <ele>171.5</ele>
        <time>2020-05-30T18:32:59Z</time>
      </trkpt>
      <trkpt lat="46.48247" lon="-0.0989">
        <ele>171.6</ele>
        <time>2020-05-30T18:33:00Z</time>
      </trkpt>
      <trkpt lat="46.48245" lon="-0.09898">
        <ele>171.7</ele>
        <time>2020-05-30T18:33:01Z</time>
      </trkpt>
      <trkpt lat="46.48244" lon="-0.09906">
        <ele>171.9</ele>
        <time>2020-05-30T18:33:02Z</time>
      </trkpt>
      <trkpt lat="46.48243" lon="-0.09914">
        <ele>172</ele>
        <time>2020-05-30T18:33:03Z</time>
      </trkpt>
      <trkpt lat="46.48241" lon="-0.09921">
        <ele>172.1</ele>
        <time>2020-05-30T18:33:04Z</time>
      </trkpt>
      <trkpt lat="46.48241" lon="-0.09926">
        <ele>172.1</ele>
        <time>2020-05-30T18:33:05Z</time>
      </trkpt>
      <trkpt lat="46.4824" lon="-0.09934">
        <ele>172.2</ele>
        <time>2020-05-30T18:33:06Z</time>
      </trkpt>
      <trkpt lat="46.48238" lon="-0.09942">
        <ele>172.3</ele>
        <time>2020-05-30T18:33:07Z</time>
      </trkpt>
      <trkpt lat="46.48236" lon="-0.0995">
        <ele>172.4</ele>
        <time>2020-05-30T18:33:08Z</time>
      </trkpt>
      <trkpt lat="46.48234" lon="-0.09958">
        <ele>172.5</ele>
        <time>2020-05-30T18:33:09Z</time>
      </trkpt>
      <trkpt lat="46.48233" lon="-0.09966">
        <ele>172.7</ele>
        <time>2020-05-30T18:33:10Z</time>
      </trkpt>
      <trkpt lat="46.48231" lon="-0.09973">
        <ele>172.8</ele>
        <time>2020-05-30T18:33:11Z</time>
      </trkpt>
      <trkpt lat="46.48229" lon="-0.09979">
        <ele>172.9</ele>
        <time>2020-05-30T18:33:12Z</time>
      </trkpt>
      <trkpt lat="46.48226" lon="-0.09986">
        <ele>173</ele>
        <time>2020-05-30T18:33:13Z</time>
      </trkpt>
      <trkpt lat="46.48224" lon="-0.09992">
        <ele>173.1</ele>
        <time>2020-05-30T18:33:14Z</time>
      </trkpt>
      <trkpt lat="46.48221" lon="-0.09998">
        <ele>173.2</ele>
        <time>2020-05-30T18:33:15Z</time>
      </trkpt>
      <trkpt lat="46.48219" lon="-0.10004">
        <ele>173.2</ele>
        <time>2020-05-30T18:33:16Z</time>
      </trkpt>
      <trkpt lat="46.48217" lon="-0.1001">
        <ele>173.4</ele>
        <time>2020-05-30T18:33:17Z</time>
      </trkpt>
      <trkpt lat="46.48215" lon="-0.10016">
        <ele>173.5</ele>
        <time>2020-05-30T18:33:18Z</time>
      </trkpt>
      <trkpt lat="46.48212" lon="-0.10022">
        <ele>173.6</ele>
        <time>2020-05-30T18:33:19Z</time>
      </trkpt>
      <trkpt lat="46.48211" lon="-0.10028">
        <ele>173.7</ele>
        <time>2020-05-30T18:33:20Z</time>
      </trkpt>
      <trkpt lat="46.48209" lon="-0.10034">
        <ele>173.8</ele>
        <time>2020-05-30T18:33:21Z</time>
      </trkpt>
      <trkpt lat="46.48206" lon="-0.1004">
        <ele>173.9</ele>
        <time>2020-05-30T18:33:22Z</time>
      </trkpt>
      <trkpt lat="46.48204" lon="-0.10046">
        <ele>174</ele>
        <time>2020-05-30T18:33:23Z</time>
      </trkpt>
      <trkpt lat="46.48201" lon="-0.10052">
        <ele>174.1</ele>
        <time>2020-05-30T18:33:24Z</time>
      </trkpt>
      <trkpt lat="46.48198" lon="-0.10058">
        <ele>174.2</ele>
        <time>2020-05-30T18:33:25Z</time>
      </trkpt>
      <trkpt lat="46.48195" lon="-0.10066">
        <ele>174.4</ele>
        <time>2020-05-30T18:33:26Z</time>
      </trkpt>
      <trkpt lat="46.48192" lon="-0.10071">
        <ele>174.5</ele>
        <time>2020-05-30T18:33:27Z</time>
      </trkpt>
      <trkpt lat="46.48189" lon="-0.10078">
        <ele>174.6</ele>
        <time>2020-05-30T18:33:28Z</time>
      </trkpt>
      <trkpt lat="46.48186" lon="-0.10084">
        <ele>174.7</ele>
        <time>2020-05-30T18:33:29Z</time>
      </trkpt>
      <trkpt lat="46.48183" lon="-0.10089">
        <ele>174.8</ele>
        <time>2020-05-30T18:33:30Z</time>
      </trkpt>
      <trkpt lat="46.48181" lon="-0.10096">
        <ele>175</ele>
        <time>2020-05-30T18:33:31Z</time>
      </trkpt>
      <trkpt lat="46.48179" lon="-0.10103">
        <ele>175.1</ele>
        <time>2020-05-30T18:33:32Z</time>
      </trkpt>
      <trkpt lat="46.48176" lon="-0.1011">
        <ele>175.3</ele>
        <time>2020-05-30T18:33:33Z</time>
      </trkpt>
      <trkpt lat="46.48174" lon="-0.10117">
        <ele>175.4</ele>
        <time>2020-05-30T18:33:34Z</time>
      </trkpt>
      <trkpt lat="46.48172" lon="-0.10124">
        <ele>175.5</ele>
        <time>2020-05-30T18:33:35Z</time>
      </trkpt>
      <trkpt lat="46.48169" lon="-0.1013">
        <ele>175.6</ele>
        <time>2020-05-30T18:33:36Z</time>
      </trkpt>
      <trkpt lat="46.48166" lon="-0.10136">
        <ele>175.7</ele>
        <time>2020-05-30T18:33:37Z</time>
      </trkpt>
      <trkpt lat="46.48163" lon="-0.10142">
        <ele>175.8</ele>
        <time>2020-05-30T18:33:38Z</time>
      </trkpt>
      <trkpt lat="46.4816" lon="-0.10147">
        <ele>175.9</ele>
        <time>2020-05-30T18:33:39Z</time>
      </trkpt>
      <trkpt lat="46.48157" lon="-0.10153">
        <ele>176</ele>
        <time>2020-05-30T18:33:40Z</time>
      </trkpt>
      <trkpt lat="46.48155" lon="-0.10159">
        <ele>176.1</ele>
        <time>2020-05-30T18:33:41Z</time>
      </trkpt>
      <trkpt lat="46.48152" lon="-0.10165">
        <ele>176.2</ele>
        <time>2020-05-30T18:33:42Z</time>
      </trkpt>
      <trkpt lat="46.4815" lon="-0.10171">
        <ele>176.3</ele>
        <time>2020-05-30T18:33:43Z</time>
      </trkpt>
      <trkpt lat="46.48148" lon="-0.10176">
        <ele>176.4</ele>
        <time>2020-05-30T18:33:44Z</time>
      </trkpt>
      <trkpt lat="46.48146" lon="-0.10182">
        <ele>176.5</ele>
        <time>2020-05-30T18:33:45Z</time>
      </trkpt>
      <trkpt lat="46.48143" lon="-0.10189">
        <ele>176.6</ele>
        <time>2020-05-30T18:33:46Z</time>
      </trkpt>
      <trkpt lat="46.4814" lon="-0.10196">
        <ele>176.7</ele>
        <time>2020-05-30T18:33:47Z</time>
      </trkpt>
      <trkpt lat="46.48137" lon="-0.10202">
        <ele>176.8</ele>
        <time>2020-05-30T18:33:48Z</time>
      </trkpt>
      <trkpt lat="46.48133" lon="-0.10208">
        <ele>176.9</ele>
        <time>2020-05-30T18:33:49Z</time>
      </trkpt>
      <trkpt lat="46.48131" lon="-0.10214">
        <ele>177</ele>
        <time>2020-05-30T18:33:50Z</time>
      </trkpt>
      <trkpt lat="46.48129" lon="-0.1022">
        <ele>177.1</ele>
        <time>2020-05-30T18:33:51Z</time>
      </trkpt>
      <trkpt lat="46.48126" lon="-0.10225">
        <ele>177.2</ele>
        <time>2020-05-30T18:33:52Z</time>
      </trkpt>
      <trkpt lat="46.48124" lon="-0.1023">
        <ele>177.3</ele>
        <time>2020-05-30T18:33:53Z</time>
      </trkpt>
      <trkpt lat="46.48121" lon="-0.10235">
        <ele>177.4</ele>
        <time>2020-05-30T18:33:54Z</time>
      </trkpt>
      <trkpt lat="46.48119" lon="-0.10239">
        <ele>177.5</ele>
        <time>2020-05-30T18:33:55Z</time>
      </trkpt>
      <trkpt lat="46.48117" lon="-0.10244">
        <ele>177.6</ele>
        <time>2020-05-30T18:33:56Z</time>
      </trkpt>
      <trkpt lat="46.48115" lon="-0.1025">
        <ele>177.7</ele>
        <time>2020-05-30T18:33:57Z</time>
      </trkpt>
      <trkpt lat="46.48113" lon="-0.10254">
        <ele>177.8</ele>
        <time>2020-05-30T18:33:58Z</time>
      </trkpt>
      <trkpt lat="46.48111" lon="-0.1026">
        <ele>177.9</ele>
        <time>2020-05-30T18:33:59Z</time>
      </trkpt>
      <trkpt lat="46.48109" lon="-0.10265">
        <ele>178</ele>
        <time>2020-05-30T18:34:00Z</time>
      </trkpt>
      <trkpt lat="46.48107" lon="-0.10269">
        <ele>178.1</ele>
        <time>2020-05-30T18:34:01Z</time>
      </trkpt>
      <trkpt lat="46.48105" lon="-0.10274">
        <ele>178.2</ele>
        <time>2020-05-30T18:34:02Z</time>
      </trkpt>
      <trkpt lat="46.48103" lon="-0.10279">
        <ele>178.3</ele>
        <time>2020-05-30T18:34:03Z</time>
      </trkpt>
      <trkpt lat="46.48101" lon="-0.10285">
        <ele>178.4</ele>
        <time>2020-05-30T18:34:04Z</time>
      </trkpt>
      <trkpt lat="46.48099" lon="-0.1029">
        <ele>178.4</ele>
        <time>2020-05-30T18:34:05Z</time>
      </trkpt>
      <trkpt lat="46.48097" lon="-0.10295">
        <ele>178.5</ele>
        <time>2020-05-30T18:34:06Z</time>
      </trkpt>
      <trkpt lat="46.48095" lon="-0.10299">
        <ele>178.6</ele>
        <time>2020-05-30T18:34:07Z</time>
      </trkpt>
      <trkpt lat="46.48094" lon="-0.10304">
        <ele>178.7</ele>
        <time>2020-05-30T18:34:08Z</time>
      </trkpt>
      <trkpt lat="46.48092" lon="-0.10309">
        <ele>178.8</ele>
        <time>2020-05-30T18:34:09Z</time>
      </trkpt>
      <trkpt lat="46.48089" lon="-0.10314">
        <ele>178.9</ele>
        <time>2020-05-30T18:34:10Z</time>
      </trkpt>
      <trkpt lat="46.48087" lon="-0.10319">
        <ele>179</ele>
        <time>2020-05-30T18:34:11Z</time>
      </trkpt>
      <trkpt lat="46.48085" lon="-0.10324">
        <ele>179.1</ele>
        <time>2020-05-30T18:34:12Z</time>
      </trkpt>
      <trkpt lat="46.48083" lon="-0.10329">
        <ele>179.2</ele>
        <time>2020-05-30T18:34:13Z</time>
      </trkpt>
      <trkpt lat="46.48081" lon="-0.10334">
        <ele>179.4</ele>
        <time>2020-05-30T18:34:14Z</time>
      </trkpt>
      <trkpt lat="46.48078" lon="-0.10337">
        <ele>179.4</ele>
        <time>2020-05-30T18:34:15Z</time>
      </trkpt>
      <trkpt lat="46.48076" lon="-0.10341">
        <ele>179.5</ele>
        <time>2020-05-30T18:34:16Z</time>
      </trkpt>
      <trkpt lat="46.48074" lon="-0.10344">
        <ele>179.6</ele>
        <time>2020-05-30T18:34:17Z</time>
      </trkpt>
      <trkpt lat="46.48072" lon="-0.10349">
        <ele>179.8</ele>
        <time>2020-05-30T18:34:18Z</time>
      </trkpt>
      <trkpt lat="46.48069" lon="-0.10353">
        <ele>179.9</ele>
        <time>2020-05-30T18:34:19Z</time>
      </trkpt>
      <trkpt lat="46.48068" lon="-0.10358">
        <ele>180</ele>
        <time>2020-05-30T18:34:20Z</time>
      </trkpt>
      <trkpt lat="46.48064" lon="-0.10363">
        <ele>180.1</ele>
        <time>2020-05-30T18:34:21Z</time>
      </trkpt>
      <trkpt lat="46.48062" lon="-0.10367">
        <ele>180.3</ele>
        <time>2020-05-30T18:34:22Z</time>
      </trkpt>
      <trkpt lat="46.4806" lon="-0.10371">
        <ele>180.4</ele>
        <time>2020-05-30T18:34:23Z</time>
      </trkpt>
      <trkpt lat="46.48056" lon="-0.10375">
        <ele>180.6</ele>
        <time>2020-05-30T18:34:24Z</time>
      </trkpt>
      <trkpt lat="46.48053" lon="-0.1038">
        <ele>180.7</ele>
        <time>2020-05-30T18:34:25Z</time>
      </trkpt>
      <trkpt lat="46.48051" lon="-0.10383">
        <ele>180.8</ele>
        <time>2020-05-30T18:34:26Z</time>
      </trkpt>
      <trkpt lat="46.48048" lon="-0.10387">
        <ele>181</ele>
        <time>2020-05-30T18:34:27Z</time>
      </trkpt>
      <trkpt lat="46.48045" lon="-0.10392">
        <ele>181.1</ele>
        <time>2020-05-30T18:34:28Z</time>
      </trkpt>
      <trkpt lat="46.48043" lon="-0.10395">
        <ele>181.2</ele>
        <time>2020-05-30T18:34:29Z</time>
      </trkpt>
      <trkpt lat="46.4804" lon="-0.10397">
        <ele>181.3</ele>
        <time>2020-05-30T18:34:30Z</time>
      </trkpt>
      <trkpt lat="46.48037" lon="-0.10399">
        <ele>181.4</ele>
        <time>2020-05-30T18:34:31Z</time>
      </trkpt>
      <trkpt lat="46.48035" lon="-0.10401">
        <ele>181.4</ele>
        <time>2020-05-30T18:34:32Z</time>
      </trkpt>
      <trkpt lat="46.48031" lon="-0.10404">
        <ele>181.5</ele>
        <time>2020-05-30T18:34:33Z</time>
      </trkpt>
      <trkpt lat="46.4803" lon="-0.10405">
        <ele>181.6</ele>
        <time>2020-05-30T18:34:34Z</time>
      </trkpt>
      <trkpt lat="46.48026" lon="-0.10406">
        <ele>181.7</ele>
        <time>2020-05-30T18:34:35Z</time>
      </trkpt>
      <trkpt lat="46.48023" lon="-0.10408">
        <ele>181.7</ele>
        <time>2020-05-30T18:34:36Z</time>
      </trkpt>
      <trkpt lat="46.48021" lon="-0.10411">
        <ele>181.8</ele>
        <time>2020-05-30T18:34:37Z</time>
      </trkpt>
      <trkpt lat="46.48017" lon="-0.10412">
        <ele>181.8</ele>
        <time>2020-05-30T18:34:38Z</time>
      </trkpt>
      <trkpt lat="46.48015" lon="-0.10413">
        <ele>181.9</ele>
        <time>2020-05-30T18:34:39Z</time>
      </trkpt>
      <trkpt lat="46.48011" lon="-0.10415">
        <ele>182</ele>
        <time>2020-05-30T18:34:40Z</time>
      </trkpt>
      <trkpt lat="46.4801" lon="-0.10416">
        <ele>182</ele>
        <time>2020-05-30T18:34:41Z</time>
      </trkpt>
      <trkpt lat="46.48006" lon="-0.10418">
        <ele>182.2</ele>
        <time>2020-05-30T18:34:42Z</time>
      </trkpt>
      <trkpt lat="46.48003" lon="-0.10421">
        <ele>182.3</ele>
        <time>2020-05-30T18:34:43Z</time>
      </trkpt>
      <trkpt lat="46.48" lon="-0.10423">
        <ele>182.4</ele>
        <time>2020-05-30T18:34:44Z</time>
      </trkpt>
      <trkpt lat="46.47996" lon="-0.10424">
        <ele>182.5</ele>
        <time>2020-05-30T18:34:45Z</time>
      </trkpt>
      <trkpt lat="46.47993" lon="-0.10426">
        <ele>182.7</ele>
        <time>2020-05-30T18:34:46Z</time>
      </trkpt>
      <trkpt lat="46.4799" lon="-0.10429">
        <ele>182.8</ele>
        <time>2020-05-30T18:34:47Z</time>
      </trkpt>
      <trkpt lat="46.47986" lon="-0.10431">
        <ele>182.9</ele>
        <time>2020-05-30T18:34:48Z</time>
      </trkpt>
      <trkpt lat="46.47983" lon="-0.10433">
        <ele>183.1</ele>
        <time>2020-05-30T18:34:49Z</time>
      </trkpt>
      <trkpt lat="46.4798" lon="-0.10435">
        <ele>183.2</ele>
        <time>2020-05-30T18:34:50Z</time>
      </trkpt>
      <trkpt lat="46.47976" lon="-0.10438">
        <ele>183.3</ele>
        <time>2020-05-30T18:34:51Z</time>
      </trkpt>
      <trkpt lat="46.47972" lon="-0.10441">
        <ele>183.4</ele>
        <time>2020-05-30T18:34:52Z</time>
      </trkpt>
      <trkpt lat="46.47969" lon="-0.10442">
        <ele>183.5</ele>
        <time>2020-05-30T18:34:53Z</time>
      </trkpt>
      <trkpt lat="46.47965" lon="-0.10443">
        <ele>183.6</ele>
        <time>2020-05-30T18:34:54Z</time>
      </trkpt>
      <trkpt lat="46.47961" lon="-0.10445">
        <ele>183.7</ele>
        <time>2020-05-30T18:34:55Z</time>
      </trkpt>
      <trkpt lat="46.47958" lon="-0.10448">
        <ele>183.8</ele>
        <time>2020-05-30T18:34:56Z</time>
      </trkpt>
      <trkpt lat="46.47954" lon="-0.10451">
        <ele>183.8</ele>
        <time>2020-05-30T18:34:57Z</time>
      </trkpt>
      <trkpt lat="46.47949" lon="-0.10454">
        <ele>183.9</ele>
        <time>2020-05-30T18:34:58Z</time>
      </trkpt>
      <trkpt lat="46.47945" lon="-0.10456">
        <ele>184</ele>
        <time>2020-05-30T18:34:59Z</time>
      </trkpt>
      <trkpt lat="46.47941" lon="-0.10459">
        <ele>184</ele>
        <time>2020-05-30T18:35:00Z</time>
      </trkpt>
      <trkpt lat="46.47938" lon="-0.10462">
        <ele>184.1</ele>
        <time>2020-05-30T18:35:01Z</time>
      </trkpt>
      <trkpt lat="46.47935" lon="-0.10464">
        <ele>184.1</ele>
        <time>2020-05-30T18:35:02Z</time>
      </trkpt>
      <trkpt lat="46.47932" lon="-0.10467">
        <ele>184.1</ele>
        <time>2020-05-30T18:35:03Z</time>
      </trkpt>
      <trkpt lat="46.47929" lon="-0.10469">
        <ele>184.1</ele>
        <time>2020-05-30T18:35:04Z</time>
      </trkpt>
      <trkpt lat="46.47926" lon="-0.10472">
        <ele>184.1</ele>
        <time>2020-05-30T18:35:05Z</time>
      </trkpt>
      <trkpt lat="46.47921" lon="-0.10474">
        <ele>184.1</ele>
        <time>2020-05-30T18:35:06Z</time>
      </trkpt>
      <trkpt lat="46.47916" lon="-0.10476">
        <ele>184.1</ele>
        <time>2020-05-30T18:35:07Z</time>
      </trkpt>
      <trkpt lat="46.47912" lon="-0.10479">
        <ele>184</ele>
        <time>2020-05-30T18:35:08Z</time>
      </trkpt>
      <trkpt lat="46.47908" lon="-0.10483">
        <ele>184</ele>
        <time>2020-05-30T18:35:09Z</time>
      </trkpt>
      <trkpt lat="46.47904" lon="-0.10487">
        <ele>184</ele>
        <time>2020-05-30T18:35:10Z</time>
      </trkpt>
      <trkpt lat="46.479" lon="-0.10492">
        <ele>184</ele>
        <time>2020-05-30T18:35:11Z</time>
      </trkpt>
      <trkpt lat="46.47897" lon="-0.10495">
        <ele>184</ele>
        <time>2020-05-30T18:35:12Z</time>
      </trkpt>
      <trkpt lat="46.47893" lon="-0.105">
        <ele>184</ele>
        <time>2020-05-30T18:35:13Z</time>
      </trkpt>
      <trkpt lat="46.47889" lon="-0.10503">
        <ele>184</ele>
        <time>2020-05-30T18:35:14Z</time>
      </trkpt>
      <trkpt lat="46.47885" lon="-0.10508">
        <ele>184</ele>
        <time>2020-05-30T18:35:15Z</time>
      </trkpt>
      <trkpt lat="46.47881" lon="-0.10513">
        <ele>184</ele>
        <time>2020-05-30T18:35:16Z</time>
      </trkpt>
      <trkpt lat="46.47878" lon="-0.10518">
        <ele>184</ele>
        <time>2020-05-30T18:35:17Z</time>
      </trkpt>
      <trkpt lat="46.47874" lon="-0.10523">
        <ele>183.9</ele>
        <time>2020-05-30T18:35:18Z</time>
      </trkpt>
      <trkpt lat="46.47871" lon="-0.10531">
        <ele>183.9</ele>
        <time>2020-05-30T18:35:19Z</time>
      </trkpt>
      <trkpt lat="46.47868" lon="-0.10537">
        <ele>183.8</ele>
        <time>2020-05-30T18:35:20Z</time>
      </trkpt>
      <trkpt lat="46.47865" lon="-0.10544">
        <ele>183.8</ele>
        <time>2020-05-30T18:35:21Z</time>
      </trkpt>
      <trkpt lat="46.47862" lon="-0.10551">
        <ele>183.8</ele>
        <time>2020-05-30T18:35:22Z</time>
      </trkpt>
      <trkpt lat="46.47859" lon="-0.10558">
        <ele>183.8</ele>
        <time>2020-05-30T18:35:23Z</time>
      </trkpt>
      <trkpt lat="46.47856" lon="-0.10564">
        <ele>183.8</ele>
        <time>2020-05-30T18:35:24Z</time>
      </trkpt>
      <trkpt lat="46.47854" lon="-0.10572">
        <ele>183.8</ele>
        <time>2020-05-30T18:35:25Z</time>
      </trkpt>
      <trkpt lat="46.47851" lon="-0.10578">
        <ele>183.8</ele>
        <time>2020-05-30T18:35:26Z</time>
      </trkpt>
      <trkpt lat="46.47848" lon="-0.10585">
        <ele>183.8</ele>
        <time>2020-05-30T18:35:27Z</time>
      </trkpt>
      <trkpt lat="46.47845" lon="-0.10592">
        <ele>183.7</ele>
        <time>2020-05-30T18:35:28Z</time>
      </trkpt>
      <trkpt lat="46.47843" lon="-0.10599">
        <ele>183.6</ele>
        <time>2020-05-30T18:35:29Z</time>
      </trkpt>
      <trkpt lat="46.4784" lon="-0.10606">
        <ele>183.6</ele>
        <time>2020-05-30T18:35:30Z</time>
      </trkpt>
      <trkpt lat="46.47837" lon="-0.10614">
        <ele>183.5</ele>
        <time>2020-05-30T18:35:31Z</time>
      </trkpt>
      <trkpt lat="46.47836" lon="-0.10623">
        <ele>183.4</ele>
        <time>2020-05-30T18:35:32Z</time>
      </trkpt>
      <trkpt lat="46.47834" lon="-0.1063">
        <ele>183.3</ele>
        <time>2020-05-30T18:35:33Z</time>
      </trkpt>
      <trkpt lat="46.47832" lon="-0.10638">
        <ele>183.2</ele>
        <time>2020-05-30T18:35:34Z</time>
      </trkpt>
      <trkpt lat="46.4783" lon="-0.10645">
        <ele>183.1</ele>
        <time>2020-05-30T18:35:35Z</time>
      </trkpt>
      <trkpt lat="46.47828" lon="-0.10652">
        <ele>183</ele>
        <time>2020-05-30T18:35:36Z</time>
      </trkpt>
      <trkpt lat="46.47825" lon="-0.1066">
        <ele>183</ele>
        <time>2020-05-30T18:35:37Z</time>
      </trkpt>
      <trkpt lat="46.47822" lon="-0.10668">
        <ele>182.9</ele>
        <time>2020-05-30T18:35:38Z</time>
      </trkpt>
      <trkpt lat="46.4782" lon="-0.10676">
        <ele>182.9</ele>
        <time>2020-05-30T18:35:39Z</time>
      </trkpt>
      <trkpt lat="46.47817" lon="-0.10685">
        <ele>182.9</ele>
        <time>2020-05-30T18:35:40Z</time>
      </trkpt>
      <trkpt lat="46.47814" lon="-0.10692">
        <ele>182.7</ele>
        <time>2020-05-30T18:35:41Z</time>
      </trkpt>
      <trkpt lat="46.47812" lon="-0.10699">
        <ele>182.6</ele>
        <time>2020-05-30T18:35:42Z</time>
      </trkpt>
      <trkpt lat="46.47809" lon="-0.10707">
        <ele>182.4</ele>
        <time>2020-05-30T18:35:43Z</time>
      </trkpt>
      <trkpt lat="46.47806" lon="-0.10715">
        <ele>182.2</ele>
        <time>2020-05-30T18:35:44Z</time>
      </trkpt>
      <trkpt lat="46.47803" lon="-0.10724">
        <ele>181.9</ele>
        <time>2020-05-30T18:35:45Z</time>
      </trkpt>
      <trkpt lat="46.478" lon="-0.10732">
        <ele>181.7</ele>
        <time>2020-05-30T18:35:46Z</time>
      </trkpt>
      <trkpt lat="46.47798" lon="-0.10739">
        <ele>181.5</ele>
        <time>2020-05-30T18:35:47Z</time>
      </trkpt>
      <trkpt lat="46.47795" lon="-0.10748">
        <ele>181.3</ele>
        <time>2020-05-30T18:35:48Z</time>
      </trkpt>
      <trkpt lat="46.4779" lon="-0.10757">
        <ele>181</ele>
        <time>2020-05-30T18:35:49Z</time>
      </trkpt>
      <trkpt lat="46.47787" lon="-0.10763">
        <ele>180.8</ele>
        <time>2020-05-30T18:35:50Z</time>
      </trkpt>
      <trkpt lat="46.47783" lon="-0.1077">
        <ele>180.6</ele>
        <time>2020-05-30T18:35:51Z</time>
      </trkpt>
      <trkpt lat="46.47779" lon="-0.10777">
        <ele>180.3</ele>
        <time>2020-05-30T18:35:52Z</time>
      </trkpt>
      <trkpt lat="46.47775" lon="-0.10783">
        <ele>180.1</ele>
        <time>2020-05-30T18:35:53Z</time>
      </trkpt>
      <trkpt lat="46.47769" lon="-0.10789">
        <ele>179.8</ele>
        <time>2020-05-30T18:35:54Z</time>
      </trkpt>
      <trkpt lat="46.47764" lon="-0.10796">
        <ele>179.5</ele>
        <time>2020-05-30T18:35:55Z</time>
      </trkpt>
      <trkpt lat="46.47758" lon="-0.10801">
        <ele>179.3</ele>
        <time>2020-05-30T18:35:56Z</time>
      </trkpt>
      <trkpt lat="46.47752" lon="-0.10805">
        <ele>179</ele>
        <time>2020-05-30T18:35:57Z</time>
      </trkpt>
      <trkpt lat="46.47748" lon="-0.10809">
        <ele>178.8</ele>
        <time>2020-05-30T18:35:58Z</time>
      </trkpt>
      <trkpt lat="46.47742" lon="-0.10813">
        <ele>178.5</ele>
        <time>2020-05-30T18:35:59Z</time>
      </trkpt>
      <trkpt lat="46.47736" lon="-0.10817">
        <ele>178.2</ele>
        <time>2020-05-30T18:36:00Z</time>
      </trkpt>
      <trkpt lat="46.4773" lon="-0.10821">
        <ele>178</ele>
        <time>2020-05-30T18:36:01Z</time>
      </trkpt>
      <trkpt lat="46.47723" lon="-0.10824">
        <ele>177.8</ele>
        <time>2020-05-30T18:36:02Z</time>
      </trkpt>
      <trkpt lat="46.47717" lon="-0.10826">
        <ele>177.5</ele>
        <time>2020-05-30T18:36:03Z</time>
      </trkpt>
      <trkpt lat="46.47711" lon="-0.10828">
        <ele>177.2</ele>
        <time>2020-05-30T18:36:04Z</time>
      </trkpt>
      <trkpt lat="46.47705" lon="-0.1083">
        <ele>176.8</ele>
        <time>2020-05-30T18:36:05Z</time>
      </trkpt>
      <trkpt lat="46.47699" lon="-0.10832">
        <ele>176.5</ele>
        <time>2020-05-30T18:36:06Z</time>
      </trkpt>
      <trkpt lat="46.47692" lon="-0.10833">
        <ele>176.2</ele>
        <time>2020-05-30T18:36:07Z</time>
      </trkpt>
      <trkpt lat="46.47685" lon="-0.10834">
        <ele>175.9</ele>
        <time>2020-05-30T18:36:08Z</time>
      </trkpt>
      <trkpt lat="46.47679" lon="-0.10835">
        <ele>175.7</ele>
        <time>2020-05-30T18:36:09Z</time>
      </trkpt>
      <trkpt lat="46.47672" lon="-0.10836">
        <ele>175.6</ele>
        <time>2020-05-30T18:36:10Z</time>
      </trkpt>
      <trkpt lat="46.47665" lon="-0.10837">
        <ele>175.4</ele>
        <time>2020-05-30T18:36:11Z</time>
      </trkpt>
      <trkpt lat="46.47658" lon="-0.10838">
        <ele>175.3</ele>
        <time>2020-05-30T18:36:12Z</time>
      </trkpt>
      <trkpt lat="46.47651" lon="-0.1084">
        <ele>175.1</ele>
        <time>2020-05-30T18:36:13Z</time>
      </trkpt>
      <trkpt lat="46.47644" lon="-0.10841">
        <ele>175</ele>
        <time>2020-05-30T18:36:14Z</time>
      </trkpt>
      <trkpt lat="46.47637" lon="-0.10843">
        <ele>174.8</ele>
        <time>2020-05-30T18:36:15Z</time>
      </trkpt>
      <trkpt lat="46.47629" lon="-0.10843">
        <ele>174.6</ele>
        <time>2020-05-30T18:36:16Z</time>
      </trkpt>
      <trkpt lat="46.47622" lon="-0.10843">
        <ele>174.4</ele>
        <time>2020-05-30T18:36:17Z</time>
      </trkpt>
      <trkpt lat="46.47616" lon="-0.10845">
        <ele>174.3</ele>
        <time>2020-05-30T18:36:18Z</time>
      </trkpt>
      <trkpt lat="46.47608" lon="-0.10847">
        <ele>174.1</ele>
        <time>2020-05-30T18:36:19Z</time>
      </trkpt>
      <trkpt lat="46.47601" lon="-0.10847">
        <ele>173.9</ele>
        <time>2020-05-30T18:36:20Z</time>
      </trkpt>
      <trkpt lat="46.47595" lon="-0.10851">
        <ele>173.8</ele>
        <time>2020-05-30T18:36:21Z</time>
      </trkpt>
      <trkpt lat="46.4759" lon="-0.10852">
        <ele>173.7</ele>
        <time>2020-05-30T18:36:22Z</time>
      </trkpt>
      <trkpt lat="46.47586" lon="-0.10853">
        <ele>173.6</ele>
        <time>2020-05-30T18:36:23Z</time>
      </trkpt>
      <trkpt lat="46.47583" lon="-0.10854">
        <ele>173.6</ele>
        <time>2020-05-30T18:36:24Z</time>
      </trkpt>
      <trkpt lat="46.4758" lon="-0.10856">
        <ele>173.7</ele>
        <time>2020-05-30T18:36:25Z</time>
      </trkpt>
      <trkpt lat="46.47579" lon="-0.10857">
        <ele>173.7</ele>
        <time>2020-05-30T18:36:26Z</time>
      </trkpt>
      <trkpt lat="46.4758" lon="-0.10858">
        <ele>173.7</ele>
        <time>2020-05-30T18:36:27Z</time>
      </trkpt>
      <trkpt lat="46.47581" lon="-0.1086">
        <ele>173.7</ele>
        <time>2020-05-30T18:36:28Z</time>
      </trkpt>
      <trkpt lat="46.47582" lon="-0.10862">
        <ele>173.7</ele>
        <time>2020-05-30T18:36:29Z</time>
      </trkpt>
      <trkpt lat="46.47582" lon="-0.10863">
        <ele>173.7</ele>
        <time>2020-05-30T18:36:30Z</time>
      </trkpt>
      <trkpt lat="46.47582" lon="-0.10863">
        <ele>173.7</ele>
        <time>2020-05-30T18:36:31Z</time>
      </trkpt>
      <trkpt lat="46.47581" lon="-0.10863">
        <ele>173.8</ele>
        <time>2020-05-30T18:36:32Z</time>
      </trkpt>
      <trkpt lat="46.47581" lon="-0.10864">
        <ele>173.8</ele>
        <time>2020-05-30T18:36:33Z</time>
      </trkpt>
      <trkpt lat="46.47581" lon="-0.10864">
        <ele>173.8</ele>
        <time>2020-05-30T18:36:34Z</time>
      </trkpt>
      <trkpt lat="46.4758" lon="-0.10864">
        <ele>173.8</ele>
        <time>2020-05-30T18:36:35Z</time>
      </trkpt>
      <trkpt lat="46.4758" lon="-0.10865">
        <ele>173.8</ele>
        <time>2020-05-30T18:36:36Z</time>
      </trkpt>
      <trkpt lat="46.4758" lon="-0.10865">
        <ele>173.8</ele>
        <time>2020-05-30T18:36:37Z</time>
      </trkpt>
      <trkpt lat="46.47579" lon="-0.10865">
        <ele>173.8</ele>
        <time>2020-05-30T18:36:38Z</time>
      </trkpt>
      <trkpt lat="46.47579" lon="-0.10866">
        <ele>173.8</ele>
        <time>2020-05-30T18:36:39Z</time>
      </trkpt>
      <trkpt lat="46.47578" lon="-0.10866">
        <ele>173.8</ele>
        <time>2020-05-30T18:36:40Z</time>
      </trkpt>
      <trkpt lat="46.47578" lon="-0.10866">
        <ele>173.8</ele>
        <time>2020-05-30T18:36:41Z</time>
      </trkpt>
      <trkpt lat="46.47578" lon="-0.10867">
        <ele>173.8</ele>
        <time>2020-05-30T18:36:42Z</time>
      </trkpt>
      <trkpt lat="46.47574" lon="-0.1087">
        <ele>173.9</ele>
        <time>2020-05-30T18:36:43Z</time>
      </trkpt>
      <trkpt lat="46.47571" lon="-0.10872">
        <ele>173.9</ele>
        <time>2020-05-30T18:36:44Z</time>
      </trkpt>
      <trkpt lat="46.47568" lon="-0.10876">
        <ele>173.9</ele>
        <time>2020-05-30T18:36:45Z</time>
      </trkpt>
      <trkpt lat="46.47565" lon="-0.1088">
        <ele>174</ele>
        <time>2020-05-30T18:36:46Z</time>
      </trkpt>
      <trkpt lat="46.47562" lon="-0.10886">
        <ele>174</ele>
        <time>2020-05-30T18:36:47Z</time>
      </trkpt>
      <trkpt lat="46.4756" lon="-0.10892">
        <ele>174.1</ele>
        <time>2020-05-30T18:36:48Z</time>
      </trkpt>
      <trkpt lat="46.47558" lon="-0.10897">
        <ele>174.1</ele>
        <time>2020-05-30T18:36:49Z</time>
      </trkpt>
      <trkpt lat="46.47555" lon="-0.10904">
        <ele>174.2</ele>
        <time>2020-05-30T18:36:50Z</time>
      </trkpt>
      <trkpt lat="46.47553" lon="-0.10911">
        <ele>174.2</ele>
        <time>2020-05-30T18:36:51Z</time>
      </trkpt>
      <trkpt lat="46.4755" lon="-0.10918">
        <ele>174.3</ele>
        <time>2020-05-30T18:36:52Z</time>
      </trkpt>
      <trkpt lat="46.47548" lon="-0.10926">
        <ele>174.3</ele>
        <time>2020-05-30T18:36:53Z</time>
      </trkpt>
      <trkpt lat="46.47544" lon="-0.10933">
        <ele>174.4</ele>
        <time>2020-05-30T18:36:54Z</time>
      </trkpt>
      <trkpt lat="46.47541" lon="-0.10941">
        <ele>174.5</ele>
        <time>2020-05-30T18:36:55Z</time>
      </trkpt>
      <trkpt lat="46.47538" lon="-0.10949">
        <ele>174.5</ele>
        <time>2020-05-30T18:36:56Z</time>
      </trkpt>
      <trkpt lat="46.47536" lon="-0.10957">
        <ele>174.7</ele>
        <time>2020-05-30T18:36:57Z</time>
      </trkpt>
      <trkpt lat="46.47533" lon="-0.10964">
        <ele>174.8</ele>
        <time>2020-05-30T18:36:58Z</time>
      </trkpt>
      <trkpt lat="46.47531" lon="-0.10971">
        <ele>174.9</ele>
        <time>2020-05-30T18:36:59Z</time>
      </trkpt>
      <trkpt lat="46.47529" lon="-0.10976">
        <ele>174.9</ele>
        <time>2020-05-30T18:37:00Z</time>
      </trkpt>
      <trkpt lat="46.47528" lon="-0.10982">
        <ele>175</ele>
        <time>2020-05-30T18:37:01Z</time>
      </trkpt>
      <trkpt lat="46.47525" lon="-0.10987">
        <ele>175.1</ele>
        <time>2020-05-30T18:37:02Z</time>
      </trkpt>
      <trkpt lat="46.47523" lon="-0.10991">
        <ele>175.1</ele>
        <time>2020-05-30T18:37:03Z</time>
      </trkpt>
      <trkpt lat="46.47521" lon="-0.10997">
        <ele>175.1</ele>
        <time>2020-05-30T18:37:04Z</time>
      </trkpt>
      <trkpt lat="46.47521" lon="-0.11">
        <ele>175.2</ele>
        <time>2020-05-30T18:37:05Z</time>
      </trkpt>
      <trkpt lat="46.4752" lon="-0.11006">
        <ele>175.2</ele>
        <time>2020-05-30T18:37:06Z</time>
      </trkpt>
      <trkpt lat="46.4752" lon="-0.1101">
        <ele>175.2</ele>
        <time>2020-05-30T18:37:07Z</time>
      </trkpt>
      <trkpt lat="46.47519" lon="-0.11014">
        <ele>175.2</ele>
        <time>2020-05-30T18:37:08Z</time>
      </trkpt>
      <trkpt lat="46.47519" lon="-0.11019">
        <ele>175.2</ele>
        <time>2020-05-30T18:37:09Z</time>
      </trkpt>
      <trkpt lat="46.47519" lon="-0.11025">
        <ele>175.2</ele>
        <time>2020-05-30T18:37:10Z</time>
      </trkpt>
      <trkpt lat="46.47518" lon="-0.11027">
        <ele>175.3</ele>
        <time>2020-05-30T18:37:11Z</time>
      </trkpt>
      <trkpt lat="46.47518" lon="-0.11029">
        <ele>175.3</ele>
        <time>2020-05-30T18:37:12Z</time>
      </trkpt>
      <trkpt lat="46.47518" lon="-0.11032">
        <ele>175.3</ele>
        <time>2020-05-30T18:37:13Z</time>
      </trkpt>
      <trkpt lat="46.47518" lon="-0.11038">
        <ele>175.3</ele>
        <time>2020-05-30T18:37:14Z</time>
      </trkpt>
      <trkpt lat="46.47517" lon="-0.1104">
        <ele>175.3</ele>
        <time>2020-05-30T18:37:15Z</time>
      </trkpt>
      <trkpt lat="46.47517" lon="-0.11046">
        <ele>175.3</ele>
        <time>2020-05-30T18:37:16Z</time>
      </trkpt>
      <trkpt lat="46.47517" lon="-0.1105">
        <ele>175.3</ele>
        <time>2020-05-30T18:37:17Z</time>
      </trkpt>
      <trkpt lat="46.47516" lon="-0.11057">
        <ele>175.3</ele>
        <time>2020-05-30T18:37:18Z</time>
      </trkpt>
      <trkpt lat="46.47516" lon="-0.11063">
        <ele>175.4</ele>
        <time>2020-05-30T18:37:19Z</time>
      </trkpt>
      <trkpt lat="46.47516" lon="-0.11068">
        <ele>175.4</ele>
        <time>2020-05-30T18:37:20Z</time>
      </trkpt>
      <trkpt lat="46.47515" lon="-0.11072">
        <ele>175.4</ele>
        <time>2020-05-30T18:37:21Z</time>
      </trkpt>
      <trkpt lat="46.47514" lon="-0.11077">
        <ele>175.4</ele>
        <time>2020-05-30T18:37:22Z</time>
      </trkpt>
      <trkpt lat="46.47513" lon="-0.11082">
        <ele>175.4</ele>
        <time>2020-05-30T18:37:23Z</time>
      </trkpt>
      <trkpt lat="46.47512" lon="-0.11086">
        <ele>175.4</ele>
        <time>2020-05-30T18:37:24Z</time>
      </trkpt>
      <trkpt lat="46.47511" lon="-0.11092">
        <ele>175.5</ele>
        <time>2020-05-30T18:37:25Z</time>
      </trkpt>
      <trkpt lat="46.4751" lon="-0.11097">
        <ele>175.5</ele>
        <time>2020-05-30T18:37:26Z</time>
      </trkpt>
      <trkpt lat="46.47509" lon="-0.11102">
        <ele>175.5</ele>
        <time>2020-05-30T18:37:27Z</time>
      </trkpt>
      <trkpt lat="46.47508" lon="-0.11109">
        <ele>175.6</ele>
        <time>2020-05-30T18:37:28Z</time>
      </trkpt>
      <trkpt lat="46.47507" lon="-0.11114">
        <ele>175.6</ele>
        <time>2020-05-30T18:37:29Z</time>
      </trkpt>
      <trkpt lat="46.47507" lon="-0.11118">
        <ele>175.6</ele>
        <time>2020-05-30T18:37:30Z</time>
      </trkpt>
      <trkpt lat="46.47505" lon="-0.11123">
        <ele>175.7</ele>
        <time>2020-05-30T18:37:31Z</time>
      </trkpt>
      <trkpt lat="46.47504" lon="-0.11127">
        <ele>175.7</ele>
        <time>2020-05-30T18:37:32Z</time>
      </trkpt>
      <trkpt lat="46.47504" lon="-0.11133">
        <ele>175.7</ele>
        <time>2020-05-30T18:37:33Z</time>
      </trkpt>
      <trkpt lat="46.47502" lon="-0.11137">
        <ele>175.8</ele>
        <time>2020-05-30T18:37:34Z</time>
      </trkpt>
      <trkpt lat="46.47501" lon="-0.11142">
        <ele>175.8</ele>
        <time>2020-05-30T18:37:35Z</time>
      </trkpt>
      <trkpt lat="46.47501" lon="-0.11146">
        <ele>175.9</ele>
        <time>2020-05-30T18:37:36Z</time>
      </trkpt>
      <trkpt lat="46.47499" lon="-0.11154">
        <ele>175.9</ele>
        <time>2020-05-30T18:37:37Z</time>
      </trkpt>
      <trkpt lat="46.47499" lon="-0.11158">
        <ele>175.9</ele>
        <time>2020-05-30T18:37:38Z</time>
      </trkpt>
      <trkpt lat="46.47497" lon="-0.11162">
        <ele>176</ele>
        <time>2020-05-30T18:37:39Z</time>
      </trkpt>
      <trkpt lat="46.47497" lon="-0.11167">
        <ele>176</ele>
        <time>2020-05-30T18:37:40Z</time>
      </trkpt>
      <trkpt lat="46.47496" lon="-0.11173">
        <ele>176.1</ele>
        <time>2020-05-30T18:37:41Z</time>
      </trkpt>
      <trkpt lat="46.47495" lon="-0.11178">
        <ele>176.1</ele>
        <time>2020-05-30T18:37:42Z</time>
      </trkpt>
      <trkpt lat="46.47494" lon="-0.11183">
        <ele>176.1</ele>
        <time>2020-05-30T18:37:43Z</time>
      </trkpt>
      <trkpt lat="46.47494" lon="-0.11187">
        <ele>176.1</ele>
        <time>2020-05-30T18:37:44Z</time>
      </trkpt>
      <trkpt lat="46.47492" lon="-0.11192">
        <ele>176.2</ele>
        <time>2020-05-30T18:37:45Z</time>
      </trkpt>
      <trkpt lat="46.47492" lon="-0.11196">
        <ele>176.2</ele>
        <time>2020-05-30T18:37:46Z</time>
      </trkpt>
      <trkpt lat="46.47491" lon="-0.112">
        <ele>176.2</ele>
        <time>2020-05-30T18:37:47Z</time>
      </trkpt>
      <trkpt lat="46.47489" lon="-0.11207">
        <ele>176.2</ele>
        <time>2020-05-30T18:37:48Z</time>
      </trkpt>
      <trkpt lat="46.47488" lon="-0.11213">
        <ele>176.3</ele>
        <time>2020-05-30T18:37:49Z</time>
      </trkpt>
      <trkpt lat="46.47487" lon="-0.11221">
        <ele>176.3</ele>
        <time>2020-05-30T18:37:50Z</time>
      </trkpt>
      <trkpt lat="46.47486" lon="-0.11227">
        <ele>176.3</ele>
        <time>2020-05-30T18:37:51Z</time>
      </trkpt>
      <trkpt lat="46.47485" lon="-0.11232">
        <ele>176.4</ele>
        <time>2020-05-30T18:37:52Z</time>
      </trkpt>
      <trkpt lat="46.47484" lon="-0.11236">
        <ele>176.4</ele>
        <time>2020-05-30T18:37:53Z</time>
      </trkpt>
      <trkpt lat="46.47482" lon="-0.11242">
        <ele>176.4</ele>
        <time>2020-05-30T18:37:54Z</time>
      </trkpt>
      <trkpt lat="46.47481" lon="-0.11247">
        <ele>176.4</ele>
        <time>2020-05-30T18:37:55Z</time>
      </trkpt>
      <trkpt lat="46.4748" lon="-0.11253">
        <ele>176.4</ele>
        <time>2020-05-30T18:37:56Z</time>
      </trkpt>
      <trkpt lat="46.47479" lon="-0.11258">
        <ele>176.5</ele>
        <time>2020-05-30T18:37:57Z</time>
      </trkpt>
      <trkpt lat="46.47478" lon="-0.11263">
        <ele>176.5</ele>
        <time>2020-05-30T18:37:58Z</time>
      </trkpt>
      <trkpt lat="46.47476" lon="-0.11268">
        <ele>176.5</ele>
        <time>2020-05-30T18:37:59Z</time>
      </trkpt>
      <trkpt lat="46.47475" lon="-0.11274">
        <ele>176.5</ele>
        <time>2020-05-30T18:38:00Z</time>
      </trkpt>
      <trkpt lat="46.47473" lon="-0.1128">
        <ele>176.5</ele>
        <time>2020-05-30T18:38:01Z</time>
      </trkpt>
      <trkpt lat="46.47472" lon="-0.11283">
        <ele>176.6</ele>
        <time>2020-05-30T18:38:02Z</time>
      </trkpt>
      <trkpt lat="46.47471" lon="-0.11288">
        <ele>176.6</ele>
        <time>2020-05-30T18:38:03Z</time>
      </trkpt>
      <trkpt lat="46.47471" lon="-0.11293">
        <ele>176.6</ele>
        <time>2020-05-30T18:38:04Z</time>
      </trkpt>
      <trkpt lat="46.4747" lon="-0.11298">
        <ele>176.6</ele>
        <time>2020-05-30T18:38:05Z</time>
      </trkpt>
      <trkpt lat="46.47469" lon="-0.11303">
        <ele>176.6</ele>
        <time>2020-05-30T18:38:06Z</time>
      </trkpt>
      <trkpt lat="46.47467" lon="-0.11307">
        <ele>176.6</ele>
        <time>2020-05-30T18:38:07Z</time>
      </trkpt>
      <trkpt lat="46.47465" lon="-0.11312">
        <ele>176.6</ele>
        <time>2020-05-30T18:38:08Z</time>
      </trkpt>
      <trkpt lat="46.47464" lon="-0.11318">
        <ele>176.6</ele>
        <time>2020-05-30T18:38:09Z</time>
      </trkpt>
      <trkpt lat="46.47463" lon="-0.11322">
        <ele>176.6</ele>
        <time>2020-05-30T18:38:10Z</time>
      </trkpt>
      <trkpt lat="46.47461" lon="-0.11328">
        <ele>176.6</ele>
        <time>2020-05-30T18:38:11Z</time>
      </trkpt>
      <trkpt lat="46.47459" lon="-0.11333">
        <ele>176.6</ele>
        <time>2020-05-30T18:38:12Z</time>
      </trkpt>
      <trkpt lat="46.47458" lon="-0.11339">
        <ele>176.6</ele>
        <time>2020-05-30T18:38:13Z</time>
      </trkpt>
      <trkpt lat="46.47456" lon="-0.11344">
        <ele>176.6</ele>
        <time>2020-05-30T18:38:14Z</time>
      </trkpt>
      <trkpt lat="46.47455" lon="-0.1135">
        <ele>176.7</ele>
        <time>2020-05-30T18:38:15Z</time>
      </trkpt>
      <trkpt lat="46.47454" lon="-0.11356">
        <ele>176.7</ele>
        <time>2020-05-30T18:38:16Z</time>
      </trkpt>
      <trkpt lat="46.47453" lon="-0.11361">
        <ele>176.7</ele>
        <time>2020-05-30T18:38:17Z</time>
      </trkpt>
      <trkpt lat="46.47452" lon="-0.11366">
        <ele>176.7</ele>
        <time>2020-05-30T18:38:18Z</time>
      </trkpt>
      <trkpt lat="46.47451" lon="-0.1137">
        <ele>176.7</ele>
        <time>2020-05-30T18:38:19Z</time>
      </trkpt>
      <trkpt lat="46.4745" lon="-0.11374">
        <ele>176.8</ele>
        <time>2020-05-30T18:38:20Z</time>
      </trkpt>
      <trkpt lat="46.47449" lon="-0.1138">
        <ele>176.8</ele>
        <time>2020-05-30T18:38:21Z</time>
      </trkpt>
      <trkpt lat="46.47447" lon="-0.11386">
        <ele>176.9</ele>
        <time>2020-05-30T18:38:22Z</time>
      </trkpt>
      <trkpt lat="46.47446" lon="-0.11392">
        <ele>177</ele>
        <time>2020-05-30T18:38:23Z</time>
      </trkpt>
      <trkpt lat="46.47445" lon="-0.11397">
        <ele>177.1</ele>
        <time>2020-05-30T18:38:24Z</time>
      </trkpt>
      <trkpt lat="46.47443" lon="-0.11403">
        <ele>177.2</ele>
        <time>2020-05-30T18:38:25Z</time>
      </trkpt>
      <trkpt lat="46.47442" lon="-0.11408">
        <ele>177.3</ele>
        <time>2020-05-30T18:38:26Z</time>
      </trkpt>
      <trkpt lat="46.4744" lon="-0.11414">
        <ele>177.4</ele>
        <time>2020-05-30T18:38:27Z</time>
      </trkpt>
      <trkpt lat="46.47439" lon="-0.11418">
        <ele>177.4</ele>
        <time>2020-05-30T18:38:28Z</time>
      </trkpt>
      <trkpt lat="46.47436" lon="-0.11424">
        <ele>177.5</ele>
        <time>2020-05-30T18:38:29Z</time>
      </trkpt>
      <trkpt lat="46.47435" lon="-0.11429">
        <ele>177.5</ele>
        <time>2020-05-30T18:38:30Z</time>
      </trkpt>
      <trkpt lat="46.47434" lon="-0.11434">
        <ele>177.6</ele>
        <time>2020-05-30T18:38:31Z</time>
      </trkpt>
      <trkpt lat="46.47433" lon="-0.1144">
        <ele>177.6</ele>
        <time>2020-05-30T18:38:32Z</time>
      </trkpt>
      <trkpt lat="46.47432" lon="-0.11446">
        <ele>177.6</ele>
        <time>2020-05-30T18:38:33Z</time>
      </trkpt>
      <trkpt lat="46.47431" lon="-0.11452">
        <ele>177.6</ele>
        <time>2020-05-30T18:38:34Z</time>
      </trkpt>
      <trkpt lat="46.47429" lon="-0.11458">
        <ele>177.7</ele>
        <time>2020-05-30T18:38:35Z</time>
      </trkpt>
      <trkpt lat="46.47428" lon="-0.11465">
        <ele>177.7</ele>
        <time>2020-05-30T18:38:36Z</time>
      </trkpt>
      <trkpt lat="46.47427" lon="-0.1147">
        <ele>177.7</ele>
        <time>2020-05-30T18:38:37Z</time>
      </trkpt>
      <trkpt lat="46.47425" lon="-0.11479">
        <ele>177.8</ele>
        <time>2020-05-30T18:38:38Z</time>
      </trkpt>
      <trkpt lat="46.47424" lon="-0.11485">
        <ele>177.8</ele>
        <time>2020-05-30T18:38:39Z</time>
      </trkpt>
      <trkpt lat="46.47423" lon="-0.1149">
        <ele>177.9</ele>
        <time>2020-05-30T18:38:40Z</time>
      </trkpt>
      <trkpt lat="46.47422" lon="-0.11497">
        <ele>177.9</ele>
        <time>2020-05-30T18:38:41Z</time>
      </trkpt>
      <trkpt lat="46.47421" lon="-0.11502">
        <ele>178</ele>
        <time>2020-05-30T18:38:42Z</time>
      </trkpt>
      <trkpt lat="46.47419" lon="-0.11507">
        <ele>178</ele>
        <time>2020-05-30T18:38:43Z</time>
      </trkpt>
      <trkpt lat="46.47418" lon="-0.11512">
        <ele>178</ele>
        <time>2020-05-30T18:38:44Z</time>
      </trkpt>
      <trkpt lat="46.47416" lon="-0.11517">
        <ele>178.1</ele>
        <time>2020-05-30T18:38:45Z</time>
      </trkpt>
      <trkpt lat="46.47415" lon="-0.11521">
        <ele>178.1</ele>
        <time>2020-05-30T18:38:46Z</time>
      </trkpt>
      <trkpt lat="46.47415" lon="-0.11527">
        <ele>178.1</ele>
        <time>2020-05-30T18:38:47Z</time>
      </trkpt>
      <trkpt lat="46.47414" lon="-0.11532">
        <ele>178.2</ele>
        <time>2020-05-30T18:38:48Z</time>
      </trkpt>
      <trkpt lat="46.47413" lon="-0.11539">
        <ele>178.2</ele>
        <time>2020-05-30T18:38:49Z</time>
      </trkpt>
      <trkpt lat="46.47411" lon="-0.11544">
        <ele>178.2</ele>
        <time>2020-05-30T18:38:50Z</time>
      </trkpt>
      <trkpt lat="46.4741" lon="-0.1155">
        <ele>178.3</ele>
        <time>2020-05-30T18:38:51Z</time>
      </trkpt>
      <trkpt lat="46.47408" lon="-0.11555">
        <ele>178.3</ele>
        <time>2020-05-30T18:38:52Z</time>
      </trkpt>
      <trkpt lat="46.47407" lon="-0.1156">
        <ele>178.4</ele>
        <time>2020-05-30T18:38:53Z</time>
      </trkpt>
      <trkpt lat="46.47405" lon="-0.11566">
        <ele>178.4</ele>
        <time>2020-05-30T18:38:54Z</time>
      </trkpt>
      <trkpt lat="46.47404" lon="-0.11571">
        <ele>178.5</ele>
        <time>2020-05-30T18:38:55Z</time>
      </trkpt>
      <trkpt lat="46.47403" lon="-0.11578">
        <ele>178.6</ele>
        <time>2020-05-30T18:38:56Z</time>
      </trkpt>
      <trkpt lat="46.47401" lon="-0.11584">
        <ele>178.7</ele>
        <time>2020-05-30T18:38:57Z</time>
      </trkpt>
      <trkpt lat="46.474" lon="-0.11589">
        <ele>178.8</ele>
        <time>2020-05-30T18:38:58Z</time>
      </trkpt>
      <trkpt lat="46.47398" lon="-0.11595">
        <ele>178.8</ele>
        <time>2020-05-30T18:38:59Z</time>
      </trkpt>
      <trkpt lat="46.47398" lon="-0.11601">
        <ele>178.9</ele>
        <time>2020-05-30T18:39:00Z</time>
      </trkpt>
      <trkpt lat="46.47397" lon="-0.11605">
        <ele>179</ele>
        <time>2020-05-30T18:39:01Z</time>
      </trkpt>
      <trkpt lat="46.47397" lon="-0.11611">
        <ele>179</ele>
        <time>2020-05-30T18:39:02Z</time>
      </trkpt>
      <trkpt lat="46.47396" lon="-0.11617">
        <ele>179.1</ele>
        <time>2020-05-30T18:39:03Z</time>
      </trkpt>
      <trkpt lat="46.47396" lon="-0.11623">
        <ele>179.1</ele>
        <time>2020-05-30T18:39:04Z</time>
      </trkpt>
      <trkpt lat="46.47395" lon="-0.11627">
        <ele>179.2</ele>
        <time>2020-05-30T18:39:05Z</time>
      </trkpt>
      <trkpt lat="46.47394" lon="-0.11632">
        <ele>179.2</ele>
        <time>2020-05-30T18:39:06Z</time>
      </trkpt>
      <trkpt lat="46.47393" lon="-0.11639">
        <ele>179.3</ele>
        <time>2020-05-30T18:39:07Z</time>
      </trkpt>
      <trkpt lat="46.47393" lon="-0.11645">
        <ele>179.4</ele>
        <time>2020-05-30T18:39:08Z</time>
      </trkpt>
      <trkpt lat="46.47392" lon="-0.11651">
        <ele>179.4</ele>
        <time>2020-05-30T18:39:09Z</time>
      </trkpt>
      <trkpt lat="46.47392" lon="-0.11655">
        <ele>179.5</ele>
        <time>2020-05-30T18:39:10Z</time>
      </trkpt>
      <trkpt lat="46.47392" lon="-0.1166">
        <ele>179.5</ele>
        <time>2020-05-30T18:39:11Z</time>
      </trkpt>
      <trkpt lat="46.47392" lon="-0.11666">
        <ele>179.6</ele>
        <time>2020-05-30T18:39:12Z</time>
      </trkpt>
      <trkpt lat="46.47391" lon="-0.11674">
        <ele>179.7</ele>
        <time>2020-05-30T18:39:13Z</time>
      </trkpt>
      <trkpt lat="46.47392" lon="-0.1168">
        <ele>179.8</ele>
        <time>2020-05-30T18:39:14Z</time>
      </trkpt>
      <trkpt lat="46.47392" lon="-0.11686">
        <ele>179.9</ele>
        <time>2020-05-30T18:39:15Z</time>
      </trkpt>
      <trkpt lat="46.47393" lon="-0.11691">
        <ele>179.9</ele>
        <time>2020-05-30T18:39:16Z</time>
      </trkpt>
      <trkpt lat="46.47393" lon="-0.11698">
        <ele>180</ele>
        <time>2020-05-30T18:39:17Z</time>
      </trkpt>
      <trkpt lat="46.47393" lon="-0.11704">
        <ele>180.1</ele>
        <time>2020-05-30T18:39:18Z</time>
      </trkpt>
      <trkpt lat="46.47394" lon="-0.1171">
        <ele>180.2</ele>
        <time>2020-05-30T18:39:19Z</time>
      </trkpt>
      <trkpt lat="46.47393" lon="-0.11716">
        <ele>180.2</ele>
        <time>2020-05-30T18:39:20Z</time>
      </trkpt>
      <trkpt lat="46.47394" lon="-0.11722">
        <ele>180.3</ele>
        <time>2020-05-30T18:39:21Z</time>
      </trkpt>
      <trkpt lat="46.47394" lon="-0.11728">
        <ele>180.4</ele>
        <time>2020-05-30T18:39:22Z</time>
      </trkpt>
      <trkpt lat="46.47393" lon="-0.11735">
        <ele>180.4</ele>
        <time>2020-05-30T18:39:23Z</time>
      </trkpt>
      <trkpt lat="46.47393" lon="-0.11739">
        <ele>180.5</ele>
        <time>2020-05-30T18:39:24Z</time>
      </trkpt>
      <trkpt lat="46.47394" lon="-0.11744">
        <ele>180.6</ele>
        <time>2020-05-30T18:39:25Z</time>
      </trkpt>
      <trkpt lat="46.47393" lon="-0.11751">
        <ele>180.7</ele>
        <time>2020-05-30T18:39:26Z</time>
      </trkpt>
      <trkpt lat="46.47393" lon="-0.11757">
        <ele>180.8</ele>
        <time>2020-05-30T18:39:27Z</time>
      </trkpt>
      <trkpt lat="46.47393" lon="-0.11763">
        <ele>180.8</ele>
        <time>2020-05-30T18:39:28Z</time>
      </trkpt>
      <trkpt lat="46.47394" lon="-0.11768">
        <ele>180.9</ele>
        <time>2020-05-30T18:39:29Z</time>
      </trkpt>
      <trkpt lat="46.47394" lon="-0.11774">
        <ele>181</ele>
        <time>2020-05-30T18:39:30Z</time>
      </trkpt>
      <trkpt lat="46.47393" lon="-0.11781">
        <ele>181.1</ele>
        <time>2020-05-30T18:39:31Z</time>
      </trkpt>
      <trkpt lat="46.47394" lon="-0.11786">
        <ele>181.1</ele>
        <time>2020-05-30T18:39:32Z</time>
      </trkpt>
      <trkpt lat="46.47394" lon="-0.11792">
        <ele>181.2</ele>
        <time>2020-05-30T18:39:33Z</time>
      </trkpt>
      <trkpt lat="46.47395" lon="-0.11799">
        <ele>181.2</ele>
        <time>2020-05-30T18:39:34Z</time>
      </trkpt>
      <trkpt lat="46.47395" lon="-0.11803">
        <ele>181.2</ele>
        <time>2020-05-30T18:39:35Z</time>
      </trkpt>
      <trkpt lat="46.47394" lon="-0.1181">
        <ele>181.3</ele>
        <time>2020-05-30T18:39:36Z</time>
      </trkpt>
      <trkpt lat="46.47394" lon="-0.11816">
        <ele>181.4</ele>
        <time>2020-05-30T18:39:37Z</time>
      </trkpt>
      <trkpt lat="46.47394" lon="-0.11822">
        <ele>181.4</ele>
        <time>2020-05-30T18:39:38Z</time>
      </trkpt>
      <trkpt lat="46.47395" lon="-0.1183">
        <ele>181.5</ele>
        <time>2020-05-30T18:39:39Z</time>
      </trkpt>
      <trkpt lat="46.47395" lon="-0.11836">
        <ele>181.6</ele>
        <time>2020-05-30T18:39:40Z</time>
      </trkpt>
      <trkpt lat="46.47395" lon="-0.11842">
        <ele>181.7</ele>
        <time>2020-05-30T18:39:41Z</time>
      </trkpt>
      <trkpt lat="46.47395" lon="-0.1185">
        <ele>181.8</ele>
        <time>2020-05-30T18:39:42Z</time>
      </trkpt>
      <trkpt lat="46.47395" lon="-0.11854">
        <ele>181.8</ele>
        <time>2020-05-30T18:39:43Z</time>
      </trkpt>
      <trkpt lat="46.47395" lon="-0.1186">
        <ele>181.9</ele>
        <time>2020-05-30T18:39:44Z</time>
      </trkpt>
      <trkpt lat="46.47395" lon="-0.11864">
        <ele>181.9</ele>
        <time>2020-05-30T18:39:45Z</time>
      </trkpt>
      <trkpt lat="46.47394" lon="-0.11868">
        <ele>182</ele>
        <time>2020-05-30T18:39:46Z</time>
      </trkpt>
      <trkpt lat="46.47394" lon="-0.11875">
        <ele>182.1</ele>
        <time>2020-05-30T18:39:47Z</time>
      </trkpt>
      <trkpt lat="46.47394" lon="-0.1188">
        <ele>182.1</ele>
        <time>2020-05-30T18:39:48Z</time>
      </trkpt>
      <trkpt lat="46.47395" lon="-0.11885">
        <ele>182.2</ele>
        <time>2020-05-30T18:39:49Z</time>
      </trkpt>
      <trkpt lat="46.47395" lon="-0.11887">
        <ele>182.2</ele>
        <time>2020-05-30T18:39:50Z</time>
      </trkpt>
      <trkpt lat="46.47395" lon="-0.11892">
        <ele>182.3</ele>
        <time>2020-05-30T18:39:51Z</time>
      </trkpt>
      <trkpt lat="46.47395" lon="-0.11897">
        <ele>182.3</ele>
        <time>2020-05-30T18:39:52Z</time>
      </trkpt>
      <trkpt lat="46.47395" lon="-0.11903">
        <ele>182.4</ele>
        <time>2020-05-30T18:39:53Z</time>
      </trkpt>
      <trkpt lat="46.47395" lon="-0.11909">
        <ele>182.5</ele>
        <time>2020-05-30T18:39:54Z</time>
      </trkpt>
      <trkpt lat="46.47394" lon="-0.11916">
        <ele>182.6</ele>
        <time>2020-05-30T18:39:55Z</time>
      </trkpt>
      <trkpt lat="46.47395" lon="-0.1192">
        <ele>182.6</ele>
        <time>2020-05-30T18:39:56Z</time>
      </trkpt>
      <trkpt lat="46.47395" lon="-0.11926">
        <ele>182.7</ele>
        <time>2020-05-30T18:39:57Z</time>
      </trkpt>
      <trkpt lat="46.47396" lon="-0.11931">
        <ele>182.8</ele>
        <time>2020-05-30T18:39:58Z</time>
      </trkpt>
      <trkpt lat="46.47397" lon="-0.11937">
        <ele>182.8</ele>
        <time>2020-05-30T18:39:59Z</time>
      </trkpt>
      <trkpt lat="46.47397" lon="-0.11944">
        <ele>182.9</ele>
        <time>2020-05-30T18:40:00Z</time>
      </trkpt>
      <trkpt lat="46.47396" lon="-0.11952">
        <ele>183</ele>
        <time>2020-05-30T18:40:01Z</time>
      </trkpt>
      <trkpt lat="46.47396" lon="-0.11958">
        <ele>183</ele>
        <time>2020-05-30T18:40:02Z</time>
      </trkpt>
      <trkpt lat="46.47397" lon="-0.11963">
        <ele>183.1</ele>
        <time>2020-05-30T18:40:03Z</time>
      </trkpt>
      <trkpt lat="46.47396" lon="-0.11968">
        <ele>183.1</ele>
        <time>2020-05-30T18:40:04Z</time>
      </trkpt>
      <trkpt lat="46.47396" lon="-0.11974">
        <ele>183.2</ele>
        <time>2020-05-30T18:40:05Z</time>
      </trkpt>
      <trkpt lat="46.47396" lon="-0.1198">
        <ele>183.2</ele>
        <time>2020-05-30T18:40:06Z</time>
      </trkpt>
      <trkpt lat="46.47396" lon="-0.11985">
        <ele>183.2</ele>
        <time>2020-05-30T18:40:07Z</time>
      </trkpt>
      <trkpt lat="46.47396" lon="-0.11991">
        <ele>183.3</ele>
        <time>2020-05-30T18:40:08Z</time>
      </trkpt>
      <trkpt lat="46.47396" lon="-0.11996">
        <ele>183.3</ele>
        <time>2020-05-30T18:40:09Z</time>
      </trkpt>
      <trkpt lat="46.47396" lon="-0.12002">
        <ele>183.4</ele>
        <time>2020-05-30T18:40:10Z</time>
      </trkpt>
      <trkpt lat="46.47396" lon="-0.12011">
        <ele>183.4</ele>
        <time>2020-05-30T18:40:11Z</time>
      </trkpt>
      <trkpt lat="46.47396" lon="-0.12016">
        <ele>183.5</ele>
        <time>2020-05-30T18:40:12Z</time>
      </trkpt>
      <trkpt lat="46.47397" lon="-0.12022">
        <ele>183.5</ele>
        <time>2020-05-30T18:40:13Z</time>
      </trkpt>
      <trkpt lat="46.47398" lon="-0.12026">
        <ele>183.5</ele>
        <time>2020-05-30T18:40:14Z</time>
      </trkpt>
      <trkpt lat="46.47398" lon="-0.1203">
        <ele>183.5</ele>
        <time>2020-05-30T18:40:15Z</time>
      </trkpt>
      <trkpt lat="46.47398" lon="-0.12037">
        <ele>183.6</ele>
        <time>2020-05-30T18:40:16Z</time>
      </trkpt>
      <trkpt lat="46.47398" lon="-0.12043">
        <ele>183.6</ele>
        <time>2020-05-30T18:40:17Z</time>
      </trkpt>
      <trkpt lat="46.47398" lon="-0.12048">
        <ele>183.6</ele>
        <time>2020-05-30T18:40:18Z</time>
      </trkpt>
      <trkpt lat="46.47397" lon="-0.12055">
        <ele>183.6</ele>
        <time>2020-05-30T18:40:19Z</time>
      </trkpt>
      <trkpt lat="46.47397" lon="-0.12059">
        <ele>183.6</ele>
        <time>2020-05-30T18:40:20Z</time>
      </trkpt>
      <trkpt lat="46.47397" lon="-0.12064">
        <ele>183.6</ele>
        <time>2020-05-30T18:40:21Z</time>
      </trkpt>
      <trkpt lat="46.47397" lon="-0.12072">
        <ele>183.6</ele>
        <time>2020-05-30T18:40:22Z</time>
      </trkpt>
      <trkpt lat="46.47398" lon="-0.12079">
        <ele>183.6</ele>
        <time>2020-05-30T18:40:23Z</time>
      </trkpt>
      <trkpt lat="46.47397" lon="-0.12086">
        <ele>183.6</ele>
        <time>2020-05-30T18:40:24Z</time>
      </trkpt>
      <trkpt lat="46.47396" lon="-0.12092">
        <ele>183.6</ele>
        <time>2020-05-30T18:40:25Z</time>
      </trkpt>
      <trkpt lat="46.47396" lon="-0.12097">
        <ele>183.6</ele>
        <time>2020-05-30T18:40:26Z</time>
      </trkpt>
      <trkpt lat="46.47396" lon="-0.12102">
        <ele>183.6</ele>
        <time>2020-05-30T18:40:27Z</time>
      </trkpt>
      <trkpt lat="46.47396" lon="-0.12108">
        <ele>183.6</ele>
        <time>2020-05-30T18:40:28Z</time>
      </trkpt>
      <trkpt lat="46.47396" lon="-0.12114">
        <ele>183.6</ele>
        <time>2020-05-30T18:40:29Z</time>
      </trkpt>
      <trkpt lat="46.47396" lon="-0.1212">
        <ele>183.6</ele>
        <time>2020-05-30T18:40:30Z</time>
      </trkpt>
      <trkpt lat="46.47397" lon="-0.12125">
        <ele>183.6</ele>
        <time>2020-05-30T18:40:31Z</time>
      </trkpt>
      <trkpt lat="46.47397" lon="-0.1213">
        <ele>183.6</ele>
        <time>2020-05-30T18:40:32Z</time>
      </trkpt>
      <trkpt lat="46.47396" lon="-0.12137">
        <ele>183.6</ele>
        <time>2020-05-30T18:40:33Z</time>
      </trkpt>
      <trkpt lat="46.47397" lon="-0.12144">
        <ele>183.6</ele>
        <time>2020-05-30T18:40:34Z</time>
      </trkpt>
      <trkpt lat="46.47396" lon="-0.1215">
        <ele>183.6</ele>
        <time>2020-05-30T18:40:35Z</time>
      </trkpt>
      <trkpt lat="46.47395" lon="-0.12156">
        <ele>183.6</ele>
        <time>2020-05-30T18:40:36Z</time>
      </trkpt>
      <trkpt lat="46.47396" lon="-0.12165">
        <ele>183.6</ele>
        <time>2020-05-30T18:40:37Z</time>
      </trkpt>
      <trkpt lat="46.47396" lon="-0.12173">
        <ele>183.7</ele>
        <time>2020-05-30T18:40:38Z</time>
      </trkpt>
      <trkpt lat="46.47396" lon="-0.12179">
        <ele>183.7</ele>
        <time>2020-05-30T18:40:39Z</time>
      </trkpt>
      <trkpt lat="46.47396" lon="-0.12186">
        <ele>183.7</ele>
        <time>2020-05-30T18:40:40Z</time>
      </trkpt>
      <trkpt lat="46.47397" lon="-0.12192">
        <ele>183.7</ele>
        <time>2020-05-30T18:40:41Z</time>
      </trkpt>
      <trkpt lat="46.47397" lon="-0.12198">
        <ele>183.7</ele>
        <time>2020-05-30T18:40:42Z</time>
      </trkpt>
      <trkpt lat="46.47398" lon="-0.12206">
        <ele>183.7</ele>
        <time>2020-05-30T18:40:43Z</time>
      </trkpt>
      <trkpt lat="46.47398" lon="-0.12213">
        <ele>183.7</ele>
        <time>2020-05-30T18:40:44Z</time>
      </trkpt>
      <trkpt lat="46.47399" lon="-0.12219">
        <ele>183.7</ele>
        <time>2020-05-30T18:40:45Z</time>
      </trkpt>
      <trkpt lat="46.47399" lon="-0.12228">
        <ele>183.7</ele>
        <time>2020-05-30T18:40:46Z</time>
      </trkpt>
      <trkpt lat="46.47399" lon="-0.12234">
        <ele>183.7</ele>
        <time>2020-05-30T18:40:47Z</time>
      </trkpt>
      <trkpt lat="46.47399" lon="-0.12241">
        <ele>183.7</ele>
        <time>2020-05-30T18:40:48Z</time>
      </trkpt>
      <trkpt lat="46.47399" lon="-0.12248">
        <ele>183.7</ele>
        <time>2020-05-30T18:40:49Z</time>
      </trkpt>
      <trkpt lat="46.47398" lon="-0.12255">
        <ele>183.7</ele>
        <time>2020-05-30T18:40:50Z</time>
      </trkpt>
      <trkpt lat="46.474" lon="-0.12261">
        <ele>183.7</ele>
        <time>2020-05-30T18:40:51Z</time>
      </trkpt>
      <trkpt lat="46.47399" lon="-0.12268">
        <ele>183.7</ele>
        <time>2020-05-30T18:40:52Z</time>
      </trkpt>
      <trkpt lat="46.47399" lon="-0.12275">
        <ele>183.7</ele>
        <time>2020-05-30T18:40:53Z</time>
      </trkpt>
      <trkpt lat="46.47399" lon="-0.12281">
        <ele>183.7</ele>
        <time>2020-05-30T18:40:54Z</time>
      </trkpt>
      <trkpt lat="46.47399" lon="-0.12289">
        <ele>183.6</ele>
        <time>2020-05-30T18:40:55Z</time>
      </trkpt>
      <trkpt lat="46.47399" lon="-0.12296">
        <ele>183.6</ele>
        <time>2020-05-30T18:40:56Z</time>
      </trkpt>
      <trkpt lat="46.47398" lon="-0.12304">
        <ele>183.6</ele>
        <time>2020-05-30T18:40:57Z</time>
      </trkpt>
      <trkpt lat="46.47398" lon="-0.12311">
        <ele>183.5</ele>
        <time>2020-05-30T18:40:58Z</time>
      </trkpt>
      <trkpt lat="46.47399" lon="-0.12318">
        <ele>183.5</ele>
        <time>2020-05-30T18:40:59Z</time>
      </trkpt>
      <trkpt lat="46.47399" lon="-0.12325">
        <ele>183.5</ele>
        <time>2020-05-30T18:41:00Z</time>
      </trkpt>
      <trkpt lat="46.47399" lon="-0.12331">
        <ele>183.4</ele>
        <time>2020-05-30T18:41:01Z</time>
      </trkpt>
      <trkpt lat="46.47399" lon="-0.12337">
        <ele>183.4</ele>
        <time>2020-05-30T18:41:02Z</time>
      </trkpt>
      <trkpt lat="46.47398" lon="-0.12344">
        <ele>183.3</ele>
        <time>2020-05-30T18:41:03Z</time>
      </trkpt>
      <trkpt lat="46.47398" lon="-0.12351">
        <ele>183.2</ele>
        <time>2020-05-30T18:41:04Z</time>
      </trkpt>
      <trkpt lat="46.47398" lon="-0.12357">
        <ele>183.2</ele>
        <time>2020-05-30T18:41:05Z</time>
      </trkpt>
      <trkpt lat="46.47399" lon="-0.12363">
        <ele>183.1</ele>
        <time>2020-05-30T18:41:06Z</time>
      </trkpt>
      <trkpt lat="46.47399" lon="-0.12369">
        <ele>183</ele>
        <time>2020-05-30T18:41:07Z</time>
      </trkpt>
      <trkpt lat="46.47399" lon="-0.12376">
        <ele>183</ele>
        <time>2020-05-30T18:41:08Z</time>
      </trkpt>
      <trkpt lat="46.474" lon="-0.12382">
        <ele>182.9</ele>
        <time>2020-05-30T18:41:09Z</time>
      </trkpt>
      <trkpt lat="46.474" lon="-0.12388">
        <ele>182.8</ele>
        <time>2020-05-30T18:41:10Z</time>
      </trkpt>
      <trkpt lat="46.47399" lon="-0.12393">
        <ele>182.8</ele>
        <time>2020-05-30T18:41:11Z</time>
      </trkpt>
      <trkpt lat="46.474" lon="-0.12402">
        <ele>182.7</ele>
        <time>2020-05-30T18:41:12Z</time>
      </trkpt>
      <trkpt lat="46.474" lon="-0.12407">
        <ele>182.7</ele>
        <time>2020-05-30T18:41:13Z</time>
      </trkpt>
      <trkpt lat="46.47399" lon="-0.12413">
        <ele>182.7</ele>
        <time>2020-05-30T18:41:14Z</time>
      </trkpt>
      <trkpt lat="46.474" lon="-0.12421">
        <ele>182.6</ele>
        <time>2020-05-30T18:41:15Z</time>
      </trkpt>
      <trkpt lat="46.474" lon="-0.12428">
        <ele>182.6</ele>
        <time>2020-05-30T18:41:16Z</time>
      </trkpt>
      <trkpt lat="46.47401" lon="-0.12436">
        <ele>182.6</ele>
        <time>2020-05-30T18:41:17Z</time>
      </trkpt>
      <trkpt lat="46.47401" lon="-0.12445">
        <ele>182.5</ele>
        <time>2020-05-30T18:41:18Z</time>
      </trkpt>
      <trkpt lat="46.474" lon="-0.1245">
        <ele>182.5</ele>
        <time>2020-05-30T18:41:19Z</time>
      </trkpt>
      <trkpt lat="46.47399" lon="-0.12458">
        <ele>182.4</ele>
        <time>2020-05-30T18:41:20Z</time>
      </trkpt>
      <trkpt lat="46.47398" lon="-0.12464">
        <ele>182.3</ele>
        <time>2020-05-30T18:41:21Z</time>
      </trkpt>
      <trkpt lat="46.47396" lon="-0.12471">
        <ele>182.2</ele>
        <time>2020-05-30T18:41:22Z</time>
      </trkpt>
      <trkpt lat="46.47394" lon="-0.12477">
        <ele>182.1</ele>
        <time>2020-05-30T18:41:23Z</time>
      </trkpt>
      <trkpt lat="46.47393" lon="-0.12482">
        <ele>182.1</ele>
        <time>2020-05-30T18:41:24Z</time>
      </trkpt>
      <trkpt lat="46.47391" lon="-0.12489">
        <ele>181.9</ele>
        <time>2020-05-30T18:41:25Z</time>
      </trkpt>
      <trkpt lat="46.47388" lon="-0.12495">
        <ele>181.9</ele>
        <time>2020-05-30T18:41:26Z</time>
      </trkpt>
      <trkpt lat="46.47386" lon="-0.12501">
        <ele>181.8</ele>
        <time>2020-05-30T18:41:27Z</time>
      </trkpt>
      <trkpt lat="46.47384" lon="-0.12507">
        <ele>181.7</ele>
        <time>2020-05-30T18:41:28Z</time>
      </trkpt>
      <trkpt lat="46.47382" lon="-0.12514">
        <ele>181.7</ele>
        <time>2020-05-30T18:41:29Z</time>
      </trkpt>
      <trkpt lat="46.47379" lon="-0.12521">
        <ele>181.6</ele>
        <time>2020-05-30T18:41:30Z</time>
      </trkpt>
      <trkpt lat="46.47376" lon="-0.12527">
        <ele>181.6</ele>
        <time>2020-05-30T18:41:31Z</time>
      </trkpt>
      <trkpt lat="46.47373" lon="-0.12533">
        <ele>181.6</ele>
        <time>2020-05-30T18:41:32Z</time>
      </trkpt>
      <trkpt lat="46.47369" lon="-0.12539">
        <ele>181.5</ele>
        <time>2020-05-30T18:41:33Z</time>
      </trkpt>
      <trkpt lat="46.47366" lon="-0.12544">
        <ele>181.5</ele>
        <time>2020-05-30T18:41:34Z</time>
      </trkpt>
      <trkpt lat="46.47362" lon="-0.1255">
        <ele>181.4</ele>
        <time>2020-05-30T18:41:35Z</time>
      </trkpt>
      <trkpt lat="46.47358" lon="-0.12555">
        <ele>181.2</ele>
        <time>2020-05-30T18:41:36Z</time>
      </trkpt>
      <trkpt lat="46.47354" lon="-0.12559">
        <ele>181.1</ele>
        <time>2020-05-30T18:41:37Z</time>
      </trkpt>
      <trkpt lat="46.47349" lon="-0.12562">
        <ele>180.9</ele>
        <time>2020-05-30T18:41:38Z</time>
      </trkpt>
      <trkpt lat="46.47345" lon="-0.12568">
        <ele>180.8</ele>
        <time>2020-05-30T18:41:39Z</time>
      </trkpt>
      <trkpt lat="46.4734" lon="-0.12572">
        <ele>180.7</ele>
        <time>2020-05-30T18:41:40Z</time>
      </trkpt>
      <trkpt lat="46.47335" lon="-0.12575">
        <ele>180.6</ele>
        <time>2020-05-30T18:41:41Z</time>
      </trkpt>
      <trkpt lat="46.4733" lon="-0.12578">
        <ele>180.5</ele>
        <time>2020-05-30T18:41:42Z</time>
      </trkpt>
      <trkpt lat="46.47325" lon="-0.12582">
        <ele>180.5</ele>
        <time>2020-05-30T18:41:43Z</time>
      </trkpt>
      <trkpt lat="46.47321" lon="-0.12584">
        <ele>180.4</ele>
        <time>2020-05-30T18:41:44Z</time>
      </trkpt>
      <trkpt lat="46.47316" lon="-0.12587">
        <ele>180.4</ele>
        <time>2020-05-30T18:41:45Z</time>
      </trkpt>
      <trkpt lat="46.47311" lon="-0.12589">
        <ele>180.3</ele>
        <time>2020-05-30T18:41:46Z</time>
      </trkpt>
      <trkpt lat="46.47307" lon="-0.12594">
        <ele>180.2</ele>
        <time>2020-05-30T18:41:47Z</time>
      </trkpt>
      <trkpt lat="46.47302" lon="-0.12597">
        <ele>180.2</ele>
        <time>2020-05-30T18:41:48Z</time>
      </trkpt>
      <trkpt lat="46.47298" lon="-0.126">
        <ele>180.1</ele>
        <time>2020-05-30T18:41:49Z</time>
      </trkpt>
      <trkpt lat="46.47293" lon="-0.12602">
        <ele>180.1</ele>
        <time>2020-05-30T18:41:50Z</time>
      </trkpt>
      <trkpt lat="46.47288" lon="-0.12605">
        <ele>180</ele>
        <time>2020-05-30T18:41:51Z</time>
      </trkpt>
      <trkpt lat="46.47283" lon="-0.12608">
        <ele>180</ele>
        <time>2020-05-30T18:41:52Z</time>
      </trkpt>
      <trkpt lat="46.47278" lon="-0.12611">
        <ele>180</ele>
        <time>2020-05-30T18:41:53Z</time>
      </trkpt>
      <trkpt lat="46.47273" lon="-0.12614">
        <ele>180</ele>
        <time>2020-05-30T18:41:54Z</time>
      </trkpt>
      <trkpt lat="46.47268" lon="-0.12618">
        <ele>179.9</ele>
        <time>2020-05-30T18:41:55Z</time>
      </trkpt>
      <trkpt lat="46.47262" lon="-0.12622">
        <ele>180</ele>
        <time>2020-05-30T18:41:56Z</time>
      </trkpt>
      <trkpt lat="46.47257" lon="-0.12626">
        <ele>180</ele>
        <time>2020-05-30T18:41:57Z</time>
      </trkpt>
      <trkpt lat="46.47252" lon="-0.1263">
        <ele>180</ele>
        <time>2020-05-30T18:41:58Z</time>
      </trkpt>
      <trkpt lat="46.47247" lon="-0.12634">
        <ele>180</ele>
        <time>2020-05-30T18:41:59Z</time>
      </trkpt>
      <trkpt lat="46.47242" lon="-0.12637">
        <ele>180</ele>
        <time>2020-05-30T18:42:00Z</time>
      </trkpt>
      <trkpt lat="46.47238" lon="-0.12642">
        <ele>179.9</ele>
        <time>2020-05-30T18:42:01Z</time>
      </trkpt>
      <trkpt lat="46.47233" lon="-0.12644">
        <ele>179.9</ele>
        <time>2020-05-30T18:42:02Z</time>
      </trkpt>
      <trkpt lat="46.47228" lon="-0.12647">
        <ele>179.8</ele>
        <time>2020-05-30T18:42:03Z</time>
      </trkpt>
      <trkpt lat="46.47224" lon="-0.12649">
        <ele>179.7</ele>
        <time>2020-05-30T18:42:04Z</time>
      </trkpt>
      <trkpt lat="46.47219" lon="-0.12652">
        <ele>179.5</ele>
        <time>2020-05-30T18:42:05Z</time>
      </trkpt>
      <trkpt lat="46.47215" lon="-0.12655">
        <ele>179.4</ele>
        <time>2020-05-30T18:42:06Z</time>
      </trkpt>
      <trkpt lat="46.47211" lon="-0.12658">
        <ele>179.3</ele>
        <time>2020-05-30T18:42:07Z</time>
      </trkpt>
      <trkpt lat="46.47207" lon="-0.12662">
        <ele>179.2</ele>
        <time>2020-05-30T18:42:08Z</time>
      </trkpt>
      <trkpt lat="46.47203" lon="-0.12666">
        <ele>179.2</ele>
        <time>2020-05-30T18:42:09Z</time>
      </trkpt>
      <trkpt lat="46.47199" lon="-0.12669">
        <ele>179.1</ele>
        <time>2020-05-30T18:42:10Z</time>
      </trkpt>
      <trkpt lat="46.47193" lon="-0.12672">
        <ele>179.1</ele>
        <time>2020-05-30T18:42:11Z</time>
      </trkpt>
      <trkpt lat="46.4719" lon="-0.12676">
        <ele>179</ele>
        <time>2020-05-30T18:42:12Z</time>
      </trkpt>
      <trkpt lat="46.47186" lon="-0.12678">
        <ele>179</ele>
        <time>2020-05-30T18:42:13Z</time>
      </trkpt>
      <trkpt lat="46.47182" lon="-0.1268">
        <ele>178.9</ele>
        <time>2020-05-30T18:42:14Z</time>
      </trkpt>
      <trkpt lat="46.47178" lon="-0.12684">
        <ele>178.9</ele>
        <time>2020-05-30T18:42:15Z</time>
      </trkpt>
      <trkpt lat="46.47174" lon="-0.12687">
        <ele>178.8</ele>
        <time>2020-05-30T18:42:16Z</time>
      </trkpt>
      <trkpt lat="46.47169" lon="-0.12692">
        <ele>178.7</ele>
        <time>2020-05-30T18:42:17Z</time>
      </trkpt>
      <trkpt lat="46.47165" lon="-0.12696">
        <ele>178.7</ele>
        <time>2020-05-30T18:42:18Z</time>
      </trkpt>
      <trkpt lat="46.4716" lon="-0.12698">
        <ele>178.6</ele>
        <time>2020-05-30T18:42:19Z</time>
      </trkpt>
      <trkpt lat="46.47155" lon="-0.12702">
        <ele>178.5</ele>
        <time>2020-05-30T18:42:20Z</time>
      </trkpt>
      <trkpt lat="46.47151" lon="-0.12705">
        <ele>178.4</ele>
        <time>2020-05-30T18:42:21Z</time>
      </trkpt>
      <trkpt lat="46.47147" lon="-0.12708">
        <ele>178.3</ele>
        <time>2020-05-30T18:42:22Z</time>
      </trkpt>
      <trkpt lat="46.47143" lon="-0.12712">
        <ele>178.3</ele>
        <time>2020-05-30T18:42:23Z</time>
      </trkpt>
      <trkpt lat="46.4714" lon="-0.12715">
        <ele>178.3</ele>
        <time>2020-05-30T18:42:24Z</time>
      </trkpt>
      <trkpt lat="46.47136" lon="-0.12719">
        <ele>178.2</ele>
        <time>2020-05-30T18:42:25Z</time>
      </trkpt>
      <trkpt lat="46.47132" lon="-0.12723">
        <ele>178.2</ele>
        <time>2020-05-30T18:42:26Z</time>
      </trkpt>
      <trkpt lat="46.47128" lon="-0.12726">
        <ele>178.1</ele>
        <time>2020-05-30T18:42:27Z</time>
      </trkpt>
      <trkpt lat="46.47125" lon="-0.12729">
        <ele>178.1</ele>
        <time>2020-05-30T18:42:28Z</time>
      </trkpt>
      <trkpt lat="46.47122" lon="-0.12731">
        <ele>178.1</ele>
        <time>2020-05-30T18:42:29Z</time>
      </trkpt>
      <trkpt lat="46.47119" lon="-0.12733">
        <ele>178.1</ele>
        <time>2020-05-30T18:42:30Z</time>
      </trkpt>
      <trkpt lat="46.47115" lon="-0.12736">
        <ele>178</ele>
        <time>2020-05-30T18:42:31Z</time>
      </trkpt>
      <trkpt lat="46.47111" lon="-0.12738">
        <ele>178</ele>
        <time>2020-05-30T18:42:32Z</time>
      </trkpt>
      <trkpt lat="46.47106" lon="-0.1274">
        <ele>178</ele>
        <time>2020-05-30T18:42:33Z</time>
      </trkpt>
      <trkpt lat="46.47102" lon="-0.12743">
        <ele>178</ele>
        <time>2020-05-30T18:42:34Z</time>
      </trkpt>
      <trkpt lat="46.47099" lon="-0.12746">
        <ele>177.9</ele>
        <time>2020-05-30T18:42:35Z</time>
      </trkpt>
      <trkpt lat="46.47095" lon="-0.12748">
        <ele>177.9</ele>
        <time>2020-05-30T18:42:36Z</time>
      </trkpt>
      <trkpt lat="46.47092" lon="-0.1275">
        <ele>177.9</ele>
        <time>2020-05-30T18:42:37Z</time>
      </trkpt>
      <trkpt lat="46.47088" lon="-0.12752">
        <ele>177.9</ele>
        <time>2020-05-30T18:42:38Z</time>
      </trkpt>
      <trkpt lat="46.47084" lon="-0.12755">
        <ele>177.9</ele>
        <time>2020-05-30T18:42:39Z</time>
      </trkpt>
      <trkpt lat="46.4708" lon="-0.1276">
        <ele>177.9</ele>
        <time>2020-05-30T18:42:40Z</time>
      </trkpt>
      <trkpt lat="46.47077" lon="-0.12763">
        <ele>178</ele>
        <time>2020-05-30T18:42:41Z</time>
      </trkpt>
      <trkpt lat="46.47073" lon="-0.12765">
        <ele>178</ele>
        <time>2020-05-30T18:42:42Z</time>
      </trkpt>
      <trkpt lat="46.4707" lon="-0.12767">
        <ele>178</ele>
        <time>2020-05-30T18:42:43Z</time>
      </trkpt>
      <trkpt lat="46.47067" lon="-0.12769">
        <ele>178.1</ele>
        <time>2020-05-30T18:42:44Z</time>
      </trkpt>
      <trkpt lat="46.47063" lon="-0.12771">
        <ele>178.1</ele>
        <time>2020-05-30T18:42:45Z</time>
      </trkpt>
      <trkpt lat="46.4706" lon="-0.12774">
        <ele>178.1</ele>
        <time>2020-05-30T18:42:46Z</time>
      </trkpt>
      <trkpt lat="46.47058" lon="-0.12777">
        <ele>178.2</ele>
        <time>2020-05-30T18:42:47Z</time>
      </trkpt>
      <trkpt lat="46.47054" lon="-0.12779">
        <ele>178.2</ele>
        <time>2020-05-30T18:42:48Z</time>
      </trkpt>
      <trkpt lat="46.47052" lon="-0.1278">
        <ele>178.2</ele>
        <time>2020-05-30T18:42:49Z</time>
      </trkpt>
      <trkpt lat="46.47049" lon="-0.12783">
        <ele>178.2</ele>
        <time>2020-05-30T18:42:50Z</time>
      </trkpt>
      <trkpt lat="46.47047" lon="-0.12788">
        <ele>178.3</ele>
        <time>2020-05-30T18:42:51Z</time>
      </trkpt>
      <trkpt lat="46.47045" lon="-0.12789">
        <ele>178.3</ele>
        <time>2020-05-30T18:42:52Z</time>
      </trkpt>
      <trkpt lat="46.47042" lon="-0.1279">
        <ele>178.3</ele>
        <time>2020-05-30T18:42:53Z</time>
      </trkpt>
      <trkpt lat="46.47039" lon="-0.12793">
        <ele>178.3</ele>
        <time>2020-05-30T18:42:54Z</time>
      </trkpt>
      <trkpt lat="46.47036" lon="-0.12794">
        <ele>178.3</ele>
        <time>2020-05-30T18:42:55Z</time>
      </trkpt>
      <trkpt lat="46.47033" lon="-0.12798">
        <ele>178.3</ele>
        <time>2020-05-30T18:42:56Z</time>
      </trkpt>
      <trkpt lat="46.4703" lon="-0.12799">
        <ele>178.3</ele>
        <time>2020-05-30T18:42:57Z</time>
      </trkpt>
      <trkpt lat="46.47027" lon="-0.12801">
        <ele>178.3</ele>
        <time>2020-05-30T18:42:58Z</time>
      </trkpt>
      <trkpt lat="46.47025" lon="-0.12804">
        <ele>178.3</ele>
        <time>2020-05-30T18:42:59Z</time>
      </trkpt>
      <trkpt lat="46.47021" lon="-0.12808">
        <ele>178.3</ele>
        <time>2020-05-30T18:43:00Z</time>
      </trkpt>
      <trkpt lat="46.47019" lon="-0.1281">
        <ele>178.3</ele>
        <time>2020-05-30T18:43:01Z</time>
      </trkpt>
      <trkpt lat="46.47015" lon="-0.12812">
        <ele>178.3</ele>
        <time>2020-05-30T18:43:02Z</time>
      </trkpt>
      <trkpt lat="46.47011" lon="-0.12816">
        <ele>178.4</ele>
        <time>2020-05-30T18:43:03Z</time>
      </trkpt>
      <trkpt lat="46.47008" lon="-0.12818">
        <ele>178.4</ele>
        <time>2020-05-30T18:43:04Z</time>
      </trkpt>
      <trkpt lat="46.47005" lon="-0.1282">
        <ele>178.4</ele>
        <time>2020-05-30T18:43:05Z</time>
      </trkpt>
      <trkpt lat="46.47002" lon="-0.12821">
        <ele>178.5</ele>
        <time>2020-05-30T18:43:06Z</time>
      </trkpt>
      <trkpt lat="46.46999" lon="-0.12824">
        <ele>178.5</ele>
        <time>2020-05-30T18:43:07Z</time>
      </trkpt>
      <trkpt lat="46.46997" lon="-0.12827">
        <ele>178.5</ele>
        <time>2020-05-30T18:43:08Z</time>
      </trkpt>
      <trkpt lat="46.46994" lon="-0.12829">
        <ele>178.6</ele>
        <time>2020-05-30T18:43:09Z</time>
      </trkpt>
      <trkpt lat="46.46991" lon="-0.12832">
        <ele>178.6</ele>
        <time>2020-05-30T18:43:10Z</time>
      </trkpt>
      <trkpt lat="46.46988" lon="-0.12835">
        <ele>178.7</ele>
        <time>2020-05-30T18:43:11Z</time>
      </trkpt>
      <trkpt lat="46.46985" lon="-0.12837">
        <ele>178.7</ele>
        <time>2020-05-30T18:43:12Z</time>
      </trkpt>
      <trkpt lat="46.46983" lon="-0.12839">
        <ele>178.7</ele>
        <time>2020-05-30T18:43:13Z</time>
      </trkpt>
      <trkpt lat="46.4698" lon="-0.12841">
        <ele>178.8</ele>
        <time>2020-05-30T18:43:14Z</time>
      </trkpt>
      <trkpt lat="46.46977" lon="-0.12844">
        <ele>178.8</ele>
        <time>2020-05-30T18:43:15Z</time>
      </trkpt>
      <trkpt lat="46.46973" lon="-0.12847">
        <ele>178.8</ele>
        <time>2020-05-30T18:43:16Z</time>
      </trkpt>
      <trkpt lat="46.4697" lon="-0.1285">
        <ele>178.9</ele>
        <time>2020-05-30T18:43:17Z</time>
      </trkpt>
      <trkpt lat="46.46966" lon="-0.12854">
        <ele>178.9</ele>
        <time>2020-05-30T18:43:18Z</time>
      </trkpt>
      <trkpt lat="46.46963" lon="-0.12858">
        <ele>178.9</ele>
        <time>2020-05-30T18:43:19Z</time>
      </trkpt>
      <trkpt lat="46.4696" lon="-0.12861">
        <ele>178.9</ele>
        <time>2020-05-30T18:43:20Z</time>
      </trkpt>
      <trkpt lat="46.46956" lon="-0.12864">
        <ele>178.9</ele>
        <time>2020-05-30T18:43:21Z</time>
      </trkpt>
      <trkpt lat="46.46953" lon="-0.12867">
        <ele>179</ele>
        <time>2020-05-30T18:43:22Z</time>
      </trkpt>
      <trkpt lat="46.46949" lon="-0.1287">
        <ele>178.9</ele>
        <time>2020-05-30T18:43:23Z</time>
      </trkpt>
      <trkpt lat="46.46946" lon="-0.12873">
        <ele>178.9</ele>
        <time>2020-05-30T18:43:24Z</time>
      </trkpt>
      <trkpt lat="46.46943" lon="-0.12875">
        <ele>178.9</ele>
        <time>2020-05-30T18:43:25Z</time>
      </trkpt>
      <trkpt lat="46.4694" lon="-0.12879">
        <ele>178.9</ele>
        <time>2020-05-30T18:43:26Z</time>
      </trkpt>
      <trkpt lat="46.46937" lon="-0.12882">
        <ele>178.9</ele>
        <time>2020-05-30T18:43:27Z</time>
      </trkpt>
      <trkpt lat="46.46934" lon="-0.12885">
        <ele>179</ele>
        <time>2020-05-30T18:43:28Z</time>
      </trkpt>
      <trkpt lat="46.46931" lon="-0.12888">
        <ele>179</ele>
        <time>2020-05-30T18:43:29Z</time>
      </trkpt>
      <trkpt lat="46.46928" lon="-0.12891">
        <ele>179</ele>
        <time>2020-05-30T18:43:30Z</time>
      </trkpt>
      <trkpt lat="46.46924" lon="-0.12893">
        <ele>179</ele>
        <time>2020-05-30T18:43:31Z</time>
      </trkpt>
      <trkpt lat="46.4692" lon="-0.12895">
        <ele>179</ele>
        <time>2020-05-30T18:43:32Z</time>
      </trkpt>
      <trkpt lat="46.46917" lon="-0.12898">
        <ele>179</ele>
        <time>2020-05-30T18:43:33Z</time>
      </trkpt>
      <trkpt lat="46.46915" lon="-0.12899">
        <ele>179</ele>
        <time>2020-05-30T18:43:34Z</time>
      </trkpt>
      <trkpt lat="46.46911" lon="-0.12903">
        <ele>179.1</ele>
        <time>2020-05-30T18:43:35Z</time>
      </trkpt>
      <trkpt lat="46.46908" lon="-0.12905">
        <ele>179.1</ele>
        <time>2020-05-30T18:43:36Z</time>
      </trkpt>
      <trkpt lat="46.46905" lon="-0.12907">
        <ele>179.1</ele>
        <time>2020-05-30T18:43:37Z</time>
      </trkpt>
      <trkpt lat="46.46902" lon="-0.12912">
        <ele>179</ele>
        <time>2020-05-30T18:43:38Z</time>
      </trkpt>
      <trkpt lat="46.46898" lon="-0.12914">
        <ele>179</ele>
        <time>2020-05-30T18:43:39Z</time>
      </trkpt>
      <trkpt lat="46.46894" lon="-0.12919">
        <ele>179</ele>
        <time>2020-05-30T18:43:40Z</time>
      </trkpt>
      <trkpt lat="46.4689" lon="-0.12923">
        <ele>179</ele>
        <time>2020-05-30T18:43:41Z</time>
      </trkpt>
      <trkpt lat="46.46887" lon="-0.12927">
        <ele>179</ele>
        <time>2020-05-30T18:43:42Z</time>
      </trkpt>
      <trkpt lat="46.46883" lon="-0.1293">
        <ele>179</ele>
        <time>2020-05-30T18:43:43Z</time>
      </trkpt>
      <trkpt lat="46.46879" lon="-0.12934">
        <ele>178.9</ele>
        <time>2020-05-30T18:43:44Z</time>
      </trkpt>
      <trkpt lat="46.46875" lon="-0.12937">
        <ele>178.9</ele>
        <time>2020-05-30T18:43:45Z</time>
      </trkpt>
      <trkpt lat="46.46872" lon="-0.12939">
        <ele>178.9</ele>
        <time>2020-05-30T18:43:46Z</time>
      </trkpt>
      <trkpt lat="46.46868" lon="-0.12942">
        <ele>178.8</ele>
        <time>2020-05-30T18:43:47Z</time>
      </trkpt>
      <trkpt lat="46.46865" lon="-0.12945">
        <ele>178.8</ele>
        <time>2020-05-30T18:43:48Z</time>
      </trkpt>
      <trkpt lat="46.46862" lon="-0.12949">
        <ele>178.7</ele>
        <time>2020-05-30T18:43:49Z</time>
      </trkpt>
      <trkpt lat="46.46858" lon="-0.12952">
        <ele>178.6</ele>
        <time>2020-05-30T18:43:50Z</time>
      </trkpt>
      <trkpt lat="46.46854" lon="-0.12955">
        <ele>178.5</ele>
        <time>2020-05-30T18:43:51Z</time>
      </trkpt>
      <trkpt lat="46.46851" lon="-0.12959">
        <ele>178.4</ele>
        <time>2020-05-30T18:43:52Z</time>
      </trkpt>
      <trkpt lat="46.46847" lon="-0.12961">
        <ele>178.2</ele>
        <time>2020-05-30T18:43:53Z</time>
      </trkpt>
      <trkpt lat="46.46843" lon="-0.12965">
        <ele>178.1</ele>
        <time>2020-05-30T18:43:54Z</time>
      </trkpt>
      <trkpt lat="46.4684" lon="-0.12968">
        <ele>178</ele>
        <time>2020-05-30T18:43:55Z</time>
      </trkpt>
      <trkpt lat="46.46836" lon="-0.12972">
        <ele>177.8</ele>
        <time>2020-05-30T18:43:56Z</time>
      </trkpt>
      <trkpt lat="46.46831" lon="-0.12976">
        <ele>177.6</ele>
        <time>2020-05-30T18:43:57Z</time>
      </trkpt>
      <trkpt lat="46.46827" lon="-0.1298">
        <ele>177.5</ele>
        <time>2020-05-30T18:43:58Z</time>
      </trkpt>
      <trkpt lat="46.46823" lon="-0.12984">
        <ele>177.3</ele>
        <time>2020-05-30T18:43:59Z</time>
      </trkpt>
      <trkpt lat="46.46818" lon="-0.12988">
        <ele>177.1</ele>
        <time>2020-05-30T18:44:00Z</time>
      </trkpt>
      <trkpt lat="46.46814" lon="-0.12992">
        <ele>176.9</ele>
        <time>2020-05-30T18:44:01Z</time>
      </trkpt>
      <trkpt lat="46.46809" lon="-0.12996">
        <ele>176.7</ele>
        <time>2020-05-30T18:44:02Z</time>
      </trkpt>
      <trkpt lat="46.46803" lon="-0.12999">
        <ele>176.5</ele>
        <time>2020-05-30T18:44:03Z</time>
      </trkpt>
      <trkpt lat="46.468" lon="-0.13004">
        <ele>176.3</ele>
        <time>2020-05-30T18:44:04Z</time>
      </trkpt>
      <trkpt lat="46.46796" lon="-0.13008">
        <ele>176.1</ele>
        <time>2020-05-30T18:44:05Z</time>
      </trkpt>
      <trkpt lat="46.46791" lon="-0.13011">
        <ele>176</ele>
        <time>2020-05-30T18:44:06Z</time>
      </trkpt>
      <trkpt lat="46.46787" lon="-0.13014">
        <ele>175.8</ele>
        <time>2020-05-30T18:44:07Z</time>
      </trkpt>
      <trkpt lat="46.46782" lon="-0.13018">
        <ele>175.7</ele>
        <time>2020-05-30T18:44:08Z</time>
      </trkpt>
      <trkpt lat="46.46777" lon="-0.13023">
        <ele>175.5</ele>
        <time>2020-05-30T18:44:09Z</time>
      </trkpt>
      <trkpt lat="46.46772" lon="-0.13029">
        <ele>175.3</ele>
        <time>2020-05-30T18:44:10Z</time>
      </trkpt>
      <trkpt lat="46.46766" lon="-0.13034">
        <ele>175.2</ele>
        <time>2020-05-30T18:44:11Z</time>
      </trkpt>
      <trkpt lat="46.46762" lon="-0.1304">
        <ele>175</ele>
        <time>2020-05-30T18:44:12Z</time>
      </trkpt>
      <trkpt lat="46.46756" lon="-0.13044">
        <ele>174.9</ele>
        <time>2020-05-30T18:44:13Z</time>
      </trkpt>
      <trkpt lat="46.46751" lon="-0.13049">
        <ele>174.8</ele>
        <time>2020-05-30T18:44:14Z</time>
      </trkpt>
      <trkpt lat="46.46746" lon="-0.13053">
        <ele>174.7</ele>
        <time>2020-05-30T18:44:15Z</time>
      </trkpt>
      <trkpt lat="46.4674" lon="-0.13056">
        <ele>174.6</ele>
        <time>2020-05-30T18:44:16Z</time>
      </trkpt>
      <trkpt lat="46.46735" lon="-0.13061">
        <ele>174.5</ele>
        <time>2020-05-30T18:44:17Z</time>
      </trkpt>
      <trkpt lat="46.4673" lon="-0.13066">
        <ele>174.4</ele>
        <time>2020-05-30T18:44:18Z</time>
      </trkpt>
      <trkpt lat="46.46725" lon="-0.13071">
        <ele>174.3</ele>
        <time>2020-05-30T18:44:19Z</time>
      </trkpt>
      <trkpt lat="46.4672" lon="-0.13075">
        <ele>174.3</ele>
        <time>2020-05-30T18:44:20Z</time>
      </trkpt>
      <trkpt lat="46.46715" lon="-0.1308">
        <ele>174.2</ele>
        <time>2020-05-30T18:44:21Z</time>
      </trkpt>
      <trkpt lat="46.4671" lon="-0.13083">
        <ele>174.1</ele>
        <time>2020-05-30T18:44:22Z</time>
      </trkpt>
      <trkpt lat="46.46705" lon="-0.13087">
        <ele>174.1</ele>
        <time>2020-05-30T18:44:23Z</time>
      </trkpt>
      <trkpt lat="46.46699" lon="-0.13092">
        <ele>174</ele>
        <time>2020-05-30T18:44:24Z</time>
      </trkpt>
      <trkpt lat="46.46693" lon="-0.13096">
        <ele>174</ele>
        <time>2020-05-30T18:44:25Z</time>
      </trkpt>
      <trkpt lat="46.46688" lon="-0.13099">
        <ele>174</ele>
        <time>2020-05-30T18:44:26Z</time>
      </trkpt>
      <trkpt lat="46.46684" lon="-0.13102">
        <ele>174</ele>
        <time>2020-05-30T18:44:27Z</time>
      </trkpt>
      <trkpt lat="46.46679" lon="-0.13104">
        <ele>174</ele>
        <time>2020-05-30T18:44:28Z</time>
      </trkpt>
      <trkpt lat="46.46673" lon="-0.13107">
        <ele>174</ele>
        <time>2020-05-30T18:44:29Z</time>
      </trkpt>
      <trkpt lat="46.46667" lon="-0.13109">
        <ele>174</ele>
        <time>2020-05-30T18:44:30Z</time>
      </trkpt>
      <trkpt lat="46.46662" lon="-0.13112">
        <ele>174.1</ele>
        <time>2020-05-30T18:44:31Z</time>
      </trkpt>
      <trkpt lat="46.46658" lon="-0.13114">
        <ele>174.1</ele>
        <time>2020-05-30T18:44:32Z</time>
      </trkpt>
      <trkpt lat="46.46653" lon="-0.13116">
        <ele>174.2</ele>
        <time>2020-05-30T18:44:33Z</time>
      </trkpt>
      <trkpt lat="46.46649" lon="-0.13119">
        <ele>174.3</ele>
        <time>2020-05-30T18:44:34Z</time>
      </trkpt>
      <trkpt lat="46.46644" lon="-0.13122">
        <ele>174.4</ele>
        <time>2020-05-30T18:44:35Z</time>
      </trkpt>
      <trkpt lat="46.46639" lon="-0.13125">
        <ele>174.4</ele>
        <time>2020-05-30T18:44:36Z</time>
      </trkpt>
      <trkpt lat="46.46635" lon="-0.13126">
        <ele>174.5</ele>
        <time>2020-05-30T18:44:37Z</time>
      </trkpt>
      <trkpt lat="46.46632" lon="-0.1313">
        <ele>174.6</ele>
        <time>2020-05-30T18:44:38Z</time>
      </trkpt>
      <trkpt lat="46.46627" lon="-0.13135">
        <ele>174.7</ele>
        <time>2020-05-30T18:44:39Z</time>
      </trkpt>
      <trkpt lat="46.46622" lon="-0.13139">
        <ele>174.8</ele>
        <time>2020-05-30T18:44:40Z</time>
      </trkpt>
      <trkpt lat="46.46616" lon="-0.13142">
        <ele>174.9</ele>
        <time>2020-05-30T18:44:41Z</time>
      </trkpt>
      <trkpt lat="46.46613" lon="-0.13145">
        <ele>174.9</ele>
        <time>2020-05-30T18:44:42Z</time>
      </trkpt>
      <trkpt lat="46.46609" lon="-0.13147">
        <ele>175</ele>
        <time>2020-05-30T18:44:43Z</time>
      </trkpt>
      <trkpt lat="46.46606" lon="-0.1315">
        <ele>175</ele>
        <time>2020-05-30T18:44:44Z</time>
      </trkpt>
      <trkpt lat="46.46602" lon="-0.13154">
        <ele>175.1</ele>
        <time>2020-05-30T18:44:45Z</time>
      </trkpt>
      <trkpt lat="46.46598" lon="-0.13157">
        <ele>175.1</ele>
        <time>2020-05-30T18:44:46Z</time>
      </trkpt>
      <trkpt lat="46.46594" lon="-0.1316">
        <ele>175.2</ele>
        <time>2020-05-30T18:44:47Z</time>
      </trkpt>
      <trkpt lat="46.4659" lon="-0.13164">
        <ele>175.3</ele>
        <time>2020-05-30T18:44:48Z</time>
      </trkpt>
      <trkpt lat="46.46587" lon="-0.13167">
        <ele>175.3</ele>
        <time>2020-05-30T18:44:49Z</time>
      </trkpt>
      <trkpt lat="46.46583" lon="-0.13171">
        <ele>175.4</ele>
        <time>2020-05-30T18:44:50Z</time>
      </trkpt>
      <trkpt lat="46.46578" lon="-0.13174">
        <ele>175.5</ele>
        <time>2020-05-30T18:44:51Z</time>
      </trkpt>
      <trkpt lat="46.46575" lon="-0.13176">
        <ele>175.6</ele>
        <time>2020-05-30T18:44:52Z</time>
      </trkpt>
      <trkpt lat="46.46572" lon="-0.1318">
        <ele>175.6</ele>
        <time>2020-05-30T18:44:53Z</time>
      </trkpt>
      <trkpt lat="46.46568" lon="-0.13183">
        <ele>175.7</ele>
        <time>2020-05-30T18:44:54Z</time>
      </trkpt>
      <trkpt lat="46.46565" lon="-0.13187">
        <ele>175.8</ele>
        <time>2020-05-30T18:44:55Z</time>
      </trkpt>
      <trkpt lat="46.46561" lon="-0.13191">
        <ele>175.9</ele>
        <time>2020-05-30T18:44:56Z</time>
      </trkpt>
      <trkpt lat="46.46558" lon="-0.13194">
        <ele>176</ele>
        <time>2020-05-30T18:44:57Z</time>
      </trkpt>
      <trkpt lat="46.46555" lon="-0.13199">
        <ele>176.1</ele>
        <time>2020-05-30T18:44:58Z</time>
      </trkpt>
      <trkpt lat="46.46553" lon="-0.13203">
        <ele>176.2</ele>
        <time>2020-05-30T18:44:59Z</time>
      </trkpt>
      <trkpt lat="46.4655" lon="-0.13205">
        <ele>176.3</ele>
        <time>2020-05-30T18:45:00Z</time>
      </trkpt>
      <trkpt lat="46.46546" lon="-0.13208">
        <ele>176.4</ele>
        <time>2020-05-30T18:45:01Z</time>
      </trkpt>
      <trkpt lat="46.46541" lon="-0.13215">
        <ele>176.5</ele>
        <time>2020-05-30T18:45:02Z</time>
      </trkpt>
      <trkpt lat="46.46539" lon="-0.13218">
        <ele>176.6</ele>
        <time>2020-05-30T18:45:03Z</time>
      </trkpt>
      <trkpt lat="46.46536" lon="-0.13222">
        <ele>176.6</ele>
        <time>2020-05-30T18:45:04Z</time>
      </trkpt>
      <trkpt lat="46.46534" lon="-0.13225">
        <ele>176.7</ele>
        <time>2020-05-30T18:45:05Z</time>
      </trkpt>
      <trkpt lat="46.46531" lon="-0.13228">
        <ele>176.7</ele>
        <time>2020-05-30T18:45:06Z</time>
      </trkpt>
      <trkpt lat="46.46527" lon="-0.13231">
        <ele>176.8</ele>
        <time>2020-05-30T18:45:07Z</time>
      </trkpt>
      <trkpt lat="46.46524" lon="-0.13234">
        <ele>176.9</ele>
        <time>2020-05-30T18:45:08Z</time>
      </trkpt>
      <trkpt lat="46.4652" lon="-0.13238">
        <ele>176.9</ele>
        <time>2020-05-30T18:45:09Z</time>
      </trkpt>
      <trkpt lat="46.46518" lon="-0.13242">
        <ele>177</ele>
        <time>2020-05-30T18:45:10Z</time>
      </trkpt>
      <trkpt lat="46.46515" lon="-0.13245">
        <ele>177</ele>
        <time>2020-05-30T18:45:11Z</time>
      </trkpt>
      <trkpt lat="46.46513" lon="-0.1325">
        <ele>177.1</ele>
        <time>2020-05-30T18:45:12Z</time>
      </trkpt>
      <trkpt lat="46.4651" lon="-0.13253">
        <ele>177.1</ele>
        <time>2020-05-30T18:45:13Z</time>
      </trkpt>
      <trkpt lat="46.46507" lon="-0.13257">
        <ele>177.2</ele>
        <time>2020-05-30T18:45:14Z</time>
      </trkpt>
      <trkpt lat="46.46504" lon="-0.13261">
        <ele>177.3</ele>
        <time>2020-05-30T18:45:15Z</time>
      </trkpt>
      <trkpt lat="46.46502" lon="-0.13266">
        <ele>177.3</ele>
        <time>2020-05-30T18:45:16Z</time>
      </trkpt>
      <trkpt lat="46.46498" lon="-0.1327">
        <ele>177.4</ele>
        <time>2020-05-30T18:45:17Z</time>
      </trkpt>
      <trkpt lat="46.46495" lon="-0.13274">
        <ele>177.5</ele>
        <time>2020-05-30T18:45:18Z</time>
      </trkpt>
      <trkpt lat="46.46492" lon="-0.13279">
        <ele>177.6</ele>
        <time>2020-05-30T18:45:19Z</time>
      </trkpt>
      <trkpt lat="46.46489" lon="-0.13284">
        <ele>177.7</ele>
        <time>2020-05-30T18:45:20Z</time>
      </trkpt>
      <trkpt lat="46.46486" lon="-0.13288">
        <ele>177.7</ele>
        <time>2020-05-30T18:45:21Z</time>
      </trkpt>
      <trkpt lat="46.46483" lon="-0.13292">
        <ele>177.8</ele>
        <time>2020-05-30T18:45:22Z</time>
      </trkpt>
      <trkpt lat="46.46481" lon="-0.13297">
        <ele>177.9</ele>
        <time>2020-05-30T18:45:23Z</time>
      </trkpt>
      <trkpt lat="46.46478" lon="-0.13301">
        <ele>178</ele>
        <time>2020-05-30T18:45:24Z</time>
      </trkpt>
      <trkpt lat="46.46476" lon="-0.13305">
        <ele>178.1</ele>
        <time>2020-05-30T18:45:25Z</time>
      </trkpt>
      <trkpt lat="46.46472" lon="-0.13311">
        <ele>178.2</ele>
        <time>2020-05-30T18:45:26Z</time>
      </trkpt>
      <trkpt lat="46.4647" lon="-0.13315">
        <ele>178.2</ele>
        <time>2020-05-30T18:45:27Z</time>
      </trkpt>
      <trkpt lat="46.46467" lon="-0.13319">
        <ele>178.3</ele>
        <time>2020-05-30T18:45:28Z</time>
      </trkpt>
      <trkpt lat="46.46465" lon="-0.13325">
        <ele>178.4</ele>
        <time>2020-05-30T18:45:29Z</time>
      </trkpt>
      <trkpt lat="46.46462" lon="-0.13329">
        <ele>178.5</ele>
        <time>2020-05-30T18:45:30Z</time>
      </trkpt>
      <trkpt lat="46.4646" lon="-0.13336">
        <ele>178.6</ele>
        <time>2020-05-30T18:45:31Z</time>
      </trkpt>
      <trkpt lat="46.46458" lon="-0.13341">
        <ele>178.6</ele>
        <time>2020-05-30T18:45:32Z</time>
      </trkpt>
      <trkpt lat="46.46455" lon="-0.13346">
        <ele>178.7</ele>
        <time>2020-05-30T18:45:33Z</time>
      </trkpt>
      <trkpt lat="46.46454" lon="-0.13351">
        <ele>178.8</ele>
        <time>2020-05-30T18:45:34Z</time>
      </trkpt>
      <trkpt lat="46.46451" lon="-0.13356">
        <ele>178.8</ele>
        <time>2020-05-30T18:45:35Z</time>
      </trkpt>
      <trkpt lat="46.46449" lon="-0.13361">
        <ele>178.9</ele>
        <time>2020-05-30T18:45:36Z</time>
      </trkpt>
      <trkpt lat="46.46447" lon="-0.13364">
        <ele>178.9</ele>
        <time>2020-05-30T18:45:37Z</time>
      </trkpt>
      <trkpt lat="46.46444" lon="-0.13369">
        <ele>179</ele>
        <time>2020-05-30T18:45:38Z</time>
      </trkpt>
      <trkpt lat="46.46443" lon="-0.13371">
        <ele>179</ele>
        <time>2020-05-30T18:45:39Z</time>
      </trkpt>
      <trkpt lat="46.46441" lon="-0.13375">
        <ele>179.1</ele>
        <time>2020-05-30T18:45:40Z</time>
      </trkpt>
      <trkpt lat="46.46439" lon="-0.13379">
        <ele>179.2</ele>
        <time>2020-05-30T18:45:41Z</time>
      </trkpt>
      <trkpt lat="46.46437" lon="-0.13382">
        <ele>179.2</ele>
        <time>2020-05-30T18:45:42Z</time>
      </trkpt>
      <trkpt lat="46.46436" lon="-0.13385">
        <ele>179.3</ele>
        <time>2020-05-30T18:45:43Z</time>
      </trkpt>
      <trkpt lat="46.46435" lon="-0.1339">
        <ele>179.3</ele>
        <time>2020-05-30T18:45:44Z</time>
      </trkpt>
      <trkpt lat="46.46433" lon="-0.13394">
        <ele>179.4</ele>
        <time>2020-05-30T18:45:45Z</time>
      </trkpt>
      <trkpt lat="46.46431" lon="-0.13398">
        <ele>179.4</ele>
        <time>2020-05-30T18:45:46Z</time>
      </trkpt>
      <trkpt lat="46.46429" lon="-0.13401">
        <ele>179.5</ele>
        <time>2020-05-30T18:45:47Z</time>
      </trkpt>
      <trkpt lat="46.46428" lon="-0.13403">
        <ele>179.5</ele>
        <time>2020-05-30T18:45:48Z</time>
      </trkpt>
      <trkpt lat="46.46426" lon="-0.13406">
        <ele>179.6</ele>
        <time>2020-05-30T18:45:49Z</time>
      </trkpt>
      <trkpt lat="46.46424" lon="-0.1341">
        <ele>179.6</ele>
        <time>2020-05-30T18:45:50Z</time>
      </trkpt>
      <trkpt lat="46.46423" lon="-0.13414">
        <ele>179.6</ele>
        <time>2020-05-30T18:45:51Z</time>
      </trkpt>
      <trkpt lat="46.46421" lon="-0.13417">
        <ele>179.7</ele>
        <time>2020-05-30T18:45:52Z</time>
      </trkpt>
      <trkpt lat="46.46419" lon="-0.13421">
        <ele>179.7</ele>
        <time>2020-05-30T18:45:53Z</time>
      </trkpt>
      <trkpt lat="46.46416" lon="-0.13425">
        <ele>179.8</ele>
        <time>2020-05-30T18:45:54Z</time>
      </trkpt>
      <trkpt lat="46.46415" lon="-0.13427">
        <ele>179.8</ele>
        <time>2020-05-30T18:45:55Z</time>
      </trkpt>
      <trkpt lat="46.46413" lon="-0.1343">
        <ele>179.8</ele>
        <time>2020-05-30T18:45:56Z</time>
      </trkpt>
      <trkpt lat="46.46411" lon="-0.13436">
        <ele>179.8</ele>
        <time>2020-05-30T18:45:57Z</time>
      </trkpt>
      <trkpt lat="46.4641" lon="-0.1344">
        <ele>179.9</ele>
        <time>2020-05-30T18:45:58Z</time>
      </trkpt>
      <trkpt lat="46.46407" lon="-0.13446">
        <ele>179.9</ele>
        <time>2020-05-30T18:45:59Z</time>
      </trkpt>
      <trkpt lat="46.46406" lon="-0.13451">
        <ele>179.9</ele>
        <time>2020-05-30T18:46:00Z</time>
      </trkpt>
      <trkpt lat="46.46405" lon="-0.13456">
        <ele>180</ele>
        <time>2020-05-30T18:46:01Z</time>
      </trkpt>
      <trkpt lat="46.46404" lon="-0.13461">
        <ele>180</ele>
        <time>2020-05-30T18:46:02Z</time>
      </trkpt>
      <trkpt lat="46.46402" lon="-0.13465">
        <ele>180</ele>
        <time>2020-05-30T18:46:03Z</time>
      </trkpt>
      <trkpt lat="46.46401" lon="-0.1347">
        <ele>180</ele>
        <time>2020-05-30T18:46:04Z</time>
      </trkpt>
      <trkpt lat="46.464" lon="-0.13474">
        <ele>180.1</ele>
        <time>2020-05-30T18:46:05Z</time>
      </trkpt>
      <trkpt lat="46.46399" lon="-0.13478">
        <ele>180.1</ele>
        <time>2020-05-30T18:46:06Z</time>
      </trkpt>
      <trkpt lat="46.46398" lon="-0.13485">
        <ele>180.1</ele>
        <time>2020-05-30T18:46:07Z</time>
      </trkpt>
      <trkpt lat="46.46397" lon="-0.13488">
        <ele>180.1</ele>
        <time>2020-05-30T18:46:08Z</time>
      </trkpt>
      <trkpt lat="46.46396" lon="-0.13493">
        <ele>180.1</ele>
        <time>2020-05-30T18:46:09Z</time>
      </trkpt>
      <trkpt lat="46.46395" lon="-0.13497">
        <ele>180.1</ele>
        <time>2020-05-30T18:46:10Z</time>
      </trkpt>
      <trkpt lat="46.46395" lon="-0.13502">
        <ele>180.2</ele>
        <time>2020-05-30T18:46:11Z</time>
      </trkpt>
      <trkpt lat="46.46394" lon="-0.13503">
        <ele>180.2</ele>
        <time>2020-05-30T18:46:12Z</time>
      </trkpt>
      <trkpt lat="46.46395" lon="-0.13505">
        <ele>180.2</ele>
        <time>2020-05-30T18:46:13Z</time>
      </trkpt>
      <trkpt lat="46.46396" lon="-0.13506">
        <ele>180.2</ele>
        <time>2020-05-30T18:46:14Z</time>
      </trkpt>
      <trkpt lat="46.46396" lon="-0.13506">
        <ele>180.2</ele>
        <time>2020-05-30T18:46:15Z</time>
      </trkpt>
      <trkpt lat="46.46396" lon="-0.13507">
        <ele>180.2</ele>
        <time>2020-05-30T18:46:16Z</time>
      </trkpt>
      <trkpt lat="46.46395" lon="-0.13505">
        <ele>180.2</ele>
        <time>2020-05-30T18:46:17Z</time>
      </trkpt>
      <trkpt lat="46.46395" lon="-0.13506">
        <ele>180.2</ele>
        <time>2020-05-30T18:46:18Z</time>
      </trkpt>
      <trkpt lat="46.46395" lon="-0.13506">
        <ele>180.2</ele>
        <time>2020-05-30T18:46:19Z</time>
      </trkpt>
      <trkpt lat="46.46395" lon="-0.13506">
        <ele>180.2</ele>
        <time>2020-05-30T18:46:20Z</time>
      </trkpt>
      <trkpt lat="46.46395" lon="-0.13506">
        <ele>180.2</ele>
        <time>2020-05-30T18:46:21Z</time>
      </trkpt>
      <trkpt lat="46.46395" lon="-0.13506">
        <ele>180.2</ele>
        <time>2020-05-30T18:46:22Z</time>
      </trkpt>
      <trkpt lat="46.46395" lon="-0.13506">
        <ele>180.2</ele>
        <time>2020-05-30T18:46:23Z</time>
      </trkpt>
      <trkpt lat="46.46395" lon="-0.13506">
        <ele>180.2</ele>
        <time>2020-05-30T18:46:24Z</time>
      </trkpt>
      <trkpt lat="46.46395" lon="-0.13506">
        <ele>180.2</ele>
        <time>2020-05-30T18:46:25Z</time>
      </trkpt>
      <trkpt lat="46.46395" lon="-0.13507">
        <ele>180.2</ele>
        <time>2020-05-30T18:46:26Z</time>
      </trkpt>
      <trkpt lat="46.46395" lon="-0.13507">
        <ele>180.2</ele>
        <time>2020-05-30T18:46:27Z</time>
      </trkpt>
      <trkpt lat="46.46395" lon="-0.13507">
        <ele>180.2</ele>
        <time>2020-05-30T18:46:28Z</time>
      </trkpt>
      <trkpt lat="46.46395" lon="-0.13507">
        <ele>180.2</ele>
        <time>2020-05-30T18:46:29Z</time>
      </trkpt>
      <trkpt lat="46.46395" lon="-0.13507">
        <ele>180.2</ele>
        <time>2020-05-30T18:46:30Z</time>
      </trkpt>
      <trkpt lat="46.46395" lon="-0.13507">
        <ele>180.2</ele>
        <time>2020-05-30T18:46:31Z</time>
      </trkpt>
      <trkpt lat="46.46395" lon="-0.13507">
        <ele>180.2</ele>
        <time>2020-05-30T18:46:32Z</time>
      </trkpt>
      <trkpt lat="46.46395" lon="-0.13507">
        <ele>180.2</ele>
        <time>2020-05-30T18:46:33Z</time>
      </trkpt>
      <trkpt lat="46.46396" lon="-0.13508">
        <ele>180.2</ele>
        <time>2020-05-30T18:46:34Z</time>
      </trkpt>
      <trkpt lat="46.46396" lon="-0.13508">
        <ele>180.2</ele>
        <time>2020-05-30T18:46:35Z</time>
      </trkpt>
      <trkpt lat="46.46396" lon="-0.13508">
        <ele>180.2</ele>
        <time>2020-05-30T18:46:36Z</time>
      </trkpt>
      <trkpt lat="46.46396" lon="-0.13508">
        <ele>180.2</ele>
        <time>2020-05-30T18:46:37Z</time>
      </trkpt>
      <trkpt lat="46.46396" lon="-0.13508">
        <ele>180.2</ele>
        <time>2020-05-30T18:46:38Z</time>
      </trkpt>
      <trkpt lat="46.46396" lon="-0.13508">
        <ele>180.2</ele>
        <time>2020-05-30T18:46:39Z</time>
      </trkpt>
      <trkpt lat="46.46396" lon="-0.13508">
        <ele>180.2</ele>
        <time>2020-05-30T18:46:40Z</time>
      </trkpt>
      <trkpt lat="46.46396" lon="-0.13509">
        <ele>180.2</ele>
        <time>2020-05-30T18:46:41Z</time>
      </trkpt>
      <trkpt lat="46.46396" lon="-0.13509">
        <ele>180.2</ele>
        <time>2020-05-30T18:46:42Z</time>
      </trkpt>
      <trkpt lat="46.46396" lon="-0.13509">
        <ele>180.2</ele>
        <time>2020-05-30T18:46:43Z</time>
      </trkpt>
      <trkpt lat="46.46396" lon="-0.13509">
        <ele>180.2</ele>
        <time>2020-05-30T18:46:44Z</time>
      </trkpt>
      <trkpt lat="46.46396" lon="-0.13509">
        <ele>180.2</ele>
        <time>2020-05-30T18:46:45Z</time>
      </trkpt>
      <trkpt lat="46.46396" lon="-0.13509">
        <ele>180.2</ele>
        <time>2020-05-30T18:46:46Z</time>
      </trkpt>
      <trkpt lat="46.46396" lon="-0.13509">
        <ele>180.2</ele>
        <time>2020-05-30T18:46:47Z</time>
      </trkpt>
      <trkpt lat="46.46396" lon="-0.13509">
        <ele>180.2</ele>
        <time>2020-05-30T18:46:48Z</time>
      </trkpt>
      <trkpt lat="46.46396" lon="-0.1351">
        <ele>180.2</ele>
        <time>2020-05-30T18:46:49Z</time>
      </trkpt>
      <trkpt lat="46.46396" lon="-0.1351">
        <ele>180.2</ele>
        <time>2020-05-30T18:46:50Z</time>
      </trkpt>
      <trkpt lat="46.46396" lon="-0.1351">
        <ele>180.2</ele>
        <time>2020-05-30T18:46:51Z</time>
      </trkpt>
      <trkpt lat="46.46396" lon="-0.1351">
        <ele>180.2</ele>
        <time>2020-05-30T18:46:52Z</time>
      </trkpt>
      <trkpt lat="46.46396" lon="-0.1351">
        <ele>180.2</ele>
        <time>2020-05-30T18:46:53Z</time>
      </trkpt>
      <trkpt lat="46.46396" lon="-0.1351">
        <ele>180.2</ele>
        <time>2020-05-30T18:46:54Z</time>
      </trkpt>
      <trkpt lat="46.46396" lon="-0.1351">
        <ele>180.2</ele>
        <time>2020-05-30T18:46:55Z</time>
      </trkpt>
      <trkpt lat="46.46396" lon="-0.1351">
        <ele>180.2</ele>
        <time>2020-05-30T18:46:56Z</time>
      </trkpt>
      <trkpt lat="46.46396" lon="-0.13511">
        <ele>180.2</ele>
        <time>2020-05-30T18:46:57Z</time>
      </trkpt>
      <trkpt lat="46.46396" lon="-0.13511">
        <ele>180.2</ele>
        <time>2020-05-30T18:46:58Z</time>
      </trkpt>
      <trkpt lat="46.46396" lon="-0.13511">
        <ele>180.2</ele>
        <time>2020-05-30T18:46:59Z</time>
      </trkpt>
      <trkpt lat="46.46396" lon="-0.13511">
        <ele>180.2</ele>
        <time>2020-05-30T18:47:00Z</time>
      </trkpt>
      <trkpt lat="46.46396" lon="-0.13511">
        <ele>180.2</ele>
        <time>2020-05-30T18:47:01Z</time>
      </trkpt>
      <trkpt lat="46.46396" lon="-0.13511">
        <ele>180.2</ele>
        <time>2020-05-30T18:47:02Z</time>
      </trkpt>
      <trkpt lat="46.46396" lon="-0.13511">
        <ele>180.2</ele>
        <time>2020-05-30T18:47:03Z</time>
      </trkpt>
      <trkpt lat="46.46396" lon="-0.13511">
        <ele>180.2</ele>
        <time>2020-05-30T18:47:04Z</time>
      </trkpt>
      <trkpt lat="46.46396" lon="-0.13512">
        <ele>180.2</ele>
        <time>2020-05-30T18:47:05Z</time>
      </trkpt>
      <trkpt lat="46.46396" lon="-0.13512">
        <ele>180.2</ele>
        <time>2020-05-30T18:47:06Z</time>
      </trkpt>
      <trkpt lat="46.46396" lon="-0.13512">
        <ele>180.2</ele>
        <time>2020-05-30T18:47:07Z</time>
      </trkpt>
      <trkpt lat="46.46396" lon="-0.13512">
        <ele>180.2</ele>
        <time>2020-05-30T18:47:08Z</time>
      </trkpt>
      <trkpt lat="46.46396" lon="-0.13512">
        <ele>180.2</ele>
        <time>2020-05-30T18:47:09Z</time>
      </trkpt>
      <trkpt lat="46.46396" lon="-0.13512">
        <ele>180.2</ele>
        <time>2020-05-30T18:47:10Z</time>
      </trkpt>
      <trkpt lat="46.46396" lon="-0.13512">
        <ele>180.2</ele>
        <time>2020-05-30T18:47:11Z</time>
      </trkpt>
      <trkpt lat="46.46396" lon="-0.13512">
        <ele>180.2</ele>
        <time>2020-05-30T18:47:12Z</time>
      </trkpt>
      <trkpt lat="46.46396" lon="-0.13513">
        <ele>180.2</ele>
        <time>2020-05-30T18:47:13Z</time>
      </trkpt>
      <trkpt lat="46.46396" lon="-0.13513">
        <ele>180.2</ele>
        <time>2020-05-30T18:47:14Z</time>
      </trkpt>
      <trkpt lat="46.46396" lon="-0.13513">
        <ele>180.2</ele>
        <time>2020-05-30T18:47:15Z</time>
      </trkpt>
      <trkpt lat="46.46396" lon="-0.13513">
        <ele>180.2</ele>
        <time>2020-05-30T18:47:16Z</time>
      </trkpt>
      <trkpt lat="46.46396" lon="-0.13513">
        <ele>180.2</ele>
        <time>2020-05-30T18:47:17Z</time>
      </trkpt>
      <trkpt lat="46.46396" lon="-0.13513">
        <ele>180.2</ele>
        <time>2020-05-30T18:47:18Z</time>
      </trkpt>
      <trkpt lat="46.46396" lon="-0.13513">
        <ele>180.2</ele>
        <time>2020-05-30T18:47:19Z</time>
      </trkpt>
      <trkpt lat="46.46396" lon="-0.13513">
        <ele>180.2</ele>
        <time>2020-05-30T18:47:20Z</time>
      </trkpt>
      <trkpt lat="46.46396" lon="-0.13514">
        <ele>180.2</ele>
        <time>2020-05-30T18:47:21Z</time>
      </trkpt>
      <trkpt lat="46.46396" lon="-0.13514">
        <ele>180.2</ele>
        <time>2020-05-30T18:47:22Z</time>
      </trkpt>
      <trkpt lat="46.46396" lon="-0.13514">
        <ele>180.2</ele>
        <time>2020-05-30T18:47:23Z</time>
      </trkpt>
      <trkpt lat="46.46396" lon="-0.13514">
        <ele>180.2</ele>
        <time>2020-05-30T18:47:24Z</time>
      </trkpt>
      <trkpt lat="46.46396" lon="-0.13514">
        <ele>180.2</ele>
        <time>2020-05-30T18:47:25Z</time>
      </trkpt>
      <trkpt lat="46.46393" lon="-0.13519">
        <ele>180.2</ele>
        <time>2020-05-30T18:47:26Z</time>
      </trkpt>
      <trkpt lat="46.46392" lon="-0.13524">
        <ele>180.2</ele>
        <time>2020-05-30T18:47:27Z</time>
      </trkpt>
      <trkpt lat="46.4639" lon="-0.13529">
        <ele>180.2</ele>
        <time>2020-05-30T18:47:28Z</time>
      </trkpt>
      <trkpt lat="46.46389" lon="-0.13536">
        <ele>180.3</ele>
        <time>2020-05-30T18:47:29Z</time>
      </trkpt>
      <trkpt lat="46.46388" lon="-0.13542">
        <ele>180.3</ele>
        <time>2020-05-30T18:47:30Z</time>
      </trkpt>
      <trkpt lat="46.46387" lon="-0.13548">
        <ele>180.3</ele>
        <time>2020-05-30T18:47:31Z</time>
      </trkpt>
      <trkpt lat="46.46385" lon="-0.13555">
        <ele>180.3</ele>
        <time>2020-05-30T18:47:32Z</time>
      </trkpt>
      <trkpt lat="46.46383" lon="-0.1356">
        <ele>180.3</ele>
        <time>2020-05-30T18:47:33Z</time>
      </trkpt>
      <trkpt lat="46.46382" lon="-0.13568">
        <ele>180.3</ele>
        <time>2020-05-30T18:47:34Z</time>
      </trkpt>
      <trkpt lat="46.4638" lon="-0.13573">
        <ele>180.4</ele>
        <time>2020-05-30T18:47:35Z</time>
      </trkpt>
      <trkpt lat="46.46378" lon="-0.13579">
        <ele>180.4</ele>
        <time>2020-05-30T18:47:36Z</time>
      </trkpt>
      <trkpt lat="46.46377" lon="-0.13584">
        <ele>180.4</ele>
        <time>2020-05-30T18:47:37Z</time>
      </trkpt>
      <trkpt lat="46.46375" lon="-0.13591">
        <ele>180.5</ele>
        <time>2020-05-30T18:47:38Z</time>
      </trkpt>
      <trkpt lat="46.46373" lon="-0.13596">
        <ele>180.5</ele>
        <time>2020-05-30T18:47:39Z</time>
      </trkpt>
      <trkpt lat="46.4637" lon="-0.13603">
        <ele>180.6</ele>
        <time>2020-05-30T18:47:40Z</time>
      </trkpt>
      <trkpt lat="46.46368" lon="-0.13609">
        <ele>180.7</ele>
        <time>2020-05-30T18:47:41Z</time>
      </trkpt>
      <trkpt lat="46.46365" lon="-0.13614">
        <ele>180.6</ele>
        <time>2020-05-30T18:47:42Z</time>
      </trkpt>
      <trkpt lat="46.46362" lon="-0.1362">
        <ele>180.6</ele>
        <time>2020-05-30T18:47:43Z</time>
      </trkpt>
      <trkpt lat="46.4636" lon="-0.13624">
        <ele>180.6</ele>
        <time>2020-05-30T18:47:44Z</time>
      </trkpt>
      <trkpt lat="46.46358" lon="-0.13627">
        <ele>180.6</ele>
        <time>2020-05-30T18:47:45Z</time>
      </trkpt>
      <trkpt lat="46.46355" lon="-0.1363">
        <ele>180.6</ele>
        <time>2020-05-30T18:47:46Z</time>
      </trkpt>
      <trkpt lat="46.46353" lon="-0.13634">
        <ele>180.6</ele>
        <time>2020-05-30T18:47:47Z</time>
      </trkpt>
      <trkpt lat="46.4635" lon="-0.13637">
        <ele>180.6</ele>
        <time>2020-05-30T18:47:48Z</time>
      </trkpt>
      <trkpt lat="46.46348" lon="-0.13642">
        <ele>180.6</ele>
        <time>2020-05-30T18:47:49Z</time>
      </trkpt>
      <trkpt lat="46.46345" lon="-0.13645">
        <ele>180.6</ele>
        <time>2020-05-30T18:47:50Z</time>
      </trkpt>
      <trkpt lat="46.46341" lon="-0.13647">
        <ele>180.6</ele>
        <time>2020-05-30T18:47:51Z</time>
      </trkpt>
      <trkpt lat="46.46338" lon="-0.1365">
        <ele>180.6</ele>
        <time>2020-05-30T18:47:52Z</time>
      </trkpt>
      <trkpt lat="46.46335" lon="-0.13654">
        <ele>180.6</ele>
        <time>2020-05-30T18:47:53Z</time>
      </trkpt>
      <trkpt lat="46.46333" lon="-0.13662">
        <ele>180.5</ele>
        <time>2020-05-30T18:47:54Z</time>
      </trkpt>
      <trkpt lat="46.4633" lon="-0.13665">
        <ele>180.5</ele>
        <time>2020-05-30T18:47:55Z</time>
      </trkpt>
      <trkpt lat="46.46327" lon="-0.13668">
        <ele>180.5</ele>
        <time>2020-05-30T18:47:56Z</time>
      </trkpt>
      <trkpt lat="46.46325" lon="-0.13671">
        <ele>180.5</ele>
        <time>2020-05-30T18:47:57Z</time>
      </trkpt>
      <trkpt lat="46.46322" lon="-0.13675">
        <ele>180.5</ele>
        <time>2020-05-30T18:47:58Z</time>
      </trkpt>
      <trkpt lat="46.46319" lon="-0.1368">
        <ele>180.5</ele>
        <time>2020-05-30T18:47:59Z</time>
      </trkpt>
      <trkpt lat="46.46316" lon="-0.13684">
        <ele>180.5</ele>
        <time>2020-05-30T18:48:00Z</time>
      </trkpt>
      <trkpt lat="46.46312" lon="-0.13688">
        <ele>180.5</ele>
        <time>2020-05-30T18:48:01Z</time>
      </trkpt>
      <trkpt lat="46.4631" lon="-0.13691">
        <ele>180.5</ele>
        <time>2020-05-30T18:48:02Z</time>
      </trkpt>
      <trkpt lat="46.46307" lon="-0.13695">
        <ele>180.5</ele>
        <time>2020-05-30T18:48:03Z</time>
      </trkpt>
      <trkpt lat="46.46304" lon="-0.13699">
        <ele>180.5</ele>
        <time>2020-05-30T18:48:04Z</time>
      </trkpt>
      <trkpt lat="46.463" lon="-0.13703">
        <ele>180.5</ele>
        <time>2020-05-30T18:48:05Z</time>
      </trkpt>
      <trkpt lat="46.46296" lon="-0.13708">
        <ele>180.4</ele>
        <time>2020-05-30T18:48:06Z</time>
      </trkpt>
      <trkpt lat="46.46294" lon="-0.13712">
        <ele>180.4</ele>
        <time>2020-05-30T18:48:07Z</time>
      </trkpt>
      <trkpt lat="46.46291" lon="-0.13716">
        <ele>180.4</ele>
        <time>2020-05-30T18:48:08Z</time>
      </trkpt>
      <trkpt lat="46.46288" lon="-0.1372">
        <ele>180.4</ele>
        <time>2020-05-30T18:48:09Z</time>
      </trkpt>
      <trkpt lat="46.46284" lon="-0.13724">
        <ele>180.4</ele>
        <time>2020-05-30T18:48:10Z</time>
      </trkpt>
      <trkpt lat="46.46281" lon="-0.13728">
        <ele>180.3</ele>
        <time>2020-05-30T18:48:11Z</time>
      </trkpt>
      <trkpt lat="46.46277" lon="-0.13732">
        <ele>180.3</ele>
        <time>2020-05-30T18:48:12Z</time>
      </trkpt>
      <trkpt lat="46.46274" lon="-0.13736">
        <ele>180.2</ele>
        <time>2020-05-30T18:48:13Z</time>
      </trkpt>
      <trkpt lat="46.46271" lon="-0.13739">
        <ele>180.2</ele>
        <time>2020-05-30T18:48:14Z</time>
      </trkpt>
      <trkpt lat="46.46268" lon="-0.13743">
        <ele>180.1</ele>
        <time>2020-05-30T18:48:15Z</time>
      </trkpt>
      <trkpt lat="46.46265" lon="-0.13747">
        <ele>180.1</ele>
        <time>2020-05-30T18:48:16Z</time>
      </trkpt>
      <trkpt lat="46.46262" lon="-0.13751">
        <ele>180.1</ele>
        <time>2020-05-30T18:48:17Z</time>
      </trkpt>
      <trkpt lat="46.46259" lon="-0.13755">
        <ele>180</ele>
        <time>2020-05-30T18:48:18Z</time>
      </trkpt>
      <trkpt lat="46.46256" lon="-0.13759">
        <ele>180</ele>
        <time>2020-05-30T18:48:19Z</time>
      </trkpt>
      <trkpt lat="46.46252" lon="-0.13763">
        <ele>179.9</ele>
        <time>2020-05-30T18:48:20Z</time>
      </trkpt>
      <trkpt lat="46.46249" lon="-0.13766">
        <ele>179.9</ele>
        <time>2020-05-30T18:48:21Z</time>
      </trkpt>
      <trkpt lat="46.46246" lon="-0.13769">
        <ele>179.8</ele>
        <time>2020-05-30T18:48:22Z</time>
      </trkpt>
      <trkpt lat="46.46243" lon="-0.13772">
        <ele>179.8</ele>
        <time>2020-05-30T18:48:23Z</time>
      </trkpt>
      <trkpt lat="46.4624" lon="-0.13775">
        <ele>179.7</ele>
        <time>2020-05-30T18:48:24Z</time>
      </trkpt>
      <trkpt lat="46.46236" lon="-0.13778">
        <ele>179.6</ele>
        <time>2020-05-30T18:48:25Z</time>
      </trkpt>
      <trkpt lat="46.46233" lon="-0.13781">
        <ele>179.6</ele>
        <time>2020-05-30T18:48:26Z</time>
      </trkpt>
      <trkpt lat="46.46231" lon="-0.13785">
        <ele>179.6</ele>
        <time>2020-05-30T18:48:27Z</time>
      </trkpt>
      <trkpt lat="46.46228" lon="-0.13787">
        <ele>179.5</ele>
        <time>2020-05-30T18:48:28Z</time>
      </trkpt>
      <trkpt lat="46.46225" lon="-0.13792">
        <ele>179.4</ele>
        <time>2020-05-30T18:48:29Z</time>
      </trkpt>
      <trkpt lat="46.46222" lon="-0.13796">
        <ele>179.4</ele>
        <time>2020-05-30T18:48:30Z</time>
      </trkpt>
      <trkpt lat="46.46218" lon="-0.13799">
        <ele>179.3</ele>
        <time>2020-05-30T18:48:31Z</time>
      </trkpt>
      <trkpt lat="46.46214" lon="-0.13802">
        <ele>179.3</ele>
        <time>2020-05-30T18:48:32Z</time>
      </trkpt>
      <trkpt lat="46.46211" lon="-0.13806">
        <ele>179.2</ele>
        <time>2020-05-30T18:48:33Z</time>
      </trkpt>
      <trkpt lat="46.46208" lon="-0.1381">
        <ele>179.2</ele>
        <time>2020-05-30T18:48:34Z</time>
      </trkpt>
      <trkpt lat="46.46205" lon="-0.13814">
        <ele>179</ele>
        <time>2020-05-30T18:48:35Z</time>
      </trkpt>
      <trkpt lat="46.46202" lon="-0.13818">
        <ele>178.9</ele>
        <time>2020-05-30T18:48:36Z</time>
      </trkpt>
      <trkpt lat="46.46199" lon="-0.13822">
        <ele>178.8</ele>
        <time>2020-05-30T18:48:37Z</time>
      </trkpt>
      <trkpt lat="46.46197" lon="-0.13826">
        <ele>178.6</ele>
        <time>2020-05-30T18:48:38Z</time>
      </trkpt>
      <trkpt lat="46.46194" lon="-0.13831">
        <ele>178.4</ele>
        <time>2020-05-30T18:48:39Z</time>
      </trkpt>
      <trkpt lat="46.4619" lon="-0.13834">
        <ele>178.2</ele>
        <time>2020-05-30T18:48:40Z</time>
      </trkpt>
      <trkpt lat="46.46186" lon="-0.13839">
        <ele>178</ele>
        <time>2020-05-30T18:48:41Z</time>
      </trkpt>
      <trkpt lat="46.46183" lon="-0.13846">
        <ele>177.8</ele>
        <time>2020-05-30T18:48:42Z</time>
      </trkpt>
      <trkpt lat="46.46179" lon="-0.13851">
        <ele>177.7</ele>
        <time>2020-05-30T18:48:43Z</time>
      </trkpt>
      <trkpt lat="46.46175" lon="-0.13856">
        <ele>177.5</ele>
        <time>2020-05-30T18:48:44Z</time>
      </trkpt>
      <trkpt lat="46.46171" lon="-0.13863">
        <ele>177.3</ele>
        <time>2020-05-30T18:48:45Z</time>
      </trkpt>
      <trkpt lat="46.46168" lon="-0.13869">
        <ele>177.2</ele>
        <time>2020-05-30T18:48:46Z</time>
      </trkpt>
      <trkpt lat="46.46164" lon="-0.13876">
        <ele>177</ele>
        <time>2020-05-30T18:48:47Z</time>
      </trkpt>
      <trkpt lat="46.4616" lon="-0.13884">
        <ele>176.7</ele>
        <time>2020-05-30T18:48:48Z</time>
      </trkpt>
      <trkpt lat="46.46156" lon="-0.13891">
        <ele>176.5</ele>
        <time>2020-05-30T18:48:49Z</time>
      </trkpt>
      <trkpt lat="46.46153" lon="-0.139">
        <ele>176.2</ele>
        <time>2020-05-30T18:48:50Z</time>
      </trkpt>
      <trkpt lat="46.46149" lon="-0.1391">
        <ele>176</ele>
        <time>2020-05-30T18:48:51Z</time>
      </trkpt>
      <trkpt lat="46.46145" lon="-0.13919">
        <ele>175.9</ele>
        <time>2020-05-30T18:48:52Z</time>
      </trkpt>
      <trkpt lat="46.46141" lon="-0.13929">
        <ele>175.7</ele>
        <time>2020-05-30T18:48:53Z</time>
      </trkpt>
      <trkpt lat="46.46138" lon="-0.13938">
        <ele>175.6</ele>
        <time>2020-05-30T18:48:54Z</time>
      </trkpt>
      <trkpt lat="46.46135" lon="-0.13946">
        <ele>175.4</ele>
        <time>2020-05-30T18:48:55Z</time>
      </trkpt>
      <trkpt lat="46.4613" lon="-0.13955">
        <ele>175.2</ele>
        <time>2020-05-30T18:48:56Z</time>
      </trkpt>
      <trkpt lat="46.46126" lon="-0.13962">
        <ele>175</ele>
        <time>2020-05-30T18:48:57Z</time>
      </trkpt>
      <trkpt lat="46.46123" lon="-0.1397">
        <ele>174.9</ele>
        <time>2020-05-30T18:48:58Z</time>
      </trkpt>
      <trkpt lat="46.4612" lon="-0.13977">
        <ele>174.8</ele>
        <time>2020-05-30T18:48:59Z</time>
      </trkpt>
      <trkpt lat="46.46116" lon="-0.13984">
        <ele>174.7</ele>
        <time>2020-05-30T18:49:00Z</time>
      </trkpt>
      <trkpt lat="46.46113" lon="-0.13992">
        <ele>174.6</ele>
        <time>2020-05-30T18:49:01Z</time>
      </trkpt>
      <trkpt lat="46.46108" lon="-0.14">
        <ele>174.4</ele>
        <time>2020-05-30T18:49:02Z</time>
      </trkpt>
      <trkpt lat="46.46104" lon="-0.14008">
        <ele>174.4</ele>
        <time>2020-05-30T18:49:03Z</time>
      </trkpt>
      <trkpt lat="46.461" lon="-0.14016">
        <ele>174.3</ele>
        <time>2020-05-30T18:49:04Z</time>
      </trkpt>
      <trkpt lat="46.46097" lon="-0.14024">
        <ele>174.2</ele>
        <time>2020-05-30T18:49:05Z</time>
      </trkpt>
      <trkpt lat="46.46094" lon="-0.14033">
        <ele>174.2</ele>
        <time>2020-05-30T18:49:06Z</time>
      </trkpt>
      <trkpt lat="46.46089" lon="-0.14041">
        <ele>174.1</ele>
        <time>2020-05-30T18:49:07Z</time>
      </trkpt>
      <trkpt lat="46.46085" lon="-0.14049">
        <ele>174.1</ele>
        <time>2020-05-30T18:49:08Z</time>
      </trkpt>
      <trkpt lat="46.46082" lon="-0.14056">
        <ele>174.1</ele>
        <time>2020-05-30T18:49:09Z</time>
      </trkpt>
      <trkpt lat="46.46078" lon="-0.14063">
        <ele>174.1</ele>
        <time>2020-05-30T18:49:10Z</time>
      </trkpt>
      <trkpt lat="46.46075" lon="-0.14071">
        <ele>174.1</ele>
        <time>2020-05-30T18:49:11Z</time>
      </trkpt>
      <trkpt lat="46.46071" lon="-0.14079">
        <ele>174.1</ele>
        <time>2020-05-30T18:49:12Z</time>
      </trkpt>
      <trkpt lat="46.46068" lon="-0.14087">
        <ele>174</ele>
        <time>2020-05-30T18:49:13Z</time>
      </trkpt>
      <trkpt lat="46.46065" lon="-0.14095">
        <ele>174</ele>
        <time>2020-05-30T18:49:14Z</time>
      </trkpt>
      <trkpt lat="46.46061" lon="-0.14103">
        <ele>174</ele>
        <time>2020-05-30T18:49:15Z</time>
      </trkpt>
      <trkpt lat="46.46058" lon="-0.14111">
        <ele>174.1</ele>
        <time>2020-05-30T18:49:16Z</time>
      </trkpt>
      <trkpt lat="46.46055" lon="-0.14119">
        <ele>174.1</ele>
        <time>2020-05-30T18:49:17Z</time>
      </trkpt>
      <trkpt lat="46.46051" lon="-0.14126">
        <ele>174.1</ele>
        <time>2020-05-30T18:49:18Z</time>
      </trkpt>
      <trkpt lat="46.46048" lon="-0.14133">
        <ele>174.1</ele>
        <time>2020-05-30T18:49:19Z</time>
      </trkpt>
      <trkpt lat="46.46045" lon="-0.1414">
        <ele>174.2</ele>
        <time>2020-05-30T18:49:20Z</time>
      </trkpt>
      <trkpt lat="46.46043" lon="-0.14148">
        <ele>174.3</ele>
        <time>2020-05-30T18:49:21Z</time>
      </trkpt>
      <trkpt lat="46.4604" lon="-0.14155">
        <ele>174.4</ele>
        <time>2020-05-30T18:49:22Z</time>
      </trkpt>
      <trkpt lat="46.46037" lon="-0.14162">
        <ele>174.5</ele>
        <time>2020-05-30T18:49:23Z</time>
      </trkpt>
      <trkpt lat="46.46033" lon="-0.14169">
        <ele>174.6</ele>
        <time>2020-05-30T18:49:24Z</time>
      </trkpt>
      <trkpt lat="46.4603" lon="-0.14176">
        <ele>174.7</ele>
        <time>2020-05-30T18:49:25Z</time>
      </trkpt>
      <trkpt lat="46.46027" lon="-0.14184">
        <ele>174.8</ele>
        <time>2020-05-30T18:49:26Z</time>
      </trkpt>
      <trkpt lat="46.46024" lon="-0.14191">
        <ele>174.9</ele>
        <time>2020-05-30T18:49:27Z</time>
      </trkpt>
      <trkpt lat="46.46021" lon="-0.14197">
        <ele>175</ele>
        <time>2020-05-30T18:49:28Z</time>
      </trkpt>
      <trkpt lat="46.46018" lon="-0.14203">
        <ele>175.1</ele>
        <time>2020-05-30T18:49:29Z</time>
      </trkpt>
      <trkpt lat="46.46015" lon="-0.14207">
        <ele>175.2</ele>
        <time>2020-05-30T18:49:30Z</time>
      </trkpt>
      <trkpt lat="46.46013" lon="-0.14212">
        <ele>175.3</ele>
        <time>2020-05-30T18:49:31Z</time>
      </trkpt>
      <trkpt lat="46.46011" lon="-0.14217">
        <ele>175.4</ele>
        <time>2020-05-30T18:49:32Z</time>
      </trkpt>
      <trkpt lat="46.46009" lon="-0.14223">
        <ele>175.5</ele>
        <time>2020-05-30T18:49:33Z</time>
      </trkpt>
      <trkpt lat="46.46006" lon="-0.14228">
        <ele>175.6</ele>
        <time>2020-05-30T18:49:34Z</time>
      </trkpt>
      <trkpt lat="46.46004" lon="-0.14235">
        <ele>175.8</ele>
        <time>2020-05-30T18:49:35Z</time>
      </trkpt>
      <trkpt lat="46.46002" lon="-0.14241">
        <ele>175.9</ele>
        <time>2020-05-30T18:49:36Z</time>
      </trkpt>
      <trkpt lat="46.45999" lon="-0.14248">
        <ele>176.1</ele>
        <time>2020-05-30T18:49:37Z</time>
      </trkpt>
      <trkpt lat="46.45996" lon="-0.14253">
        <ele>176.2</ele>
        <time>2020-05-30T18:49:38Z</time>
      </trkpt>
      <trkpt lat="46.45994" lon="-0.14257">
        <ele>176.3</ele>
        <time>2020-05-30T18:49:39Z</time>
      </trkpt>
      <trkpt lat="46.45991" lon="-0.14262">
        <ele>176.5</ele>
        <time>2020-05-30T18:49:40Z</time>
      </trkpt>
      <trkpt lat="46.45989" lon="-0.14267">
        <ele>176.6</ele>
        <time>2020-05-30T18:49:41Z</time>
      </trkpt>
      <trkpt lat="46.45986" lon="-0.14273">
        <ele>176.8</ele>
        <time>2020-05-30T18:49:42Z</time>
      </trkpt>
      <trkpt lat="46.45985" lon="-0.14279">
        <ele>177</ele>
        <time>2020-05-30T18:49:43Z</time>
      </trkpt>
      <trkpt lat="46.45982" lon="-0.14286">
        <ele>177.2</ele>
        <time>2020-05-30T18:49:44Z</time>
      </trkpt>
      <trkpt lat="46.45979" lon="-0.14292">
        <ele>177.4</ele>
        <time>2020-05-30T18:49:45Z</time>
      </trkpt>
      <trkpt lat="46.45976" lon="-0.14298">
        <ele>177.6</ele>
        <time>2020-05-30T18:49:46Z</time>
      </trkpt>
      <trkpt lat="46.45974" lon="-0.14303">
        <ele>177.7</ele>
        <time>2020-05-30T18:49:47Z</time>
      </trkpt>
      <trkpt lat="46.45972" lon="-0.14309">
        <ele>177.9</ele>
        <time>2020-05-30T18:49:48Z</time>
      </trkpt>
      <trkpt lat="46.4597" lon="-0.14315">
        <ele>178.1</ele>
        <time>2020-05-30T18:49:49Z</time>
      </trkpt>
      <trkpt lat="46.45968" lon="-0.14322">
        <ele>178.2</ele>
        <time>2020-05-30T18:49:50Z</time>
      </trkpt>
      <trkpt lat="46.45965" lon="-0.1433">
        <ele>178.5</ele>
        <time>2020-05-30T18:49:51Z</time>
      </trkpt>
      <trkpt lat="46.45962" lon="-0.14337">
        <ele>178.7</ele>
        <time>2020-05-30T18:49:52Z</time>
      </trkpt>
      <trkpt lat="46.45959" lon="-0.14346">
        <ele>178.9</ele>
        <time>2020-05-30T18:49:53Z</time>
      </trkpt>
      <trkpt lat="46.45958" lon="-0.14355">
        <ele>179.1</ele>
        <time>2020-05-30T18:49:54Z</time>
      </trkpt>
      <trkpt lat="46.45955" lon="-0.14364">
        <ele>179.3</ele>
        <time>2020-05-30T18:49:55Z</time>
      </trkpt>
      <trkpt lat="46.45951" lon="-0.14377">
        <ele>179.6</ele>
        <time>2020-05-30T18:49:56Z</time>
      </trkpt>
      <trkpt lat="46.45948" lon="-0.14389">
        <ele>179.8</ele>
        <time>2020-05-30T18:49:57Z</time>
      </trkpt>
      <trkpt lat="46.45945" lon="-0.14401">
        <ele>180</ele>
        <time>2020-05-30T18:49:58Z</time>
      </trkpt>
      <trkpt lat="46.45941" lon="-0.14417">
        <ele>180.3</ele>
        <time>2020-05-30T18:49:59Z</time>
      </trkpt>
      <trkpt lat="46.45937" lon="-0.14432">
        <ele>180.5</ele>
        <time>2020-05-30T18:50:00Z</time>
      </trkpt>
      <trkpt lat="46.45934" lon="-0.14445">
        <ele>180.7</ele>
        <time>2020-05-30T18:50:01Z</time>
      </trkpt>
      <trkpt lat="46.45932" lon="-0.14456">
        <ele>180.8</ele>
        <time>2020-05-30T18:50:02Z</time>
      </trkpt>
      <trkpt lat="46.45929" lon="-0.14465">
        <ele>180.8</ele>
        <time>2020-05-30T18:50:03Z</time>
      </trkpt>
      <trkpt lat="46.45927" lon="-0.14474">
        <ele>180.8</ele>
        <time>2020-05-30T18:50:04Z</time>
      </trkpt>
      <trkpt lat="46.45925" lon="-0.14481">
        <ele>180.8</ele>
        <time>2020-05-30T18:50:05Z</time>
      </trkpt>
      <trkpt lat="46.45924" lon="-0.14489">
        <ele>180.8</ele>
        <time>2020-05-30T18:50:06Z</time>
      </trkpt>
      <trkpt lat="46.45922" lon="-0.14496">
        <ele>180.8</ele>
        <time>2020-05-30T18:50:07Z</time>
      </trkpt>
      <trkpt lat="46.4592" lon="-0.14504">
        <ele>180.8</ele>
        <time>2020-05-30T18:50:08Z</time>
      </trkpt>
      <trkpt lat="46.45917" lon="-0.14512">
        <ele>180.7</ele>
        <time>2020-05-30T18:50:09Z</time>
      </trkpt>
      <trkpt lat="46.45915" lon="-0.1452">
        <ele>180.7</ele>
        <time>2020-05-30T18:50:10Z</time>
      </trkpt>
      <trkpt lat="46.45913" lon="-0.14528">
        <ele>180.6</ele>
        <time>2020-05-30T18:50:11Z</time>
      </trkpt>
      <trkpt lat="46.45911" lon="-0.14536">
        <ele>180.6</ele>
        <time>2020-05-30T18:50:12Z</time>
      </trkpt>
      <trkpt lat="46.4591" lon="-0.14544">
        <ele>180.5</ele>
        <time>2020-05-30T18:50:13Z</time>
      </trkpt>
      <trkpt lat="46.45908" lon="-0.14552">
        <ele>180.5</ele>
        <time>2020-05-30T18:50:14Z</time>
      </trkpt>
      <trkpt lat="46.45906" lon="-0.14561">
        <ele>180.5</ele>
        <time>2020-05-30T18:50:15Z</time>
      </trkpt>
      <trkpt lat="46.45904" lon="-0.1457">
        <ele>180.5</ele>
        <time>2020-05-30T18:50:16Z</time>
      </trkpt>
      <trkpt lat="46.45902" lon="-0.14578">
        <ele>180.5</ele>
        <time>2020-05-30T18:50:17Z</time>
      </trkpt>
      <trkpt lat="46.45902" lon="-0.14587">
        <ele>180.4</ele>
        <time>2020-05-30T18:50:18Z</time>
      </trkpt>
      <trkpt lat="46.45902" lon="-0.14598">
        <ele>180.4</ele>
        <time>2020-05-30T18:50:19Z</time>
      </trkpt>
      <trkpt lat="46.45903" lon="-0.14608">
        <ele>180.4</ele>
        <time>2020-05-30T18:50:20Z</time>
      </trkpt>
      <trkpt lat="46.45903" lon="-0.14614">
        <ele>180.4</ele>
        <time>2020-05-30T18:50:21Z</time>
      </trkpt>
      <trkpt lat="46.45903" lon="-0.14621">
        <ele>180.4</ele>
        <time>2020-05-30T18:50:22Z</time>
      </trkpt>
      <trkpt lat="46.45905" lon="-0.14629">
        <ele>180.4</ele>
        <time>2020-05-30T18:50:23Z</time>
      </trkpt>
      <trkpt lat="46.45906" lon="-0.14637">
        <ele>180.4</ele>
        <time>2020-05-30T18:50:24Z</time>
      </trkpt>
      <trkpt lat="46.45907" lon="-0.14644">
        <ele>180.4</ele>
        <time>2020-05-30T18:50:25Z</time>
      </trkpt>
      <trkpt lat="46.45909" lon="-0.14652">
        <ele>180.4</ele>
        <time>2020-05-30T18:50:26Z</time>
      </trkpt>
      <trkpt lat="46.4591" lon="-0.14659">
        <ele>180.4</ele>
        <time>2020-05-30T18:50:27Z</time>
      </trkpt>
      <trkpt lat="46.45914" lon="-0.14667">
        <ele>180.4</ele>
        <time>2020-05-30T18:50:28Z</time>
      </trkpt>
      <trkpt lat="46.45916" lon="-0.14674">
        <ele>180.4</ele>
        <time>2020-05-30T18:50:29Z</time>
      </trkpt>
      <trkpt lat="46.45918" lon="-0.14681">
        <ele>180.4</ele>
        <time>2020-05-30T18:50:30Z</time>
      </trkpt>
      <trkpt lat="46.4592" lon="-0.14689">
        <ele>180.4</ele>
        <time>2020-05-30T18:50:31Z</time>
      </trkpt>
      <trkpt lat="46.45921" lon="-0.14695">
        <ele>180.5</ele>
        <time>2020-05-30T18:50:32Z</time>
      </trkpt>
      <trkpt lat="46.45923" lon="-0.14703">
        <ele>180.5</ele>
        <time>2020-05-30T18:50:33Z</time>
      </trkpt>
      <trkpt lat="46.45925" lon="-0.14707">
        <ele>180.4</ele>
        <time>2020-05-30T18:50:34Z</time>
      </trkpt>
      <trkpt lat="46.45927" lon="-0.14711">
        <ele>180.4</ele>
        <time>2020-05-30T18:50:35Z</time>
      </trkpt>
      <trkpt lat="46.45928" lon="-0.14717">
        <ele>180.4</ele>
        <time>2020-05-30T18:50:36Z</time>
      </trkpt>
      <trkpt lat="46.45929" lon="-0.14724">
        <ele>180.4</ele>
        <time>2020-05-30T18:50:37Z</time>
      </trkpt>
      <trkpt lat="46.45929" lon="-0.14729">
        <ele>180.4</ele>
        <time>2020-05-30T18:50:38Z</time>
      </trkpt>
      <trkpt lat="46.45928" lon="-0.14736">
        <ele>180.3</ele>
        <time>2020-05-30T18:50:39Z</time>
      </trkpt>
      <trkpt lat="46.45927" lon="-0.14742">
        <ele>180.3</ele>
        <time>2020-05-30T18:50:40Z</time>
      </trkpt>
      <trkpt lat="46.45924" lon="-0.14748">
        <ele>180.2</ele>
        <time>2020-05-30T18:50:41Z</time>
      </trkpt>
      <trkpt lat="46.45921" lon="-0.14755">
        <ele>180.1</ele>
        <time>2020-05-30T18:50:42Z</time>
      </trkpt>
      <trkpt lat="46.45918" lon="-0.14759">
        <ele>180.1</ele>
        <time>2020-05-30T18:50:43Z</time>
      </trkpt>
      <trkpt lat="46.45915" lon="-0.14764">
        <ele>180</ele>
        <time>2020-05-30T18:50:44Z</time>
      </trkpt>
      <trkpt lat="46.45912" lon="-0.14767">
        <ele>179.9</ele>
        <time>2020-05-30T18:50:45Z</time>
      </trkpt>
      <trkpt lat="46.45909" lon="-0.14772">
        <ele>179.8</ele>
        <time>2020-05-30T18:50:46Z</time>
      </trkpt>
      <trkpt lat="46.45905" lon="-0.14777">
        <ele>179.7</ele>
        <time>2020-05-30T18:50:47Z</time>
      </trkpt>
      <trkpt lat="46.45902" lon="-0.14781">
        <ele>179.5</ele>
        <time>2020-05-30T18:50:48Z</time>
      </trkpt>
      <trkpt lat="46.45899" lon="-0.14786">
        <ele>179.4</ele>
        <time>2020-05-30T18:50:49Z</time>
      </trkpt>
      <trkpt lat="46.45897" lon="-0.14792">
        <ele>179.3</ele>
        <time>2020-05-30T18:50:50Z</time>
      </trkpt>
      <trkpt lat="46.45894" lon="-0.14797">
        <ele>179.2</ele>
        <time>2020-05-30T18:50:51Z</time>
      </trkpt>
      <trkpt lat="46.4589" lon="-0.14801">
        <ele>179</ele>
        <time>2020-05-30T18:50:52Z</time>
      </trkpt>
      <trkpt lat="46.45887" lon="-0.14804">
        <ele>178.9</ele>
        <time>2020-05-30T18:50:53Z</time>
      </trkpt>
      <trkpt lat="46.45883" lon="-0.14809">
        <ele>178.7</ele>
        <time>2020-05-30T18:50:54Z</time>
      </trkpt>
      <trkpt lat="46.45881" lon="-0.14814">
        <ele>178.6</ele>
        <time>2020-05-30T18:50:55Z</time>
      </trkpt>
      <trkpt lat="46.4588" lon="-0.14818">
        <ele>178.5</ele>
        <time>2020-05-30T18:50:56Z</time>
      </trkpt>
      <trkpt lat="46.45878" lon="-0.14822">
        <ele>178.4</ele>
        <time>2020-05-30T18:50:57Z</time>
      </trkpt>
      <trkpt lat="46.45875" lon="-0.14829">
        <ele>178.2</ele>
        <time>2020-05-30T18:50:58Z</time>
      </trkpt>
      <trkpt lat="46.45873" lon="-0.14833">
        <ele>178.1</ele>
        <time>2020-05-30T18:50:59Z</time>
      </trkpt>
      <trkpt lat="46.4587" lon="-0.14837">
        <ele>178</ele>
        <time>2020-05-30T18:51:00Z</time>
      </trkpt>
      <trkpt lat="46.45867" lon="-0.14842">
        <ele>177.8</ele>
        <time>2020-05-30T18:51:01Z</time>
      </trkpt>
      <trkpt lat="46.45865" lon="-0.14846">
        <ele>177.7</ele>
        <time>2020-05-30T18:51:02Z</time>
      </trkpt>
      <trkpt lat="46.45862" lon="-0.14851">
        <ele>177.5</ele>
        <time>2020-05-30T18:51:03Z</time>
      </trkpt>
      <trkpt lat="46.4586" lon="-0.14856">
        <ele>177.4</ele>
        <time>2020-05-30T18:51:04Z</time>
      </trkpt>
      <trkpt lat="46.45858" lon="-0.1486">
        <ele>177.2</ele>
        <time>2020-05-30T18:51:05Z</time>
      </trkpt>
      <trkpt lat="46.45855" lon="-0.14866">
        <ele>177.1</ele>
        <time>2020-05-30T18:51:06Z</time>
      </trkpt>
      <trkpt lat="46.45852" lon="-0.14871">
        <ele>176.9</ele>
        <time>2020-05-30T18:51:07Z</time>
      </trkpt>
      <trkpt lat="46.45849" lon="-0.14877">
        <ele>176.7</ele>
        <time>2020-05-30T18:51:08Z</time>
      </trkpt>
      <trkpt lat="46.45846" lon="-0.14883">
        <ele>176.5</ele>
        <time>2020-05-30T18:51:09Z</time>
      </trkpt>
      <trkpt lat="46.45843" lon="-0.14888">
        <ele>176.3</ele>
        <time>2020-05-30T18:51:10Z</time>
      </trkpt>
      <trkpt lat="46.45841" lon="-0.14893">
        <ele>176.1</ele>
        <time>2020-05-30T18:51:11Z</time>
      </trkpt>
      <trkpt lat="46.45839" lon="-0.149">
        <ele>175.9</ele>
        <time>2020-05-30T18:51:12Z</time>
      </trkpt>
      <trkpt lat="46.45836" lon="-0.14906">
        <ele>175.7</ele>
        <time>2020-05-30T18:51:13Z</time>
      </trkpt>
      <trkpt lat="46.45833" lon="-0.14913">
        <ele>175.5</ele>
        <time>2020-05-30T18:51:14Z</time>
      </trkpt>
      <trkpt lat="46.4583" lon="-0.1492">
        <ele>175.2</ele>
        <time>2020-05-30T18:51:15Z</time>
      </trkpt>
      <trkpt lat="46.45825" lon="-0.14929">
        <ele>174.9</ele>
        <time>2020-05-30T18:51:16Z</time>
      </trkpt>
      <trkpt lat="46.45822" lon="-0.14935">
        <ele>174.7</ele>
        <time>2020-05-30T18:51:17Z</time>
      </trkpt>
      <trkpt lat="46.45819" lon="-0.14942">
        <ele>174.5</ele>
        <time>2020-05-30T18:51:18Z</time>
      </trkpt>
      <trkpt lat="46.45816" lon="-0.14949">
        <ele>174.3</ele>
        <time>2020-05-30T18:51:19Z</time>
      </trkpt>
      <trkpt lat="46.45813" lon="-0.14956">
        <ele>174.1</ele>
        <time>2020-05-30T18:51:20Z</time>
      </trkpt>
      <trkpt lat="46.45809" lon="-0.14963">
        <ele>173.9</ele>
        <time>2020-05-30T18:51:21Z</time>
      </trkpt>
      <trkpt lat="46.45805" lon="-0.14971">
        <ele>173.6</ele>
        <time>2020-05-30T18:51:22Z</time>
      </trkpt>
      <trkpt lat="46.45801" lon="-0.1498">
        <ele>173.4</ele>
        <time>2020-05-30T18:51:23Z</time>
      </trkpt>
      <trkpt lat="46.45798" lon="-0.14987">
        <ele>173.3</ele>
        <time>2020-05-30T18:51:24Z</time>
      </trkpt>
      <trkpt lat="46.45794" lon="-0.14995">
        <ele>173.1</ele>
        <time>2020-05-30T18:51:25Z</time>
      </trkpt>
      <trkpt lat="46.45789" lon="-0.15003">
        <ele>172.8</ele>
        <time>2020-05-30T18:51:26Z</time>
      </trkpt>
      <trkpt lat="46.45786" lon="-0.15012">
        <ele>172.6</ele>
        <time>2020-05-30T18:51:27Z</time>
      </trkpt>
      <trkpt lat="46.45782" lon="-0.15021">
        <ele>172.3</ele>
        <time>2020-05-30T18:51:28Z</time>
      </trkpt>
      <trkpt lat="46.45778" lon="-0.15029">
        <ele>172.1</ele>
        <time>2020-05-30T18:51:29Z</time>
      </trkpt>
      <trkpt lat="46.45774" lon="-0.15038">
        <ele>171.8</ele>
        <time>2020-05-30T18:51:30Z</time>
      </trkpt>
      <trkpt lat="46.4577" lon="-0.15046">
        <ele>171.5</ele>
        <time>2020-05-30T18:51:31Z</time>
      </trkpt>
      <trkpt lat="46.45766" lon="-0.15055">
        <ele>171.3</ele>
        <time>2020-05-30T18:51:32Z</time>
      </trkpt>
      <trkpt lat="46.45762" lon="-0.15063">
        <ele>171</ele>
        <time>2020-05-30T18:51:33Z</time>
      </trkpt>
      <trkpt lat="46.45758" lon="-0.15071">
        <ele>170.7</ele>
        <time>2020-05-30T18:51:34Z</time>
      </trkpt>
      <trkpt lat="46.45754" lon="-0.15079">
        <ele>170.5</ele>
        <time>2020-05-30T18:51:35Z</time>
      </trkpt>
      <trkpt lat="46.4575" lon="-0.15087">
        <ele>170.2</ele>
        <time>2020-05-30T18:51:36Z</time>
      </trkpt>
      <trkpt lat="46.45746" lon="-0.15094">
        <ele>170</ele>
        <time>2020-05-30T18:51:37Z</time>
      </trkpt>
      <trkpt lat="46.45743" lon="-0.15103">
        <ele>169.8</ele>
        <time>2020-05-30T18:51:38Z</time>
      </trkpt>
      <trkpt lat="46.45739" lon="-0.15112">
        <ele>169.5</ele>
        <time>2020-05-30T18:51:39Z</time>
      </trkpt>
      <trkpt lat="46.45735" lon="-0.15121">
        <ele>169.4</ele>
        <time>2020-05-30T18:51:40Z</time>
      </trkpt>
      <trkpt lat="46.45731" lon="-0.15129">
        <ele>169.2</ele>
        <time>2020-05-30T18:51:41Z</time>
      </trkpt>
      <trkpt lat="46.45727" lon="-0.15138">
        <ele>169</ele>
        <time>2020-05-30T18:51:42Z</time>
      </trkpt>
      <trkpt lat="46.45723" lon="-0.15148">
        <ele>168.7</ele>
        <time>2020-05-30T18:51:43Z</time>
      </trkpt>
      <trkpt lat="46.45718" lon="-0.15157">
        <ele>168.5</ele>
        <time>2020-05-30T18:51:44Z</time>
      </trkpt>
      <trkpt lat="46.45714" lon="-0.15167">
        <ele>168.3</ele>
        <time>2020-05-30T18:51:45Z</time>
      </trkpt>
      <trkpt lat="46.45709" lon="-0.15176">
        <ele>168.2</ele>
        <time>2020-05-30T18:51:46Z</time>
      </trkpt>
      <trkpt lat="46.45705" lon="-0.15186">
        <ele>168</ele>
        <time>2020-05-30T18:51:47Z</time>
      </trkpt>
      <trkpt lat="46.45701" lon="-0.15195">
        <ele>167.8</ele>
        <time>2020-05-30T18:51:48Z</time>
      </trkpt>
      <trkpt lat="46.45697" lon="-0.15204">
        <ele>167.7</ele>
        <time>2020-05-30T18:51:49Z</time>
      </trkpt>
      <trkpt lat="46.45693" lon="-0.15214">
        <ele>167.5</ele>
        <time>2020-05-30T18:51:50Z</time>
      </trkpt>
      <trkpt lat="46.45688" lon="-0.15223">
        <ele>167.4</ele>
        <time>2020-05-30T18:51:51Z</time>
      </trkpt>
      <trkpt lat="46.45683" lon="-0.15232">
        <ele>167.2</ele>
        <time>2020-05-30T18:51:52Z</time>
      </trkpt>
      <trkpt lat="46.45679" lon="-0.15242">
        <ele>167</ele>
        <time>2020-05-30T18:51:53Z</time>
      </trkpt>
      <trkpt lat="46.45675" lon="-0.15252">
        <ele>166.9</ele>
        <time>2020-05-30T18:51:54Z</time>
      </trkpt>
      <trkpt lat="46.45671" lon="-0.15262">
        <ele>166.9</ele>
        <time>2020-05-30T18:51:55Z</time>
      </trkpt>
      <trkpt lat="46.45666" lon="-0.15272">
        <ele>166.8</ele>
        <time>2020-05-30T18:51:56Z</time>
      </trkpt>
      <trkpt lat="46.45662" lon="-0.15282">
        <ele>166.7</ele>
        <time>2020-05-30T18:51:57Z</time>
      </trkpt>
      <trkpt lat="46.45657" lon="-0.15292">
        <ele>166.6</ele>
        <time>2020-05-30T18:51:58Z</time>
      </trkpt>
      <trkpt lat="46.45653" lon="-0.15303">
        <ele>166.5</ele>
        <time>2020-05-30T18:51:59Z</time>
      </trkpt>
      <trkpt lat="46.45649" lon="-0.15313">
        <ele>166.4</ele>
        <time>2020-05-30T18:52:00Z</time>
      </trkpt>
      <trkpt lat="46.45645" lon="-0.15321">
        <ele>166.4</ele>
        <time>2020-05-30T18:52:01Z</time>
      </trkpt>
      <trkpt lat="46.4564" lon="-0.1533">
        <ele>166.3</ele>
        <time>2020-05-30T18:52:02Z</time>
      </trkpt>
      <trkpt lat="46.45634" lon="-0.15339">
        <ele>166.2</ele>
        <time>2020-05-30T18:52:03Z</time>
      </trkpt>
      <trkpt lat="46.45628" lon="-0.15345">
        <ele>166.2</ele>
        <time>2020-05-30T18:52:04Z</time>
      </trkpt>
      <trkpt lat="46.45622" lon="-0.15352">
        <ele>166.2</ele>
        <time>2020-05-30T18:52:05Z</time>
      </trkpt>
      <trkpt lat="46.45616" lon="-0.15358">
        <ele>166.2</ele>
        <time>2020-05-30T18:52:06Z</time>
      </trkpt>
      <trkpt lat="46.45609" lon="-0.15363">
        <ele>166.2</ele>
        <time>2020-05-30T18:52:07Z</time>
      </trkpt>
      <trkpt lat="46.45603" lon="-0.15369">
        <ele>166.2</ele>
        <time>2020-05-30T18:52:08Z</time>
      </trkpt>
      <trkpt lat="46.45597" lon="-0.15375">
        <ele>166.2</ele>
        <time>2020-05-30T18:52:09Z</time>
      </trkpt>
      <trkpt lat="46.45591" lon="-0.1538">
        <ele>166.2</ele>
        <time>2020-05-30T18:52:10Z</time>
      </trkpt>
      <trkpt lat="46.45586" lon="-0.15386">
        <ele>166.2</ele>
        <time>2020-05-30T18:52:11Z</time>
      </trkpt>
      <trkpt lat="46.4558" lon="-0.1539">
        <ele>166.2</ele>
        <time>2020-05-30T18:52:12Z</time>
      </trkpt>
      <trkpt lat="46.45575" lon="-0.15396">
        <ele>166.2</ele>
        <time>2020-05-30T18:52:13Z</time>
      </trkpt>
      <trkpt lat="46.45571" lon="-0.15401">
        <ele>166.2</ele>
        <time>2020-05-30T18:52:14Z</time>
      </trkpt>
      <trkpt lat="46.45565" lon="-0.15406">
        <ele>166.2</ele>
        <time>2020-05-30T18:52:15Z</time>
      </trkpt>
      <trkpt lat="46.45561" lon="-0.15412">
        <ele>166.1</ele>
        <time>2020-05-30T18:52:16Z</time>
      </trkpt>
      <trkpt lat="46.45556" lon="-0.15417">
        <ele>166.1</ele>
        <time>2020-05-30T18:52:17Z</time>
      </trkpt>
      <trkpt lat="46.45552" lon="-0.15423">
        <ele>166.1</ele>
        <time>2020-05-30T18:52:18Z</time>
      </trkpt>
      <trkpt lat="46.45547" lon="-0.15427">
        <ele>166.1</ele>
        <time>2020-05-30T18:52:19Z</time>
      </trkpt>
      <trkpt lat="46.45542" lon="-0.15432">
        <ele>166.1</ele>
        <time>2020-05-30T18:52:20Z</time>
      </trkpt>
      <trkpt lat="46.45537" lon="-0.15437">
        <ele>166.1</ele>
        <time>2020-05-30T18:52:21Z</time>
      </trkpt>
      <trkpt lat="46.45533" lon="-0.15442">
        <ele>166.1</ele>
        <time>2020-05-30T18:52:22Z</time>
      </trkpt>
      <trkpt lat="46.45528" lon="-0.15447">
        <ele>166.1</ele>
        <time>2020-05-30T18:52:23Z</time>
      </trkpt>
      <trkpt lat="46.45523" lon="-0.15452">
        <ele>166</ele>
        <time>2020-05-30T18:52:24Z</time>
      </trkpt>
      <trkpt lat="46.45518" lon="-0.15458">
        <ele>166</ele>
        <time>2020-05-30T18:52:25Z</time>
      </trkpt>
      <trkpt lat="46.45514" lon="-0.15463">
        <ele>166</ele>
        <time>2020-05-30T18:52:26Z</time>
      </trkpt>
      <trkpt lat="46.45509" lon="-0.15468">
        <ele>165.9</ele>
        <time>2020-05-30T18:52:27Z</time>
      </trkpt>
      <trkpt lat="46.45504" lon="-0.15472">
        <ele>165.8</ele>
        <time>2020-05-30T18:52:28Z</time>
      </trkpt>
      <trkpt lat="46.455" lon="-0.15477">
        <ele>165.8</ele>
        <time>2020-05-30T18:52:29Z</time>
      </trkpt>
      <trkpt lat="46.45495" lon="-0.15481">
        <ele>165.7</ele>
        <time>2020-05-30T18:52:30Z</time>
      </trkpt>
      <trkpt lat="46.4549" lon="-0.15486">
        <ele>165.7</ele>
        <time>2020-05-30T18:52:31Z</time>
      </trkpt>
      <trkpt lat="46.45485" lon="-0.1549">
        <ele>165.6</ele>
        <time>2020-05-30T18:52:32Z</time>
      </trkpt>
      <trkpt lat="46.4548" lon="-0.15494">
        <ele>165.5</ele>
        <time>2020-05-30T18:52:33Z</time>
      </trkpt>
      <trkpt lat="46.45475" lon="-0.15498">
        <ele>165.5</ele>
        <time>2020-05-30T18:52:34Z</time>
      </trkpt>
      <trkpt lat="46.45469" lon="-0.15502">
        <ele>165.5</ele>
        <time>2020-05-30T18:52:35Z</time>
      </trkpt>
      <trkpt lat="46.45464" lon="-0.15505">
        <ele>165.5</ele>
        <time>2020-05-30T18:52:36Z</time>
      </trkpt>
      <trkpt lat="46.45459" lon="-0.15509">
        <ele>165.5</ele>
        <time>2020-05-30T18:52:37Z</time>
      </trkpt>
      <trkpt lat="46.45455" lon="-0.15512">
        <ele>165.5</ele>
        <time>2020-05-30T18:52:38Z</time>
      </trkpt>
      <trkpt lat="46.4545" lon="-0.15517">
        <ele>165.4</ele>
        <time>2020-05-30T18:52:39Z</time>
      </trkpt>
      <trkpt lat="46.45445" lon="-0.1552">
        <ele>165.4</ele>
        <time>2020-05-30T18:52:40Z</time>
      </trkpt>
      <trkpt lat="46.4544" lon="-0.15524">
        <ele>165.4</ele>
        <time>2020-05-30T18:52:41Z</time>
      </trkpt>
      <trkpt lat="46.45436" lon="-0.15527">
        <ele>165.4</ele>
        <time>2020-05-30T18:52:42Z</time>
      </trkpt>
      <trkpt lat="46.45431" lon="-0.1553">
        <ele>165.4</ele>
        <time>2020-05-30T18:52:43Z</time>
      </trkpt>
      <trkpt lat="46.45426" lon="-0.15534">
        <ele>165.4</ele>
        <time>2020-05-30T18:52:44Z</time>
      </trkpt>
      <trkpt lat="46.45422" lon="-0.15537">
        <ele>165.4</ele>
        <time>2020-05-30T18:52:45Z</time>
      </trkpt>
      <trkpt lat="46.45418" lon="-0.15541">
        <ele>165.4</ele>
        <time>2020-05-30T18:52:46Z</time>
      </trkpt>
      <trkpt lat="46.45414" lon="-0.15544">
        <ele>165.3</ele>
        <time>2020-05-30T18:52:47Z</time>
      </trkpt>
      <trkpt lat="46.4541" lon="-0.15548">
        <ele>165.3</ele>
        <time>2020-05-30T18:52:48Z</time>
      </trkpt>
      <trkpt lat="46.45406" lon="-0.15551">
        <ele>165.3</ele>
        <time>2020-05-30T18:52:49Z</time>
      </trkpt>
      <trkpt lat="46.45403" lon="-0.15554">
        <ele>165.3</ele>
        <time>2020-05-30T18:52:50Z</time>
      </trkpt>
      <trkpt lat="46.45399" lon="-0.15556">
        <ele>165.2</ele>
        <time>2020-05-30T18:52:51Z</time>
      </trkpt>
      <trkpt lat="46.45396" lon="-0.1556">
        <ele>165.2</ele>
        <time>2020-05-30T18:52:52Z</time>
      </trkpt>
      <trkpt lat="46.45392" lon="-0.15562">
        <ele>165.2</ele>
        <time>2020-05-30T18:52:53Z</time>
      </trkpt>
      <trkpt lat="46.45389" lon="-0.15565">
        <ele>165.1</ele>
        <time>2020-05-30T18:52:54Z</time>
      </trkpt>
      <trkpt lat="46.45385" lon="-0.15568">
        <ele>165.1</ele>
        <time>2020-05-30T18:52:55Z</time>
      </trkpt>
      <trkpt lat="46.45382" lon="-0.15571">
        <ele>165.1</ele>
        <time>2020-05-30T18:52:56Z</time>
      </trkpt>
      <trkpt lat="46.45378" lon="-0.15574">
        <ele>165</ele>
        <time>2020-05-30T18:52:57Z</time>
      </trkpt>
      <trkpt lat="46.45375" lon="-0.15577">
        <ele>165</ele>
        <time>2020-05-30T18:52:58Z</time>
      </trkpt>
      <trkpt lat="46.45371" lon="-0.15579">
        <ele>165</ele>
        <time>2020-05-30T18:52:59Z</time>
      </trkpt>
      <trkpt lat="46.45368" lon="-0.15582">
        <ele>164.9</ele>
        <time>2020-05-30T18:53:00Z</time>
      </trkpt>
      <trkpt lat="46.45365" lon="-0.15584">
        <ele>164.9</ele>
        <time>2020-05-30T18:53:01Z</time>
      </trkpt>
      <trkpt lat="46.45362" lon="-0.15586">
        <ele>164.9</ele>
        <time>2020-05-30T18:53:02Z</time>
      </trkpt>
      <trkpt lat="46.45359" lon="-0.15589">
        <ele>164.9</ele>
        <time>2020-05-30T18:53:03Z</time>
      </trkpt>
      <trkpt lat="46.45355" lon="-0.15589">
        <ele>164.8</ele>
        <time>2020-05-30T18:53:04Z</time>
      </trkpt>
      <trkpt lat="46.45352" lon="-0.15592">
        <ele>164.8</ele>
        <time>2020-05-30T18:53:05Z</time>
      </trkpt>
      <trkpt lat="46.45349" lon="-0.15594">
        <ele>164.8</ele>
        <time>2020-05-30T18:53:06Z</time>
      </trkpt>
      <trkpt lat="46.45346" lon="-0.15596">
        <ele>164.8</ele>
        <time>2020-05-30T18:53:07Z</time>
      </trkpt>
      <trkpt lat="46.45343" lon="-0.15599">
        <ele>164.8</ele>
        <time>2020-05-30T18:53:08Z</time>
      </trkpt>
      <trkpt lat="46.4534" lon="-0.15601">
        <ele>164.7</ele>
        <time>2020-05-30T18:53:09Z</time>
      </trkpt>
      <trkpt lat="46.45337" lon="-0.15603">
        <ele>164.7</ele>
        <time>2020-05-30T18:53:10Z</time>
      </trkpt>
      <trkpt lat="46.45334" lon="-0.15606">
        <ele>164.7</ele>
        <time>2020-05-30T18:53:11Z</time>
      </trkpt>
      <trkpt lat="46.4533" lon="-0.15607">
        <ele>164.7</ele>
        <time>2020-05-30T18:53:12Z</time>
      </trkpt>
      <trkpt lat="46.45327" lon="-0.15609">
        <ele>164.7</ele>
        <time>2020-05-30T18:53:13Z</time>
      </trkpt>
      <trkpt lat="46.45323" lon="-0.15611">
        <ele>164.7</ele>
        <time>2020-05-30T18:53:14Z</time>
      </trkpt>
      <trkpt lat="46.45319" lon="-0.15614">
        <ele>164.6</ele>
        <time>2020-05-30T18:53:15Z</time>
      </trkpt>
      <trkpt lat="46.45315" lon="-0.15616">
        <ele>164.6</ele>
        <time>2020-05-30T18:53:16Z</time>
      </trkpt>
      <trkpt lat="46.45311" lon="-0.15618">
        <ele>164.6</ele>
        <time>2020-05-30T18:53:17Z</time>
      </trkpt>
      <trkpt lat="46.45307" lon="-0.15621">
        <ele>164.6</ele>
        <time>2020-05-30T18:53:18Z</time>
      </trkpt>
      <trkpt lat="46.45303" lon="-0.15623">
        <ele>164.5</ele>
        <time>2020-05-30T18:53:19Z</time>
      </trkpt>
      <trkpt lat="46.45299" lon="-0.15625">
        <ele>164.5</ele>
        <time>2020-05-30T18:53:20Z</time>
      </trkpt>
      <trkpt lat="46.45295" lon="-0.15628">
        <ele>164.5</ele>
        <time>2020-05-30T18:53:21Z</time>
      </trkpt>
      <trkpt lat="46.45291" lon="-0.15628">
        <ele>164.4</ele>
        <time>2020-05-30T18:53:22Z</time>
      </trkpt>
      <trkpt lat="46.45286" lon="-0.15629">
        <ele>164.4</ele>
        <time>2020-05-30T18:53:23Z</time>
      </trkpt>
      <trkpt lat="46.45282" lon="-0.15632">
        <ele>164.3</ele>
        <time>2020-05-30T18:53:24Z</time>
      </trkpt>
      <trkpt lat="46.45278" lon="-0.15634">
        <ele>164.3</ele>
        <time>2020-05-30T18:53:25Z</time>
      </trkpt>
      <trkpt lat="46.45273" lon="-0.15634">
        <ele>164.3</ele>
        <time>2020-05-30T18:53:26Z</time>
      </trkpt>
      <trkpt lat="46.45269" lon="-0.15636">
        <ele>164.3</ele>
        <time>2020-05-30T18:53:27Z</time>
      </trkpt>
      <trkpt lat="46.45264" lon="-0.15637">
        <ele>164.3</ele>
        <time>2020-05-30T18:53:28Z</time>
      </trkpt>
      <trkpt lat="46.45259" lon="-0.15639">
        <ele>164.3</ele>
        <time>2020-05-30T18:53:29Z</time>
      </trkpt>
      <trkpt lat="46.45255" lon="-0.15641">
        <ele>164.4</ele>
        <time>2020-05-30T18:53:30Z</time>
      </trkpt>
      <trkpt lat="46.4525" lon="-0.15643">
        <ele>164.4</ele>
        <time>2020-05-30T18:53:31Z</time>
      </trkpt>
      <trkpt lat="46.45246" lon="-0.15645">
        <ele>164.4</ele>
        <time>2020-05-30T18:53:32Z</time>
      </trkpt>
      <trkpt lat="46.45241" lon="-0.15647">
        <ele>164.5</ele>
        <time>2020-05-30T18:53:33Z</time>
      </trkpt>
      <trkpt lat="46.45236" lon="-0.15649">
        <ele>164.5</ele>
        <time>2020-05-30T18:53:34Z</time>
      </trkpt>
      <trkpt lat="46.45232" lon="-0.15651">
        <ele>164.5</ele>
        <time>2020-05-30T18:53:35Z</time>
      </trkpt>
      <trkpt lat="46.45227" lon="-0.15653">
        <ele>164.5</ele>
        <time>2020-05-30T18:53:36Z</time>
      </trkpt>
      <trkpt lat="46.45223" lon="-0.15654">
        <ele>164.5</ele>
        <time>2020-05-30T18:53:37Z</time>
      </trkpt>
      <trkpt lat="46.45218" lon="-0.15656">
        <ele>164.4</ele>
        <time>2020-05-30T18:53:38Z</time>
      </trkpt>
      <trkpt lat="46.45214" lon="-0.15657">
        <ele>164.4</ele>
        <time>2020-05-30T18:53:39Z</time>
      </trkpt>
      <trkpt lat="46.45209" lon="-0.15659">
        <ele>164.3</ele>
        <time>2020-05-30T18:53:40Z</time>
      </trkpt>
      <trkpt lat="46.45205" lon="-0.15661">
        <ele>164.2</ele>
        <time>2020-05-30T18:53:41Z</time>
      </trkpt>
      <trkpt lat="46.45201" lon="-0.15663">
        <ele>164.2</ele>
        <time>2020-05-30T18:53:42Z</time>
      </trkpt>
      <trkpt lat="46.45196" lon="-0.15662">
        <ele>164.1</ele>
        <time>2020-05-30T18:53:43Z</time>
      </trkpt>
      <trkpt lat="46.45192" lon="-0.15664">
        <ele>164.1</ele>
        <time>2020-05-30T18:53:44Z</time>
      </trkpt>
      <trkpt lat="46.45188" lon="-0.15666">
        <ele>164</ele>
        <time>2020-05-30T18:53:45Z</time>
      </trkpt>
      <trkpt lat="46.45185" lon="-0.15669">
        <ele>164</ele>
        <time>2020-05-30T18:53:46Z</time>
      </trkpt>
      <trkpt lat="46.45183" lon="-0.15673">
        <ele>164</ele>
        <time>2020-05-30T18:53:47Z</time>
      </trkpt>
      <trkpt lat="46.45178" lon="-0.15674">
        <ele>164</ele>
        <time>2020-05-30T18:53:48Z</time>
      </trkpt>
      <trkpt lat="46.45175" lon="-0.15677">
        <ele>163.9</ele>
        <time>2020-05-30T18:53:49Z</time>
      </trkpt>
      <trkpt lat="46.45171" lon="-0.15679">
        <ele>163.9</ele>
        <time>2020-05-30T18:53:50Z</time>
      </trkpt>
      <trkpt lat="46.45167" lon="-0.15681">
        <ele>163.9</ele>
        <time>2020-05-30T18:53:51Z</time>
      </trkpt>
      <trkpt lat="46.45163" lon="-0.15684">
        <ele>163.9</ele>
        <time>2020-05-30T18:53:52Z</time>
      </trkpt>
      <trkpt lat="46.45158" lon="-0.15686">
        <ele>163.8</ele>
        <time>2020-05-30T18:53:53Z</time>
      </trkpt>
      <trkpt lat="46.45154" lon="-0.15689">
        <ele>163.8</ele>
        <time>2020-05-30T18:53:54Z</time>
      </trkpt>
      <trkpt lat="46.4515" lon="-0.15693">
        <ele>163.8</ele>
        <time>2020-05-30T18:53:55Z</time>
      </trkpt>
      <trkpt lat="46.45146" lon="-0.15696">
        <ele>163.8</ele>
        <time>2020-05-30T18:53:56Z</time>
      </trkpt>
      <trkpt lat="46.45142" lon="-0.15699">
        <ele>163.8</ele>
        <time>2020-05-30T18:53:57Z</time>
      </trkpt>
      <trkpt lat="46.45137" lon="-0.15702">
        <ele>163.7</ele>
        <time>2020-05-30T18:53:58Z</time>
      </trkpt>
      <trkpt lat="46.45133" lon="-0.15704">
        <ele>163.7</ele>
        <time>2020-05-30T18:53:59Z</time>
      </trkpt>
      <trkpt lat="46.45129" lon="-0.15706">
        <ele>163.7</ele>
        <time>2020-05-30T18:54:00Z</time>
      </trkpt>
      <trkpt lat="46.45125" lon="-0.15708">
        <ele>163.7</ele>
        <time>2020-05-30T18:54:01Z</time>
      </trkpt>
      <trkpt lat="46.45121" lon="-0.1571">
        <ele>163.7</ele>
        <time>2020-05-30T18:54:02Z</time>
      </trkpt>
      <trkpt lat="46.45117" lon="-0.15713">
        <ele>163.7</ele>
        <time>2020-05-30T18:54:03Z</time>
      </trkpt>
      <trkpt lat="46.45114" lon="-0.15717">
        <ele>163.8</ele>
        <time>2020-05-30T18:54:04Z</time>
      </trkpt>
      <trkpt lat="46.45111" lon="-0.15721">
        <ele>163.8</ele>
        <time>2020-05-30T18:54:05Z</time>
      </trkpt>
      <trkpt lat="46.45108" lon="-0.15725">
        <ele>163.8</ele>
        <time>2020-05-30T18:54:06Z</time>
      </trkpt>
      <trkpt lat="46.45104" lon="-0.15729">
        <ele>163.8</ele>
        <time>2020-05-30T18:54:07Z</time>
      </trkpt>
      <trkpt lat="46.45101" lon="-0.15732">
        <ele>163.9</ele>
        <time>2020-05-30T18:54:08Z</time>
      </trkpt>
      <trkpt lat="46.45098" lon="-0.15736">
        <ele>163.9</ele>
        <time>2020-05-30T18:54:09Z</time>
      </trkpt>
      <trkpt lat="46.45095" lon="-0.15738">
        <ele>163.9</ele>
        <time>2020-05-30T18:54:10Z</time>
      </trkpt>
      <trkpt lat="46.45092" lon="-0.1574">
        <ele>164</ele>
        <time>2020-05-30T18:54:11Z</time>
      </trkpt>
      <trkpt lat="46.45089" lon="-0.15743">
        <ele>164</ele>
        <time>2020-05-30T18:54:12Z</time>
      </trkpt>
      <trkpt lat="46.45086" lon="-0.15746">
        <ele>164</ele>
        <time>2020-05-30T18:54:13Z</time>
      </trkpt>
      <trkpt lat="46.45082" lon="-0.15749">
        <ele>164.1</ele>
        <time>2020-05-30T18:54:14Z</time>
      </trkpt>
      <trkpt lat="46.45079" lon="-0.15753">
        <ele>164.2</ele>
        <time>2020-05-30T18:54:15Z</time>
      </trkpt>
      <trkpt lat="46.45076" lon="-0.15758">
        <ele>164.2</ele>
        <time>2020-05-30T18:54:16Z</time>
      </trkpt>
      <trkpt lat="46.45073" lon="-0.15762">
        <ele>164.3</ele>
        <time>2020-05-30T18:54:17Z</time>
      </trkpt>
      <trkpt lat="46.45069" lon="-0.15767">
        <ele>164.4</ele>
        <time>2020-05-30T18:54:18Z</time>
      </trkpt>
      <trkpt lat="46.45066" lon="-0.15772">
        <ele>164.5</ele>
        <time>2020-05-30T18:54:19Z</time>
      </trkpt>
      <trkpt lat="46.45063" lon="-0.15777">
        <ele>164.6</ele>
        <time>2020-05-30T18:54:20Z</time>
      </trkpt>
      <trkpt lat="46.4506" lon="-0.15783">
        <ele>164.7</ele>
        <time>2020-05-30T18:54:21Z</time>
      </trkpt>
      <trkpt lat="46.45057" lon="-0.15789">
        <ele>164.8</ele>
        <time>2020-05-30T18:54:22Z</time>
      </trkpt>
      <trkpt lat="46.45054" lon="-0.15796">
        <ele>164.9</ele>
        <time>2020-05-30T18:54:23Z</time>
      </trkpt>
      <trkpt lat="46.45052" lon="-0.15803">
        <ele>165.1</ele>
        <time>2020-05-30T18:54:24Z</time>
      </trkpt>
      <trkpt lat="46.4505" lon="-0.1581">
        <ele>165.2</ele>
        <time>2020-05-30T18:54:25Z</time>
      </trkpt>
      <trkpt lat="46.45049" lon="-0.15817">
        <ele>165.4</ele>
        <time>2020-05-30T18:54:26Z</time>
      </trkpt>
      <trkpt lat="46.45048" lon="-0.15824">
        <ele>165.5</ele>
        <time>2020-05-30T18:54:27Z</time>
      </trkpt>
      <trkpt lat="46.45047" lon="-0.1583">
        <ele>165.7</ele>
        <time>2020-05-30T18:54:28Z</time>
      </trkpt>
      <trkpt lat="46.45046" lon="-0.15836">
        <ele>165.8</ele>
        <time>2020-05-30T18:54:29Z</time>
      </trkpt>
      <trkpt lat="46.45045" lon="-0.15843">
        <ele>165.9</ele>
        <time>2020-05-30T18:54:30Z</time>
      </trkpt>
      <trkpt lat="46.45044" lon="-0.15849">
        <ele>166.1</ele>
        <time>2020-05-30T18:54:31Z</time>
      </trkpt>
      <trkpt lat="46.45042" lon="-0.15855">
        <ele>166.2</ele>
        <time>2020-05-30T18:54:32Z</time>
      </trkpt>
      <trkpt lat="46.45041" lon="-0.15861">
        <ele>166.3</ele>
        <time>2020-05-30T18:54:33Z</time>
      </trkpt>
      <trkpt lat="46.45041" lon="-0.15867">
        <ele>166.5</ele>
        <time>2020-05-30T18:54:34Z</time>
      </trkpt>
      <trkpt lat="46.4504" lon="-0.15874">
        <ele>166.6</ele>
        <time>2020-05-30T18:54:35Z</time>
      </trkpt>
      <trkpt lat="46.45039" lon="-0.15881">
        <ele>166.8</ele>
        <time>2020-05-30T18:54:36Z</time>
      </trkpt>
      <trkpt lat="46.45038" lon="-0.15887">
        <ele>167</ele>
        <time>2020-05-30T18:54:37Z</time>
      </trkpt>
      <trkpt lat="46.45035" lon="-0.15893">
        <ele>167.2</ele>
        <time>2020-05-30T18:54:38Z</time>
      </trkpt>
      <trkpt lat="46.45034" lon="-0.15899">
        <ele>167.3</ele>
        <time>2020-05-30T18:54:39Z</time>
      </trkpt>
      <trkpt lat="46.45033" lon="-0.15905">
        <ele>167.5</ele>
        <time>2020-05-30T18:54:40Z</time>
      </trkpt>
      <trkpt lat="46.45034" lon="-0.15911">
        <ele>167.6</ele>
        <time>2020-05-30T18:54:41Z</time>
      </trkpt>
      <trkpt lat="46.45034" lon="-0.15916">
        <ele>167.8</ele>
        <time>2020-05-30T18:54:42Z</time>
      </trkpt>
      <trkpt lat="46.45033" lon="-0.15922">
        <ele>167.9</ele>
        <time>2020-05-30T18:54:43Z</time>
      </trkpt>
      <trkpt lat="46.45032" lon="-0.15928">
        <ele>168</ele>
        <time>2020-05-30T18:54:44Z</time>
      </trkpt>
      <trkpt lat="46.45031" lon="-0.15934">
        <ele>168.2</ele>
        <time>2020-05-30T18:54:45Z</time>
      </trkpt>
      <trkpt lat="46.45031" lon="-0.15941">
        <ele>168.3</ele>
        <time>2020-05-30T18:54:46Z</time>
      </trkpt>
      <trkpt lat="46.4503" lon="-0.15947">
        <ele>168.4</ele>
        <time>2020-05-30T18:54:47Z</time>
      </trkpt>
      <trkpt lat="46.4503" lon="-0.15953">
        <ele>168.6</ele>
        <time>2020-05-30T18:54:48Z</time>
      </trkpt>
      <trkpt lat="46.4503" lon="-0.1596">
        <ele>168.8</ele>
        <time>2020-05-30T18:54:49Z</time>
      </trkpt>
      <trkpt lat="46.45029" lon="-0.15967">
        <ele>168.9</ele>
        <time>2020-05-30T18:54:50Z</time>
      </trkpt>
      <trkpt lat="46.45028" lon="-0.15973">
        <ele>169</ele>
        <time>2020-05-30T18:54:51Z</time>
      </trkpt>
      <trkpt lat="46.45027" lon="-0.15978">
        <ele>169.1</ele>
        <time>2020-05-30T18:54:52Z</time>
      </trkpt>
      <trkpt lat="46.45025" lon="-0.15981">
        <ele>169.2</ele>
        <time>2020-05-30T18:54:53Z</time>
      </trkpt>
      <trkpt lat="46.45022" lon="-0.15986">
        <ele>169.3</ele>
        <time>2020-05-30T18:54:54Z</time>
      </trkpt>
      <trkpt lat="46.45019" lon="-0.15991">
        <ele>169.4</ele>
        <time>2020-05-30T18:54:55Z</time>
      </trkpt>
      <trkpt lat="46.45017" lon="-0.15996">
        <ele>169.5</ele>
        <time>2020-05-30T18:54:56Z</time>
      </trkpt>
      <trkpt lat="46.45013" lon="-0.16001">
        <ele>169.6</ele>
        <time>2020-05-30T18:54:57Z</time>
      </trkpt>
      <trkpt lat="46.45009" lon="-0.16006">
        <ele>169.8</ele>
        <time>2020-05-30T18:54:58Z</time>
      </trkpt>
      <trkpt lat="46.45006" lon="-0.16009">
        <ele>169.9</ele>
        <time>2020-05-30T18:54:59Z</time>
      </trkpt>
      <trkpt lat="46.45003" lon="-0.16013">
        <ele>170</ele>
        <time>2020-05-30T18:55:00Z</time>
      </trkpt>
      <trkpt lat="46.45" lon="-0.16017">
        <ele>170.1</ele>
        <time>2020-05-30T18:55:01Z</time>
      </trkpt>
      <trkpt lat="46.44997" lon="-0.16019">
        <ele>170.2</ele>
        <time>2020-05-30T18:55:02Z</time>
      </trkpt>
      <trkpt lat="46.44995" lon="-0.16022">
        <ele>170.3</ele>
        <time>2020-05-30T18:55:03Z</time>
      </trkpt>
      <trkpt lat="46.4499" lon="-0.16024">
        <ele>170.4</ele>
        <time>2020-05-30T18:55:04Z</time>
      </trkpt>
      <trkpt lat="46.44989" lon="-0.16024">
        <ele>170.4</ele>
        <time>2020-05-30T18:55:05Z</time>
      </trkpt>
      <trkpt lat="46.44985" lon="-0.16027">
        <ele>170.5</ele>
        <time>2020-05-30T18:55:06Z</time>
      </trkpt>
      <trkpt lat="46.44981" lon="-0.1603">
        <ele>170.7</ele>
        <time>2020-05-30T18:55:07Z</time>
      </trkpt>
      <trkpt lat="46.44977" lon="-0.16033">
        <ele>170.8</ele>
        <time>2020-05-30T18:55:08Z</time>
      </trkpt>
      <trkpt lat="46.44974" lon="-0.16035">
        <ele>170.9</ele>
        <time>2020-05-30T18:55:09Z</time>
      </trkpt>
      <trkpt lat="46.4497" lon="-0.16038">
        <ele>171</ele>
        <time>2020-05-30T18:55:10Z</time>
      </trkpt>
      <trkpt lat="46.44967" lon="-0.16041">
        <ele>171.1</ele>
        <time>2020-05-30T18:55:11Z</time>
      </trkpt>
      <trkpt lat="46.44966" lon="-0.16042">
        <ele>171.1</ele>
        <time>2020-05-30T18:55:12Z</time>
      </trkpt>
      <trkpt lat="46.44963" lon="-0.16043">
        <ele>171.2</ele>
        <time>2020-05-30T18:55:13Z</time>
      </trkpt>
      <trkpt lat="46.4496" lon="-0.16045">
        <ele>171.3</ele>
        <time>2020-05-30T18:55:14Z</time>
      </trkpt>
      <trkpt lat="46.44957" lon="-0.16049">
        <ele>171.4</ele>
        <time>2020-05-30T18:55:15Z</time>
      </trkpt>
      <trkpt lat="46.44955" lon="-0.1605">
        <ele>171.5</ele>
        <time>2020-05-30T18:55:16Z</time>
      </trkpt>
      <trkpt lat="46.44952" lon="-0.16052">
        <ele>171.6</ele>
        <time>2020-05-30T18:55:17Z</time>
      </trkpt>
      <trkpt lat="46.44949" lon="-0.16054">
        <ele>171.7</ele>
        <time>2020-05-30T18:55:18Z</time>
      </trkpt>
      <trkpt lat="46.44945" lon="-0.16057">
        <ele>171.8</ele>
        <time>2020-05-30T18:55:19Z</time>
      </trkpt>
      <trkpt lat="46.44941" lon="-0.16059">
        <ele>171.9</ele>
        <time>2020-05-30T18:55:20Z</time>
      </trkpt>
      <trkpt lat="46.44937" lon="-0.16062">
        <ele>172</ele>
        <time>2020-05-30T18:55:21Z</time>
      </trkpt>
      <trkpt lat="46.44934" lon="-0.16064">
        <ele>172.1</ele>
        <time>2020-05-30T18:55:22Z</time>
      </trkpt>
      <trkpt lat="46.44931" lon="-0.16067">
        <ele>172.2</ele>
        <time>2020-05-30T18:55:23Z</time>
      </trkpt>
      <trkpt lat="46.44927" lon="-0.16069">
        <ele>172.3</ele>
        <time>2020-05-30T18:55:24Z</time>
      </trkpt>
      <trkpt lat="46.44924" lon="-0.16071">
        <ele>172.4</ele>
        <time>2020-05-30T18:55:25Z</time>
      </trkpt>
      <trkpt lat="46.44921" lon="-0.16074">
        <ele>172.5</ele>
        <time>2020-05-30T18:55:26Z</time>
      </trkpt>
      <trkpt lat="46.44915" lon="-0.16077">
        <ele>172.6</ele>
        <time>2020-05-30T18:55:27Z</time>
      </trkpt>
      <trkpt lat="46.44911" lon="-0.16081">
        <ele>172.8</ele>
        <time>2020-05-30T18:55:28Z</time>
      </trkpt>
      <trkpt lat="46.44907" lon="-0.16084">
        <ele>172.9</ele>
        <time>2020-05-30T18:55:29Z</time>
      </trkpt>
      <trkpt lat="46.44903" lon="-0.16086">
        <ele>173</ele>
        <time>2020-05-30T18:55:30Z</time>
      </trkpt>
      <trkpt lat="46.449" lon="-0.16088">
        <ele>173.1</ele>
        <time>2020-05-30T18:55:31Z</time>
      </trkpt>
      <trkpt lat="46.44897" lon="-0.16091">
        <ele>173.2</ele>
        <time>2020-05-30T18:55:32Z</time>
      </trkpt>
      <trkpt lat="46.44893" lon="-0.16094">
        <ele>173.2</ele>
        <time>2020-05-30T18:55:33Z</time>
      </trkpt>
      <trkpt lat="46.44892" lon="-0.16095">
        <ele>173.3</ele>
        <time>2020-05-30T18:55:34Z</time>
      </trkpt>
      <trkpt lat="46.44888" lon="-0.16097">
        <ele>173.3</ele>
        <time>2020-05-30T18:55:35Z</time>
      </trkpt>
      <trkpt lat="46.44887" lon="-0.16098">
        <ele>173.4</ele>
        <time>2020-05-30T18:55:36Z</time>
      </trkpt>
      <trkpt lat="46.44884" lon="-0.16101">
        <ele>173.5</ele>
        <time>2020-05-30T18:55:37Z</time>
      </trkpt>
      <trkpt lat="46.44881" lon="-0.16102">
        <ele>173.5</ele>
        <time>2020-05-30T18:55:38Z</time>
      </trkpt>
      <trkpt lat="46.44878" lon="-0.16104">
        <ele>173.6</ele>
        <time>2020-05-30T18:55:39Z</time>
      </trkpt>
      <trkpt lat="46.44873" lon="-0.16106">
        <ele>173.7</ele>
        <time>2020-05-30T18:55:40Z</time>
      </trkpt>
      <trkpt lat="46.44869" lon="-0.16109">
        <ele>173.7</ele>
        <time>2020-05-30T18:55:41Z</time>
      </trkpt>
      <trkpt lat="46.44864" lon="-0.16113">
        <ele>173.8</ele>
        <time>2020-05-30T18:55:42Z</time>
      </trkpt>
      <trkpt lat="46.4486" lon="-0.16116">
        <ele>173.8</ele>
        <time>2020-05-30T18:55:43Z</time>
      </trkpt>
      <trkpt lat="46.44857" lon="-0.16118">
        <ele>173.8</ele>
        <time>2020-05-30T18:55:44Z</time>
      </trkpt>
      <trkpt lat="46.44854" lon="-0.16122">
        <ele>173.9</ele>
        <time>2020-05-30T18:55:45Z</time>
      </trkpt>
      <trkpt lat="46.4485" lon="-0.16125">
        <ele>173.9</ele>
        <time>2020-05-30T18:55:46Z</time>
      </trkpt>
      <trkpt lat="46.44847" lon="-0.16129">
        <ele>174</ele>
        <time>2020-05-30T18:55:47Z</time>
      </trkpt>
      <trkpt lat="46.44843" lon="-0.16133">
        <ele>174</ele>
        <time>2020-05-30T18:55:48Z</time>
      </trkpt>
      <trkpt lat="46.4484" lon="-0.16137">
        <ele>174.1</ele>
        <time>2020-05-30T18:55:49Z</time>
      </trkpt>
      <trkpt lat="46.44836" lon="-0.1614">
        <ele>174.2</ele>
        <time>2020-05-30T18:55:50Z</time>
      </trkpt>
      <trkpt lat="46.44832" lon="-0.16143">
        <ele>174.2</ele>
        <time>2020-05-30T18:55:51Z</time>
      </trkpt>
      <trkpt lat="46.44829" lon="-0.16146">
        <ele>174.3</ele>
        <time>2020-05-30T18:55:52Z</time>
      </trkpt>
      <trkpt lat="46.44826" lon="-0.16147">
        <ele>174.4</ele>
        <time>2020-05-30T18:55:53Z</time>
      </trkpt>
      <trkpt lat="46.44823" lon="-0.1615">
        <ele>174.5</ele>
        <time>2020-05-30T18:55:54Z</time>
      </trkpt>
      <trkpt lat="46.4482" lon="-0.16154">
        <ele>174.6</ele>
        <time>2020-05-30T18:55:55Z</time>
      </trkpt>
      <trkpt lat="46.44817" lon="-0.16156">
        <ele>174.7</ele>
        <time>2020-05-30T18:55:56Z</time>
      </trkpt>
      <trkpt lat="46.44814" lon="-0.1616">
        <ele>174.8</ele>
        <time>2020-05-30T18:55:57Z</time>
      </trkpt>
      <trkpt lat="46.44811" lon="-0.16163">
        <ele>174.9</ele>
        <time>2020-05-30T18:55:58Z</time>
      </trkpt>
      <trkpt lat="46.44809" lon="-0.16166">
        <ele>174.9</ele>
        <time>2020-05-30T18:55:59Z</time>
      </trkpt>
      <trkpt lat="46.44806" lon="-0.16168">
        <ele>175</ele>
        <time>2020-05-30T18:56:00Z</time>
      </trkpt>
      <trkpt lat="46.44803" lon="-0.1617">
        <ele>175.1</ele>
        <time>2020-05-30T18:56:01Z</time>
      </trkpt>
      <trkpt lat="46.44799" lon="-0.16172">
        <ele>175.1</ele>
        <time>2020-05-30T18:56:02Z</time>
      </trkpt>
      <trkpt lat="46.44796" lon="-0.16174">
        <ele>175.2</ele>
        <time>2020-05-30T18:56:03Z</time>
      </trkpt>
      <trkpt lat="46.44795" lon="-0.16178">
        <ele>175.2</ele>
        <time>2020-05-30T18:56:04Z</time>
      </trkpt>
      <trkpt lat="46.44792" lon="-0.16181">
        <ele>175.3</ele>
        <time>2020-05-30T18:56:05Z</time>
      </trkpt>
      <trkpt lat="46.4479" lon="-0.16182">
        <ele>175.3</ele>
        <time>2020-05-30T18:56:06Z</time>
      </trkpt>
      <trkpt lat="46.44787" lon="-0.16185">
        <ele>175.4</ele>
        <time>2020-05-30T18:56:07Z</time>
      </trkpt>
      <trkpt lat="46.44785" lon="-0.16188">
        <ele>175.4</ele>
        <time>2020-05-30T18:56:08Z</time>
      </trkpt>
      <trkpt lat="46.44781" lon="-0.16191">
        <ele>175.5</ele>
        <time>2020-05-30T18:56:09Z</time>
      </trkpt>
      <trkpt lat="46.44778" lon="-0.16194">
        <ele>175.5</ele>
        <time>2020-05-30T18:56:10Z</time>
      </trkpt>
      <trkpt lat="46.44775" lon="-0.16196">
        <ele>175.6</ele>
        <time>2020-05-30T18:56:11Z</time>
      </trkpt>
      <trkpt lat="46.44771" lon="-0.16199">
        <ele>175.7</ele>
        <time>2020-05-30T18:56:12Z</time>
      </trkpt>
      <trkpt lat="46.44767" lon="-0.16203">
        <ele>175.7</ele>
        <time>2020-05-30T18:56:13Z</time>
      </trkpt>
      <trkpt lat="46.44763" lon="-0.16205">
        <ele>175.8</ele>
        <time>2020-05-30T18:56:14Z</time>
      </trkpt>
      <trkpt lat="46.4476" lon="-0.16209">
        <ele>175.9</ele>
        <time>2020-05-30T18:56:15Z</time>
      </trkpt>
      <trkpt lat="46.44756" lon="-0.16212">
        <ele>176</ele>
        <time>2020-05-30T18:56:16Z</time>
      </trkpt>
      <trkpt lat="46.44752" lon="-0.16216">
        <ele>176</ele>
        <time>2020-05-30T18:56:17Z</time>
      </trkpt>
      <trkpt lat="46.44748" lon="-0.1622">
        <ele>176.1</ele>
        <time>2020-05-30T18:56:18Z</time>
      </trkpt>
      <trkpt lat="46.44744" lon="-0.16223">
        <ele>176.2</ele>
        <time>2020-05-30T18:56:19Z</time>
      </trkpt>
      <trkpt lat="46.4474" lon="-0.16226">
        <ele>176.2</ele>
        <time>2020-05-30T18:56:20Z</time>
      </trkpt>
      <trkpt lat="46.44736" lon="-0.16229">
        <ele>176.3</ele>
        <time>2020-05-30T18:56:21Z</time>
      </trkpt>
      <trkpt lat="46.44733" lon="-0.16233">
        <ele>176.3</ele>
        <time>2020-05-30T18:56:22Z</time>
      </trkpt>
      <trkpt lat="46.44729" lon="-0.16236">
        <ele>176.4</ele>
        <time>2020-05-30T18:56:23Z</time>
      </trkpt>
      <trkpt lat="46.44726" lon="-0.16241">
        <ele>176.5</ele>
        <time>2020-05-30T18:56:24Z</time>
      </trkpt>
      <trkpt lat="46.44722" lon="-0.16245">
        <ele>176.5</ele>
        <time>2020-05-30T18:56:25Z</time>
      </trkpt>
      <trkpt lat="46.44719" lon="-0.1625">
        <ele>176.6</ele>
        <time>2020-05-30T18:56:26Z</time>
      </trkpt>
      <trkpt lat="46.44716" lon="-0.16253">
        <ele>176.7</ele>
        <time>2020-05-30T18:56:27Z</time>
      </trkpt>
      <trkpt lat="46.44712" lon="-0.16258">
        <ele>176.7</ele>
        <time>2020-05-30T18:56:28Z</time>
      </trkpt>
      <trkpt lat="46.44709" lon="-0.16263">
        <ele>176.8</ele>
        <time>2020-05-30T18:56:29Z</time>
      </trkpt>
      <trkpt lat="46.44707" lon="-0.16267">
        <ele>176.8</ele>
        <time>2020-05-30T18:56:30Z</time>
      </trkpt>
      <trkpt lat="46.44703" lon="-0.16271">
        <ele>176.9</ele>
        <time>2020-05-30T18:56:31Z</time>
      </trkpt>
      <trkpt lat="46.447" lon="-0.16276">
        <ele>177</ele>
        <time>2020-05-30T18:56:32Z</time>
      </trkpt>
      <trkpt lat="46.44697" lon="-0.16281">
        <ele>177</ele>
        <time>2020-05-30T18:56:33Z</time>
      </trkpt>
      <trkpt lat="46.44695" lon="-0.16285">
        <ele>177.1</ele>
        <time>2020-05-30T18:56:34Z</time>
      </trkpt>
      <trkpt lat="46.44692" lon="-0.1629">
        <ele>177.1</ele>
        <time>2020-05-30T18:56:35Z</time>
      </trkpt>
      <trkpt lat="46.4469" lon="-0.16294">
        <ele>177.2</ele>
        <time>2020-05-30T18:56:36Z</time>
      </trkpt>
      <trkpt lat="46.44688" lon="-0.163">
        <ele>177.2</ele>
        <time>2020-05-30T18:56:37Z</time>
      </trkpt>
      <trkpt lat="46.44684" lon="-0.16307">
        <ele>177.2</ele>
        <time>2020-05-30T18:56:38Z</time>
      </trkpt>
      <trkpt lat="46.44681" lon="-0.16312">
        <ele>177.2</ele>
        <time>2020-05-30T18:56:39Z</time>
      </trkpt>
      <trkpt lat="46.44678" lon="-0.16316">
        <ele>177.3</ele>
        <time>2020-05-30T18:56:40Z</time>
      </trkpt>
      <trkpt lat="46.44674" lon="-0.1632">
        <ele>177.3</ele>
        <time>2020-05-30T18:56:41Z</time>
      </trkpt>
      <trkpt lat="46.44671" lon="-0.16325">
        <ele>177.3</ele>
        <time>2020-05-30T18:56:42Z</time>
      </trkpt>
      <trkpt lat="46.44669" lon="-0.1633">
        <ele>177.3</ele>
        <time>2020-05-30T18:56:43Z</time>
      </trkpt>
      <trkpt lat="46.44666" lon="-0.16335">
        <ele>177.3</ele>
        <time>2020-05-30T18:56:44Z</time>
      </trkpt>
      <trkpt lat="46.44664" lon="-0.16339">
        <ele>177.2</ele>
        <time>2020-05-30T18:56:45Z</time>
      </trkpt>
      <trkpt lat="46.44662" lon="-0.16344">
        <ele>177.2</ele>
        <time>2020-05-30T18:56:46Z</time>
      </trkpt>
      <trkpt lat="46.44661" lon="-0.16349">
        <ele>177.2</ele>
        <time>2020-05-30T18:56:47Z</time>
      </trkpt>
      <trkpt lat="46.44659" lon="-0.16355">
        <ele>177.2</ele>
        <time>2020-05-30T18:56:48Z</time>
      </trkpt>
      <trkpt lat="46.44657" lon="-0.16361">
        <ele>177.2</ele>
        <time>2020-05-30T18:56:49Z</time>
      </trkpt>
      <trkpt lat="46.44655" lon="-0.16366">
        <ele>177.1</ele>
        <time>2020-05-30T18:56:50Z</time>
      </trkpt>
      <trkpt lat="46.44653" lon="-0.16372">
        <ele>177.1</ele>
        <time>2020-05-30T18:56:51Z</time>
      </trkpt>
      <trkpt lat="46.44651" lon="-0.16376">
        <ele>177.1</ele>
        <time>2020-05-30T18:56:52Z</time>
      </trkpt>
      <trkpt lat="46.44649" lon="-0.16381">
        <ele>177.1</ele>
        <time>2020-05-30T18:56:53Z</time>
      </trkpt>
      <trkpt lat="46.44646" lon="-0.16385">
        <ele>177.1</ele>
        <time>2020-05-30T18:56:54Z</time>
      </trkpt>
      <trkpt lat="46.44644" lon="-0.1639">
        <ele>177</ele>
        <time>2020-05-30T18:56:55Z</time>
      </trkpt>
      <trkpt lat="46.44643" lon="-0.16394">
        <ele>177</ele>
        <time>2020-05-30T18:56:56Z</time>
      </trkpt>
      <trkpt lat="46.44641" lon="-0.16398">
        <ele>176.9</ele>
        <time>2020-05-30T18:56:57Z</time>
      </trkpt>
      <trkpt lat="46.44639" lon="-0.164">
        <ele>176.9</ele>
        <time>2020-05-30T18:56:58Z</time>
      </trkpt>
      <trkpt lat="46.44639" lon="-0.16402">
        <ele>176.8</ele>
        <time>2020-05-30T18:56:59Z</time>
      </trkpt>
      <trkpt lat="46.4464" lon="-0.16402">
        <ele>176.8</ele>
        <time>2020-05-30T18:57:00Z</time>
      </trkpt>
      <trkpt lat="46.4464" lon="-0.16401">
        <ele>176.8</ele>
        <time>2020-05-30T18:57:01Z</time>
      </trkpt>
      <trkpt lat="46.44641" lon="-0.164">
        <ele>176.8</ele>
        <time>2020-05-30T18:57:02Z</time>
      </trkpt>
      <trkpt lat="46.44641" lon="-0.164">
        <ele>176.7</ele>
        <time>2020-05-30T18:57:03Z</time>
      </trkpt>
      <trkpt lat="46.4464" lon="-0.16401">
        <ele>176.7</ele>
        <time>2020-05-30T18:57:04Z</time>
      </trkpt>
      <trkpt lat="46.4464" lon="-0.16402">
        <ele>176.7</ele>
        <time>2020-05-30T18:57:05Z</time>
      </trkpt>
      <trkpt lat="46.4464" lon="-0.16402">
        <ele>176.7</ele>
        <time>2020-05-30T18:57:06Z</time>
      </trkpt>
      <trkpt lat="46.4464" lon="-0.16402">
        <ele>176.7</ele>
        <time>2020-05-30T18:57:07Z</time>
      </trkpt>
      <trkpt lat="46.4464" lon="-0.16403">
        <ele>176.7</ele>
        <time>2020-05-30T18:57:08Z</time>
      </trkpt>
      <trkpt lat="46.4464" lon="-0.16403">
        <ele>176.7</ele>
        <time>2020-05-30T18:57:09Z</time>
      </trkpt>
      <trkpt lat="46.44639" lon="-0.16403">
        <ele>176.7</ele>
        <time>2020-05-30T18:57:10Z</time>
      </trkpt>
      <trkpt lat="46.44639" lon="-0.16404">
        <ele>176.7</ele>
        <time>2020-05-30T18:57:11Z</time>
      </trkpt>
      <trkpt lat="46.44639" lon="-0.16404">
        <ele>176.6</ele>
        <time>2020-05-30T18:57:12Z</time>
      </trkpt>
      <trkpt lat="46.44639" lon="-0.16404">
        <ele>176.6</ele>
        <time>2020-05-30T18:57:13Z</time>
      </trkpt>
      <trkpt lat="46.44639" lon="-0.16404">
        <ele>176.6</ele>
        <time>2020-05-30T18:57:14Z</time>
      </trkpt>
      <trkpt lat="46.44636" lon="-0.1641">
        <ele>176.5</ele>
        <time>2020-05-30T18:57:15Z</time>
      </trkpt>
      <trkpt lat="46.44635" lon="-0.16413">
        <ele>176.4</ele>
        <time>2020-05-30T18:57:16Z</time>
      </trkpt>
      <trkpt lat="46.44632" lon="-0.16417">
        <ele>176.2</ele>
        <time>2020-05-30T18:57:17Z</time>
      </trkpt>
      <trkpt lat="46.44628" lon="-0.16423">
        <ele>176</ele>
        <time>2020-05-30T18:57:18Z</time>
      </trkpt>
      <trkpt lat="46.44624" lon="-0.16431">
        <ele>175.7</ele>
        <time>2020-05-30T18:57:19Z</time>
      </trkpt>
      <trkpt lat="46.4462" lon="-0.16437">
        <ele>175.4</ele>
        <time>2020-05-30T18:57:20Z</time>
      </trkpt>
      <trkpt lat="46.44617" lon="-0.16443">
        <ele>175.2</ele>
        <time>2020-05-30T18:57:21Z</time>
      </trkpt>
      <trkpt lat="46.44614" lon="-0.16449">
        <ele>174.9</ele>
        <time>2020-05-30T18:57:22Z</time>
      </trkpt>
      <trkpt lat="46.44612" lon="-0.16455">
        <ele>174.6</ele>
        <time>2020-05-30T18:57:23Z</time>
      </trkpt>
      <trkpt lat="46.44609" lon="-0.16461">
        <ele>174.4</ele>
        <time>2020-05-30T18:57:24Z</time>
      </trkpt>
      <trkpt lat="46.44606" lon="-0.16469">
        <ele>174</ele>
        <time>2020-05-30T18:57:25Z</time>
      </trkpt>
      <trkpt lat="46.44603" lon="-0.16477">
        <ele>173.6</ele>
        <time>2020-05-30T18:57:26Z</time>
      </trkpt>
      <trkpt lat="46.44601" lon="-0.16484">
        <ele>173.3</ele>
        <time>2020-05-30T18:57:27Z</time>
      </trkpt>
      <trkpt lat="46.44599" lon="-0.16492">
        <ele>172.9</ele>
        <time>2020-05-30T18:57:28Z</time>
      </trkpt>
      <trkpt lat="46.44596" lon="-0.16499">
        <ele>172.5</ele>
        <time>2020-05-30T18:57:29Z</time>
      </trkpt>
      <trkpt lat="46.44594" lon="-0.16507">
        <ele>172</ele>
        <time>2020-05-30T18:57:30Z</time>
      </trkpt>
      <trkpt lat="46.44591" lon="-0.16515">
        <ele>171.6</ele>
        <time>2020-05-30T18:57:31Z</time>
      </trkpt>
      <trkpt lat="46.44588" lon="-0.16523">
        <ele>171.1</ele>
        <time>2020-05-30T18:57:32Z</time>
      </trkpt>
      <trkpt lat="46.44586" lon="-0.16531">
        <ele>170.6</ele>
        <time>2020-05-30T18:57:33Z</time>
      </trkpt>
      <trkpt lat="46.44583" lon="-0.16538">
        <ele>170.1</ele>
        <time>2020-05-30T18:57:34Z</time>
      </trkpt>
      <trkpt lat="46.44581" lon="-0.16546">
        <ele>169.6</ele>
        <time>2020-05-30T18:57:35Z</time>
      </trkpt>
      <trkpt lat="46.44578" lon="-0.16555">
        <ele>169</ele>
        <time>2020-05-30T18:57:36Z</time>
      </trkpt>
      <trkpt lat="46.44575" lon="-0.16563">
        <ele>168.4</ele>
        <time>2020-05-30T18:57:37Z</time>
      </trkpt>
      <trkpt lat="46.44573" lon="-0.16572">
        <ele>167.8</ele>
        <time>2020-05-30T18:57:38Z</time>
      </trkpt>
      <trkpt lat="46.4457" lon="-0.16582">
        <ele>167.2</ele>
        <time>2020-05-30T18:57:39Z</time>
      </trkpt>
      <trkpt lat="46.44567" lon="-0.16591">
        <ele>166.4</ele>
        <time>2020-05-30T18:57:40Z</time>
      </trkpt>
      <trkpt lat="46.44565" lon="-0.16601">
        <ele>165.7</ele>
        <time>2020-05-30T18:57:41Z</time>
      </trkpt>
      <trkpt lat="46.44561" lon="-0.16614">
        <ele>164.7</ele>
        <time>2020-05-30T18:57:42Z</time>
      </trkpt>
      <trkpt lat="46.44557" lon="-0.16626">
        <ele>163.8</ele>
        <time>2020-05-30T18:57:43Z</time>
      </trkpt>
      <trkpt lat="46.44551" lon="-0.16639">
        <ele>162.7</ele>
        <time>2020-05-30T18:57:44Z</time>
      </trkpt>
      <trkpt lat="46.44545" lon="-0.16652">
        <ele>161.9</ele>
        <time>2020-05-30T18:57:45Z</time>
      </trkpt>
      <trkpt lat="46.44538" lon="-0.16666">
        <ele>161.2</ele>
        <time>2020-05-30T18:57:46Z</time>
      </trkpt>
      <trkpt lat="46.44531" lon="-0.16679">
        <ele>160.7</ele>
        <time>2020-05-30T18:57:47Z</time>
      </trkpt>
      <trkpt lat="46.44522" lon="-0.16692">
        <ele>160.2</ele>
        <time>2020-05-30T18:57:48Z</time>
      </trkpt>
      <trkpt lat="46.44514" lon="-0.16705">
        <ele>159.8</ele>
        <time>2020-05-30T18:57:49Z</time>
      </trkpt>
      <trkpt lat="46.44507" lon="-0.16719">
        <ele>159.5</ele>
        <time>2020-05-30T18:57:50Z</time>
      </trkpt>
      <trkpt lat="46.445" lon="-0.16731">
        <ele>159.4</ele>
        <time>2020-05-30T18:57:51Z</time>
      </trkpt>
      <trkpt lat="46.44492" lon="-0.16745">
        <ele>159.3</ele>
        <time>2020-05-30T18:57:52Z</time>
      </trkpt>
      <trkpt lat="46.44485" lon="-0.16757">
        <ele>159.3</ele>
        <time>2020-05-30T18:57:53Z</time>
      </trkpt>
      <trkpt lat="46.44478" lon="-0.16769">
        <ele>159.4</ele>
        <time>2020-05-30T18:57:54Z</time>
      </trkpt>
      <trkpt lat="46.4447" lon="-0.16781">
        <ele>159.6</ele>
        <time>2020-05-30T18:57:55Z</time>
      </trkpt>
      <trkpt lat="46.44463" lon="-0.16792">
        <ele>159.8</ele>
        <time>2020-05-30T18:57:56Z</time>
      </trkpt>
      <trkpt lat="46.44455" lon="-0.16802">
        <ele>160.1</ele>
        <time>2020-05-30T18:57:57Z</time>
      </trkpt>
      <trkpt lat="46.44448" lon="-0.16812">
        <ele>160.5</ele>
        <time>2020-05-30T18:57:58Z</time>
      </trkpt>
      <trkpt lat="46.4444" lon="-0.16822">
        <ele>160.9</ele>
        <time>2020-05-30T18:57:59Z</time>
      </trkpt>
      <trkpt lat="46.44434" lon="-0.16831">
        <ele>161.3</ele>
        <time>2020-05-30T18:58:00Z</time>
      </trkpt>
      <trkpt lat="46.44427" lon="-0.16839">
        <ele>161.6</ele>
        <time>2020-05-30T18:58:01Z</time>
      </trkpt>
      <trkpt lat="46.44421" lon="-0.16849">
        <ele>162</ele>
        <time>2020-05-30T18:58:02Z</time>
      </trkpt>
      <trkpt lat="46.44415" lon="-0.16857">
        <ele>162.3</ele>
        <time>2020-05-30T18:58:03Z</time>
      </trkpt>
      <trkpt lat="46.44409" lon="-0.16866">
        <ele>162.7</ele>
        <time>2020-05-30T18:58:04Z</time>
      </trkpt>
      <trkpt lat="46.44404" lon="-0.16872">
        <ele>163</ele>
        <time>2020-05-30T18:58:05Z</time>
      </trkpt>
      <trkpt lat="46.444" lon="-0.16879">
        <ele>163.3</ele>
        <time>2020-05-30T18:58:06Z</time>
      </trkpt>
      <trkpt lat="46.44396" lon="-0.16885">
        <ele>163.6</ele>
        <time>2020-05-30T18:58:07Z</time>
      </trkpt>
      <trkpt lat="46.44392" lon="-0.1689">
        <ele>163.9</ele>
        <time>2020-05-30T18:58:08Z</time>
      </trkpt>
      <trkpt lat="46.44388" lon="-0.16893">
        <ele>164.2</ele>
        <time>2020-05-30T18:58:09Z</time>
      </trkpt>
      <trkpt lat="46.44384" lon="-0.16895">
        <ele>164.4</ele>
        <time>2020-05-30T18:58:10Z</time>
      </trkpt>
      <trkpt lat="46.44381" lon="-0.16899">
        <ele>164.6</ele>
        <time>2020-05-30T18:58:11Z</time>
      </trkpt>
      <trkpt lat="46.44377" lon="-0.16903">
        <ele>164.8</ele>
        <time>2020-05-30T18:58:12Z</time>
      </trkpt>
      <trkpt lat="46.44374" lon="-0.16907">
        <ele>165</ele>
        <time>2020-05-30T18:58:13Z</time>
      </trkpt>
      <trkpt lat="46.4437" lon="-0.16911">
        <ele>165.2</ele>
        <time>2020-05-30T18:58:14Z</time>
      </trkpt>
      <trkpt lat="46.44366" lon="-0.16914">
        <ele>165.4</ele>
        <time>2020-05-30T18:58:15Z</time>
      </trkpt>
      <trkpt lat="46.44364" lon="-0.16917">
        <ele>165.6</ele>
        <time>2020-05-30T18:58:16Z</time>
      </trkpt>
      <trkpt lat="46.44363" lon="-0.1692">
        <ele>165.7</ele>
        <time>2020-05-30T18:58:17Z</time>
      </trkpt>
      <trkpt lat="46.44361" lon="-0.16925">
        <ele>165.9</ele>
        <time>2020-05-30T18:58:18Z</time>
      </trkpt>
      <trkpt lat="46.44357" lon="-0.16929">
        <ele>166.1</ele>
        <time>2020-05-30T18:58:19Z</time>
      </trkpt>
      <trkpt lat="46.44355" lon="-0.16934">
        <ele>166.3</ele>
        <time>2020-05-30T18:58:20Z</time>
      </trkpt>
      <trkpt lat="46.44352" lon="-0.16939">
        <ele>166.4</ele>
        <time>2020-05-30T18:58:21Z</time>
      </trkpt>
      <trkpt lat="46.44348" lon="-0.16943">
        <ele>166.6</ele>
        <time>2020-05-30T18:58:22Z</time>
      </trkpt>
      <trkpt lat="46.44345" lon="-0.16948">
        <ele>166.8</ele>
        <time>2020-05-30T18:58:23Z</time>
      </trkpt>
      <trkpt lat="46.44342" lon="-0.16954">
        <ele>167</ele>
        <time>2020-05-30T18:58:24Z</time>
      </trkpt>
      <trkpt lat="46.44339" lon="-0.16959">
        <ele>167.1</ele>
        <time>2020-05-30T18:58:25Z</time>
      </trkpt>
      <trkpt lat="46.44335" lon="-0.16964">
        <ele>167.2</ele>
        <time>2020-05-30T18:58:26Z</time>
      </trkpt>
      <trkpt lat="46.44331" lon="-0.16969">
        <ele>167.3</ele>
        <time>2020-05-30T18:58:27Z</time>
      </trkpt>
      <trkpt lat="46.44328" lon="-0.16975">
        <ele>167.4</ele>
        <time>2020-05-30T18:58:28Z</time>
      </trkpt>
      <trkpt lat="46.44326" lon="-0.16982">
        <ele>167.5</ele>
        <time>2020-05-30T18:58:29Z</time>
      </trkpt>
      <trkpt lat="46.44322" lon="-0.16989">
        <ele>167.6</ele>
        <time>2020-05-30T18:58:30Z</time>
      </trkpt>
      <trkpt lat="46.4432" lon="-0.16994">
        <ele>167.6</ele>
        <time>2020-05-30T18:58:31Z</time>
      </trkpt>
      <trkpt lat="46.44318" lon="-0.17">
        <ele>167.6</ele>
        <time>2020-05-30T18:58:32Z</time>
      </trkpt>
      <trkpt lat="46.44315" lon="-0.17006">
        <ele>167.7</ele>
        <time>2020-05-30T18:58:33Z</time>
      </trkpt>
      <trkpt lat="46.44312" lon="-0.17011">
        <ele>167.7</ele>
        <time>2020-05-30T18:58:34Z</time>
      </trkpt>
      <trkpt lat="46.44309" lon="-0.17018">
        <ele>167.7</ele>
        <time>2020-05-30T18:58:35Z</time>
      </trkpt>
      <trkpt lat="46.44306" lon="-0.17023">
        <ele>167.7</ele>
        <time>2020-05-30T18:58:36Z</time>
      </trkpt>
      <trkpt lat="46.44303" lon="-0.17029">
        <ele>167.7</ele>
        <time>2020-05-30T18:58:37Z</time>
      </trkpt>
      <trkpt lat="46.443" lon="-0.17038">
        <ele>167.7</ele>
        <time>2020-05-30T18:58:38Z</time>
      </trkpt>
      <trkpt lat="46.44297" lon="-0.17045">
        <ele>167.7</ele>
        <time>2020-05-30T18:58:39Z</time>
      </trkpt>
      <trkpt lat="46.44294" lon="-0.17051">
        <ele>167.7</ele>
        <time>2020-05-30T18:58:40Z</time>
      </trkpt>
      <trkpt lat="46.44291" lon="-0.17058">
        <ele>167.7</ele>
        <time>2020-05-30T18:58:41Z</time>
      </trkpt>
      <trkpt lat="46.4429" lon="-0.17062">
        <ele>167.7</ele>
        <time>2020-05-30T18:58:42Z</time>
      </trkpt>
      <trkpt lat="46.44287" lon="-0.17067">
        <ele>167.7</ele>
        <time>2020-05-30T18:58:43Z</time>
      </trkpt>
      <trkpt lat="46.44284" lon="-0.17074">
        <ele>167.7</ele>
        <time>2020-05-30T18:58:44Z</time>
      </trkpt>
      <trkpt lat="46.44282" lon="-0.17081">
        <ele>167.7</ele>
        <time>2020-05-30T18:58:45Z</time>
      </trkpt>
      <trkpt lat="46.4428" lon="-0.17087">
        <ele>167.7</ele>
        <time>2020-05-30T18:58:46Z</time>
      </trkpt>
      <trkpt lat="46.44277" lon="-0.17093">
        <ele>167.7</ele>
        <time>2020-05-30T18:58:47Z</time>
      </trkpt>
      <trkpt lat="46.44275" lon="-0.17097">
        <ele>167.7</ele>
        <time>2020-05-30T18:58:48Z</time>
      </trkpt>
      <trkpt lat="46.44273" lon="-0.17102">
        <ele>167.7</ele>
        <time>2020-05-30T18:58:49Z</time>
      </trkpt>
      <trkpt lat="46.44271" lon="-0.17106">
        <ele>167.7</ele>
        <time>2020-05-30T18:58:50Z</time>
      </trkpt>
      <trkpt lat="46.44268" lon="-0.17112">
        <ele>167.7</ele>
        <time>2020-05-30T18:58:51Z</time>
      </trkpt>
      <trkpt lat="46.44266" lon="-0.17119">
        <ele>167.7</ele>
        <time>2020-05-30T18:58:52Z</time>
      </trkpt>
      <trkpt lat="46.44264" lon="-0.17123">
        <ele>167.6</ele>
        <time>2020-05-30T18:58:53Z</time>
      </trkpt>
      <trkpt lat="46.44261" lon="-0.1713">
        <ele>167.6</ele>
        <time>2020-05-30T18:58:54Z</time>
      </trkpt>
      <trkpt lat="46.4426" lon="-0.17135">
        <ele>167.5</ele>
        <time>2020-05-30T18:58:55Z</time>
      </trkpt>
      <trkpt lat="46.44257" lon="-0.1714">
        <ele>167.4</ele>
        <time>2020-05-30T18:58:56Z</time>
      </trkpt>
      <trkpt lat="46.44255" lon="-0.17145">
        <ele>167.4</ele>
        <time>2020-05-30T18:58:57Z</time>
      </trkpt>
      <trkpt lat="46.44253" lon="-0.1715">
        <ele>167.3</ele>
        <time>2020-05-30T18:58:58Z</time>
      </trkpt>
      <trkpt lat="46.44251" lon="-0.17154">
        <ele>167.2</ele>
        <time>2020-05-30T18:58:59Z</time>
      </trkpt>
      <trkpt lat="46.44249" lon="-0.17158">
        <ele>167.1</ele>
        <time>2020-05-30T18:59:00Z</time>
      </trkpt>
      <trkpt lat="46.44247" lon="-0.17164">
        <ele>167</ele>
        <time>2020-05-30T18:59:01Z</time>
      </trkpt>
      <trkpt lat="46.44245" lon="-0.17169">
        <ele>166.9</ele>
        <time>2020-05-30T18:59:02Z</time>
      </trkpt>
      <trkpt lat="46.44243" lon="-0.17176">
        <ele>166.9</ele>
        <time>2020-05-30T18:59:03Z</time>
      </trkpt>
      <trkpt lat="46.44241" lon="-0.17182">
        <ele>166.8</ele>
        <time>2020-05-30T18:59:04Z</time>
      </trkpt>
      <trkpt lat="46.4424" lon="-0.17187">
        <ele>166.7</ele>
        <time>2020-05-30T18:59:05Z</time>
      </trkpt>
      <trkpt lat="46.44238" lon="-0.17192">
        <ele>166.7</ele>
        <time>2020-05-30T18:59:06Z</time>
      </trkpt>
      <trkpt lat="46.44235" lon="-0.17199">
        <ele>166.6</ele>
        <time>2020-05-30T18:59:07Z</time>
      </trkpt>
      <trkpt lat="46.44233" lon="-0.17205">
        <ele>166.5</ele>
        <time>2020-05-30T18:59:08Z</time>
      </trkpt>
      <trkpt lat="46.44231" lon="-0.1721">
        <ele>166.4</ele>
        <time>2020-05-30T18:59:09Z</time>
      </trkpt>
      <trkpt lat="46.44229" lon="-0.17214">
        <ele>166.4</ele>
        <time>2020-05-30T18:59:10Z</time>
      </trkpt>
      <trkpt lat="46.44227" lon="-0.17218">
        <ele>166.3</ele>
        <time>2020-05-30T18:59:11Z</time>
      </trkpt>
      <trkpt lat="46.44226" lon="-0.1722">
        <ele>166.3</ele>
        <time>2020-05-30T18:59:12Z</time>
      </trkpt>
      <trkpt lat="46.44225" lon="-0.17222">
        <ele>166.2</ele>
        <time>2020-05-30T18:59:13Z</time>
      </trkpt>
      <trkpt lat="46.44223" lon="-0.17226">
        <ele>166.2</ele>
        <time>2020-05-30T18:59:14Z</time>
      </trkpt>
      <trkpt lat="46.44222" lon="-0.17228">
        <ele>166.1</ele>
        <time>2020-05-30T18:59:15Z</time>
      </trkpt>
      <trkpt lat="46.44221" lon="-0.17232">
        <ele>166.1</ele>
        <time>2020-05-30T18:59:16Z</time>
      </trkpt>
      <trkpt lat="46.44221" lon="-0.17234">
        <ele>166</ele>
        <time>2020-05-30T18:59:17Z</time>
      </trkpt>
      <trkpt lat="46.44219" lon="-0.17238">
        <ele>165.9</ele>
        <time>2020-05-30T18:59:18Z</time>
      </trkpt>
      <trkpt lat="46.44219" lon="-0.17239">
        <ele>165.9</ele>
        <time>2020-05-30T18:59:19Z</time>
      </trkpt>
      <trkpt lat="46.44217" lon="-0.17243">
        <ele>165.8</ele>
        <time>2020-05-30T18:59:20Z</time>
      </trkpt>
      <trkpt lat="46.44216" lon="-0.17245">
        <ele>165.8</ele>
        <time>2020-05-30T18:59:21Z</time>
      </trkpt>
      <trkpt lat="46.44214" lon="-0.17248">
        <ele>165.7</ele>
        <time>2020-05-30T18:59:22Z</time>
      </trkpt>
      <trkpt lat="46.44212" lon="-0.17255">
        <ele>165.6</ele>
        <time>2020-05-30T18:59:23Z</time>
      </trkpt>
      <trkpt lat="46.4421" lon="-0.1726">
        <ele>165.4</ele>
        <time>2020-05-30T18:59:24Z</time>
      </trkpt>
      <trkpt lat="46.44208" lon="-0.17264">
        <ele>165.3</ele>
        <time>2020-05-30T18:59:25Z</time>
      </trkpt>
      <trkpt lat="46.44206" lon="-0.17268">
        <ele>165.3</ele>
        <time>2020-05-30T18:59:26Z</time>
      </trkpt>
      <trkpt lat="46.44204" lon="-0.17272">
        <ele>165.2</ele>
        <time>2020-05-30T18:59:27Z</time>
      </trkpt>
      <trkpt lat="46.44203" lon="-0.17275">
        <ele>165.1</ele>
        <time>2020-05-30T18:59:28Z</time>
      </trkpt>
      <trkpt lat="46.44201" lon="-0.1728">
        <ele>165.1</ele>
        <time>2020-05-30T18:59:29Z</time>
      </trkpt>
      <trkpt lat="46.44199" lon="-0.17284">
        <ele>165</ele>
        <time>2020-05-30T18:59:30Z</time>
      </trkpt>
      <trkpt lat="46.44198" lon="-0.17287">
        <ele>164.9</ele>
        <time>2020-05-30T18:59:31Z</time>
      </trkpt>
      <trkpt lat="46.44196" lon="-0.17293">
        <ele>164.8</ele>
        <time>2020-05-30T18:59:32Z</time>
      </trkpt>
      <trkpt lat="46.44194" lon="-0.17299">
        <ele>164.7</ele>
        <time>2020-05-30T18:59:33Z</time>
      </trkpt>
      <trkpt lat="46.44193" lon="-0.17304">
        <ele>164.6</ele>
        <time>2020-05-30T18:59:34Z</time>
      </trkpt>
      <trkpt lat="46.4419" lon="-0.17309">
        <ele>164.5</ele>
        <time>2020-05-30T18:59:35Z</time>
      </trkpt>
      <trkpt lat="46.44189" lon="-0.17313">
        <ele>164.4</ele>
        <time>2020-05-30T18:59:36Z</time>
      </trkpt>
      <trkpt lat="46.44187" lon="-0.17318">
        <ele>164.3</ele>
        <time>2020-05-30T18:59:37Z</time>
      </trkpt>
      <trkpt lat="46.44185" lon="-0.17323">
        <ele>164.2</ele>
        <time>2020-05-30T18:59:38Z</time>
      </trkpt>
      <trkpt lat="46.44183" lon="-0.17328">
        <ele>164</ele>
        <time>2020-05-30T18:59:39Z</time>
      </trkpt>
      <trkpt lat="46.44182" lon="-0.17333">
        <ele>163.9</ele>
        <time>2020-05-30T18:59:40Z</time>
      </trkpt>
      <trkpt lat="46.44181" lon="-0.17338">
        <ele>163.7</ele>
        <time>2020-05-30T18:59:41Z</time>
      </trkpt>
      <trkpt lat="46.4418" lon="-0.17342">
        <ele>163.6</ele>
        <time>2020-05-30T18:59:42Z</time>
      </trkpt>
      <trkpt lat="46.44179" lon="-0.17347">
        <ele>163.5</ele>
        <time>2020-05-30T18:59:43Z</time>
      </trkpt>
      <trkpt lat="46.44177" lon="-0.17351">
        <ele>163.4</ele>
        <time>2020-05-30T18:59:44Z</time>
      </trkpt>
      <trkpt lat="46.44174" lon="-0.17357">
        <ele>163.2</ele>
        <time>2020-05-30T18:59:45Z</time>
      </trkpt>
      <trkpt lat="46.44172" lon="-0.17362">
        <ele>163.1</ele>
        <time>2020-05-30T18:59:46Z</time>
      </trkpt>
      <trkpt lat="46.4417" lon="-0.17368">
        <ele>162.9</ele>
        <time>2020-05-30T18:59:47Z</time>
      </trkpt>
      <trkpt lat="46.44169" lon="-0.17373">
        <ele>162.8</ele>
        <time>2020-05-30T18:59:48Z</time>
      </trkpt>
      <trkpt lat="46.44167" lon="-0.17378">
        <ele>162.7</ele>
        <time>2020-05-30T18:59:49Z</time>
      </trkpt>
      <trkpt lat="46.44165" lon="-0.17384">
        <ele>162.6</ele>
        <time>2020-05-30T18:59:50Z</time>
      </trkpt>
      <trkpt lat="46.44163" lon="-0.17389">
        <ele>162.6</ele>
        <time>2020-05-30T18:59:51Z</time>
      </trkpt>
      <trkpt lat="46.44162" lon="-0.17393">
        <ele>162.5</ele>
        <time>2020-05-30T18:59:52Z</time>
      </trkpt>
      <trkpt lat="46.44159" lon="-0.17398">
        <ele>162.4</ele>
        <time>2020-05-30T18:59:53Z</time>
      </trkpt>
      <trkpt lat="46.44157" lon="-0.17404">
        <ele>162.3</ele>
        <time>2020-05-30T18:59:54Z</time>
      </trkpt>
      <trkpt lat="46.44155" lon="-0.17411">
        <ele>162.3</ele>
        <time>2020-05-30T18:59:55Z</time>
      </trkpt>
      <trkpt lat="46.44153" lon="-0.17418">
        <ele>162.2</ele>
        <time>2020-05-30T18:59:56Z</time>
      </trkpt>
      <trkpt lat="46.44151" lon="-0.17425">
        <ele>162.1</ele>
        <time>2020-05-30T18:59:57Z</time>
      </trkpt>
      <trkpt lat="46.44148" lon="-0.17431">
        <ele>162</ele>
        <time>2020-05-30T18:59:58Z</time>
      </trkpt>
      <trkpt lat="46.44145" lon="-0.17436">
        <ele>161.9</ele>
        <time>2020-05-30T18:59:59Z</time>
      </trkpt>
      <trkpt lat="46.44143" lon="-0.17442">
        <ele>161.8</ele>
        <time>2020-05-30T19:00:00Z</time>
      </trkpt>
      <trkpt lat="46.4414" lon="-0.17449">
        <ele>161.7</ele>
        <time>2020-05-30T19:00:01Z</time>
      </trkpt>
      <trkpt lat="46.44138" lon="-0.17456">
        <ele>161.7</ele>
        <time>2020-05-30T19:00:02Z</time>
      </trkpt>
      <trkpt lat="46.44136" lon="-0.17463">
        <ele>161.6</ele>
        <time>2020-05-30T19:00:03Z</time>
      </trkpt>
      <trkpt lat="46.44133" lon="-0.17469">
        <ele>161.5</ele>
        <time>2020-05-30T19:00:04Z</time>
      </trkpt>
      <trkpt lat="46.4413" lon="-0.17475">
        <ele>161.5</ele>
        <time>2020-05-30T19:00:05Z</time>
      </trkpt>
      <trkpt lat="46.44127" lon="-0.17482">
        <ele>161.4</ele>
        <time>2020-05-30T19:00:06Z</time>
      </trkpt>
      <trkpt lat="46.44125" lon="-0.17489">
        <ele>161.4</ele>
        <time>2020-05-30T19:00:07Z</time>
      </trkpt>
      <trkpt lat="46.44122" lon="-0.17495">
        <ele>161.4</ele>
        <time>2020-05-30T19:00:08Z</time>
      </trkpt>
      <trkpt lat="46.4412" lon="-0.175">
        <ele>161.4</ele>
        <time>2020-05-30T19:00:09Z</time>
      </trkpt>
      <trkpt lat="46.44117" lon="-0.17506">
        <ele>161.4</ele>
        <time>2020-05-30T19:00:10Z</time>
      </trkpt>
      <trkpt lat="46.44113" lon="-0.17511">
        <ele>161.4</ele>
        <time>2020-05-30T19:00:11Z</time>
      </trkpt>
      <trkpt lat="46.44108" lon="-0.17518">
        <ele>161.4</ele>
        <time>2020-05-30T19:00:12Z</time>
      </trkpt>
      <trkpt lat="46.44103" lon="-0.17524">
        <ele>161.4</ele>
        <time>2020-05-30T19:00:13Z</time>
      </trkpt>
      <trkpt lat="46.441" lon="-0.1753">
        <ele>161.3</ele>
        <time>2020-05-30T19:00:14Z</time>
      </trkpt>
      <trkpt lat="46.44096" lon="-0.17534">
        <ele>161.3</ele>
        <time>2020-05-30T19:00:15Z</time>
      </trkpt>
      <trkpt lat="46.44092" lon="-0.17539">
        <ele>161.3</ele>
        <time>2020-05-30T19:00:16Z</time>
      </trkpt>
      <trkpt lat="46.44088" lon="-0.17544">
        <ele>161.3</ele>
        <time>2020-05-30T19:00:17Z</time>
      </trkpt>
      <trkpt lat="46.44085" lon="-0.1755">
        <ele>161.3</ele>
        <time>2020-05-30T19:00:18Z</time>
      </trkpt>
      <trkpt lat="46.44082" lon="-0.17555">
        <ele>161.3</ele>
        <time>2020-05-30T19:00:19Z</time>
      </trkpt>
      <trkpt lat="46.44077" lon="-0.17561">
        <ele>161.3</ele>
        <time>2020-05-30T19:00:20Z</time>
      </trkpt>
      <trkpt lat="46.44073" lon="-0.17566">
        <ele>161.3</ele>
        <time>2020-05-30T19:00:21Z</time>
      </trkpt>
      <trkpt lat="46.44068" lon="-0.17571">
        <ele>161.3</ele>
        <time>2020-05-30T19:00:22Z</time>
      </trkpt>
      <trkpt lat="46.44064" lon="-0.17575">
        <ele>161.3</ele>
        <time>2020-05-30T19:00:23Z</time>
      </trkpt>
      <trkpt lat="46.44059" lon="-0.17578">
        <ele>161.3</ele>
        <time>2020-05-30T19:00:24Z</time>
      </trkpt>
      <trkpt lat="46.44052" lon="-0.17579">
        <ele>161.2</ele>
        <time>2020-05-30T19:00:25Z</time>
      </trkpt>
      <trkpt lat="46.44046" lon="-0.17581">
        <ele>161</ele>
        <time>2020-05-30T19:00:26Z</time>
      </trkpt>
      <trkpt lat="46.4404" lon="-0.17582">
        <ele>160.9</ele>
        <time>2020-05-30T19:00:27Z</time>
      </trkpt>
      <trkpt lat="46.44036" lon="-0.17584">
        <ele>160.8</ele>
        <time>2020-05-30T19:00:28Z</time>
      </trkpt>
      <trkpt lat="46.44029" lon="-0.17587">
        <ele>160.6</ele>
        <time>2020-05-30T19:00:29Z</time>
      </trkpt>
      <trkpt lat="46.44024" lon="-0.1759">
        <ele>160.5</ele>
        <time>2020-05-30T19:00:30Z</time>
      </trkpt>
      <trkpt lat="46.44019" lon="-0.17593">
        <ele>160.4</ele>
        <time>2020-05-30T19:00:31Z</time>
      </trkpt>
      <trkpt lat="46.44013" lon="-0.17597">
        <ele>160.2</ele>
        <time>2020-05-30T19:00:32Z</time>
      </trkpt>
      <trkpt lat="46.44008" lon="-0.17599">
        <ele>160.1</ele>
        <time>2020-05-30T19:00:33Z</time>
      </trkpt>
      <trkpt lat="46.44003" lon="-0.17603">
        <ele>160</ele>
        <time>2020-05-30T19:00:34Z</time>
      </trkpt>
      <trkpt lat="46.43997" lon="-0.17607">
        <ele>159.9</ele>
        <time>2020-05-30T19:00:35Z</time>
      </trkpt>
      <trkpt lat="46.43992" lon="-0.1761">
        <ele>159.8</ele>
        <time>2020-05-30T19:00:36Z</time>
      </trkpt>
      <trkpt lat="46.43986" lon="-0.17613">
        <ele>159.7</ele>
        <time>2020-05-30T19:00:37Z</time>
      </trkpt>
      <trkpt lat="46.4398" lon="-0.17615">
        <ele>159.6</ele>
        <time>2020-05-30T19:00:38Z</time>
      </trkpt>
      <trkpt lat="46.43974" lon="-0.17618">
        <ele>159.4</ele>
        <time>2020-05-30T19:00:39Z</time>
      </trkpt>
      <trkpt lat="46.43969" lon="-0.17618">
        <ele>159.3</ele>
        <time>2020-05-30T19:00:40Z</time>
      </trkpt>
      <trkpt lat="46.43963" lon="-0.17619">
        <ele>159.2</ele>
        <time>2020-05-30T19:00:41Z</time>
      </trkpt>
      <trkpt lat="46.43956" lon="-0.1762">
        <ele>159.1</ele>
        <time>2020-05-30T19:00:42Z</time>
      </trkpt>
      <trkpt lat="46.4395" lon="-0.17618">
        <ele>158.9</ele>
        <time>2020-05-30T19:00:43Z</time>
      </trkpt>
      <trkpt lat="46.43945" lon="-0.17618">
        <ele>158.8</ele>
        <time>2020-05-30T19:00:44Z</time>
      </trkpt>
      <trkpt lat="46.43938" lon="-0.17617">
        <ele>158.6</ele>
        <time>2020-05-30T19:00:45Z</time>
      </trkpt>
      <trkpt lat="46.43931" lon="-0.17616">
        <ele>158.5</ele>
        <time>2020-05-30T19:00:46Z</time>
      </trkpt>
      <trkpt lat="46.43925" lon="-0.17615">
        <ele>158.3</ele>
        <time>2020-05-30T19:00:47Z</time>
      </trkpt>
      <trkpt lat="46.43918" lon="-0.17614">
        <ele>158.2</ele>
        <time>2020-05-30T19:00:48Z</time>
      </trkpt>
      <trkpt lat="46.4391" lon="-0.17614">
        <ele>158</ele>
        <time>2020-05-30T19:00:49Z</time>
      </trkpt>
      <trkpt lat="46.43904" lon="-0.17614">
        <ele>157.9</ele>
        <time>2020-05-30T19:00:50Z</time>
      </trkpt>
      <trkpt lat="46.43896" lon="-0.17612">
        <ele>157.7</ele>
        <time>2020-05-30T19:00:51Z</time>
      </trkpt>
      <trkpt lat="46.43889" lon="-0.17613">
        <ele>157.6</ele>
        <time>2020-05-30T19:00:52Z</time>
      </trkpt>
      <trkpt lat="46.43882" lon="-0.17613">
        <ele>157.5</ele>
        <time>2020-05-30T19:00:53Z</time>
      </trkpt>
      <trkpt lat="46.43876" lon="-0.17613">
        <ele>157.4</ele>
        <time>2020-05-30T19:00:54Z</time>
      </trkpt>
      <trkpt lat="46.4387" lon="-0.17613">
        <ele>157.3</ele>
        <time>2020-05-30T19:00:55Z</time>
      </trkpt>
      <trkpt lat="46.43864" lon="-0.17612">
        <ele>157.2</ele>
        <time>2020-05-30T19:00:56Z</time>
      </trkpt>
      <trkpt lat="46.43858" lon="-0.17612">
        <ele>157.2</ele>
        <time>2020-05-30T19:00:57Z</time>
      </trkpt>
      <trkpt lat="46.43852" lon="-0.17611">
        <ele>157.1</ele>
        <time>2020-05-30T19:00:58Z</time>
      </trkpt>
      <trkpt lat="46.43846" lon="-0.17609">
        <ele>157</ele>
        <time>2020-05-30T19:00:59Z</time>
      </trkpt>
      <trkpt lat="46.43841" lon="-0.17607">
        <ele>157</ele>
        <time>2020-05-30T19:01:00Z</time>
      </trkpt>
      <trkpt lat="46.43836" lon="-0.17604">
        <ele>157</ele>
        <time>2020-05-30T19:01:01Z</time>
      </trkpt>
      <trkpt lat="46.43831" lon="-0.17599">
        <ele>156.9</ele>
        <time>2020-05-30T19:01:02Z</time>
      </trkpt>
      <trkpt lat="46.43828" lon="-0.17592">
        <ele>156.9</ele>
        <time>2020-05-30T19:01:03Z</time>
      </trkpt>
      <trkpt lat="46.43826" lon="-0.17586">
        <ele>156.9</ele>
        <time>2020-05-30T19:01:04Z</time>
      </trkpt>
      <trkpt lat="46.43822" lon="-0.1758">
        <ele>156.8</ele>
        <time>2020-05-30T19:01:05Z</time>
      </trkpt>
      <trkpt lat="46.43819" lon="-0.17574">
        <ele>156.8</ele>
        <time>2020-05-30T19:01:06Z</time>
      </trkpt>
      <trkpt lat="46.43814" lon="-0.17566">
        <ele>156.7</ele>
        <time>2020-05-30T19:01:07Z</time>
      </trkpt>
      <trkpt lat="46.43809" lon="-0.1756">
        <ele>156.6</ele>
        <time>2020-05-30T19:01:08Z</time>
      </trkpt>
      <trkpt lat="46.43804" lon="-0.17557">
        <ele>156.5</ele>
        <time>2020-05-30T19:01:09Z</time>
      </trkpt>
      <trkpt lat="46.43798" lon="-0.17555">
        <ele>156.4</ele>
        <time>2020-05-30T19:01:10Z</time>
      </trkpt>
      <trkpt lat="46.43792" lon="-0.17551">
        <ele>156.3</ele>
        <time>2020-05-30T19:01:11Z</time>
      </trkpt>
      <trkpt lat="46.43786" lon="-0.17547">
        <ele>156.1</ele>
        <time>2020-05-30T19:01:12Z</time>
      </trkpt>
      <trkpt lat="46.43781" lon="-0.17543">
        <ele>156</ele>
        <time>2020-05-30T19:01:13Z</time>
      </trkpt>
      <trkpt lat="46.43777" lon="-0.17541">
        <ele>155.9</ele>
        <time>2020-05-30T19:01:14Z</time>
      </trkpt>
      <trkpt lat="46.43771" lon="-0.17538">
        <ele>155.8</ele>
        <time>2020-05-30T19:01:15Z</time>
      </trkpt>
      <trkpt lat="46.43766" lon="-0.17537">
        <ele>155.7</ele>
        <time>2020-05-30T19:01:16Z</time>
      </trkpt>
      <trkpt lat="46.4376" lon="-0.17534">
        <ele>155.6</ele>
        <time>2020-05-30T19:01:17Z</time>
      </trkpt>
      <trkpt lat="46.43755" lon="-0.17532">
        <ele>155.6</ele>
        <time>2020-05-30T19:01:18Z</time>
      </trkpt>
      <trkpt lat="46.43749" lon="-0.1753">
        <ele>155.6</ele>
        <time>2020-05-30T19:01:19Z</time>
      </trkpt>
      <trkpt lat="46.43744" lon="-0.17528">
        <ele>155.6</ele>
        <time>2020-05-30T19:01:20Z</time>
      </trkpt>
      <trkpt lat="46.43738" lon="-0.17525">
        <ele>155.6</ele>
        <time>2020-05-30T19:01:21Z</time>
      </trkpt>
      <trkpt lat="46.43732" lon="-0.17523">
        <ele>155.6</ele>
        <time>2020-05-30T19:01:22Z</time>
      </trkpt>
      <trkpt lat="46.43724" lon="-0.17521">
        <ele>155.5</ele>
        <time>2020-05-30T19:01:23Z</time>
      </trkpt>
      <trkpt lat="46.43719" lon="-0.17519">
        <ele>155.5</ele>
        <time>2020-05-30T19:01:24Z</time>
      </trkpt>
      <trkpt lat="46.43714" lon="-0.17517">
        <ele>155.5</ele>
        <time>2020-05-30T19:01:25Z</time>
      </trkpt>
      <trkpt lat="46.43708" lon="-0.17517">
        <ele>155.5</ele>
        <time>2020-05-30T19:01:26Z</time>
      </trkpt>
      <trkpt lat="46.43703" lon="-0.17517">
        <ele>155.5</ele>
        <time>2020-05-30T19:01:27Z</time>
      </trkpt>
      <trkpt lat="46.43697" lon="-0.17517">
        <ele>155.5</ele>
        <time>2020-05-30T19:01:28Z</time>
      </trkpt>
      <trkpt lat="46.43691" lon="-0.17517">
        <ele>155.6</ele>
        <time>2020-05-30T19:01:29Z</time>
      </trkpt>
      <trkpt lat="46.43687" lon="-0.17516">
        <ele>155.7</ele>
        <time>2020-05-30T19:01:30Z</time>
      </trkpt>
      <trkpt lat="46.4368" lon="-0.17518">
        <ele>155.7</ele>
        <time>2020-05-30T19:01:31Z</time>
      </trkpt>
      <trkpt lat="46.43674" lon="-0.17521">
        <ele>155.8</ele>
        <time>2020-05-30T19:01:32Z</time>
      </trkpt>
      <trkpt lat="46.4367" lon="-0.17523">
        <ele>155.8</ele>
        <time>2020-05-30T19:01:33Z</time>
      </trkpt>
      <trkpt lat="46.43666" lon="-0.17526">
        <ele>155.8</ele>
        <time>2020-05-30T19:01:34Z</time>
      </trkpt>
      <trkpt lat="46.43662" lon="-0.17529">
        <ele>155.8</ele>
        <time>2020-05-30T19:01:35Z</time>
      </trkpt>
      <trkpt lat="46.43655" lon="-0.17533">
        <ele>155.8</ele>
        <time>2020-05-30T19:01:36Z</time>
      </trkpt>
      <trkpt lat="46.43651" lon="-0.17536">
        <ele>155.8</ele>
        <time>2020-05-30T19:01:37Z</time>
      </trkpt>
      <trkpt lat="46.43646" lon="-0.1754">
        <ele>155.8</ele>
        <time>2020-05-30T19:01:38Z</time>
      </trkpt>
      <trkpt lat="46.43642" lon="-0.17544">
        <ele>155.8</ele>
        <time>2020-05-30T19:01:39Z</time>
      </trkpt>
      <trkpt lat="46.43637" lon="-0.17547">
        <ele>155.9</ele>
        <time>2020-05-30T19:01:40Z</time>
      </trkpt>
      <trkpt lat="46.43633" lon="-0.17552">
        <ele>155.9</ele>
        <time>2020-05-30T19:01:41Z</time>
      </trkpt>
      <trkpt lat="46.43629" lon="-0.17555">
        <ele>155.9</ele>
        <time>2020-05-30T19:01:42Z</time>
      </trkpt>
      <trkpt lat="46.43625" lon="-0.17559">
        <ele>155.9</ele>
        <time>2020-05-30T19:01:43Z</time>
      </trkpt>
      <trkpt lat="46.43621" lon="-0.17562">
        <ele>155.9</ele>
        <time>2020-05-30T19:01:44Z</time>
      </trkpt>
      <trkpt lat="46.43617" lon="-0.17565">
        <ele>155.9</ele>
        <time>2020-05-30T19:01:45Z</time>
      </trkpt>
      <trkpt lat="46.43613" lon="-0.17569">
        <ele>155.9</ele>
        <time>2020-05-30T19:01:46Z</time>
      </trkpt>
      <trkpt lat="46.4361" lon="-0.17572">
        <ele>155.9</ele>
        <time>2020-05-30T19:01:47Z</time>
      </trkpt>
      <trkpt lat="46.43607" lon="-0.17576">
        <ele>155.9</ele>
        <time>2020-05-30T19:01:48Z</time>
      </trkpt>
      <trkpt lat="46.43603" lon="-0.1758">
        <ele>155.9</ele>
        <time>2020-05-30T19:01:49Z</time>
      </trkpt>
      <trkpt lat="46.43599" lon="-0.17582">
        <ele>155.9</ele>
        <time>2020-05-30T19:01:50Z</time>
      </trkpt>
      <trkpt lat="46.43594" lon="-0.17586">
        <ele>155.9</ele>
        <time>2020-05-30T19:01:51Z</time>
      </trkpt>
      <trkpt lat="46.4359" lon="-0.17589">
        <ele>155.8</ele>
        <time>2020-05-30T19:01:52Z</time>
      </trkpt>
      <trkpt lat="46.43585" lon="-0.17592">
        <ele>155.8</ele>
        <time>2020-05-30T19:01:53Z</time>
      </trkpt>
      <trkpt lat="46.43581" lon="-0.17596">
        <ele>155.8</ele>
        <time>2020-05-30T19:01:54Z</time>
      </trkpt>
      <trkpt lat="46.43576" lon="-0.17598">
        <ele>155.8</ele>
        <time>2020-05-30T19:01:55Z</time>
      </trkpt>
      <trkpt lat="46.43571" lon="-0.17602">
        <ele>155.7</ele>
        <time>2020-05-30T19:01:56Z</time>
      </trkpt>
      <trkpt lat="46.43568" lon="-0.17605">
        <ele>155.7</ele>
        <time>2020-05-30T19:01:57Z</time>
      </trkpt>
      <trkpt lat="46.43563" lon="-0.17609">
        <ele>155.7</ele>
        <time>2020-05-30T19:01:58Z</time>
      </trkpt>
      <trkpt lat="46.43558" lon="-0.17612">
        <ele>155.6</ele>
        <time>2020-05-30T19:01:59Z</time>
      </trkpt>
      <trkpt lat="46.43554" lon="-0.17616">
        <ele>155.6</ele>
        <time>2020-05-30T19:02:00Z</time>
      </trkpt>
      <trkpt lat="46.43549" lon="-0.17619">
        <ele>155.6</ele>
        <time>2020-05-30T19:02:01Z</time>
      </trkpt>
      <trkpt lat="46.43545" lon="-0.17623">
        <ele>155.5</ele>
        <time>2020-05-30T19:02:02Z</time>
      </trkpt>
      <trkpt lat="46.4354" lon="-0.17627">
        <ele>155.5</ele>
        <time>2020-05-30T19:02:03Z</time>
      </trkpt>
      <trkpt lat="46.43536" lon="-0.1763">
        <ele>155.5</ele>
        <time>2020-05-30T19:02:04Z</time>
      </trkpt>
      <trkpt lat="46.43531" lon="-0.17633">
        <ele>155.5</ele>
        <time>2020-05-30T19:02:05Z</time>
      </trkpt>
      <trkpt lat="46.43526" lon="-0.17635">
        <ele>155.5</ele>
        <time>2020-05-30T19:02:06Z</time>
      </trkpt>
      <trkpt lat="46.43522" lon="-0.17639">
        <ele>155.5</ele>
        <time>2020-05-30T19:02:07Z</time>
      </trkpt>
      <trkpt lat="46.43517" lon="-0.17642">
        <ele>155.5</ele>
        <time>2020-05-30T19:02:08Z</time>
      </trkpt>
      <trkpt lat="46.43513" lon="-0.17647">
        <ele>155.5</ele>
        <time>2020-05-30T19:02:09Z</time>
      </trkpt>
      <trkpt lat="46.43507" lon="-0.17651">
        <ele>155.5</ele>
        <time>2020-05-30T19:02:10Z</time>
      </trkpt>
      <trkpt lat="46.43502" lon="-0.17654">
        <ele>155.5</ele>
        <time>2020-05-30T19:02:11Z</time>
      </trkpt>
      <trkpt lat="46.43497" lon="-0.17657">
        <ele>155.6</ele>
        <time>2020-05-30T19:02:12Z</time>
      </trkpt>
      <trkpt lat="46.43494" lon="-0.1766">
        <ele>155.6</ele>
        <time>2020-05-30T19:02:13Z</time>
      </trkpt>
      <trkpt lat="46.43489" lon="-0.17664">
        <ele>155.6</ele>
        <time>2020-05-30T19:02:14Z</time>
      </trkpt>
      <trkpt lat="46.43484" lon="-0.17667">
        <ele>155.7</ele>
        <time>2020-05-30T19:02:15Z</time>
      </trkpt>
      <trkpt lat="46.43481" lon="-0.17671">
        <ele>155.7</ele>
        <time>2020-05-30T19:02:16Z</time>
      </trkpt>
      <trkpt lat="46.43477" lon="-0.17675">
        <ele>155.7</ele>
        <time>2020-05-30T19:02:17Z</time>
      </trkpt>
      <trkpt lat="46.43474" lon="-0.17678">
        <ele>155.8</ele>
        <time>2020-05-30T19:02:18Z</time>
      </trkpt>
      <trkpt lat="46.4347" lon="-0.17681">
        <ele>155.9</ele>
        <time>2020-05-30T19:02:19Z</time>
      </trkpt>
      <trkpt lat="46.43466" lon="-0.17684">
        <ele>155.9</ele>
        <time>2020-05-30T19:02:20Z</time>
      </trkpt>
      <trkpt lat="46.43461" lon="-0.17687">
        <ele>156</ele>
        <time>2020-05-30T19:02:21Z</time>
      </trkpt>
      <trkpt lat="46.43457" lon="-0.17689">
        <ele>156.1</ele>
        <time>2020-05-30T19:02:22Z</time>
      </trkpt>
      <trkpt lat="46.43453" lon="-0.17691">
        <ele>156.2</ele>
        <time>2020-05-30T19:02:23Z</time>
      </trkpt>
      <trkpt lat="46.43448" lon="-0.17692">
        <ele>156.2</ele>
        <time>2020-05-30T19:02:24Z</time>
      </trkpt>
      <trkpt lat="46.43444" lon="-0.17694">
        <ele>156.3</ele>
        <time>2020-05-30T19:02:25Z</time>
      </trkpt>
      <trkpt lat="46.43439" lon="-0.17697">
        <ele>156.4</ele>
        <time>2020-05-30T19:02:26Z</time>
      </trkpt>
      <trkpt lat="46.43435" lon="-0.17699">
        <ele>156.4</ele>
        <time>2020-05-30T19:02:27Z</time>
      </trkpt>
      <trkpt lat="46.43431" lon="-0.17702">
        <ele>156.5</ele>
        <time>2020-05-30T19:02:28Z</time>
      </trkpt>
      <trkpt lat="46.43426" lon="-0.17705">
        <ele>156.5</ele>
        <time>2020-05-30T19:02:29Z</time>
      </trkpt>
      <trkpt lat="46.43422" lon="-0.17707">
        <ele>156.6</ele>
        <time>2020-05-30T19:02:30Z</time>
      </trkpt>
      <trkpt lat="46.43418" lon="-0.17711">
        <ele>156.6</ele>
        <time>2020-05-30T19:02:31Z</time>
      </trkpt>
      <trkpt lat="46.43414" lon="-0.17714">
        <ele>156.7</ele>
        <time>2020-05-30T19:02:32Z</time>
      </trkpt>
      <trkpt lat="46.4341" lon="-0.17717">
        <ele>156.7</ele>
        <time>2020-05-30T19:02:33Z</time>
      </trkpt>
      <trkpt lat="46.43407" lon="-0.1772">
        <ele>156.7</ele>
        <time>2020-05-30T19:02:34Z</time>
      </trkpt>
      <trkpt lat="46.43403" lon="-0.17723">
        <ele>156.8</ele>
        <time>2020-05-30T19:02:35Z</time>
      </trkpt>
      <trkpt lat="46.43399" lon="-0.17726">
        <ele>156.8</ele>
        <time>2020-05-30T19:02:36Z</time>
      </trkpt>
      <trkpt lat="46.43395" lon="-0.1773">
        <ele>156.9</ele>
        <time>2020-05-30T19:02:37Z</time>
      </trkpt>
      <trkpt lat="46.43391" lon="-0.17733">
        <ele>156.9</ele>
        <time>2020-05-30T19:02:38Z</time>
      </trkpt>
      <trkpt lat="46.43388" lon="-0.17735">
        <ele>156.9</ele>
        <time>2020-05-30T19:02:39Z</time>
      </trkpt>
      <trkpt lat="46.43384" lon="-0.17738">
        <ele>157</ele>
        <time>2020-05-30T19:02:40Z</time>
      </trkpt>
      <trkpt lat="46.4338" lon="-0.17742">
        <ele>157</ele>
        <time>2020-05-30T19:02:41Z</time>
      </trkpt>
      <trkpt lat="46.43376" lon="-0.17745">
        <ele>157.1</ele>
        <time>2020-05-30T19:02:42Z</time>
      </trkpt>
      <trkpt lat="46.43372" lon="-0.17749">
        <ele>157.1</ele>
        <time>2020-05-30T19:02:43Z</time>
      </trkpt>
      <trkpt lat="46.43368" lon="-0.17753">
        <ele>157.1</ele>
        <time>2020-05-30T19:02:44Z</time>
      </trkpt>
      <trkpt lat="46.43364" lon="-0.17755">
        <ele>157.1</ele>
        <time>2020-05-30T19:02:45Z</time>
      </trkpt>
      <trkpt lat="46.4336" lon="-0.17759">
        <ele>157.2</ele>
        <time>2020-05-30T19:02:46Z</time>
      </trkpt>
      <trkpt lat="46.43356" lon="-0.17762">
        <ele>157.2</ele>
        <time>2020-05-30T19:02:47Z</time>
      </trkpt>
      <trkpt lat="46.43352" lon="-0.17766">
        <ele>157.2</ele>
        <time>2020-05-30T19:02:48Z</time>
      </trkpt>
      <trkpt lat="46.43348" lon="-0.17769">
        <ele>157.1</ele>
        <time>2020-05-30T19:02:49Z</time>
      </trkpt>
      <trkpt lat="46.43344" lon="-0.17771">
        <ele>157.1</ele>
        <time>2020-05-30T19:02:50Z</time>
      </trkpt>
      <trkpt lat="46.4334" lon="-0.17775">
        <ele>157.1</ele>
        <time>2020-05-30T19:02:51Z</time>
      </trkpt>
      <trkpt lat="46.43336" lon="-0.17778">
        <ele>157.1</ele>
        <time>2020-05-30T19:02:52Z</time>
      </trkpt>
      <trkpt lat="46.43332" lon="-0.17783">
        <ele>157.1</ele>
        <time>2020-05-30T19:02:53Z</time>
      </trkpt>
      <trkpt lat="46.43328" lon="-0.17787">
        <ele>157</ele>
        <time>2020-05-30T19:02:54Z</time>
      </trkpt>
      <trkpt lat="46.43324" lon="-0.1779">
        <ele>157</ele>
        <time>2020-05-30T19:02:55Z</time>
      </trkpt>
      <trkpt lat="46.43319" lon="-0.17794">
        <ele>156.9</ele>
        <time>2020-05-30T19:02:56Z</time>
      </trkpt>
      <trkpt lat="46.43315" lon="-0.17798">
        <ele>156.9</ele>
        <time>2020-05-30T19:02:57Z</time>
      </trkpt>
      <trkpt lat="46.43309" lon="-0.17802">
        <ele>156.8</ele>
        <time>2020-05-30T19:02:58Z</time>
      </trkpt>
      <trkpt lat="46.43304" lon="-0.17807">
        <ele>156.8</ele>
        <time>2020-05-30T19:02:59Z</time>
      </trkpt>
      <trkpt lat="46.433" lon="-0.17813">
        <ele>156.7</ele>
        <time>2020-05-30T19:03:00Z</time>
      </trkpt>
      <trkpt lat="46.43297" lon="-0.1782">
        <ele>156.7</ele>
        <time>2020-05-30T19:03:01Z</time>
      </trkpt>
      <trkpt lat="46.43293" lon="-0.17826">
        <ele>156.7</ele>
        <time>2020-05-30T19:03:02Z</time>
      </trkpt>
      <trkpt lat="46.4329" lon="-0.17833">
        <ele>156.6</ele>
        <time>2020-05-30T19:03:03Z</time>
      </trkpt>
      <trkpt lat="46.43286" lon="-0.1784">
        <ele>156.6</ele>
        <time>2020-05-30T19:03:04Z</time>
      </trkpt>
      <trkpt lat="46.43282" lon="-0.17847">
        <ele>156.5</ele>
        <time>2020-05-30T19:03:05Z</time>
      </trkpt>
      <trkpt lat="46.43279" lon="-0.17853">
        <ele>156.5</ele>
        <time>2020-05-30T19:03:06Z</time>
      </trkpt>
      <trkpt lat="46.43276" lon="-0.17858">
        <ele>156.4</ele>
        <time>2020-05-30T19:03:07Z</time>
      </trkpt>
      <trkpt lat="46.43273" lon="-0.17863">
        <ele>156.4</ele>
        <time>2020-05-30T19:03:08Z</time>
      </trkpt>
      <trkpt lat="46.4327" lon="-0.17868">
        <ele>156.3</ele>
        <time>2020-05-30T19:03:09Z</time>
      </trkpt>
      <trkpt lat="46.43266" lon="-0.17874">
        <ele>156.2</ele>
        <time>2020-05-30T19:03:10Z</time>
      </trkpt>
      <trkpt lat="46.43263" lon="-0.17879">
        <ele>156.2</ele>
        <time>2020-05-30T19:03:11Z</time>
      </trkpt>
      <trkpt lat="46.43261" lon="-0.17884">
        <ele>156.1</ele>
        <time>2020-05-30T19:03:12Z</time>
      </trkpt>
      <trkpt lat="46.43258" lon="-0.17888">
        <ele>156.1</ele>
        <time>2020-05-30T19:03:13Z</time>
      </trkpt>
      <trkpt lat="46.43254" lon="-0.17892">
        <ele>156</ele>
        <time>2020-05-30T19:03:14Z</time>
      </trkpt>
      <trkpt lat="46.43252" lon="-0.17897">
        <ele>155.9</ele>
        <time>2020-05-30T19:03:15Z</time>
      </trkpt>
      <trkpt lat="46.43248" lon="-0.17902">
        <ele>155.9</ele>
        <time>2020-05-30T19:03:16Z</time>
      </trkpt>
      <trkpt lat="46.43246" lon="-0.17907">
        <ele>155.8</ele>
        <time>2020-05-30T19:03:17Z</time>
      </trkpt>
      <trkpt lat="46.43243" lon="-0.1791">
        <ele>155.7</ele>
        <time>2020-05-30T19:03:18Z</time>
      </trkpt>
      <trkpt lat="46.43241" lon="-0.17914">
        <ele>155.6</ele>
        <time>2020-05-30T19:03:19Z</time>
      </trkpt>
      <trkpt lat="46.43239" lon="-0.17917">
        <ele>155.6</ele>
        <time>2020-05-30T19:03:20Z</time>
      </trkpt>
      <trkpt lat="46.43236" lon="-0.17921">
        <ele>155.5</ele>
        <time>2020-05-30T19:03:21Z</time>
      </trkpt>
      <trkpt lat="46.43234" lon="-0.17925">
        <ele>155.4</ele>
        <time>2020-05-30T19:03:22Z</time>
      </trkpt>
      <trkpt lat="46.43231" lon="-0.1793">
        <ele>155.3</ele>
        <time>2020-05-30T19:03:23Z</time>
      </trkpt>
      <trkpt lat="46.43229" lon="-0.17935">
        <ele>155.1</ele>
        <time>2020-05-30T19:03:24Z</time>
      </trkpt>
      <trkpt lat="46.43225" lon="-0.1794">
        <ele>155</ele>
        <time>2020-05-30T19:03:25Z</time>
      </trkpt>
      <trkpt lat="46.43221" lon="-0.17945">
        <ele>154.9</ele>
        <time>2020-05-30T19:03:26Z</time>
      </trkpt>
      <trkpt lat="46.43218" lon="-0.1795">
        <ele>154.8</ele>
        <time>2020-05-30T19:03:27Z</time>
      </trkpt>
      <trkpt lat="46.43215" lon="-0.17955">
        <ele>154.7</ele>
        <time>2020-05-30T19:03:28Z</time>
      </trkpt>
      <trkpt lat="46.43211" lon="-0.17961">
        <ele>154.5</ele>
        <time>2020-05-30T19:03:29Z</time>
      </trkpt>
      <trkpt lat="46.43209" lon="-0.17966">
        <ele>154.4</ele>
        <time>2020-05-30T19:03:30Z</time>
      </trkpt>
      <trkpt lat="46.43206" lon="-0.17972">
        <ele>154.3</ele>
        <time>2020-05-30T19:03:31Z</time>
      </trkpt>
      <trkpt lat="46.43204" lon="-0.17978">
        <ele>154.1</ele>
        <time>2020-05-30T19:03:32Z</time>
      </trkpt>
      <trkpt lat="46.43201" lon="-0.17983">
        <ele>154</ele>
        <time>2020-05-30T19:03:33Z</time>
      </trkpt>
      <trkpt lat="46.43199" lon="-0.17987">
        <ele>153.9</ele>
        <time>2020-05-30T19:03:34Z</time>
      </trkpt>
      <trkpt lat="46.43196" lon="-0.17993">
        <ele>153.7</ele>
        <time>2020-05-30T19:03:35Z</time>
      </trkpt>
      <trkpt lat="46.43193" lon="-0.17998">
        <ele>153.6</ele>
        <time>2020-05-30T19:03:36Z</time>
      </trkpt>
      <trkpt lat="46.4319" lon="-0.18003">
        <ele>153.4</ele>
        <time>2020-05-30T19:03:37Z</time>
      </trkpt>
      <trkpt lat="46.43186" lon="-0.18007">
        <ele>153.2</ele>
        <time>2020-05-30T19:03:38Z</time>
      </trkpt>
      <trkpt lat="46.43183" lon="-0.18013">
        <ele>153.1</ele>
        <time>2020-05-30T19:03:39Z</time>
      </trkpt>
      <trkpt lat="46.4318" lon="-0.18018">
        <ele>152.9</ele>
        <time>2020-05-30T19:03:40Z</time>
      </trkpt>
      <trkpt lat="46.43178" lon="-0.18023">
        <ele>152.8</ele>
        <time>2020-05-30T19:03:41Z</time>
      </trkpt>
      <trkpt lat="46.43175" lon="-0.18028">
        <ele>152.6</ele>
        <time>2020-05-30T19:03:42Z</time>
      </trkpt>
      <trkpt lat="46.43172" lon="-0.18032">
        <ele>152.5</ele>
        <time>2020-05-30T19:03:43Z</time>
      </trkpt>
      <trkpt lat="46.43168" lon="-0.18038">
        <ele>152.3</ele>
        <time>2020-05-30T19:03:44Z</time>
      </trkpt>
      <trkpt lat="46.43165" lon="-0.18043">
        <ele>152.2</ele>
        <time>2020-05-30T19:03:45Z</time>
      </trkpt>
      <trkpt lat="46.43163" lon="-0.18049">
        <ele>152</ele>
        <time>2020-05-30T19:03:46Z</time>
      </trkpt>
      <trkpt lat="46.43161" lon="-0.18053">
        <ele>151.9</ele>
        <time>2020-05-30T19:03:47Z</time>
      </trkpt>
      <trkpt lat="46.43158" lon="-0.18058">
        <ele>151.7</ele>
        <time>2020-05-30T19:03:48Z</time>
      </trkpt>
      <trkpt lat="46.43156" lon="-0.18063">
        <ele>151.6</ele>
        <time>2020-05-30T19:03:49Z</time>
      </trkpt>
      <trkpt lat="46.43152" lon="-0.18069">
        <ele>151.3</ele>
        <time>2020-05-30T19:03:50Z</time>
      </trkpt>
      <trkpt lat="46.43149" lon="-0.18075">
        <ele>151.1</ele>
        <time>2020-05-30T19:03:51Z</time>
      </trkpt>
      <trkpt lat="46.43146" lon="-0.1808">
        <ele>150.9</ele>
        <time>2020-05-30T19:03:52Z</time>
      </trkpt>
      <trkpt lat="46.43143" lon="-0.18084">
        <ele>150.7</ele>
        <time>2020-05-30T19:03:53Z</time>
      </trkpt>
      <trkpt lat="46.4314" lon="-0.18089">
        <ele>150.4</ele>
        <time>2020-05-30T19:03:54Z</time>
      </trkpt>
      <trkpt lat="46.43137" lon="-0.18094">
        <ele>150.1</ele>
        <time>2020-05-30T19:03:55Z</time>
      </trkpt>
      <trkpt lat="46.43134" lon="-0.18098">
        <ele>149.8</ele>
        <time>2020-05-30T19:03:56Z</time>
      </trkpt>
      <trkpt lat="46.4313" lon="-0.18103">
        <ele>149.5</ele>
        <time>2020-05-30T19:03:57Z</time>
      </trkpt>
      <trkpt lat="46.43126" lon="-0.18109">
        <ele>149</ele>
        <time>2020-05-30T19:03:58Z</time>
      </trkpt>
      <trkpt lat="46.43123" lon="-0.18115">
        <ele>148.7</ele>
        <time>2020-05-30T19:03:59Z</time>
      </trkpt>
      <trkpt lat="46.43122" lon="-0.18122">
        <ele>148.2</ele>
        <time>2020-05-30T19:04:00Z</time>
      </trkpt>
      <trkpt lat="46.4312" lon="-0.18126">
        <ele>148</ele>
        <time>2020-05-30T19:04:01Z</time>
      </trkpt>
      <trkpt lat="46.43118" lon="-0.1813">
        <ele>147.7</ele>
        <time>2020-05-30T19:04:02Z</time>
      </trkpt>
      <trkpt lat="46.43115" lon="-0.18134">
        <ele>147.3</ele>
        <time>2020-05-30T19:04:03Z</time>
      </trkpt>
      <trkpt lat="46.43112" lon="-0.18138">
        <ele>146.9</ele>
        <time>2020-05-30T19:04:04Z</time>
      </trkpt>
      <trkpt lat="46.4311" lon="-0.18141">
        <ele>146.6</ele>
        <time>2020-05-30T19:04:05Z</time>
      </trkpt>
      <trkpt lat="46.43108" lon="-0.18144">
        <ele>146.3</ele>
        <time>2020-05-30T19:04:06Z</time>
      </trkpt>
      <trkpt lat="46.43104" lon="-0.18148">
        <ele>145.9</ele>
        <time>2020-05-30T19:04:07Z</time>
      </trkpt>
      <trkpt lat="46.43102" lon="-0.18151">
        <ele>145.6</ele>
        <time>2020-05-30T19:04:08Z</time>
      </trkpt>
      <trkpt lat="46.43099" lon="-0.18155">
        <ele>145.2</ele>
        <time>2020-05-30T19:04:09Z</time>
      </trkpt>
      <trkpt lat="46.43096" lon="-0.18159">
        <ele>144.8</ele>
        <time>2020-05-30T19:04:10Z</time>
      </trkpt>
      <trkpt lat="46.43093" lon="-0.18163">
        <ele>144.3</ele>
        <time>2020-05-30T19:04:11Z</time>
      </trkpt>
      <trkpt lat="46.4309" lon="-0.18167">
        <ele>144</ele>
        <time>2020-05-30T19:04:12Z</time>
      </trkpt>
      <trkpt lat="46.43088" lon="-0.18171">
        <ele>143.6</ele>
        <time>2020-05-30T19:04:13Z</time>
      </trkpt>
      <trkpt lat="46.43086" lon="-0.18176">
        <ele>143.3</ele>
        <time>2020-05-30T19:04:14Z</time>
      </trkpt>
      <trkpt lat="46.43084" lon="-0.1818">
        <ele>142.9</ele>
        <time>2020-05-30T19:04:15Z</time>
      </trkpt>
      <trkpt lat="46.43082" lon="-0.18183">
        <ele>142.7</ele>
        <time>2020-05-30T19:04:16Z</time>
      </trkpt>
      <trkpt lat="46.43079" lon="-0.18186">
        <ele>142.4</ele>
        <time>2020-05-30T19:04:17Z</time>
      </trkpt>
      <trkpt lat="46.43078" lon="-0.18187">
        <ele>142.3</ele>
        <time>2020-05-30T19:04:18Z</time>
      </trkpt>
      <trkpt lat="46.43076" lon="-0.18191">
        <ele>141.9</ele>
        <time>2020-05-30T19:04:19Z</time>
      </trkpt>
      <trkpt lat="46.43075" lon="-0.18193">
        <ele>141.8</ele>
        <time>2020-05-30T19:04:20Z</time>
      </trkpt>
      <trkpt lat="46.43073" lon="-0.18197">
        <ele>141.5</ele>
        <time>2020-05-30T19:04:21Z</time>
      </trkpt>
      <trkpt lat="46.43072" lon="-0.18198">
        <ele>141.3</ele>
        <time>2020-05-30T19:04:22Z</time>
      </trkpt>
      <trkpt lat="46.43071" lon="-0.18202">
        <ele>141.1</ele>
        <time>2020-05-30T19:04:23Z</time>
      </trkpt>
      <trkpt lat="46.43069" lon="-0.18205">
        <ele>140.8</ele>
        <time>2020-05-30T19:04:24Z</time>
      </trkpt>
      <trkpt lat="46.43067" lon="-0.18208">
        <ele>140.5</ele>
        <time>2020-05-30T19:04:25Z</time>
      </trkpt>
      <trkpt lat="46.43065" lon="-0.18211">
        <ele>140.2</ele>
        <time>2020-05-30T19:04:26Z</time>
      </trkpt>
      <trkpt lat="46.43062" lon="-0.18216">
        <ele>139.7</ele>
        <time>2020-05-30T19:04:27Z</time>
      </trkpt>
      <trkpt lat="46.43061" lon="-0.18218">
        <ele>139.5</ele>
        <time>2020-05-30T19:04:28Z</time>
      </trkpt>
      <trkpt lat="46.43059" lon="-0.18222">
        <ele>139.2</ele>
        <time>2020-05-30T19:04:29Z</time>
      </trkpt>
      <trkpt lat="46.43057" lon="-0.18225">
        <ele>138.8</ele>
        <time>2020-05-30T19:04:30Z</time>
      </trkpt>
      <trkpt lat="46.43055" lon="-0.18229">
        <ele>138.4</ele>
        <time>2020-05-30T19:04:31Z</time>
      </trkpt>
      <trkpt lat="46.43053" lon="-0.18233">
        <ele>138</ele>
        <time>2020-05-30T19:04:32Z</time>
      </trkpt>
      <trkpt lat="46.43052" lon="-0.18238">
        <ele>137.6</ele>
        <time>2020-05-30T19:04:33Z</time>
      </trkpt>
      <trkpt lat="46.43051" lon="-0.18239">
        <ele>137.5</ele>
        <time>2020-05-30T19:04:34Z</time>
      </trkpt>
      <trkpt lat="46.43048" lon="-0.18242">
        <ele>137.1</ele>
        <time>2020-05-30T19:04:35Z</time>
      </trkpt>
      <trkpt lat="46.43045" lon="-0.18246">
        <ele>136.6</ele>
        <time>2020-05-30T19:04:36Z</time>
      </trkpt>
      <trkpt lat="46.43044" lon="-0.18248">
        <ele>136.5</ele>
        <time>2020-05-30T19:04:37Z</time>
      </trkpt>
      <trkpt lat="46.43042" lon="-0.18251">
        <ele>136</ele>
        <time>2020-05-30T19:04:38Z</time>
      </trkpt>
      <trkpt lat="46.4304" lon="-0.18255">
        <ele>135.7</ele>
        <time>2020-05-30T19:04:39Z</time>
      </trkpt>
      <trkpt lat="46.43038" lon="-0.18259">
        <ele>135.4</ele>
        <time>2020-05-30T19:04:40Z</time>
      </trkpt>
      <trkpt lat="46.43036" lon="-0.18263">
        <ele>135.1</ele>
        <time>2020-05-30T19:04:41Z</time>
      </trkpt>
      <trkpt lat="46.43035" lon="-0.18263">
        <ele>135</ele>
        <time>2020-05-30T19:04:42Z</time>
      </trkpt>
      <trkpt lat="46.43033" lon="-0.18267">
        <ele>134.8</ele>
        <time>2020-05-30T19:04:43Z</time>
      </trkpt>
      <trkpt lat="46.43033" lon="-0.18268">
        <ele>134.7</ele>
        <time>2020-05-30T19:04:44Z</time>
      </trkpt>
      <trkpt lat="46.43032" lon="-0.18269">
        <ele>134.6</ele>
        <time>2020-05-30T19:04:45Z</time>
      </trkpt>
      <trkpt lat="46.43031" lon="-0.1827">
        <ele>134.5</ele>
        <time>2020-05-30T19:04:46Z</time>
      </trkpt>
      <trkpt lat="46.4303" lon="-0.18272">
        <ele>134.4</ele>
        <time>2020-05-30T19:04:47Z</time>
      </trkpt>
      <trkpt lat="46.43029" lon="-0.18274">
        <ele>134.3</ele>
        <time>2020-05-30T19:04:48Z</time>
      </trkpt>
      <trkpt lat="46.43029" lon="-0.18277">
        <ele>134.1</ele>
        <time>2020-05-30T19:04:49Z</time>
      </trkpt>
      <trkpt lat="46.43029" lon="-0.18278">
        <ele>134.1</ele>
        <time>2020-05-30T19:04:50Z</time>
      </trkpt>
      <trkpt lat="46.43029" lon="-0.18279">
        <ele>133.9</ele>
        <time>2020-05-30T19:04:51Z</time>
      </trkpt>
      <trkpt lat="46.43028" lon="-0.1828">
        <ele>133.8</ele>
        <time>2020-05-30T19:04:52Z</time>
      </trkpt>
      <trkpt lat="46.43027" lon="-0.1828">
        <ele>133.8</ele>
        <time>2020-05-30T19:04:53Z</time>
      </trkpt>
      <trkpt lat="46.43027" lon="-0.18281">
        <ele>133.8</ele>
        <time>2020-05-30T19:04:54Z</time>
      </trkpt>
      <trkpt lat="46.43027" lon="-0.18282">
        <ele>133.8</ele>
        <time>2020-05-30T19:04:55Z</time>
      </trkpt>
      <trkpt lat="46.43027" lon="-0.18283">
        <ele>133.8</ele>
        <time>2020-05-30T19:04:56Z</time>
      </trkpt>
      <trkpt lat="46.43027" lon="-0.18283">
        <ele>133.8</ele>
        <time>2020-05-30T19:04:57Z</time>
      </trkpt>
      <trkpt lat="46.43027" lon="-0.18283">
        <ele>133.8</ele>
        <time>2020-05-30T19:04:58Z</time>
      </trkpt>
      <trkpt lat="46.43026" lon="-0.18283">
        <ele>133.8</ele>
        <time>2020-05-30T19:04:59Z</time>
      </trkpt>
      <trkpt lat="46.43026" lon="-0.18283">
        <ele>133.8</ele>
        <time>2020-05-30T19:05:00Z</time>
      </trkpt>
      <trkpt lat="46.43026" lon="-0.18283">
        <ele>133.8</ele>
        <time>2020-05-30T19:05:01Z</time>
      </trkpt>
      <trkpt lat="46.43027" lon="-0.18283">
        <ele>133.8</ele>
        <time>2020-05-30T19:05:02Z</time>
      </trkpt>
      <trkpt lat="46.43027" lon="-0.18283">
        <ele>133.7</ele>
        <time>2020-05-30T19:05:03Z</time>
      </trkpt>
      <trkpt lat="46.43027" lon="-0.18283">
        <ele>133.7</ele>
        <time>2020-05-30T19:05:04Z</time>
      </trkpt>
      <trkpt lat="46.43027" lon="-0.18283">
        <ele>133.7</ele>
        <time>2020-05-30T19:05:05Z</time>
      </trkpt>
      <trkpt lat="46.43027" lon="-0.18283">
        <ele>133.7</ele>
        <time>2020-05-30T19:05:06Z</time>
      </trkpt>
      <trkpt lat="46.43027" lon="-0.18283">
        <ele>133.7</ele>
        <time>2020-05-30T19:05:07Z</time>
      </trkpt>
      <trkpt lat="46.43027" lon="-0.18283">
        <ele>133.7</ele>
        <time>2020-05-30T19:05:08Z</time>
      </trkpt>
      <trkpt lat="46.43026" lon="-0.18283">
        <ele>133.7</ele>
        <time>2020-05-30T19:05:09Z</time>
      </trkpt>
      <trkpt lat="46.43026" lon="-0.18283">
        <ele>133.7</ele>
        <time>2020-05-30T19:05:10Z</time>
      </trkpt>
      <trkpt lat="46.43026" lon="-0.18283">
        <ele>133.7</ele>
        <time>2020-05-30T19:05:11Z</time>
      </trkpt>
      <trkpt lat="46.43026" lon="-0.18283">
        <ele>133.7</ele>
        <time>2020-05-30T19:05:12Z</time>
      </trkpt>
      <trkpt lat="46.43026" lon="-0.18283">
        <ele>133.7</ele>
        <time>2020-05-30T19:05:13Z</time>
      </trkpt>
      <trkpt lat="46.43026" lon="-0.18283">
        <ele>133.7</ele>
        <time>2020-05-30T19:05:14Z</time>
      </trkpt>
      <trkpt lat="46.43027" lon="-0.18282">
        <ele>133.7</ele>
        <time>2020-05-30T19:05:15Z</time>
      </trkpt>
      <trkpt lat="46.43026" lon="-0.18282">
        <ele>133.7</ele>
        <time>2020-05-30T19:05:16Z</time>
      </trkpt>
      <trkpt lat="46.43027" lon="-0.18282">
        <ele>133.7</ele>
        <time>2020-05-30T19:05:17Z</time>
      </trkpt>
      <trkpt lat="46.43027" lon="-0.18283">
        <ele>133.7</ele>
        <time>2020-05-30T19:05:18Z</time>
      </trkpt>
      <trkpt lat="46.43027" lon="-0.18283">
        <ele>133.7</ele>
        <time>2020-05-30T19:05:19Z</time>
      </trkpt>
      <trkpt lat="46.43026" lon="-0.18283">
        <ele>133.7</ele>
        <time>2020-05-30T19:05:20Z</time>
      </trkpt>
      <trkpt lat="46.43026" lon="-0.18283">
        <ele>133.7</ele>
        <time>2020-05-30T19:05:21Z</time>
      </trkpt>
      <trkpt lat="46.43026" lon="-0.18283">
        <ele>133.7</ele>
        <time>2020-05-30T19:05:22Z</time>
      </trkpt>
      <trkpt lat="46.43026" lon="-0.18283">
        <ele>133.7</ele>
        <time>2020-05-30T19:05:23Z</time>
      </trkpt>
      <trkpt lat="46.43026" lon="-0.18283">
        <ele>133.7</ele>
        <time>2020-05-30T19:05:24Z</time>
      </trkpt>
      <trkpt lat="46.43026" lon="-0.18283">
        <ele>133.7</ele>
        <time>2020-05-30T19:05:25Z</time>
      </trkpt>
      <trkpt lat="46.43027" lon="-0.18283">
        <ele>133.7</ele>
        <time>2020-05-30T19:05:26Z</time>
      </trkpt>
      <trkpt lat="46.43027" lon="-0.18283">
        <ele>133.7</ele>
        <time>2020-05-30T19:05:27Z</time>
      </trkpt>
      <trkpt lat="46.43027" lon="-0.18283">
        <ele>133.7</ele>
        <time>2020-05-30T19:05:28Z</time>
      </trkpt>
      <trkpt lat="46.43027" lon="-0.18283">
        <ele>133.7</ele>
        <time>2020-05-30T19:05:29Z</time>
      </trkpt>
      <trkpt lat="46.43027" lon="-0.18283">
        <ele>133.7</ele>
        <time>2020-05-30T19:05:30Z</time>
      </trkpt>
      <trkpt lat="46.43027" lon="-0.18283">
        <ele>133.7</ele>
        <time>2020-05-30T19:05:31Z</time>
      </trkpt>
      <trkpt lat="46.43027" lon="-0.18283">
        <ele>133.7</ele>
        <time>2020-05-30T19:05:32Z</time>
      </trkpt>
      <trkpt lat="46.43027" lon="-0.18283">
        <ele>133.7</ele>
        <time>2020-05-30T19:05:33Z</time>
      </trkpt>
      <trkpt lat="46.43027" lon="-0.18283">
        <ele>133.7</ele>
        <time>2020-05-30T19:05:34Z</time>
      </trkpt>
      <trkpt lat="46.43027" lon="-0.18283">
        <ele>133.7</ele>
        <time>2020-05-30T19:05:35Z</time>
      </trkpt>
      <trkpt lat="46.43027" lon="-0.18283">
        <ele>133.7</ele>
        <time>2020-05-30T19:05:36Z</time>
      </trkpt>
      <trkpt lat="46.43027" lon="-0.18283">
        <ele>133.7</ele>
        <time>2020-05-30T19:05:37Z</time>
      </trkpt>
      <trkpt lat="46.43027" lon="-0.18283">
        <ele>133.7</ele>
        <time>2020-05-30T19:05:38Z</time>
      </trkpt>
      <trkpt lat="46.43027" lon="-0.18283">
        <ele>133.7</ele>
        <time>2020-05-30T19:05:39Z</time>
      </trkpt>
      <trkpt lat="46.43027" lon="-0.18283">
        <ele>133.7</ele>
        <time>2020-05-30T19:05:40Z</time>
      </trkpt>
      <trkpt lat="46.43027" lon="-0.18283">
        <ele>133.7</ele>
        <time>2020-05-30T19:05:41Z</time>
      </trkpt>
      <trkpt lat="46.43027" lon="-0.18283">
        <ele>133.7</ele>
        <time>2020-05-30T19:05:42Z</time>
      </trkpt>
      <trkpt lat="46.43027" lon="-0.18283">
        <ele>133.6</ele>
        <time>2020-05-30T19:05:43Z</time>
      </trkpt>
      <trkpt lat="46.43027" lon="-0.18283">
        <ele>133.6</ele>
        <time>2020-05-30T19:05:44Z</time>
      </trkpt>
      <trkpt lat="46.43027" lon="-0.18283">
        <ele>133.6</ele>
        <time>2020-05-30T19:05:45Z</time>
      </trkpt>
      <trkpt lat="46.43027" lon="-0.18283">
        <ele>133.6</ele>
        <time>2020-05-30T19:05:46Z</time>
      </trkpt>
      <trkpt lat="46.43027" lon="-0.18283">
        <ele>133.6</ele>
        <time>2020-05-30T19:05:47Z</time>
      </trkpt>
      <trkpt lat="46.43026" lon="-0.18283">
        <ele>133.6</ele>
        <time>2020-05-30T19:05:48Z</time>
      </trkpt>
      <trkpt lat="46.43026" lon="-0.18283">
        <ele>133.6</ele>
        <time>2020-05-30T19:05:49Z</time>
      </trkpt>
      <trkpt lat="46.43026" lon="-0.18283">
        <ele>133.6</ele>
        <time>2020-05-30T19:05:50Z</time>
      </trkpt>
      <trkpt lat="46.43026" lon="-0.18284">
        <ele>133.6</ele>
        <time>2020-05-30T19:05:51Z</time>
      </trkpt>
      <trkpt lat="46.43026" lon="-0.18284">
        <ele>133.6</ele>
        <time>2020-05-30T19:05:52Z</time>
      </trkpt>
      <trkpt lat="46.43026" lon="-0.18284">
        <ele>133.6</ele>
        <time>2020-05-30T19:05:53Z</time>
      </trkpt>
      <trkpt lat="46.43026" lon="-0.18284">
        <ele>133.6</ele>
        <time>2020-05-30T19:05:54Z</time>
      </trkpt>
      <trkpt lat="46.43026" lon="-0.18284">
        <ele>133.6</ele>
        <time>2020-05-30T19:05:55Z</time>
      </trkpt>
      <trkpt lat="46.43026" lon="-0.18284">
        <ele>133.6</ele>
        <time>2020-05-30T19:05:56Z</time>
      </trkpt>
      <trkpt lat="46.43026" lon="-0.18284">
        <ele>133.6</ele>
        <time>2020-05-30T19:05:57Z</time>
      </trkpt>
      <trkpt lat="46.43026" lon="-0.18284">
        <ele>133.6</ele>
        <time>2020-05-30T19:05:58Z</time>
      </trkpt>
      <trkpt lat="46.43026" lon="-0.18285">
        <ele>133.6</ele>
        <time>2020-05-30T19:05:59Z</time>
      </trkpt>
      <trkpt lat="46.43025" lon="-0.18285">
        <ele>133.6</ele>
        <time>2020-05-30T19:06:00Z</time>
      </trkpt>
      <trkpt lat="46.43025" lon="-0.18285">
        <ele>133.5</ele>
        <time>2020-05-30T19:06:01Z</time>
      </trkpt>
      <trkpt lat="46.43024" lon="-0.18285">
        <ele>133.5</ele>
        <time>2020-05-30T19:06:02Z</time>
      </trkpt>
      <trkpt lat="46.43025" lon="-0.18284">
        <ele>133.5</ele>
        <time>2020-05-30T19:06:03Z</time>
      </trkpt>
      <trkpt lat="46.43026" lon="-0.18285">
        <ele>133.5</ele>
        <time>2020-05-30T19:06:04Z</time>
      </trkpt>
      <trkpt lat="46.43025" lon="-0.18286">
        <ele>133.4</ele>
        <time>2020-05-30T19:06:05Z</time>
      </trkpt>
      <trkpt lat="46.43025" lon="-0.18286">
        <ele>133.4</ele>
        <time>2020-05-30T19:06:06Z</time>
      </trkpt>
      <trkpt lat="46.43025" lon="-0.18285">
        <ele>133.4</ele>
        <time>2020-05-30T19:06:07Z</time>
      </trkpt>
      <trkpt lat="46.43026" lon="-0.18288">
        <ele>133.3</ele>
        <time>2020-05-30T19:06:08Z</time>
      </trkpt>
      <trkpt lat="46.43025" lon="-0.18288">
        <ele>133.3</ele>
        <time>2020-05-30T19:06:09Z</time>
      </trkpt>
      <trkpt lat="46.43025" lon="-0.18289">
        <ele>133.3</ele>
        <time>2020-05-30T19:06:10Z</time>
      </trkpt>
      <trkpt lat="46.43025" lon="-0.18291">
        <ele>133.2</ele>
        <time>2020-05-30T19:06:11Z</time>
      </trkpt>
      <trkpt lat="46.43024" lon="-0.18292">
        <ele>133.2</ele>
        <time>2020-05-30T19:06:12Z</time>
      </trkpt>
      <trkpt lat="46.43024" lon="-0.18293">
        <ele>133.2</ele>
        <time>2020-05-30T19:06:13Z</time>
      </trkpt>
      <trkpt lat="46.43024" lon="-0.18294">
        <ele>133.1</ele>
        <time>2020-05-30T19:06:14Z</time>
      </trkpt>
      <trkpt lat="46.43024" lon="-0.18294">
        <ele>133.1</ele>
        <time>2020-05-30T19:06:15Z</time>
      </trkpt>
      <trkpt lat="46.43024" lon="-0.18296">
        <ele>133</ele>
        <time>2020-05-30T19:06:16Z</time>
      </trkpt>
      <trkpt lat="46.43023" lon="-0.18297">
        <ele>133</ele>
        <time>2020-05-30T19:06:17Z</time>
      </trkpt>
      <trkpt lat="46.43023" lon="-0.18299">
        <ele>132.9</ele>
        <time>2020-05-30T19:06:18Z</time>
      </trkpt>
      <trkpt lat="46.43022" lon="-0.18301">
        <ele>132.8</ele>
        <time>2020-05-30T19:06:19Z</time>
      </trkpt>
      <trkpt lat="46.43022" lon="-0.18302">
        <ele>132.8</ele>
        <time>2020-05-30T19:06:20Z</time>
      </trkpt>
      <trkpt lat="46.43021" lon="-0.18303">
        <ele>132.7</ele>
        <time>2020-05-30T19:06:21Z</time>
      </trkpt>
      <trkpt lat="46.4302" lon="-0.18304">
        <ele>132.7</ele>
        <time>2020-05-30T19:06:22Z</time>
      </trkpt>
      <trkpt lat="46.4302" lon="-0.18305">
        <ele>132.6</ele>
        <time>2020-05-30T19:06:23Z</time>
      </trkpt>
      <trkpt lat="46.4302" lon="-0.18306">
        <ele>132.6</ele>
        <time>2020-05-30T19:06:24Z</time>
      </trkpt>
      <trkpt lat="46.43019" lon="-0.18306">
        <ele>132.5</ele>
        <time>2020-05-30T19:06:25Z</time>
      </trkpt>
      <trkpt lat="46.43019" lon="-0.18307">
        <ele>132.4</ele>
        <time>2020-05-30T19:06:26Z</time>
      </trkpt>
      <trkpt lat="46.43018" lon="-0.18308">
        <ele>132.4</ele>
        <time>2020-05-30T19:06:27Z</time>
      </trkpt>
      <trkpt lat="46.43017" lon="-0.18308">
        <ele>132.3</ele>
        <time>2020-05-30T19:06:28Z</time>
      </trkpt>
      <trkpt lat="46.43017" lon="-0.18308">
        <ele>132.3</ele>
        <time>2020-05-30T19:06:29Z</time>
      </trkpt>
      <trkpt lat="46.43017" lon="-0.18308">
        <ele>132.3</ele>
        <time>2020-05-30T19:06:30Z</time>
      </trkpt>
      <trkpt lat="46.43017" lon="-0.18308">
        <ele>132.3</ele>
        <time>2020-05-30T19:06:31Z</time>
      </trkpt>
      <trkpt lat="46.43017" lon="-0.18309">
        <ele>132.3</ele>
        <time>2020-05-30T19:06:32Z</time>
      </trkpt>
      <trkpt lat="46.43017" lon="-0.18308">
        <ele>132.3</ele>
        <time>2020-05-30T19:06:33Z</time>
      </trkpt>
      <trkpt lat="46.43017" lon="-0.18309">
        <ele>132.3</ele>
        <time>2020-05-30T19:06:34Z</time>
      </trkpt>
      <trkpt lat="46.43017" lon="-0.1831">
        <ele>132.2</ele>
        <time>2020-05-30T19:06:35Z</time>
      </trkpt>
      <trkpt lat="46.43016" lon="-0.18311">
        <ele>132.2</ele>
        <time>2020-05-30T19:06:36Z</time>
      </trkpt>
      <trkpt lat="46.43016" lon="-0.18312">
        <ele>132.1</ele>
        <time>2020-05-30T19:06:37Z</time>
      </trkpt>
      <trkpt lat="46.43016" lon="-0.18315">
        <ele>132</ele>
        <time>2020-05-30T19:06:38Z</time>
      </trkpt>
      <trkpt lat="46.43016" lon="-0.18318">
        <ele>131.8</ele>
        <time>2020-05-30T19:06:39Z</time>
      </trkpt>
      <trkpt lat="46.43016" lon="-0.1832">
        <ele>131.8</ele>
        <time>2020-05-30T19:06:40Z</time>
      </trkpt>
      <trkpt lat="46.43015" lon="-0.18322">
        <ele>131.7</ele>
        <time>2020-05-30T19:06:41Z</time>
      </trkpt>
      <trkpt lat="46.43015" lon="-0.18323">
        <ele>131.6</ele>
        <time>2020-05-30T19:06:42Z</time>
      </trkpt>
      <trkpt lat="46.43015" lon="-0.18324">
        <ele>131.6</ele>
        <time>2020-05-30T19:06:43Z</time>
      </trkpt>
      <trkpt lat="46.43014" lon="-0.18325">
        <ele>131.5</ele>
        <time>2020-05-30T19:06:44Z</time>
      </trkpt>
      <trkpt lat="46.43013" lon="-0.18327">
        <ele>131.4</ele>
        <time>2020-05-30T19:06:45Z</time>
      </trkpt>
      <trkpt lat="46.43013" lon="-0.18329">
        <ele>131.3</ele>
        <time>2020-05-30T19:06:46Z</time>
      </trkpt>
      <trkpt lat="46.43013" lon="-0.1833">
        <ele>131.2</ele>
        <time>2020-05-30T19:06:47Z</time>
      </trkpt>
      <trkpt lat="46.43012" lon="-0.18331">
        <ele>131.2</ele>
        <time>2020-05-30T19:06:48Z</time>
      </trkpt>
      <trkpt lat="46.43012" lon="-0.18332">
        <ele>131.1</ele>
        <time>2020-05-30T19:06:49Z</time>
      </trkpt>
      <trkpt lat="46.43012" lon="-0.18332">
        <ele>131.1</ele>
        <time>2020-05-30T19:06:50Z</time>
      </trkpt>
      <trkpt lat="46.43012" lon="-0.18331">
        <ele>131.1</ele>
        <time>2020-05-30T19:06:51Z</time>
      </trkpt>
      <trkpt lat="46.43012" lon="-0.18331">
        <ele>131.1</ele>
        <time>2020-05-30T19:06:52Z</time>
      </trkpt>
      <trkpt lat="46.43012" lon="-0.18331">
        <ele>131.1</ele>
        <time>2020-05-30T19:06:53Z</time>
      </trkpt>
      <trkpt lat="46.43012" lon="-0.18331">
        <ele>131</ele>
        <time>2020-05-30T19:06:54Z</time>
      </trkpt>
      <trkpt lat="46.43012" lon="-0.18331">
        <ele>131</ele>
        <time>2020-05-30T19:06:55Z</time>
      </trkpt>
      <trkpt lat="46.43012" lon="-0.18331">
        <ele>131</ele>
        <time>2020-05-30T19:06:56Z</time>
      </trkpt>
      <trkpt lat="46.43012" lon="-0.18331">
        <ele>131</ele>
        <time>2020-05-30T19:06:57Z</time>
      </trkpt>
      <trkpt lat="46.43012" lon="-0.18331">
        <ele>131</ele>
        <time>2020-05-30T19:06:58Z</time>
      </trkpt>
      <trkpt lat="46.43011" lon="-0.18331">
        <ele>131</ele>
        <time>2020-05-30T19:06:59Z</time>
      </trkpt>
      <trkpt lat="46.43011" lon="-0.18331">
        <ele>131</ele>
        <time>2020-05-30T19:07:00Z</time>
      </trkpt>
      <trkpt lat="46.43012" lon="-0.18333">
        <ele>130.9</ele>
        <time>2020-05-30T19:07:01Z</time>
      </trkpt>
      <trkpt lat="46.43011" lon="-0.18332">
        <ele>130.9</ele>
        <time>2020-05-30T19:07:02Z</time>
      </trkpt>
      <trkpt lat="46.4301" lon="-0.18333">
        <ele>130.8</ele>
        <time>2020-05-30T19:07:03Z</time>
      </trkpt>
      <trkpt lat="46.4301" lon="-0.18333">
        <ele>130.8</ele>
        <time>2020-05-30T19:07:04Z</time>
      </trkpt>
      <trkpt lat="46.43009" lon="-0.18335">
        <ele>130.7</ele>
        <time>2020-05-30T19:07:05Z</time>
      </trkpt>
      <trkpt lat="46.43009" lon="-0.18336">
        <ele>130.6</ele>
        <time>2020-05-30T19:07:06Z</time>
      </trkpt>
      <trkpt lat="46.43008" lon="-0.18335">
        <ele>130.6</ele>
        <time>2020-05-30T19:07:07Z</time>
      </trkpt>
      <trkpt lat="46.43009" lon="-0.18336">
        <ele>130.6</ele>
        <time>2020-05-30T19:07:08Z</time>
      </trkpt>
      <trkpt lat="46.43007" lon="-0.18337">
        <ele>130.4</ele>
        <time>2020-05-30T19:07:09Z</time>
      </trkpt>
      <trkpt lat="46.43007" lon="-0.18337">
        <ele>130.4</ele>
        <time>2020-05-30T19:07:10Z</time>
      </trkpt>
      <trkpt lat="46.43007" lon="-0.18339">
        <ele>130.2</ele>
        <time>2020-05-30T19:07:11Z</time>
      </trkpt>
      <trkpt lat="46.43007" lon="-0.18341">
        <ele>130.3</ele>
        <time>2020-05-30T19:07:12Z</time>
      </trkpt>
      <trkpt lat="46.43006" lon="-0.18342">
        <ele>130.3</ele>
        <time>2020-05-30T19:07:13Z</time>
      </trkpt>
      <trkpt lat="46.43006" lon="-0.18343">
        <ele>130.4</ele>
        <time>2020-05-30T19:07:14Z</time>
      </trkpt>
      <trkpt lat="46.43006" lon="-0.18344">
        <ele>130.4</ele>
        <time>2020-05-30T19:07:15Z</time>
      </trkpt>
      <trkpt lat="46.43006" lon="-0.18346">
        <ele>130.5</ele>
        <time>2020-05-30T19:07:16Z</time>
      </trkpt>
      <trkpt lat="46.43005" lon="-0.18347">
        <ele>130.6</ele>
        <time>2020-05-30T19:07:17Z</time>
      </trkpt>
      <trkpt lat="46.43005" lon="-0.18348">
        <ele>130.6</ele>
        <time>2020-05-30T19:07:18Z</time>
      </trkpt>
      <trkpt lat="46.43004" lon="-0.18347">
        <ele>130.7</ele>
        <time>2020-05-30T19:07:19Z</time>
      </trkpt>
      <trkpt lat="46.43004" lon="-0.18346">
        <ele>130.7</ele>
        <time>2020-05-30T19:07:20Z</time>
      </trkpt>
      <trkpt lat="46.43003" lon="-0.18346">
        <ele>130.7</ele>
        <time>2020-05-30T19:07:21Z</time>
      </trkpt>
      <trkpt lat="46.43003" lon="-0.18346">
        <ele>130.8</ele>
        <time>2020-05-30T19:07:22Z</time>
      </trkpt>
      <trkpt lat="46.43003" lon="-0.18345">
        <ele>130.8</ele>
        <time>2020-05-30T19:07:23Z</time>
      </trkpt>
      <trkpt lat="46.43003" lon="-0.18345">
        <ele>130.8</ele>
        <time>2020-05-30T19:07:24Z</time>
      </trkpt>
      <trkpt lat="46.43003" lon="-0.18345">
        <ele>130.8</ele>
        <time>2020-05-30T19:07:25Z</time>
      </trkpt>
      <trkpt lat="46.43003" lon="-0.18344">
        <ele>130.8</ele>
        <time>2020-05-30T19:07:26Z</time>
      </trkpt>
      <trkpt lat="46.43002" lon="-0.18344">
        <ele>130.8</ele>
        <time>2020-05-30T19:07:27Z</time>
      </trkpt>
      <trkpt lat="46.43002" lon="-0.18344">
        <ele>130.9</ele>
        <time>2020-05-30T19:07:28Z</time>
      </trkpt>
      <trkpt lat="46.43002" lon="-0.18343">
        <ele>130.9</ele>
        <time>2020-05-30T19:07:29Z</time>
      </trkpt>
      <trkpt lat="46.43002" lon="-0.18343">
        <ele>130.9</ele>
        <time>2020-05-30T19:07:30Z</time>
      </trkpt>
      <trkpt lat="46.43002" lon="-0.18343">
        <ele>130.9</ele>
        <time>2020-05-30T19:07:31Z</time>
      </trkpt>
      <trkpt lat="46.43" lon="-0.18341">
        <ele>131</ele>
        <time>2020-05-30T19:07:32Z</time>
      </trkpt>
      <trkpt lat="46.42999" lon="-0.1834">
        <ele>131.1</ele>
        <time>2020-05-30T19:07:33Z</time>
      </trkpt>
      <trkpt lat="46.43" lon="-0.1834">
        <ele>131.1</ele>
        <time>2020-05-30T19:07:34Z</time>
      </trkpt>
      <trkpt lat="46.43001" lon="-0.1834">
        <ele>131.2</ele>
        <time>2020-05-30T19:07:35Z</time>
      </trkpt>
      <trkpt lat="46.43001" lon="-0.18338">
        <ele>131.3</ele>
        <time>2020-05-30T19:07:36Z</time>
      </trkpt>
      <trkpt lat="46.43002" lon="-0.18338">
        <ele>131.3</ele>
        <time>2020-05-30T19:07:37Z</time>
      </trkpt>
      <trkpt lat="46.43002" lon="-0.18337">
        <ele>131.4</ele>
        <time>2020-05-30T19:07:38Z</time>
      </trkpt>
      <trkpt lat="46.43003" lon="-0.18336">
        <ele>131.4</ele>
        <time>2020-05-30T19:07:39Z</time>
      </trkpt>
      <trkpt lat="46.43004" lon="-0.18335">
        <ele>131.5</ele>
        <time>2020-05-30T19:07:40Z</time>
      </trkpt>
      <trkpt lat="46.43005" lon="-0.18334">
        <ele>131.6</ele>
        <time>2020-05-30T19:07:41Z</time>
      </trkpt>
      <trkpt lat="46.43005" lon="-0.18334">
        <ele>131.6</ele>
        <time>2020-05-30T19:07:42Z</time>
      </trkpt>
      <trkpt lat="46.43004" lon="-0.18333">
        <ele>131.6</ele>
        <time>2020-05-30T19:07:43Z</time>
      </trkpt>
      <trkpt lat="46.43004" lon="-0.18333">
        <ele>131.6</ele>
        <time>2020-05-30T19:07:44Z</time>
      </trkpt>
      <trkpt lat="46.43005" lon="-0.18332">
        <ele>131.7</ele>
        <time>2020-05-30T19:07:45Z</time>
      </trkpt>
      <trkpt lat="46.43005" lon="-0.18332">
        <ele>131.7</ele>
        <time>2020-05-30T19:07:46Z</time>
      </trkpt>
      <trkpt lat="46.43005" lon="-0.18331">
        <ele>131.7</ele>
        <time>2020-05-30T19:07:47Z</time>
      </trkpt>
      <trkpt lat="46.43006" lon="-0.18331">
        <ele>131.7</ele>
        <time>2020-05-30T19:07:48Z</time>
      </trkpt>
      <trkpt lat="46.43007" lon="-0.18331">
        <ele>131.8</ele>
        <time>2020-05-30T19:07:49Z</time>
      </trkpt>
      <trkpt lat="46.43008" lon="-0.1833">
        <ele>131.9</ele>
        <time>2020-05-30T19:07:50Z</time>
      </trkpt>
      <trkpt lat="46.43009" lon="-0.1833">
        <ele>131.9</ele>
        <time>2020-05-30T19:07:51Z</time>
      </trkpt>
      <trkpt lat="46.4301" lon="-0.18328">
        <ele>132</ele>
        <time>2020-05-30T19:07:52Z</time>
      </trkpt>
      <trkpt lat="46.4301" lon="-0.18327">
        <ele>132.1</ele>
        <time>2020-05-30T19:07:53Z</time>
      </trkpt>
      <trkpt lat="46.43011" lon="-0.18326">
        <ele>132.1</ele>
        <time>2020-05-30T19:07:54Z</time>
      </trkpt>
      <trkpt lat="46.43012" lon="-0.18324">
        <ele>132.2</ele>
        <time>2020-05-30T19:07:55Z</time>
      </trkpt>
      <trkpt lat="46.43012" lon="-0.18322">
        <ele>132.3</ele>
        <time>2020-05-30T19:07:56Z</time>
      </trkpt>
      <trkpt lat="46.43013" lon="-0.18321">
        <ele>132.3</ele>
        <time>2020-05-30T19:07:57Z</time>
      </trkpt>
      <trkpt lat="46.43014" lon="-0.1832">
        <ele>132.4</ele>
        <time>2020-05-30T19:07:58Z</time>
      </trkpt>
      <trkpt lat="46.43015" lon="-0.1832">
        <ele>132.4</ele>
        <time>2020-05-30T19:07:59Z</time>
      </trkpt>
      <trkpt lat="46.43015" lon="-0.18319">
        <ele>132.4</ele>
        <time>2020-05-30T19:08:00Z</time>
      </trkpt>
      <trkpt lat="46.43015" lon="-0.18317">
        <ele>132.5</ele>
        <time>2020-05-30T19:08:01Z</time>
      </trkpt>
      <trkpt lat="46.43016" lon="-0.18316">
        <ele>132.6</ele>
        <time>2020-05-30T19:08:02Z</time>
      </trkpt>
      <trkpt lat="46.43017" lon="-0.18314">
        <ele>132.7</ele>
        <time>2020-05-30T19:08:03Z</time>
      </trkpt>
      <trkpt lat="46.43018" lon="-0.18312">
        <ele>132.7</ele>
        <time>2020-05-30T19:08:04Z</time>
      </trkpt>
      <trkpt lat="46.43017" lon="-0.18311">
        <ele>132.8</ele>
        <time>2020-05-30T19:08:05Z</time>
      </trkpt>
      <trkpt lat="46.43017" lon="-0.1831">
        <ele>132.8</ele>
        <time>2020-05-30T19:08:06Z</time>
      </trkpt>
      <trkpt lat="46.43017" lon="-0.1831">
        <ele>132.9</ele>
        <time>2020-05-30T19:08:07Z</time>
      </trkpt>
      <trkpt lat="46.43017" lon="-0.18308">
        <ele>132.9</ele>
        <time>2020-05-30T19:08:08Z</time>
      </trkpt>
      <trkpt lat="46.43017" lon="-0.18307">
        <ele>132.9</ele>
        <time>2020-05-30T19:08:09Z</time>
      </trkpt>
      <trkpt lat="46.43018" lon="-0.18306">
        <ele>133</ele>
        <time>2020-05-30T19:08:10Z</time>
      </trkpt>
      <trkpt lat="46.43018" lon="-0.18306">
        <ele>133</ele>
        <time>2020-05-30T19:08:11Z</time>
      </trkpt>
      <trkpt lat="46.43018" lon="-0.18305">
        <ele>133</ele>
        <time>2020-05-30T19:08:12Z</time>
      </trkpt>
      <trkpt lat="46.43018" lon="-0.18305">
        <ele>133</ele>
        <time>2020-05-30T19:08:13Z</time>
      </trkpt>
      <trkpt lat="46.43019" lon="-0.18304">
        <ele>133</ele>
        <time>2020-05-30T19:08:14Z</time>
      </trkpt>
      <trkpt lat="46.43019" lon="-0.18304">
        <ele>133</ele>
        <time>2020-05-30T19:08:15Z</time>
      </trkpt>
      <trkpt lat="46.43019" lon="-0.18304">
        <ele>133.1</ele>
        <time>2020-05-30T19:08:16Z</time>
      </trkpt>
      <trkpt lat="46.43019" lon="-0.18303">
        <ele>133.1</ele>
        <time>2020-05-30T19:08:17Z</time>
      </trkpt>
      <trkpt lat="46.4302" lon="-0.18303">
        <ele>133.1</ele>
        <time>2020-05-30T19:08:18Z</time>
      </trkpt>
      <trkpt lat="46.4302" lon="-0.18302">
        <ele>133.1</ele>
        <time>2020-05-30T19:08:19Z</time>
      </trkpt>
      <trkpt lat="46.4302" lon="-0.18302">
        <ele>133.1</ele>
        <time>2020-05-30T19:08:20Z</time>
      </trkpt>
      <trkpt lat="46.4302" lon="-0.18302">
        <ele>133.1</ele>
        <time>2020-05-30T19:08:21Z</time>
      </trkpt>
      <trkpt lat="46.4302" lon="-0.18301">
        <ele>133.2</ele>
        <time>2020-05-30T19:08:22Z</time>
      </trkpt>
      <trkpt lat="46.43022" lon="-0.18297">
        <ele>133.3</ele>
        <time>2020-05-30T19:08:23Z</time>
      </trkpt>
      <trkpt lat="46.43022" lon="-0.18295">
        <ele>133.3</ele>
        <time>2020-05-30T19:08:24Z</time>
      </trkpt>
      <trkpt lat="46.43023" lon="-0.18292">
        <ele>133.4</ele>
        <time>2020-05-30T19:08:25Z</time>
      </trkpt>
      <trkpt lat="46.43023" lon="-0.18291">
        <ele>133.5</ele>
        <time>2020-05-30T19:08:26Z</time>
      </trkpt>
      <trkpt lat="46.43024" lon="-0.1829">
        <ele>133.5</ele>
        <time>2020-05-30T19:08:27Z</time>
      </trkpt>
      <trkpt lat="46.43025" lon="-0.18289">
        <ele>133.5</ele>
        <time>2020-05-30T19:08:28Z</time>
      </trkpt>
      <trkpt lat="46.43026" lon="-0.18288">
        <ele>133.6</ele>
        <time>2020-05-30T19:08:29Z</time>
      </trkpt>
      <trkpt lat="46.43026" lon="-0.18285">
        <ele>133.6</ele>
        <time>2020-05-30T19:08:30Z</time>
      </trkpt>
      <trkpt lat="46.43026" lon="-0.18283">
        <ele>133.7</ele>
        <time>2020-05-30T19:08:31Z</time>
      </trkpt>
      <trkpt lat="46.43027" lon="-0.18281">
        <ele>133.7</ele>
        <time>2020-05-30T19:08:32Z</time>
      </trkpt>
      <trkpt lat="46.43028" lon="-0.1828">
        <ele>133.8</ele>
        <time>2020-05-30T19:08:33Z</time>
      </trkpt>
      <trkpt lat="46.43028" lon="-0.18277">
        <ele>133.8</ele>
        <time>2020-05-30T19:08:34Z</time>
      </trkpt>
      <trkpt lat="46.43029" lon="-0.18276">
        <ele>133.9</ele>
        <time>2020-05-30T19:08:35Z</time>
      </trkpt>
      <trkpt lat="46.4303" lon="-0.18275">
        <ele>133.9</ele>
        <time>2020-05-30T19:08:36Z</time>
      </trkpt>
      <trkpt lat="46.4303" lon="-0.18274">
        <ele>133.9</ele>
        <time>2020-05-30T19:08:37Z</time>
      </trkpt>
      <trkpt lat="46.4303" lon="-0.18273">
        <ele>133.9</ele>
        <time>2020-05-30T19:08:38Z</time>
      </trkpt>
      <trkpt lat="46.43031" lon="-0.18273">
        <ele>133.9</ele>
        <time>2020-05-30T19:08:39Z</time>
      </trkpt>
      <trkpt lat="46.43031" lon="-0.18274">
        <ele>134</ele>
        <time>2020-05-30T19:08:40Z</time>
      </trkpt>
      <trkpt lat="46.43031" lon="-0.18274">
        <ele>134</ele>
        <time>2020-05-30T19:08:41Z</time>
      </trkpt>
      <trkpt lat="46.43031" lon="-0.18274">
        <ele>134</ele>
        <time>2020-05-30T19:08:42Z</time>
      </trkpt>
      <trkpt lat="46.43031" lon="-0.18274">
        <ele>134</ele>
        <time>2020-05-30T19:08:43Z</time>
      </trkpt>
      <trkpt lat="46.43031" lon="-0.18273">
        <ele>134</ele>
        <time>2020-05-30T19:08:44Z</time>
      </trkpt>
      <trkpt lat="46.43031" lon="-0.18273">
        <ele>134</ele>
        <time>2020-05-30T19:08:45Z</time>
      </trkpt>
      <trkpt lat="46.43031" lon="-0.18273">
        <ele>134</ele>
        <time>2020-05-30T19:08:46Z</time>
      </trkpt>
      <trkpt lat="46.43031" lon="-0.18273">
        <ele>134</ele>
        <time>2020-05-30T19:08:47Z</time>
      </trkpt>
      <trkpt lat="46.43031" lon="-0.18273">
        <ele>134</ele>
        <time>2020-05-30T19:08:48Z</time>
      </trkpt>
      <trkpt lat="46.43031" lon="-0.18273">
        <ele>134</ele>
        <time>2020-05-30T19:08:49Z</time>
      </trkpt>
      <trkpt lat="46.43031" lon="-0.18273">
        <ele>134</ele>
        <time>2020-05-30T19:08:50Z</time>
      </trkpt>
      <trkpt lat="46.43031" lon="-0.18273">
        <ele>134</ele>
        <time>2020-05-30T19:08:51Z</time>
      </trkpt>
      <trkpt lat="46.43032" lon="-0.18273">
        <ele>134</ele>
        <time>2020-05-30T19:08:52Z</time>
      </trkpt>
      <trkpt lat="46.43032" lon="-0.18271">
        <ele>134</ele>
        <time>2020-05-30T19:08:53Z</time>
      </trkpt>
      <trkpt lat="46.43033" lon="-0.18272">
        <ele>134</ele>
        <time>2020-05-30T19:08:54Z</time>
      </trkpt>
      <trkpt lat="46.43034" lon="-0.1827">
        <ele>134.3</ele>
        <time>2020-05-30T19:08:55Z</time>
      </trkpt>
      <trkpt lat="46.43034" lon="-0.18268">
        <ele>134.4</ele>
        <time>2020-05-30T19:08:56Z</time>
      </trkpt>
      <trkpt lat="46.43034" lon="-0.18266">
        <ele>134.5</ele>
        <time>2020-05-30T19:08:57Z</time>
      </trkpt>
      <trkpt lat="46.43035" lon="-0.18265">
        <ele>134.6</ele>
        <time>2020-05-30T19:08:58Z</time>
      </trkpt>
      <trkpt lat="46.43035" lon="-0.18263">
        <ele>134.7</ele>
        <time>2020-05-30T19:08:59Z</time>
      </trkpt>
      <trkpt lat="46.43035" lon="-0.18262">
        <ele>134.7</ele>
        <time>2020-05-30T19:09:00Z</time>
      </trkpt>
      <trkpt lat="46.43036" lon="-0.1826">
        <ele>134.8</ele>
        <time>2020-05-30T19:09:01Z</time>
      </trkpt>
      <trkpt lat="46.43036" lon="-0.1826">
        <ele>134.8</ele>
        <time>2020-05-30T19:09:02Z</time>
      </trkpt>
      <trkpt lat="46.43037" lon="-0.18259">
        <ele>134.9</ele>
        <time>2020-05-30T19:09:03Z</time>
      </trkpt>
      <trkpt lat="46.43037" lon="-0.18258">
        <ele>135</ele>
        <time>2020-05-30T19:09:04Z</time>
      </trkpt>
      <trkpt lat="46.43038" lon="-0.18258">
        <ele>135</ele>
        <time>2020-05-30T19:09:05Z</time>
      </trkpt>
      <trkpt lat="46.43037" lon="-0.18258">
        <ele>135</ele>
        <time>2020-05-30T19:09:06Z</time>
      </trkpt>
      <trkpt lat="46.43038" lon="-0.18257">
        <ele>135</ele>
        <time>2020-05-30T19:09:07Z</time>
      </trkpt>
      <trkpt lat="46.43039" lon="-0.18256">
        <ele>135.2</ele>
        <time>2020-05-30T19:09:08Z</time>
      </trkpt>
      <trkpt lat="46.4304" lon="-0.18255">
        <ele>135.3</ele>
        <time>2020-05-30T19:09:09Z</time>
      </trkpt>
      <trkpt lat="46.4304" lon="-0.18254">
        <ele>135.3</ele>
        <time>2020-05-30T19:09:10Z</time>
      </trkpt>
      <trkpt lat="46.43041" lon="-0.18253">
        <ele>135.4</ele>
        <time>2020-05-30T19:09:11Z</time>
      </trkpt>
      <trkpt lat="46.43042" lon="-0.18251">
        <ele>135.5</ele>
        <time>2020-05-30T19:09:12Z</time>
      </trkpt>
      <trkpt lat="46.43042" lon="-0.18249">
        <ele>135.6</ele>
        <time>2020-05-30T19:09:13Z</time>
      </trkpt>
      <trkpt lat="46.43044" lon="-0.18248">
        <ele>135.8</ele>
        <time>2020-05-30T19:09:14Z</time>
      </trkpt>
      <trkpt lat="46.43045" lon="-0.18247">
        <ele>135.9</ele>
        <time>2020-05-30T19:09:15Z</time>
      </trkpt>
      <trkpt lat="46.43046" lon="-0.18246">
        <ele>136</ele>
        <time>2020-05-30T19:09:16Z</time>
      </trkpt>
      <trkpt lat="46.43047" lon="-0.18245">
        <ele>136.2</ele>
        <time>2020-05-30T19:09:17Z</time>
      </trkpt>
      <trkpt lat="46.43047" lon="-0.18244">
        <ele>136.3</ele>
        <time>2020-05-30T19:09:18Z</time>
      </trkpt>
      <trkpt lat="46.43047" lon="-0.18242">
        <ele>136.3</ele>
        <time>2020-05-30T19:09:19Z</time>
      </trkpt>
      <trkpt lat="46.43048" lon="-0.18241">
        <ele>136.5</ele>
        <time>2020-05-30T19:09:20Z</time>
      </trkpt>
      <trkpt lat="46.43049" lon="-0.18239">
        <ele>136.6</ele>
        <time>2020-05-30T19:09:21Z</time>
      </trkpt>
      <trkpt lat="46.43049" lon="-0.18238">
        <ele>136.7</ele>
        <time>2020-05-30T19:09:22Z</time>
      </trkpt>
      <trkpt lat="46.43049" lon="-0.18236">
        <ele>136.8</ele>
        <time>2020-05-30T19:09:23Z</time>
      </trkpt>
      <trkpt lat="46.4305" lon="-0.18236">
        <ele>136.9</ele>
        <time>2020-05-30T19:09:24Z</time>
      </trkpt>
      <trkpt lat="46.4305" lon="-0.18235">
        <ele>137</ele>
        <time>2020-05-30T19:09:25Z</time>
      </trkpt>
      <trkpt lat="46.4305" lon="-0.18233">
        <ele>137.1</ele>
        <time>2020-05-30T19:09:26Z</time>
      </trkpt>
      <trkpt lat="46.43051" lon="-0.18231">
        <ele>137.3</ele>
        <time>2020-05-30T19:09:27Z</time>
      </trkpt>
      <trkpt lat="46.43051" lon="-0.1823">
        <ele>137.3</ele>
        <time>2020-05-30T19:09:28Z</time>
      </trkpt>
      <trkpt lat="46.43051" lon="-0.18229">
        <ele>137.4</ele>
        <time>2020-05-30T19:09:29Z</time>
      </trkpt>
      <trkpt lat="46.43052" lon="-0.18228">
        <ele>137.5</ele>
        <time>2020-05-30T19:09:30Z</time>
      </trkpt>
      <trkpt lat="46.43052" lon="-0.18228">
        <ele>137.5</ele>
        <time>2020-05-30T19:09:31Z</time>
      </trkpt>
      <trkpt lat="46.43052" lon="-0.18228">
        <ele>137.6</ele>
        <time>2020-05-30T19:09:32Z</time>
      </trkpt>
      <trkpt lat="46.43054" lon="-0.18227">
        <ele>137.7</ele>
        <time>2020-05-30T19:09:33Z</time>
      </trkpt>
      <trkpt lat="46.43054" lon="-0.18226">
        <ele>137.8</ele>
        <time>2020-05-30T19:09:34Z</time>
      </trkpt>
      <trkpt lat="46.43055" lon="-0.18225">
        <ele>137.9</ele>
        <time>2020-05-30T19:09:35Z</time>
      </trkpt>
      <trkpt lat="46.43056" lon="-0.18225">
        <ele>138</ele>
        <time>2020-05-30T19:09:36Z</time>
      </trkpt>
      <trkpt lat="46.43056" lon="-0.18224">
        <ele>138.1</ele>
        <time>2020-05-30T19:09:37Z</time>
      </trkpt>
      <trkpt lat="46.43056" lon="-0.18223">
        <ele>138.2</ele>
        <time>2020-05-30T19:09:38Z</time>
      </trkpt>
      <trkpt lat="46.43056" lon="-0.18223">
        <ele>138.2</ele>
        <time>2020-05-30T19:09:39Z</time>
      </trkpt>
      <trkpt lat="46.43058" lon="-0.18219">
        <ele>138.5</ele>
        <time>2020-05-30T19:09:40Z</time>
      </trkpt>
      <trkpt lat="46.43058" lon="-0.18219">
        <ele>138.6</ele>
        <time>2020-05-30T19:09:41Z</time>
      </trkpt>
      <trkpt lat="46.43058" lon="-0.18218">
        <ele>138.6</ele>
        <time>2020-05-30T19:09:42Z</time>
      </trkpt>
      <trkpt lat="46.43058" lon="-0.18218">
        <ele>138.6</ele>
        <time>2020-05-30T19:09:43Z</time>
      </trkpt>
      <trkpt lat="46.43058" lon="-0.18218">
        <ele>138.6</ele>
        <time>2020-05-30T19:09:44Z</time>
      </trkpt>
      <trkpt lat="46.43058" lon="-0.18218">
        <ele>138.6</ele>
        <time>2020-05-30T19:09:45Z</time>
      </trkpt>
      <trkpt lat="46.43059" lon="-0.18217">
        <ele>138.8</ele>
        <time>2020-05-30T19:09:46Z</time>
      </trkpt>
      <trkpt lat="46.4306" lon="-0.18217">
        <ele>138.8</ele>
        <time>2020-05-30T19:09:47Z</time>
      </trkpt>
      <trkpt lat="46.4306" lon="-0.18216">
        <ele>138.9</ele>
        <time>2020-05-30T19:09:48Z</time>
      </trkpt>
      <trkpt lat="46.43061" lon="-0.18214">
        <ele>139.1</ele>
        <time>2020-05-30T19:09:49Z</time>
      </trkpt>
      <trkpt lat="46.43062" lon="-0.18213">
        <ele>139.2</ele>
        <time>2020-05-30T19:09:50Z</time>
      </trkpt>
      <trkpt lat="46.43063" lon="-0.18212">
        <ele>139.4</ele>
        <time>2020-05-30T19:09:51Z</time>
      </trkpt>
      <trkpt lat="46.43064" lon="-0.18211">
        <ele>139.4</ele>
        <time>2020-05-30T19:09:52Z</time>
      </trkpt>
      <trkpt lat="46.43065" lon="-0.18211">
        <ele>139.5</ele>
        <time>2020-05-30T19:09:53Z</time>
      </trkpt>
      <trkpt lat="46.43065" lon="-0.1821">
        <ele>139.6</ele>
        <time>2020-05-30T19:09:54Z</time>
      </trkpt>
      <trkpt lat="46.43065" lon="-0.1821">
        <ele>139.6</ele>
        <time>2020-05-30T19:09:55Z</time>
      </trkpt>
      <trkpt lat="46.43066" lon="-0.18209">
        <ele>139.7</ele>
        <time>2020-05-30T19:09:56Z</time>
      </trkpt>
      <trkpt lat="46.43067" lon="-0.18208">
        <ele>139.8</ele>
        <time>2020-05-30T19:09:57Z</time>
      </trkpt>
      <trkpt lat="46.43068" lon="-0.18206">
        <ele>140</ele>
        <time>2020-05-30T19:09:58Z</time>
      </trkpt>
      <trkpt lat="46.43069" lon="-0.18203">
        <ele>140.2</ele>
        <time>2020-05-30T19:09:59Z</time>
      </trkpt>
      <trkpt lat="46.43069" lon="-0.18202">
        <ele>140.3</ele>
        <time>2020-05-30T19:10:00Z</time>
      </trkpt>
      <trkpt lat="46.43069" lon="-0.18201">
        <ele>140.3</ele>
        <time>2020-05-30T19:10:01Z</time>
      </trkpt>
      <trkpt lat="46.43071" lon="-0.182">
        <ele>140.5</ele>
        <time>2020-05-30T19:10:02Z</time>
      </trkpt>
      <trkpt lat="46.43071" lon="-0.18199">
        <ele>140.5</ele>
        <time>2020-05-30T19:10:03Z</time>
      </trkpt>
      <trkpt lat="46.43071" lon="-0.18198">
        <ele>140.6</ele>
        <time>2020-05-30T19:10:04Z</time>
      </trkpt>
      <trkpt lat="46.43072" lon="-0.18198">
        <ele>140.7</ele>
        <time>2020-05-30T19:10:05Z</time>
      </trkpt>
      <trkpt lat="46.43072" lon="-0.18197">
        <ele>140.7</ele>
        <time>2020-05-30T19:10:06Z</time>
      </trkpt>
      <trkpt lat="46.43073" lon="-0.18196">
        <ele>140.8</ele>
        <time>2020-05-30T19:10:07Z</time>
      </trkpt>
      <trkpt lat="46.43073" lon="-0.18195">
        <ele>140.9</ele>
        <time>2020-05-30T19:10:08Z</time>
      </trkpt>
      <trkpt lat="46.43074" lon="-0.18194">
        <ele>141</ele>
        <time>2020-05-30T19:10:09Z</time>
      </trkpt>
      <trkpt lat="46.43074" lon="-0.18192">
        <ele>141.1</ele>
        <time>2020-05-30T19:10:10Z</time>
      </trkpt>
      <trkpt lat="46.43075" lon="-0.18191">
        <ele>141.2</ele>
        <time>2020-05-30T19:10:11Z</time>
      </trkpt>
      <trkpt lat="46.43076" lon="-0.1819">
        <ele>141.3</ele>
        <time>2020-05-30T19:10:12Z</time>
      </trkpt>
      <trkpt lat="46.43078" lon="-0.18189">
        <ele>141.5</ele>
        <time>2020-05-30T19:10:13Z</time>
      </trkpt>
      <trkpt lat="46.43079" lon="-0.18186">
        <ele>141.7</ele>
        <time>2020-05-30T19:10:14Z</time>
      </trkpt>
      <trkpt lat="46.43079" lon="-0.18185">
        <ele>141.8</ele>
        <time>2020-05-30T19:10:15Z</time>
      </trkpt>
      <trkpt lat="46.4308" lon="-0.18184">
        <ele>141.8</ele>
        <time>2020-05-30T19:10:16Z</time>
      </trkpt>
      <trkpt lat="46.4308" lon="-0.18184">
        <ele>141.9</ele>
        <time>2020-05-30T19:10:17Z</time>
      </trkpt>
      <trkpt lat="46.4308" lon="-0.18183">
        <ele>141.9</ele>
        <time>2020-05-30T19:10:18Z</time>
      </trkpt>
      <trkpt lat="46.43082" lon="-0.18182">
        <ele>142.1</ele>
        <time>2020-05-30T19:10:19Z</time>
      </trkpt>
      <trkpt lat="46.43083" lon="-0.18181">
        <ele>142.2</ele>
        <time>2020-05-30T19:10:20Z</time>
      </trkpt>
      <trkpt lat="46.43083" lon="-0.1818">
        <ele>142.3</ele>
        <time>2020-05-30T19:10:21Z</time>
      </trkpt>
      <trkpt lat="46.43083" lon="-0.18178">
        <ele>142.3</ele>
        <time>2020-05-30T19:10:22Z</time>
      </trkpt>
      <trkpt lat="46.43083" lon="-0.18179">
        <ele>142.4</ele>
        <time>2020-05-30T19:10:23Z</time>
      </trkpt>
      <trkpt lat="46.43083" lon="-0.18178">
        <ele>142.4</ele>
        <time>2020-05-30T19:10:24Z</time>
      </trkpt>
      <trkpt lat="46.43083" lon="-0.18178">
        <ele>142.4</ele>
        <time>2020-05-30T19:10:25Z</time>
      </trkpt>
      <trkpt lat="46.43083" lon="-0.18178">
        <ele>142.4</ele>
        <time>2020-05-30T19:10:26Z</time>
      </trkpt>
      <trkpt lat="46.43083" lon="-0.18177">
        <ele>142.4</ele>
        <time>2020-05-30T19:10:27Z</time>
      </trkpt>
      <trkpt lat="46.43083" lon="-0.18177">
        <ele>142.4</ele>
        <time>2020-05-30T19:10:28Z</time>
      </trkpt>
      <trkpt lat="46.43083" lon="-0.18177">
        <ele>142.4</ele>
        <time>2020-05-30T19:10:29Z</time>
      </trkpt>
      <trkpt lat="46.43083" lon="-0.18177">
        <ele>142.5</ele>
        <time>2020-05-30T19:10:30Z</time>
      </trkpt>
      <trkpt lat="46.43083" lon="-0.18177">
        <ele>142.5</ele>
        <time>2020-05-30T19:10:31Z</time>
      </trkpt>
      <trkpt lat="46.43083" lon="-0.18177">
        <ele>142.5</ele>
        <time>2020-05-30T19:10:32Z</time>
      </trkpt>
      <trkpt lat="46.43083" lon="-0.18177">
        <ele>142.5</ele>
        <time>2020-05-30T19:10:33Z</time>
      </trkpt>
      <trkpt lat="46.43083" lon="-0.18177">
        <ele>142.5</ele>
        <time>2020-05-30T19:10:34Z</time>
      </trkpt>
      <trkpt lat="46.43083" lon="-0.18177">
        <ele>142.5</ele>
        <time>2020-05-30T19:10:35Z</time>
      </trkpt>
      <trkpt lat="46.43083" lon="-0.18177">
        <ele>142.5</ele>
        <time>2020-05-30T19:10:36Z</time>
      </trkpt>
      <trkpt lat="46.43083" lon="-0.18178">
        <ele>142.5</ele>
        <time>2020-05-30T19:10:37Z</time>
      </trkpt>
      <trkpt lat="46.43083" lon="-0.18178">
        <ele>142.5</ele>
        <time>2020-05-30T19:10:38Z</time>
      </trkpt>
      <trkpt lat="46.43083" lon="-0.18178">
        <ele>142.5</ele>
        <time>2020-05-30T19:10:39Z</time>
      </trkpt>
      <trkpt lat="46.43083" lon="-0.18178">
        <ele>142.6</ele>
        <time>2020-05-30T19:10:40Z</time>
      </trkpt>
      <trkpt lat="46.43083" lon="-0.18178">
        <ele>142.6</ele>
        <time>2020-05-30T19:10:41Z</time>
      </trkpt>
      <trkpt lat="46.43083" lon="-0.18178">
        <ele>142.6</ele>
        <time>2020-05-30T19:10:42Z</time>
      </trkpt>
      <trkpt lat="46.43084" lon="-0.18178">
        <ele>142.6</ele>
        <time>2020-05-30T19:10:43Z</time>
      </trkpt>
      <trkpt lat="46.43084" lon="-0.18178">
        <ele>142.6</ele>
        <time>2020-05-30T19:10:44Z</time>
      </trkpt>
      <trkpt lat="46.43084" lon="-0.18178">
        <ele>142.6</ele>
        <time>2020-05-30T19:10:45Z</time>
      </trkpt>
      <trkpt lat="46.43084" lon="-0.18178">
        <ele>142.6</ele>
        <time>2020-05-30T19:10:46Z</time>
      </trkpt>
      <trkpt lat="46.43084" lon="-0.18178">
        <ele>142.6</ele>
        <time>2020-05-30T19:10:47Z</time>
      </trkpt>
      <trkpt lat="46.43084" lon="-0.18178">
        <ele>142.6</ele>
        <time>2020-05-30T19:10:48Z</time>
      </trkpt>
      <trkpt lat="46.43083" lon="-0.18177">
        <ele>142.7</ele>
        <time>2020-05-30T19:10:49Z</time>
      </trkpt>
      <trkpt lat="46.43083" lon="-0.18178">
        <ele>142.8</ele>
        <time>2020-05-30T19:10:50Z</time>
      </trkpt>
      <trkpt lat="46.43082" lon="-0.18178">
        <ele>142.8</ele>
        <time>2020-05-30T19:10:51Z</time>
      </trkpt>
      <trkpt lat="46.43082" lon="-0.18178">
        <ele>142.8</ele>
        <time>2020-05-30T19:10:52Z</time>
      </trkpt>
      <trkpt lat="46.43082" lon="-0.18178">
        <ele>142.8</ele>
        <time>2020-05-30T19:10:53Z</time>
      </trkpt>
      <trkpt lat="46.43082" lon="-0.18178">
        <ele>142.8</ele>
        <time>2020-05-30T19:10:54Z</time>
      </trkpt>
      <trkpt lat="46.43083" lon="-0.18178">
        <ele>142.8</ele>
        <time>2020-05-30T19:10:55Z</time>
      </trkpt>
      <trkpt lat="46.43083" lon="-0.18177">
        <ele>142.9</ele>
        <time>2020-05-30T19:10:56Z</time>
      </trkpt>
      <trkpt lat="46.43083" lon="-0.18177">
        <ele>142.9</ele>
        <time>2020-05-30T19:10:57Z</time>
      </trkpt>
      <trkpt lat="46.43084" lon="-0.18176">
        <ele>143</ele>
        <time>2020-05-30T19:10:58Z</time>
      </trkpt>
      <trkpt lat="46.43083" lon="-0.18176">
        <ele>143</ele>
        <time>2020-05-30T19:10:59Z</time>
      </trkpt>
      <trkpt lat="46.43083" lon="-0.18176">
        <ele>143</ele>
        <time>2020-05-30T19:11:00Z</time>
      </trkpt>
      <trkpt lat="46.43083" lon="-0.18176">
        <ele>143</ele>
        <time>2020-05-30T19:11:01Z</time>
      </trkpt>
      <trkpt lat="46.43083" lon="-0.18176">
        <ele>143</ele>
        <time>2020-05-30T19:11:02Z</time>
      </trkpt>
      <trkpt lat="46.43083" lon="-0.18176">
        <ele>143</ele>
        <time>2020-05-30T19:11:03Z</time>
      </trkpt>
      <trkpt lat="46.43083" lon="-0.18176">
        <ele>143</ele>
        <time>2020-05-30T19:11:04Z</time>
      </trkpt>
      <trkpt lat="46.43083" lon="-0.18176">
        <ele>143</ele>
        <time>2020-05-30T19:11:05Z</time>
      </trkpt>
      <trkpt lat="46.43083" lon="-0.18176">
        <ele>143</ele>
        <time>2020-05-30T19:11:06Z</time>
      </trkpt>
      <trkpt lat="46.43083" lon="-0.18176">
        <ele>143</ele>
        <time>2020-05-30T19:11:07Z</time>
      </trkpt>
      <trkpt lat="46.43083" lon="-0.18176">
        <ele>143</ele>
        <time>2020-05-30T19:11:08Z</time>
      </trkpt>
      <trkpt lat="46.43084" lon="-0.18175">
        <ele>143.1</ele>
        <time>2020-05-30T19:11:09Z</time>
      </trkpt>
      <trkpt lat="46.43084" lon="-0.18175">
        <ele>143.1</ele>
        <time>2020-05-30T19:11:10Z</time>
      </trkpt>
      <trkpt lat="46.43084" lon="-0.18175">
        <ele>143.1</ele>
        <time>2020-05-30T19:11:11Z</time>
      </trkpt>
      <trkpt lat="46.43083" lon="-0.18174">
        <ele>143.1</ele>
        <time>2020-05-30T19:11:12Z</time>
      </trkpt>
      <trkpt lat="46.43084" lon="-0.18174">
        <ele>143.2</ele>
        <time>2020-05-30T19:11:13Z</time>
      </trkpt>
      <trkpt lat="46.43084" lon="-0.18174">
        <ele>143.2</ele>
        <time>2020-05-30T19:11:14Z</time>
      </trkpt>
      <trkpt lat="46.43084" lon="-0.18174">
        <ele>143.2</ele>
        <time>2020-05-30T19:11:15Z</time>
      </trkpt>
      <trkpt lat="46.43084" lon="-0.18174">
        <ele>143.2</ele>
        <time>2020-05-30T19:11:16Z</time>
      </trkpt>
      <trkpt lat="46.43084" lon="-0.18174">
        <ele>143.2</ele>
        <time>2020-05-30T19:11:17Z</time>
      </trkpt>
      <trkpt lat="46.43084" lon="-0.18174">
        <ele>143.2</ele>
        <time>2020-05-30T19:11:18Z</time>
      </trkpt>
      <trkpt lat="46.43084" lon="-0.18174">
        <ele>143.2</ele>
        <time>2020-05-30T19:11:19Z</time>
      </trkpt>
      <trkpt lat="46.43084" lon="-0.18174">
        <ele>143.2</ele>
        <time>2020-05-30T19:11:20Z</time>
      </trkpt>
      <trkpt lat="46.43084" lon="-0.18174">
        <ele>143.2</ele>
        <time>2020-05-30T19:11:21Z</time>
      </trkpt>
      <trkpt lat="46.43084" lon="-0.18174">
        <ele>143.2</ele>
        <time>2020-05-30T19:11:22Z</time>
      </trkpt>
      <trkpt lat="46.43084" lon="-0.18174">
        <ele>143.3</ele>
        <time>2020-05-30T19:11:23Z</time>
      </trkpt>
      <trkpt lat="46.43084" lon="-0.18174">
        <ele>143.3</ele>
        <time>2020-05-30T19:11:24Z</time>
      </trkpt>
      <trkpt lat="46.43083" lon="-0.18175">
        <ele>143.3</ele>
        <time>2020-05-30T19:11:25Z</time>
      </trkpt>
      <trkpt lat="46.43084" lon="-0.18176">
        <ele>143.4</ele>
        <time>2020-05-30T19:11:26Z</time>
      </trkpt>
      <trkpt lat="46.43084" lon="-0.18176">
        <ele>143.4</ele>
        <time>2020-05-30T19:11:27Z</time>
      </trkpt>
      <trkpt lat="46.43084" lon="-0.18176">
        <ele>143.4</ele>
        <time>2020-05-30T19:11:28Z</time>
      </trkpt>
      <trkpt lat="46.43084" lon="-0.18176">
        <ele>143.4</ele>
        <time>2020-05-30T19:11:29Z</time>
      </trkpt>
      <trkpt lat="46.43084" lon="-0.18176">
        <ele>143.4</ele>
        <time>2020-05-30T19:11:30Z</time>
      </trkpt>
      <trkpt lat="46.43084" lon="-0.18176">
        <ele>143.4</ele>
        <time>2020-05-30T19:11:31Z</time>
      </trkpt>
      <trkpt lat="46.43084" lon="-0.18176">
        <ele>143.4</ele>
        <time>2020-05-30T19:11:32Z</time>
      </trkpt>
      <trkpt lat="46.43084" lon="-0.18176">
        <ele>143.4</ele>
        <time>2020-05-30T19:11:33Z</time>
      </trkpt>
      <trkpt lat="46.43084" lon="-0.18176">
        <ele>143.4</ele>
        <time>2020-05-30T19:11:34Z</time>
      </trkpt>
      <trkpt lat="46.43084" lon="-0.18176">
        <ele>143.4</ele>
        <time>2020-05-30T19:11:35Z</time>
      </trkpt>
      <trkpt lat="46.43084" lon="-0.18176">
        <ele>143.4</ele>
        <time>2020-05-30T19:11:36Z</time>
      </trkpt>
      <trkpt lat="46.43084" lon="-0.18176">
        <ele>143.4</ele>
        <time>2020-05-30T19:11:37Z</time>
      </trkpt>
      <trkpt lat="46.43084" lon="-0.18176">
        <ele>143.4</ele>
        <time>2020-05-30T19:11:38Z</time>
      </trkpt>
      <trkpt lat="46.43084" lon="-0.18176">
        <ele>143.4</ele>
        <time>2020-05-30T19:11:39Z</time>
      </trkpt>
      <trkpt lat="46.43084" lon="-0.18176">
        <ele>143.4</ele>
        <time>2020-05-30T19:11:40Z</time>
      </trkpt>
      <trkpt lat="46.43084" lon="-0.18176">
        <ele>143.4</ele>
        <time>2020-05-30T19:11:41Z</time>
      </trkpt>
      <trkpt lat="46.43084" lon="-0.18176">
        <ele>143.4</ele>
        <time>2020-05-30T19:11:42Z</time>
      </trkpt>
      <trkpt lat="46.43084" lon="-0.18176">
        <ele>143.4</ele>
        <time>2020-05-30T19:11:43Z</time>
      </trkpt>
      <trkpt lat="46.43084" lon="-0.18176">
        <ele>143.4</ele>
        <time>2020-05-30T19:11:44Z</time>
      </trkpt>
      <trkpt lat="46.43084" lon="-0.18176">
        <ele>143.4</ele>
        <time>2020-05-30T19:11:45Z</time>
      </trkpt>
      <trkpt lat="46.43084" lon="-0.18176">
        <ele>143.4</ele>
        <time>2020-05-30T19:11:46Z</time>
      </trkpt>
      <trkpt lat="46.43084" lon="-0.18176">
        <ele>143.4</ele>
        <time>2020-05-30T19:11:47Z</time>
      </trkpt>
      <trkpt lat="46.43084" lon="-0.18176">
        <ele>143.4</ele>
        <time>2020-05-30T19:11:48Z</time>
      </trkpt>
      <trkpt lat="46.43084" lon="-0.18176">
        <ele>143.4</ele>
        <time>2020-05-30T19:11:49Z</time>
      </trkpt>
      <trkpt lat="46.43084" lon="-0.18176">
        <ele>143.4</ele>
        <time>2020-05-30T19:11:50Z</time>
      </trkpt>
      <trkpt lat="46.43084" lon="-0.18176">
        <ele>143.4</ele>
        <time>2020-05-30T19:11:51Z</time>
      </trkpt>
      <trkpt lat="46.43084" lon="-0.18176">
        <ele>143.4</ele>
        <time>2020-05-30T19:11:52Z</time>
      </trkpt>
      <trkpt lat="46.43084" lon="-0.18176">
        <ele>143.4</ele>
        <time>2020-05-30T19:11:53Z</time>
      </trkpt>
      <trkpt lat="46.43084" lon="-0.18176">
        <ele>143.4</ele>
        <time>2020-05-30T19:11:54Z</time>
      </trkpt>
      <trkpt lat="46.43084" lon="-0.18176">
        <ele>143.4</ele>
        <time>2020-05-30T19:11:55Z</time>
      </trkpt>
      <trkpt lat="46.43084" lon="-0.18176">
        <ele>143.4</ele>
        <time>2020-05-30T19:11:56Z</time>
      </trkpt>
      <trkpt lat="46.43084" lon="-0.18176">
        <ele>143.4</ele>
        <time>2020-05-30T19:11:57Z</time>
      </trkpt>
      <trkpt lat="46.43084" lon="-0.18176">
        <ele>143.4</ele>
        <time>2020-05-30T19:11:58Z</time>
      </trkpt>
      <trkpt lat="46.43084" lon="-0.18176">
        <ele>143.4</ele>
        <time>2020-05-30T19:11:59Z</time>
      </trkpt>
      <trkpt lat="46.43084" lon="-0.18176">
        <ele>143.4</ele>
        <time>2020-05-30T19:12:00Z</time>
      </trkpt>
      <trkpt lat="46.43084" lon="-0.18176">
        <ele>143.5</ele>
        <time>2020-05-30T19:12:01Z</time>
      </trkpt>
      <trkpt lat="46.43084" lon="-0.18176">
        <ele>143.5</ele>
        <time>2020-05-30T19:12:02Z</time>
      </trkpt>
      <trkpt lat="46.43085" lon="-0.18176">
        <ele>143.5</ele>
        <time>2020-05-30T19:12:03Z</time>
      </trkpt>
      <trkpt lat="46.43085" lon="-0.18176">
        <ele>143.5</ele>
        <time>2020-05-30T19:12:04Z</time>
      </trkpt>
      <trkpt lat="46.43084" lon="-0.18176">
        <ele>143.5</ele>
        <time>2020-05-30T19:12:05Z</time>
      </trkpt>
      <trkpt lat="46.43084" lon="-0.18176">
        <ele>143.5</ele>
        <time>2020-05-30T19:12:06Z</time>
      </trkpt>
      <trkpt lat="46.43084" lon="-0.18176">
        <ele>143.5</ele>
        <time>2020-05-30T19:12:07Z</time>
      </trkpt>
      <trkpt lat="46.43084" lon="-0.18176">
        <ele>143.5</ele>
        <time>2020-05-30T19:12:08Z</time>
      </trkpt>
      <trkpt lat="46.43085" lon="-0.18176">
        <ele>143.5</ele>
        <time>2020-05-30T19:12:09Z</time>
      </trkpt>
      <trkpt lat="46.43085" lon="-0.18176">
        <ele>143.5</ele>
        <time>2020-05-30T19:12:10Z</time>
      </trkpt>
      <trkpt lat="46.43084" lon="-0.18176">
        <ele>143.5</ele>
        <time>2020-05-30T19:12:11Z</time>
      </trkpt>
      <trkpt lat="46.43085" lon="-0.18176">
        <ele>143.5</ele>
        <time>2020-05-30T19:12:12Z</time>
      </trkpt>
      <trkpt lat="46.43085" lon="-0.18176">
        <ele>143.5</ele>
        <time>2020-05-30T19:12:13Z</time>
      </trkpt>
      <trkpt lat="46.43084" lon="-0.18176">
        <ele>143.6</ele>
        <time>2020-05-30T19:12:14Z</time>
      </trkpt>
      <trkpt lat="46.43085" lon="-0.18176">
        <ele>143.6</ele>
        <time>2020-05-30T19:12:15Z</time>
      </trkpt>
      <trkpt lat="46.43085" lon="-0.18176">
        <ele>143.6</ele>
        <time>2020-05-30T19:12:16Z</time>
      </trkpt>
      <trkpt lat="46.43085" lon="-0.18176">
        <ele>143.6</ele>
        <time>2020-05-30T19:12:17Z</time>
      </trkpt>
      <trkpt lat="46.43085" lon="-0.18176">
        <ele>143.6</ele>
        <time>2020-05-30T19:12:18Z</time>
      </trkpt>
      <trkpt lat="46.43085" lon="-0.18176">
        <ele>143.6</ele>
        <time>2020-05-30T19:12:19Z</time>
      </trkpt>
      <trkpt lat="46.43085" lon="-0.18176">
        <ele>143.6</ele>
        <time>2020-05-30T19:12:20Z</time>
      </trkpt>
      <trkpt lat="46.43085" lon="-0.18176">
        <ele>143.6</ele>
        <time>2020-05-30T19:12:21Z</time>
      </trkpt>
      <trkpt lat="46.43085" lon="-0.18176">
        <ele>143.6</ele>
        <time>2020-05-30T19:12:22Z</time>
      </trkpt>
      <trkpt lat="46.43085" lon="-0.18176">
        <ele>143.6</ele>
        <time>2020-05-30T19:12:23Z</time>
      </trkpt>
      <trkpt lat="46.43085" lon="-0.18176">
        <ele>143.6</ele>
        <time>2020-05-30T19:12:24Z</time>
      </trkpt>
      <trkpt lat="46.43085" lon="-0.18176">
        <ele>143.6</ele>
        <time>2020-05-30T19:12:25Z</time>
      </trkpt>
      <trkpt lat="46.43085" lon="-0.18176">
        <ele>143.6</ele>
        <time>2020-05-30T19:12:26Z</time>
      </trkpt>
      <trkpt lat="46.43085" lon="-0.18177">
        <ele>143.6</ele>
        <time>2020-05-30T19:12:27Z</time>
      </trkpt>
      <trkpt lat="46.43085" lon="-0.18177">
        <ele>143.6</ele>
        <time>2020-05-30T19:12:28Z</time>
      </trkpt>
      <trkpt lat="46.43085" lon="-0.18177">
        <ele>143.6</ele>
        <time>2020-05-30T19:12:29Z</time>
      </trkpt>
      <trkpt lat="46.43085" lon="-0.18177">
        <ele>143.6</ele>
        <time>2020-05-30T19:12:30Z</time>
      </trkpt>
      <trkpt lat="46.43085" lon="-0.18177">
        <ele>143.6</ele>
        <time>2020-05-30T19:12:31Z</time>
      </trkpt>
      <trkpt lat="46.43085" lon="-0.18177">
        <ele>143.6</ele>
        <time>2020-05-30T19:12:32Z</time>
      </trkpt>
      <trkpt lat="46.43085" lon="-0.18177">
        <ele>143.6</ele>
        <time>2020-05-30T19:12:33Z</time>
      </trkpt>
      <trkpt lat="46.43085" lon="-0.18177">
        <ele>143.6</ele>
        <time>2020-05-30T19:12:34Z</time>
      </trkpt>
      <trkpt lat="46.43085" lon="-0.18177">
        <ele>143.6</ele>
        <time>2020-05-30T19:12:35Z</time>
      </trkpt>
      <trkpt lat="46.43085" lon="-0.18177">
        <ele>143.6</ele>
        <time>2020-05-30T19:12:36Z</time>
      </trkpt>
      <trkpt lat="46.43085" lon="-0.18177">
        <ele>143.6</ele>
        <time>2020-05-30T19:12:37Z</time>
      </trkpt>
      <trkpt lat="46.43085" lon="-0.18177">
        <ele>143.6</ele>
        <time>2020-05-30T19:12:38Z</time>
      </trkpt>
      <trkpt lat="46.43085" lon="-0.18177">
        <ele>143.6</ele>
        <time>2020-05-30T19:12:39Z</time>
      </trkpt>
      <trkpt lat="46.43085" lon="-0.18177">
        <ele>143.6</ele>
        <time>2020-05-30T19:12:40Z</time>
      </trkpt>
      <trkpt lat="46.43084" lon="-0.18177">
        <ele>143.6</ele>
        <time>2020-05-30T19:12:41Z</time>
      </trkpt>
      <trkpt lat="46.43084" lon="-0.18177">
        <ele>143.7</ele>
        <time>2020-05-30T19:12:42Z</time>
      </trkpt>
      <trkpt lat="46.43084" lon="-0.18177">
        <ele>143.7</ele>
        <time>2020-05-30T19:12:43Z</time>
      </trkpt>
      <trkpt lat="46.43084" lon="-0.18177">
        <ele>143.7</ele>
        <time>2020-05-30T19:12:44Z</time>
      </trkpt>
      <trkpt lat="46.43085" lon="-0.18177">
        <ele>143.7</ele>
        <time>2020-05-30T19:12:45Z</time>
      </trkpt>
      <trkpt lat="46.43085" lon="-0.18177">
        <ele>143.7</ele>
        <time>2020-05-30T19:12:46Z</time>
      </trkpt>
      <trkpt lat="46.43085" lon="-0.18177">
        <ele>143.7</ele>
        <time>2020-05-30T19:12:47Z</time>
      </trkpt>
      <trkpt lat="46.43085" lon="-0.18177">
        <ele>143.7</ele>
        <time>2020-05-30T19:12:48Z</time>
      </trkpt>
      <trkpt lat="46.43085" lon="-0.18177">
        <ele>143.7</ele>
        <time>2020-05-30T19:12:49Z</time>
      </trkpt>
      <trkpt lat="46.43085" lon="-0.18177">
        <ele>143.7</ele>
        <time>2020-05-30T19:12:50Z</time>
      </trkpt>
      <trkpt lat="46.43085" lon="-0.18177">
        <ele>143.7</ele>
        <time>2020-05-30T19:12:51Z</time>
      </trkpt>
      <trkpt lat="46.43085" lon="-0.18177">
        <ele>143.7</ele>
        <time>2020-05-30T19:12:52Z</time>
      </trkpt>
      <trkpt lat="46.43085" lon="-0.18177">
        <ele>143.7</ele>
        <time>2020-05-30T19:12:53Z</time>
      </trkpt>
      <trkpt lat="46.43085" lon="-0.18177">
        <ele>143.7</ele>
        <time>2020-05-30T19:12:54Z</time>
      </trkpt>
      <trkpt lat="46.43085" lon="-0.18177">
        <ele>143.7</ele>
        <time>2020-05-30T19:12:55Z</time>
      </trkpt>
      <trkpt lat="46.43085" lon="-0.18177">
        <ele>143.7</ele>
        <time>2020-05-30T19:12:56Z</time>
      </trkpt>
      <trkpt lat="46.43085" lon="-0.18177">
        <ele>143.7</ele>
        <time>2020-05-30T19:12:57Z</time>
      </trkpt>
      <trkpt lat="46.43085" lon="-0.18177">
        <ele>143.7</ele>
        <time>2020-05-30T19:12:58Z</time>
      </trkpt>
      <trkpt lat="46.43085" lon="-0.18177">
        <ele>143.8</ele>
        <time>2020-05-30T19:12:59Z</time>
      </trkpt>
      <trkpt lat="46.43085" lon="-0.18177">
        <ele>143.8</ele>
        <time>2020-05-30T19:13:00Z</time>
      </trkpt>
      <trkpt lat="46.43085" lon="-0.18177">
        <ele>143.8</ele>
        <time>2020-05-30T19:13:01Z</time>
      </trkpt>
      <trkpt lat="46.43085" lon="-0.18177">
        <ele>143.8</ele>
        <time>2020-05-30T19:13:02Z</time>
      </trkpt>
      <trkpt lat="46.43085" lon="-0.18177">
        <ele>143.8</ele>
        <time>2020-05-30T19:13:03Z</time>
      </trkpt>
      <trkpt lat="46.43085" lon="-0.18177">
        <ele>143.8</ele>
        <time>2020-05-30T19:13:04Z</time>
      </trkpt>
      <trkpt lat="46.43085" lon="-0.18177">
        <ele>143.8</ele>
        <time>2020-05-30T19:13:05Z</time>
      </trkpt>
      <trkpt lat="46.43085" lon="-0.18177">
        <ele>143.8</ele>
        <time>2020-05-30T19:13:06Z</time>
      </trkpt>
      <trkpt lat="46.43085" lon="-0.18177">
        <ele>143.8</ele>
        <time>2020-05-30T19:13:07Z</time>
      </trkpt>
      <trkpt lat="46.43085" lon="-0.18177">
        <ele>143.8</ele>
        <time>2020-05-30T19:13:08Z</time>
      </trkpt>
      <trkpt lat="46.43085" lon="-0.18177">
        <ele>143.8</ele>
        <time>2020-05-30T19:13:09Z</time>
      </trkpt>
      <trkpt lat="46.43085" lon="-0.18177">
        <ele>143.8</ele>
        <time>2020-05-30T19:13:10Z</time>
      </trkpt>
      <trkpt lat="46.43085" lon="-0.18177">
        <ele>143.8</ele>
        <time>2020-05-30T19:13:11Z</time>
      </trkpt>
      <trkpt lat="46.43085" lon="-0.18177">
        <ele>143.8</ele>
        <time>2020-05-30T19:13:12Z</time>
      </trkpt>
      <trkpt lat="46.43085" lon="-0.18177">
        <ele>143.8</ele>
        <time>2020-05-30T19:13:13Z</time>
      </trkpt>
      <trkpt lat="46.43085" lon="-0.18177">
        <ele>143.8</ele>
        <time>2020-05-30T19:13:14Z</time>
      </trkpt>
      <trkpt lat="46.43085" lon="-0.18177">
        <ele>143.8</ele>
        <time>2020-05-30T19:13:15Z</time>
      </trkpt>
      <trkpt lat="46.43085" lon="-0.18177">
        <ele>143.8</ele>
        <time>2020-05-30T19:13:16Z</time>
      </trkpt>
      <trkpt lat="46.43085" lon="-0.18177">
        <ele>143.8</ele>
        <time>2020-05-30T19:13:17Z</time>
      </trkpt>
      <trkpt lat="46.43085" lon="-0.18177">
        <ele>143.8</ele>
        <time>2020-05-30T19:13:18Z</time>
      </trkpt>
      <trkpt lat="46.43085" lon="-0.18177">
        <ele>143.9</ele>
        <time>2020-05-30T19:13:19Z</time>
      </trkpt>
      <trkpt lat="46.43086" lon="-0.18178">
        <ele>143.9</ele>
        <time>2020-05-30T19:13:20Z</time>
      </trkpt>
      <trkpt lat="46.43086" lon="-0.18178">
        <ele>143.9</ele>
        <time>2020-05-30T19:13:21Z</time>
      </trkpt>
      <trkpt lat="46.43085" lon="-0.18178">
        <ele>143.9</ele>
        <time>2020-05-30T19:13:22Z</time>
      </trkpt>
      <trkpt lat="46.43086" lon="-0.18177">
        <ele>143.9</ele>
        <time>2020-05-30T19:13:23Z</time>
      </trkpt>
      <trkpt lat="46.43086" lon="-0.18178">
        <ele>144</ele>
        <time>2020-05-30T19:13:24Z</time>
      </trkpt>
      <trkpt lat="46.43086" lon="-0.18178">
        <ele>144</ele>
        <time>2020-05-30T19:13:25Z</time>
      </trkpt>
      <trkpt lat="46.43086" lon="-0.18178">
        <ele>144</ele>
        <time>2020-05-30T19:13:26Z</time>
      </trkpt>
      <trkpt lat="46.43086" lon="-0.18178">
        <ele>144</ele>
        <time>2020-05-30T19:13:27Z</time>
      </trkpt>
      <trkpt lat="46.43086" lon="-0.18178">
        <ele>144</ele>
        <time>2020-05-30T19:13:28Z</time>
      </trkpt>
      <trkpt lat="46.43086" lon="-0.18177">
        <ele>144.1</ele>
        <time>2020-05-30T19:13:29Z</time>
      </trkpt>
      <trkpt lat="46.43086" lon="-0.18177">
        <ele>144.1</ele>
        <time>2020-05-30T19:13:30Z</time>
      </trkpt>
      <trkpt lat="46.43086" lon="-0.18177">
        <ele>144.1</ele>
        <time>2020-05-30T19:13:31Z</time>
      </trkpt>
      <trkpt lat="46.43086" lon="-0.18177">
        <ele>144.1</ele>
        <time>2020-05-30T19:13:32Z</time>
      </trkpt>
      <trkpt lat="46.43086" lon="-0.18177">
        <ele>144.1</ele>
        <time>2020-05-30T19:13:33Z</time>
      </trkpt>
      <trkpt lat="46.43086" lon="-0.18177">
        <ele>144.1</ele>
        <time>2020-05-30T19:13:34Z</time>
      </trkpt>
      <trkpt lat="46.43086" lon="-0.18177">
        <ele>144.1</ele>
        <time>2020-05-30T19:13:35Z</time>
      </trkpt>
      <trkpt lat="46.43086" lon="-0.18177">
        <ele>144.1</ele>
        <time>2020-05-30T19:13:36Z</time>
      </trkpt>
      <trkpt lat="46.43086" lon="-0.18177">
        <ele>144.1</ele>
        <time>2020-05-30T19:13:37Z</time>
      </trkpt>
      <trkpt lat="46.43086" lon="-0.18177">
        <ele>144.1</ele>
        <time>2020-05-30T19:13:38Z</time>
      </trkpt>
      <trkpt lat="46.43086" lon="-0.18177">
        <ele>144.1</ele>
        <time>2020-05-30T19:13:39Z</time>
      </trkpt>
      <trkpt lat="46.43087" lon="-0.18176">
        <ele>144.2</ele>
        <time>2020-05-30T19:13:40Z</time>
      </trkpt>
      <trkpt lat="46.43087" lon="-0.18175">
        <ele>144.3</ele>
        <time>2020-05-30T19:13:41Z</time>
      </trkpt>
      <trkpt lat="46.43087" lon="-0.18173">
        <ele>144.4</ele>
        <time>2020-05-30T19:13:42Z</time>
      </trkpt>
      <trkpt lat="46.43087" lon="-0.18172">
        <ele>144.5</ele>
        <time>2020-05-30T19:13:43Z</time>
      </trkpt>
      <trkpt lat="46.43088" lon="-0.18172">
        <ele>144.5</ele>
        <time>2020-05-30T19:13:44Z</time>
      </trkpt>
      <trkpt lat="46.43088" lon="-0.18171">
        <ele>144.6</ele>
        <time>2020-05-30T19:13:45Z</time>
      </trkpt>
      <trkpt lat="46.43088" lon="-0.1817">
        <ele>144.7</ele>
        <time>2020-05-30T19:13:46Z</time>
      </trkpt>
      <trkpt lat="46.43089" lon="-0.18169">
        <ele>144.7</ele>
        <time>2020-05-30T19:13:47Z</time>
      </trkpt>
      <trkpt lat="46.4309" lon="-0.18169">
        <ele>144.9</ele>
        <time>2020-05-30T19:13:48Z</time>
      </trkpt>
      <trkpt lat="46.43091" lon="-0.18167">
        <ele>145</ele>
        <time>2020-05-30T19:13:49Z</time>
      </trkpt>
      <trkpt lat="46.43091" lon="-0.18166">
        <ele>145.1</ele>
        <time>2020-05-30T19:13:50Z</time>
      </trkpt>
      <trkpt lat="46.43092" lon="-0.18164">
        <ele>145.2</ele>
        <time>2020-05-30T19:13:51Z</time>
      </trkpt>
      <trkpt lat="46.43091" lon="-0.18163">
        <ele>145.3</ele>
        <time>2020-05-30T19:13:52Z</time>
      </trkpt>
      <trkpt lat="46.43092" lon="-0.18163">
        <ele>145.4</ele>
        <time>2020-05-30T19:13:53Z</time>
      </trkpt>
      <trkpt lat="46.43093" lon="-0.18161">
        <ele>145.5</ele>
        <time>2020-05-30T19:13:54Z</time>
      </trkpt>
      <trkpt lat="46.43092" lon="-0.1816">
        <ele>145.6</ele>
        <time>2020-05-30T19:13:55Z</time>
      </trkpt>
      <trkpt lat="46.43092" lon="-0.18159">
        <ele>145.7</ele>
        <time>2020-05-30T19:13:56Z</time>
      </trkpt>
      <trkpt lat="46.43093" lon="-0.18158">
        <ele>145.8</ele>
        <time>2020-05-30T19:13:57Z</time>
      </trkpt>
      <trkpt lat="46.43095" lon="-0.18157">
        <ele>146</ele>
        <time>2020-05-30T19:13:58Z</time>
      </trkpt>
      <trkpt lat="46.43098" lon="-0.18156">
        <ele>146.2</ele>
        <time>2020-05-30T19:13:59Z</time>
      </trkpt>
      <trkpt lat="46.43099" lon="-0.18154">
        <ele>146.4</ele>
        <time>2020-05-30T19:14:00Z</time>
      </trkpt>
      <trkpt lat="46.431" lon="-0.18152">
        <ele>146.5</ele>
        <time>2020-05-30T19:14:01Z</time>
      </trkpt>
      <trkpt lat="46.431" lon="-0.18151">
        <ele>146.6</ele>
        <time>2020-05-30T19:14:02Z</time>
      </trkpt>
      <trkpt lat="46.43101" lon="-0.1815">
        <ele>146.6</ele>
        <time>2020-05-30T19:14:03Z</time>
      </trkpt>
      <trkpt lat="46.43102" lon="-0.18149">
        <ele>146.7</ele>
        <time>2020-05-30T19:14:04Z</time>
      </trkpt>
      <trkpt lat="46.43103" lon="-0.18149">
        <ele>146.8</ele>
        <time>2020-05-30T19:14:05Z</time>
      </trkpt>
      <trkpt lat="46.43104" lon="-0.18148">
        <ele>146.9</ele>
        <time>2020-05-30T19:14:06Z</time>
      </trkpt>
      <trkpt lat="46.43104" lon="-0.18148">
        <ele>147</ele>
        <time>2020-05-30T19:14:07Z</time>
      </trkpt>
      <trkpt lat="46.43105" lon="-0.18146">
        <ele>147.1</ele>
        <time>2020-05-30T19:14:08Z</time>
      </trkpt>
      <trkpt lat="46.43106" lon="-0.18145">
        <ele>147.2</ele>
        <time>2020-05-30T19:14:09Z</time>
      </trkpt>
      <trkpt lat="46.43107" lon="-0.18144">
        <ele>147.3</ele>
        <time>2020-05-30T19:14:10Z</time>
      </trkpt>
      <trkpt lat="46.43108" lon="-0.18142">
        <ele>147.5</ele>
        <time>2020-05-30T19:14:11Z</time>
      </trkpt>
      <trkpt lat="46.43109" lon="-0.1814">
        <ele>147.6</ele>
        <time>2020-05-30T19:14:12Z</time>
      </trkpt>
      <trkpt lat="46.4311" lon="-0.18138">
        <ele>147.7</ele>
        <time>2020-05-30T19:14:13Z</time>
      </trkpt>
      <trkpt lat="46.43111" lon="-0.18137">
        <ele>147.8</ele>
        <time>2020-05-30T19:14:14Z</time>
      </trkpt>
      <trkpt lat="46.43112" lon="-0.18136">
        <ele>147.9</ele>
        <time>2020-05-30T19:14:15Z</time>
      </trkpt>
      <trkpt lat="46.43113" lon="-0.18136">
        <ele>148</ele>
        <time>2020-05-30T19:14:16Z</time>
      </trkpt>
      <trkpt lat="46.43113" lon="-0.18135">
        <ele>148</ele>
        <time>2020-05-30T19:14:17Z</time>
      </trkpt>
      <trkpt lat="46.43114" lon="-0.18134">
        <ele>148.1</ele>
        <time>2020-05-30T19:14:18Z</time>
      </trkpt>
      <trkpt lat="46.43115" lon="-0.18133">
        <ele>148.2</ele>
        <time>2020-05-30T19:14:19Z</time>
      </trkpt>
      <trkpt lat="46.43115" lon="-0.18132">
        <ele>148.3</ele>
        <time>2020-05-30T19:14:20Z</time>
      </trkpt>
      <trkpt lat="46.43116" lon="-0.18131">
        <ele>148.3</ele>
        <time>2020-05-30T19:14:21Z</time>
      </trkpt>
      <trkpt lat="46.43117" lon="-0.1813">
        <ele>148.4</ele>
        <time>2020-05-30T19:14:22Z</time>
      </trkpt>
      <trkpt lat="46.43118" lon="-0.18125">
        <ele>148.7</ele>
        <time>2020-05-30T19:14:23Z</time>
      </trkpt>
      <trkpt lat="46.43119" lon="-0.18124">
        <ele>148.7</ele>
        <time>2020-05-30T19:14:24Z</time>
      </trkpt>
      <trkpt lat="46.43119" lon="-0.18123">
        <ele>148.8</ele>
        <time>2020-05-30T19:14:25Z</time>
      </trkpt>
      <trkpt lat="46.43119" lon="-0.18122">
        <ele>148.8</ele>
        <time>2020-05-30T19:14:26Z</time>
      </trkpt>
      <trkpt lat="46.4312" lon="-0.1812">
        <ele>148.9</ele>
        <time>2020-05-30T19:14:27Z</time>
      </trkpt>
      <trkpt lat="46.4312" lon="-0.18119">
        <ele>149</ele>
        <time>2020-05-30T19:14:28Z</time>
      </trkpt>
      <trkpt lat="46.4312" lon="-0.18117">
        <ele>149.1</ele>
        <time>2020-05-30T19:14:29Z</time>
      </trkpt>
      <trkpt lat="46.4312" lon="-0.18116">
        <ele>149.1</ele>
        <time>2020-05-30T19:14:30Z</time>
      </trkpt>
      <trkpt lat="46.43121" lon="-0.18115">
        <ele>149.2</ele>
        <time>2020-05-30T19:14:31Z</time>
      </trkpt>
      <trkpt lat="46.43121" lon="-0.18114">
        <ele>149.3</ele>
        <time>2020-05-30T19:14:32Z</time>
      </trkpt>
      <trkpt lat="46.43121" lon="-0.18112">
        <ele>149.3</ele>
        <time>2020-05-30T19:14:33Z</time>
      </trkpt>
      <trkpt lat="46.43122" lon="-0.18111">
        <ele>149.4</ele>
        <time>2020-05-30T19:14:34Z</time>
      </trkpt>
      <trkpt lat="46.43123" lon="-0.1811">
        <ele>149.5</ele>
        <time>2020-05-30T19:14:35Z</time>
      </trkpt>
      <trkpt lat="46.43123" lon="-0.18108">
        <ele>149.6</ele>
        <time>2020-05-30T19:14:36Z</time>
      </trkpt>
      <trkpt lat="46.43124" lon="-0.18108">
        <ele>149.6</ele>
        <time>2020-05-30T19:14:37Z</time>
      </trkpt>
      <trkpt lat="46.43125" lon="-0.18107">
        <ele>149.7</ele>
        <time>2020-05-30T19:14:38Z</time>
      </trkpt>
      <trkpt lat="46.43126" lon="-0.18106">
        <ele>149.7</ele>
        <time>2020-05-30T19:14:39Z</time>
      </trkpt>
      <trkpt lat="46.43127" lon="-0.18104">
        <ele>149.9</ele>
        <time>2020-05-30T19:14:40Z</time>
      </trkpt>
      <trkpt lat="46.43127" lon="-0.18103">
        <ele>149.9</ele>
        <time>2020-05-30T19:14:41Z</time>
      </trkpt>
      <trkpt lat="46.43128" lon="-0.18103">
        <ele>149.9</ele>
        <time>2020-05-30T19:14:42Z</time>
      </trkpt>
      <trkpt lat="46.43128" lon="-0.18102">
        <ele>150</ele>
        <time>2020-05-30T19:14:43Z</time>
      </trkpt>
      <trkpt lat="46.43129" lon="-0.18102">
        <ele>150</ele>
        <time>2020-05-30T19:14:44Z</time>
      </trkpt>
      <trkpt lat="46.43129" lon="-0.18101">
        <ele>150.1</ele>
        <time>2020-05-30T19:14:45Z</time>
      </trkpt>
      <trkpt lat="46.4313" lon="-0.18101">
        <ele>150.1</ele>
        <time>2020-05-30T19:14:46Z</time>
      </trkpt>
      <trkpt lat="46.4313" lon="-0.18099">
        <ele>150.2</ele>
        <time>2020-05-30T19:14:47Z</time>
      </trkpt>
      <trkpt lat="46.43131" lon="-0.18097">
        <ele>150.2</ele>
        <time>2020-05-30T19:14:48Z</time>
      </trkpt>
      <trkpt lat="46.43133" lon="-0.18095">
        <ele>150.4</ele>
        <time>2020-05-30T19:14:49Z</time>
      </trkpt>
      <trkpt lat="46.43134" lon="-0.18094">
        <ele>150.4</ele>
        <time>2020-05-30T19:14:50Z</time>
      </trkpt>
      <trkpt lat="46.43135" lon="-0.18093">
        <ele>150.5</ele>
        <time>2020-05-30T19:14:51Z</time>
      </trkpt>
      <trkpt lat="46.43136" lon="-0.18093">
        <ele>150.5</ele>
        <time>2020-05-30T19:14:52Z</time>
      </trkpt>
      <trkpt lat="46.43138" lon="-0.18091">
        <ele>150.7</ele>
        <time>2020-05-30T19:14:53Z</time>
      </trkpt>
      <trkpt lat="46.43139" lon="-0.1809">
        <ele>150.7</ele>
        <time>2020-05-30T19:14:54Z</time>
      </trkpt>
      <trkpt lat="46.4314" lon="-0.1809">
        <ele>150.8</ele>
        <time>2020-05-30T19:14:55Z</time>
      </trkpt>
      <trkpt lat="46.4314" lon="-0.18089">
        <ele>150.8</ele>
        <time>2020-05-30T19:14:56Z</time>
      </trkpt>
      <trkpt lat="46.4314" lon="-0.18089">
        <ele>150.8</ele>
        <time>2020-05-30T19:14:57Z</time>
      </trkpt>
      <trkpt lat="46.4314" lon="-0.18089">
        <ele>150.9</ele>
        <time>2020-05-30T19:14:58Z</time>
      </trkpt>
      <trkpt lat="46.43141" lon="-0.18089">
        <ele>150.9</ele>
        <time>2020-05-30T19:14:59Z</time>
      </trkpt>
      <trkpt lat="46.43142" lon="-0.18088">
        <ele>150.9</ele>
        <time>2020-05-30T19:15:00Z</time>
      </trkpt>
      <trkpt lat="46.43142" lon="-0.18086">
        <ele>151</ele>
        <time>2020-05-30T19:15:01Z</time>
      </trkpt>
      <trkpt lat="46.43143" lon="-0.18085">
        <ele>151</ele>
        <time>2020-05-30T19:15:02Z</time>
      </trkpt>
      <trkpt lat="46.43144" lon="-0.18083">
        <ele>151.1</ele>
        <time>2020-05-30T19:15:03Z</time>
      </trkpt>
      <trkpt lat="46.43146" lon="-0.1808">
        <ele>151.2</ele>
        <time>2020-05-30T19:15:04Z</time>
      </trkpt>
      <trkpt lat="46.43147" lon="-0.18079">
        <ele>151.3</ele>
        <time>2020-05-30T19:15:05Z</time>
      </trkpt>
      <trkpt lat="46.43147" lon="-0.18077">
        <ele>151.3</ele>
        <time>2020-05-30T19:15:06Z</time>
      </trkpt>
      <trkpt lat="46.43148" lon="-0.18076">
        <ele>151.4</ele>
        <time>2020-05-30T19:15:07Z</time>
      </trkpt>
      <trkpt lat="46.43149" lon="-0.18075">
        <ele>151.4</ele>
        <time>2020-05-30T19:15:08Z</time>
      </trkpt>
      <trkpt lat="46.43149" lon="-0.18073">
        <ele>151.5</ele>
        <time>2020-05-30T19:15:09Z</time>
      </trkpt>
      <trkpt lat="46.4315" lon="-0.18072">
        <ele>151.5</ele>
        <time>2020-05-30T19:15:10Z</time>
      </trkpt>
      <trkpt lat="46.43152" lon="-0.18069">
        <ele>151.6</ele>
        <time>2020-05-30T19:15:11Z</time>
      </trkpt>
      <trkpt lat="46.43153" lon="-0.18068">
        <ele>151.7</ele>
        <time>2020-05-30T19:15:12Z</time>
      </trkpt>
      <trkpt lat="46.43153" lon="-0.18066">
        <ele>151.7</ele>
        <time>2020-05-30T19:15:13Z</time>
      </trkpt>
      <trkpt lat="46.43154" lon="-0.18064">
        <ele>151.8</ele>
        <time>2020-05-30T19:15:14Z</time>
      </trkpt>
      <trkpt lat="46.43155" lon="-0.18063">
        <ele>151.8</ele>
        <time>2020-05-30T19:15:15Z</time>
      </trkpt>
      <trkpt lat="46.43156" lon="-0.18062">
        <ele>151.8</ele>
        <time>2020-05-30T19:15:16Z</time>
      </trkpt>
      <trkpt lat="46.43156" lon="-0.1806">
        <ele>151.9</ele>
        <time>2020-05-30T19:15:17Z</time>
      </trkpt>
      <trkpt lat="46.43158" lon="-0.18057">
        <ele>151.9</ele>
        <time>2020-05-30T19:15:18Z</time>
      </trkpt>
      <trkpt lat="46.43159" lon="-0.18055">
        <ele>152</ele>
        <time>2020-05-30T19:15:19Z</time>
      </trkpt>
      <trkpt lat="46.4316" lon="-0.18054">
        <ele>152</ele>
        <time>2020-05-30T19:15:20Z</time>
      </trkpt>
      <trkpt lat="46.43161" lon="-0.18053">
        <ele>152.1</ele>
        <time>2020-05-30T19:15:21Z</time>
      </trkpt>
      <trkpt lat="46.43161" lon="-0.18053">
        <ele>152.1</ele>
        <time>2020-05-30T19:15:22Z</time>
      </trkpt>
      <trkpt lat="46.43162" lon="-0.18052">
        <ele>152.1</ele>
        <time>2020-05-30T19:15:23Z</time>
      </trkpt>
      <trkpt lat="46.4316" lon="-0.18051">
        <ele>152.2</ele>
        <time>2020-05-30T19:15:24Z</time>
      </trkpt>
      <trkpt lat="46.4316" lon="-0.18049">
        <ele>152.2</ele>
        <time>2020-05-30T19:15:25Z</time>
      </trkpt>
      <trkpt lat="46.4316" lon="-0.18049">
        <ele>152.2</ele>
        <time>2020-05-30T19:15:26Z</time>
      </trkpt>
      <trkpt lat="46.4316" lon="-0.18048">
        <ele>152.2</ele>
        <time>2020-05-30T19:15:27Z</time>
      </trkpt>
      <trkpt lat="46.4316" lon="-0.18047">
        <ele>152.2</ele>
        <time>2020-05-30T19:15:28Z</time>
      </trkpt>
      <trkpt lat="46.43161" lon="-0.18046">
        <ele>152.3</ele>
        <time>2020-05-30T19:15:29Z</time>
      </trkpt>
      <trkpt lat="46.43164" lon="-0.18044">
        <ele>152.4</ele>
        <time>2020-05-30T19:15:30Z</time>
      </trkpt>
      <trkpt lat="46.43164" lon="-0.18043">
        <ele>152.4</ele>
        <time>2020-05-30T19:15:31Z</time>
      </trkpt>
      <trkpt lat="46.43165" lon="-0.18041">
        <ele>152.4</ele>
        <time>2020-05-30T19:15:32Z</time>
      </trkpt>
      <trkpt lat="46.43166" lon="-0.18039">
        <ele>152.5</ele>
        <time>2020-05-30T19:15:33Z</time>
      </trkpt>
      <trkpt lat="46.43166" lon="-0.18036">
        <ele>152.5</ele>
        <time>2020-05-30T19:15:34Z</time>
      </trkpt>
      <trkpt lat="46.43167" lon="-0.18036">
        <ele>152.6</ele>
        <time>2020-05-30T19:15:35Z</time>
      </trkpt>
      <trkpt lat="46.43168" lon="-0.18035">
        <ele>152.6</ele>
        <time>2020-05-30T19:15:36Z</time>
      </trkpt>
      <trkpt lat="46.43169" lon="-0.18035">
        <ele>152.6</ele>
        <time>2020-05-30T19:15:37Z</time>
      </trkpt>
      <trkpt lat="46.4317" lon="-0.18034">
        <ele>152.7</ele>
        <time>2020-05-30T19:15:38Z</time>
      </trkpt>
      <trkpt lat="46.4317" lon="-0.18033">
        <ele>152.7</ele>
        <time>2020-05-30T19:15:39Z</time>
      </trkpt>
      <trkpt lat="46.43172" lon="-0.18031">
        <ele>152.8</ele>
        <time>2020-05-30T19:15:40Z</time>
      </trkpt>
      <trkpt lat="46.43172" lon="-0.1803">
        <ele>152.8</ele>
        <time>2020-05-30T19:15:41Z</time>
      </trkpt>
      <trkpt lat="46.43173" lon="-0.18029">
        <ele>152.8</ele>
        <time>2020-05-30T19:15:42Z</time>
      </trkpt>
      <trkpt lat="46.43174" lon="-0.18027">
        <ele>152.9</ele>
        <time>2020-05-30T19:15:43Z</time>
      </trkpt>
      <trkpt lat="46.43175" lon="-0.18025">
        <ele>152.9</ele>
        <time>2020-05-30T19:15:44Z</time>
      </trkpt>
      <trkpt lat="46.43176" lon="-0.18024">
        <ele>153</ele>
        <time>2020-05-30T19:15:45Z</time>
      </trkpt>
      <trkpt lat="46.43177" lon="-0.18021">
        <ele>153</ele>
        <time>2020-05-30T19:15:46Z</time>
      </trkpt>
      <trkpt lat="46.43178" lon="-0.1802">
        <ele>153.1</ele>
        <time>2020-05-30T19:15:47Z</time>
      </trkpt>
      <trkpt lat="46.43179" lon="-0.18018">
        <ele>153.1</ele>
        <time>2020-05-30T19:15:48Z</time>
      </trkpt>
      <trkpt lat="46.43179" lon="-0.18016">
        <ele>153.2</ele>
        <time>2020-05-30T19:15:49Z</time>
      </trkpt>
      <trkpt lat="46.4318" lon="-0.18014">
        <ele>153.2</ele>
        <time>2020-05-30T19:15:50Z</time>
      </trkpt>
      <trkpt lat="46.43181" lon="-0.18012">
        <ele>153.3</ele>
        <time>2020-05-30T19:15:51Z</time>
      </trkpt>
      <trkpt lat="46.43182" lon="-0.1801">
        <ele>153.3</ele>
        <time>2020-05-30T19:15:52Z</time>
      </trkpt>
      <trkpt lat="46.43184" lon="-0.18007">
        <ele>153.4</ele>
        <time>2020-05-30T19:15:53Z</time>
      </trkpt>
      <trkpt lat="46.43184" lon="-0.18006">
        <ele>153.4</ele>
        <time>2020-05-30T19:15:54Z</time>
      </trkpt>
      <trkpt lat="46.43186" lon="-0.18004">
        <ele>153.5</ele>
        <time>2020-05-30T19:15:55Z</time>
      </trkpt>
      <trkpt lat="46.43187" lon="-0.18003">
        <ele>153.5</ele>
        <time>2020-05-30T19:15:56Z</time>
      </trkpt>
      <trkpt lat="46.43188" lon="-0.18003">
        <ele>153.6</ele>
        <time>2020-05-30T19:15:57Z</time>
      </trkpt>
      <trkpt lat="46.43189" lon="-0.18001">
        <ele>153.6</ele>
        <time>2020-05-30T19:15:58Z</time>
      </trkpt>
      <trkpt lat="46.43189" lon="-0.18">
        <ele>153.6</ele>
        <time>2020-05-30T19:15:59Z</time>
      </trkpt>
      <trkpt lat="46.4319" lon="-0.17999">
        <ele>153.7</ele>
        <time>2020-05-30T19:16:00Z</time>
      </trkpt>
      <trkpt lat="46.4319" lon="-0.17998">
        <ele>153.7</ele>
        <time>2020-05-30T19:16:01Z</time>
      </trkpt>
      <trkpt lat="46.4319" lon="-0.17997">
        <ele>153.7</ele>
        <time>2020-05-30T19:16:02Z</time>
      </trkpt>
      <trkpt lat="46.4319" lon="-0.17998">
        <ele>153.7</ele>
        <time>2020-05-30T19:16:03Z</time>
      </trkpt>
      <trkpt lat="46.4319" lon="-0.17997">
        <ele>153.7</ele>
        <time>2020-05-30T19:16:04Z</time>
      </trkpt>
      <trkpt lat="46.4319" lon="-0.17996">
        <ele>153.8</ele>
        <time>2020-05-30T19:16:05Z</time>
      </trkpt>
      <trkpt lat="46.43191" lon="-0.17996">
        <ele>153.8</ele>
        <time>2020-05-30T19:16:06Z</time>
      </trkpt>
      <trkpt lat="46.43192" lon="-0.17994">
        <ele>153.8</ele>
        <time>2020-05-30T19:16:07Z</time>
      </trkpt>
      <trkpt lat="46.43193" lon="-0.17992">
        <ele>153.9</ele>
        <time>2020-05-30T19:16:08Z</time>
      </trkpt>
      <trkpt lat="46.43194" lon="-0.17989">
        <ele>153.9</ele>
        <time>2020-05-30T19:16:09Z</time>
      </trkpt>
      <trkpt lat="46.43194" lon="-0.17987">
        <ele>154</ele>
        <time>2020-05-30T19:16:10Z</time>
      </trkpt>
      <trkpt lat="46.43195" lon="-0.17986">
        <ele>154</ele>
        <time>2020-05-30T19:16:11Z</time>
      </trkpt>
      <trkpt lat="46.43196" lon="-0.17985">
        <ele>154</ele>
        <time>2020-05-30T19:16:12Z</time>
      </trkpt>
      <trkpt lat="46.43196" lon="-0.17984">
        <ele>154.1</ele>
        <time>2020-05-30T19:16:13Z</time>
      </trkpt>
      <trkpt lat="46.43197" lon="-0.17983">
        <ele>154.1</ele>
        <time>2020-05-30T19:16:14Z</time>
      </trkpt>
      <trkpt lat="46.43198" lon="-0.1798">
        <ele>154.2</ele>
        <time>2020-05-30T19:16:15Z</time>
      </trkpt>
      <trkpt lat="46.43199" lon="-0.17979">
        <ele>154.2</ele>
        <time>2020-05-30T19:16:16Z</time>
      </trkpt>
      <trkpt lat="46.43201" lon="-0.17976">
        <ele>154.3</ele>
        <time>2020-05-30T19:16:17Z</time>
      </trkpt>
      <trkpt lat="46.43202" lon="-0.17975">
        <ele>154.3</ele>
        <time>2020-05-30T19:16:18Z</time>
      </trkpt>
      <trkpt lat="46.43203" lon="-0.17974">
        <ele>154.3</ele>
        <time>2020-05-30T19:16:19Z</time>
      </trkpt>
      <trkpt lat="46.43204" lon="-0.17974">
        <ele>154.4</ele>
        <time>2020-05-30T19:16:20Z</time>
      </trkpt>
      <trkpt lat="46.43205" lon="-0.17972">
        <ele>154.4</ele>
        <time>2020-05-30T19:16:21Z</time>
      </trkpt>
      <trkpt lat="46.43205" lon="-0.1797">
        <ele>154.4</ele>
        <time>2020-05-30T19:16:22Z</time>
      </trkpt>
      <trkpt lat="46.43207" lon="-0.17968">
        <ele>154.5</ele>
        <time>2020-05-30T19:16:23Z</time>
      </trkpt>
      <trkpt lat="46.43208" lon="-0.17966">
        <ele>154.5</ele>
        <time>2020-05-30T19:16:24Z</time>
      </trkpt>
      <trkpt lat="46.43209" lon="-0.17964">
        <ele>154.6</ele>
        <time>2020-05-30T19:16:25Z</time>
      </trkpt>
      <trkpt lat="46.4321" lon="-0.17964">
        <ele>154.6</ele>
        <time>2020-05-30T19:16:26Z</time>
      </trkpt>
      <trkpt lat="46.4321" lon="-0.17962">
        <ele>154.6</ele>
        <time>2020-05-30T19:16:27Z</time>
      </trkpt>
      <trkpt lat="46.43211" lon="-0.17962">
        <ele>154.6</ele>
        <time>2020-05-30T19:16:28Z</time>
      </trkpt>
      <trkpt lat="46.43213" lon="-0.17959">
        <ele>154.7</ele>
        <time>2020-05-30T19:16:29Z</time>
      </trkpt>
      <trkpt lat="46.43213" lon="-0.17958">
        <ele>154.7</ele>
        <time>2020-05-30T19:16:30Z</time>
      </trkpt>
      <trkpt lat="46.43213" lon="-0.17957">
        <ele>154.7</ele>
        <time>2020-05-30T19:16:31Z</time>
      </trkpt>
      <trkpt lat="46.43214" lon="-0.17956">
        <ele>154.7</ele>
        <time>2020-05-30T19:16:32Z</time>
      </trkpt>
      <trkpt lat="46.43215" lon="-0.17954">
        <ele>154.8</ele>
        <time>2020-05-30T19:16:33Z</time>
      </trkpt>
      <trkpt lat="46.43216" lon="-0.17952">
        <ele>154.8</ele>
        <time>2020-05-30T19:16:34Z</time>
      </trkpt>
      <trkpt lat="46.43217" lon="-0.1795">
        <ele>154.8</ele>
        <time>2020-05-30T19:16:35Z</time>
      </trkpt>
      <trkpt lat="46.43217" lon="-0.17948">
        <ele>154.9</ele>
        <time>2020-05-30T19:16:36Z</time>
      </trkpt>
      <trkpt lat="46.43218" lon="-0.17946">
        <ele>154.9</ele>
        <time>2020-05-30T19:16:37Z</time>
      </trkpt>
      <trkpt lat="46.43219" lon="-0.17945">
        <ele>154.9</ele>
        <time>2020-05-30T19:16:38Z</time>
      </trkpt>
      <trkpt lat="46.4322" lon="-0.17944">
        <ele>155</ele>
        <time>2020-05-30T19:16:39Z</time>
      </trkpt>
      <trkpt lat="46.43221" lon="-0.17944">
        <ele>155</ele>
        <time>2020-05-30T19:16:40Z</time>
      </trkpt>
      <trkpt lat="46.43221" lon="-0.17942">
        <ele>155</ele>
        <time>2020-05-30T19:16:41Z</time>
      </trkpt>
      <trkpt lat="46.43223" lon="-0.1794">
        <ele>155.1</ele>
        <time>2020-05-30T19:16:42Z</time>
      </trkpt>
      <trkpt lat="46.43225" lon="-0.17938">
        <ele>155.1</ele>
        <time>2020-05-30T19:16:43Z</time>
      </trkpt>
      <trkpt lat="46.43225" lon="-0.17938">
        <ele>155.1</ele>
        <time>2020-05-30T19:16:44Z</time>
      </trkpt>
      <trkpt lat="46.43226" lon="-0.17937">
        <ele>155.1</ele>
        <time>2020-05-30T19:16:45Z</time>
      </trkpt>
      <trkpt lat="46.43227" lon="-0.17935">
        <ele>155.2</ele>
        <time>2020-05-30T19:16:46Z</time>
      </trkpt>
      <trkpt lat="46.43227" lon="-0.17933">
        <ele>155.2</ele>
        <time>2020-05-30T19:16:47Z</time>
      </trkpt>
      <trkpt lat="46.43228" lon="-0.17932">
        <ele>155.2</ele>
        <time>2020-05-30T19:16:48Z</time>
      </trkpt>
      <trkpt lat="46.43229" lon="-0.17931">
        <ele>155.3</ele>
        <time>2020-05-30T19:16:49Z</time>
      </trkpt>
      <trkpt lat="46.4323" lon="-0.1793">
        <ele>155.3</ele>
        <time>2020-05-30T19:16:50Z</time>
      </trkpt>
      <trkpt lat="46.4323" lon="-0.17929">
        <ele>155.3</ele>
        <time>2020-05-30T19:16:51Z</time>
      </trkpt>
      <trkpt lat="46.43231" lon="-0.17928">
        <ele>155.3</ele>
        <time>2020-05-30T19:16:52Z</time>
      </trkpt>
      <trkpt lat="46.43232" lon="-0.17927">
        <ele>155.4</ele>
        <time>2020-05-30T19:16:53Z</time>
      </trkpt>
      <trkpt lat="46.43233" lon="-0.17926">
        <ele>155.4</ele>
        <time>2020-05-30T19:16:54Z</time>
      </trkpt>
      <trkpt lat="46.43233" lon="-0.17925">
        <ele>155.4</ele>
        <time>2020-05-30T19:16:55Z</time>
      </trkpt>
      <trkpt lat="46.43234" lon="-0.17924">
        <ele>155.4</ele>
        <time>2020-05-30T19:16:56Z</time>
      </trkpt>
      <trkpt lat="46.43235" lon="-0.17924">
        <ele>155.5</ele>
        <time>2020-05-30T19:16:57Z</time>
      </trkpt>
      <trkpt lat="46.43236" lon="-0.17922">
        <ele>155.5</ele>
        <time>2020-05-30T19:16:58Z</time>
      </trkpt>
      <trkpt lat="46.43237" lon="-0.17922">
        <ele>155.5</ele>
        <time>2020-05-30T19:16:59Z</time>
      </trkpt>
      <trkpt lat="46.43239" lon="-0.17918">
        <ele>155.6</ele>
        <time>2020-05-30T19:17:00Z</time>
      </trkpt>
      <trkpt lat="46.43239" lon="-0.17918">
        <ele>155.6</ele>
        <time>2020-05-30T19:17:01Z</time>
      </trkpt>
      <trkpt lat="46.4324" lon="-0.17917">
        <ele>155.6</ele>
        <time>2020-05-30T19:17:02Z</time>
      </trkpt>
      <trkpt lat="46.43241" lon="-0.17915">
        <ele>155.6</ele>
        <time>2020-05-30T19:17:03Z</time>
      </trkpt>
      <trkpt lat="46.43241" lon="-0.17914">
        <ele>155.6</ele>
        <time>2020-05-30T19:17:04Z</time>
      </trkpt>
      <trkpt lat="46.43241" lon="-0.17913">
        <ele>155.7</ele>
        <time>2020-05-30T19:17:05Z</time>
      </trkpt>
      <trkpt lat="46.43242" lon="-0.17913">
        <ele>155.7</ele>
        <time>2020-05-30T19:17:06Z</time>
      </trkpt>
      <trkpt lat="46.43243" lon="-0.17912">
        <ele>155.7</ele>
        <time>2020-05-30T19:17:07Z</time>
      </trkpt>
      <trkpt lat="46.43244" lon="-0.17911">
        <ele>155.7</ele>
        <time>2020-05-30T19:17:08Z</time>
      </trkpt>
      <trkpt lat="46.43245" lon="-0.17909">
        <ele>155.7</ele>
        <time>2020-05-30T19:17:09Z</time>
      </trkpt>
      <trkpt lat="46.43245" lon="-0.17909">
        <ele>155.8</ele>
        <time>2020-05-30T19:17:10Z</time>
      </trkpt>
      <trkpt lat="46.43246" lon="-0.17908">
        <ele>155.8</ele>
        <time>2020-05-30T19:17:11Z</time>
      </trkpt>
      <trkpt lat="46.43247" lon="-0.17904">
        <ele>155.8</ele>
        <time>2020-05-30T19:17:12Z</time>
      </trkpt>
      <trkpt lat="46.43247" lon="-0.17903">
        <ele>155.9</ele>
        <time>2020-05-30T19:17:13Z</time>
      </trkpt>
      <trkpt lat="46.43248" lon="-0.179">
        <ele>155.9</ele>
        <time>2020-05-30T19:17:14Z</time>
      </trkpt>
      <trkpt lat="46.43249" lon="-0.17899">
        <ele>155.9</ele>
        <time>2020-05-30T19:17:15Z</time>
      </trkpt>
      <trkpt lat="46.4325" lon="-0.17898">
        <ele>155.9</ele>
        <time>2020-05-30T19:17:16Z</time>
      </trkpt>
      <trkpt lat="46.43251" lon="-0.17897">
        <ele>155.9</ele>
        <time>2020-05-30T19:17:17Z</time>
      </trkpt>
      <trkpt lat="46.43251" lon="-0.17896">
        <ele>155.9</ele>
        <time>2020-05-30T19:17:18Z</time>
      </trkpt>
      <trkpt lat="46.43252" lon="-0.17895">
        <ele>156</ele>
        <time>2020-05-30T19:17:19Z</time>
      </trkpt>
      <trkpt lat="46.43253" lon="-0.17894">
        <ele>156</ele>
        <time>2020-05-30T19:17:20Z</time>
      </trkpt>
      <trkpt lat="46.43254" lon="-0.17893">
        <ele>156</ele>
        <time>2020-05-30T19:17:21Z</time>
      </trkpt>
      <trkpt lat="46.43253" lon="-0.17892">
        <ele>156</ele>
        <time>2020-05-30T19:17:22Z</time>
      </trkpt>
      <trkpt lat="46.43254" lon="-0.17891">
        <ele>156</ele>
        <time>2020-05-30T19:17:23Z</time>
      </trkpt>
      <trkpt lat="46.43253" lon="-0.17891">
        <ele>156</ele>
        <time>2020-05-30T19:17:24Z</time>
      </trkpt>
      <trkpt lat="46.43254" lon="-0.1789">
        <ele>156</ele>
        <time>2020-05-30T19:17:25Z</time>
      </trkpt>
      <trkpt lat="46.43255" lon="-0.17888">
        <ele>156.1</ele>
        <time>2020-05-30T19:17:26Z</time>
      </trkpt>
      <trkpt lat="46.43256" lon="-0.17887">
        <ele>156.1</ele>
        <time>2020-05-30T19:17:27Z</time>
      </trkpt>
      <trkpt lat="46.43257" lon="-0.17886">
        <ele>156.1</ele>
        <time>2020-05-30T19:17:28Z</time>
      </trkpt>
      <trkpt lat="46.43258" lon="-0.17885">
        <ele>156.1</ele>
        <time>2020-05-30T19:17:29Z</time>
      </trkpt>
      <trkpt lat="46.43259" lon="-0.17884">
        <ele>156.1</ele>
        <time>2020-05-30T19:17:30Z</time>
      </trkpt>
      <trkpt lat="46.4326" lon="-0.17883">
        <ele>156.1</ele>
        <time>2020-05-30T19:17:31Z</time>
      </trkpt>
      <trkpt lat="46.43261" lon="-0.17882">
        <ele>156.1</ele>
        <time>2020-05-30T19:17:32Z</time>
      </trkpt>
      <trkpt lat="46.43261" lon="-0.1788">
        <ele>156.2</ele>
        <time>2020-05-30T19:17:33Z</time>
      </trkpt>
      <trkpt lat="46.43262" lon="-0.17879">
        <ele>156.2</ele>
        <time>2020-05-30T19:17:34Z</time>
      </trkpt>
      <trkpt lat="46.43263" lon="-0.17878">
        <ele>156.2</ele>
        <time>2020-05-30T19:17:35Z</time>
      </trkpt>
      <trkpt lat="46.43263" lon="-0.17877">
        <ele>156.2</ele>
        <time>2020-05-30T19:17:36Z</time>
      </trkpt>
      <trkpt lat="46.43265" lon="-0.17874">
        <ele>156.2</ele>
        <time>2020-05-30T19:17:37Z</time>
      </trkpt>
      <trkpt lat="46.43266" lon="-0.17873">
        <ele>156.2</ele>
        <time>2020-05-30T19:17:38Z</time>
      </trkpt>
      <trkpt lat="46.43267" lon="-0.17871">
        <ele>156.3</ele>
        <time>2020-05-30T19:17:39Z</time>
      </trkpt>
      <trkpt lat="46.4327" lon="-0.17867">
        <ele>156.3</ele>
        <time>2020-05-30T19:17:40Z</time>
      </trkpt>
      <trkpt lat="46.43271" lon="-0.17866">
        <ele>156.3</ele>
        <time>2020-05-30T19:17:41Z</time>
      </trkpt>
      <trkpt lat="46.43272" lon="-0.17864">
        <ele>156.3</ele>
        <time>2020-05-30T19:17:42Z</time>
      </trkpt>
      <trkpt lat="46.43273" lon="-0.17861">
        <ele>156.4</ele>
        <time>2020-05-30T19:17:43Z</time>
      </trkpt>
      <trkpt lat="46.43274" lon="-0.17859">
        <ele>156.4</ele>
        <time>2020-05-30T19:17:44Z</time>
      </trkpt>
      <trkpt lat="46.43275" lon="-0.17859">
        <ele>156.4</ele>
        <time>2020-05-30T19:17:45Z</time>
      </trkpt>
      <trkpt lat="46.43276" lon="-0.17858">
        <ele>156.4</ele>
        <time>2020-05-30T19:17:46Z</time>
      </trkpt>
      <trkpt lat="46.43278" lon="-0.17856">
        <ele>156.4</ele>
        <time>2020-05-30T19:17:47Z</time>
      </trkpt>
      <trkpt lat="46.43278" lon="-0.17855">
        <ele>156.4</ele>
        <time>2020-05-30T19:17:48Z</time>
      </trkpt>
      <trkpt lat="46.43279" lon="-0.17853">
        <ele>156.5</ele>
        <time>2020-05-30T19:17:49Z</time>
      </trkpt>
      <trkpt lat="46.43281" lon="-0.17851">
        <ele>156.5</ele>
        <time>2020-05-30T19:17:50Z</time>
      </trkpt>
      <trkpt lat="46.43282" lon="-0.17851">
        <ele>156.5</ele>
        <time>2020-05-30T19:17:51Z</time>
      </trkpt>
      <trkpt lat="46.43282" lon="-0.1785">
        <ele>156.5</ele>
        <time>2020-05-30T19:17:52Z</time>
      </trkpt>
      <trkpt lat="46.43283" lon="-0.17851">
        <ele>156.5</ele>
        <time>2020-05-30T19:17:53Z</time>
      </trkpt>
      <trkpt lat="46.43284" lon="-0.1785">
        <ele>156.5</ele>
        <time>2020-05-30T19:17:54Z</time>
      </trkpt>
      <trkpt lat="46.43284" lon="-0.1785">
        <ele>156.5</ele>
        <time>2020-05-30T19:17:55Z</time>
      </trkpt>
      <trkpt lat="46.43284" lon="-0.17849">
        <ele>156.5</ele>
        <time>2020-05-30T19:17:56Z</time>
      </trkpt>
      <trkpt lat="46.43285" lon="-0.17849">
        <ele>156.5</ele>
        <time>2020-05-30T19:17:57Z</time>
      </trkpt>
      <trkpt lat="46.43285" lon="-0.17848">
        <ele>156.5</ele>
        <time>2020-05-30T19:17:58Z</time>
      </trkpt>
      <trkpt lat="46.43285" lon="-0.17847">
        <ele>156.5</ele>
        <time>2020-05-30T19:17:59Z</time>
      </trkpt>
      <trkpt lat="46.43287" lon="-0.17844">
        <ele>156.6</ele>
        <time>2020-05-30T19:18:00Z</time>
      </trkpt>
      <trkpt lat="46.43287" lon="-0.17843">
        <ele>156.6</ele>
        <time>2020-05-30T19:18:01Z</time>
      </trkpt>
      <trkpt lat="46.43287" lon="-0.17842">
        <ele>156.6</ele>
        <time>2020-05-30T19:18:02Z</time>
      </trkpt>
      <trkpt lat="46.43288" lon="-0.17841">
        <ele>156.6</ele>
        <time>2020-05-30T19:18:03Z</time>
      </trkpt>
      <trkpt lat="46.43289" lon="-0.17839">
        <ele>156.6</ele>
        <time>2020-05-30T19:18:04Z</time>
      </trkpt>
      <trkpt lat="46.4329" lon="-0.17839">
        <ele>156.6</ele>
        <time>2020-05-30T19:18:05Z</time>
      </trkpt>
      <trkpt lat="46.43291" lon="-0.17835">
        <ele>156.6</ele>
        <time>2020-05-30T19:18:06Z</time>
      </trkpt>
      <trkpt lat="46.43292" lon="-0.17834">
        <ele>156.6</ele>
        <time>2020-05-30T19:18:07Z</time>
      </trkpt>
      <trkpt lat="46.43293" lon="-0.17831">
        <ele>156.6</ele>
        <time>2020-05-30T19:18:08Z</time>
      </trkpt>
      <trkpt lat="46.43294" lon="-0.17829">
        <ele>156.6</ele>
        <time>2020-05-30T19:18:09Z</time>
      </trkpt>
      <trkpt lat="46.43296" lon="-0.17826">
        <ele>156.7</ele>
        <time>2020-05-30T19:18:10Z</time>
      </trkpt>
      <trkpt lat="46.43297" lon="-0.17826">
        <ele>156.7</ele>
        <time>2020-05-30T19:18:11Z</time>
      </trkpt>
      <trkpt lat="46.43299" lon="-0.17823">
        <ele>156.7</ele>
        <time>2020-05-30T19:18:12Z</time>
      </trkpt>
      <trkpt lat="46.43301" lon="-0.17817">
        <ele>156.7</ele>
        <time>2020-05-30T19:18:13Z</time>
      </trkpt>
      <trkpt lat="46.43303" lon="-0.17814">
        <ele>156.8</ele>
        <time>2020-05-30T19:18:14Z</time>
      </trkpt>
      <trkpt lat="46.43306" lon="-0.1781">
        <ele>156.8</ele>
        <time>2020-05-30T19:18:15Z</time>
      </trkpt>
      <trkpt lat="46.43308" lon="-0.17806">
        <ele>156.8</ele>
        <time>2020-05-30T19:18:16Z</time>
      </trkpt>
      <trkpt lat="46.43311" lon="-0.17803">
        <ele>156.8</ele>
        <time>2020-05-30T19:18:17Z</time>
      </trkpt>
      <trkpt lat="46.43314" lon="-0.17798">
        <ele>156.9</ele>
        <time>2020-05-30T19:18:18Z</time>
      </trkpt>
      <trkpt lat="46.43317" lon="-0.17794">
        <ele>156.9</ele>
        <time>2020-05-30T19:18:19Z</time>
      </trkpt>
      <trkpt lat="46.43321" lon="-0.1779">
        <ele>157</ele>
        <time>2020-05-30T19:18:20Z</time>
      </trkpt>
      <trkpt lat="46.43322" lon="-0.17789">
        <ele>157</ele>
        <time>2020-05-30T19:18:21Z</time>
      </trkpt>
      <trkpt lat="46.43325" lon="-0.17786">
        <ele>157</ele>
        <time>2020-05-30T19:18:22Z</time>
      </trkpt>
      <trkpt lat="46.43328" lon="-0.17784">
        <ele>157</ele>
        <time>2020-05-30T19:18:23Z</time>
      </trkpt>
      <trkpt lat="46.43331" lon="-0.17782">
        <ele>157.1</ele>
        <time>2020-05-30T19:18:24Z</time>
      </trkpt>
      <trkpt lat="46.43334" lon="-0.17779">
        <ele>157.1</ele>
        <time>2020-05-30T19:18:25Z</time>
      </trkpt>
      <trkpt lat="46.43338" lon="-0.17776">
        <ele>157.1</ele>
        <time>2020-05-30T19:18:26Z</time>
      </trkpt>
      <trkpt lat="46.43342" lon="-0.17773">
        <ele>157.1</ele>
        <time>2020-05-30T19:18:27Z</time>
      </trkpt>
      <trkpt lat="46.43345" lon="-0.1777">
        <ele>157.1</ele>
        <time>2020-05-30T19:18:28Z</time>
      </trkpt>
      <trkpt lat="46.43347" lon="-0.17769">
        <ele>157.1</ele>
        <time>2020-05-30T19:18:29Z</time>
      </trkpt>
      <trkpt lat="46.43349" lon="-0.17766">
        <ele>157.1</ele>
        <time>2020-05-30T19:18:30Z</time>
      </trkpt>
      <trkpt lat="46.43353" lon="-0.17762">
        <ele>157.2</ele>
        <time>2020-05-30T19:18:31Z</time>
      </trkpt>
      <trkpt lat="46.43355" lon="-0.17761">
        <ele>157.2</ele>
        <time>2020-05-30T19:18:32Z</time>
      </trkpt>
      <trkpt lat="46.43359" lon="-0.17759">
        <ele>157.2</ele>
        <time>2020-05-30T19:18:33Z</time>
      </trkpt>
      <trkpt lat="46.43362" lon="-0.17758">
        <ele>157.2</ele>
        <time>2020-05-30T19:18:34Z</time>
      </trkpt>
      <trkpt lat="46.43365" lon="-0.17755">
        <ele>157.1</ele>
        <time>2020-05-30T19:18:35Z</time>
      </trkpt>
      <trkpt lat="46.43368" lon="-0.17752">
        <ele>157.1</ele>
        <time>2020-05-30T19:18:36Z</time>
      </trkpt>
      <trkpt lat="46.43372" lon="-0.17749">
        <ele>157.1</ele>
        <time>2020-05-30T19:18:37Z</time>
      </trkpt>
      <trkpt lat="46.43375" lon="-0.17745">
        <ele>157.1</ele>
        <time>2020-05-30T19:18:38Z</time>
      </trkpt>
      <trkpt lat="46.43378" lon="-0.17742">
        <ele>157.1</ele>
        <time>2020-05-30T19:18:39Z</time>
      </trkpt>
      <trkpt lat="46.43381" lon="-0.17739">
        <ele>157</ele>
        <time>2020-05-30T19:18:40Z</time>
      </trkpt>
      <trkpt lat="46.43384" lon="-0.17737">
        <ele>157</ele>
        <time>2020-05-30T19:18:41Z</time>
      </trkpt>
      <trkpt lat="46.43387" lon="-0.17734">
        <ele>157</ele>
        <time>2020-05-30T19:18:42Z</time>
      </trkpt>
      <trkpt lat="46.43389" lon="-0.1773">
        <ele>156.9</ele>
        <time>2020-05-30T19:18:43Z</time>
      </trkpt>
      <trkpt lat="46.43394" lon="-0.17729">
        <ele>156.9</ele>
        <time>2020-05-30T19:18:44Z</time>
      </trkpt>
      <trkpt lat="46.43398" lon="-0.17727">
        <ele>156.8</ele>
        <time>2020-05-30T19:18:45Z</time>
      </trkpt>
      <trkpt lat="46.43402" lon="-0.17723">
        <ele>156.8</ele>
        <time>2020-05-30T19:18:46Z</time>
      </trkpt>
      <trkpt lat="46.43405" lon="-0.17719">
        <ele>156.7</ele>
        <time>2020-05-30T19:18:47Z</time>
      </trkpt>
      <trkpt lat="46.43409" lon="-0.17718">
        <ele>156.7</ele>
        <time>2020-05-30T19:18:48Z</time>
      </trkpt>
      <trkpt lat="46.43412" lon="-0.17715">
        <ele>156.7</ele>
        <time>2020-05-30T19:18:49Z</time>
      </trkpt>
      <trkpt lat="46.43415" lon="-0.17713">
        <ele>156.6</ele>
        <time>2020-05-30T19:18:50Z</time>
      </trkpt>
      <trkpt lat="46.43418" lon="-0.17712">
        <ele>156.6</ele>
        <time>2020-05-30T19:18:51Z</time>
      </trkpt>
      <trkpt lat="46.43422" lon="-0.1771">
        <ele>156.6</ele>
        <time>2020-05-30T19:18:52Z</time>
      </trkpt>
      <trkpt lat="46.43425" lon="-0.17707">
        <ele>156.5</ele>
        <time>2020-05-30T19:18:53Z</time>
      </trkpt>
      <trkpt lat="46.43428" lon="-0.17705">
        <ele>156.5</ele>
        <time>2020-05-30T19:18:54Z</time>
      </trkpt>
      <trkpt lat="46.43431" lon="-0.17703">
        <ele>156.5</ele>
        <time>2020-05-30T19:18:55Z</time>
      </trkpt>
      <trkpt lat="46.43435" lon="-0.17701">
        <ele>156.4</ele>
        <time>2020-05-30T19:18:56Z</time>
      </trkpt>
      <trkpt lat="46.43438" lon="-0.17699">
        <ele>156.4</ele>
        <time>2020-05-30T19:18:57Z</time>
      </trkpt>
      <trkpt lat="46.43441" lon="-0.17697">
        <ele>156.3</ele>
        <time>2020-05-30T19:18:58Z</time>
      </trkpt>
      <trkpt lat="46.43445" lon="-0.17695">
        <ele>156.3</ele>
        <time>2020-05-30T19:18:59Z</time>
      </trkpt>
      <trkpt lat="46.43447" lon="-0.17692">
        <ele>156.2</ele>
        <time>2020-05-30T19:19:00Z</time>
      </trkpt>
      <trkpt lat="46.4345" lon="-0.1769">
        <ele>156.2</ele>
        <time>2020-05-30T19:19:01Z</time>
      </trkpt>
      <trkpt lat="46.43453" lon="-0.17689">
        <ele>156.1</ele>
        <time>2020-05-30T19:19:02Z</time>
      </trkpt>
      <trkpt lat="46.43456" lon="-0.17689">
        <ele>156.1</ele>
        <time>2020-05-30T19:19:03Z</time>
      </trkpt>
      <trkpt lat="46.43459" lon="-0.17688">
        <ele>156.1</ele>
        <time>2020-05-30T19:19:04Z</time>
      </trkpt>
      <trkpt lat="46.43463" lon="-0.17686">
        <ele>156</ele>
        <time>2020-05-30T19:19:05Z</time>
      </trkpt>
      <trkpt lat="46.43465" lon="-0.17685">
        <ele>155.9</ele>
        <time>2020-05-30T19:19:06Z</time>
      </trkpt>
      <trkpt lat="46.43468" lon="-0.17684">
        <ele>156</ele>
        <time>2020-05-30T19:19:07Z</time>
      </trkpt>
      <trkpt lat="46.43469" lon="-0.17685">
        <ele>156</ele>
        <time>2020-05-30T19:19:08Z</time>
      </trkpt>
      <trkpt lat="46.4347" lon="-0.17684">
        <ele>156</ele>
        <time>2020-05-30T19:19:09Z</time>
      </trkpt>
      <trkpt lat="46.4347" lon="-0.17684">
        <ele>156</ele>
        <time>2020-05-30T19:19:10Z</time>
      </trkpt>
      <trkpt lat="46.43469" lon="-0.17684">
        <ele>156</ele>
        <time>2020-05-30T19:19:11Z</time>
      </trkpt>
      <trkpt lat="46.43469" lon="-0.17683">
        <ele>156</ele>
        <time>2020-05-30T19:19:12Z</time>
      </trkpt>
      <trkpt lat="46.43469" lon="-0.17683">
        <ele>156</ele>
        <time>2020-05-30T19:19:13Z</time>
      </trkpt>
      <trkpt lat="46.43469" lon="-0.17683">
        <ele>156</ele>
        <time>2020-05-30T19:19:14Z</time>
      </trkpt>
      <trkpt lat="46.43469" lon="-0.17683">
        <ele>156</ele>
        <time>2020-05-30T19:19:15Z</time>
      </trkpt>
      <trkpt lat="46.43469" lon="-0.17684">
        <ele>156</ele>
        <time>2020-05-30T19:19:16Z</time>
      </trkpt>
      <trkpt lat="46.43469" lon="-0.17684">
        <ele>156</ele>
        <time>2020-05-30T19:19:17Z</time>
      </trkpt>
      <trkpt lat="46.43469" lon="-0.17684">
        <ele>156</ele>
        <time>2020-05-30T19:19:18Z</time>
      </trkpt>
      <trkpt lat="46.43469" lon="-0.17684">
        <ele>156</ele>
        <time>2020-05-30T19:19:19Z</time>
      </trkpt>
      <trkpt lat="46.43469" lon="-0.17684">
        <ele>156</ele>
        <time>2020-05-30T19:19:20Z</time>
      </trkpt>
      <trkpt lat="46.43469" lon="-0.17684">
        <ele>156</ele>
        <time>2020-05-30T19:19:21Z</time>
      </trkpt>
      <trkpt lat="46.43468" lon="-0.17685">
        <ele>156</ele>
        <time>2020-05-30T19:19:22Z</time>
      </trkpt>
      <trkpt lat="46.43468" lon="-0.17685">
        <ele>156.1</ele>
        <time>2020-05-30T19:19:23Z</time>
      </trkpt>
      <trkpt lat="46.43468" lon="-0.17685">
        <ele>156.1</ele>
        <time>2020-05-30T19:19:24Z</time>
      </trkpt>
      <trkpt lat="46.43468" lon="-0.17685">
        <ele>156.1</ele>
        <time>2020-05-30T19:19:25Z</time>
      </trkpt>
      <trkpt lat="46.43469" lon="-0.17685">
        <ele>156.1</ele>
        <time>2020-05-30T19:19:26Z</time>
      </trkpt>
      <trkpt lat="46.43469" lon="-0.17685">
        <ele>156.1</ele>
        <time>2020-05-30T19:19:27Z</time>
      </trkpt>
      <trkpt lat="46.43469" lon="-0.17685">
        <ele>156.1</ele>
        <time>2020-05-30T19:19:28Z</time>
      </trkpt>
      <trkpt lat="46.43469" lon="-0.17685">
        <ele>156.1</ele>
        <time>2020-05-30T19:19:29Z</time>
      </trkpt>
      <trkpt lat="46.43469" lon="-0.17685">
        <ele>156.1</ele>
        <time>2020-05-30T19:19:30Z</time>
      </trkpt>
      <trkpt lat="46.43469" lon="-0.17685">
        <ele>156.1</ele>
        <time>2020-05-30T19:19:31Z</time>
      </trkpt>
      <trkpt lat="46.43469" lon="-0.17685">
        <ele>156.1</ele>
        <time>2020-05-30T19:19:32Z</time>
      </trkpt>
      <trkpt lat="46.43469" lon="-0.17685">
        <ele>156.1</ele>
        <time>2020-05-30T19:19:33Z</time>
      </trkpt>
      <trkpt lat="46.43469" lon="-0.17685">
        <ele>156.1</ele>
        <time>2020-05-30T19:19:34Z</time>
      </trkpt>
      <trkpt lat="46.43469" lon="-0.17685">
        <ele>156.1</ele>
        <time>2020-05-30T19:19:35Z</time>
      </trkpt>
      <trkpt lat="46.43469" lon="-0.17685">
        <ele>156.1</ele>
        <time>2020-05-30T19:19:36Z</time>
      </trkpt>
      <trkpt lat="46.43469" lon="-0.17685">
        <ele>156.1</ele>
        <time>2020-05-30T19:19:37Z</time>
      </trkpt>
      <trkpt lat="46.43469" lon="-0.17685">
        <ele>156.1</ele>
        <time>2020-05-30T19:19:38Z</time>
      </trkpt>
      <trkpt lat="46.43469" lon="-0.17685">
        <ele>156.1</ele>
        <time>2020-05-30T19:19:39Z</time>
      </trkpt>
      <trkpt lat="46.43469" lon="-0.17685">
        <ele>156.1</ele>
        <time>2020-05-30T19:19:40Z</time>
      </trkpt>
      <trkpt lat="46.43469" lon="-0.17685">
        <ele>156.1</ele>
        <time>2020-05-30T19:19:41Z</time>
      </trkpt>
      <trkpt lat="46.43469" lon="-0.17685">
        <ele>156.1</ele>
        <time>2020-05-30T19:19:42Z</time>
      </trkpt>
      <trkpt lat="46.43469" lon="-0.17685">
        <ele>156.1</ele>
        <time>2020-05-30T19:19:43Z</time>
      </trkpt>
      <trkpt lat="46.43469" lon="-0.17685">
        <ele>156.1</ele>
        <time>2020-05-30T19:19:44Z</time>
      </trkpt>
      <trkpt lat="46.43469" lon="-0.17685">
        <ele>156.1</ele>
        <time>2020-05-30T19:19:45Z</time>
      </trkpt>
      <trkpt lat="46.43469" lon="-0.17685">
        <ele>156.1</ele>
        <time>2020-05-30T19:19:46Z</time>
      </trkpt>
      <trkpt lat="46.43469" lon="-0.17685">
        <ele>156.1</ele>
        <time>2020-05-30T19:19:47Z</time>
      </trkpt>
      <trkpt lat="46.43469" lon="-0.17685">
        <ele>156.1</ele>
        <time>2020-05-30T19:19:48Z</time>
      </trkpt>
      <trkpt lat="46.43469" lon="-0.17685">
        <ele>156.1</ele>
        <time>2020-05-30T19:19:49Z</time>
      </trkpt>
      <trkpt lat="46.43469" lon="-0.17685">
        <ele>156.1</ele>
        <time>2020-05-30T19:19:50Z</time>
      </trkpt>
      <trkpt lat="46.43469" lon="-0.17685">
        <ele>156.1</ele>
        <time>2020-05-30T19:19:51Z</time>
      </trkpt>
      <trkpt lat="46.43469" lon="-0.17685">
        <ele>156.1</ele>
        <time>2020-05-30T19:19:52Z</time>
      </trkpt>
      <trkpt lat="46.43469" lon="-0.17685">
        <ele>156.1</ele>
        <time>2020-05-30T19:19:53Z</time>
      </trkpt>
      <trkpt lat="46.43469" lon="-0.17685">
        <ele>156.1</ele>
        <time>2020-05-30T19:19:54Z</time>
      </trkpt>
      <trkpt lat="46.43469" lon="-0.17685">
        <ele>156.1</ele>
        <time>2020-05-30T19:19:55Z</time>
      </trkpt>
      <trkpt lat="46.4347" lon="-0.17685">
        <ele>156.1</ele>
        <time>2020-05-30T19:19:56Z</time>
      </trkpt>
      <trkpt lat="46.4347" lon="-0.17685">
        <ele>156.1</ele>
        <time>2020-05-30T19:19:57Z</time>
      </trkpt>
      <trkpt lat="46.4347" lon="-0.17685">
        <ele>156.1</ele>
        <time>2020-05-30T19:19:58Z</time>
      </trkpt>
      <trkpt lat="46.4347" lon="-0.17686">
        <ele>156.1</ele>
        <time>2020-05-30T19:19:59Z</time>
      </trkpt>
      <trkpt lat="46.4347" lon="-0.17686">
        <ele>156.1</ele>
        <time>2020-05-30T19:20:00Z</time>
      </trkpt>
      <trkpt lat="46.4347" lon="-0.17686">
        <ele>156.1</ele>
        <time>2020-05-30T19:20:01Z</time>
      </trkpt>
      <trkpt lat="46.4347" lon="-0.17686">
        <ele>156.1</ele>
        <time>2020-05-30T19:20:02Z</time>
      </trkpt>
      <trkpt lat="46.4347" lon="-0.17686">
        <ele>156.1</ele>
        <time>2020-05-30T19:20:03Z</time>
      </trkpt>
      <trkpt lat="46.4347" lon="-0.17686">
        <ele>156.1</ele>
        <time>2020-05-30T19:20:04Z</time>
      </trkpt>
      <trkpt lat="46.4347" lon="-0.17686">
        <ele>156.1</ele>
        <time>2020-05-30T19:20:05Z</time>
      </trkpt>
      <trkpt lat="46.4347" lon="-0.17686">
        <ele>156.1</ele>
        <time>2020-05-30T19:20:06Z</time>
      </trkpt>
      <trkpt lat="46.4347" lon="-0.17685">
        <ele>156.1</ele>
        <time>2020-05-30T19:20:07Z</time>
      </trkpt>
      <trkpt lat="46.4347" lon="-0.17685">
        <ele>156.1</ele>
        <time>2020-05-30T19:20:08Z</time>
      </trkpt>
      <trkpt lat="46.43471" lon="-0.17686">
        <ele>156.1</ele>
        <time>2020-05-30T19:20:09Z</time>
      </trkpt>
      <trkpt lat="46.43471" lon="-0.17686">
        <ele>156.1</ele>
        <time>2020-05-30T19:20:10Z</time>
      </trkpt>
      <trkpt lat="46.43472" lon="-0.17689">
        <ele>156.2</ele>
        <time>2020-05-30T19:20:11Z</time>
      </trkpt>
      <trkpt lat="46.43473" lon="-0.17691">
        <ele>156.2</ele>
        <time>2020-05-30T19:20:12Z</time>
      </trkpt>
      <trkpt lat="46.43475" lon="-0.17694">
        <ele>156.3</ele>
        <time>2020-05-30T19:20:13Z</time>
      </trkpt>
      <trkpt lat="46.43475" lon="-0.17699">
        <ele>156.3</ele>
        <time>2020-05-30T19:20:14Z</time>
      </trkpt>
      <trkpt lat="46.43476" lon="-0.17704">
        <ele>156.4</ele>
        <time>2020-05-30T19:20:15Z</time>
      </trkpt>
      <trkpt lat="46.43476" lon="-0.17708">
        <ele>156.5</ele>
        <time>2020-05-30T19:20:16Z</time>
      </trkpt>
      <trkpt lat="46.43477" lon="-0.17712">
        <ele>156.5</ele>
        <time>2020-05-30T19:20:17Z</time>
      </trkpt>
      <trkpt lat="46.43479" lon="-0.17717">
        <ele>156.6</ele>
        <time>2020-05-30T19:20:18Z</time>
      </trkpt>
      <trkpt lat="46.43479" lon="-0.17718">
        <ele>156.6</ele>
        <time>2020-05-30T19:20:19Z</time>
      </trkpt>
      <trkpt lat="46.43481" lon="-0.17722">
        <ele>156.7</ele>
        <time>2020-05-30T19:20:20Z</time>
      </trkpt>
      <trkpt lat="46.43482" lon="-0.17723">
        <ele>156.7</ele>
        <time>2020-05-30T19:20:21Z</time>
      </trkpt>
      <trkpt lat="46.43484" lon="-0.17728">
        <ele>156.8</ele>
        <time>2020-05-30T19:20:22Z</time>
      </trkpt>
      <trkpt lat="46.43486" lon="-0.17733">
        <ele>156.8</ele>
        <time>2020-05-30T19:20:23Z</time>
      </trkpt>
      <trkpt lat="46.43488" lon="-0.17736">
        <ele>156.9</ele>
        <time>2020-05-30T19:20:24Z</time>
      </trkpt>
      <trkpt lat="46.4349" lon="-0.17741">
        <ele>156.9</ele>
        <time>2020-05-30T19:20:25Z</time>
      </trkpt>
      <trkpt lat="46.4349" lon="-0.17743">
        <ele>156.9</ele>
        <time>2020-05-30T19:20:26Z</time>
      </trkpt>
      <trkpt lat="46.43491" lon="-0.17746">
        <ele>157</ele>
        <time>2020-05-30T19:20:27Z</time>
      </trkpt>
      <trkpt lat="46.43493" lon="-0.17751">
        <ele>157</ele>
        <time>2020-05-30T19:20:28Z</time>
      </trkpt>
      <trkpt lat="46.43495" lon="-0.17756">
        <ele>157</ele>
        <time>2020-05-30T19:20:29Z</time>
      </trkpt>
      <trkpt lat="46.43497" lon="-0.1776">
        <ele>157.1</ele>
        <time>2020-05-30T19:20:30Z</time>
      </trkpt>
      <trkpt lat="46.43499" lon="-0.17765">
        <ele>157.1</ele>
        <time>2020-05-30T19:20:31Z</time>
      </trkpt>
      <trkpt lat="46.43502" lon="-0.1777">
        <ele>157.2</ele>
        <time>2020-05-30T19:20:32Z</time>
      </trkpt>
      <trkpt lat="46.43504" lon="-0.17774">
        <ele>157.2</ele>
        <time>2020-05-30T19:20:33Z</time>
      </trkpt>
      <trkpt lat="46.43506" lon="-0.17779">
        <ele>157.3</ele>
        <time>2020-05-30T19:20:34Z</time>
      </trkpt>
      <trkpt lat="46.43507" lon="-0.17784">
        <ele>157.3</ele>
        <time>2020-05-30T19:20:35Z</time>
      </trkpt>
      <trkpt lat="46.43508" lon="-0.17788">
        <ele>157.4</ele>
        <time>2020-05-30T19:20:36Z</time>
      </trkpt>
      <trkpt lat="46.4351" lon="-0.17793">
        <ele>157.4</ele>
        <time>2020-05-30T19:20:37Z</time>
      </trkpt>
      <trkpt lat="46.43511" lon="-0.17797">
        <ele>157.5</ele>
        <time>2020-05-30T19:20:38Z</time>
      </trkpt>
      <trkpt lat="46.43513" lon="-0.17802">
        <ele>157.5</ele>
        <time>2020-05-30T19:20:39Z</time>
      </trkpt>
      <trkpt lat="46.43515" lon="-0.17807">
        <ele>157.6</ele>
        <time>2020-05-30T19:20:40Z</time>
      </trkpt>
      <trkpt lat="46.43517" lon="-0.17812">
        <ele>157.6</ele>
        <time>2020-05-30T19:20:41Z</time>
      </trkpt>
      <trkpt lat="46.43518" lon="-0.17816">
        <ele>157.7</ele>
        <time>2020-05-30T19:20:42Z</time>
      </trkpt>
      <trkpt lat="46.43519" lon="-0.1782">
        <ele>157.7</ele>
        <time>2020-05-30T19:20:43Z</time>
      </trkpt>
      <trkpt lat="46.43521" lon="-0.17825">
        <ele>157.7</ele>
        <time>2020-05-30T19:20:44Z</time>
      </trkpt>
      <trkpt lat="46.43522" lon="-0.1783">
        <ele>157.8</ele>
        <time>2020-05-30T19:20:45Z</time>
      </trkpt>
      <trkpt lat="46.43525" lon="-0.17834">
        <ele>157.9</ele>
        <time>2020-05-30T19:20:46Z</time>
      </trkpt>
      <trkpt lat="46.43527" lon="-0.17838">
        <ele>157.9</ele>
        <time>2020-05-30T19:20:47Z</time>
      </trkpt>
      <trkpt lat="46.43529" lon="-0.17843">
        <ele>158</ele>
        <time>2020-05-30T19:20:48Z</time>
      </trkpt>
      <trkpt lat="46.43532" lon="-0.17846">
        <ele>158.1</ele>
        <time>2020-05-30T19:20:49Z</time>
      </trkpt>
      <trkpt lat="46.43532" lon="-0.1785">
        <ele>158.1</ele>
        <time>2020-05-30T19:20:50Z</time>
      </trkpt>
      <trkpt lat="46.43534" lon="-0.17856">
        <ele>158.2</ele>
        <time>2020-05-30T19:20:51Z</time>
      </trkpt>
      <trkpt lat="46.43536" lon="-0.1786">
        <ele>158.2</ele>
        <time>2020-05-30T19:20:52Z</time>
      </trkpt>
      <trkpt lat="46.43537" lon="-0.17865">
        <ele>158.3</ele>
        <time>2020-05-30T19:20:53Z</time>
      </trkpt>
      <trkpt lat="46.43538" lon="-0.1787">
        <ele>158.3</ele>
        <time>2020-05-30T19:20:54Z</time>
      </trkpt>
      <trkpt lat="46.43538" lon="-0.17875">
        <ele>158.4</ele>
        <time>2020-05-30T19:20:55Z</time>
      </trkpt>
      <trkpt lat="46.43539" lon="-0.1788">
        <ele>158.4</ele>
        <time>2020-05-30T19:20:56Z</time>
      </trkpt>
      <trkpt lat="46.4354" lon="-0.17885">
        <ele>158.5</ele>
        <time>2020-05-30T19:20:57Z</time>
      </trkpt>
      <trkpt lat="46.43541" lon="-0.1789">
        <ele>158.5</ele>
        <time>2020-05-30T19:20:58Z</time>
      </trkpt>
      <trkpt lat="46.43541" lon="-0.17895">
        <ele>158.5</ele>
        <time>2020-05-30T19:20:59Z</time>
      </trkpt>
      <trkpt lat="46.43542" lon="-0.17901">
        <ele>158.6</ele>
        <time>2020-05-30T19:21:00Z</time>
      </trkpt>
      <trkpt lat="46.43541" lon="-0.17907">
        <ele>158.6</ele>
        <time>2020-05-30T19:21:01Z</time>
      </trkpt>
      <trkpt lat="46.43541" lon="-0.17913">
        <ele>158.6</ele>
        <time>2020-05-30T19:21:02Z</time>
      </trkpt>
      <trkpt lat="46.43541" lon="-0.17919">
        <ele>158.7</ele>
        <time>2020-05-30T19:21:03Z</time>
      </trkpt>
      <trkpt lat="46.43539" lon="-0.17926">
        <ele>158.7</ele>
        <time>2020-05-30T19:21:04Z</time>
      </trkpt>
      <trkpt lat="46.43539" lon="-0.17932">
        <ele>158.7</ele>
        <time>2020-05-30T19:21:05Z</time>
      </trkpt>
      <trkpt lat="46.43539" lon="-0.17938">
        <ele>158.7</ele>
        <time>2020-05-30T19:21:06Z</time>
      </trkpt>
      <trkpt lat="46.43541" lon="-0.17943">
        <ele>158.7</ele>
        <time>2020-05-30T19:21:07Z</time>
      </trkpt>
      <trkpt lat="46.43541" lon="-0.17948">
        <ele>158.7</ele>
        <time>2020-05-30T19:21:08Z</time>
      </trkpt>
      <trkpt lat="46.43542" lon="-0.17953">
        <ele>158.7</ele>
        <time>2020-05-30T19:21:09Z</time>
      </trkpt>
      <trkpt lat="46.43543" lon="-0.17959">
        <ele>158.7</ele>
        <time>2020-05-30T19:21:10Z</time>
      </trkpt>
      <trkpt lat="46.43543" lon="-0.17965">
        <ele>158.7</ele>
        <time>2020-05-30T19:21:11Z</time>
      </trkpt>
      <trkpt lat="46.43543" lon="-0.17971">
        <ele>158.7</ele>
        <time>2020-05-30T19:21:12Z</time>
      </trkpt>
      <trkpt lat="46.43544" lon="-0.17978">
        <ele>158.6</ele>
        <time>2020-05-30T19:21:13Z</time>
      </trkpt>
      <trkpt lat="46.43544" lon="-0.17984">
        <ele>158.6</ele>
        <time>2020-05-30T19:21:14Z</time>
      </trkpt>
      <trkpt lat="46.43543" lon="-0.17992">
        <ele>158.6</ele>
        <time>2020-05-30T19:21:15Z</time>
      </trkpt>
      <trkpt lat="46.43545" lon="-0.17999">
        <ele>158.5</ele>
        <time>2020-05-30T19:21:16Z</time>
      </trkpt>
      <trkpt lat="46.43545" lon="-0.18008">
        <ele>158.5</ele>
        <time>2020-05-30T19:21:17Z</time>
      </trkpt>
      <trkpt lat="46.43546" lon="-0.18013">
        <ele>158.4</ele>
        <time>2020-05-30T19:21:18Z</time>
      </trkpt>
      <trkpt lat="46.43547" lon="-0.18018">
        <ele>158.4</ele>
        <time>2020-05-30T19:21:19Z</time>
      </trkpt>
      <trkpt lat="46.43547" lon="-0.18025">
        <ele>158.4</ele>
        <time>2020-05-30T19:21:20Z</time>
      </trkpt>
      <trkpt lat="46.43547" lon="-0.18031">
        <ele>158.4</ele>
        <time>2020-05-30T19:21:21Z</time>
      </trkpt>
      <trkpt lat="46.43549" lon="-0.18035">
        <ele>158.4</ele>
        <time>2020-05-30T19:21:22Z</time>
      </trkpt>
      <trkpt lat="46.43551" lon="-0.1804">
        <ele>158.3</ele>
        <time>2020-05-30T19:21:23Z</time>
      </trkpt>
      <trkpt lat="46.43552" lon="-0.18046">
        <ele>158.3</ele>
        <time>2020-05-30T19:21:24Z</time>
      </trkpt>
      <trkpt lat="46.43553" lon="-0.18052">
        <ele>158.2</ele>
        <time>2020-05-30T19:21:25Z</time>
      </trkpt>
      <trkpt lat="46.43555" lon="-0.18057">
        <ele>158.2</ele>
        <time>2020-05-30T19:21:26Z</time>
      </trkpt>
      <trkpt lat="46.43555" lon="-0.18063">
        <ele>158.1</ele>
        <time>2020-05-30T19:21:27Z</time>
      </trkpt>
      <trkpt lat="46.43556" lon="-0.18069">
        <ele>158</ele>
        <time>2020-05-30T19:21:28Z</time>
      </trkpt>
      <trkpt lat="46.43557" lon="-0.18075">
        <ele>157.9</ele>
        <time>2020-05-30T19:21:29Z</time>
      </trkpt>
      <trkpt lat="46.43558" lon="-0.18081">
        <ele>157.9</ele>
        <time>2020-05-30T19:21:30Z</time>
      </trkpt>
      <trkpt lat="46.43559" lon="-0.18088">
        <ele>157.8</ele>
        <time>2020-05-30T19:21:31Z</time>
      </trkpt>
      <trkpt lat="46.4356" lon="-0.18095">
        <ele>157.7</ele>
        <time>2020-05-30T19:21:32Z</time>
      </trkpt>
      <trkpt lat="46.4356" lon="-0.18102">
        <ele>157.6</ele>
        <time>2020-05-30T19:21:33Z</time>
      </trkpt>
      <trkpt lat="46.43559" lon="-0.18109">
        <ele>157.5</ele>
        <time>2020-05-30T19:21:34Z</time>
      </trkpt>
      <trkpt lat="46.43559" lon="-0.18116">
        <ele>157.4</ele>
        <time>2020-05-30T19:21:35Z</time>
      </trkpt>
      <trkpt lat="46.43557" lon="-0.18124">
        <ele>157.2</ele>
        <time>2020-05-30T19:21:36Z</time>
      </trkpt>
      <trkpt lat="46.43556" lon="-0.18132">
        <ele>157.1</ele>
        <time>2020-05-30T19:21:37Z</time>
      </trkpt>
      <trkpt lat="46.43553" lon="-0.18139">
        <ele>156.9</ele>
        <time>2020-05-30T19:21:38Z</time>
      </trkpt>
      <trkpt lat="46.4355" lon="-0.18146">
        <ele>156.6</ele>
        <time>2020-05-30T19:21:39Z</time>
      </trkpt>
      <trkpt lat="46.43544" lon="-0.18151">
        <ele>156.3</ele>
        <time>2020-05-30T19:21:40Z</time>
      </trkpt>
      <trkpt lat="46.43539" lon="-0.18158">
        <ele>155.9</ele>
        <time>2020-05-30T19:21:41Z</time>
      </trkpt>
      <trkpt lat="46.43532" lon="-0.18165">
        <ele>155.4</ele>
        <time>2020-05-30T19:21:42Z</time>
      </trkpt>
      <trkpt lat="46.43525" lon="-0.1817">
        <ele>155</ele>
        <time>2020-05-30T19:21:43Z</time>
      </trkpt>
      <trkpt lat="46.43519" lon="-0.18174">
        <ele>154.6</ele>
        <time>2020-05-30T19:21:44Z</time>
      </trkpt>
      <trkpt lat="46.43512" lon="-0.18179">
        <ele>154.2</ele>
        <time>2020-05-30T19:21:45Z</time>
      </trkpt>
      <trkpt lat="46.43507" lon="-0.18186">
        <ele>153.8</ele>
        <time>2020-05-30T19:21:46Z</time>
      </trkpt>
      <trkpt lat="46.43503" lon="-0.18196">
        <ele>153.4</ele>
        <time>2020-05-30T19:21:47Z</time>
      </trkpt>
      <trkpt lat="46.43501" lon="-0.18205">
        <ele>153.1</ele>
        <time>2020-05-30T19:21:48Z</time>
      </trkpt>
      <trkpt lat="46.43499" lon="-0.18216">
        <ele>152.7</ele>
        <time>2020-05-30T19:21:49Z</time>
      </trkpt>
      <trkpt lat="46.43499" lon="-0.18226">
        <ele>152.3</ele>
        <time>2020-05-30T19:21:50Z</time>
      </trkpt>
      <trkpt lat="46.43499" lon="-0.18234">
        <ele>151.9</ele>
        <time>2020-05-30T19:21:51Z</time>
      </trkpt>
      <trkpt lat="46.435" lon="-0.18244">
        <ele>151.5</ele>
        <time>2020-05-30T19:21:52Z</time>
      </trkpt>
      <trkpt lat="46.435" lon="-0.18254">
        <ele>151</ele>
        <time>2020-05-30T19:21:53Z</time>
      </trkpt>
      <trkpt lat="46.43501" lon="-0.18264">
        <ele>150.5</ele>
        <time>2020-05-30T19:21:54Z</time>
      </trkpt>
      <trkpt lat="46.43501" lon="-0.18272">
        <ele>150.2</ele>
        <time>2020-05-30T19:21:55Z</time>
      </trkpt>
      <trkpt lat="46.43501" lon="-0.1828">
        <ele>149.8</ele>
        <time>2020-05-30T19:21:56Z</time>
      </trkpt>
      <trkpt lat="46.43503" lon="-0.18287">
        <ele>149.5</ele>
        <time>2020-05-30T19:21:57Z</time>
      </trkpt>
      <trkpt lat="46.43503" lon="-0.18294">
        <ele>149.2</ele>
        <time>2020-05-30T19:21:58Z</time>
      </trkpt>
      <trkpt lat="46.43504" lon="-0.18301">
        <ele>148.9</ele>
        <time>2020-05-30T19:21:59Z</time>
      </trkpt>
      <trkpt lat="46.43504" lon="-0.18308">
        <ele>148.6</ele>
        <time>2020-05-30T19:22:00Z</time>
      </trkpt>
      <trkpt lat="46.43505" lon="-0.18315">
        <ele>148.3</ele>
        <time>2020-05-30T19:22:01Z</time>
      </trkpt>
      <trkpt lat="46.43507" lon="-0.18322">
        <ele>148.1</ele>
        <time>2020-05-30T19:22:02Z</time>
      </trkpt>
      <trkpt lat="46.43509" lon="-0.18327">
        <ele>147.8</ele>
        <time>2020-05-30T19:22:03Z</time>
      </trkpt>
      <trkpt lat="46.43511" lon="-0.18333">
        <ele>147.6</ele>
        <time>2020-05-30T19:22:04Z</time>
      </trkpt>
      <trkpt lat="46.43511" lon="-0.18339">
        <ele>147.5</ele>
        <time>2020-05-30T19:22:05Z</time>
      </trkpt>
      <trkpt lat="46.43511" lon="-0.18345">
        <ele>147.3</ele>
        <time>2020-05-30T19:22:06Z</time>
      </trkpt>
      <trkpt lat="46.43512" lon="-0.18353">
        <ele>147</ele>
        <time>2020-05-30T19:22:07Z</time>
      </trkpt>
      <trkpt lat="46.43513" lon="-0.1836">
        <ele>146.8</ele>
        <time>2020-05-30T19:22:08Z</time>
      </trkpt>
      <trkpt lat="46.43515" lon="-0.18369">
        <ele>146.7</ele>
        <time>2020-05-30T19:22:09Z</time>
      </trkpt>
      <trkpt lat="46.43518" lon="-0.18377">
        <ele>146.5</ele>
        <time>2020-05-30T19:22:10Z</time>
      </trkpt>
      <trkpt lat="46.43522" lon="-0.18386">
        <ele>145.9</ele>
        <time>2020-05-30T19:22:11Z</time>
      </trkpt>
      <trkpt lat="46.43526" lon="-0.18394">
        <ele>145.4</ele>
        <time>2020-05-30T19:22:12Z</time>
      </trkpt>
      <trkpt lat="46.43529" lon="-0.18402">
        <ele>144.9</ele>
        <time>2020-05-30T19:22:13Z</time>
      </trkpt>
      <trkpt lat="46.43533" lon="-0.18411">
        <ele>144.3</ele>
        <time>2020-05-30T19:22:14Z</time>
      </trkpt>
      <trkpt lat="46.43537" lon="-0.1842">
        <ele>143.7</ele>
        <time>2020-05-30T19:22:15Z</time>
      </trkpt>
      <trkpt lat="46.4354" lon="-0.18429">
        <ele>143.1</ele>
        <time>2020-05-30T19:22:16Z</time>
      </trkpt>
      <trkpt lat="46.43544" lon="-0.18439">
        <ele>142.5</ele>
        <time>2020-05-30T19:22:17Z</time>
      </trkpt>
      <trkpt lat="46.43548" lon="-0.18449">
        <ele>141.9</ele>
        <time>2020-05-30T19:22:18Z</time>
      </trkpt>
      <trkpt lat="46.43551" lon="-0.18459">
        <ele>141.3</ele>
        <time>2020-05-30T19:22:19Z</time>
      </trkpt>
      <trkpt lat="46.43555" lon="-0.1847">
        <ele>140.7</ele>
        <time>2020-05-30T19:22:20Z</time>
      </trkpt>
      <trkpt lat="46.43559" lon="-0.1848">
        <ele>140.1</ele>
        <time>2020-05-30T19:22:21Z</time>
      </trkpt>
      <trkpt lat="46.43563" lon="-0.1849">
        <ele>139.5</ele>
        <time>2020-05-30T19:22:22Z</time>
      </trkpt>
      <trkpt lat="46.43566" lon="-0.185">
        <ele>138.8</ele>
        <time>2020-05-30T19:22:23Z</time>
      </trkpt>
      <trkpt lat="46.43569" lon="-0.18509">
        <ele>138.2</ele>
        <time>2020-05-30T19:22:24Z</time>
      </trkpt>
      <trkpt lat="46.43573" lon="-0.18517">
        <ele>137.6</ele>
        <time>2020-05-30T19:22:25Z</time>
      </trkpt>
      <trkpt lat="46.43575" lon="-0.18524">
        <ele>137.1</ele>
        <time>2020-05-30T19:22:26Z</time>
      </trkpt>
      <trkpt lat="46.43577" lon="-0.18532">
        <ele>136.6</ele>
        <time>2020-05-30T19:22:27Z</time>
      </trkpt>
      <trkpt lat="46.4358" lon="-0.18539">
        <ele>136.2</ele>
        <time>2020-05-30T19:22:28Z</time>
      </trkpt>
      <trkpt lat="46.43581" lon="-0.18546">
        <ele>135.8</ele>
        <time>2020-05-30T19:22:29Z</time>
      </trkpt>
      <trkpt lat="46.43584" lon="-0.18553">
        <ele>135.4</ele>
        <time>2020-05-30T19:22:30Z</time>
      </trkpt>
      <trkpt lat="46.43586" lon="-0.18559">
        <ele>135.4</ele>
        <time>2020-05-30T19:22:31Z</time>
      </trkpt>
      <trkpt lat="46.43588" lon="-0.18565">
        <ele>135.3</ele>
        <time>2020-05-30T19:22:32Z</time>
      </trkpt>
      <trkpt lat="46.43589" lon="-0.18571">
        <ele>134.5</ele>
        <time>2020-05-30T19:22:33Z</time>
      </trkpt>
      <trkpt lat="46.43591" lon="-0.18576">
        <ele>133.8</ele>
        <time>2020-05-30T19:22:34Z</time>
      </trkpt>
      <trkpt lat="46.43591" lon="-0.1858">
        <ele>133.2</ele>
        <time>2020-05-30T19:22:35Z</time>
      </trkpt>
      <trkpt lat="46.43593" lon="-0.18582">
        <ele>132.7</ele>
        <time>2020-05-30T19:22:36Z</time>
      </trkpt>
      <trkpt lat="46.43592" lon="-0.18585">
        <ele>132.3</ele>
        <time>2020-05-30T19:22:37Z</time>
      </trkpt>
      <trkpt lat="46.43592" lon="-0.18587">
        <ele>132</ele>
        <time>2020-05-30T19:22:38Z</time>
      </trkpt>
      <trkpt lat="46.43593" lon="-0.18589">
        <ele>131.7</ele>
        <time>2020-05-30T19:22:39Z</time>
      </trkpt>
      <trkpt lat="46.43592" lon="-0.18594">
        <ele>130.8</ele>
        <time>2020-05-30T19:22:40Z</time>
      </trkpt>
      <trkpt lat="46.43591" lon="-0.18596">
        <ele>130.8</ele>
        <time>2020-05-30T19:22:41Z</time>
      </trkpt>
      <trkpt lat="46.43588" lon="-0.18598">
        <ele>130.7</ele>
        <time>2020-05-30T19:22:42Z</time>
      </trkpt>
      <trkpt lat="46.43585" lon="-0.18599">
        <ele>130.6</ele>
        <time>2020-05-30T19:22:43Z</time>
      </trkpt>
      <trkpt lat="46.43581" lon="-0.18602">
        <ele>130.4</ele>
        <time>2020-05-30T19:22:44Z</time>
      </trkpt>
      <trkpt lat="46.43576" lon="-0.18603">
        <ele>130.1</ele>
        <time>2020-05-30T19:22:45Z</time>
      </trkpt>
      <trkpt lat="46.43571" lon="-0.18603">
        <ele>129.7</ele>
        <time>2020-05-30T19:22:46Z</time>
      </trkpt>
      <trkpt lat="46.43566" lon="-0.18605">
        <ele>129.3</ele>
        <time>2020-05-30T19:22:47Z</time>
      </trkpt>
      <trkpt lat="46.4356" lon="-0.18607">
        <ele>128.9</ele>
        <time>2020-05-30T19:22:48Z</time>
      </trkpt>
      <trkpt lat="46.43553" lon="-0.1861">
        <ele>128.4</ele>
        <time>2020-05-30T19:22:49Z</time>
      </trkpt>
      <trkpt lat="46.43545" lon="-0.18613">
        <ele>127.8</ele>
        <time>2020-05-30T19:22:50Z</time>
      </trkpt>
      <trkpt lat="46.43537" lon="-0.18617">
        <ele>127.3</ele>
        <time>2020-05-30T19:22:51Z</time>
      </trkpt>
      <trkpt lat="46.43528" lon="-0.18619">
        <ele>126.7</ele>
        <time>2020-05-30T19:22:52Z</time>
      </trkpt>
      <trkpt lat="46.43519" lon="-0.18622">
        <ele>126.2</ele>
        <time>2020-05-30T19:22:53Z</time>
      </trkpt>
      <trkpt lat="46.4351" lon="-0.18627">
        <ele>125.8</ele>
        <time>2020-05-30T19:22:54Z</time>
      </trkpt>
      <trkpt lat="46.43502" lon="-0.18633">
        <ele>125.5</ele>
        <time>2020-05-30T19:22:55Z</time>
      </trkpt>
      <trkpt lat="46.43493" lon="-0.18636">
        <ele>125.3</ele>
        <time>2020-05-30T19:22:56Z</time>
      </trkpt>
      <trkpt lat="46.43485" lon="-0.18637">
        <ele>125</ele>
        <time>2020-05-30T19:22:57Z</time>
      </trkpt>
      <trkpt lat="46.43476" lon="-0.18639">
        <ele>124.8</ele>
        <time>2020-05-30T19:22:58Z</time>
      </trkpt>
      <trkpt lat="46.43467" lon="-0.18641">
        <ele>124.7</ele>
        <time>2020-05-30T19:22:59Z</time>
      </trkpt>
      <trkpt lat="46.43458" lon="-0.18641">
        <ele>124.6</ele>
        <time>2020-05-30T19:23:00Z</time>
      </trkpt>
      <trkpt lat="46.43449" lon="-0.18642">
        <ele>124.5</ele>
        <time>2020-05-30T19:23:01Z</time>
      </trkpt>
      <trkpt lat="46.4344" lon="-0.18642">
        <ele>124.4</ele>
        <time>2020-05-30T19:23:02Z</time>
      </trkpt>
      <trkpt lat="46.43431" lon="-0.18645">
        <ele>124.4</ele>
        <time>2020-05-30T19:23:03Z</time>
      </trkpt>
      <trkpt lat="46.43422" lon="-0.18646">
        <ele>124.4</ele>
        <time>2020-05-30T19:23:04Z</time>
      </trkpt>
      <trkpt lat="46.43414" lon="-0.18645">
        <ele>124.5</ele>
        <time>2020-05-30T19:23:05Z</time>
      </trkpt>
      <trkpt lat="46.43406" lon="-0.18645">
        <ele>124.6</ele>
        <time>2020-05-30T19:23:06Z</time>
      </trkpt>
      <trkpt lat="46.43398" lon="-0.18645">
        <ele>124.8</ele>
        <time>2020-05-30T19:23:07Z</time>
      </trkpt>
      <trkpt lat="46.4339" lon="-0.18645">
        <ele>125</ele>
        <time>2020-05-30T19:23:08Z</time>
      </trkpt>
      <trkpt lat="46.43382" lon="-0.18645">
        <ele>125.2</ele>
        <time>2020-05-30T19:23:09Z</time>
      </trkpt>
      <trkpt lat="46.43375" lon="-0.18646">
        <ele>125.3</ele>
        <time>2020-05-30T19:23:10Z</time>
      </trkpt>
      <trkpt lat="46.43368" lon="-0.18648">
        <ele>125.5</ele>
        <time>2020-05-30T19:23:11Z</time>
      </trkpt>
      <trkpt lat="46.43362" lon="-0.18648">
        <ele>125.7</ele>
        <time>2020-05-30T19:23:12Z</time>
      </trkpt>
      <trkpt lat="46.43356" lon="-0.1865">
        <ele>125.8</ele>
        <time>2020-05-30T19:23:13Z</time>
      </trkpt>
      <trkpt lat="46.43351" lon="-0.18652">
        <ele>126</ele>
        <time>2020-05-30T19:23:14Z</time>
      </trkpt>
      <trkpt lat="46.43345" lon="-0.18655">
        <ele>126.2</ele>
        <time>2020-05-30T19:23:15Z</time>
      </trkpt>
      <trkpt lat="46.4334" lon="-0.18658">
        <ele>126.3</ele>
        <time>2020-05-30T19:23:16Z</time>
      </trkpt>
      <trkpt lat="46.43335" lon="-0.18661">
        <ele>126.5</ele>
        <time>2020-05-30T19:23:17Z</time>
      </trkpt>
      <trkpt lat="46.43329" lon="-0.18664">
        <ele>126.6</ele>
        <time>2020-05-30T19:23:18Z</time>
      </trkpt>
      <trkpt lat="46.43324" lon="-0.18667">
        <ele>126.7</ele>
        <time>2020-05-30T19:23:19Z</time>
      </trkpt>
      <trkpt lat="46.43319" lon="-0.1867">
        <ele>126.8</ele>
        <time>2020-05-30T19:23:20Z</time>
      </trkpt>
      <trkpt lat="46.43315" lon="-0.18671">
        <ele>126.9</ele>
        <time>2020-05-30T19:23:21Z</time>
      </trkpt>
      <trkpt lat="46.4331" lon="-0.18673">
        <ele>127</ele>
        <time>2020-05-30T19:23:22Z</time>
      </trkpt>
      <trkpt lat="46.43306" lon="-0.18677">
        <ele>127.1</ele>
        <time>2020-05-30T19:23:23Z</time>
      </trkpt>
      <trkpt lat="46.43302" lon="-0.18679">
        <ele>127.2</ele>
        <time>2020-05-30T19:23:24Z</time>
      </trkpt>
      <trkpt lat="46.43298" lon="-0.18682">
        <ele>127.2</ele>
        <time>2020-05-30T19:23:25Z</time>
      </trkpt>
      <trkpt lat="46.43294" lon="-0.18685">
        <ele>127.3</ele>
        <time>2020-05-30T19:23:26Z</time>
      </trkpt>
      <trkpt lat="46.4329" lon="-0.18686">
        <ele>127.4</ele>
        <time>2020-05-30T19:23:27Z</time>
      </trkpt>
      <trkpt lat="46.43286" lon="-0.18692">
        <ele>127.4</ele>
        <time>2020-05-30T19:23:28Z</time>
      </trkpt>
      <trkpt lat="46.43282" lon="-0.18695">
        <ele>127.4</ele>
        <time>2020-05-30T19:23:29Z</time>
      </trkpt>
      <trkpt lat="46.43278" lon="-0.18699">
        <ele>127.4</ele>
        <time>2020-05-30T19:23:30Z</time>
      </trkpt>
      <trkpt lat="46.43274" lon="-0.187">
        <ele>127.4</ele>
        <time>2020-05-30T19:23:31Z</time>
      </trkpt>
      <trkpt lat="46.4327" lon="-0.18702">
        <ele>127.4</ele>
        <time>2020-05-30T19:23:32Z</time>
      </trkpt>
      <trkpt lat="46.43265" lon="-0.18702">
        <ele>127.4</ele>
        <time>2020-05-30T19:23:33Z</time>
      </trkpt>
      <trkpt lat="46.4326" lon="-0.18703">
        <ele>127.4</ele>
        <time>2020-05-30T19:23:34Z</time>
      </trkpt>
      <trkpt lat="46.43256" lon="-0.18705">
        <ele>127.4</ele>
        <time>2020-05-30T19:23:35Z</time>
      </trkpt>
      <trkpt lat="46.43251" lon="-0.18708">
        <ele>127.4</ele>
        <time>2020-05-30T19:23:36Z</time>
      </trkpt>
      <trkpt lat="46.43247" lon="-0.18711">
        <ele>127.3</ele>
        <time>2020-05-30T19:23:37Z</time>
      </trkpt>
      <trkpt lat="46.43242" lon="-0.18713">
        <ele>127.3</ele>
        <time>2020-05-30T19:23:38Z</time>
      </trkpt>
      <trkpt lat="46.43237" lon="-0.18714">
        <ele>127.3</ele>
        <time>2020-05-30T19:23:39Z</time>
      </trkpt>
      <trkpt lat="46.43233" lon="-0.18719">
        <ele>127.3</ele>
        <time>2020-05-30T19:23:40Z</time>
      </trkpt>
      <trkpt lat="46.43228" lon="-0.18722">
        <ele>127.3</ele>
        <time>2020-05-30T19:23:41Z</time>
      </trkpt>
      <trkpt lat="46.43223" lon="-0.18724">
        <ele>127.3</ele>
        <time>2020-05-30T19:23:42Z</time>
      </trkpt>
      <trkpt lat="46.43218" lon="-0.18725">
        <ele>127.3</ele>
        <time>2020-05-30T19:23:43Z</time>
      </trkpt>
      <trkpt lat="46.43212" lon="-0.18726">
        <ele>127.3</ele>
        <time>2020-05-30T19:23:44Z</time>
      </trkpt>
      <trkpt lat="46.43207" lon="-0.18725">
        <ele>127.2</ele>
        <time>2020-05-30T19:23:45Z</time>
      </trkpt>
      <trkpt lat="46.43203" lon="-0.18722">
        <ele>127.2</ele>
        <time>2020-05-30T19:23:46Z</time>
      </trkpt>
      <trkpt lat="46.43199" lon="-0.18719">
        <ele>127.1</ele>
        <time>2020-05-30T19:23:47Z</time>
      </trkpt>
      <trkpt lat="46.43196" lon="-0.18716">
        <ele>127</ele>
        <time>2020-05-30T19:23:48Z</time>
      </trkpt>
      <trkpt lat="46.43193" lon="-0.18712">
        <ele>126.9</ele>
        <time>2020-05-30T19:23:49Z</time>
      </trkpt>
      <trkpt lat="46.4319" lon="-0.18707">
        <ele>126.9</ele>
        <time>2020-05-30T19:23:50Z</time>
      </trkpt>
      <trkpt lat="46.43187" lon="-0.18703">
        <ele>126.8</ele>
        <time>2020-05-30T19:23:51Z</time>
      </trkpt>
      <trkpt lat="46.43183" lon="-0.187">
        <ele>126.7</ele>
        <time>2020-05-30T19:23:52Z</time>
      </trkpt>
      <trkpt lat="46.43179" lon="-0.18698">
        <ele>126.7</ele>
        <time>2020-05-30T19:23:53Z</time>
      </trkpt>
      <trkpt lat="46.43175" lon="-0.18696">
        <ele>126.6</ele>
        <time>2020-05-30T19:23:54Z</time>
      </trkpt>
      <trkpt lat="46.4317" lon="-0.18694">
        <ele>126.5</ele>
        <time>2020-05-30T19:23:55Z</time>
      </trkpt>
      <trkpt lat="46.43166" lon="-0.18691">
        <ele>126.4</ele>
        <time>2020-05-30T19:23:56Z</time>
      </trkpt>
      <trkpt lat="46.43162" lon="-0.18687">
        <ele>126.3</ele>
        <time>2020-05-30T19:23:57Z</time>
      </trkpt>
      <trkpt lat="46.43157" lon="-0.18685">
        <ele>126.2</ele>
        <time>2020-05-30T19:23:58Z</time>
      </trkpt>
      <trkpt lat="46.43154" lon="-0.18682">
        <ele>126.1</ele>
        <time>2020-05-30T19:23:59Z</time>
      </trkpt>
      <trkpt lat="46.43151" lon="-0.18677">
        <ele>126</ele>
        <time>2020-05-30T19:24:00Z</time>
      </trkpt>
      <trkpt lat="46.43148" lon="-0.18675">
        <ele>126</ele>
        <time>2020-05-30T19:24:01Z</time>
      </trkpt>
      <trkpt lat="46.43144" lon="-0.18674">
        <ele>125.9</ele>
        <time>2020-05-30T19:24:02Z</time>
      </trkpt>
      <trkpt lat="46.43141" lon="-0.18671">
        <ele>125.8</ele>
        <time>2020-05-30T19:24:03Z</time>
      </trkpt>
      <trkpt lat="46.43137" lon="-0.18668">
        <ele>125.7</ele>
        <time>2020-05-30T19:24:04Z</time>
      </trkpt>
      <trkpt lat="46.43133" lon="-0.18666">
        <ele>125.6</ele>
        <time>2020-05-30T19:24:05Z</time>
      </trkpt>
      <trkpt lat="46.43129" lon="-0.18662">
        <ele>125.5</ele>
        <time>2020-05-30T19:24:06Z</time>
      </trkpt>
      <trkpt lat="46.43125" lon="-0.18659">
        <ele>125.3</ele>
        <time>2020-05-30T19:24:07Z</time>
      </trkpt>
      <trkpt lat="46.43121" lon="-0.18657">
        <ele>125.2</ele>
        <time>2020-05-30T19:24:08Z</time>
      </trkpt>
      <trkpt lat="46.43117" lon="-0.18656">
        <ele>125.1</ele>
        <time>2020-05-30T19:24:09Z</time>
      </trkpt>
      <trkpt lat="46.43113" lon="-0.18654">
        <ele>125</ele>
        <time>2020-05-30T19:24:10Z</time>
      </trkpt>
      <trkpt lat="46.4311" lon="-0.18652">
        <ele>124.9</ele>
        <time>2020-05-30T19:24:11Z</time>
      </trkpt>
      <trkpt lat="46.43107" lon="-0.18649">
        <ele>124.8</ele>
        <time>2020-05-30T19:24:12Z</time>
      </trkpt>
      <trkpt lat="46.43103" lon="-0.18649">
        <ele>124.7</ele>
        <time>2020-05-30T19:24:13Z</time>
      </trkpt>
      <trkpt lat="46.43099" lon="-0.18646">
        <ele>124.6</ele>
        <time>2020-05-30T19:24:14Z</time>
      </trkpt>
      <trkpt lat="46.43096" lon="-0.18645">
        <ele>124.5</ele>
        <time>2020-05-30T19:24:15Z</time>
      </trkpt>
      <trkpt lat="46.43093" lon="-0.18642">
        <ele>124.4</ele>
        <time>2020-05-30T19:24:16Z</time>
      </trkpt>
      <trkpt lat="46.4309" lon="-0.1864">
        <ele>124.3</ele>
        <time>2020-05-30T19:24:17Z</time>
      </trkpt>
      <trkpt lat="46.43087" lon="-0.18639">
        <ele>124.3</ele>
        <time>2020-05-30T19:24:18Z</time>
      </trkpt>
      <trkpt lat="46.43084" lon="-0.18636">
        <ele>124.2</ele>
        <time>2020-05-30T19:24:19Z</time>
      </trkpt>
      <trkpt lat="46.43081" lon="-0.18632">
        <ele>124.2</ele>
        <time>2020-05-30T19:24:20Z</time>
      </trkpt>
      <trkpt lat="46.43078" lon="-0.18631">
        <ele>124.1</ele>
        <time>2020-05-30T19:24:21Z</time>
      </trkpt>
      <trkpt lat="46.43074" lon="-0.1863">
        <ele>124.1</ele>
        <time>2020-05-30T19:24:22Z</time>
      </trkpt>
      <trkpt lat="46.43071" lon="-0.18629">
        <ele>124</ele>
        <time>2020-05-30T19:24:23Z</time>
      </trkpt>
      <trkpt lat="46.43068" lon="-0.18629">
        <ele>124</ele>
        <time>2020-05-30T19:24:24Z</time>
      </trkpt>
      <trkpt lat="46.43064" lon="-0.1863">
        <ele>123.9</ele>
        <time>2020-05-30T19:24:25Z</time>
      </trkpt>
      <trkpt lat="46.4306" lon="-0.18629">
        <ele>123.9</ele>
        <time>2020-05-30T19:24:26Z</time>
      </trkpt>
      <trkpt lat="46.43056" lon="-0.18629">
        <ele>123.9</ele>
        <time>2020-05-30T19:24:27Z</time>
      </trkpt>
      <trkpt lat="46.43052" lon="-0.18629">
        <ele>123.9</ele>
        <time>2020-05-30T19:24:28Z</time>
      </trkpt>
      <trkpt lat="46.43049" lon="-0.18629">
        <ele>123.8</ele>
        <time>2020-05-30T19:24:29Z</time>
      </trkpt>
      <trkpt lat="46.43046" lon="-0.18628">
        <ele>123.8</ele>
        <time>2020-05-30T19:24:30Z</time>
      </trkpt>
      <trkpt lat="46.43043" lon="-0.18628">
        <ele>123.8</ele>
        <time>2020-05-30T19:24:31Z</time>
      </trkpt>
      <trkpt lat="46.4304" lon="-0.18626">
        <ele>123.8</ele>
        <time>2020-05-30T19:24:32Z</time>
      </trkpt>
      <trkpt lat="46.43037" lon="-0.18624">
        <ele>123.7</ele>
        <time>2020-05-30T19:24:33Z</time>
      </trkpt>
      <trkpt lat="46.43034" lon="-0.18623">
        <ele>123.7</ele>
        <time>2020-05-30T19:24:34Z</time>
      </trkpt>
      <trkpt lat="46.4303" lon="-0.18622">
        <ele>123.6</ele>
        <time>2020-05-30T19:24:35Z</time>
      </trkpt>
      <trkpt lat="46.43026" lon="-0.1862">
        <ele>123.6</ele>
        <time>2020-05-30T19:24:36Z</time>
      </trkpt>
      <trkpt lat="46.43022" lon="-0.18619">
        <ele>123.6</ele>
        <time>2020-05-30T19:24:37Z</time>
      </trkpt>
      <trkpt lat="46.43018" lon="-0.1862">
        <ele>123.5</ele>
        <time>2020-05-30T19:24:38Z</time>
      </trkpt>
      <trkpt lat="46.43014" lon="-0.18619">
        <ele>123.5</ele>
        <time>2020-05-30T19:24:39Z</time>
      </trkpt>
      <trkpt lat="46.4301" lon="-0.18616">
        <ele>123.4</ele>
        <time>2020-05-30T19:24:40Z</time>
      </trkpt>
      <trkpt lat="46.43006" lon="-0.18614">
        <ele>123.4</ele>
        <time>2020-05-30T19:24:41Z</time>
      </trkpt>
      <trkpt lat="46.43003" lon="-0.18612">
        <ele>123.3</ele>
        <time>2020-05-30T19:24:42Z</time>
      </trkpt>
      <trkpt lat="46.42998" lon="-0.18612">
        <ele>123.3</ele>
        <time>2020-05-30T19:24:43Z</time>
      </trkpt>
      <trkpt lat="46.42995" lon="-0.18611">
        <ele>123.2</ele>
        <time>2020-05-30T19:24:44Z</time>
      </trkpt>
      <trkpt lat="46.42992" lon="-0.1861">
        <ele>123.1</ele>
        <time>2020-05-30T19:24:45Z</time>
      </trkpt>
      <trkpt lat="46.42989" lon="-0.18609">
        <ele>123.1</ele>
        <time>2020-05-30T19:24:46Z</time>
      </trkpt>
      <trkpt lat="46.42986" lon="-0.18607">
        <ele>123</ele>
        <time>2020-05-30T19:24:47Z</time>
      </trkpt>
      <trkpt lat="46.42983" lon="-0.18607">
        <ele>122.9</ele>
        <time>2020-05-30T19:24:48Z</time>
      </trkpt>
      <trkpt lat="46.4298" lon="-0.18606">
        <ele>122.8</ele>
        <time>2020-05-30T19:24:49Z</time>
      </trkpt>
      <trkpt lat="46.42976" lon="-0.18605">
        <ele>122.7</ele>
        <time>2020-05-30T19:24:50Z</time>
      </trkpt>
      <trkpt lat="46.42972" lon="-0.18605">
        <ele>122.6</ele>
        <time>2020-05-30T19:24:51Z</time>
      </trkpt>
      <trkpt lat="46.42969" lon="-0.18604">
        <ele>122.5</ele>
        <time>2020-05-30T19:24:52Z</time>
      </trkpt>
      <trkpt lat="46.42965" lon="-0.18602">
        <ele>122.4</ele>
        <time>2020-05-30T19:24:53Z</time>
      </trkpt>
      <trkpt lat="46.42962" lon="-0.18602">
        <ele>122.3</ele>
        <time>2020-05-30T19:24:54Z</time>
      </trkpt>
      <trkpt lat="46.42958" lon="-0.18601">
        <ele>122.1</ele>
        <time>2020-05-30T19:24:55Z</time>
      </trkpt>
      <trkpt lat="46.42953" lon="-0.186">
        <ele>122</ele>
        <time>2020-05-30T19:24:56Z</time>
      </trkpt>
      <trkpt lat="46.42949" lon="-0.18599">
        <ele>121.9</ele>
        <time>2020-05-30T19:24:57Z</time>
      </trkpt>
      <trkpt lat="46.42944" lon="-0.18598">
        <ele>121.8</ele>
        <time>2020-05-30T19:24:58Z</time>
      </trkpt>
      <trkpt lat="46.42939" lon="-0.18597">
        <ele>121.8</ele>
        <time>2020-05-30T19:24:59Z</time>
      </trkpt>
      <trkpt lat="46.42933" lon="-0.18595">
        <ele>121.8</ele>
        <time>2020-05-30T19:25:00Z</time>
      </trkpt>
      <trkpt lat="46.42928" lon="-0.18593">
        <ele>121.7</ele>
        <time>2020-05-30T19:25:01Z</time>
      </trkpt>
      <trkpt lat="46.42922" lon="-0.18589">
        <ele>121.7</ele>
        <time>2020-05-30T19:25:02Z</time>
      </trkpt>
      <trkpt lat="46.42916" lon="-0.18587">
        <ele>121.6</ele>
        <time>2020-05-30T19:25:03Z</time>
      </trkpt>
      <trkpt lat="46.42911" lon="-0.18585">
        <ele>121.6</ele>
        <time>2020-05-30T19:25:04Z</time>
      </trkpt>
      <trkpt lat="46.42905" lon="-0.18583">
        <ele>121.5</ele>
        <time>2020-05-30T19:25:05Z</time>
      </trkpt>
      <trkpt lat="46.42899" lon="-0.18587">
        <ele>121.5</ele>
        <time>2020-05-30T19:25:06Z</time>
      </trkpt>
      <trkpt lat="46.42893" lon="-0.18586">
        <ele>121.4</ele>
        <time>2020-05-30T19:25:07Z</time>
      </trkpt>
      <trkpt lat="46.42888" lon="-0.1859">
        <ele>121.4</ele>
        <time>2020-05-30T19:25:08Z</time>
      </trkpt>
      <trkpt lat="46.42882" lon="-0.18593">
        <ele>121.3</ele>
        <time>2020-05-30T19:25:09Z</time>
      </trkpt>
      <trkpt lat="46.42877" lon="-0.18594">
        <ele>121.2</ele>
        <time>2020-05-30T19:25:10Z</time>
      </trkpt>
      <trkpt lat="46.42871" lon="-0.18596">
        <ele>121.2</ele>
        <time>2020-05-30T19:25:11Z</time>
      </trkpt>
      <trkpt lat="46.42865" lon="-0.18597">
        <ele>121.1</ele>
        <time>2020-05-30T19:25:12Z</time>
      </trkpt>
      <trkpt lat="46.42863" lon="-0.18594">
        <ele>121.1</ele>
        <time>2020-05-30T19:25:13Z</time>
      </trkpt>
      <trkpt lat="46.42863" lon="-0.18589">
        <ele>121.1</ele>
        <time>2020-05-30T19:25:14Z</time>
      </trkpt>
      <trkpt lat="46.42863" lon="-0.18588">
        <ele>121</ele>
        <time>2020-05-30T19:25:15Z</time>
      </trkpt>
      <trkpt lat="46.42862" lon="-0.18588">
        <ele>121</ele>
        <time>2020-05-30T19:25:16Z</time>
      </trkpt>
      <trkpt lat="46.42862" lon="-0.18587">
        <ele>121</ele>
        <time>2020-05-30T19:25:17Z</time>
      </trkpt>
      <trkpt lat="46.42861" lon="-0.18587">
        <ele>121</ele>
        <time>2020-05-30T19:25:18Z</time>
      </trkpt>
      <trkpt lat="46.4286" lon="-0.18587">
        <ele>121</ele>
        <time>2020-05-30T19:25:19Z</time>
      </trkpt>
      <trkpt lat="46.42861" lon="-0.18586">
        <ele>121</ele>
        <time>2020-05-30T19:25:20Z</time>
      </trkpt>
      <trkpt lat="46.42861" lon="-0.18586">
        <ele>121</ele>
        <time>2020-05-30T19:25:21Z</time>
      </trkpt>
      <trkpt lat="46.42863" lon="-0.18584">
        <ele>121</ele>
        <time>2020-05-30T19:25:22Z</time>
      </trkpt>
      <trkpt lat="46.42864" lon="-0.18583">
        <ele>121</ele>
        <time>2020-05-30T19:25:23Z</time>
      </trkpt>
      <trkpt lat="46.42864" lon="-0.18583">
        <ele>121</ele>
        <time>2020-05-30T19:25:24Z</time>
      </trkpt>
      <trkpt lat="46.42864" lon="-0.18582">
        <ele>120.9</ele>
        <time>2020-05-30T19:25:25Z</time>
      </trkpt>
      <trkpt lat="46.42863" lon="-0.18582">
        <ele>120.9</ele>
        <time>2020-05-30T19:25:26Z</time>
      </trkpt>
      <trkpt lat="46.42864" lon="-0.18581">
        <ele>120.9</ele>
        <time>2020-05-30T19:25:27Z</time>
      </trkpt>
      <trkpt lat="46.42864" lon="-0.18581">
        <ele>120.9</ele>
        <time>2020-05-30T19:25:28Z</time>
      </trkpt>
      <trkpt lat="46.42865" lon="-0.1858">
        <ele>120.9</ele>
        <time>2020-05-30T19:25:29Z</time>
      </trkpt>
      <trkpt lat="46.42865" lon="-0.18579">
        <ele>120.9</ele>
        <time>2020-05-30T19:25:30Z</time>
      </trkpt>
      <trkpt lat="46.42866" lon="-0.18579">
        <ele>120.9</ele>
        <time>2020-05-30T19:25:31Z</time>
      </trkpt>
      <trkpt lat="46.42866" lon="-0.18579">
        <ele>120.9</ele>
        <time>2020-05-30T19:25:32Z</time>
      </trkpt>
      <trkpt lat="46.42866" lon="-0.18579">
        <ele>120.9</ele>
        <time>2020-05-30T19:25:33Z</time>
      </trkpt>
      <trkpt lat="46.42866" lon="-0.18579">
        <ele>120.9</ele>
        <time>2020-05-30T19:25:34Z</time>
      </trkpt>
      <trkpt lat="46.42866" lon="-0.18578">
        <ele>120.9</ele>
        <time>2020-05-30T19:25:35Z</time>
      </trkpt>
      <trkpt lat="46.42866" lon="-0.18577">
        <ele>120.9</ele>
        <time>2020-05-30T19:25:36Z</time>
      </trkpt>
      <trkpt lat="46.42866" lon="-0.18577">
        <ele>120.9</ele>
        <time>2020-05-30T19:25:37Z</time>
      </trkpt>
      <trkpt lat="46.42866" lon="-0.18577">
        <ele>120.9</ele>
        <time>2020-05-30T19:25:38Z</time>
      </trkpt>
      <trkpt lat="46.42867" lon="-0.18577">
        <ele>120.9</ele>
        <time>2020-05-30T19:25:39Z</time>
      </trkpt>
      <trkpt lat="46.42868" lon="-0.18578">
        <ele>120.8</ele>
        <time>2020-05-30T19:25:40Z</time>
      </trkpt>
      <trkpt lat="46.42868" lon="-0.18578">
        <ele>120.8</ele>
        <time>2020-05-30T19:25:41Z</time>
      </trkpt>
      <trkpt lat="46.42868" lon="-0.18578">
        <ele>120.8</ele>
        <time>2020-05-30T19:25:42Z</time>
      </trkpt>
      <trkpt lat="46.42868" lon="-0.18578">
        <ele>120.8</ele>
        <time>2020-05-30T19:25:43Z</time>
      </trkpt>
      <trkpt lat="46.42868" lon="-0.18578">
        <ele>120.8</ele>
        <time>2020-05-30T19:25:44Z</time>
      </trkpt>
      <trkpt lat="46.42868" lon="-0.18578">
        <ele>120.8</ele>
        <time>2020-05-30T19:25:45Z</time>
      </trkpt>
      <trkpt lat="46.42868" lon="-0.18578">
        <ele>120.8</ele>
        <time>2020-05-30T19:25:46Z</time>
      </trkpt>
      <trkpt lat="46.42868" lon="-0.18577">
        <ele>120.8</ele>
        <time>2020-05-30T19:25:47Z</time>
      </trkpt>
      <trkpt lat="46.42868" lon="-0.18575">
        <ele>120.8</ele>
        <time>2020-05-30T19:25:48Z</time>
      </trkpt>
      <trkpt lat="46.42868" lon="-0.18575">
        <ele>120.8</ele>
        <time>2020-05-30T19:25:49Z</time>
      </trkpt>
      <trkpt lat="46.42868" lon="-0.18575">
        <ele>120.8</ele>
        <time>2020-05-30T19:25:50Z</time>
      </trkpt>
      <trkpt lat="46.42867" lon="-0.18575">
        <ele>120.8</ele>
        <time>2020-05-30T19:25:51Z</time>
      </trkpt>
      <trkpt lat="46.42867" lon="-0.18575">
        <ele>120.8</ele>
        <time>2020-05-30T19:25:52Z</time>
      </trkpt>
      <trkpt lat="46.42867" lon="-0.18574">
        <ele>120.8</ele>
        <time>2020-05-30T19:25:53Z</time>
      </trkpt>
      <trkpt lat="46.42867" lon="-0.18574">
        <ele>120.8</ele>
        <time>2020-05-30T19:25:54Z</time>
      </trkpt>
      <trkpt lat="46.42867" lon="-0.18573">
        <ele>120.8</ele>
        <time>2020-05-30T19:25:55Z</time>
      </trkpt>
      <trkpt lat="46.42867" lon="-0.18573">
        <ele>120.8</ele>
        <time>2020-05-30T19:25:56Z</time>
      </trkpt>
      <trkpt lat="46.42867" lon="-0.18574">
        <ele>120.8</ele>
        <time>2020-05-30T19:25:57Z</time>
      </trkpt>
      <trkpt lat="46.42868" lon="-0.18572">
        <ele>120.8</ele>
        <time>2020-05-30T19:25:58Z</time>
      </trkpt>
      <trkpt lat="46.42867" lon="-0.18574">
        <ele>120.7</ele>
        <time>2020-05-30T19:25:59Z</time>
      </trkpt>
      <trkpt lat="46.42867" lon="-0.18574">
        <ele>120.7</ele>
        <time>2020-05-30T19:26:00Z</time>
      </trkpt>
      <trkpt lat="46.42867" lon="-0.18574">
        <ele>120.7</ele>
        <time>2020-05-30T19:26:01Z</time>
      </trkpt>
      <trkpt lat="46.42867" lon="-0.18574">
        <ele>120.7</ele>
        <time>2020-05-30T19:26:02Z</time>
      </trkpt>
      <trkpt lat="46.42866" lon="-0.18575">
        <ele>120.7</ele>
        <time>2020-05-30T19:26:03Z</time>
      </trkpt>
      <trkpt lat="46.42866" lon="-0.18574">
        <ele>120.7</ele>
        <time>2020-05-30T19:26:04Z</time>
      </trkpt>
      <trkpt lat="46.42867" lon="-0.18573">
        <ele>120.7</ele>
        <time>2020-05-30T19:26:05Z</time>
      </trkpt>
      <trkpt lat="46.42867" lon="-0.18573">
        <ele>120.7</ele>
        <time>2020-05-30T19:26:06Z</time>
      </trkpt>
      <trkpt lat="46.42868" lon="-0.18572">
        <ele>120.7</ele>
        <time>2020-05-30T19:26:07Z</time>
      </trkpt>
      <trkpt lat="46.42867" lon="-0.18573">
        <ele>120.7</ele>
        <time>2020-05-30T19:26:08Z</time>
      </trkpt>
      <trkpt lat="46.42867" lon="-0.18573">
        <ele>120.7</ele>
        <time>2020-05-30T19:26:09Z</time>
      </trkpt>
      <trkpt lat="46.42867" lon="-0.18573">
        <ele>120.7</ele>
        <time>2020-05-30T19:26:10Z</time>
      </trkpt>
      <trkpt lat="46.42867" lon="-0.18573">
        <ele>120.7</ele>
        <time>2020-05-30T19:26:11Z</time>
      </trkpt>
      <trkpt lat="46.42866" lon="-0.18574">
        <ele>120.6</ele>
        <time>2020-05-30T19:26:12Z</time>
      </trkpt>
      <trkpt lat="46.42866" lon="-0.18575">
        <ele>120.6</ele>
        <time>2020-05-30T19:26:13Z</time>
      </trkpt>
      <trkpt lat="46.42865" lon="-0.18576">
        <ele>120.6</ele>
        <time>2020-05-30T19:26:14Z</time>
      </trkpt>
      <trkpt lat="46.42865" lon="-0.18577">
        <ele>120.6</ele>
        <time>2020-05-30T19:26:15Z</time>
      </trkpt>
      <trkpt lat="46.42865" lon="-0.18577">
        <ele>120.6</ele>
        <time>2020-05-30T19:26:16Z</time>
      </trkpt>
      <trkpt lat="46.42865" lon="-0.18576">
        <ele>120.6</ele>
        <time>2020-05-30T19:26:17Z</time>
      </trkpt>
      <trkpt lat="46.42865" lon="-0.18576">
        <ele>120.6</ele>
        <time>2020-05-30T19:26:18Z</time>
      </trkpt>
      <trkpt lat="46.42865" lon="-0.18575">
        <ele>120.6</ele>
        <time>2020-05-30T19:26:19Z</time>
      </trkpt>
      <trkpt lat="46.42866" lon="-0.18574">
        <ele>120.6</ele>
        <time>2020-05-30T19:26:20Z</time>
      </trkpt>
      <trkpt lat="46.42866" lon="-0.18574">
        <ele>120.6</ele>
        <time>2020-05-30T19:26:21Z</time>
      </trkpt>
      <trkpt lat="46.42867" lon="-0.18572">
        <ele>120.5</ele>
        <time>2020-05-30T19:26:22Z</time>
      </trkpt>
      <trkpt lat="46.42867" lon="-0.18572">
        <ele>120.5</ele>
        <time>2020-05-30T19:26:23Z</time>
      </trkpt>
      <trkpt lat="46.42868" lon="-0.18571">
        <ele>120.5</ele>
        <time>2020-05-30T19:26:24Z</time>
      </trkpt>
      <trkpt lat="46.42867" lon="-0.18571">
        <ele>120.5</ele>
        <time>2020-05-30T19:26:25Z</time>
      </trkpt>
      <trkpt lat="46.42867" lon="-0.18573">
        <ele>120.5</ele>
        <time>2020-05-30T19:26:26Z</time>
      </trkpt>
      <trkpt lat="46.42866" lon="-0.18573">
        <ele>120.5</ele>
        <time>2020-05-30T19:26:27Z</time>
      </trkpt>
      <trkpt lat="46.42866" lon="-0.18573">
        <ele>120.5</ele>
        <time>2020-05-30T19:26:28Z</time>
      </trkpt>
      <trkpt lat="46.42866" lon="-0.18573">
        <ele>120.5</ele>
        <time>2020-05-30T19:26:29Z</time>
      </trkpt>
      <trkpt lat="46.42867" lon="-0.18573">
        <ele>120.5</ele>
        <time>2020-05-30T19:26:30Z</time>
      </trkpt>
      <trkpt lat="46.42867" lon="-0.18573">
        <ele>120.5</ele>
        <time>2020-05-30T19:26:31Z</time>
      </trkpt>
      <trkpt lat="46.42867" lon="-0.18573">
        <ele>120.5</ele>
        <time>2020-05-30T19:26:32Z</time>
      </trkpt>
      <trkpt lat="46.42867" lon="-0.18573">
        <ele>120.5</ele>
        <time>2020-05-30T19:26:33Z</time>
      </trkpt>
      <trkpt lat="46.42866" lon="-0.18574">
        <ele>120.4</ele>
        <time>2020-05-30T19:26:34Z</time>
      </trkpt>
      <trkpt lat="46.42867" lon="-0.18574">
        <ele>120.4</ele>
        <time>2020-05-30T19:26:35Z</time>
      </trkpt>
      <trkpt lat="46.42867" lon="-0.18573">
        <ele>120.4</ele>
        <time>2020-05-30T19:26:36Z</time>
      </trkpt>
      <trkpt lat="46.42867" lon="-0.18574">
        <ele>120.4</ele>
        <time>2020-05-30T19:26:37Z</time>
      </trkpt>
      <trkpt lat="46.42867" lon="-0.18573">
        <ele>120.4</ele>
        <time>2020-05-30T19:26:38Z</time>
      </trkpt>
      <trkpt lat="46.42867" lon="-0.18573">
        <ele>120.4</ele>
        <time>2020-05-30T19:26:39Z</time>
      </trkpt>
      <trkpt lat="46.42866" lon="-0.18574">
        <ele>120.4</ele>
        <time>2020-05-30T19:26:40Z</time>
      </trkpt>
      <trkpt lat="46.42866" lon="-0.18574">
        <ele>120.4</ele>
        <time>2020-05-30T19:26:41Z</time>
      </trkpt>
      <trkpt lat="46.42866" lon="-0.18574">
        <ele>120.4</ele>
        <time>2020-05-30T19:26:42Z</time>
      </trkpt>
      <trkpt lat="46.42866" lon="-0.18574">
        <ele>120.4</ele>
        <time>2020-05-30T19:26:43Z</time>
      </trkpt>
      <trkpt lat="46.42866" lon="-0.18574">
        <ele>120.4</ele>
        <time>2020-05-30T19:26:44Z</time>
      </trkpt>
      <trkpt lat="46.42866" lon="-0.18574">
        <ele>120.4</ele>
        <time>2020-05-30T19:26:45Z</time>
      </trkpt>
      <trkpt lat="46.42866" lon="-0.18574">
        <ele>120.4</ele>
        <time>2020-05-30T19:26:46Z</time>
      </trkpt>
      <trkpt lat="46.42866" lon="-0.18574">
        <ele>120.4</ele>
        <time>2020-05-30T19:26:47Z</time>
      </trkpt>
      <trkpt lat="46.42866" lon="-0.18575">
        <ele>120.4</ele>
        <time>2020-05-30T19:26:48Z</time>
      </trkpt>
      <trkpt lat="46.42865" lon="-0.18576">
        <ele>120.4</ele>
        <time>2020-05-30T19:26:49Z</time>
      </trkpt>
      <trkpt lat="46.42865" lon="-0.18576">
        <ele>120.4</ele>
        <time>2020-05-30T19:26:50Z</time>
      </trkpt>
      <trkpt lat="46.42865" lon="-0.18576">
        <ele>120.4</ele>
        <time>2020-05-30T19:26:51Z</time>
      </trkpt>
      <trkpt lat="46.42865" lon="-0.18576">
        <ele>120.4</ele>
        <time>2020-05-30T19:26:52Z</time>
      </trkpt>
      <trkpt lat="46.42865" lon="-0.18577">
        <ele>120.3</ele>
        <time>2020-05-30T19:26:53Z</time>
      </trkpt>
      <trkpt lat="46.42866" lon="-0.18573">
        <ele>120.3</ele>
        <time>2020-05-30T19:26:54Z</time>
      </trkpt>
      <trkpt lat="46.42866" lon="-0.18573">
        <ele>120.3</ele>
        <time>2020-05-30T19:26:55Z</time>
      </trkpt>
      <trkpt lat="46.42866" lon="-0.18573">
        <ele>120.3</ele>
        <time>2020-05-30T19:26:56Z</time>
      </trkpt>
      <trkpt lat="46.42866" lon="-0.18573">
        <ele>120.3</ele>
        <time>2020-05-30T19:26:57Z</time>
      </trkpt>
      <trkpt lat="46.42866" lon="-0.18573">
        <ele>120.3</ele>
        <time>2020-05-30T19:26:58Z</time>
      </trkpt>
      <trkpt lat="46.42866" lon="-0.18573">
        <ele>120.3</ele>
        <time>2020-05-30T19:26:59Z</time>
      </trkpt>
      <trkpt lat="46.42866" lon="-0.18573">
        <ele>120.3</ele>
        <time>2020-05-30T19:27:00Z</time>
      </trkpt>
      <trkpt lat="46.42866" lon="-0.18573">
        <ele>120.3</ele>
        <time>2020-05-30T19:27:01Z</time>
      </trkpt>
      <trkpt lat="46.42866" lon="-0.18573">
        <ele>120.3</ele>
        <time>2020-05-30T19:27:02Z</time>
      </trkpt>
      <trkpt lat="46.42866" lon="-0.18573">
        <ele>120.3</ele>
        <time>2020-05-30T19:27:03Z</time>
      </trkpt>
      <trkpt lat="46.42866" lon="-0.18573">
        <ele>120.3</ele>
        <time>2020-05-30T19:27:04Z</time>
      </trkpt>
      <trkpt lat="46.42866" lon="-0.18573">
        <ele>120.3</ele>
        <time>2020-05-30T19:27:05Z</time>
      </trkpt>
      <trkpt lat="46.42866" lon="-0.18573">
        <ele>120.3</ele>
        <time>2020-05-30T19:27:06Z</time>
      </trkpt>
      <trkpt lat="46.42866" lon="-0.18573">
        <ele>120.3</ele>
        <time>2020-05-30T19:27:07Z</time>
      </trkpt>
      <trkpt lat="46.42866" lon="-0.18573">
        <ele>120.3</ele>
        <time>2020-05-30T19:27:08Z</time>
      </trkpt>
      <trkpt lat="46.42866" lon="-0.18573">
        <ele>120.3</ele>
        <time>2020-05-30T19:27:09Z</time>
      </trkpt>
      <trkpt lat="46.42866" lon="-0.18573">
        <ele>120.3</ele>
        <time>2020-05-30T19:27:10Z</time>
      </trkpt>
      <trkpt lat="46.42866" lon="-0.18573">
        <ele>120.3</ele>
        <time>2020-05-30T19:27:11Z</time>
      </trkpt>
      <trkpt lat="46.42866" lon="-0.18573">
        <ele>120.3</ele>
        <time>2020-05-30T19:27:12Z</time>
      </trkpt>
      <trkpt lat="46.42866" lon="-0.18573">
        <ele>120.3</ele>
        <time>2020-05-30T19:27:13Z</time>
      </trkpt>
      <trkpt lat="46.42865" lon="-0.18575">
        <ele>120.3</ele>
        <time>2020-05-30T19:27:14Z</time>
      </trkpt>
      <trkpt lat="46.42864" lon="-0.18575">
        <ele>120.3</ele>
        <time>2020-05-30T19:27:15Z</time>
      </trkpt>
      <trkpt lat="46.42864" lon="-0.18575">
        <ele>120.3</ele>
        <time>2020-05-30T19:27:16Z</time>
      </trkpt>
      <trkpt lat="46.42864" lon="-0.18575">
        <ele>120.2</ele>
        <time>2020-05-30T19:27:17Z</time>
      </trkpt>
      <trkpt lat="46.42864" lon="-0.18575">
        <ele>120.2</ele>
        <time>2020-05-30T19:27:18Z</time>
      </trkpt>
      <trkpt lat="46.42864" lon="-0.18576">
        <ele>120.2</ele>
        <time>2020-05-30T19:27:19Z</time>
      </trkpt>
      <trkpt lat="46.42864" lon="-0.18576">
        <ele>120.2</ele>
        <time>2020-05-30T19:27:20Z</time>
      </trkpt>
      <trkpt lat="46.42864" lon="-0.18576">
        <ele>120.2</ele>
        <time>2020-05-30T19:27:21Z</time>
      </trkpt>
      <trkpt lat="46.42864" lon="-0.18575">
        <ele>120.2</ele>
        <time>2020-05-30T19:27:22Z</time>
      </trkpt>
      <trkpt lat="46.42864" lon="-0.18575">
        <ele>120.2</ele>
        <time>2020-05-30T19:27:23Z</time>
      </trkpt>
      <trkpt lat="46.42864" lon="-0.18575">
        <ele>120.2</ele>
        <time>2020-05-30T19:27:24Z</time>
      </trkpt>
      <trkpt lat="46.42864" lon="-0.18575">
        <ele>120.2</ele>
        <time>2020-05-30T19:27:25Z</time>
      </trkpt>
      <trkpt lat="46.42864" lon="-0.18575">
        <ele>120.2</ele>
        <time>2020-05-30T19:27:26Z</time>
      </trkpt>
      <trkpt lat="46.42864" lon="-0.18575">
        <ele>120.2</ele>
        <time>2020-05-30T19:27:27Z</time>
      </trkpt>
      <trkpt lat="46.42864" lon="-0.18575">
        <ele>120.2</ele>
        <time>2020-05-30T19:27:28Z</time>
      </trkpt>
      <trkpt lat="46.42864" lon="-0.18575">
        <ele>120.2</ele>
        <time>2020-05-30T19:27:29Z</time>
      </trkpt>
      <trkpt lat="46.42864" lon="-0.18575">
        <ele>120.2</ele>
        <time>2020-05-30T19:27:30Z</time>
      </trkpt>
      <trkpt lat="46.42864" lon="-0.18575">
        <ele>120.2</ele>
        <time>2020-05-30T19:27:31Z</time>
      </trkpt>
      <trkpt lat="46.42864" lon="-0.18575">
        <ele>120.2</ele>
        <time>2020-05-30T19:27:32Z</time>
      </trkpt>
      <trkpt lat="46.42864" lon="-0.18575">
        <ele>120.2</ele>
        <time>2020-05-30T19:27:33Z</time>
      </trkpt>
      <trkpt lat="46.42864" lon="-0.18575">
        <ele>120.2</ele>
        <time>2020-05-30T19:27:34Z</time>
      </trkpt>
      <trkpt lat="46.42864" lon="-0.18575">
        <ele>120.2</ele>
        <time>2020-05-30T19:27:35Z</time>
      </trkpt>
      <trkpt lat="46.42864" lon="-0.18575">
        <ele>120.2</ele>
        <time>2020-05-30T19:27:36Z</time>
      </trkpt>
      <trkpt lat="46.42864" lon="-0.18575">
        <ele>120.2</ele>
        <time>2020-05-30T19:27:37Z</time>
      </trkpt>
      <trkpt lat="46.42864" lon="-0.18575">
        <ele>120.2</ele>
        <time>2020-05-30T19:27:38Z</time>
      </trkpt>
      <trkpt lat="46.42864" lon="-0.18575">
        <ele>120.2</ele>
        <time>2020-05-30T19:27:39Z</time>
      </trkpt>
      <trkpt lat="46.42864" lon="-0.18575">
        <ele>120.2</ele>
        <time>2020-05-30T19:27:40Z</time>
      </trkpt>
      <trkpt lat="46.42864" lon="-0.18575">
        <ele>120.2</ele>
        <time>2020-05-30T19:27:41Z</time>
      </trkpt>
      <trkpt lat="46.42864" lon="-0.18575">
        <ele>120.2</ele>
        <time>2020-05-30T19:27:42Z</time>
      </trkpt>
      <trkpt lat="46.42864" lon="-0.18575">
        <ele>120.2</ele>
        <time>2020-05-30T19:27:43Z</time>
      </trkpt>
      <trkpt lat="46.42864" lon="-0.18575">
        <ele>120.2</ele>
        <time>2020-05-30T19:27:44Z</time>
      </trkpt>
      <trkpt lat="46.42864" lon="-0.18575">
        <ele>120.2</ele>
        <time>2020-05-30T19:27:45Z</time>
      </trkpt>
      <trkpt lat="46.42863" lon="-0.18575">
        <ele>120.2</ele>
        <time>2020-05-30T19:27:46Z</time>
      </trkpt>
      <trkpt lat="46.42864" lon="-0.18575">
        <ele>120.2</ele>
        <time>2020-05-30T19:27:47Z</time>
      </trkpt>
      <trkpt lat="46.42864" lon="-0.18574">
        <ele>120.2</ele>
        <time>2020-05-30T19:27:48Z</time>
      </trkpt>
      <trkpt lat="46.42863" lon="-0.18575">
        <ele>120.2</ele>
        <time>2020-05-30T19:27:49Z</time>
      </trkpt>
      <trkpt lat="46.42863" lon="-0.18575">
        <ele>120.2</ele>
        <time>2020-05-30T19:27:50Z</time>
      </trkpt>
      <trkpt lat="46.42864" lon="-0.18575">
        <ele>120.2</ele>
        <time>2020-05-30T19:27:51Z</time>
      </trkpt>
      <trkpt lat="46.42863" lon="-0.18575">
        <ele>120.2</ele>
        <time>2020-05-30T19:27:52Z</time>
      </trkpt>
      <trkpt lat="46.42864" lon="-0.18574">
        <ele>120.1</ele>
        <time>2020-05-30T19:27:53Z</time>
      </trkpt>
      <trkpt lat="46.42863" lon="-0.18575">
        <ele>120.1</ele>
        <time>2020-05-30T19:27:54Z</time>
      </trkpt>
      <trkpt lat="46.42863" lon="-0.18576">
        <ele>120.1</ele>
        <time>2020-05-30T19:27:55Z</time>
      </trkpt>
      <trkpt lat="46.42863" lon="-0.18576">
        <ele>120.1</ele>
        <time>2020-05-30T19:27:56Z</time>
      </trkpt>
      <trkpt lat="46.42863" lon="-0.18577">
        <ele>120.1</ele>
        <time>2020-05-30T19:27:57Z</time>
      </trkpt>
      <trkpt lat="46.42863" lon="-0.18577">
        <ele>120.1</ele>
        <time>2020-05-30T19:27:58Z</time>
      </trkpt>
      <trkpt lat="46.42863" lon="-0.18576">
        <ele>120.1</ele>
        <time>2020-05-30T19:27:59Z</time>
      </trkpt>
      <trkpt lat="46.42863" lon="-0.18576">
        <ele>120.1</ele>
        <time>2020-05-30T19:28:00Z</time>
      </trkpt>
      <trkpt lat="46.42862" lon="-0.18577">
        <ele>120.1</ele>
        <time>2020-05-30T19:28:01Z</time>
      </trkpt>
      <trkpt lat="46.42862" lon="-0.18578">
        <ele>120.1</ele>
        <time>2020-05-30T19:28:02Z</time>
      </trkpt>
      <trkpt lat="46.42862" lon="-0.18579">
        <ele>120.1</ele>
        <time>2020-05-30T19:28:03Z</time>
      </trkpt>
      <trkpt lat="46.42861" lon="-0.1858">
        <ele>120.1</ele>
        <time>2020-05-30T19:28:04Z</time>
      </trkpt>
      <trkpt lat="46.42861" lon="-0.1858">
        <ele>120.1</ele>
        <time>2020-05-30T19:28:05Z</time>
      </trkpt>
      <trkpt lat="46.42861" lon="-0.1858">
        <ele>120.1</ele>
        <time>2020-05-30T19:28:06Z</time>
      </trkpt>
      <trkpt lat="46.42861" lon="-0.1858">
        <ele>120.1</ele>
        <time>2020-05-30T19:28:07Z</time>
      </trkpt>
      <trkpt lat="46.42861" lon="-0.1858">
        <ele>120.1</ele>
        <time>2020-05-30T19:28:08Z</time>
      </trkpt>
      <trkpt lat="46.42861" lon="-0.1858">
        <ele>120.1</ele>
        <time>2020-05-30T19:28:09Z</time>
      </trkpt>
      <trkpt lat="46.42861" lon="-0.1858">
        <ele>120.1</ele>
        <time>2020-05-30T19:28:10Z</time>
      </trkpt>
      <trkpt lat="46.42861" lon="-0.1858">
        <ele>120.1</ele>
        <time>2020-05-30T19:28:11Z</time>
      </trkpt>
      <trkpt lat="46.42861" lon="-0.1858">
        <ele>120.1</ele>
        <time>2020-05-30T19:28:12Z</time>
      </trkpt>
      <trkpt lat="46.42861" lon="-0.1858">
        <ele>120</ele>
        <time>2020-05-30T19:28:13Z</time>
      </trkpt>
      <trkpt lat="46.42862" lon="-0.18579">
        <ele>120</ele>
        <time>2020-05-30T19:28:14Z</time>
      </trkpt>
      <trkpt lat="46.42862" lon="-0.18578">
        <ele>120</ele>
        <time>2020-05-30T19:28:15Z</time>
      </trkpt>
      <trkpt lat="46.42862" lon="-0.18577">
        <ele>120</ele>
        <time>2020-05-30T19:28:16Z</time>
      </trkpt>
      <trkpt lat="46.42863" lon="-0.18577">
        <ele>120</ele>
        <time>2020-05-30T19:28:17Z</time>
      </trkpt>
      <trkpt lat="46.42863" lon="-0.18575">
        <ele>120</ele>
        <time>2020-05-30T19:28:18Z</time>
      </trkpt>
      <trkpt lat="46.42864" lon="-0.18574">
        <ele>119.9</ele>
        <time>2020-05-30T19:28:19Z</time>
      </trkpt>
      <trkpt lat="46.42864" lon="-0.18574">
        <ele>119.9</ele>
        <time>2020-05-30T19:28:20Z</time>
      </trkpt>
      <trkpt lat="46.42864" lon="-0.18573">
        <ele>119.9</ele>
        <time>2020-05-30T19:28:21Z</time>
      </trkpt>
      <trkpt lat="46.42864" lon="-0.18574">
        <ele>119.9</ele>
        <time>2020-05-30T19:28:22Z</time>
      </trkpt>
      <trkpt lat="46.42864" lon="-0.18574">
        <ele>119.9</ele>
        <time>2020-05-30T19:28:23Z</time>
      </trkpt>
      <trkpt lat="46.42864" lon="-0.18573">
        <ele>119.9</ele>
        <time>2020-05-30T19:28:24Z</time>
      </trkpt>
      <trkpt lat="46.42864" lon="-0.18573">
        <ele>119.9</ele>
        <time>2020-05-30T19:28:25Z</time>
      </trkpt>
      <trkpt lat="46.42864" lon="-0.18572">
        <ele>119.9</ele>
        <time>2020-05-30T19:28:26Z</time>
      </trkpt>
      <trkpt lat="46.42865" lon="-0.18571">
        <ele>119.9</ele>
        <time>2020-05-30T19:28:27Z</time>
      </trkpt>
      <trkpt lat="46.42865" lon="-0.18571">
        <ele>119.9</ele>
        <time>2020-05-30T19:28:28Z</time>
      </trkpt>
      <trkpt lat="46.42865" lon="-0.1857">
        <ele>119.9</ele>
        <time>2020-05-30T19:28:29Z</time>
      </trkpt>
      <trkpt lat="46.42865" lon="-0.1857">
        <ele>119.9</ele>
        <time>2020-05-30T19:28:30Z</time>
      </trkpt>
      <trkpt lat="46.42865" lon="-0.1857">
        <ele>119.9</ele>
        <time>2020-05-30T19:28:31Z</time>
      </trkpt>
      <trkpt lat="46.42865" lon="-0.18571">
        <ele>119.9</ele>
        <time>2020-05-30T19:28:32Z</time>
      </trkpt>
      <trkpt lat="46.42865" lon="-0.18571">
        <ele>119.9</ele>
        <time>2020-05-30T19:28:33Z</time>
      </trkpt>
      <trkpt lat="46.42865" lon="-0.18571">
        <ele>119.9</ele>
        <time>2020-05-30T19:28:34Z</time>
      </trkpt>
      <trkpt lat="46.42865" lon="-0.18571">
        <ele>119.9</ele>
        <time>2020-05-30T19:28:35Z</time>
      </trkpt>
      <trkpt lat="46.42865" lon="-0.18571">
        <ele>119.9</ele>
        <time>2020-05-30T19:28:36Z</time>
      </trkpt>
      <trkpt lat="46.42864" lon="-0.18572">
        <ele>119.9</ele>
        <time>2020-05-30T19:28:37Z</time>
      </trkpt>
      <trkpt lat="46.42864" lon="-0.18571">
        <ele>119.8</ele>
        <time>2020-05-30T19:28:38Z</time>
      </trkpt>
      <trkpt lat="46.42864" lon="-0.18571">
        <ele>119.8</ele>
        <time>2020-05-30T19:28:39Z</time>
      </trkpt>
      <trkpt lat="46.42865" lon="-0.1857">
        <ele>119.8</ele>
        <time>2020-05-30T19:28:40Z</time>
      </trkpt>
      <trkpt lat="46.42865" lon="-0.1857">
        <ele>119.8</ele>
        <time>2020-05-30T19:28:41Z</time>
      </trkpt>
      <trkpt lat="46.42865" lon="-0.1857">
        <ele>119.8</ele>
        <time>2020-05-30T19:28:42Z</time>
      </trkpt>
      <trkpt lat="46.42864" lon="-0.18571">
        <ele>119.8</ele>
        <time>2020-05-30T19:28:43Z</time>
      </trkpt>
      <trkpt lat="46.42863" lon="-0.18572">
        <ele>119.8</ele>
        <time>2020-05-30T19:28:44Z</time>
      </trkpt>
      <trkpt lat="46.42863" lon="-0.18572">
        <ele>119.8</ele>
        <time>2020-05-30T19:28:45Z</time>
      </trkpt>
      <trkpt lat="46.42863" lon="-0.18573">
        <ele>119.7</ele>
        <time>2020-05-30T19:28:46Z</time>
      </trkpt>
      <trkpt lat="46.42863" lon="-0.18573">
        <ele>119.7</ele>
        <time>2020-05-30T19:28:47Z</time>
      </trkpt>
      <trkpt lat="46.42863" lon="-0.18573">
        <ele>119.7</ele>
        <time>2020-05-30T19:28:48Z</time>
      </trkpt>
      <trkpt lat="46.42863" lon="-0.18573">
        <ele>119.7</ele>
        <time>2020-05-30T19:28:49Z</time>
      </trkpt>
      <trkpt lat="46.42863" lon="-0.18572">
        <ele>119.7</ele>
        <time>2020-05-30T19:28:50Z</time>
      </trkpt>
      <trkpt lat="46.42863" lon="-0.18572">
        <ele>119.7</ele>
        <time>2020-05-30T19:28:51Z</time>
      </trkpt>
      <trkpt lat="46.42863" lon="-0.18573">
        <ele>119.7</ele>
        <time>2020-05-30T19:28:52Z</time>
      </trkpt>
      <trkpt lat="46.42863" lon="-0.18572">
        <ele>119.7</ele>
        <time>2020-05-30T19:28:53Z</time>
      </trkpt>
      <trkpt lat="46.42864" lon="-0.18572">
        <ele>119.7</ele>
        <time>2020-05-30T19:28:54Z</time>
      </trkpt>
      <trkpt lat="46.42863" lon="-0.18571">
        <ele>119.7</ele>
        <time>2020-05-30T19:28:55Z</time>
      </trkpt>
      <trkpt lat="46.42863" lon="-0.18571">
        <ele>119.7</ele>
        <time>2020-05-30T19:28:56Z</time>
      </trkpt>
      <trkpt lat="46.42864" lon="-0.18572">
        <ele>119.7</ele>
        <time>2020-05-30T19:28:57Z</time>
      </trkpt>
      <trkpt lat="46.42863" lon="-0.18572">
        <ele>119.7</ele>
        <time>2020-05-30T19:28:58Z</time>
      </trkpt>
      <trkpt lat="46.42862" lon="-0.18573">
        <ele>119.7</ele>
        <time>2020-05-30T19:28:59Z</time>
      </trkpt>
      <trkpt lat="46.42862" lon="-0.18575">
        <ele>119.6</ele>
        <time>2020-05-30T19:29:00Z</time>
      </trkpt>
      <trkpt lat="46.42862" lon="-0.18575">
        <ele>119.6</ele>
        <time>2020-05-30T19:29:01Z</time>
      </trkpt>
      <trkpt lat="46.42862" lon="-0.18576">
        <ele>119.6</ele>
        <time>2020-05-30T19:29:02Z</time>
      </trkpt>
      <trkpt lat="46.42862" lon="-0.18576">
        <ele>119.6</ele>
        <time>2020-05-30T19:29:03Z</time>
      </trkpt>
      <trkpt lat="46.42862" lon="-0.18575">
        <ele>119.6</ele>
        <time>2020-05-30T19:29:04Z</time>
      </trkpt>
      <trkpt lat="46.42863" lon="-0.18575">
        <ele>119.6</ele>
        <time>2020-05-30T19:29:05Z</time>
      </trkpt>
      <trkpt lat="46.42862" lon="-0.18575">
        <ele>119.6</ele>
        <time>2020-05-30T19:29:06Z</time>
      </trkpt>
      <trkpt lat="46.42862" lon="-0.18576">
        <ele>119.6</ele>
        <time>2020-05-30T19:29:07Z</time>
      </trkpt>
      <trkpt lat="46.42862" lon="-0.18576">
        <ele>119.6</ele>
        <time>2020-05-30T19:29:08Z</time>
      </trkpt>
      <trkpt lat="46.42863" lon="-0.18574">
        <ele>119.6</ele>
        <time>2020-05-30T19:29:09Z</time>
      </trkpt>
      <trkpt lat="46.42862" lon="-0.18575">
        <ele>119.5</ele>
        <time>2020-05-30T19:29:10Z</time>
      </trkpt>
      <trkpt lat="46.42862" lon="-0.18576">
        <ele>119.5</ele>
        <time>2020-05-30T19:29:11Z</time>
      </trkpt>
      <trkpt lat="46.42862" lon="-0.18576">
        <ele>119.5</ele>
        <time>2020-05-30T19:29:12Z</time>
      </trkpt>
      <trkpt lat="46.42862" lon="-0.18576">
        <ele>119.5</ele>
        <time>2020-05-30T19:29:13Z</time>
      </trkpt>
      <trkpt lat="46.42862" lon="-0.18576">
        <ele>119.5</ele>
        <time>2020-05-30T19:29:14Z</time>
      </trkpt>
      <trkpt lat="46.42862" lon="-0.18576">
        <ele>119.5</ele>
        <time>2020-05-30T19:29:15Z</time>
      </trkpt>
      <trkpt lat="46.42862" lon="-0.18577">
        <ele>119.5</ele>
        <time>2020-05-30T19:29:16Z</time>
      </trkpt>
      <trkpt lat="46.42863" lon="-0.18576">
        <ele>119.5</ele>
        <time>2020-05-30T19:29:17Z</time>
      </trkpt>
      <trkpt lat="46.42863" lon="-0.18576">
        <ele>119.5</ele>
        <time>2020-05-30T19:29:18Z</time>
      </trkpt>
      <trkpt lat="46.42863" lon="-0.18575">
        <ele>119.5</ele>
        <time>2020-05-30T19:29:19Z</time>
      </trkpt>
      <trkpt lat="46.42863" lon="-0.18575">
        <ele>119.5</ele>
        <time>2020-05-30T19:29:20Z</time>
      </trkpt>
      <trkpt lat="46.42863" lon="-0.18575">
        <ele>119.5</ele>
        <time>2020-05-30T19:29:21Z</time>
      </trkpt>
      <trkpt lat="46.42863" lon="-0.18575">
        <ele>119.5</ele>
        <time>2020-05-30T19:29:22Z</time>
      </trkpt>
      <trkpt lat="46.42863" lon="-0.18574">
        <ele>119.4</ele>
        <time>2020-05-30T19:29:23Z</time>
      </trkpt>
      <trkpt lat="46.42863" lon="-0.18574">
        <ele>119.4</ele>
        <time>2020-05-30T19:29:24Z</time>
      </trkpt>
      <trkpt lat="46.42863" lon="-0.18575">
        <ele>119.4</ele>
        <time>2020-05-30T19:29:25Z</time>
      </trkpt>
      <trkpt lat="46.42863" lon="-0.18575">
        <ele>119.4</ele>
        <time>2020-05-30T19:29:26Z</time>
      </trkpt>
      <trkpt lat="46.42863" lon="-0.18576">
        <ele>119.4</ele>
        <time>2020-05-30T19:29:27Z</time>
      </trkpt>
      <trkpt lat="46.42863" lon="-0.18576">
        <ele>119.4</ele>
        <time>2020-05-30T19:29:28Z</time>
      </trkpt>
      <trkpt lat="46.42864" lon="-0.18574">
        <ele>119.4</ele>
        <time>2020-05-30T19:29:29Z</time>
      </trkpt>
      <trkpt lat="46.42864" lon="-0.18574">
        <ele>119.4</ele>
        <time>2020-05-30T19:29:30Z</time>
      </trkpt>
      <trkpt lat="46.42863" lon="-0.18575">
        <ele>119.4</ele>
        <time>2020-05-30T19:29:31Z</time>
      </trkpt>
      <trkpt lat="46.42863" lon="-0.18574">
        <ele>119.4</ele>
        <time>2020-05-30T19:29:32Z</time>
      </trkpt>
      <trkpt lat="46.42863" lon="-0.18574">
        <ele>119.4</ele>
        <time>2020-05-30T19:29:33Z</time>
      </trkpt>
      <trkpt lat="46.42863" lon="-0.18575">
        <ele>119.3</ele>
        <time>2020-05-30T19:29:34Z</time>
      </trkpt>
      <trkpt lat="46.42863" lon="-0.18576">
        <ele>119.3</ele>
        <time>2020-05-30T19:29:35Z</time>
      </trkpt>
      <trkpt lat="46.42863" lon="-0.18575">
        <ele>119.3</ele>
        <time>2020-05-30T19:29:36Z</time>
      </trkpt>
      <trkpt lat="46.42863" lon="-0.18575">
        <ele>119.3</ele>
        <time>2020-05-30T19:29:37Z</time>
      </trkpt>
      <trkpt lat="46.42863" lon="-0.18575">
        <ele>119.3</ele>
        <time>2020-05-30T19:29:38Z</time>
      </trkpt>
      <trkpt lat="46.42864" lon="-0.18574">
        <ele>119.3</ele>
        <time>2020-05-30T19:29:39Z</time>
      </trkpt>
      <trkpt lat="46.42864" lon="-0.18575">
        <ele>119.3</ele>
        <time>2020-05-30T19:29:40Z</time>
      </trkpt>
      <trkpt lat="46.42863" lon="-0.18576">
        <ele>119.3</ele>
        <time>2020-05-30T19:29:41Z</time>
      </trkpt>
      <trkpt lat="46.42863" lon="-0.18576">
        <ele>119.3</ele>
        <time>2020-05-30T19:29:42Z</time>
      </trkpt>
      <trkpt lat="46.42863" lon="-0.18576">
        <ele>119.3</ele>
        <time>2020-05-30T19:29:43Z</time>
      </trkpt>
      <trkpt lat="46.42863" lon="-0.18576">
        <ele>119.3</ele>
        <time>2020-05-30T19:29:44Z</time>
      </trkpt>
      <trkpt lat="46.42863" lon="-0.18576">
        <ele>119.3</ele>
        <time>2020-05-30T19:29:45Z</time>
      </trkpt>
      <trkpt lat="46.42863" lon="-0.18576">
        <ele>119.3</ele>
        <time>2020-05-30T19:29:46Z</time>
      </trkpt>
      <trkpt lat="46.42864" lon="-0.18575">
        <ele>119.3</ele>
        <time>2020-05-30T19:29:47Z</time>
      </trkpt>
      <trkpt lat="46.42863" lon="-0.18575">
        <ele>119.3</ele>
        <time>2020-05-30T19:29:48Z</time>
      </trkpt>
      <trkpt lat="46.42864" lon="-0.18575">
        <ele>119.2</ele>
        <time>2020-05-30T19:29:49Z</time>
      </trkpt>
      <trkpt lat="46.42864" lon="-0.18575">
        <ele>119.2</ele>
        <time>2020-05-30T19:29:50Z</time>
      </trkpt>
      <trkpt lat="46.42864" lon="-0.18575">
        <ele>119.2</ele>
        <time>2020-05-30T19:29:51Z</time>
      </trkpt>
      <trkpt lat="46.42864" lon="-0.18575">
        <ele>119.2</ele>
        <time>2020-05-30T19:29:52Z</time>
      </trkpt>
      <trkpt lat="46.42864" lon="-0.18575">
        <ele>119.2</ele>
        <time>2020-05-30T19:29:53Z</time>
      </trkpt>
      <trkpt lat="46.42864" lon="-0.18575">
        <ele>119.2</ele>
        <time>2020-05-30T19:29:54Z</time>
      </trkpt>
      <trkpt lat="46.42864" lon="-0.18575">
        <ele>119.2</ele>
        <time>2020-05-30T19:29:55Z</time>
      </trkpt>
      <trkpt lat="46.42864" lon="-0.18575">
        <ele>119.2</ele>
        <time>2020-05-30T19:29:56Z</time>
      </trkpt>
      <trkpt lat="46.42864" lon="-0.18575">
        <ele>119.2</ele>
        <time>2020-05-30T19:29:57Z</time>
      </trkpt>
      <trkpt lat="46.42864" lon="-0.18575">
        <ele>119.2</ele>
        <time>2020-05-30T19:29:58Z</time>
      </trkpt>
      <trkpt lat="46.42864" lon="-0.18575">
        <ele>119.2</ele>
        <time>2020-05-30T19:29:59Z</time>
      </trkpt>
      <trkpt lat="46.42864" lon="-0.18575">
        <ele>119.2</ele>
        <time>2020-05-30T19:30:00Z</time>
      </trkpt>
      <trkpt lat="46.42864" lon="-0.18575">
        <ele>119.2</ele>
        <time>2020-05-30T19:30:01Z</time>
      </trkpt>
      <trkpt lat="46.42864" lon="-0.18575">
        <ele>119.2</ele>
        <time>2020-05-30T19:30:02Z</time>
      </trkpt>
      <trkpt lat="46.42864" lon="-0.18575">
        <ele>119.2</ele>
        <time>2020-05-30T19:30:03Z</time>
      </trkpt>
      <trkpt lat="46.42864" lon="-0.18575">
        <ele>119.2</ele>
        <time>2020-05-30T19:30:04Z</time>
      </trkpt>
      <trkpt lat="46.42864" lon="-0.18575">
        <ele>119.2</ele>
        <time>2020-05-30T19:30:05Z</time>
      </trkpt>
      <trkpt lat="46.42864" lon="-0.18575">
        <ele>119.2</ele>
        <time>2020-05-30T19:30:06Z</time>
      </trkpt>
      <trkpt lat="46.42864" lon="-0.18575">
        <ele>119.2</ele>
        <time>2020-05-30T19:30:07Z</time>
      </trkpt>
      <trkpt lat="46.42863" lon="-0.18574">
        <ele>119.2</ele>
        <time>2020-05-30T19:30:08Z</time>
      </trkpt>
      <trkpt lat="46.42863" lon="-0.18573">
        <ele>119.2</ele>
        <time>2020-05-30T19:30:09Z</time>
      </trkpt>
      <trkpt lat="46.42863" lon="-0.18574">
        <ele>119.2</ele>
        <time>2020-05-30T19:30:10Z</time>
      </trkpt>
      <trkpt lat="46.42863" lon="-0.18574">
        <ele>119.2</ele>
        <time>2020-05-30T19:30:11Z</time>
      </trkpt>
      <trkpt lat="46.42863" lon="-0.18574">
        <ele>119.2</ele>
        <time>2020-05-30T19:30:12Z</time>
      </trkpt>
      <trkpt lat="46.42863" lon="-0.18574">
        <ele>119.2</ele>
        <time>2020-05-30T19:30:13Z</time>
      </trkpt>
      <trkpt lat="46.42863" lon="-0.18574">
        <ele>119.2</ele>
        <time>2020-05-30T19:30:14Z</time>
      </trkpt>
      <trkpt lat="46.42864" lon="-0.18573">
        <ele>119.2</ele>
        <time>2020-05-30T19:30:15Z</time>
      </trkpt>
      <trkpt lat="46.42864" lon="-0.18573">
        <ele>119.2</ele>
        <time>2020-05-30T19:30:16Z</time>
      </trkpt>
      <trkpt lat="46.42864" lon="-0.18573">
        <ele>119.2</ele>
        <time>2020-05-30T19:30:17Z</time>
      </trkpt>
      <trkpt lat="46.42864" lon="-0.18572">
        <ele>119.2</ele>
        <time>2020-05-30T19:30:18Z</time>
      </trkpt>
      <trkpt lat="46.42865" lon="-0.18572">
        <ele>119.2</ele>
        <time>2020-05-30T19:30:19Z</time>
      </trkpt>
      <trkpt lat="46.42865" lon="-0.18572">
        <ele>119.2</ele>
        <time>2020-05-30T19:30:20Z</time>
      </trkpt>
      <trkpt lat="46.42865" lon="-0.18572">
        <ele>119.2</ele>
        <time>2020-05-30T19:30:21Z</time>
      </trkpt>
      <trkpt lat="46.42865" lon="-0.18571">
        <ele>119.1</ele>
        <time>2020-05-30T19:30:22Z</time>
      </trkpt>
      <trkpt lat="46.42865" lon="-0.18571">
        <ele>119.1</ele>
        <time>2020-05-30T19:30:23Z</time>
      </trkpt>
      <trkpt lat="46.42866" lon="-0.1857">
        <ele>119.1</ele>
        <time>2020-05-30T19:30:24Z</time>
      </trkpt>
      <trkpt lat="46.42865" lon="-0.1857">
        <ele>119.1</ele>
        <time>2020-05-30T19:30:25Z</time>
      </trkpt>
      <trkpt lat="46.42865" lon="-0.1857">
        <ele>119.1</ele>
        <time>2020-05-30T19:30:26Z</time>
      </trkpt>
      <trkpt lat="46.42864" lon="-0.18571">
        <ele>119.1</ele>
        <time>2020-05-30T19:30:27Z</time>
      </trkpt>
      <trkpt lat="46.42864" lon="-0.18571">
        <ele>119.1</ele>
        <time>2020-05-30T19:30:28Z</time>
      </trkpt>
      <trkpt lat="46.42864" lon="-0.18571">
        <ele>119.1</ele>
        <time>2020-05-30T19:30:29Z</time>
      </trkpt>
      <trkpt lat="46.42864" lon="-0.18571">
        <ele>119.1</ele>
        <time>2020-05-30T19:30:30Z</time>
      </trkpt>
      <trkpt lat="46.42864" lon="-0.18571">
        <ele>119.1</ele>
        <time>2020-05-30T19:30:31Z</time>
      </trkpt>
      <trkpt lat="46.42863" lon="-0.18572">
        <ele>119.1</ele>
        <time>2020-05-30T19:30:32Z</time>
      </trkpt>
      <trkpt lat="46.42863" lon="-0.18573">
        <ele>119.1</ele>
        <time>2020-05-30T19:30:33Z</time>
      </trkpt>
      <trkpt lat="46.42863" lon="-0.18573">
        <ele>119.1</ele>
        <time>2020-05-30T19:30:34Z</time>
      </trkpt>
      <trkpt lat="46.42863" lon="-0.18573">
        <ele>119.1</ele>
        <time>2020-05-30T19:30:35Z</time>
      </trkpt>
      <trkpt lat="46.42863" lon="-0.18574">
        <ele>119.1</ele>
        <time>2020-05-30T19:30:36Z</time>
      </trkpt>
      <trkpt lat="46.42863" lon="-0.18574">
        <ele>119</ele>
        <time>2020-05-30T19:30:37Z</time>
      </trkpt>
      <trkpt lat="46.42863" lon="-0.18573">
        <ele>119</ele>
        <time>2020-05-30T19:30:38Z</time>
      </trkpt>
      <trkpt lat="46.42864" lon="-0.18573">
        <ele>119</ele>
        <time>2020-05-30T19:30:39Z</time>
      </trkpt>
      <trkpt lat="46.42864" lon="-0.18573">
        <ele>119</ele>
        <time>2020-05-30T19:30:40Z</time>
      </trkpt>
      <trkpt lat="46.42863" lon="-0.18574">
        <ele>119</ele>
        <time>2020-05-30T19:30:41Z</time>
      </trkpt>
      <trkpt lat="46.42863" lon="-0.18574">
        <ele>119</ele>
        <time>2020-05-30T19:30:42Z</time>
      </trkpt>
      <trkpt lat="46.42863" lon="-0.18574">
        <ele>119</ele>
        <time>2020-05-30T19:30:43Z</time>
      </trkpt>
      <trkpt lat="46.42864" lon="-0.18574">
        <ele>119</ele>
        <time>2020-05-30T19:30:44Z</time>
      </trkpt>
      <trkpt lat="46.42863" lon="-0.18574">
        <ele>119</ele>
        <time>2020-05-30T19:30:45Z</time>
      </trkpt>
      <trkpt lat="46.42864" lon="-0.18574">
        <ele>119</ele>
        <time>2020-05-30T19:30:46Z</time>
      </trkpt>
      <trkpt lat="46.42864" lon="-0.18574">
        <ele>119</ele>
        <time>2020-05-30T19:30:47Z</time>
      </trkpt>
      <trkpt lat="46.42864" lon="-0.18574">
        <ele>119</ele>
        <time>2020-05-30T19:30:48Z</time>
      </trkpt>
      <trkpt lat="46.42864" lon="-0.18574">
        <ele>119</ele>
        <time>2020-05-30T19:30:49Z</time>
      </trkpt>
      <trkpt lat="46.42864" lon="-0.18574">
        <ele>119</ele>
        <time>2020-05-30T19:30:50Z</time>
      </trkpt>
      <trkpt lat="46.42863" lon="-0.18574">
        <ele>119</ele>
        <time>2020-05-30T19:30:51Z</time>
      </trkpt>
      <trkpt lat="46.42863" lon="-0.18574">
        <ele>119</ele>
        <time>2020-05-30T19:30:52Z</time>
      </trkpt>
      <trkpt lat="46.42863" lon="-0.18574">
        <ele>119</ele>
        <time>2020-05-30T19:30:53Z</time>
      </trkpt>
      <trkpt lat="46.42863" lon="-0.18575">
        <ele>119</ele>
        <time>2020-05-30T19:30:54Z</time>
      </trkpt>
      <trkpt lat="46.42863" lon="-0.18575">
        <ele>119</ele>
        <time>2020-05-30T19:30:55Z</time>
      </trkpt>
      <trkpt lat="46.42864" lon="-0.18573">
        <ele>118.9</ele>
        <time>2020-05-30T19:30:56Z</time>
      </trkpt>
      <trkpt lat="46.42864" lon="-0.18573">
        <ele>118.9</ele>
        <time>2020-05-30T19:30:57Z</time>
      </trkpt>
      <trkpt lat="46.42864" lon="-0.18573">
        <ele>118.9</ele>
        <time>2020-05-30T19:30:58Z</time>
      </trkpt>
      <trkpt lat="46.42864" lon="-0.18574">
        <ele>118.9</ele>
        <time>2020-05-30T19:30:59Z</time>
      </trkpt>
      <trkpt lat="46.42863" lon="-0.18576">
        <ele>118.9</ele>
        <time>2020-05-30T19:31:00Z</time>
      </trkpt>
      <trkpt lat="46.42863" lon="-0.18576">
        <ele>118.9</ele>
        <time>2020-05-30T19:31:01Z</time>
      </trkpt>
      <trkpt lat="46.42863" lon="-0.18577">
        <ele>118.9</ele>
        <time>2020-05-30T19:31:02Z</time>
      </trkpt>
      <trkpt lat="46.42862" lon="-0.18578">
        <ele>118.9</ele>
        <time>2020-05-30T19:31:03Z</time>
      </trkpt>
      <trkpt lat="46.42862" lon="-0.18578">
        <ele>118.9</ele>
        <time>2020-05-30T19:31:04Z</time>
      </trkpt>
      <trkpt lat="46.42863" lon="-0.18578">
        <ele>118.9</ele>
        <time>2020-05-30T19:31:05Z</time>
      </trkpt>
      <trkpt lat="46.42863" lon="-0.18578">
        <ele>118.9</ele>
        <time>2020-05-30T19:31:06Z</time>
      </trkpt>
      <trkpt lat="46.42863" lon="-0.18578">
        <ele>118.9</ele>
        <time>2020-05-30T19:31:07Z</time>
      </trkpt>
      <trkpt lat="46.42863" lon="-0.18578">
        <ele>118.8</ele>
        <time>2020-05-30T19:31:08Z</time>
      </trkpt>
      <trkpt lat="46.42863" lon="-0.18579">
        <ele>118.8</ele>
        <time>2020-05-30T19:31:09Z</time>
      </trkpt>
      <trkpt lat="46.42863" lon="-0.18579">
        <ele>118.8</ele>
        <time>2020-05-30T19:31:10Z</time>
      </trkpt>
      <trkpt lat="46.42863" lon="-0.18578">
        <ele>118.8</ele>
        <time>2020-05-30T19:31:11Z</time>
      </trkpt>
      <trkpt lat="46.42863" lon="-0.18579">
        <ele>118.8</ele>
        <time>2020-05-30T19:31:12Z</time>
      </trkpt>
      <trkpt lat="46.42863" lon="-0.18578">
        <ele>118.8</ele>
        <time>2020-05-30T19:31:13Z</time>
      </trkpt>
      <trkpt lat="46.42863" lon="-0.18578">
        <ele>118.8</ele>
        <time>2020-05-30T19:31:14Z</time>
      </trkpt>
      <trkpt lat="46.42864" lon="-0.18577">
        <ele>118.8</ele>
        <time>2020-05-30T19:31:15Z</time>
      </trkpt>
      <trkpt lat="46.42864" lon="-0.18577">
        <ele>118.8</ele>
        <time>2020-05-30T19:31:16Z</time>
      </trkpt>
      <trkpt lat="46.42864" lon="-0.18577">
        <ele>118.8</ele>
        <time>2020-05-30T19:31:17Z</time>
      </trkpt>
      <trkpt lat="46.42864" lon="-0.18577">
        <ele>118.8</ele>
        <time>2020-05-30T19:31:18Z</time>
      </trkpt>
      <trkpt lat="46.42864" lon="-0.18576">
        <ele>118.8</ele>
        <time>2020-05-30T19:31:19Z</time>
      </trkpt>
      <trkpt lat="46.42865" lon="-0.18574">
        <ele>118.8</ele>
        <time>2020-05-30T19:31:20Z</time>
      </trkpt>
      <trkpt lat="46.42866" lon="-0.18573">
        <ele>118.7</ele>
        <time>2020-05-30T19:31:21Z</time>
      </trkpt>
      <trkpt lat="46.42866" lon="-0.18573">
        <ele>118.7</ele>
        <time>2020-05-30T19:31:22Z</time>
      </trkpt>
      <trkpt lat="46.42866" lon="-0.18574">
        <ele>118.7</ele>
        <time>2020-05-30T19:31:23Z</time>
      </trkpt>
      <trkpt lat="46.42866" lon="-0.18574">
        <ele>118.7</ele>
        <time>2020-05-30T19:31:24Z</time>
      </trkpt>
      <trkpt lat="46.42866" lon="-0.18573">
        <ele>118.7</ele>
        <time>2020-05-30T19:31:25Z</time>
      </trkpt>
      <trkpt lat="46.42867" lon="-0.18572">
        <ele>118.7</ele>
        <time>2020-05-30T19:31:26Z</time>
      </trkpt>
      <trkpt lat="46.42866" lon="-0.18573">
        <ele>118.7</ele>
        <time>2020-05-30T19:31:27Z</time>
      </trkpt>
      <trkpt lat="46.42866" lon="-0.18573">
        <ele>118.7</ele>
        <time>2020-05-30T19:31:28Z</time>
      </trkpt>
      <trkpt lat="46.42866" lon="-0.18575">
        <ele>118.7</ele>
        <time>2020-05-30T19:31:29Z</time>
      </trkpt>
      <trkpt lat="46.42866" lon="-0.18577">
        <ele>118.7</ele>
        <time>2020-05-30T19:31:30Z</time>
      </trkpt>
      <trkpt lat="46.42864" lon="-0.18579">
        <ele>118.6</ele>
        <time>2020-05-30T19:31:31Z</time>
      </trkpt>
      <trkpt lat="46.42861" lon="-0.1858">
        <ele>118.6</ele>
        <time>2020-05-30T19:31:32Z</time>
      </trkpt>
      <trkpt lat="46.4286" lon="-0.1858">
        <ele>118.6</ele>
        <time>2020-05-30T19:31:33Z</time>
      </trkpt>
      <trkpt lat="46.42857" lon="-0.18582">
        <ele>118.6</ele>
        <time>2020-05-30T19:31:34Z</time>
      </trkpt>
      <trkpt lat="46.42854" lon="-0.18584">
        <ele>118.5</ele>
        <time>2020-05-30T19:31:35Z</time>
      </trkpt>
      <trkpt lat="46.42851" lon="-0.18586">
        <ele>118.5</ele>
        <time>2020-05-30T19:31:36Z</time>
      </trkpt>
      <trkpt lat="46.42848" lon="-0.18587">
        <ele>118.5</ele>
        <time>2020-05-30T19:31:37Z</time>
      </trkpt>
      <trkpt lat="46.42845" lon="-0.18589">
        <ele>118.4</ele>
        <time>2020-05-30T19:31:38Z</time>
      </trkpt>
      <trkpt lat="46.42842" lon="-0.1859">
        <ele>118.4</ele>
        <time>2020-05-30T19:31:39Z</time>
      </trkpt>
      <trkpt lat="46.42839" lon="-0.18593">
        <ele>118.4</ele>
        <time>2020-05-30T19:31:40Z</time>
      </trkpt>
      <trkpt lat="46.42837" lon="-0.18596">
        <ele>118.3</ele>
        <time>2020-05-30T19:31:41Z</time>
      </trkpt>
      <trkpt lat="46.42834" lon="-0.18596">
        <ele>118.2</ele>
        <time>2020-05-30T19:31:42Z</time>
      </trkpt>
      <trkpt lat="46.42832" lon="-0.18598">
        <ele>118</ele>
        <time>2020-05-30T19:31:43Z</time>
      </trkpt>
      <trkpt lat="46.42828" lon="-0.18601">
        <ele>117.8</ele>
        <time>2020-05-30T19:31:44Z</time>
      </trkpt>
      <trkpt lat="46.42827" lon="-0.18602">
        <ele>117.7</ele>
        <time>2020-05-30T19:31:45Z</time>
      </trkpt>
      <trkpt lat="46.42826" lon="-0.18606">
        <ele>117.6</ele>
        <time>2020-05-30T19:31:46Z</time>
      </trkpt>
      <trkpt lat="46.42823" lon="-0.18607">
        <ele>117.4</ele>
        <time>2020-05-30T19:31:47Z</time>
      </trkpt>
      <trkpt lat="46.42822" lon="-0.18607">
        <ele>117.4</ele>
        <time>2020-05-30T19:31:48Z</time>
      </trkpt>
      <trkpt lat="46.42821" lon="-0.18607">
        <ele>117.3</ele>
        <time>2020-05-30T19:31:49Z</time>
      </trkpt>
      <trkpt lat="46.42821" lon="-0.18608">
        <ele>117.3</ele>
        <time>2020-05-30T19:31:50Z</time>
      </trkpt>
      <trkpt lat="46.42822" lon="-0.18609">
        <ele>117.2</ele>
        <time>2020-05-30T19:31:51Z</time>
      </trkpt>
      <trkpt lat="46.42821" lon="-0.18608">
        <ele>117.2</ele>
        <time>2020-05-30T19:31:52Z</time>
      </trkpt>
      <trkpt lat="46.42821" lon="-0.18608">
        <ele>117.2</ele>
        <time>2020-05-30T19:31:53Z</time>
      </trkpt>
      <trkpt lat="46.42822" lon="-0.18608">
        <ele>117.1</ele>
        <time>2020-05-30T19:31:54Z</time>
      </trkpt>
      <trkpt lat="46.42822" lon="-0.18608">
        <ele>117.1</ele>
        <time>2020-05-30T19:31:55Z</time>
      </trkpt>
      <trkpt lat="46.42821" lon="-0.18609">
        <ele>117.1</ele>
        <time>2020-05-30T19:31:56Z</time>
      </trkpt>
      <trkpt lat="46.4282" lon="-0.1861">
        <ele>117</ele>
        <time>2020-05-30T19:31:57Z</time>
      </trkpt>
      <trkpt lat="46.4282" lon="-0.1861">
        <ele>117</ele>
        <time>2020-05-30T19:31:58Z</time>
      </trkpt>
      <trkpt lat="46.4282" lon="-0.1861">
        <ele>117</ele>
        <time>2020-05-30T19:31:59Z</time>
      </trkpt>
      <trkpt lat="46.4282" lon="-0.1861">
        <ele>117</ele>
        <time>2020-05-30T19:32:00Z</time>
      </trkpt>
      <trkpt lat="46.4282" lon="-0.18609">
        <ele>117</ele>
        <time>2020-05-30T19:32:01Z</time>
      </trkpt>
      <trkpt lat="46.42821" lon="-0.18608">
        <ele>116.9</ele>
        <time>2020-05-30T19:32:02Z</time>
      </trkpt>
      <trkpt lat="46.42821" lon="-0.18608">
        <ele>116.9</ele>
        <time>2020-05-30T19:32:03Z</time>
      </trkpt>
      <trkpt lat="46.42821" lon="-0.18608">
        <ele>116.9</ele>
        <time>2020-05-30T19:32:04Z</time>
      </trkpt>
      <trkpt lat="46.42821" lon="-0.18609">
        <ele>116.9</ele>
        <time>2020-05-30T19:32:05Z</time>
      </trkpt>
      <trkpt lat="46.42821" lon="-0.18608">
        <ele>116.8</ele>
        <time>2020-05-30T19:32:06Z</time>
      </trkpt>
      <trkpt lat="46.42821" lon="-0.18609">
        <ele>116.8</ele>
        <time>2020-05-30T19:32:07Z</time>
      </trkpt>
      <trkpt lat="46.42822" lon="-0.18609">
        <ele>116.8</ele>
        <time>2020-05-30T19:32:08Z</time>
      </trkpt>
      <trkpt lat="46.42822" lon="-0.18609">
        <ele>116.7</ele>
        <time>2020-05-30T19:32:09Z</time>
      </trkpt>
      <trkpt lat="46.42822" lon="-0.18609">
        <ele>116.7</ele>
        <time>2020-05-30T19:32:10Z</time>
      </trkpt>
      <trkpt lat="46.42822" lon="-0.18609">
        <ele>116.7</ele>
        <time>2020-05-30T19:32:11Z</time>
      </trkpt>
      <trkpt lat="46.42822" lon="-0.18609">
        <ele>116.7</ele>
        <time>2020-05-30T19:32:12Z</time>
      </trkpt>
      <trkpt lat="46.42823" lon="-0.18608">
        <ele>116.7</ele>
        <time>2020-05-30T19:32:13Z</time>
      </trkpt>
      <trkpt lat="46.42822" lon="-0.18608">
        <ele>116.6</ele>
        <time>2020-05-30T19:32:14Z</time>
      </trkpt>
      <trkpt lat="46.42822" lon="-0.18608">
        <ele>116.6</ele>
        <time>2020-05-30T19:32:15Z</time>
      </trkpt>
      <trkpt lat="46.42822" lon="-0.18608">
        <ele>116.6</ele>
        <time>2020-05-30T19:32:16Z</time>
      </trkpt>
      <trkpt lat="46.42823" lon="-0.18608">
        <ele>116.5</ele>
        <time>2020-05-30T19:32:17Z</time>
      </trkpt>
      <trkpt lat="46.42823" lon="-0.18608">
        <ele>116.5</ele>
        <time>2020-05-30T19:32:18Z</time>
      </trkpt>
      <trkpt lat="46.42823" lon="-0.18608">
        <ele>116.5</ele>
        <time>2020-05-30T19:32:19Z</time>
      </trkpt>
      <trkpt lat="46.42823" lon="-0.18608">
        <ele>116.5</ele>
        <time>2020-05-30T19:32:20Z</time>
      </trkpt>
      <trkpt lat="46.42823" lon="-0.18609">
        <ele>116.4</ele>
        <time>2020-05-30T19:32:21Z</time>
      </trkpt>
      <trkpt lat="46.42823" lon="-0.18609">
        <ele>116.4</ele>
        <time>2020-05-30T19:32:22Z</time>
      </trkpt>
      <trkpt lat="46.42823" lon="-0.18609">
        <ele>116.4</ele>
        <time>2020-05-30T19:32:23Z</time>
      </trkpt>
      <trkpt lat="46.42823" lon="-0.18608">
        <ele>116.4</ele>
        <time>2020-05-30T19:32:24Z</time>
      </trkpt>
      <trkpt lat="46.42823" lon="-0.18608">
        <ele>116.4</ele>
        <time>2020-05-30T19:32:25Z</time>
      </trkpt>
      <trkpt lat="46.42823" lon="-0.18608">
        <ele>116.4</ele>
        <time>2020-05-30T19:32:26Z</time>
      </trkpt>
      <trkpt lat="46.42824" lon="-0.18607">
        <ele>116.3</ele>
        <time>2020-05-30T19:32:27Z</time>
      </trkpt>
      <trkpt lat="46.42824" lon="-0.18607">
        <ele>116.3</ele>
        <time>2020-05-30T19:32:28Z</time>
      </trkpt>
      <trkpt lat="46.42824" lon="-0.18608">
        <ele>116.3</ele>
        <time>2020-05-30T19:32:29Z</time>
      </trkpt>
      <trkpt lat="46.42824" lon="-0.18608">
        <ele>116.2</ele>
        <time>2020-05-30T19:32:30Z</time>
      </trkpt>
      <trkpt lat="46.42824" lon="-0.18608">
        <ele>116.2</ele>
        <time>2020-05-30T19:32:31Z</time>
      </trkpt>
      <trkpt lat="46.42824" lon="-0.18607">
        <ele>116.2</ele>
        <time>2020-05-30T19:32:32Z</time>
      </trkpt>
      <trkpt lat="46.42824" lon="-0.18607">
        <ele>116.2</ele>
        <time>2020-05-30T19:32:33Z</time>
      </trkpt>
      <trkpt lat="46.42823" lon="-0.18607">
        <ele>116.2</ele>
        <time>2020-05-30T19:32:34Z</time>
      </trkpt>
      <trkpt lat="46.42824" lon="-0.18607">
        <ele>116.1</ele>
        <time>2020-05-30T19:32:35Z</time>
      </trkpt>
      <trkpt lat="46.42824" lon="-0.18607">
        <ele>116.1</ele>
        <time>2020-05-30T19:32:36Z</time>
      </trkpt>
      <trkpt lat="46.42823" lon="-0.18607">
        <ele>116</ele>
        <time>2020-05-30T19:32:37Z</time>
      </trkpt>
      <trkpt lat="46.42823" lon="-0.18607">
        <ele>116</ele>
        <time>2020-05-30T19:32:38Z</time>
      </trkpt>
      <trkpt lat="46.42823" lon="-0.18607">
        <ele>116</ele>
        <time>2020-05-30T19:32:39Z</time>
      </trkpt>
      <trkpt lat="46.42823" lon="-0.18607">
        <ele>116</ele>
        <time>2020-05-30T19:32:40Z</time>
      </trkpt>
      <trkpt lat="46.42824" lon="-0.18607">
        <ele>116</ele>
        <time>2020-05-30T19:32:41Z</time>
      </trkpt>
      <trkpt lat="46.42824" lon="-0.18607">
        <ele>116</ele>
        <time>2020-05-30T19:32:42Z</time>
      </trkpt>
      <trkpt lat="46.42824" lon="-0.18607">
        <ele>116</ele>
        <time>2020-05-30T19:32:43Z</time>
      </trkpt>
      <trkpt lat="46.42824" lon="-0.18607">
        <ele>116</ele>
        <time>2020-05-30T19:32:44Z</time>
      </trkpt>
      <trkpt lat="46.42824" lon="-0.18607">
        <ele>116</ele>
        <time>2020-05-30T19:32:45Z</time>
      </trkpt>
      <trkpt lat="46.42823" lon="-0.18607">
        <ele>115.9</ele>
        <time>2020-05-30T19:32:46Z</time>
      </trkpt>
      <trkpt lat="46.42823" lon="-0.18607">
        <ele>115.9</ele>
        <time>2020-05-30T19:32:47Z</time>
      </trkpt>
      <trkpt lat="46.42824" lon="-0.18607">
        <ele>115.9</ele>
        <time>2020-05-30T19:32:48Z</time>
      </trkpt>
      <trkpt lat="46.42824" lon="-0.18607">
        <ele>115.9</ele>
        <time>2020-05-30T19:32:49Z</time>
      </trkpt>
      <trkpt lat="46.42824" lon="-0.18607">
        <ele>115.9</ele>
        <time>2020-05-30T19:32:50Z</time>
      </trkpt>
      <trkpt lat="46.42824" lon="-0.18606">
        <ele>115.9</ele>
        <time>2020-05-30T19:32:51Z</time>
      </trkpt>
      <trkpt lat="46.42824" lon="-0.18606">
        <ele>115.9</ele>
        <time>2020-05-30T19:32:52Z</time>
      </trkpt>
      <trkpt lat="46.42824" lon="-0.18606">
        <ele>115.8</ele>
        <time>2020-05-30T19:32:53Z</time>
      </trkpt>
      <trkpt lat="46.42824" lon="-0.18606">
        <ele>115.8</ele>
        <time>2020-05-30T19:32:54Z</time>
      </trkpt>
      <trkpt lat="46.42824" lon="-0.18606">
        <ele>115.8</ele>
        <time>2020-05-30T19:32:55Z</time>
      </trkpt>
      <trkpt lat="46.42824" lon="-0.18606">
        <ele>115.8</ele>
        <time>2020-05-30T19:32:56Z</time>
      </trkpt>
      <trkpt lat="46.42824" lon="-0.18606">
        <ele>115.8</ele>
        <time>2020-05-30T19:32:57Z</time>
      </trkpt>
      <trkpt lat="46.42824" lon="-0.18605">
        <ele>115.8</ele>
        <time>2020-05-30T19:32:58Z</time>
      </trkpt>
      <trkpt lat="46.42824" lon="-0.18605">
        <ele>115.8</ele>
        <time>2020-05-30T19:32:59Z</time>
      </trkpt>
      <trkpt lat="46.42824" lon="-0.18605">
        <ele>115.7</ele>
        <time>2020-05-30T19:33:00Z</time>
      </trkpt>
      <trkpt lat="46.42823" lon="-0.18605">
        <ele>115.7</ele>
        <time>2020-05-30T19:33:01Z</time>
      </trkpt>
      <trkpt lat="46.42823" lon="-0.18603">
        <ele>115.6</ele>
        <time>2020-05-30T19:33:02Z</time>
      </trkpt>
      <trkpt lat="46.42825" lon="-0.18602">
        <ele>115.6</ele>
        <time>2020-05-30T19:33:03Z</time>
      </trkpt>
      <trkpt lat="46.42826" lon="-0.18602">
        <ele>115.6</ele>
        <time>2020-05-30T19:33:04Z</time>
      </trkpt>
      <trkpt lat="46.42827" lon="-0.18601">
        <ele>115.7</ele>
        <time>2020-05-30T19:33:05Z</time>
      </trkpt>
      <trkpt lat="46.42828" lon="-0.18601">
        <ele>115.8</ele>
        <time>2020-05-30T19:33:06Z</time>
      </trkpt>
      <trkpt lat="46.4283" lon="-0.18601">
        <ele>115.9</ele>
        <time>2020-05-30T19:33:07Z</time>
      </trkpt>
      <trkpt lat="46.42832" lon="-0.18599">
        <ele>116.1</ele>
        <time>2020-05-30T19:33:08Z</time>
      </trkpt>
      <trkpt lat="46.42833" lon="-0.18598">
        <ele>116.1</ele>
        <time>2020-05-30T19:33:09Z</time>
      </trkpt>
      <trkpt lat="46.42836" lon="-0.18595">
        <ele>116.4</ele>
        <time>2020-05-30T19:33:10Z</time>
      </trkpt>
      <trkpt lat="46.42837" lon="-0.18595">
        <ele>116.4</ele>
        <time>2020-05-30T19:33:11Z</time>
      </trkpt>
      <trkpt lat="46.42839" lon="-0.18593">
        <ele>116.6</ele>
        <time>2020-05-30T19:33:12Z</time>
      </trkpt>
      <trkpt lat="46.42841" lon="-0.18594">
        <ele>116.7</ele>
        <time>2020-05-30T19:33:13Z</time>
      </trkpt>
      <trkpt lat="46.42843" lon="-0.18592">
        <ele>116.8</ele>
        <time>2020-05-30T19:33:14Z</time>
      </trkpt>
      <trkpt lat="46.42844" lon="-0.18591">
        <ele>116.9</ele>
        <time>2020-05-30T19:33:15Z</time>
      </trkpt>
      <trkpt lat="46.42846" lon="-0.18589">
        <ele>117.1</ele>
        <time>2020-05-30T19:33:16Z</time>
      </trkpt>
      <trkpt lat="46.42849" lon="-0.18586">
        <ele>117.3</ele>
        <time>2020-05-30T19:33:17Z</time>
      </trkpt>
      <trkpt lat="46.42851" lon="-0.18583">
        <ele>117.5</ele>
        <time>2020-05-30T19:33:18Z</time>
      </trkpt>
      <trkpt lat="46.42854" lon="-0.18583">
        <ele>117.7</ele>
        <time>2020-05-30T19:33:19Z</time>
      </trkpt>
      <trkpt lat="46.42857" lon="-0.18583">
        <ele>117.8</ele>
        <time>2020-05-30T19:33:20Z</time>
      </trkpt>
      <trkpt lat="46.4286" lon="-0.18583">
        <ele>118.1</ele>
        <time>2020-05-30T19:33:21Z</time>
      </trkpt>
      <trkpt lat="46.42863" lon="-0.18583">
        <ele>118.2</ele>
        <time>2020-05-30T19:33:22Z</time>
      </trkpt>
      <trkpt lat="46.42864" lon="-0.18582">
        <ele>118.2</ele>
        <time>2020-05-30T19:33:23Z</time>
      </trkpt>
      <trkpt lat="46.42867" lon="-0.18583">
        <ele>118.3</ele>
        <time>2020-05-30T19:33:24Z</time>
      </trkpt>
      <trkpt lat="46.42868" lon="-0.18583">
        <ele>118.3</ele>
        <time>2020-05-30T19:33:25Z</time>
      </trkpt>
      <trkpt lat="46.42871" lon="-0.18582">
        <ele>118.4</ele>
        <time>2020-05-30T19:33:26Z</time>
      </trkpt>
      <trkpt lat="46.42872" lon="-0.18582">
        <ele>118.4</ele>
        <time>2020-05-30T19:33:27Z</time>
      </trkpt>
      <trkpt lat="46.42874" lon="-0.18582">
        <ele>118.4</ele>
        <time>2020-05-30T19:33:28Z</time>
      </trkpt>
      <trkpt lat="46.42876" lon="-0.18581">
        <ele>118.5</ele>
        <time>2020-05-30T19:33:29Z</time>
      </trkpt>
      <trkpt lat="46.42879" lon="-0.18582">
        <ele>118.5</ele>
        <time>2020-05-30T19:33:30Z</time>
      </trkpt>
      <trkpt lat="46.42882" lon="-0.18582">
        <ele>118.6</ele>
        <time>2020-05-30T19:33:31Z</time>
      </trkpt>
      <trkpt lat="46.42883" lon="-0.18582">
        <ele>118.6</ele>
        <time>2020-05-30T19:33:32Z</time>
      </trkpt>
      <trkpt lat="46.42886" lon="-0.18581">
        <ele>118.7</ele>
        <time>2020-05-30T19:33:33Z</time>
      </trkpt>
      <trkpt lat="46.42887" lon="-0.18581">
        <ele>118.7</ele>
        <time>2020-05-30T19:33:34Z</time>
      </trkpt>
      <trkpt lat="46.42889" lon="-0.18583">
        <ele>118.7</ele>
        <time>2020-05-30T19:33:35Z</time>
      </trkpt>
      <trkpt lat="46.42891" lon="-0.18584">
        <ele>118.8</ele>
        <time>2020-05-30T19:33:36Z</time>
      </trkpt>
      <trkpt lat="46.42895" lon="-0.18583">
        <ele>118.8</ele>
        <time>2020-05-30T19:33:37Z</time>
      </trkpt>
      <trkpt lat="46.42896" lon="-0.18583">
        <ele>118.8</ele>
        <time>2020-05-30T19:33:38Z</time>
      </trkpt>
      <trkpt lat="46.42899" lon="-0.18583">
        <ele>118.9</ele>
        <time>2020-05-30T19:33:39Z</time>
      </trkpt>
      <trkpt lat="46.42901" lon="-0.18582">
        <ele>118.9</ele>
        <time>2020-05-30T19:33:40Z</time>
      </trkpt>
      <trkpt lat="46.42902" lon="-0.18582">
        <ele>118.9</ele>
        <time>2020-05-30T19:33:41Z</time>
      </trkpt>
      <trkpt lat="46.42904" lon="-0.18582">
        <ele>118.9</ele>
        <time>2020-05-30T19:33:42Z</time>
      </trkpt>
      <trkpt lat="46.42906" lon="-0.18582">
        <ele>119</ele>
        <time>2020-05-30T19:33:43Z</time>
      </trkpt>
      <trkpt lat="46.42908" lon="-0.18581">
        <ele>119</ele>
        <time>2020-05-30T19:33:44Z</time>
      </trkpt>
      <trkpt lat="46.42909" lon="-0.1858">
        <ele>119</ele>
        <time>2020-05-30T19:33:45Z</time>
      </trkpt>
      <trkpt lat="46.42911" lon="-0.18579">
        <ele>119</ele>
        <time>2020-05-30T19:33:46Z</time>
      </trkpt>
      <trkpt lat="46.42912" lon="-0.18579">
        <ele>119</ele>
        <time>2020-05-30T19:33:47Z</time>
      </trkpt>
      <trkpt lat="46.42913" lon="-0.18578">
        <ele>119</ele>
        <time>2020-05-30T19:33:48Z</time>
      </trkpt>
      <trkpt lat="46.42914" lon="-0.18578">
        <ele>119</ele>
        <time>2020-05-30T19:33:49Z</time>
      </trkpt>
      <trkpt lat="46.42914" lon="-0.18578">
        <ele>119.1</ele>
        <time>2020-05-30T19:33:50Z</time>
      </trkpt>
      <trkpt lat="46.42914" lon="-0.18577">
        <ele>119.1</ele>
        <time>2020-05-30T19:33:51Z</time>
      </trkpt>
      <trkpt lat="46.42914" lon="-0.18577">
        <ele>119.1</ele>
        <time>2020-05-30T19:33:52Z</time>
      </trkpt>
      <trkpt lat="46.42915" lon="-0.18577">
        <ele>119.1</ele>
        <time>2020-05-30T19:33:53Z</time>
      </trkpt>
      <trkpt lat="46.42915" lon="-0.18577">
        <ele>119.1</ele>
        <time>2020-05-30T19:33:54Z</time>
      </trkpt>
      <trkpt lat="46.42915" lon="-0.18577">
        <ele>119.1</ele>
        <time>2020-05-30T19:33:55Z</time>
      </trkpt>
      <trkpt lat="46.42915" lon="-0.18577">
        <ele>119.1</ele>
        <time>2020-05-30T19:33:56Z</time>
      </trkpt>
      <trkpt lat="46.42915" lon="-0.18578">
        <ele>119.1</ele>
        <time>2020-05-30T19:33:57Z</time>
      </trkpt>
      <trkpt lat="46.42915" lon="-0.18578">
        <ele>119.1</ele>
        <time>2020-05-30T19:33:58Z</time>
      </trkpt>
      <trkpt lat="46.42915" lon="-0.18578">
        <ele>119.1</ele>
        <time>2020-05-30T19:33:59Z</time>
      </trkpt>
      <trkpt lat="46.42915" lon="-0.18578">
        <ele>119.1</ele>
        <time>2020-05-30T19:34:00Z</time>
      </trkpt>
      <trkpt lat="46.42915" lon="-0.18578">
        <ele>119.1</ele>
        <time>2020-05-30T19:34:01Z</time>
      </trkpt>
      <trkpt lat="46.42915" lon="-0.18577">
        <ele>119.1</ele>
        <time>2020-05-30T19:34:02Z</time>
      </trkpt>
      <trkpt lat="46.42915" lon="-0.18577">
        <ele>119.1</ele>
        <time>2020-05-30T19:34:03Z</time>
      </trkpt>
      <trkpt lat="46.42915" lon="-0.18577">
        <ele>119.1</ele>
        <time>2020-05-30T19:34:04Z</time>
      </trkpt>
      <trkpt lat="46.42915" lon="-0.18578">
        <ele>119.1</ele>
        <time>2020-05-30T19:34:05Z</time>
      </trkpt>
      <trkpt lat="46.42915" lon="-0.18578">
        <ele>119.1</ele>
        <time>2020-05-30T19:34:06Z</time>
      </trkpt>
      <trkpt lat="46.42915" lon="-0.18578">
        <ele>119.1</ele>
        <time>2020-05-30T19:34:07Z</time>
      </trkpt>
      <trkpt lat="46.42915" lon="-0.18578">
        <ele>119.1</ele>
        <time>2020-05-30T19:34:08Z</time>
      </trkpt>
      <trkpt lat="46.42915" lon="-0.18578">
        <ele>119.1</ele>
        <time>2020-05-30T19:34:09Z</time>
      </trkpt>
      <trkpt lat="46.42915" lon="-0.18578">
        <ele>119.1</ele>
        <time>2020-05-30T19:34:10Z</time>
      </trkpt>
      <trkpt lat="46.42915" lon="-0.18578">
        <ele>119.1</ele>
        <time>2020-05-30T19:34:11Z</time>
      </trkpt>
      <trkpt lat="46.42915" lon="-0.18578">
        <ele>119.1</ele>
        <time>2020-05-30T19:34:12Z</time>
      </trkpt>
      <trkpt lat="46.42916" lon="-0.18578">
        <ele>119.1</ele>
        <time>2020-05-30T19:34:13Z</time>
      </trkpt>
      <trkpt lat="46.42916" lon="-0.18578">
        <ele>119.1</ele>
        <time>2020-05-30T19:34:14Z</time>
      </trkpt>
      <trkpt lat="46.42916" lon="-0.18578">
        <ele>119.1</ele>
        <time>2020-05-30T19:34:15Z</time>
      </trkpt>
      <trkpt lat="46.42916" lon="-0.18577">
        <ele>119.1</ele>
        <time>2020-05-30T19:34:16Z</time>
      </trkpt>
      <trkpt lat="46.42916" lon="-0.18577">
        <ele>119.1</ele>
        <time>2020-05-30T19:34:17Z</time>
      </trkpt>
      <trkpt lat="46.42916" lon="-0.18577">
        <ele>119.1</ele>
        <time>2020-05-30T19:34:18Z</time>
      </trkpt>
      <trkpt lat="46.42916" lon="-0.18577">
        <ele>119.1</ele>
        <time>2020-05-30T19:34:19Z</time>
      </trkpt>
      <trkpt lat="46.42916" lon="-0.18577">
        <ele>119.1</ele>
        <time>2020-05-30T19:34:20Z</time>
      </trkpt>
      <trkpt lat="46.42916" lon="-0.18577">
        <ele>119.1</ele>
        <time>2020-05-30T19:34:21Z</time>
      </trkpt>
      <trkpt lat="46.42916" lon="-0.18577">
        <ele>119.1</ele>
        <time>2020-05-30T19:34:22Z</time>
      </trkpt>
      <trkpt lat="46.42915" lon="-0.18576">
        <ele>119.1</ele>
        <time>2020-05-30T19:34:23Z</time>
      </trkpt>
      <trkpt lat="46.42915" lon="-0.18577">
        <ele>119.1</ele>
        <time>2020-05-30T19:34:24Z</time>
      </trkpt>
      <trkpt lat="46.42914" lon="-0.18576">
        <ele>119.1</ele>
        <time>2020-05-30T19:34:25Z</time>
      </trkpt>
      <trkpt lat="46.42914" lon="-0.18576">
        <ele>119.1</ele>
        <time>2020-05-30T19:34:26Z</time>
      </trkpt>
      <trkpt lat="46.42914" lon="-0.18575">
        <ele>119.1</ele>
        <time>2020-05-30T19:34:27Z</time>
      </trkpt>
      <trkpt lat="46.42913" lon="-0.18575">
        <ele>119.1</ele>
        <time>2020-05-30T19:34:28Z</time>
      </trkpt>
      <trkpt lat="46.42913" lon="-0.18574">
        <ele>119.1</ele>
        <time>2020-05-30T19:34:29Z</time>
      </trkpt>
      <trkpt lat="46.42912" lon="-0.18573">
        <ele>119.1</ele>
        <time>2020-05-30T19:34:30Z</time>
      </trkpt>
      <trkpt lat="46.42912" lon="-0.18573">
        <ele>119.1</ele>
        <time>2020-05-30T19:34:31Z</time>
      </trkpt>
      <trkpt lat="46.42912" lon="-0.18572">
        <ele>119.1</ele>
        <time>2020-05-30T19:34:32Z</time>
      </trkpt>
      <trkpt lat="46.42912" lon="-0.18572">
        <ele>119.1</ele>
        <time>2020-05-30T19:34:33Z</time>
      </trkpt>
      <trkpt lat="46.42912" lon="-0.18571">
        <ele>119.1</ele>
        <time>2020-05-30T19:34:34Z</time>
      </trkpt>
      <trkpt lat="46.42912" lon="-0.18572">
        <ele>119.1</ele>
        <time>2020-05-30T19:34:35Z</time>
      </trkpt>
      <trkpt lat="46.42912" lon="-0.18572">
        <ele>119.1</ele>
        <time>2020-05-30T19:34:36Z</time>
      </trkpt>
      <trkpt lat="46.42913" lon="-0.18572">
        <ele>119.1</ele>
        <time>2020-05-30T19:34:37Z</time>
      </trkpt>
      <trkpt lat="46.42914" lon="-0.18573">
        <ele>119.1</ele>
        <time>2020-05-30T19:34:38Z</time>
      </trkpt>
      <trkpt lat="46.42914" lon="-0.18573">
        <ele>119.1</ele>
        <time>2020-05-30T19:34:39Z</time>
      </trkpt>
      <trkpt lat="46.42914" lon="-0.18574">
        <ele>119.1</ele>
        <time>2020-05-30T19:34:40Z</time>
      </trkpt>
      <trkpt lat="46.42914" lon="-0.18574">
        <ele>119.1</ele>
        <time>2020-05-30T19:34:41Z</time>
      </trkpt>
      <trkpt lat="46.42914" lon="-0.18574">
        <ele>119.1</ele>
        <time>2020-05-30T19:34:42Z</time>
      </trkpt>
      <trkpt lat="46.42914" lon="-0.18574">
        <ele>119.1</ele>
        <time>2020-05-30T19:34:43Z</time>
      </trkpt>
      <trkpt lat="46.42914" lon="-0.18573">
        <ele>119.1</ele>
        <time>2020-05-30T19:34:44Z</time>
      </trkpt>
      <trkpt lat="46.42914" lon="-0.18574">
        <ele>119.1</ele>
        <time>2020-05-30T19:34:45Z</time>
      </trkpt>
      <trkpt lat="46.42914" lon="-0.18574">
        <ele>119.1</ele>
        <time>2020-05-30T19:34:46Z</time>
      </trkpt>
      <trkpt lat="46.42914" lon="-0.18573">
        <ele>119.1</ele>
        <time>2020-05-30T19:34:47Z</time>
      </trkpt>
      <trkpt lat="46.42914" lon="-0.18572">
        <ele>119.1</ele>
        <time>2020-05-30T19:34:48Z</time>
      </trkpt>
      <trkpt lat="46.42914" lon="-0.18572">
        <ele>119.1</ele>
        <time>2020-05-30T19:34:49Z</time>
      </trkpt>
      <trkpt lat="46.42915" lon="-0.18572">
        <ele>119.1</ele>
        <time>2020-05-30T19:34:50Z</time>
      </trkpt>
      <trkpt lat="46.42916" lon="-0.18573">
        <ele>119.2</ele>
        <time>2020-05-30T19:34:51Z</time>
      </trkpt>
      <trkpt lat="46.42916" lon="-0.18573">
        <ele>119.2</ele>
        <time>2020-05-30T19:34:52Z</time>
      </trkpt>
      <trkpt lat="46.42916" lon="-0.18574">
        <ele>119.2</ele>
        <time>2020-05-30T19:34:53Z</time>
      </trkpt>
      <trkpt lat="46.42915" lon="-0.18574">
        <ele>119.2</ele>
        <time>2020-05-30T19:34:54Z</time>
      </trkpt>
      <trkpt lat="46.42915" lon="-0.18574">
        <ele>119.2</ele>
        <time>2020-05-30T19:34:55Z</time>
      </trkpt>
      <trkpt lat="46.42915" lon="-0.18575">
        <ele>119.2</ele>
        <time>2020-05-30T19:34:56Z</time>
      </trkpt>
      <trkpt lat="46.42915" lon="-0.18575">
        <ele>119.2</ele>
        <time>2020-05-30T19:34:57Z</time>
      </trkpt>
      <trkpt lat="46.42915" lon="-0.18576">
        <ele>119.2</ele>
        <time>2020-05-30T19:34:58Z</time>
      </trkpt>
      <trkpt lat="46.42915" lon="-0.18576">
        <ele>119.2</ele>
        <time>2020-05-30T19:34:59Z</time>
      </trkpt>
      <trkpt lat="46.42915" lon="-0.18576">
        <ele>119.2</ele>
        <time>2020-05-30T19:35:00Z</time>
      </trkpt>
      <trkpt lat="46.42915" lon="-0.18575">
        <ele>119.2</ele>
        <time>2020-05-30T19:35:01Z</time>
      </trkpt>
      <trkpt lat="46.42915" lon="-0.18575">
        <ele>119.2</ele>
        <time>2020-05-30T19:35:02Z</time>
      </trkpt>
      <trkpt lat="46.42915" lon="-0.18575">
        <ele>119.2</ele>
        <time>2020-05-30T19:35:03Z</time>
      </trkpt>
      <trkpt lat="46.42915" lon="-0.18576">
        <ele>119.2</ele>
        <time>2020-05-30T19:35:04Z</time>
      </trkpt>
      <trkpt lat="46.42915" lon="-0.18575">
        <ele>119.2</ele>
        <time>2020-05-30T19:35:05Z</time>
      </trkpt>
      <trkpt lat="46.42915" lon="-0.18575">
        <ele>119.2</ele>
        <time>2020-05-30T19:35:06Z</time>
      </trkpt>
      <trkpt lat="46.42915" lon="-0.18574">
        <ele>119.2</ele>
        <time>2020-05-30T19:35:07Z</time>
      </trkpt>
      <trkpt lat="46.42915" lon="-0.18574">
        <ele>119.2</ele>
        <time>2020-05-30T19:35:08Z</time>
      </trkpt>
      <trkpt lat="46.42914" lon="-0.18575">
        <ele>119.2</ele>
        <time>2020-05-30T19:35:09Z</time>
      </trkpt>
      <trkpt lat="46.42914" lon="-0.18575">
        <ele>119.2</ele>
        <time>2020-05-30T19:35:10Z</time>
      </trkpt>
      <trkpt lat="46.42914" lon="-0.18575">
        <ele>119.2</ele>
        <time>2020-05-30T19:35:11Z</time>
      </trkpt>
      <trkpt lat="46.42914" lon="-0.18574">
        <ele>119.2</ele>
        <time>2020-05-30T19:35:12Z</time>
      </trkpt>
      <trkpt lat="46.42914" lon="-0.18574">
        <ele>119.2</ele>
        <time>2020-05-30T19:35:13Z</time>
      </trkpt>
      <trkpt lat="46.42914" lon="-0.18574">
        <ele>119.2</ele>
        <time>2020-05-30T19:35:14Z</time>
      </trkpt>
      <trkpt lat="46.42913" lon="-0.18574">
        <ele>119.2</ele>
        <time>2020-05-30T19:35:15Z</time>
      </trkpt>
      <trkpt lat="46.42913" lon="-0.18573">
        <ele>119.2</ele>
        <time>2020-05-30T19:35:16Z</time>
      </trkpt>
      <trkpt lat="46.42913" lon="-0.18573">
        <ele>119.2</ele>
        <time>2020-05-30T19:35:17Z</time>
      </trkpt>
      <trkpt lat="46.42912" lon="-0.18573">
        <ele>119.2</ele>
        <time>2020-05-30T19:35:18Z</time>
      </trkpt>
      <trkpt lat="46.42912" lon="-0.18573">
        <ele>119.2</ele>
        <time>2020-05-30T19:35:19Z</time>
      </trkpt>
      <trkpt lat="46.42912" lon="-0.18573">
        <ele>119.2</ele>
        <time>2020-05-30T19:35:20Z</time>
      </trkpt>
      <trkpt lat="46.42912" lon="-0.18573">
        <ele>119.2</ele>
        <time>2020-05-30T19:35:21Z</time>
      </trkpt>
      <trkpt lat="46.42912" lon="-0.18573">
        <ele>119.2</ele>
        <time>2020-05-30T19:35:22Z</time>
      </trkpt>
      <trkpt lat="46.42911" lon="-0.18573">
        <ele>119.2</ele>
        <time>2020-05-30T19:35:23Z</time>
      </trkpt>
      <trkpt lat="46.42911" lon="-0.18573">
        <ele>119.2</ele>
        <time>2020-05-30T19:35:24Z</time>
      </trkpt>
      <trkpt lat="46.42911" lon="-0.18572">
        <ele>119.2</ele>
        <time>2020-05-30T19:35:25Z</time>
      </trkpt>
      <trkpt lat="46.42911" lon="-0.18572">
        <ele>119.2</ele>
        <time>2020-05-30T19:35:26Z</time>
      </trkpt>
      <trkpt lat="46.4291" lon="-0.18572">
        <ele>119.2</ele>
        <time>2020-05-30T19:35:27Z</time>
      </trkpt>
      <trkpt lat="46.4291" lon="-0.18572">
        <ele>119.2</ele>
        <time>2020-05-30T19:35:28Z</time>
      </trkpt>
      <trkpt lat="46.4291" lon="-0.18572">
        <ele>119.2</ele>
        <time>2020-05-30T19:35:29Z</time>
      </trkpt>
      <trkpt lat="46.42911" lon="-0.18574">
        <ele>119.2</ele>
        <time>2020-05-30T19:35:30Z</time>
      </trkpt>
      <trkpt lat="46.42911" lon="-0.18573">
        <ele>119.2</ele>
        <time>2020-05-30T19:35:31Z</time>
      </trkpt>
      <trkpt lat="46.42911" lon="-0.18574">
        <ele>119.2</ele>
        <time>2020-05-30T19:35:32Z</time>
      </trkpt>
      <trkpt lat="46.42911" lon="-0.18574">
        <ele>119.2</ele>
        <time>2020-05-30T19:35:33Z</time>
      </trkpt>
      <trkpt lat="46.42911" lon="-0.18574">
        <ele>119.2</ele>
        <time>2020-05-30T19:35:34Z</time>
      </trkpt>
      <trkpt lat="46.42911" lon="-0.18574">
        <ele>119.2</ele>
        <time>2020-05-30T19:35:35Z</time>
      </trkpt>
      <trkpt lat="46.4291" lon="-0.18574">
        <ele>119.2</ele>
        <time>2020-05-30T19:35:36Z</time>
      </trkpt>
      <trkpt lat="46.4291" lon="-0.18574">
        <ele>119.2</ele>
        <time>2020-05-30T19:35:37Z</time>
      </trkpt>
      <trkpt lat="46.4291" lon="-0.18574">
        <ele>119.2</ele>
        <time>2020-05-30T19:35:38Z</time>
      </trkpt>
      <trkpt lat="46.42911" lon="-0.18573">
        <ele>119.2</ele>
        <time>2020-05-30T19:35:39Z</time>
      </trkpt>
      <trkpt lat="46.42911" lon="-0.18573">
        <ele>119.2</ele>
        <time>2020-05-30T19:35:40Z</time>
      </trkpt>
      <trkpt lat="46.42911" lon="-0.18574">
        <ele>119.2</ele>
        <time>2020-05-30T19:35:41Z</time>
      </trkpt>
      <trkpt lat="46.42911" lon="-0.18574">
        <ele>119.2</ele>
        <time>2020-05-30T19:35:42Z</time>
      </trkpt>
      <trkpt lat="46.42912" lon="-0.18575">
        <ele>119.2</ele>
        <time>2020-05-30T19:35:43Z</time>
      </trkpt>
      <trkpt lat="46.42912" lon="-0.18575">
        <ele>119.2</ele>
        <time>2020-05-30T19:35:44Z</time>
      </trkpt>
      <trkpt lat="46.42911" lon="-0.18576">
        <ele>119.2</ele>
        <time>2020-05-30T19:35:45Z</time>
      </trkpt>
      <trkpt lat="46.42911" lon="-0.18576">
        <ele>119.2</ele>
        <time>2020-05-30T19:35:46Z</time>
      </trkpt>
      <trkpt lat="46.42911" lon="-0.18575">
        <ele>119.2</ele>
        <time>2020-05-30T19:35:47Z</time>
      </trkpt>
      <trkpt lat="46.42911" lon="-0.18576">
        <ele>119.2</ele>
        <time>2020-05-30T19:35:48Z</time>
      </trkpt>
      <trkpt lat="46.42911" lon="-0.18576">
        <ele>119.2</ele>
        <time>2020-05-30T19:35:49Z</time>
      </trkpt>
      <trkpt lat="46.42911" lon="-0.18576">
        <ele>119.2</ele>
        <time>2020-05-30T19:35:50Z</time>
      </trkpt>
      <trkpt lat="46.42911" lon="-0.18576">
        <ele>119.2</ele>
        <time>2020-05-30T19:35:51Z</time>
      </trkpt>
      <trkpt lat="46.42911" lon="-0.18576">
        <ele>119.2</ele>
        <time>2020-05-30T19:35:52Z</time>
      </trkpt>
      <trkpt lat="46.42912" lon="-0.18575">
        <ele>119.2</ele>
        <time>2020-05-30T19:35:53Z</time>
      </trkpt>
      <trkpt lat="46.42912" lon="-0.18575">
        <ele>119.2</ele>
        <time>2020-05-30T19:35:54Z</time>
      </trkpt>
      <trkpt lat="46.42912" lon="-0.18575">
        <ele>119.2</ele>
        <time>2020-05-30T19:35:55Z</time>
      </trkpt>
      <trkpt lat="46.42912" lon="-0.18575">
        <ele>119.2</ele>
        <time>2020-05-30T19:35:56Z</time>
      </trkpt>
      <trkpt lat="46.42912" lon="-0.18575">
        <ele>119.2</ele>
        <time>2020-05-30T19:35:57Z</time>
      </trkpt>
      <trkpt lat="46.42913" lon="-0.18576">
        <ele>119.2</ele>
        <time>2020-05-30T19:35:58Z</time>
      </trkpt>
      <trkpt lat="46.42913" lon="-0.18577">
        <ele>119.2</ele>
        <time>2020-05-30T19:35:59Z</time>
      </trkpt>
      <trkpt lat="46.42913" lon="-0.18577">
        <ele>119.2</ele>
        <time>2020-05-30T19:36:00Z</time>
      </trkpt>
      <trkpt lat="46.42913" lon="-0.18577">
        <ele>119.2</ele>
        <time>2020-05-30T19:36:01Z</time>
      </trkpt>
      <trkpt lat="46.42913" lon="-0.18576">
        <ele>119.2</ele>
        <time>2020-05-30T19:36:02Z</time>
      </trkpt>
      <trkpt lat="46.42913" lon="-0.18576">
        <ele>119.2</ele>
        <time>2020-05-30T19:36:03Z</time>
      </trkpt>
      <trkpt lat="46.42913" lon="-0.18576">
        <ele>119.2</ele>
        <time>2020-05-30T19:36:04Z</time>
      </trkpt>
      <trkpt lat="46.42913" lon="-0.18576">
        <ele>119.2</ele>
        <time>2020-05-30T19:36:05Z</time>
      </trkpt>
      <trkpt lat="46.42913" lon="-0.18576">
        <ele>119.2</ele>
        <time>2020-05-30T19:36:06Z</time>
      </trkpt>
      <trkpt lat="46.42912" lon="-0.18576">
        <ele>119.2</ele>
        <time>2020-05-30T19:36:07Z</time>
      </trkpt>
      <trkpt lat="46.42911" lon="-0.18576">
        <ele>119.2</ele>
        <time>2020-05-30T19:36:08Z</time>
      </trkpt>
      <trkpt lat="46.42911" lon="-0.18577">
        <ele>119.2</ele>
        <time>2020-05-30T19:36:09Z</time>
      </trkpt>
      <trkpt lat="46.42911" lon="-0.18577">
        <ele>119.2</ele>
        <time>2020-05-30T19:36:10Z</time>
      </trkpt>
      <trkpt lat="46.4291" lon="-0.18577">
        <ele>119.2</ele>
        <time>2020-05-30T19:36:11Z</time>
      </trkpt>
      <trkpt lat="46.42909" lon="-0.18576">
        <ele>119.2</ele>
        <time>2020-05-30T19:36:12Z</time>
      </trkpt>
      <trkpt lat="46.42907" lon="-0.18577">
        <ele>119.2</ele>
        <time>2020-05-30T19:36:13Z</time>
      </trkpt>
      <trkpt lat="46.42906" lon="-0.18576">
        <ele>119.2</ele>
        <time>2020-05-30T19:36:14Z</time>
      </trkpt>
      <trkpt lat="46.42905" lon="-0.18576">
        <ele>119.2</ele>
        <time>2020-05-30T19:36:15Z</time>
      </trkpt>
      <trkpt lat="46.42904" lon="-0.18576">
        <ele>119.2</ele>
        <time>2020-05-30T19:36:16Z</time>
      </trkpt>
      <trkpt lat="46.42901" lon="-0.18576">
        <ele>119.2</ele>
        <time>2020-05-30T19:36:17Z</time>
      </trkpt>
      <trkpt lat="46.42901" lon="-0.18576">
        <ele>119.2</ele>
        <time>2020-05-30T19:36:18Z</time>
      </trkpt>
      <trkpt lat="46.429" lon="-0.18576">
        <ele>119.2</ele>
        <time>2020-05-30T19:36:19Z</time>
      </trkpt>
      <trkpt lat="46.42897" lon="-0.18576">
        <ele>119.2</ele>
        <time>2020-05-30T19:36:20Z</time>
      </trkpt>
      <trkpt lat="46.42897" lon="-0.18577">
        <ele>119.2</ele>
        <time>2020-05-30T19:36:21Z</time>
      </trkpt>
      <trkpt lat="46.42895" lon="-0.18577">
        <ele>119.2</ele>
        <time>2020-05-30T19:36:22Z</time>
      </trkpt>
      <trkpt lat="46.42894" lon="-0.18576">
        <ele>119.2</ele>
        <time>2020-05-30T19:36:23Z</time>
      </trkpt>
      <trkpt lat="46.42893" lon="-0.18576">
        <ele>119.2</ele>
        <time>2020-05-30T19:36:24Z</time>
      </trkpt>
      <trkpt lat="46.42892" lon="-0.18576">
        <ele>119.2</ele>
        <time>2020-05-30T19:36:25Z</time>
      </trkpt>
      <trkpt lat="46.42892" lon="-0.18576">
        <ele>119.2</ele>
        <time>2020-05-30T19:36:26Z</time>
      </trkpt>
      <trkpt lat="46.42892" lon="-0.18576">
        <ele>119.2</ele>
        <time>2020-05-30T19:36:27Z</time>
      </trkpt>
      <trkpt lat="46.42892" lon="-0.18576">
        <ele>119.2</ele>
        <time>2020-05-30T19:36:28Z</time>
      </trkpt>
      <trkpt lat="46.42891" lon="-0.18575">
        <ele>119.2</ele>
        <time>2020-05-30T19:36:29Z</time>
      </trkpt>
      <trkpt lat="46.42889" lon="-0.18577">
        <ele>119.2</ele>
        <time>2020-05-30T19:36:30Z</time>
      </trkpt>
      <trkpt lat="46.42889" lon="-0.18577">
        <ele>119.2</ele>
        <time>2020-05-30T19:36:31Z</time>
      </trkpt>
      <trkpt lat="46.42888" lon="-0.18577">
        <ele>119.2</ele>
        <time>2020-05-30T19:36:32Z</time>
      </trkpt>
      <trkpt lat="46.42886" lon="-0.18577">
        <ele>119.1</ele>
        <time>2020-05-30T19:36:33Z</time>
      </trkpt>
      <trkpt lat="46.42885" lon="-0.18577">
        <ele>119.1</ele>
        <time>2020-05-30T19:36:34Z</time>
      </trkpt>
      <trkpt lat="46.42883" lon="-0.18578">
        <ele>119.1</ele>
        <time>2020-05-30T19:36:35Z</time>
      </trkpt>
      <trkpt lat="46.42882" lon="-0.18577">
        <ele>119.1</ele>
        <time>2020-05-30T19:36:36Z</time>
      </trkpt>
      <trkpt lat="46.42882" lon="-0.18577">
        <ele>119.1</ele>
        <time>2020-05-30T19:36:37Z</time>
      </trkpt>
      <trkpt lat="46.4288" lon="-0.18577">
        <ele>119.1</ele>
        <time>2020-05-30T19:36:38Z</time>
      </trkpt>
      <trkpt lat="46.42879" lon="-0.18577">
        <ele>119.1</ele>
        <time>2020-05-30T19:36:39Z</time>
      </trkpt>
      <trkpt lat="46.42878" lon="-0.18577">
        <ele>119.1</ele>
        <time>2020-05-30T19:36:40Z</time>
      </trkpt>
      <trkpt lat="46.42876" lon="-0.18576">
        <ele>119</ele>
        <time>2020-05-30T19:36:41Z</time>
      </trkpt>
      <trkpt lat="46.42875" lon="-0.18576">
        <ele>119</ele>
        <time>2020-05-30T19:36:42Z</time>
      </trkpt>
      <trkpt lat="46.42874" lon="-0.18576">
        <ele>119</ele>
        <time>2020-05-30T19:36:43Z</time>
      </trkpt>
      <trkpt lat="46.42873" lon="-0.18576">
        <ele>119</ele>
        <time>2020-05-30T19:36:44Z</time>
      </trkpt>
      <trkpt lat="46.42872" lon="-0.18575">
        <ele>119</ele>
        <time>2020-05-30T19:36:45Z</time>
      </trkpt>
      <trkpt lat="46.42869" lon="-0.18574">
        <ele>118.9</ele>
        <time>2020-05-30T19:36:46Z</time>
      </trkpt>
      <trkpt lat="46.42869" lon="-0.18574">
        <ele>118.9</ele>
        <time>2020-05-30T19:36:47Z</time>
      </trkpt>
      <trkpt lat="46.42868" lon="-0.18573">
        <ele>118.9</ele>
        <time>2020-05-30T19:36:48Z</time>
      </trkpt>
      <trkpt lat="46.42867" lon="-0.18572">
        <ele>118.8</ele>
        <time>2020-05-30T19:36:49Z</time>
      </trkpt>
      <trkpt lat="46.42866" lon="-0.18572">
        <ele>118.8</ele>
        <time>2020-05-30T19:36:50Z</time>
      </trkpt>
      <trkpt lat="46.42865" lon="-0.18571">
        <ele>118.8</ele>
        <time>2020-05-30T19:36:51Z</time>
      </trkpt>
      <trkpt lat="46.42864" lon="-0.18571">
        <ele>118.8</ele>
        <time>2020-05-30T19:36:52Z</time>
      </trkpt>
      <trkpt lat="46.42863" lon="-0.1857">
        <ele>118.7</ele>
        <time>2020-05-30T19:36:53Z</time>
      </trkpt>
      <trkpt lat="46.42862" lon="-0.18569">
        <ele>118.7</ele>
        <time>2020-05-30T19:36:54Z</time>
      </trkpt>
      <trkpt lat="46.42861" lon="-0.18568">
        <ele>118.6</ele>
        <time>2020-05-30T19:36:55Z</time>
      </trkpt>
      <trkpt lat="46.4286" lon="-0.18568">
        <ele>118.6</ele>
        <time>2020-05-30T19:36:56Z</time>
      </trkpt>
      <trkpt lat="46.4286" lon="-0.18566">
        <ele>118.6</ele>
        <time>2020-05-30T19:36:57Z</time>
      </trkpt>
      <trkpt lat="46.4286" lon="-0.18565">
        <ele>118.5</ele>
        <time>2020-05-30T19:36:58Z</time>
      </trkpt>
      <trkpt lat="46.42859" lon="-0.18563">
        <ele>118.5</ele>
        <time>2020-05-30T19:36:59Z</time>
      </trkpt>
      <trkpt lat="46.42858" lon="-0.18561">
        <ele>118.1</ele>
        <time>2020-05-30T19:37:00Z</time>
      </trkpt>
      <trkpt lat="46.42858" lon="-0.18561">
        <ele>118.1</ele>
        <time>2020-05-30T19:37:01Z</time>
      </trkpt>
      <trkpt lat="46.42858" lon="-0.18561">
        <ele>118.1</ele>
        <time>2020-05-30T19:37:02Z</time>
      </trkpt>
      <trkpt lat="46.42857" lon="-0.18562">
        <ele>118</ele>
        <time>2020-05-30T19:37:03Z</time>
      </trkpt>
      <trkpt lat="46.42857" lon="-0.18562">
        <ele>118</ele>
        <time>2020-05-30T19:37:04Z</time>
      </trkpt>
      <trkpt lat="46.42856" lon="-0.18561">
        <ele>117.9</ele>
        <time>2020-05-30T19:37:05Z</time>
      </trkpt>
      <trkpt lat="46.42856" lon="-0.1856">
        <ele>117.9</ele>
        <time>2020-05-30T19:37:06Z</time>
      </trkpt>
      <trkpt lat="46.42856" lon="-0.18559">
        <ele>117.8</ele>
        <time>2020-05-30T19:37:07Z</time>
      </trkpt>
      <trkpt lat="46.42855" lon="-0.18559">
        <ele>117.8</ele>
        <time>2020-05-30T19:37:08Z</time>
      </trkpt>
      <trkpt lat="46.42855" lon="-0.18559">
        <ele>117.8</ele>
        <time>2020-05-30T19:37:09Z</time>
      </trkpt>
      <trkpt lat="46.42856" lon="-0.18559">
        <ele>117.8</ele>
        <time>2020-05-30T19:37:10Z</time>
      </trkpt>
      <trkpt lat="46.42856" lon="-0.18559">
        <ele>117.7</ele>
        <time>2020-05-30T19:37:11Z</time>
      </trkpt>
      <trkpt lat="46.42856" lon="-0.18559">
        <ele>117.7</ele>
        <time>2020-05-30T19:37:12Z</time>
      </trkpt>
      <trkpt lat="46.42856" lon="-0.18559">
        <ele>117.7</ele>
        <time>2020-05-30T19:37:13Z</time>
      </trkpt>
      <trkpt lat="46.42856" lon="-0.18559">
        <ele>117.7</ele>
        <time>2020-05-30T19:37:14Z</time>
      </trkpt>
      <trkpt lat="46.42856" lon="-0.18559">
        <ele>117.7</ele>
        <time>2020-05-30T19:37:15Z</time>
      </trkpt>
      <trkpt lat="46.42856" lon="-0.18559">
        <ele>117.7</ele>
        <time>2020-05-30T19:37:16Z</time>
      </trkpt>
      <trkpt lat="46.42856" lon="-0.1856">
        <ele>117.7</ele>
        <time>2020-05-30T19:37:17Z</time>
      </trkpt>
      <trkpt lat="46.42856" lon="-0.1856">
        <ele>117.6</ele>
        <time>2020-05-30T19:37:18Z</time>
      </trkpt>
      <trkpt lat="46.42856" lon="-0.1856">
        <ele>117.6</ele>
        <time>2020-05-30T19:37:19Z</time>
      </trkpt>
      <trkpt lat="46.42857" lon="-0.18561">
        <ele>117.6</ele>
        <time>2020-05-30T19:37:20Z</time>
      </trkpt>
      <trkpt lat="46.42856" lon="-0.18561">
        <ele>117.6</ele>
        <time>2020-05-30T19:37:21Z</time>
      </trkpt>
      <trkpt lat="46.42856" lon="-0.18561">
        <ele>117.5</ele>
        <time>2020-05-30T19:37:22Z</time>
      </trkpt>
      <trkpt lat="46.42856" lon="-0.18561">
        <ele>117.5</ele>
        <time>2020-05-30T19:37:23Z</time>
      </trkpt>
      <trkpt lat="46.42855" lon="-0.18561">
        <ele>117.5</ele>
        <time>2020-05-30T19:37:24Z</time>
      </trkpt>
      <trkpt lat="46.42856" lon="-0.18562">
        <ele>117.4</ele>
        <time>2020-05-30T19:37:25Z</time>
      </trkpt>
      <trkpt lat="46.42856" lon="-0.18562">
        <ele>117.4</ele>
        <time>2020-05-30T19:37:26Z</time>
      </trkpt>
      <trkpt lat="46.42856" lon="-0.18561">
        <ele>117.3</ele>
        <time>2020-05-30T19:37:27Z</time>
      </trkpt>
      <trkpt lat="46.42856" lon="-0.18561">
        <ele>117.3</ele>
        <time>2020-05-30T19:37:28Z</time>
      </trkpt>
      <trkpt lat="46.42856" lon="-0.18561">
        <ele>117.3</ele>
        <time>2020-05-30T19:37:29Z</time>
      </trkpt>
      <trkpt lat="46.42856" lon="-0.18562">
        <ele>117.3</ele>
        <time>2020-05-30T19:37:30Z</time>
      </trkpt>
      <trkpt lat="46.42857" lon="-0.18562">
        <ele>117.2</ele>
        <time>2020-05-30T19:37:31Z</time>
      </trkpt>
      <trkpt lat="46.42856" lon="-0.18562">
        <ele>117.2</ele>
        <time>2020-05-30T19:37:32Z</time>
      </trkpt>
      <trkpt lat="46.42856" lon="-0.18563">
        <ele>117.2</ele>
        <time>2020-05-30T19:37:33Z</time>
      </trkpt>
      <trkpt lat="46.42856" lon="-0.18562">
        <ele>117.2</ele>
        <time>2020-05-30T19:37:34Z</time>
      </trkpt>
      <trkpt lat="46.42856" lon="-0.18562">
        <ele>117.1</ele>
        <time>2020-05-30T19:37:35Z</time>
      </trkpt>
      <trkpt lat="46.42856" lon="-0.18562">
        <ele>117.1</ele>
        <time>2020-05-30T19:37:36Z</time>
      </trkpt>
      <trkpt lat="46.42857" lon="-0.18562">
        <ele>117.1</ele>
        <time>2020-05-30T19:37:37Z</time>
      </trkpt>
      <trkpt lat="46.42857" lon="-0.18563">
        <ele>117</ele>
        <time>2020-05-30T19:37:38Z</time>
      </trkpt>
      <trkpt lat="46.42857" lon="-0.18563">
        <ele>117</ele>
        <time>2020-05-30T19:37:39Z</time>
      </trkpt>
      <trkpt lat="46.42857" lon="-0.18563">
        <ele>117</ele>
        <time>2020-05-30T19:37:40Z</time>
      </trkpt>
      <trkpt lat="46.42856" lon="-0.18564">
        <ele>116.9</ele>
        <time>2020-05-30T19:37:41Z</time>
      </trkpt>
      <trkpt lat="46.42856" lon="-0.18564">
        <ele>116.9</ele>
        <time>2020-05-30T19:37:42Z</time>
      </trkpt>
      <trkpt lat="46.42856" lon="-0.18564">
        <ele>116.9</ele>
        <time>2020-05-30T19:37:43Z</time>
      </trkpt>
      <trkpt lat="46.42856" lon="-0.18565">
        <ele>116.9</ele>
        <time>2020-05-30T19:37:44Z</time>
      </trkpt>
      <trkpt lat="46.42856" lon="-0.18565">
        <ele>116.8</ele>
        <time>2020-05-30T19:37:45Z</time>
      </trkpt>
      <trkpt lat="46.42856" lon="-0.18564">
        <ele>116.8</ele>
        <time>2020-05-30T19:37:46Z</time>
      </trkpt>
      <trkpt lat="46.42855" lon="-0.18564">
        <ele>116.8</ele>
        <time>2020-05-30T19:37:47Z</time>
      </trkpt>
      <trkpt lat="46.42855" lon="-0.18563">
        <ele>116.7</ele>
        <time>2020-05-30T19:37:48Z</time>
      </trkpt>
      <trkpt lat="46.42856" lon="-0.18562">
        <ele>116.6</ele>
        <time>2020-05-30T19:37:49Z</time>
      </trkpt>
      <trkpt lat="46.42856" lon="-0.18562">
        <ele>116.5</ele>
        <time>2020-05-30T19:37:50Z</time>
      </trkpt>
      <trkpt lat="46.42856" lon="-0.18561">
        <ele>116.5</ele>
        <time>2020-05-30T19:37:51Z</time>
      </trkpt>
      <trkpt lat="46.42856" lon="-0.18559">
        <ele>116.4</ele>
        <time>2020-05-30T19:37:52Z</time>
      </trkpt>
      <trkpt lat="46.42856" lon="-0.18557">
        <ele>116.2</ele>
        <time>2020-05-30T19:37:53Z</time>
      </trkpt>
      <trkpt lat="46.42855" lon="-0.18555">
        <ele>116.1</ele>
        <time>2020-05-30T19:37:54Z</time>
      </trkpt>
      <trkpt lat="46.42855" lon="-0.18553">
        <ele>115.9</ele>
        <time>2020-05-30T19:37:55Z</time>
      </trkpt>
      <trkpt lat="46.42855" lon="-0.18552">
        <ele>115.8</ele>
        <time>2020-05-30T19:37:56Z</time>
      </trkpt>
      <trkpt lat="46.42854" lon="-0.18551">
        <ele>115.8</ele>
        <time>2020-05-30T19:37:57Z</time>
      </trkpt>
      <trkpt lat="46.42854" lon="-0.1855">
        <ele>115.7</ele>
        <time>2020-05-30T19:37:58Z</time>
      </trkpt>
      <trkpt lat="46.42853" lon="-0.18549">
        <ele>115.6</ele>
        <time>2020-05-30T19:37:59Z</time>
      </trkpt>
      <trkpt lat="46.42853" lon="-0.18548">
        <ele>115.5</ele>
        <time>2020-05-30T19:38:00Z</time>
      </trkpt>
      <trkpt lat="46.42853" lon="-0.18547">
        <ele>115.4</ele>
        <time>2020-05-30T19:38:01Z</time>
      </trkpt>
      <trkpt lat="46.42853" lon="-0.18546">
        <ele>115.3</ele>
        <time>2020-05-30T19:38:02Z</time>
      </trkpt>
      <trkpt lat="46.42852" lon="-0.18545">
        <ele>115.2</ele>
        <time>2020-05-30T19:38:03Z</time>
      </trkpt>
      <trkpt lat="46.42851" lon="-0.18545">
        <ele>115.2</ele>
        <time>2020-05-30T19:38:04Z</time>
      </trkpt>
      <trkpt lat="46.42852" lon="-0.18544">
        <ele>115.1</ele>
        <time>2020-05-30T19:38:05Z</time>
      </trkpt>
      <trkpt lat="46.42853" lon="-0.18544">
        <ele>115</ele>
        <time>2020-05-30T19:38:06Z</time>
      </trkpt>
      <trkpt lat="46.42852" lon="-0.18545">
        <ele>115</ele>
        <time>2020-05-30T19:38:07Z</time>
      </trkpt>
      <trkpt lat="46.42852" lon="-0.18544">
        <ele>114.9</ele>
        <time>2020-05-30T19:38:08Z</time>
      </trkpt>
      <trkpt lat="46.42852" lon="-0.18543">
        <ele>114.8</ele>
        <time>2020-05-30T19:38:09Z</time>
      </trkpt>
      <trkpt lat="46.42852" lon="-0.18542">
        <ele>114.8</ele>
        <time>2020-05-30T19:38:10Z</time>
      </trkpt>
      <trkpt lat="46.42852" lon="-0.18542">
        <ele>114.8</ele>
        <time>2020-05-30T19:38:11Z</time>
      </trkpt>
      <trkpt lat="46.42852" lon="-0.18542">
        <ele>114.7</ele>
        <time>2020-05-30T19:38:12Z</time>
      </trkpt>
      <trkpt lat="46.42852" lon="-0.18541">
        <ele>114.7</ele>
        <time>2020-05-30T19:38:13Z</time>
      </trkpt>
      <trkpt lat="46.42852" lon="-0.1854">
        <ele>114.6</ele>
        <time>2020-05-30T19:38:14Z</time>
      </trkpt>
      <trkpt lat="46.42851" lon="-0.18539">
        <ele>114.5</ele>
        <time>2020-05-30T19:38:15Z</time>
      </trkpt>
      <trkpt lat="46.4285" lon="-0.18538">
        <ele>114.4</ele>
        <time>2020-05-30T19:38:16Z</time>
      </trkpt>
      <trkpt lat="46.4285" lon="-0.18538">
        <ele>114.4</ele>
        <time>2020-05-30T19:38:17Z</time>
      </trkpt>
      <trkpt lat="46.42849" lon="-0.18538">
        <ele>114.3</ele>
        <time>2020-05-30T19:38:18Z</time>
      </trkpt>
      <trkpt lat="46.42849" lon="-0.18538">
        <ele>114.2</ele>
        <time>2020-05-30T19:38:19Z</time>
      </trkpt>
      <trkpt lat="46.42848" lon="-0.18538">
        <ele>114.2</ele>
        <time>2020-05-30T19:38:20Z</time>
      </trkpt>
      <trkpt lat="46.42848" lon="-0.18537">
        <ele>114.1</ele>
        <time>2020-05-30T19:38:21Z</time>
      </trkpt>
      <trkpt lat="46.42848" lon="-0.18537">
        <ele>114.1</ele>
        <time>2020-05-30T19:38:22Z</time>
      </trkpt>
      <trkpt lat="46.42848" lon="-0.18537">
        <ele>114.1</ele>
        <time>2020-05-30T19:38:23Z</time>
      </trkpt>
      <trkpt lat="46.42848" lon="-0.18536">
        <ele>114</ele>
        <time>2020-05-30T19:38:24Z</time>
      </trkpt>
      <trkpt lat="46.42847" lon="-0.18535">
        <ele>113.9</ele>
        <time>2020-05-30T19:38:25Z</time>
      </trkpt>
      <trkpt lat="46.42847" lon="-0.18534">
        <ele>113.8</ele>
        <time>2020-05-30T19:38:26Z</time>
      </trkpt>
      <trkpt lat="46.42847" lon="-0.18533">
        <ele>113.7</ele>
        <time>2020-05-30T19:38:27Z</time>
      </trkpt>
      <trkpt lat="46.42847" lon="-0.18531">
        <ele>113.6</ele>
        <time>2020-05-30T19:38:28Z</time>
      </trkpt>
      <trkpt lat="46.42847" lon="-0.1853">
        <ele>113.5</ele>
        <time>2020-05-30T19:38:29Z</time>
      </trkpt>
      <trkpt lat="46.42847" lon="-0.1853">
        <ele>113.5</ele>
        <time>2020-05-30T19:38:30Z</time>
      </trkpt>
      <trkpt lat="46.42847" lon="-0.18528">
        <ele>113.4</ele>
        <time>2020-05-30T19:38:31Z</time>
      </trkpt>
      <trkpt lat="46.42847" lon="-0.18527">
        <ele>113.3</ele>
        <time>2020-05-30T19:38:32Z</time>
      </trkpt>
      <trkpt lat="46.42847" lon="-0.18526">
        <ele>113.2</ele>
        <time>2020-05-30T19:38:33Z</time>
      </trkpt>
      <trkpt lat="46.42848" lon="-0.18524">
        <ele>113.1</ele>
        <time>2020-05-30T19:38:34Z</time>
      </trkpt>
      <trkpt lat="46.42847" lon="-0.18523">
        <ele>113</ele>
        <time>2020-05-30T19:38:35Z</time>
      </trkpt>
      <trkpt lat="46.42847" lon="-0.18523">
        <ele>113</ele>
        <time>2020-05-30T19:38:36Z</time>
      </trkpt>
      <trkpt lat="46.42847" lon="-0.18523">
        <ele>112.9</ele>
        <time>2020-05-30T19:38:37Z</time>
      </trkpt>
      <trkpt lat="46.42845" lon="-0.18522">
        <ele>112.7</ele>
        <time>2020-05-30T19:38:38Z</time>
      </trkpt>
      <trkpt lat="46.42844" lon="-0.18519">
        <ele>112.5</ele>
        <time>2020-05-30T19:38:39Z</time>
      </trkpt>
      <trkpt lat="46.42844" lon="-0.18518">
        <ele>112.4</ele>
        <time>2020-05-30T19:38:40Z</time>
      </trkpt>
      <trkpt lat="46.42844" lon="-0.18515">
        <ele>112.2</ele>
        <time>2020-05-30T19:38:41Z</time>
      </trkpt>
      <trkpt lat="46.42843" lon="-0.18513">
        <ele>112.1</ele>
        <time>2020-05-30T19:38:42Z</time>
      </trkpt>
      <trkpt lat="46.42843" lon="-0.18511">
        <ele>111.9</ele>
        <time>2020-05-30T19:38:43Z</time>
      </trkpt>
      <trkpt lat="46.42842" lon="-0.18509">
        <ele>111.7</ele>
        <time>2020-05-30T19:38:44Z</time>
      </trkpt>
      <trkpt lat="46.42841" lon="-0.18506">
        <ele>111.5</ele>
        <time>2020-05-30T19:38:45Z</time>
      </trkpt>
      <trkpt lat="46.4284" lon="-0.18505">
        <ele>111.4</ele>
        <time>2020-05-30T19:38:46Z</time>
      </trkpt>
      <trkpt lat="46.4284" lon="-0.18504">
        <ele>111.3</ele>
        <time>2020-05-30T19:38:47Z</time>
      </trkpt>
      <trkpt lat="46.42837" lon="-0.185">
        <ele>110.8</ele>
        <time>2020-05-30T19:38:48Z</time>
      </trkpt>
      <trkpt lat="46.42835" lon="-0.18499">
        <ele>110.7</ele>
        <time>2020-05-30T19:38:49Z</time>
      </trkpt>
      <trkpt lat="46.42835" lon="-0.18499">
        <ele>110.6</ele>
        <time>2020-05-30T19:38:50Z</time>
      </trkpt>
      <trkpt lat="46.42834" lon="-0.18497">
        <ele>110.5</ele>
        <time>2020-05-30T19:38:51Z</time>
      </trkpt>
      <trkpt lat="46.42834" lon="-0.18495">
        <ele>110.3</ele>
        <time>2020-05-30T19:38:52Z</time>
      </trkpt>
      <trkpt lat="46.42834" lon="-0.18495">
        <ele>110.3</ele>
        <time>2020-05-30T19:38:53Z</time>
      </trkpt>
      <trkpt lat="46.42834" lon="-0.18495">
        <ele>110.3</ele>
        <time>2020-05-30T19:38:54Z</time>
      </trkpt>
      <trkpt lat="46.42834" lon="-0.18494">
        <ele>110.2</ele>
        <time>2020-05-30T19:38:55Z</time>
      </trkpt>
      <trkpt lat="46.42833" lon="-0.18494">
        <ele>110.1</ele>
        <time>2020-05-30T19:38:56Z</time>
      </trkpt>
      <trkpt lat="46.42833" lon="-0.18493">
        <ele>110.1</ele>
        <time>2020-05-30T19:38:57Z</time>
      </trkpt>
      <trkpt lat="46.42833" lon="-0.18493">
        <ele>110.1</ele>
        <time>2020-05-30T19:38:58Z</time>
      </trkpt>
      <trkpt lat="46.42833" lon="-0.18493">
        <ele>110</ele>
        <time>2020-05-30T19:38:59Z</time>
      </trkpt>
      <trkpt lat="46.42833" lon="-0.18493">
        <ele>110</ele>
        <time>2020-05-30T19:39:00Z</time>
      </trkpt>
      <trkpt lat="46.42833" lon="-0.18493">
        <ele>110</ele>
        <time>2020-05-30T19:39:01Z</time>
      </trkpt>
      <trkpt lat="46.42831" lon="-0.18492">
        <ele>109.8</ele>
        <time>2020-05-30T19:39:02Z</time>
      </trkpt>
      <trkpt lat="46.4283" lon="-0.18489">
        <ele>109.5</ele>
        <time>2020-05-30T19:39:03Z</time>
      </trkpt>
      <trkpt lat="46.42828" lon="-0.18485">
        <ele>109.1</ele>
        <time>2020-05-30T19:39:04Z</time>
      </trkpt>
      <trkpt lat="46.42827" lon="-0.18484">
        <ele>108.9</ele>
        <time>2020-05-30T19:39:05Z</time>
      </trkpt>
      <trkpt lat="46.42824" lon="-0.1848">
        <ele>108.5</ele>
        <time>2020-05-30T19:39:06Z</time>
      </trkpt>
      <trkpt lat="46.42823" lon="-0.18479">
        <ele>108.3</ele>
        <time>2020-05-30T19:39:07Z</time>
      </trkpt>
      <trkpt lat="46.42823" lon="-0.18475">
        <ele>108</ele>
        <time>2020-05-30T19:39:08Z</time>
      </trkpt>
      <trkpt lat="46.42822" lon="-0.18474">
        <ele>107.9</ele>
        <time>2020-05-30T19:39:09Z</time>
      </trkpt>
      <trkpt lat="46.42822" lon="-0.18473">
        <ele>107.7</ele>
        <time>2020-05-30T19:39:10Z</time>
      </trkpt>
      <trkpt lat="46.42822" lon="-0.18471">
        <ele>107.6</ele>
        <time>2020-05-30T19:39:11Z</time>
      </trkpt>
      <trkpt lat="46.42821" lon="-0.1847">
        <ele>107.4</ele>
        <time>2020-05-30T19:39:12Z</time>
      </trkpt>
      <trkpt lat="46.4282" lon="-0.18468">
        <ele>107.2</ele>
        <time>2020-05-30T19:39:13Z</time>
      </trkpt>
      <trkpt lat="46.42819" lon="-0.18467">
        <ele>107</ele>
        <time>2020-05-30T19:39:14Z</time>
      </trkpt>
      <trkpt lat="46.42819" lon="-0.18465">
        <ele>106.9</ele>
        <time>2020-05-30T19:39:15Z</time>
      </trkpt>
      <trkpt lat="46.42818" lon="-0.18464">
        <ele>106.7</ele>
        <time>2020-05-30T19:39:16Z</time>
      </trkpt>
      <trkpt lat="46.42818" lon="-0.18462">
        <ele>106.6</ele>
        <time>2020-05-30T19:39:17Z</time>
      </trkpt>
      <trkpt lat="46.42818" lon="-0.18463">
        <ele>106.5</ele>
        <time>2020-05-30T19:39:18Z</time>
      </trkpt>
      <trkpt lat="46.42818" lon="-0.18463">
        <ele>106.4</ele>
        <time>2020-05-30T19:39:19Z</time>
      </trkpt>
      <trkpt lat="46.42817" lon="-0.18462">
        <ele>106.3</ele>
        <time>2020-05-30T19:39:20Z</time>
      </trkpt>
      <trkpt lat="46.42817" lon="-0.18461">
        <ele>106.2</ele>
        <time>2020-05-30T19:39:21Z</time>
      </trkpt>
      <trkpt lat="46.42816" lon="-0.1846">
        <ele>106</ele>
        <time>2020-05-30T19:39:22Z</time>
      </trkpt>
      <trkpt lat="46.42815" lon="-0.18459">
        <ele>105.9</ele>
        <time>2020-05-30T19:39:23Z</time>
      </trkpt>
      <trkpt lat="46.42814" lon="-0.18458">
        <ele>105.7</ele>
        <time>2020-05-30T19:39:24Z</time>
      </trkpt>
      <trkpt lat="46.42814" lon="-0.18457">
        <ele>105.6</ele>
        <time>2020-05-30T19:39:25Z</time>
      </trkpt>
      <trkpt lat="46.42814" lon="-0.18457">
        <ele>105.5</ele>
        <time>2020-05-30T19:39:26Z</time>
      </trkpt>
      <trkpt lat="46.42813" lon="-0.18455">
        <ele>105.4</ele>
        <time>2020-05-30T19:39:27Z</time>
      </trkpt>
      <trkpt lat="46.42812" lon="-0.18454">
        <ele>105.2</ele>
        <time>2020-05-30T19:39:28Z</time>
      </trkpt>
      <trkpt lat="46.42811" lon="-0.18453">
        <ele>105</ele>
        <time>2020-05-30T19:39:29Z</time>
      </trkpt>
      <trkpt lat="46.4281" lon="-0.18451">
        <ele>104.8</ele>
        <time>2020-05-30T19:39:30Z</time>
      </trkpt>
      <trkpt lat="46.4281" lon="-0.18451">
        <ele>104.7</ele>
        <time>2020-05-30T19:39:31Z</time>
      </trkpt>
      <trkpt lat="46.4281" lon="-0.1845">
        <ele>104.6</ele>
        <time>2020-05-30T19:39:32Z</time>
      </trkpt>
      <trkpt lat="46.4281" lon="-0.18449">
        <ele>104.5</ele>
        <time>2020-05-30T19:39:33Z</time>
      </trkpt>
      <trkpt lat="46.42809" lon="-0.18448">
        <ele>104.4</ele>
        <time>2020-05-30T19:39:34Z</time>
      </trkpt>
      <trkpt lat="46.42808" lon="-0.18447">
        <ele>104.2</ele>
        <time>2020-05-30T19:39:35Z</time>
      </trkpt>
      <trkpt lat="46.42807" lon="-0.18447">
        <ele>104.2</ele>
        <time>2020-05-30T19:39:36Z</time>
      </trkpt>
      <trkpt lat="46.42807" lon="-0.18447">
        <ele>104.1</ele>
        <time>2020-05-30T19:39:37Z</time>
      </trkpt>
      <trkpt lat="46.42806" lon="-0.18447">
        <ele>103.9</ele>
        <time>2020-05-30T19:39:38Z</time>
      </trkpt>
      <trkpt lat="46.42806" lon="-0.18446">
        <ele>103.9</ele>
        <time>2020-05-30T19:39:39Z</time>
      </trkpt>
      <trkpt lat="46.42806" lon="-0.18446">
        <ele>103.8</ele>
        <time>2020-05-30T19:39:40Z</time>
      </trkpt>
      <trkpt lat="46.42806" lon="-0.18446">
        <ele>103.8</ele>
        <time>2020-05-30T19:39:41Z</time>
      </trkpt>
      <trkpt lat="46.42806" lon="-0.18444">
        <ele>103.7</ele>
        <time>2020-05-30T19:39:42Z</time>
      </trkpt>
      <trkpt lat="46.42805" lon="-0.18443">
        <ele>103.6</ele>
        <time>2020-05-30T19:39:43Z</time>
      </trkpt>
      <trkpt lat="46.42805" lon="-0.18443">
        <ele>103.5</ele>
        <time>2020-05-30T19:39:44Z</time>
      </trkpt>
      <trkpt lat="46.42804" lon="-0.18442">
        <ele>103.3</ele>
        <time>2020-05-30T19:39:45Z</time>
      </trkpt>
      <trkpt lat="46.42804" lon="-0.18442">
        <ele>103.3</ele>
        <time>2020-05-30T19:39:46Z</time>
      </trkpt>
      <trkpt lat="46.42803" lon="-0.18442">
        <ele>103.2</ele>
        <time>2020-05-30T19:39:47Z</time>
      </trkpt>
      <trkpt lat="46.42803" lon="-0.18442">
        <ele>103.2</ele>
        <time>2020-05-30T19:39:48Z</time>
      </trkpt>
      <trkpt lat="46.42803" lon="-0.18442">
        <ele>103.1</ele>
        <time>2020-05-30T19:39:49Z</time>
      </trkpt>
      <trkpt lat="46.42803" lon="-0.18441">
        <ele>103.1</ele>
        <time>2020-05-30T19:39:50Z</time>
      </trkpt>
      <trkpt lat="46.42802" lon="-0.18441">
        <ele>102.4</ele>
        <time>2020-05-30T19:39:51Z</time>
      </trkpt>
      <trkpt lat="46.42802" lon="-0.1844">
        <ele>102.5</ele>
        <time>2020-05-30T19:39:52Z</time>
      </trkpt>
      <trkpt lat="46.42801" lon="-0.18439">
        <ele>102.5</ele>
        <time>2020-05-30T19:39:53Z</time>
      </trkpt>
      <trkpt lat="46.42801" lon="-0.18438">
        <ele>102.6</ele>
        <time>2020-05-30T19:39:54Z</time>
      </trkpt>
      <trkpt lat="46.42802" lon="-0.18437">
        <ele>102.6</ele>
        <time>2020-05-30T19:39:55Z</time>
      </trkpt>
      <trkpt lat="46.42802" lon="-0.18437">
        <ele>102.7</ele>
        <time>2020-05-30T19:39:56Z</time>
      </trkpt>
      <trkpt lat="46.42802" lon="-0.18436">
        <ele>102.7</ele>
        <time>2020-05-30T19:39:57Z</time>
      </trkpt>
      <trkpt lat="46.42802" lon="-0.18436">
        <ele>102.7</ele>
        <time>2020-05-30T19:39:58Z</time>
      </trkpt>
      <trkpt lat="46.42802" lon="-0.18436">
        <ele>102.7</ele>
        <time>2020-05-30T19:39:59Z</time>
      </trkpt>
      <trkpt lat="46.42802" lon="-0.18437">
        <ele>102.8</ele>
        <time>2020-05-30T19:40:00Z</time>
      </trkpt>
      <trkpt lat="46.42801" lon="-0.18436">
        <ele>102.8</ele>
        <time>2020-05-30T19:40:01Z</time>
      </trkpt>
      <trkpt lat="46.42801" lon="-0.18435">
        <ele>102.9</ele>
        <time>2020-05-30T19:40:02Z</time>
      </trkpt>
      <trkpt lat="46.42801" lon="-0.18435">
        <ele>102.9</ele>
        <time>2020-05-30T19:40:03Z</time>
      </trkpt>
      <trkpt lat="46.428" lon="-0.18434">
        <ele>103</ele>
        <time>2020-05-30T19:40:04Z</time>
      </trkpt>
      <trkpt lat="46.42799" lon="-0.18433">
        <ele>103</ele>
        <time>2020-05-30T19:40:05Z</time>
      </trkpt>
      <trkpt lat="46.42798" lon="-0.18432">
        <ele>103</ele>
        <time>2020-05-30T19:40:06Z</time>
      </trkpt>
      <trkpt lat="46.42798" lon="-0.18432">
        <ele>103.1</ele>
        <time>2020-05-30T19:40:07Z</time>
      </trkpt>
      <trkpt lat="46.42797" lon="-0.1843">
        <ele>103.1</ele>
        <time>2020-05-30T19:40:08Z</time>
      </trkpt>
      <trkpt lat="46.42796" lon="-0.18429">
        <ele>103.1</ele>
        <time>2020-05-30T19:40:09Z</time>
      </trkpt>
      <trkpt lat="46.42796" lon="-0.18427">
        <ele>103.2</ele>
        <time>2020-05-30T19:40:10Z</time>
      </trkpt>
      <trkpt lat="46.42795" lon="-0.18427">
        <ele>103.2</ele>
        <time>2020-05-30T19:40:11Z</time>
      </trkpt>
      <trkpt lat="46.42795" lon="-0.18426">
        <ele>103.2</ele>
        <time>2020-05-30T19:40:12Z</time>
      </trkpt>
      <trkpt lat="46.42794" lon="-0.18426">
        <ele>103.2</ele>
        <time>2020-05-30T19:40:13Z</time>
      </trkpt>
      <trkpt lat="46.42793" lon="-0.18425">
        <ele>103.2</ele>
        <time>2020-05-30T19:40:14Z</time>
      </trkpt>
      <trkpt lat="46.42793" lon="-0.18423">
        <ele>103.2</ele>
        <time>2020-05-30T19:40:15Z</time>
      </trkpt>
      <trkpt lat="46.42792" lon="-0.18422">
        <ele>103.2</ele>
        <time>2020-05-30T19:40:16Z</time>
      </trkpt>
      <trkpt lat="46.42791" lon="-0.18421">
        <ele>103.1</ele>
        <time>2020-05-30T19:40:17Z</time>
      </trkpt>
      <trkpt lat="46.4279" lon="-0.1842">
        <ele>103.1</ele>
        <time>2020-05-30T19:40:18Z</time>
      </trkpt>
      <trkpt lat="46.42789" lon="-0.18419">
        <ele>103.1</ele>
        <time>2020-05-30T19:40:19Z</time>
      </trkpt>
      <trkpt lat="46.42788" lon="-0.18418">
        <ele>103</ele>
        <time>2020-05-30T19:40:20Z</time>
      </trkpt>
      <trkpt lat="46.42787" lon="-0.18417">
        <ele>103</ele>
        <time>2020-05-30T19:40:21Z</time>
      </trkpt>
      <trkpt lat="46.42786" lon="-0.18416">
        <ele>102.9</ele>
        <time>2020-05-30T19:40:22Z</time>
      </trkpt>
      <trkpt lat="46.42785" lon="-0.18416">
        <ele>102.9</ele>
        <time>2020-05-30T19:40:23Z</time>
      </trkpt>
      <trkpt lat="46.42785" lon="-0.18416">
        <ele>102.9</ele>
        <time>2020-05-30T19:40:24Z</time>
      </trkpt>
      <trkpt lat="46.42784" lon="-0.18414">
        <ele>102.8</ele>
        <time>2020-05-30T19:40:25Z</time>
      </trkpt>
      <trkpt lat="46.42784" lon="-0.18413">
        <ele>102.7</ele>
        <time>2020-05-30T19:40:26Z</time>
      </trkpt>
      <trkpt lat="46.42783" lon="-0.18413">
        <ele>102.7</ele>
        <time>2020-05-30T19:40:27Z</time>
      </trkpt>
      <trkpt lat="46.42783" lon="-0.18412">
        <ele>102.7</ele>
        <time>2020-05-30T19:40:28Z</time>
      </trkpt>
      <trkpt lat="46.42783" lon="-0.18412">
        <ele>102.7</ele>
        <time>2020-05-30T19:40:29Z</time>
      </trkpt>
      <trkpt lat="46.42783" lon="-0.18412">
        <ele>102.7</ele>
        <time>2020-05-30T19:40:30Z</time>
      </trkpt>
      <trkpt lat="46.42783" lon="-0.1841">
        <ele>102.6</ele>
        <time>2020-05-30T19:40:31Z</time>
      </trkpt>
      <trkpt lat="46.42783" lon="-0.18409">
        <ele>102.6</ele>
        <time>2020-05-30T19:40:32Z</time>
      </trkpt>
      <trkpt lat="46.42784" lon="-0.18409">
        <ele>102.5</ele>
        <time>2020-05-30T19:40:33Z</time>
      </trkpt>
      <trkpt lat="46.42783" lon="-0.18408">
        <ele>102.5</ele>
        <time>2020-05-30T19:40:34Z</time>
      </trkpt>
      <trkpt lat="46.42783" lon="-0.18408">
        <ele>102.4</ele>
        <time>2020-05-30T19:40:35Z</time>
      </trkpt>
      <trkpt lat="46.42782" lon="-0.18408">
        <ele>102.4</ele>
        <time>2020-05-30T19:40:36Z</time>
      </trkpt>
      <trkpt lat="46.42781" lon="-0.18407">
        <ele>102.3</ele>
        <time>2020-05-30T19:40:37Z</time>
      </trkpt>
      <trkpt lat="46.4278" lon="-0.18407">
        <ele>102.2</ele>
        <time>2020-05-30T19:40:38Z</time>
      </trkpt>
      <trkpt lat="46.42779" lon="-0.18407">
        <ele>102.1</ele>
        <time>2020-05-30T19:40:39Z</time>
      </trkpt>
      <trkpt lat="46.42779" lon="-0.18406">
        <ele>102.1</ele>
        <time>2020-05-30T19:40:40Z</time>
      </trkpt>
      <trkpt lat="46.42778" lon="-0.18406">
        <ele>102</ele>
        <time>2020-05-30T19:40:41Z</time>
      </trkpt>
      <trkpt lat="46.42777" lon="-0.18406">
        <ele>101.9</ele>
        <time>2020-05-30T19:40:42Z</time>
      </trkpt>
      <trkpt lat="46.42777" lon="-0.18404">
        <ele>101.8</ele>
        <time>2020-05-30T19:40:43Z</time>
      </trkpt>
      <trkpt lat="46.42776" lon="-0.18403">
        <ele>101.7</ele>
        <time>2020-05-30T19:40:44Z</time>
      </trkpt>
      <trkpt lat="46.42775" lon="-0.18402">
        <ele>101.6</ele>
        <time>2020-05-30T19:40:45Z</time>
      </trkpt>
      <trkpt lat="46.42774" lon="-0.18402">
        <ele>101.5</ele>
        <time>2020-05-30T19:40:46Z</time>
      </trkpt>
      <trkpt lat="46.42774" lon="-0.18401">
        <ele>101.4</ele>
        <time>2020-05-30T19:40:47Z</time>
      </trkpt>
      <trkpt lat="46.42773" lon="-0.18401">
        <ele>101.3</ele>
        <time>2020-05-30T19:40:48Z</time>
      </trkpt>
      <trkpt lat="46.42772" lon="-0.184">
        <ele>101.2</ele>
        <time>2020-05-30T19:40:49Z</time>
      </trkpt>
      <trkpt lat="46.42771" lon="-0.18399">
        <ele>101.2</ele>
        <time>2020-05-30T19:40:50Z</time>
      </trkpt>
      <trkpt lat="46.42771" lon="-0.18398">
        <ele>101</ele>
        <time>2020-05-30T19:40:51Z</time>
      </trkpt>
      <trkpt lat="46.42769" lon="-0.18396">
        <ele>100.9</ele>
        <time>2020-05-30T19:40:52Z</time>
      </trkpt>
      <trkpt lat="46.42769" lon="-0.18395">
        <ele>100.8</ele>
        <time>2020-05-30T19:40:53Z</time>
      </trkpt>
      <trkpt lat="46.42768" lon="-0.18394">
        <ele>100.7</ele>
        <time>2020-05-30T19:40:54Z</time>
      </trkpt>
      <trkpt lat="46.42766" lon="-0.18391">
        <ele>100.4</ele>
        <time>2020-05-30T19:40:55Z</time>
      </trkpt>
      <trkpt lat="46.42766" lon="-0.1839">
        <ele>100.3</ele>
        <time>2020-05-30T19:40:56Z</time>
      </trkpt>
      <trkpt lat="46.42765" lon="-0.18389">
        <ele>100.2</ele>
        <time>2020-05-30T19:40:57Z</time>
      </trkpt>
      <trkpt lat="46.42764" lon="-0.18388">
        <ele>100.2</ele>
        <time>2020-05-30T19:40:58Z</time>
      </trkpt>
      <trkpt lat="46.42764" lon="-0.18388">
        <ele>100.2</ele>
        <time>2020-05-30T19:40:59Z</time>
      </trkpt>
      <trkpt lat="46.42764" lon="-0.18388">
        <ele>100.1</ele>
        <time>2020-05-30T19:41:00Z</time>
      </trkpt>
      <trkpt lat="46.42763" lon="-0.18387">
        <ele>100.1</ele>
        <time>2020-05-30T19:41:01Z</time>
      </trkpt>
      <trkpt lat="46.42763" lon="-0.18386">
        <ele>100.1</ele>
        <time>2020-05-30T19:41:02Z</time>
      </trkpt>
      <trkpt lat="46.42763" lon="-0.18387">
        <ele>100.1</ele>
        <time>2020-05-30T19:41:03Z</time>
      </trkpt>
      <trkpt lat="46.42763" lon="-0.18386">
        <ele>100</ele>
        <time>2020-05-30T19:41:04Z</time>
      </trkpt>
      <trkpt lat="46.42763" lon="-0.18385">
        <ele>100</ele>
        <time>2020-05-30T19:41:05Z</time>
      </trkpt>
      <trkpt lat="46.42762" lon="-0.18384">
        <ele>99.9</ele>
        <time>2020-05-30T19:41:06Z</time>
      </trkpt>
      <trkpt lat="46.42762" lon="-0.18382">
        <ele>99.9</ele>
        <time>2020-05-30T19:41:07Z</time>
      </trkpt>
      <trkpt lat="46.42762" lon="-0.1838">
        <ele>99.9</ele>
        <time>2020-05-30T19:41:08Z</time>
      </trkpt>
      <trkpt lat="46.42761" lon="-0.18377">
        <ele>99.9</ele>
        <time>2020-05-30T19:41:09Z</time>
      </trkpt>
      <trkpt lat="46.42761" lon="-0.18376">
        <ele>99.9</ele>
        <time>2020-05-30T19:41:10Z</time>
      </trkpt>
      <trkpt lat="46.4276" lon="-0.18375">
        <ele>99.9</ele>
        <time>2020-05-30T19:41:11Z</time>
      </trkpt>
      <trkpt lat="46.4276" lon="-0.18374">
        <ele>99.9</ele>
        <time>2020-05-30T19:41:12Z</time>
      </trkpt>
      <trkpt lat="46.42759" lon="-0.18375">
        <ele>99.9</ele>
        <time>2020-05-30T19:41:13Z</time>
      </trkpt>
      <trkpt lat="46.42759" lon="-0.18374">
        <ele>99.9</ele>
        <time>2020-05-30T19:41:14Z</time>
      </trkpt>
      <trkpt lat="46.42759" lon="-0.18375">
        <ele>99.9</ele>
        <time>2020-05-30T19:41:15Z</time>
      </trkpt>
      <trkpt lat="46.42759" lon="-0.18375">
        <ele>99.9</ele>
        <time>2020-05-30T19:41:16Z</time>
      </trkpt>
      <trkpt lat="46.42758" lon="-0.18374">
        <ele>99.9</ele>
        <time>2020-05-30T19:41:17Z</time>
      </trkpt>
      <trkpt lat="46.42757" lon="-0.18372">
        <ele>100</ele>
        <time>2020-05-30T19:41:18Z</time>
      </trkpt>
      <trkpt lat="46.42758" lon="-0.1837">
        <ele>100</ele>
        <time>2020-05-30T19:41:19Z</time>
      </trkpt>
      <trkpt lat="46.42758" lon="-0.18369">
        <ele>100.1</ele>
        <time>2020-05-30T19:41:20Z</time>
      </trkpt>
      <trkpt lat="46.42757" lon="-0.18369">
        <ele>100.1</ele>
        <time>2020-05-30T19:41:21Z</time>
      </trkpt>
      <trkpt lat="46.42757" lon="-0.18369">
        <ele>100.1</ele>
        <time>2020-05-30T19:41:22Z</time>
      </trkpt>
      <trkpt lat="46.42757" lon="-0.18368">
        <ele>100.2</ele>
        <time>2020-05-30T19:41:23Z</time>
      </trkpt>
      <trkpt lat="46.42756" lon="-0.18366">
        <ele>100.2</ele>
        <time>2020-05-30T19:41:24Z</time>
      </trkpt>
      <trkpt lat="46.42756" lon="-0.18365">
        <ele>100.3</ele>
        <time>2020-05-30T19:41:25Z</time>
      </trkpt>
      <trkpt lat="46.42756" lon="-0.18363">
        <ele>100.4</ele>
        <time>2020-05-30T19:41:26Z</time>
      </trkpt>
      <trkpt lat="46.42756" lon="-0.18362">
        <ele>100.4</ele>
        <time>2020-05-30T19:41:27Z</time>
      </trkpt>
      <trkpt lat="46.42756" lon="-0.18359">
        <ele>100.4</ele>
        <time>2020-05-30T19:41:28Z</time>
      </trkpt>
      <trkpt lat="46.42755" lon="-0.18357">
        <ele>100.4</ele>
        <time>2020-05-30T19:41:29Z</time>
      </trkpt>
      <trkpt lat="46.42755" lon="-0.18356">
        <ele>100.4</ele>
        <time>2020-05-30T19:41:30Z</time>
      </trkpt>
      <trkpt lat="46.42754" lon="-0.18352">
        <ele>100.4</ele>
        <time>2020-05-30T19:41:31Z</time>
      </trkpt>
      <trkpt lat="46.42754" lon="-0.1835">
        <ele>100.7</ele>
        <time>2020-05-30T19:41:32Z</time>
      </trkpt>
      <trkpt lat="46.42754" lon="-0.18348">
        <ele>100.7</ele>
        <time>2020-05-30T19:41:33Z</time>
      </trkpt>
      <trkpt lat="46.42753" lon="-0.18345">
        <ele>100.7</ele>
        <time>2020-05-30T19:41:34Z</time>
      </trkpt>
      <trkpt lat="46.42753" lon="-0.18344">
        <ele>100.7</ele>
        <time>2020-05-30T19:41:35Z</time>
      </trkpt>
      <trkpt lat="46.42753" lon="-0.18343">
        <ele>100.7</ele>
        <time>2020-05-30T19:41:36Z</time>
      </trkpt>
      <trkpt lat="46.42752" lon="-0.18341">
        <ele>100.7</ele>
        <time>2020-05-30T19:41:37Z</time>
      </trkpt>
      <trkpt lat="46.42752" lon="-0.1834">
        <ele>100.7</ele>
        <time>2020-05-30T19:41:38Z</time>
      </trkpt>
      <trkpt lat="46.42752" lon="-0.18339">
        <ele>100.7</ele>
        <time>2020-05-30T19:41:39Z</time>
      </trkpt>
      <trkpt lat="46.42752" lon="-0.18339">
        <ele>100.7</ele>
        <time>2020-05-30T19:41:40Z</time>
      </trkpt>
      <trkpt lat="46.42752" lon="-0.18339">
        <ele>100.7</ele>
        <time>2020-05-30T19:41:41Z</time>
      </trkpt>
      <trkpt lat="46.42752" lon="-0.18337">
        <ele>100.7</ele>
        <time>2020-05-30T19:41:42Z</time>
      </trkpt>
      <trkpt lat="46.42752" lon="-0.18336">
        <ele>100.7</ele>
        <time>2020-05-30T19:41:43Z</time>
      </trkpt>
      <trkpt lat="46.42752" lon="-0.18336">
        <ele>100.7</ele>
        <time>2020-05-30T19:41:44Z</time>
      </trkpt>
      <trkpt lat="46.42752" lon="-0.18336">
        <ele>100.7</ele>
        <time>2020-05-30T19:41:45Z</time>
      </trkpt>
      <trkpt lat="46.42752" lon="-0.18336">
        <ele>100.7</ele>
        <time>2020-05-30T19:41:46Z</time>
      </trkpt>
      <trkpt lat="46.42752" lon="-0.18336">
        <ele>100.7</ele>
        <time>2020-05-30T19:41:47Z</time>
      </trkpt>
      <trkpt lat="46.42752" lon="-0.18337">
        <ele>100.7</ele>
        <time>2020-05-30T19:41:48Z</time>
      </trkpt>
      <trkpt lat="46.42753" lon="-0.18337">
        <ele>100.7</ele>
        <time>2020-05-30T19:41:49Z</time>
      </trkpt>
      <trkpt lat="46.42753" lon="-0.18337">
        <ele>100.7</ele>
        <time>2020-05-30T19:41:50Z</time>
      </trkpt>
      <trkpt lat="46.42753" lon="-0.18337">
        <ele>100.8</ele>
        <time>2020-05-30T19:41:51Z</time>
      </trkpt>
      <trkpt lat="46.42754" lon="-0.18337">
        <ele>100.8</ele>
        <time>2020-05-30T19:41:52Z</time>
      </trkpt>
      <trkpt lat="46.42754" lon="-0.18337">
        <ele>100.9</ele>
        <time>2020-05-30T19:41:53Z</time>
      </trkpt>
      <trkpt lat="46.42755" lon="-0.18338">
        <ele>100.9</ele>
        <time>2020-05-30T19:41:54Z</time>
      </trkpt>
      <trkpt lat="46.42756" lon="-0.18338">
        <ele>100.9</ele>
        <time>2020-05-30T19:41:55Z</time>
      </trkpt>
      <trkpt lat="46.42757" lon="-0.18337">
        <ele>100.9</ele>
        <time>2020-05-30T19:41:56Z</time>
      </trkpt>
      <trkpt lat="46.42757" lon="-0.18337">
        <ele>100.9</ele>
        <time>2020-05-30T19:41:57Z</time>
      </trkpt>
      <trkpt lat="46.42758" lon="-0.18337">
        <ele>100.9</ele>
        <time>2020-05-30T19:41:58Z</time>
      </trkpt>
      <trkpt lat="46.42758" lon="-0.18336">
        <ele>100.9</ele>
        <time>2020-05-30T19:41:59Z</time>
      </trkpt>
      <trkpt lat="46.42758" lon="-0.18335">
        <ele>100.9</ele>
        <time>2020-05-30T19:42:00Z</time>
      </trkpt>
      <trkpt lat="46.42758" lon="-0.18335">
        <ele>100.9</ele>
        <time>2020-05-30T19:42:01Z</time>
      </trkpt>
      <trkpt lat="46.42758" lon="-0.18335">
        <ele>100.9</ele>
        <time>2020-05-30T19:42:02Z</time>
      </trkpt>
      <trkpt lat="46.42758" lon="-0.18335">
        <ele>100.9</ele>
        <time>2020-05-30T19:42:03Z</time>
      </trkpt>
      <trkpt lat="46.42758" lon="-0.18334">
        <ele>100.9</ele>
        <time>2020-05-30T19:42:04Z</time>
      </trkpt>
      <trkpt lat="46.42758" lon="-0.18334">
        <ele>100.9</ele>
        <time>2020-05-30T19:42:05Z</time>
      </trkpt>
      <trkpt lat="46.42758" lon="-0.18333">
        <ele>100.9</ele>
        <time>2020-05-30T19:42:06Z</time>
      </trkpt>
      <trkpt lat="46.42758" lon="-0.18333">
        <ele>100.9</ele>
        <time>2020-05-30T19:42:07Z</time>
      </trkpt>
      <trkpt lat="46.42758" lon="-0.18333">
        <ele>100.9</ele>
        <time>2020-05-30T19:42:08Z</time>
      </trkpt>
      <trkpt lat="46.42759" lon="-0.18332">
        <ele>100.9</ele>
        <time>2020-05-30T19:42:09Z</time>
      </trkpt>
      <trkpt lat="46.42759" lon="-0.18331">
        <ele>100.9</ele>
        <time>2020-05-30T19:42:10Z</time>
      </trkpt>
      <trkpt lat="46.42759" lon="-0.18331">
        <ele>100.9</ele>
        <time>2020-05-30T19:42:11Z</time>
      </trkpt>
      <trkpt lat="46.4276" lon="-0.1833">
        <ele>100.9</ele>
        <time>2020-05-30T19:42:12Z</time>
      </trkpt>
      <trkpt lat="46.4276" lon="-0.18331">
        <ele>100.9</ele>
        <time>2020-05-30T19:42:13Z</time>
      </trkpt>
      <trkpt lat="46.4276" lon="-0.18331">
        <ele>100.9</ele>
        <time>2020-05-30T19:42:14Z</time>
      </trkpt>
      <trkpt lat="46.42761" lon="-0.18331">
        <ele>100.9</ele>
        <time>2020-05-30T19:42:15Z</time>
      </trkpt>
      <trkpt lat="46.42761" lon="-0.18331">
        <ele>100.9</ele>
        <time>2020-05-30T19:42:16Z</time>
      </trkpt>
      <trkpt lat="46.42761" lon="-0.18332">
        <ele>100.9</ele>
        <time>2020-05-30T19:42:17Z</time>
      </trkpt>
      <trkpt lat="46.4276" lon="-0.18332">
        <ele>100.9</ele>
        <time>2020-05-30T19:42:18Z</time>
      </trkpt>
      <trkpt lat="46.4276" lon="-0.18334">
        <ele>100.9</ele>
        <time>2020-05-30T19:42:19Z</time>
      </trkpt>
      <trkpt lat="46.42759" lon="-0.18336">
        <ele>100.9</ele>
        <time>2020-05-30T19:42:20Z</time>
      </trkpt>
      <trkpt lat="46.42759" lon="-0.18338">
        <ele>100.9</ele>
        <time>2020-05-30T19:42:21Z</time>
      </trkpt>
      <trkpt lat="46.42759" lon="-0.18339">
        <ele>100.9</ele>
        <time>2020-05-30T19:42:22Z</time>
      </trkpt>
      <trkpt lat="46.42758" lon="-0.18342">
        <ele>100.9</ele>
        <time>2020-05-30T19:42:23Z</time>
      </trkpt>
      <trkpt lat="46.42758" lon="-0.18343">
        <ele>100.9</ele>
        <time>2020-05-30T19:42:24Z</time>
      </trkpt>
      <trkpt lat="46.42758" lon="-0.18345">
        <ele>100.9</ele>
        <time>2020-05-30T19:42:25Z</time>
      </trkpt>
      <trkpt lat="46.42757" lon="-0.18345">
        <ele>100.9</ele>
        <time>2020-05-30T19:42:26Z</time>
      </trkpt>
      <trkpt lat="46.42756" lon="-0.18345">
        <ele>101</ele>
        <time>2020-05-30T19:42:27Z</time>
      </trkpt>
      <trkpt lat="46.42756" lon="-0.18346">
        <ele>101</ele>
        <time>2020-05-30T19:42:28Z</time>
      </trkpt>
      <trkpt lat="46.42756" lon="-0.18346">
        <ele>101</ele>
        <time>2020-05-30T19:42:29Z</time>
      </trkpt>
      <trkpt lat="46.42756" lon="-0.18346">
        <ele>101</ele>
        <time>2020-05-30T19:42:30Z</time>
      </trkpt>
      <trkpt lat="46.42756" lon="-0.18346">
        <ele>101</ele>
        <time>2020-05-30T19:42:31Z</time>
      </trkpt>
      <trkpt lat="46.42756" lon="-0.18345">
        <ele>101</ele>
        <time>2020-05-30T19:42:32Z</time>
      </trkpt>
      <trkpt lat="46.42756" lon="-0.18345">
        <ele>101</ele>
        <time>2020-05-30T19:42:33Z</time>
      </trkpt>
      <trkpt lat="46.42756" lon="-0.18345">
        <ele>101</ele>
        <time>2020-05-30T19:42:34Z</time>
      </trkpt>
      <trkpt lat="46.42756" lon="-0.18344">
        <ele>101</ele>
        <time>2020-05-30T19:42:35Z</time>
      </trkpt>
      <trkpt lat="46.42756" lon="-0.18343">
        <ele>101</ele>
        <time>2020-05-30T19:42:36Z</time>
      </trkpt>
      <trkpt lat="46.42756" lon="-0.18342">
        <ele>101</ele>
        <time>2020-05-30T19:42:37Z</time>
      </trkpt>
      <trkpt lat="46.42756" lon="-0.18342">
        <ele>101</ele>
        <time>2020-05-30T19:42:38Z</time>
      </trkpt>
      <trkpt lat="46.42756" lon="-0.18342">
        <ele>101</ele>
        <time>2020-05-30T19:42:39Z</time>
      </trkpt>
      <trkpt lat="46.42756" lon="-0.18341">
        <ele>101</ele>
        <time>2020-05-30T19:42:40Z</time>
      </trkpt>
      <trkpt lat="46.42757" lon="-0.18341">
        <ele>101</ele>
        <time>2020-05-30T19:42:41Z</time>
      </trkpt>
      <trkpt lat="46.42757" lon="-0.18341">
        <ele>101</ele>
        <time>2020-05-30T19:42:42Z</time>
      </trkpt>
      <trkpt lat="46.42757" lon="-0.18341">
        <ele>101</ele>
        <time>2020-05-30T19:42:43Z</time>
      </trkpt>
      <trkpt lat="46.42757" lon="-0.18341">
        <ele>101</ele>
        <time>2020-05-30T19:42:44Z</time>
      </trkpt>
      <trkpt lat="46.42756" lon="-0.18341">
        <ele>101</ele>
        <time>2020-05-30T19:42:45Z</time>
      </trkpt>
      <trkpt lat="46.42756" lon="-0.1834">
        <ele>101</ele>
        <time>2020-05-30T19:42:46Z</time>
      </trkpt>
      <trkpt lat="46.42756" lon="-0.1834">
        <ele>101</ele>
        <time>2020-05-30T19:42:47Z</time>
      </trkpt>
      <trkpt lat="46.42756" lon="-0.18339">
        <ele>101</ele>
        <time>2020-05-30T19:42:48Z</time>
      </trkpt>
      <trkpt lat="46.42757" lon="-0.18338">
        <ele>101</ele>
        <time>2020-05-30T19:42:49Z</time>
      </trkpt>
      <trkpt lat="46.42757" lon="-0.18337">
        <ele>101</ele>
        <time>2020-05-30T19:42:50Z</time>
      </trkpt>
      <trkpt lat="46.42756" lon="-0.18336">
        <ele>101</ele>
        <time>2020-05-30T19:42:51Z</time>
      </trkpt>
      <trkpt lat="46.42756" lon="-0.18334">
        <ele>101</ele>
        <time>2020-05-30T19:42:52Z</time>
      </trkpt>
      <trkpt lat="46.42756" lon="-0.18334">
        <ele>101</ele>
        <time>2020-05-30T19:42:53Z</time>
      </trkpt>
      <trkpt lat="46.42756" lon="-0.18334">
        <ele>101</ele>
        <time>2020-05-30T19:42:54Z</time>
      </trkpt>
      <trkpt lat="46.42756" lon="-0.18334">
        <ele>101</ele>
        <time>2020-05-30T19:42:55Z</time>
      </trkpt>
      <trkpt lat="46.42757" lon="-0.18332">
        <ele>101</ele>
        <time>2020-05-30T19:42:56Z</time>
      </trkpt>
      <trkpt lat="46.42758" lon="-0.1833">
        <ele>101</ele>
        <time>2020-05-30T19:42:57Z</time>
      </trkpt>
      <trkpt lat="46.42759" lon="-0.1833">
        <ele>101</ele>
        <time>2020-05-30T19:42:58Z</time>
      </trkpt>
      <trkpt lat="46.42759" lon="-0.18329">
        <ele>101</ele>
        <time>2020-05-30T19:42:59Z</time>
      </trkpt>
      <trkpt lat="46.42759" lon="-0.18329">
        <ele>101</ele>
        <time>2020-05-30T19:43:00Z</time>
      </trkpt>
      <trkpt lat="46.4276" lon="-0.18328">
        <ele>102.2</ele>
        <time>2020-05-30T19:43:01Z</time>
      </trkpt>
      <trkpt lat="46.42761" lon="-0.18327">
        <ele>102.2</ele>
        <time>2020-05-30T19:43:02Z</time>
      </trkpt>
      <trkpt lat="46.42761" lon="-0.18325">
        <ele>102.2</ele>
        <time>2020-05-30T19:43:03Z</time>
      </trkpt>
      <trkpt lat="46.42762" lon="-0.18325">
        <ele>102.2</ele>
        <time>2020-05-30T19:43:04Z</time>
      </trkpt>
      <trkpt lat="46.42762" lon="-0.18324">
        <ele>102.2</ele>
        <time>2020-05-30T19:43:05Z</time>
      </trkpt>
      <trkpt lat="46.42763" lon="-0.18323">
        <ele>102.2</ele>
        <time>2020-05-30T19:43:06Z</time>
      </trkpt>
      <trkpt lat="46.42764" lon="-0.18323">
        <ele>102.2</ele>
        <time>2020-05-30T19:43:07Z</time>
      </trkpt>
      <trkpt lat="46.42764" lon="-0.18322">
        <ele>102.2</ele>
        <time>2020-05-30T19:43:08Z</time>
      </trkpt>
      <trkpt lat="46.42764" lon="-0.18322">
        <ele>102.2</ele>
        <time>2020-05-30T19:43:09Z</time>
      </trkpt>
      <trkpt lat="46.42764" lon="-0.18321">
        <ele>102.2</ele>
        <time>2020-05-30T19:43:10Z</time>
      </trkpt>
      <trkpt lat="46.42764" lon="-0.18321">
        <ele>102.2</ele>
        <time>2020-05-30T19:43:11Z</time>
      </trkpt>
      <trkpt lat="46.42765" lon="-0.18319">
        <ele>102.5</ele>
        <time>2020-05-30T19:43:12Z</time>
      </trkpt>
      <trkpt lat="46.42766" lon="-0.18317">
        <ele>102.5</ele>
        <time>2020-05-30T19:43:13Z</time>
      </trkpt>
      <trkpt lat="46.42766" lon="-0.18315">
        <ele>102.5</ele>
        <time>2020-05-30T19:43:14Z</time>
      </trkpt>
      <trkpt lat="46.42768" lon="-0.18313">
        <ele>102.5</ele>
        <time>2020-05-30T19:43:15Z</time>
      </trkpt>
      <trkpt lat="46.42768" lon="-0.18311">
        <ele>102.5</ele>
        <time>2020-05-30T19:43:16Z</time>
      </trkpt>
      <trkpt lat="46.42769" lon="-0.1831">
        <ele>102.5</ele>
        <time>2020-05-30T19:43:17Z</time>
      </trkpt>
      <trkpt lat="46.4277" lon="-0.18308">
        <ele>102.5</ele>
        <time>2020-05-30T19:43:18Z</time>
      </trkpt>
      <trkpt lat="46.4277" lon="-0.18306">
        <ele>102.5</ele>
        <time>2020-05-30T19:43:19Z</time>
      </trkpt>
      <trkpt lat="46.4277" lon="-0.18306">
        <ele>102.5</ele>
        <time>2020-05-30T19:43:20Z</time>
      </trkpt>
      <trkpt lat="46.4277" lon="-0.18305">
        <ele>102.5</ele>
        <time>2020-05-30T19:43:21Z</time>
      </trkpt>
      <trkpt lat="46.4277" lon="-0.18305">
        <ele>102.5</ele>
        <time>2020-05-30T19:43:22Z</time>
      </trkpt>
      <trkpt lat="46.42769" lon="-0.18304">
        <ele>102.5</ele>
        <time>2020-05-30T19:43:23Z</time>
      </trkpt>
      <trkpt lat="46.42769" lon="-0.18304">
        <ele>102.5</ele>
        <time>2020-05-30T19:43:24Z</time>
      </trkpt>
      <trkpt lat="46.4277" lon="-0.18303">
        <ele>102.5</ele>
        <time>2020-05-30T19:43:25Z</time>
      </trkpt>
      <trkpt lat="46.4277" lon="-0.18303">
        <ele>102.5</ele>
        <time>2020-05-30T19:43:26Z</time>
      </trkpt>
      <trkpt lat="46.4277" lon="-0.18303">
        <ele>102.5</ele>
        <time>2020-05-30T19:43:27Z</time>
      </trkpt>
      <trkpt lat="46.4277" lon="-0.18303">
        <ele>102.5</ele>
        <time>2020-05-30T19:43:28Z</time>
      </trkpt>
      <trkpt lat="46.4277" lon="-0.18303">
        <ele>102.5</ele>
        <time>2020-05-30T19:43:29Z</time>
      </trkpt>
      <trkpt lat="46.4277" lon="-0.18303">
        <ele>102.5</ele>
        <time>2020-05-30T19:43:30Z</time>
      </trkpt>
      <trkpt lat="46.4277" lon="-0.18303">
        <ele>102.5</ele>
        <time>2020-05-30T19:43:31Z</time>
      </trkpt>
      <trkpt lat="46.4277" lon="-0.18303">
        <ele>102.5</ele>
        <time>2020-05-30T19:43:32Z</time>
      </trkpt>
      <trkpt lat="46.4277" lon="-0.18302">
        <ele>102.5</ele>
        <time>2020-05-30T19:43:33Z</time>
      </trkpt>
      <trkpt lat="46.4277" lon="-0.18301">
        <ele>102.5</ele>
        <time>2020-05-30T19:43:34Z</time>
      </trkpt>
      <trkpt lat="46.4277" lon="-0.18301">
        <ele>102.5</ele>
        <time>2020-05-30T19:43:35Z</time>
      </trkpt>
      <trkpt lat="46.4277" lon="-0.18301">
        <ele>102.5</ele>
        <time>2020-05-30T19:43:36Z</time>
      </trkpt>
      <trkpt lat="46.4277" lon="-0.18301">
        <ele>102.5</ele>
        <time>2020-05-30T19:43:37Z</time>
      </trkpt>
      <trkpt lat="46.4277" lon="-0.18301">
        <ele>102.5</ele>
        <time>2020-05-30T19:43:38Z</time>
      </trkpt>
      <trkpt lat="46.4277" lon="-0.18301">
        <ele>102.5</ele>
        <time>2020-05-30T19:43:39Z</time>
      </trkpt>
      <trkpt lat="46.4277" lon="-0.183">
        <ele>102.5</ele>
        <time>2020-05-30T19:43:40Z</time>
      </trkpt>
      <trkpt lat="46.42769" lon="-0.183">
        <ele>102.5</ele>
        <time>2020-05-30T19:43:41Z</time>
      </trkpt>
      <trkpt lat="46.42769" lon="-0.183">
        <ele>102.5</ele>
        <time>2020-05-30T19:43:42Z</time>
      </trkpt>
      <trkpt lat="46.42769" lon="-0.18299">
        <ele>102.5</ele>
        <time>2020-05-30T19:43:43Z</time>
      </trkpt>
      <trkpt lat="46.42769" lon="-0.18299">
        <ele>102.5</ele>
        <time>2020-05-30T19:43:44Z</time>
      </trkpt>
      <trkpt lat="46.42769" lon="-0.18299">
        <ele>102.5</ele>
        <time>2020-05-30T19:43:45Z</time>
      </trkpt>
      <trkpt lat="46.42769" lon="-0.18299">
        <ele>102.5</ele>
        <time>2020-05-30T19:43:46Z</time>
      </trkpt>
      <trkpt lat="46.4277" lon="-0.18299">
        <ele>102.5</ele>
        <time>2020-05-30T19:43:47Z</time>
      </trkpt>
      <trkpt lat="46.42769" lon="-0.183">
        <ele>102.5</ele>
        <time>2020-05-30T19:43:48Z</time>
      </trkpt>
      <trkpt lat="46.42769" lon="-0.18301">
        <ele>102.5</ele>
        <time>2020-05-30T19:43:49Z</time>
      </trkpt>
      <trkpt lat="46.42769" lon="-0.183">
        <ele>102.5</ele>
        <time>2020-05-30T19:43:50Z</time>
      </trkpt>
      <trkpt lat="46.42769" lon="-0.183">
        <ele>102.5</ele>
        <time>2020-05-30T19:43:51Z</time>
      </trkpt>
      <trkpt lat="46.42769" lon="-0.183">
        <ele>102.5</ele>
        <time>2020-05-30T19:43:52Z</time>
      </trkpt>
      <trkpt lat="46.42768" lon="-0.18301">
        <ele>102.5</ele>
        <time>2020-05-30T19:43:53Z</time>
      </trkpt>
      <trkpt lat="46.42769" lon="-0.18301">
        <ele>102.5</ele>
        <time>2020-05-30T19:43:54Z</time>
      </trkpt>
      <trkpt lat="46.42769" lon="-0.18301">
        <ele>102.5</ele>
        <time>2020-05-30T19:43:55Z</time>
      </trkpt>
      <trkpt lat="46.42769" lon="-0.18303">
        <ele>102.5</ele>
        <time>2020-05-30T19:43:56Z</time>
      </trkpt>
      <trkpt lat="46.42769" lon="-0.18305">
        <ele>102.5</ele>
        <time>2020-05-30T19:43:57Z</time>
      </trkpt>
      <trkpt lat="46.42769" lon="-0.18306">
        <ele>102.5</ele>
        <time>2020-05-30T19:43:58Z</time>
      </trkpt>
      <trkpt lat="46.42769" lon="-0.18307">
        <ele>102.5</ele>
        <time>2020-05-30T19:43:59Z</time>
      </trkpt>
      <trkpt lat="46.4277" lon="-0.18309">
        <ele>102.5</ele>
        <time>2020-05-30T19:44:00Z</time>
      </trkpt>
      <trkpt lat="46.4277" lon="-0.1831">
        <ele>102.5</ele>
        <time>2020-05-30T19:44:01Z</time>
      </trkpt>
      <trkpt lat="46.4277" lon="-0.1831">
        <ele>102.5</ele>
        <time>2020-05-30T19:44:02Z</time>
      </trkpt>
      <trkpt lat="46.4277" lon="-0.1831">
        <ele>102.5</ele>
        <time>2020-05-30T19:44:03Z</time>
      </trkpt>
      <trkpt lat="46.42771" lon="-0.1831">
        <ele>102.5</ele>
        <time>2020-05-30T19:44:04Z</time>
      </trkpt>
      <trkpt lat="46.42771" lon="-0.1831">
        <ele>102.5</ele>
        <time>2020-05-30T19:44:05Z</time>
      </trkpt>
      <trkpt lat="46.42772" lon="-0.1831">
        <ele>102.5</ele>
        <time>2020-05-30T19:44:06Z</time>
      </trkpt>
      <trkpt lat="46.42772" lon="-0.18311">
        <ele>102.5</ele>
        <time>2020-05-30T19:44:07Z</time>
      </trkpt>
      <trkpt lat="46.42772" lon="-0.18312">
        <ele>102.5</ele>
        <time>2020-05-30T19:44:08Z</time>
      </trkpt>
      <trkpt lat="46.42773" lon="-0.18313">
        <ele>102.5</ele>
        <time>2020-05-30T19:44:09Z</time>
      </trkpt>
      <trkpt lat="46.42773" lon="-0.18314">
        <ele>102.5</ele>
        <time>2020-05-30T19:44:10Z</time>
      </trkpt>
      <trkpt lat="46.42773" lon="-0.18315">
        <ele>102.5</ele>
        <time>2020-05-30T19:44:11Z</time>
      </trkpt>
      <trkpt lat="46.42773" lon="-0.18316">
        <ele>102.5</ele>
        <time>2020-05-30T19:44:12Z</time>
      </trkpt>
      <trkpt lat="46.42773" lon="-0.18316">
        <ele>102.5</ele>
        <time>2020-05-30T19:44:13Z</time>
      </trkpt>
      <trkpt lat="46.42773" lon="-0.18316">
        <ele>102.5</ele>
        <time>2020-05-30T19:44:14Z</time>
      </trkpt>
      <trkpt lat="46.42773" lon="-0.18316">
        <ele>102.5</ele>
        <time>2020-05-30T19:44:15Z</time>
      </trkpt>
      <trkpt lat="46.42773" lon="-0.18316">
        <ele>102.5</ele>
        <time>2020-05-30T19:44:16Z</time>
      </trkpt>
      <trkpt lat="46.42773" lon="-0.18315">
        <ele>102.5</ele>
        <time>2020-05-30T19:44:17Z</time>
      </trkpt>
      <trkpt lat="46.42773" lon="-0.18315">
        <ele>102.5</ele>
        <time>2020-05-30T19:44:18Z</time>
      </trkpt>
      <trkpt lat="46.42773" lon="-0.18315">
        <ele>102.5</ele>
        <time>2020-05-30T19:44:19Z</time>
      </trkpt>
      <trkpt lat="46.42772" lon="-0.18315">
        <ele>102.5</ele>
        <time>2020-05-30T19:44:20Z</time>
      </trkpt>
      <trkpt lat="46.42772" lon="-0.18315">
        <ele>102.5</ele>
        <time>2020-05-30T19:44:21Z</time>
      </trkpt>
      <trkpt lat="46.42772" lon="-0.18314">
        <ele>102.5</ele>
        <time>2020-05-30T19:44:22Z</time>
      </trkpt>
      <trkpt lat="46.42772" lon="-0.18315">
        <ele>102.5</ele>
        <time>2020-05-30T19:44:23Z</time>
      </trkpt>
      <trkpt lat="46.42772" lon="-0.18314">
        <ele>102.5</ele>
        <time>2020-05-30T19:44:24Z</time>
      </trkpt>
      <trkpt lat="46.42772" lon="-0.18313">
        <ele>102.5</ele>
        <time>2020-05-30T19:44:25Z</time>
      </trkpt>
      <trkpt lat="46.42772" lon="-0.18313">
        <ele>102.5</ele>
        <time>2020-05-30T19:44:26Z</time>
      </trkpt>
      <trkpt lat="46.42772" lon="-0.18313">
        <ele>102.5</ele>
        <time>2020-05-30T19:44:27Z</time>
      </trkpt>
      <trkpt lat="46.42772" lon="-0.18313">
        <ele>102.5</ele>
        <time>2020-05-30T19:44:28Z</time>
      </trkpt>
      <trkpt lat="46.42773" lon="-0.18314">
        <ele>102.5</ele>
        <time>2020-05-30T19:44:29Z</time>
      </trkpt>
      <trkpt lat="46.42773" lon="-0.18316">
        <ele>102.5</ele>
        <time>2020-05-30T19:44:30Z</time>
      </trkpt>
      <trkpt lat="46.42773" lon="-0.18317">
        <ele>102.5</ele>
        <time>2020-05-30T19:44:31Z</time>
      </trkpt>
      <trkpt lat="46.42774" lon="-0.18318">
        <ele>102.5</ele>
        <time>2020-05-30T19:44:32Z</time>
      </trkpt>
      <trkpt lat="46.42774" lon="-0.18319">
        <ele>102.5</ele>
        <time>2020-05-30T19:44:33Z</time>
      </trkpt>
      <trkpt lat="46.42775" lon="-0.1832">
        <ele>102.5</ele>
        <time>2020-05-30T19:44:34Z</time>
      </trkpt>
      <trkpt lat="46.42775" lon="-0.1832">
        <ele>102.5</ele>
        <time>2020-05-30T19:44:35Z</time>
      </trkpt>
      <trkpt lat="46.42775" lon="-0.1832">
        <ele>102.5</ele>
        <time>2020-05-30T19:44:36Z</time>
      </trkpt>
      <trkpt lat="46.42775" lon="-0.1832">
        <ele>102.5</ele>
        <time>2020-05-30T19:44:37Z</time>
      </trkpt>
      <trkpt lat="46.42775" lon="-0.1832">
        <ele>102.5</ele>
        <time>2020-05-30T19:44:38Z</time>
      </trkpt>
      <trkpt lat="46.42775" lon="-0.1832">
        <ele>102.5</ele>
        <time>2020-05-30T19:44:39Z</time>
      </trkpt>
      <trkpt lat="46.42775" lon="-0.1832">
        <ele>102.5</ele>
        <time>2020-05-30T19:44:40Z</time>
      </trkpt>
      <trkpt lat="46.42775" lon="-0.18319">
        <ele>102.5</ele>
        <time>2020-05-30T19:44:41Z</time>
      </trkpt>
      <trkpt lat="46.42775" lon="-0.18319">
        <ele>102.5</ele>
        <time>2020-05-30T19:44:42Z</time>
      </trkpt>
      <trkpt lat="46.42774" lon="-0.18318">
        <ele>102.5</ele>
        <time>2020-05-30T19:44:43Z</time>
      </trkpt>
      <trkpt lat="46.42774" lon="-0.18318">
        <ele>102.5</ele>
        <time>2020-05-30T19:44:44Z</time>
      </trkpt>
      <trkpt lat="46.42774" lon="-0.18317">
        <ele>102.5</ele>
        <time>2020-05-30T19:44:45Z</time>
      </trkpt>
      <trkpt lat="46.42774" lon="-0.18317">
        <ele>102.5</ele>
        <time>2020-05-30T19:44:46Z</time>
      </trkpt>
      <trkpt lat="46.42774" lon="-0.18317">
        <ele>102.5</ele>
        <time>2020-05-30T19:44:47Z</time>
      </trkpt>
      <trkpt lat="46.42774" lon="-0.18317">
        <ele>102.5</ele>
        <time>2020-05-30T19:44:48Z</time>
      </trkpt>
      <trkpt lat="46.42774" lon="-0.18317">
        <ele>102.5</ele>
        <time>2020-05-30T19:44:49Z</time>
      </trkpt>
      <trkpt lat="46.42774" lon="-0.18317">
        <ele>102.5</ele>
        <time>2020-05-30T19:44:50Z</time>
      </trkpt>
      <trkpt lat="46.42775" lon="-0.18318">
        <ele>102.5</ele>
        <time>2020-05-30T19:44:51Z</time>
      </trkpt>
      <trkpt lat="46.42775" lon="-0.18318">
        <ele>102.5</ele>
        <time>2020-05-30T19:44:52Z</time>
      </trkpt>
      <trkpt lat="46.42775" lon="-0.18318">
        <ele>102.5</ele>
        <time>2020-05-30T19:44:53Z</time>
      </trkpt>
      <trkpt lat="46.42775" lon="-0.18318">
        <ele>102.5</ele>
        <time>2020-05-30T19:44:54Z</time>
      </trkpt>
      <trkpt lat="46.42775" lon="-0.18318">
        <ele>102.5</ele>
        <time>2020-05-30T19:44:55Z</time>
      </trkpt>
      <trkpt lat="46.42775" lon="-0.1832">
        <ele>102.5</ele>
        <time>2020-05-30T19:44:56Z</time>
      </trkpt>
      <trkpt lat="46.42774" lon="-0.18319">
        <ele>102.5</ele>
        <time>2020-05-30T19:44:57Z</time>
      </trkpt>
      <trkpt lat="46.42774" lon="-0.18318">
        <ele>102.5</ele>
        <time>2020-05-30T19:44:58Z</time>
      </trkpt>
      <trkpt lat="46.42774" lon="-0.18318">
        <ele>102.5</ele>
        <time>2020-05-30T19:44:59Z</time>
      </trkpt>
      <trkpt lat="46.42774" lon="-0.18317">
        <ele>102.5</ele>
        <time>2020-05-30T19:45:00Z</time>
      </trkpt>
      <trkpt lat="46.42774" lon="-0.18316">
        <ele>102.5</ele>
        <time>2020-05-30T19:45:01Z</time>
      </trkpt>
      <trkpt lat="46.42774" lon="-0.18315">
        <ele>102.5</ele>
        <time>2020-05-30T19:45:02Z</time>
      </trkpt>
      <trkpt lat="46.42774" lon="-0.18316">
        <ele>102.5</ele>
        <time>2020-05-30T19:45:03Z</time>
      </trkpt>
      <trkpt lat="46.42774" lon="-0.18317">
        <ele>102.5</ele>
        <time>2020-05-30T19:45:04Z</time>
      </trkpt>
      <trkpt lat="46.42774" lon="-0.18316">
        <ele>102.5</ele>
        <time>2020-05-30T19:45:05Z</time>
      </trkpt>
      <trkpt lat="46.42774" lon="-0.18317">
        <ele>102.5</ele>
        <time>2020-05-30T19:45:06Z</time>
      </trkpt>
      <trkpt lat="46.42774" lon="-0.18317">
        <ele>102.5</ele>
        <time>2020-05-30T19:45:07Z</time>
      </trkpt>
      <trkpt lat="46.42774" lon="-0.18316">
        <ele>102.5</ele>
        <time>2020-05-30T19:45:08Z</time>
      </trkpt>
      <trkpt lat="46.42774" lon="-0.18316">
        <ele>102.5</ele>
        <time>2020-05-30T19:45:09Z</time>
      </trkpt>
      <trkpt lat="46.42774" lon="-0.18316">
        <ele>102.5</ele>
        <time>2020-05-30T19:45:10Z</time>
      </trkpt>
      <trkpt lat="46.42773" lon="-0.18314">
        <ele>102.5</ele>
        <time>2020-05-30T19:45:11Z</time>
      </trkpt>
      <trkpt lat="46.42773" lon="-0.18313">
        <ele>102.5</ele>
        <time>2020-05-30T19:45:12Z</time>
      </trkpt>
      <trkpt lat="46.42772" lon="-0.18312">
        <ele>102.5</ele>
        <time>2020-05-30T19:45:13Z</time>
      </trkpt>
      <trkpt lat="46.42772" lon="-0.18311">
        <ele>102.5</ele>
        <time>2020-05-30T19:45:14Z</time>
      </trkpt>
      <trkpt lat="46.42771" lon="-0.1831">
        <ele>102.5</ele>
        <time>2020-05-30T19:45:15Z</time>
      </trkpt>
      <trkpt lat="46.42772" lon="-0.1831">
        <ele>102.5</ele>
        <time>2020-05-30T19:45:16Z</time>
      </trkpt>
      <trkpt lat="46.42772" lon="-0.1831">
        <ele>102.5</ele>
        <time>2020-05-30T19:45:17Z</time>
      </trkpt>
      <trkpt lat="46.42772" lon="-0.1831">
        <ele>102.5</ele>
        <time>2020-05-30T19:45:18Z</time>
      </trkpt>
      <trkpt lat="46.42771" lon="-0.1831">
        <ele>102.5</ele>
        <time>2020-05-30T19:45:19Z</time>
      </trkpt>
      <trkpt lat="46.4277" lon="-0.18309">
        <ele>102.5</ele>
        <time>2020-05-30T19:45:20Z</time>
      </trkpt>
      <trkpt lat="46.4277" lon="-0.18309">
        <ele>102.5</ele>
        <time>2020-05-30T19:45:21Z</time>
      </trkpt>
      <trkpt lat="46.42768" lon="-0.18308">
        <ele>102.5</ele>
        <time>2020-05-30T19:45:22Z</time>
      </trkpt>
      <trkpt lat="46.42767" lon="-0.18308">
        <ele>102.5</ele>
        <time>2020-05-30T19:45:23Z</time>
      </trkpt>
      <trkpt lat="46.42766" lon="-0.18307">
        <ele>102.5</ele>
        <time>2020-05-30T19:45:24Z</time>
      </trkpt>
      <trkpt lat="46.42766" lon="-0.18307">
        <ele>102.5</ele>
        <time>2020-05-30T19:45:25Z</time>
      </trkpt>
      <trkpt lat="46.42766" lon="-0.18307">
        <ele>102.5</ele>
        <time>2020-05-30T19:45:26Z</time>
      </trkpt>
      <trkpt lat="46.42766" lon="-0.18306">
        <ele>102.5</ele>
        <time>2020-05-30T19:45:27Z</time>
      </trkpt>
      <trkpt lat="46.42765" lon="-0.18305">
        <ele>102.5</ele>
        <time>2020-05-30T19:45:28Z</time>
      </trkpt>
      <trkpt lat="46.42765" lon="-0.18305">
        <ele>102.5</ele>
        <time>2020-05-30T19:45:29Z</time>
      </trkpt>
      <trkpt lat="46.42765" lon="-0.18304">
        <ele>102.5</ele>
        <time>2020-05-30T19:45:30Z</time>
      </trkpt>
      <trkpt lat="46.42764" lon="-0.18303">
        <ele>102.5</ele>
        <time>2020-05-30T19:45:31Z</time>
      </trkpt>
      <trkpt lat="46.42764" lon="-0.18303">
        <ele>102.5</ele>
        <time>2020-05-30T19:45:32Z</time>
      </trkpt>
      <trkpt lat="46.42764" lon="-0.18302">
        <ele>102.5</ele>
        <time>2020-05-30T19:45:33Z</time>
      </trkpt>
      <trkpt lat="46.42763" lon="-0.18301">
        <ele>102.5</ele>
        <time>2020-05-30T19:45:34Z</time>
      </trkpt>
      <trkpt lat="46.42763" lon="-0.18301">
        <ele>102.5</ele>
        <time>2020-05-30T19:45:35Z</time>
      </trkpt>
      <trkpt lat="46.42764" lon="-0.18301">
        <ele>102.5</ele>
        <time>2020-05-30T19:45:36Z</time>
      </trkpt>
      <trkpt lat="46.42764" lon="-0.18301">
        <ele>102.5</ele>
        <time>2020-05-30T19:45:37Z</time>
      </trkpt>
      <trkpt lat="46.42765" lon="-0.18301">
        <ele>102.5</ele>
        <time>2020-05-30T19:45:38Z</time>
      </trkpt>
      <trkpt lat="46.42765" lon="-0.18301">
        <ele>102.5</ele>
        <time>2020-05-30T19:45:39Z</time>
      </trkpt>
      <trkpt lat="46.42766" lon="-0.18302">
        <ele>102.5</ele>
        <time>2020-05-30T19:45:40Z</time>
      </trkpt>
      <trkpt lat="46.42766" lon="-0.18302">
        <ele>102.5</ele>
        <time>2020-05-30T19:45:41Z</time>
      </trkpt>
      <trkpt lat="46.42766" lon="-0.18302">
        <ele>102.5</ele>
        <time>2020-05-30T19:45:42Z</time>
      </trkpt>
      <trkpt lat="46.42765" lon="-0.18301">
        <ele>102.5</ele>
        <time>2020-05-30T19:45:43Z</time>
      </trkpt>
      <trkpt lat="46.42765" lon="-0.18301">
        <ele>102.5</ele>
        <time>2020-05-30T19:45:44Z</time>
      </trkpt>
      <trkpt lat="46.42766" lon="-0.18302">
        <ele>102.5</ele>
        <time>2020-05-30T19:45:45Z</time>
      </trkpt>
      <trkpt lat="46.42766" lon="-0.18302">
        <ele>102.5</ele>
        <time>2020-05-30T19:45:46Z</time>
      </trkpt>
      <trkpt lat="46.42766" lon="-0.18302">
        <ele>102.5</ele>
        <time>2020-05-30T19:45:47Z</time>
      </trkpt>
      <trkpt lat="46.42767" lon="-0.18302">
        <ele>102.5</ele>
        <time>2020-05-30T19:45:48Z</time>
      </trkpt>
      <trkpt lat="46.42767" lon="-0.18302">
        <ele>102.5</ele>
        <time>2020-05-30T19:45:49Z</time>
      </trkpt>
      <trkpt lat="46.42767" lon="-0.18303">
        <ele>102.5</ele>
        <time>2020-05-30T19:45:50Z</time>
      </trkpt>
      <trkpt lat="46.42768" lon="-0.18304">
        <ele>102.5</ele>
        <time>2020-05-30T19:45:51Z</time>
      </trkpt>
      <trkpt lat="46.42767" lon="-0.18304">
        <ele>102.5</ele>
        <time>2020-05-30T19:45:52Z</time>
      </trkpt>
      <trkpt lat="46.42767" lon="-0.18304">
        <ele>102.5</ele>
        <time>2020-05-30T19:45:53Z</time>
      </trkpt>
      <trkpt lat="46.42767" lon="-0.18304">
        <ele>102.5</ele>
        <time>2020-05-30T19:45:54Z</time>
      </trkpt>
      <trkpt lat="46.42767" lon="-0.18304">
        <ele>102.5</ele>
        <time>2020-05-30T19:45:55Z</time>
      </trkpt>
      <trkpt lat="46.42767" lon="-0.18305">
        <ele>102.5</ele>
        <time>2020-05-30T19:45:56Z</time>
      </trkpt>
      <trkpt lat="46.42767" lon="-0.18305">
        <ele>102.5</ele>
        <time>2020-05-30T19:45:57Z</time>
      </trkpt>
      <trkpt lat="46.42767" lon="-0.18305">
        <ele>102.5</ele>
        <time>2020-05-30T19:45:58Z</time>
      </trkpt>
      <trkpt lat="46.42767" lon="-0.18305">
        <ele>102.5</ele>
        <time>2020-05-30T19:45:59Z</time>
      </trkpt>
      <trkpt lat="46.42767" lon="-0.18305">
        <ele>102.5</ele>
        <time>2020-05-30T19:46:00Z</time>
      </trkpt>
      <trkpt lat="46.42767" lon="-0.18305">
        <ele>102.5</ele>
        <time>2020-05-30T19:46:01Z</time>
      </trkpt>
      <trkpt lat="46.42767" lon="-0.18305">
        <ele>102.5</ele>
        <time>2020-05-30T19:46:02Z</time>
      </trkpt>
      <trkpt lat="46.42767" lon="-0.18305">
        <ele>102.5</ele>
        <time>2020-05-30T19:46:03Z</time>
      </trkpt>
      <trkpt lat="46.42767" lon="-0.18305">
        <ele>102.5</ele>
        <time>2020-05-30T19:46:04Z</time>
      </trkpt>
      <trkpt lat="46.42766" lon="-0.18304">
        <ele>102.5</ele>
        <time>2020-05-30T19:46:05Z</time>
      </trkpt>
      <trkpt lat="46.42766" lon="-0.18304">
        <ele>102.5</ele>
        <time>2020-05-30T19:46:06Z</time>
      </trkpt>
      <trkpt lat="46.42766" lon="-0.18303">
        <ele>102.5</ele>
        <time>2020-05-30T19:46:07Z</time>
      </trkpt>
      <trkpt lat="46.42766" lon="-0.18302">
        <ele>102.5</ele>
        <time>2020-05-30T19:46:08Z</time>
      </trkpt>
      <trkpt lat="46.42765" lon="-0.18301">
        <ele>102.5</ele>
        <time>2020-05-30T19:46:09Z</time>
      </trkpt>
      <trkpt lat="46.42765" lon="-0.183">
        <ele>102.5</ele>
        <time>2020-05-30T19:46:10Z</time>
      </trkpt>
      <trkpt lat="46.42766" lon="-0.183">
        <ele>102.5</ele>
        <time>2020-05-30T19:46:11Z</time>
      </trkpt>
      <trkpt lat="46.42766" lon="-0.183">
        <ele>102.5</ele>
        <time>2020-05-30T19:46:12Z</time>
      </trkpt>
      <trkpt lat="46.42766" lon="-0.183">
        <ele>102.5</ele>
        <time>2020-05-30T19:46:13Z</time>
      </trkpt>
      <trkpt lat="46.42766" lon="-0.183">
        <ele>102.5</ele>
        <time>2020-05-30T19:46:14Z</time>
      </trkpt>
      <trkpt lat="46.42766" lon="-0.183">
        <ele>102.5</ele>
        <time>2020-05-30T19:46:15Z</time>
      </trkpt>
      <trkpt lat="46.42766" lon="-0.18299">
        <ele>102.5</ele>
        <time>2020-05-30T19:46:16Z</time>
      </trkpt>
      <trkpt lat="46.42765" lon="-0.18299">
        <ele>102.5</ele>
        <time>2020-05-30T19:46:17Z</time>
      </trkpt>
      <trkpt lat="46.42765" lon="-0.18298">
        <ele>102.5</ele>
        <time>2020-05-30T19:46:18Z</time>
      </trkpt>
      <trkpt lat="46.42765" lon="-0.18298">
        <ele>102.5</ele>
        <time>2020-05-30T19:46:19Z</time>
      </trkpt>
      <trkpt lat="46.42765" lon="-0.18297">
        <ele>102.5</ele>
        <time>2020-05-30T19:46:20Z</time>
      </trkpt>
      <trkpt lat="46.42764" lon="-0.18297">
        <ele>102.5</ele>
        <time>2020-05-30T19:46:21Z</time>
      </trkpt>
      <trkpt lat="46.42764" lon="-0.18297">
        <ele>102.5</ele>
        <time>2020-05-30T19:46:22Z</time>
      </trkpt>
      <trkpt lat="46.42764" lon="-0.18297">
        <ele>102.5</ele>
        <time>2020-05-30T19:46:23Z</time>
      </trkpt>
      <trkpt lat="46.42764" lon="-0.18296">
        <ele>102.5</ele>
        <time>2020-05-30T19:46:24Z</time>
      </trkpt>
      <trkpt lat="46.42763" lon="-0.18296">
        <ele>102.5</ele>
        <time>2020-05-30T19:46:25Z</time>
      </trkpt>
      <trkpt lat="46.42764" lon="-0.18296">
        <ele>102.5</ele>
        <time>2020-05-30T19:46:26Z</time>
      </trkpt>
      <trkpt lat="46.42763" lon="-0.18296">
        <ele>102.5</ele>
        <time>2020-05-30T19:46:27Z</time>
      </trkpt>
      <trkpt lat="46.42763" lon="-0.18295">
        <ele>102.5</ele>
        <time>2020-05-30T19:46:28Z</time>
      </trkpt>
      <trkpt lat="46.42763" lon="-0.18295">
        <ele>102.5</ele>
        <time>2020-05-30T19:46:29Z</time>
      </trkpt>
      <trkpt lat="46.42763" lon="-0.18295">
        <ele>102.5</ele>
        <time>2020-05-30T19:46:30Z</time>
      </trkpt>
      <trkpt lat="46.42763" lon="-0.18294">
        <ele>102.5</ele>
        <time>2020-05-30T19:46:31Z</time>
      </trkpt>
      <trkpt lat="46.42762" lon="-0.18293">
        <ele>102.5</ele>
        <time>2020-05-30T19:46:32Z</time>
      </trkpt>
      <trkpt lat="46.42762" lon="-0.18293">
        <ele>102.5</ele>
        <time>2020-05-30T19:46:33Z</time>
      </trkpt>
      <trkpt lat="46.42762" lon="-0.18294">
        <ele>102.5</ele>
        <time>2020-05-30T19:46:34Z</time>
      </trkpt>
      <trkpt lat="46.42762" lon="-0.18294">
        <ele>102.5</ele>
        <time>2020-05-30T19:46:35Z</time>
      </trkpt>
      <trkpt lat="46.42761" lon="-0.18294">
        <ele>102.6</ele>
        <time>2020-05-30T19:46:36Z</time>
      </trkpt>
      <trkpt lat="46.42762" lon="-0.18295">
        <ele>102.6</ele>
        <time>2020-05-30T19:46:37Z</time>
      </trkpt>
      <trkpt lat="46.42762" lon="-0.18295">
        <ele>102.6</ele>
        <time>2020-05-30T19:46:38Z</time>
      </trkpt>
      <trkpt lat="46.42763" lon="-0.18297">
        <ele>102.6</ele>
        <time>2020-05-30T19:46:39Z</time>
      </trkpt>
      <trkpt lat="46.42764" lon="-0.18299">
        <ele>102.6</ele>
        <time>2020-05-30T19:46:40Z</time>
      </trkpt>
      <trkpt lat="46.42765" lon="-0.18299">
        <ele>102.6</ele>
        <time>2020-05-30T19:46:41Z</time>
      </trkpt>
      <trkpt lat="46.42765" lon="-0.18299">
        <ele>102.6</ele>
        <time>2020-05-30T19:46:42Z</time>
      </trkpt>
      <trkpt lat="46.42766" lon="-0.183">
        <ele>102.6</ele>
        <time>2020-05-30T19:46:43Z</time>
      </trkpt>
      <trkpt lat="46.42766" lon="-0.18299">
        <ele>102.6</ele>
        <time>2020-05-30T19:46:44Z</time>
      </trkpt>
      <trkpt lat="46.42767" lon="-0.18299">
        <ele>102.6</ele>
        <time>2020-05-30T19:46:45Z</time>
      </trkpt>
      <trkpt lat="46.42767" lon="-0.18298">
        <ele>102.6</ele>
        <time>2020-05-30T19:46:46Z</time>
      </trkpt>
      <trkpt lat="46.42767" lon="-0.18297">
        <ele>102.6</ele>
        <time>2020-05-30T19:46:47Z</time>
      </trkpt>
      <trkpt lat="46.42767" lon="-0.18297">
        <ele>102.6</ele>
        <time>2020-05-30T19:46:48Z</time>
      </trkpt>
      <trkpt lat="46.42768" lon="-0.18298">
        <ele>102.6</ele>
        <time>2020-05-30T19:46:49Z</time>
      </trkpt>
      <trkpt lat="46.42769" lon="-0.18298">
        <ele>102.6</ele>
        <time>2020-05-30T19:46:50Z</time>
      </trkpt>
      <trkpt lat="46.42769" lon="-0.18298">
        <ele>102.6</ele>
        <time>2020-05-30T19:46:51Z</time>
      </trkpt>
      <trkpt lat="46.42769" lon="-0.18298">
        <ele>102.6</ele>
        <time>2020-05-30T19:46:52Z</time>
      </trkpt>
      <trkpt lat="46.42769" lon="-0.18297">
        <ele>102.6</ele>
        <time>2020-05-30T19:46:53Z</time>
      </trkpt>
      <trkpt lat="46.4277" lon="-0.18297">
        <ele>102.6</ele>
        <time>2020-05-30T19:46:54Z</time>
      </trkpt>
      <trkpt lat="46.42771" lon="-0.18297">
        <ele>102.6</ele>
        <time>2020-05-30T19:46:55Z</time>
      </trkpt>
      <trkpt lat="46.42772" lon="-0.18297">
        <ele>102.6</ele>
        <time>2020-05-30T19:46:56Z</time>
      </trkpt>
      <trkpt lat="46.42772" lon="-0.18298">
        <ele>102.6</ele>
        <time>2020-05-30T19:46:57Z</time>
      </trkpt>
      <trkpt lat="46.42772" lon="-0.18298">
        <ele>102.6</ele>
        <time>2020-05-30T19:46:58Z</time>
      </trkpt>
      <trkpt lat="46.42773" lon="-0.18298">
        <ele>102.6</ele>
        <time>2020-05-30T19:46:59Z</time>
      </trkpt>
      <trkpt lat="46.42773" lon="-0.18299">
        <ele>102.6</ele>
        <time>2020-05-30T19:47:00Z</time>
      </trkpt>
      <trkpt lat="46.42774" lon="-0.18299">
        <ele>102.6</ele>
        <time>2020-05-30T19:47:01Z</time>
      </trkpt>
      <trkpt lat="46.42774" lon="-0.18299">
        <ele>102.6</ele>
        <time>2020-05-30T19:47:02Z</time>
      </trkpt>
      <trkpt lat="46.42774" lon="-0.18299">
        <ele>102.6</ele>
        <time>2020-05-30T19:47:03Z</time>
      </trkpt>
      <trkpt lat="46.42773" lon="-0.183">
        <ele>102.6</ele>
        <time>2020-05-30T19:47:04Z</time>
      </trkpt>
      <trkpt lat="46.42773" lon="-0.183">
        <ele>102.6</ele>
        <time>2020-05-30T19:47:05Z</time>
      </trkpt>
      <trkpt lat="46.42773" lon="-0.183">
        <ele>102.6</ele>
        <time>2020-05-30T19:47:06Z</time>
      </trkpt>
      <trkpt lat="46.42773" lon="-0.183">
        <ele>102.6</ele>
        <time>2020-05-30T19:47:07Z</time>
      </trkpt>
      <trkpt lat="46.42773" lon="-0.18301">
        <ele>102.6</ele>
        <time>2020-05-30T19:47:08Z</time>
      </trkpt>
      <trkpt lat="46.42773" lon="-0.18301">
        <ele>102.6</ele>
        <time>2020-05-30T19:47:09Z</time>
      </trkpt>
      <trkpt lat="46.42774" lon="-0.18301">
        <ele>102.6</ele>
        <time>2020-05-30T19:47:10Z</time>
      </trkpt>
      <trkpt lat="46.42775" lon="-0.18302">
        <ele>102.6</ele>
        <time>2020-05-30T19:47:11Z</time>
      </trkpt>
      <trkpt lat="46.42775" lon="-0.18303">
        <ele>102.6</ele>
        <time>2020-05-30T19:47:12Z</time>
      </trkpt>
      <trkpt lat="46.42776" lon="-0.18304">
        <ele>102.6</ele>
        <time>2020-05-30T19:47:13Z</time>
      </trkpt>
      <trkpt lat="46.42777" lon="-0.18305">
        <ele>102.6</ele>
        <time>2020-05-30T19:47:14Z</time>
      </trkpt>
      <trkpt lat="46.42778" lon="-0.18305">
        <ele>102.6</ele>
        <time>2020-05-30T19:47:15Z</time>
      </trkpt>
      <trkpt lat="46.42778" lon="-0.18306">
        <ele>102.6</ele>
        <time>2020-05-30T19:47:16Z</time>
      </trkpt>
      <trkpt lat="46.42778" lon="-0.18307">
        <ele>102.6</ele>
        <time>2020-05-30T19:47:17Z</time>
      </trkpt>
      <trkpt lat="46.42778" lon="-0.18307">
        <ele>102.6</ele>
        <time>2020-05-30T19:47:18Z</time>
      </trkpt>
      <trkpt lat="46.42779" lon="-0.18308">
        <ele>102.6</ele>
        <time>2020-05-30T19:47:19Z</time>
      </trkpt>
      <trkpt lat="46.42778" lon="-0.18308">
        <ele>102.6</ele>
        <time>2020-05-30T19:47:20Z</time>
      </trkpt>
      <trkpt lat="46.42778" lon="-0.18309">
        <ele>102.6</ele>
        <time>2020-05-30T19:47:21Z</time>
      </trkpt>
      <trkpt lat="46.42778" lon="-0.18309">
        <ele>102.6</ele>
        <time>2020-05-30T19:47:22Z</time>
      </trkpt>
      <trkpt lat="46.42778" lon="-0.1831">
        <ele>102.6</ele>
        <time>2020-05-30T19:47:23Z</time>
      </trkpt>
      <trkpt lat="46.42777" lon="-0.18311">
        <ele>102.6</ele>
        <time>2020-05-30T19:47:24Z</time>
      </trkpt>
      <trkpt lat="46.42777" lon="-0.18312">
        <ele>102.6</ele>
        <time>2020-05-30T19:47:25Z</time>
      </trkpt>
      <trkpt lat="46.42777" lon="-0.18313">
        <ele>102.6</ele>
        <time>2020-05-30T19:47:26Z</time>
      </trkpt>
      <trkpt lat="46.42777" lon="-0.18314">
        <ele>102.6</ele>
        <time>2020-05-30T19:47:27Z</time>
      </trkpt>
      <trkpt lat="46.42777" lon="-0.18315">
        <ele>102.6</ele>
        <time>2020-05-30T19:47:28Z</time>
      </trkpt>
      <trkpt lat="46.42777" lon="-0.18314">
        <ele>102.6</ele>
        <time>2020-05-30T19:47:29Z</time>
      </trkpt>
      <trkpt lat="46.42776" lon="-0.18314">
        <ele>102.6</ele>
        <time>2020-05-30T19:47:30Z</time>
      </trkpt>
      <trkpt lat="46.42775" lon="-0.18313">
        <ele>102.6</ele>
        <time>2020-05-30T19:47:31Z</time>
      </trkpt>
      <trkpt lat="46.42775" lon="-0.18313">
        <ele>102.6</ele>
        <time>2020-05-30T19:47:32Z</time>
      </trkpt>
      <trkpt lat="46.42775" lon="-0.18313">
        <ele>102.6</ele>
        <time>2020-05-30T19:47:33Z</time>
      </trkpt>
      <trkpt lat="46.42775" lon="-0.18312">
        <ele>102.6</ele>
        <time>2020-05-30T19:47:34Z</time>
      </trkpt>
      <trkpt lat="46.42776" lon="-0.18311">
        <ele>102.6</ele>
        <time>2020-05-30T19:47:35Z</time>
      </trkpt>
      <trkpt lat="46.42776" lon="-0.1831">
        <ele>102.6</ele>
        <time>2020-05-30T19:47:36Z</time>
      </trkpt>
      <trkpt lat="46.42777" lon="-0.18309">
        <ele>102.6</ele>
        <time>2020-05-30T19:47:37Z</time>
      </trkpt>
      <trkpt lat="46.42777" lon="-0.18309">
        <ele>102.6</ele>
        <time>2020-05-30T19:47:38Z</time>
      </trkpt>
      <trkpt lat="46.42777" lon="-0.18309">
        <ele>102.6</ele>
        <time>2020-05-30T19:47:39Z</time>
      </trkpt>
      <trkpt lat="46.42778" lon="-0.18308">
        <ele>102.6</ele>
        <time>2020-05-30T19:47:40Z</time>
      </trkpt>
      <trkpt lat="46.42778" lon="-0.18308">
        <ele>102.6</ele>
        <time>2020-05-30T19:47:41Z</time>
      </trkpt>
      <trkpt lat="46.42779" lon="-0.18308">
        <ele>102.6</ele>
        <time>2020-05-30T19:47:42Z</time>
      </trkpt>
      <trkpt lat="46.4278" lon="-0.18309">
        <ele>102.6</ele>
        <time>2020-05-30T19:47:43Z</time>
      </trkpt>
      <trkpt lat="46.4278" lon="-0.18309">
        <ele>102.6</ele>
        <time>2020-05-30T19:47:44Z</time>
      </trkpt>
      <trkpt lat="46.4278" lon="-0.18309">
        <ele>102.6</ele>
        <time>2020-05-30T19:47:45Z</time>
      </trkpt>
      <trkpt lat="46.42781" lon="-0.18309">
        <ele>102.6</ele>
        <time>2020-05-30T19:47:46Z</time>
      </trkpt>
      <trkpt lat="46.4278" lon="-0.18309">
        <ele>102.6</ele>
        <time>2020-05-30T19:47:47Z</time>
      </trkpt>
      <trkpt lat="46.4278" lon="-0.18309">
        <ele>102.6</ele>
        <time>2020-05-30T19:47:48Z</time>
      </trkpt>
      <trkpt lat="46.4278" lon="-0.18309">
        <ele>102.6</ele>
        <time>2020-05-30T19:47:49Z</time>
      </trkpt>
      <trkpt lat="46.4278" lon="-0.18309">
        <ele>102.6</ele>
        <time>2020-05-30T19:47:50Z</time>
      </trkpt>
      <trkpt lat="46.42779" lon="-0.18308">
        <ele>102.6</ele>
        <time>2020-05-30T19:47:51Z</time>
      </trkpt>
      <trkpt lat="46.42779" lon="-0.18307">
        <ele>102.6</ele>
        <time>2020-05-30T19:47:52Z</time>
      </trkpt>
      <trkpt lat="46.42778" lon="-0.18305">
        <ele>102.6</ele>
        <time>2020-05-30T19:47:53Z</time>
      </trkpt>
      <trkpt lat="46.42778" lon="-0.18305">
        <ele>102.6</ele>
        <time>2020-05-30T19:47:54Z</time>
      </trkpt>
      <trkpt lat="46.42778" lon="-0.18304">
        <ele>102.6</ele>
        <time>2020-05-30T19:47:55Z</time>
      </trkpt>
      <trkpt lat="46.42777" lon="-0.18304">
        <ele>102.6</ele>
        <time>2020-05-30T19:47:56Z</time>
      </trkpt>
      <trkpt lat="46.42777" lon="-0.18303">
        <ele>102.6</ele>
        <time>2020-05-30T19:47:57Z</time>
      </trkpt>
      <trkpt lat="46.42777" lon="-0.18303">
        <ele>102.6</ele>
        <time>2020-05-30T19:47:58Z</time>
      </trkpt>
      <trkpt lat="46.42777" lon="-0.18303">
        <ele>102.6</ele>
        <time>2020-05-30T19:47:59Z</time>
      </trkpt>
      <trkpt lat="46.42779" lon="-0.18303">
        <ele>102.6</ele>
        <time>2020-05-30T19:48:00Z</time>
      </trkpt>
      <trkpt lat="46.42779" lon="-0.18302">
        <ele>102.6</ele>
        <time>2020-05-30T19:48:01Z</time>
      </trkpt>
      <trkpt lat="46.4278" lon="-0.18302">
        <ele>102.6</ele>
        <time>2020-05-30T19:48:02Z</time>
      </trkpt>
      <trkpt lat="46.4278" lon="-0.18301">
        <ele>102.6</ele>
        <time>2020-05-30T19:48:03Z</time>
      </trkpt>
      <trkpt lat="46.4278" lon="-0.18299">
        <ele>102.6</ele>
        <time>2020-05-30T19:48:04Z</time>
      </trkpt>
      <trkpt lat="46.4278" lon="-0.18298">
        <ele>102.6</ele>
        <time>2020-05-30T19:48:05Z</time>
      </trkpt>
      <trkpt lat="46.42779" lon="-0.18297">
        <ele>102.6</ele>
        <time>2020-05-30T19:48:06Z</time>
      </trkpt>
      <trkpt lat="46.42778" lon="-0.18297">
        <ele>102.6</ele>
        <time>2020-05-30T19:48:07Z</time>
      </trkpt>
      <trkpt lat="46.42778" lon="-0.18298">
        <ele>102.6</ele>
        <time>2020-05-30T19:48:08Z</time>
      </trkpt>
      <trkpt lat="46.42777" lon="-0.18298">
        <ele>102.6</ele>
        <time>2020-05-30T19:48:09Z</time>
      </trkpt>
      <trkpt lat="46.42778" lon="-0.18298">
        <ele>102.6</ele>
        <time>2020-05-30T19:48:10Z</time>
      </trkpt>
      <trkpt lat="46.42777" lon="-0.18298">
        <ele>102.6</ele>
        <time>2020-05-30T19:48:11Z</time>
      </trkpt>
      <trkpt lat="46.42778" lon="-0.18298">
        <ele>102.6</ele>
        <time>2020-05-30T19:48:12Z</time>
      </trkpt>
      <trkpt lat="46.42778" lon="-0.18298">
        <ele>102.6</ele>
        <time>2020-05-30T19:48:13Z</time>
      </trkpt>
      <trkpt lat="46.42778" lon="-0.18298">
        <ele>102.6</ele>
        <time>2020-05-30T19:48:14Z</time>
      </trkpt>
      <trkpt lat="46.42778" lon="-0.18298">
        <ele>102.6</ele>
        <time>2020-05-30T19:48:15Z</time>
      </trkpt>
      <trkpt lat="46.42778" lon="-0.18298">
        <ele>102.6</ele>
        <time>2020-05-30T19:48:16Z</time>
      </trkpt>
      <trkpt lat="46.42778" lon="-0.18298">
        <ele>102.6</ele>
        <time>2020-05-30T19:48:17Z</time>
      </trkpt>
      <trkpt lat="46.42778" lon="-0.18298">
        <ele>102.6</ele>
        <time>2020-05-30T19:48:18Z</time>
      </trkpt>
      <trkpt lat="46.42778" lon="-0.18298">
        <ele>102.6</ele>
        <time>2020-05-30T19:48:19Z</time>
      </trkpt>
      <trkpt lat="46.42778" lon="-0.18298">
        <ele>102.6</ele>
        <time>2020-05-30T19:48:20Z</time>
      </trkpt>
      <trkpt lat="46.42778" lon="-0.18298">
        <ele>102.6</ele>
        <time>2020-05-30T19:48:21Z</time>
      </trkpt>
      <trkpt lat="46.42777" lon="-0.18298">
        <ele>102.6</ele>
        <time>2020-05-30T19:48:22Z</time>
      </trkpt>
      <trkpt lat="46.42777" lon="-0.18298">
        <ele>102.6</ele>
        <time>2020-05-30T19:48:23Z</time>
      </trkpt>
      <trkpt lat="46.42777" lon="-0.18298">
        <ele>102.6</ele>
        <time>2020-05-30T19:48:24Z</time>
      </trkpt>
      <trkpt lat="46.42776" lon="-0.18297">
        <ele>102.6</ele>
        <time>2020-05-30T19:48:25Z</time>
      </trkpt>
      <trkpt lat="46.42776" lon="-0.18296">
        <ele>102.6</ele>
        <time>2020-05-30T19:48:26Z</time>
      </trkpt>
      <trkpt lat="46.42776" lon="-0.18296">
        <ele>102.6</ele>
        <time>2020-05-30T19:48:27Z</time>
      </trkpt>
      <trkpt lat="46.42776" lon="-0.18296">
        <ele>102.6</ele>
        <time>2020-05-30T19:48:28Z</time>
      </trkpt>
      <trkpt lat="46.42775" lon="-0.18295">
        <ele>102.6</ele>
        <time>2020-05-30T19:48:29Z</time>
      </trkpt>
      <trkpt lat="46.42775" lon="-0.18294">
        <ele>102.6</ele>
        <time>2020-05-30T19:48:30Z</time>
      </trkpt>
      <trkpt lat="46.42775" lon="-0.18293">
        <ele>102.6</ele>
        <time>2020-05-30T19:48:31Z</time>
      </trkpt>
      <trkpt lat="46.42776" lon="-0.18292">
        <ele>102.6</ele>
        <time>2020-05-30T19:48:32Z</time>
      </trkpt>
      <trkpt lat="46.42776" lon="-0.18291">
        <ele>102.6</ele>
        <time>2020-05-30T19:48:33Z</time>
      </trkpt>
      <trkpt lat="46.42777" lon="-0.1829">
        <ele>102.6</ele>
        <time>2020-05-30T19:48:34Z</time>
      </trkpt>
      <trkpt lat="46.42777" lon="-0.18289">
        <ele>102.6</ele>
        <time>2020-05-30T19:48:35Z</time>
      </trkpt>
      <trkpt lat="46.42777" lon="-0.18289">
        <ele>102.6</ele>
        <time>2020-05-30T19:48:36Z</time>
      </trkpt>
      <trkpt lat="46.42777" lon="-0.18289">
        <ele>102.6</ele>
        <time>2020-05-30T19:48:37Z</time>
      </trkpt>
      <trkpt lat="46.42777" lon="-0.18289">
        <ele>102.6</ele>
        <time>2020-05-30T19:48:38Z</time>
      </trkpt>
      <trkpt lat="46.42777" lon="-0.18288">
        <ele>102.6</ele>
        <time>2020-05-30T19:48:39Z</time>
      </trkpt>
      <trkpt lat="46.42777" lon="-0.18288">
        <ele>102.6</ele>
        <time>2020-05-30T19:48:40Z</time>
      </trkpt>
      <trkpt lat="46.42777" lon="-0.18288">
        <ele>102.6</ele>
        <time>2020-05-30T19:48:41Z</time>
      </trkpt>
      <trkpt lat="46.42778" lon="-0.18287">
        <ele>102.6</ele>
        <time>2020-05-30T19:48:42Z</time>
      </trkpt>
      <trkpt lat="46.42777" lon="-0.18288">
        <ele>102.6</ele>
        <time>2020-05-30T19:48:43Z</time>
      </trkpt>
      <trkpt lat="46.42777" lon="-0.18288">
        <ele>102.6</ele>
        <time>2020-05-30T19:48:44Z</time>
      </trkpt>
      <trkpt lat="46.42778" lon="-0.18288">
        <ele>102.6</ele>
        <time>2020-05-30T19:48:45Z</time>
      </trkpt>
      <trkpt lat="46.42778" lon="-0.18288">
        <ele>102.6</ele>
        <time>2020-05-30T19:48:46Z</time>
      </trkpt>
      <trkpt lat="46.42778" lon="-0.18288">
        <ele>102.6</ele>
        <time>2020-05-30T19:48:47Z</time>
      </trkpt>
      <trkpt lat="46.42779" lon="-0.18288">
        <ele>102.6</ele>
        <time>2020-05-30T19:48:48Z</time>
      </trkpt>
      <trkpt lat="46.42779" lon="-0.18288">
        <ele>102.6</ele>
        <time>2020-05-30T19:48:49Z</time>
      </trkpt>
      <trkpt lat="46.42779" lon="-0.18288">
        <ele>102.6</ele>
        <time>2020-05-30T19:48:50Z</time>
      </trkpt>
      <trkpt lat="46.4278" lon="-0.18288">
        <ele>102.6</ele>
        <time>2020-05-30T19:48:51Z</time>
      </trkpt>
      <trkpt lat="46.42781" lon="-0.18288">
        <ele>102.6</ele>
        <time>2020-05-30T19:48:52Z</time>
      </trkpt>
      <trkpt lat="46.42782" lon="-0.18288">
        <ele>102.6</ele>
        <time>2020-05-30T19:48:53Z</time>
      </trkpt>
      <trkpt lat="46.42784" lon="-0.18288">
        <ele>102.6</ele>
        <time>2020-05-30T19:48:54Z</time>
      </trkpt>
      <trkpt lat="46.42785" lon="-0.18288">
        <ele>102.6</ele>
        <time>2020-05-30T19:48:55Z</time>
      </trkpt>
      <trkpt lat="46.42786" lon="-0.18287">
        <ele>102.6</ele>
        <time>2020-05-30T19:48:56Z</time>
      </trkpt>
      <trkpt lat="46.42788" lon="-0.18286">
        <ele>102.6</ele>
        <time>2020-05-30T19:48:57Z</time>
      </trkpt>
      <trkpt lat="46.42787" lon="-0.18286">
        <ele>102.6</ele>
        <time>2020-05-30T19:48:58Z</time>
      </trkpt>
      <trkpt lat="46.42787" lon="-0.18286">
        <ele>102.6</ele>
        <time>2020-05-30T19:48:59Z</time>
      </trkpt>
      <trkpt lat="46.42785" lon="-0.18286">
        <ele>102.6</ele>
        <time>2020-05-30T19:49:00Z</time>
      </trkpt>
      <trkpt lat="46.42784" lon="-0.18286">
        <ele>102.6</ele>
        <time>2020-05-30T19:49:01Z</time>
      </trkpt>
      <trkpt lat="46.42782" lon="-0.18286">
        <ele>102.6</ele>
        <time>2020-05-30T19:49:02Z</time>
      </trkpt>
      <trkpt lat="46.4278" lon="-0.18287">
        <ele>102.6</ele>
        <time>2020-05-30T19:49:03Z</time>
      </trkpt>
      <trkpt lat="46.42779" lon="-0.18287">
        <ele>102.6</ele>
        <time>2020-05-30T19:49:04Z</time>
      </trkpt>
      <trkpt lat="46.42778" lon="-0.18286">
        <ele>102.6</ele>
        <time>2020-05-30T19:49:05Z</time>
      </trkpt>
      <trkpt lat="46.42777" lon="-0.18286">
        <ele>102.6</ele>
        <time>2020-05-30T19:49:06Z</time>
      </trkpt>
      <trkpt lat="46.42776" lon="-0.18286">
        <ele>102.6</ele>
        <time>2020-05-30T19:49:07Z</time>
      </trkpt>
      <trkpt lat="46.42775" lon="-0.18287">
        <ele>102.6</ele>
        <time>2020-05-30T19:49:08Z</time>
      </trkpt>
      <trkpt lat="46.42775" lon="-0.18288">
        <ele>102.6</ele>
        <time>2020-05-30T19:49:09Z</time>
      </trkpt>
      <trkpt lat="46.42775" lon="-0.18287">
        <ele>102.6</ele>
        <time>2020-05-30T19:49:10Z</time>
      </trkpt>
      <trkpt lat="46.42775" lon="-0.18288">
        <ele>102.6</ele>
        <time>2020-05-30T19:49:11Z</time>
      </trkpt>
      <trkpt lat="46.42776" lon="-0.18288">
        <ele>102.6</ele>
        <time>2020-05-30T19:49:12Z</time>
      </trkpt>
      <trkpt lat="46.42776" lon="-0.18288">
        <ele>102.6</ele>
        <time>2020-05-30T19:49:13Z</time>
      </trkpt>
      <trkpt lat="46.42776" lon="-0.18289">
        <ele>102.6</ele>
        <time>2020-05-30T19:49:14Z</time>
      </trkpt>
      <trkpt lat="46.42777" lon="-0.18289">
        <ele>102.6</ele>
        <time>2020-05-30T19:49:15Z</time>
      </trkpt>
      <trkpt lat="46.42777" lon="-0.1829">
        <ele>102.6</ele>
        <time>2020-05-30T19:49:16Z</time>
      </trkpt>
      <trkpt lat="46.42777" lon="-0.1829">
        <ele>102.6</ele>
        <time>2020-05-30T19:49:17Z</time>
      </trkpt>
      <trkpt lat="46.42776" lon="-0.1829">
        <ele>102.6</ele>
        <time>2020-05-30T19:49:18Z</time>
      </trkpt>
      <trkpt lat="46.42777" lon="-0.1829">
        <ele>102.6</ele>
        <time>2020-05-30T19:49:19Z</time>
      </trkpt>
      <trkpt lat="46.42777" lon="-0.18291">
        <ele>102.6</ele>
        <time>2020-05-30T19:49:20Z</time>
      </trkpt>
      <trkpt lat="46.42777" lon="-0.18292">
        <ele>102.6</ele>
        <time>2020-05-30T19:49:21Z</time>
      </trkpt>
      <trkpt lat="46.42778" lon="-0.18292">
        <ele>102.6</ele>
        <time>2020-05-30T19:49:22Z</time>
      </trkpt>
      <trkpt lat="46.42778" lon="-0.18292">
        <ele>102.6</ele>
        <time>2020-05-30T19:49:23Z</time>
      </trkpt>
      <trkpt lat="46.42778" lon="-0.18292">
        <ele>102.6</ele>
        <time>2020-05-30T19:49:24Z</time>
      </trkpt>
      <trkpt lat="46.42778" lon="-0.18292">
        <ele>102.6</ele>
        <time>2020-05-30T19:49:25Z</time>
      </trkpt>
      <trkpt lat="46.42778" lon="-0.18292">
        <ele>102.6</ele>
        <time>2020-05-30T19:49:26Z</time>
      </trkpt>
      <trkpt lat="46.42779" lon="-0.18292">
        <ele>102.6</ele>
        <time>2020-05-30T19:49:27Z</time>
      </trkpt>
      <trkpt lat="46.42779" lon="-0.18291">
        <ele>102.6</ele>
        <time>2020-05-30T19:49:28Z</time>
      </trkpt>
      <trkpt lat="46.42779" lon="-0.18291">
        <ele>102.6</ele>
        <time>2020-05-30T19:49:29Z</time>
      </trkpt>
      <trkpt lat="46.42778" lon="-0.18291">
        <ele>102.6</ele>
        <time>2020-05-30T19:49:30Z</time>
      </trkpt>
      <trkpt lat="46.42778" lon="-0.18291">
        <ele>102.6</ele>
        <time>2020-05-30T19:49:31Z</time>
      </trkpt>
      <trkpt lat="46.42778" lon="-0.18292">
        <ele>102.6</ele>
        <time>2020-05-30T19:49:32Z</time>
      </trkpt>
      <trkpt lat="46.42777" lon="-0.18292">
        <ele>102.6</ele>
        <time>2020-05-30T19:49:33Z</time>
      </trkpt>
      <trkpt lat="46.42778" lon="-0.18293">
        <ele>102.6</ele>
        <time>2020-05-30T19:49:34Z</time>
      </trkpt>
      <trkpt lat="46.42778" lon="-0.18294">
        <ele>102.6</ele>
        <time>2020-05-30T19:49:35Z</time>
      </trkpt>
      <trkpt lat="46.42778" lon="-0.18295">
        <ele>102.6</ele>
        <time>2020-05-30T19:49:36Z</time>
      </trkpt>
      <trkpt lat="46.42777" lon="-0.18296">
        <ele>102.6</ele>
        <time>2020-05-30T19:49:37Z</time>
      </trkpt>
      <trkpt lat="46.42777" lon="-0.18297">
        <ele>102.6</ele>
        <time>2020-05-30T19:49:38Z</time>
      </trkpt>
      <trkpt lat="46.42777" lon="-0.18298">
        <ele>102.6</ele>
        <time>2020-05-30T19:49:39Z</time>
      </trkpt>
      <trkpt lat="46.42777" lon="-0.18299">
        <ele>102.6</ele>
        <time>2020-05-30T19:49:40Z</time>
      </trkpt>
      <trkpt lat="46.42777" lon="-0.18299">
        <ele>102.6</ele>
        <time>2020-05-30T19:49:41Z</time>
      </trkpt>
      <trkpt lat="46.42777" lon="-0.183">
        <ele>102.6</ele>
        <time>2020-05-30T19:49:42Z</time>
      </trkpt>
      <trkpt lat="46.42777" lon="-0.183">
        <ele>102.6</ele>
        <time>2020-05-30T19:49:43Z</time>
      </trkpt>
      <trkpt lat="46.42777" lon="-0.183">
        <ele>102.6</ele>
        <time>2020-05-30T19:49:44Z</time>
      </trkpt>
      <trkpt lat="46.42777" lon="-0.183">
        <ele>102.6</ele>
        <time>2020-05-30T19:49:45Z</time>
      </trkpt>
      <trkpt lat="46.42777" lon="-0.18299">
        <ele>102.6</ele>
        <time>2020-05-30T19:49:46Z</time>
      </trkpt>
      <trkpt lat="46.42777" lon="-0.18298">
        <ele>102.6</ele>
        <time>2020-05-30T19:49:47Z</time>
      </trkpt>
      <trkpt lat="46.42777" lon="-0.18299">
        <ele>102.6</ele>
        <time>2020-05-30T19:49:48Z</time>
      </trkpt>
      <trkpt lat="46.42777" lon="-0.18299">
        <ele>102.6</ele>
        <time>2020-05-30T19:49:49Z</time>
      </trkpt>
      <trkpt lat="46.42776" lon="-0.18299">
        <ele>102.6</ele>
        <time>2020-05-30T19:49:50Z</time>
      </trkpt>
      <trkpt lat="46.42776" lon="-0.18299">
        <ele>102.6</ele>
        <time>2020-05-30T19:49:51Z</time>
      </trkpt>
      <trkpt lat="46.42776" lon="-0.18299">
        <ele>102.6</ele>
        <time>2020-05-30T19:49:52Z</time>
      </trkpt>
      <trkpt lat="46.42776" lon="-0.18299">
        <ele>102.6</ele>
        <time>2020-05-30T19:49:53Z</time>
      </trkpt>
      <trkpt lat="46.42776" lon="-0.18299">
        <ele>102.6</ele>
        <time>2020-05-30T19:49:54Z</time>
      </trkpt>
      <trkpt lat="46.42776" lon="-0.183">
        <ele>102.6</ele>
        <time>2020-05-30T19:49:55Z</time>
      </trkpt>
      <trkpt lat="46.42776" lon="-0.183">
        <ele>102.6</ele>
        <time>2020-05-30T19:49:56Z</time>
      </trkpt>
      <trkpt lat="46.42776" lon="-0.183">
        <ele>102.6</ele>
        <time>2020-05-30T19:49:57Z</time>
      </trkpt>
      <trkpt lat="46.42776" lon="-0.183">
        <ele>102.6</ele>
        <time>2020-05-30T19:49:58Z</time>
      </trkpt>
      <trkpt lat="46.42776" lon="-0.183">
        <ele>102.6</ele>
        <time>2020-05-30T19:49:59Z</time>
      </trkpt>
      <trkpt lat="46.42776" lon="-0.183">
        <ele>102.6</ele>
        <time>2020-05-30T19:50:00Z</time>
      </trkpt>
      <trkpt lat="46.42776" lon="-0.18301">
        <ele>102.6</ele>
        <time>2020-05-30T19:50:01Z</time>
      </trkpt>
      <trkpt lat="46.42776" lon="-0.18301">
        <ele>102.6</ele>
        <time>2020-05-30T19:50:02Z</time>
      </trkpt>
      <trkpt lat="46.42776" lon="-0.18301">
        <ele>102.6</ele>
        <time>2020-05-30T19:50:03Z</time>
      </trkpt>
      <trkpt lat="46.42775" lon="-0.183">
        <ele>102.6</ele>
        <time>2020-05-30T19:50:04Z</time>
      </trkpt>
      <trkpt lat="46.42775" lon="-0.18301">
        <ele>102.6</ele>
        <time>2020-05-30T19:50:05Z</time>
      </trkpt>
      <trkpt lat="46.42775" lon="-0.18302">
        <ele>102.6</ele>
        <time>2020-05-30T19:50:06Z</time>
      </trkpt>
      <trkpt lat="46.42775" lon="-0.18302">
        <ele>102.6</ele>
        <time>2020-05-30T19:50:07Z</time>
      </trkpt>
      <trkpt lat="46.42775" lon="-0.18302">
        <ele>102.6</ele>
        <time>2020-05-30T19:50:08Z</time>
      </trkpt>
      <trkpt lat="46.42775" lon="-0.18303">
        <ele>102.6</ele>
        <time>2020-05-30T19:50:09Z</time>
      </trkpt>
      <trkpt lat="46.42775" lon="-0.18303">
        <ele>102.6</ele>
        <time>2020-05-30T19:50:10Z</time>
      </trkpt>
      <trkpt lat="46.42775" lon="-0.18303">
        <ele>102.6</ele>
        <time>2020-05-30T19:50:11Z</time>
      </trkpt>
      <trkpt lat="46.42775" lon="-0.18303">
        <ele>102.6</ele>
        <time>2020-05-30T19:50:12Z</time>
      </trkpt>
      <trkpt lat="46.42775" lon="-0.18304">
        <ele>102.6</ele>
        <time>2020-05-30T19:50:13Z</time>
      </trkpt>
      <trkpt lat="46.42775" lon="-0.18305">
        <ele>102.6</ele>
        <time>2020-05-30T19:50:14Z</time>
      </trkpt>
      <trkpt lat="46.42774" lon="-0.18305">
        <ele>102.6</ele>
        <time>2020-05-30T19:50:15Z</time>
      </trkpt>
      <trkpt lat="46.42775" lon="-0.18306">
        <ele>102.6</ele>
        <time>2020-05-30T19:50:16Z</time>
      </trkpt>
      <trkpt lat="46.42775" lon="-0.18306">
        <ele>102.6</ele>
        <time>2020-05-30T19:50:17Z</time>
      </trkpt>
      <trkpt lat="46.42776" lon="-0.18306">
        <ele>102.6</ele>
        <time>2020-05-30T19:50:18Z</time>
      </trkpt>
      <trkpt lat="46.42777" lon="-0.18305">
        <ele>102.6</ele>
        <time>2020-05-30T19:50:19Z</time>
      </trkpt>
      <trkpt lat="46.42777" lon="-0.18305">
        <ele>102.6</ele>
        <time>2020-05-30T19:50:20Z</time>
      </trkpt>
      <trkpt lat="46.42778" lon="-0.18305">
        <ele>102.6</ele>
        <time>2020-05-30T19:50:21Z</time>
      </trkpt>
      <trkpt lat="46.42777" lon="-0.18305">
        <ele>102.6</ele>
        <time>2020-05-30T19:50:22Z</time>
      </trkpt>
      <trkpt lat="46.42777" lon="-0.18305">
        <ele>102.6</ele>
        <time>2020-05-30T19:50:23Z</time>
      </trkpt>
      <trkpt lat="46.42776" lon="-0.18305">
        <ele>102.6</ele>
        <time>2020-05-30T19:50:24Z</time>
      </trkpt>
      <trkpt lat="46.42775" lon="-0.18305">
        <ele>102.6</ele>
        <time>2020-05-30T19:50:25Z</time>
      </trkpt>
      <trkpt lat="46.42776" lon="-0.18304">
        <ele>102.6</ele>
        <time>2020-05-30T19:50:26Z</time>
      </trkpt>
      <trkpt lat="46.42776" lon="-0.18304">
        <ele>102.6</ele>
        <time>2020-05-30T19:50:27Z</time>
      </trkpt>
      <trkpt lat="46.42776" lon="-0.18303">
        <ele>102.6</ele>
        <time>2020-05-30T19:50:28Z</time>
      </trkpt>
      <trkpt lat="46.42775" lon="-0.18301">
        <ele>102.6</ele>
        <time>2020-05-30T19:50:29Z</time>
      </trkpt>
      <trkpt lat="46.42775" lon="-0.18301">
        <ele>102.6</ele>
        <time>2020-05-30T19:50:30Z</time>
      </trkpt>
      <trkpt lat="46.42775" lon="-0.18302">
        <ele>102.6</ele>
        <time>2020-05-30T19:50:31Z</time>
      </trkpt>
      <trkpt lat="46.42774" lon="-0.18303">
        <ele>102.6</ele>
        <time>2020-05-30T19:50:32Z</time>
      </trkpt>
      <trkpt lat="46.42775" lon="-0.18304">
        <ele>102.6</ele>
        <time>2020-05-30T19:50:33Z</time>
      </trkpt>
      <trkpt lat="46.42775" lon="-0.18304">
        <ele>102.6</ele>
        <time>2020-05-30T19:50:34Z</time>
      </trkpt>
      <trkpt lat="46.42774" lon="-0.18304">
        <ele>102.6</ele>
        <time>2020-05-30T19:50:35Z</time>
      </trkpt>
      <trkpt lat="46.42774" lon="-0.18304">
        <ele>102.6</ele>
        <time>2020-05-30T19:50:36Z</time>
      </trkpt>
      <trkpt lat="46.42774" lon="-0.18304">
        <ele>102.6</ele>
        <time>2020-05-30T19:50:37Z</time>
      </trkpt>
      <trkpt lat="46.42774" lon="-0.18304">
        <ele>102.6</ele>
        <time>2020-05-30T19:50:38Z</time>
      </trkpt>
      <trkpt lat="46.42774" lon="-0.18305">
        <ele>102.6</ele>
        <time>2020-05-30T19:50:39Z</time>
      </trkpt>
      <trkpt lat="46.42774" lon="-0.18305">
        <ele>102.6</ele>
        <time>2020-05-30T19:50:40Z</time>
      </trkpt>
      <trkpt lat="46.42774" lon="-0.18305">
        <ele>102.6</ele>
        <time>2020-05-30T19:50:41Z</time>
      </trkpt>
      <trkpt lat="46.42774" lon="-0.18305">
        <ele>102.6</ele>
        <time>2020-05-30T19:50:42Z</time>
      </trkpt>
      <trkpt lat="46.42774" lon="-0.18305">
        <ele>102.6</ele>
        <time>2020-05-30T19:50:43Z</time>
      </trkpt>
      <trkpt lat="46.42774" lon="-0.18305">
        <ele>102.6</ele>
        <time>2020-05-30T19:50:44Z</time>
      </trkpt>
      <trkpt lat="46.42774" lon="-0.18304">
        <ele>102.6</ele>
        <time>2020-05-30T19:50:45Z</time>
      </trkpt>
      <trkpt lat="46.42774" lon="-0.18304">
        <ele>102.6</ele>
        <time>2020-05-30T19:50:46Z</time>
      </trkpt>
      <trkpt lat="46.42774" lon="-0.18303">
        <ele>102.6</ele>
        <time>2020-05-30T19:50:47Z</time>
      </trkpt>
      <trkpt lat="46.42773" lon="-0.18302">
        <ele>102.6</ele>
        <time>2020-05-30T19:50:48Z</time>
      </trkpt>
      <trkpt lat="46.42773" lon="-0.18303">
        <ele>102.6</ele>
        <time>2020-05-30T19:50:49Z</time>
      </trkpt>
      <trkpt lat="46.42773" lon="-0.18302">
        <ele>102.6</ele>
        <time>2020-05-30T19:50:50Z</time>
      </trkpt>
      <trkpt lat="46.42773" lon="-0.18302">
        <ele>102.6</ele>
        <time>2020-05-30T19:50:51Z</time>
      </trkpt>
      <trkpt lat="46.42773" lon="-0.18302">
        <ele>102.6</ele>
        <time>2020-05-30T19:50:52Z</time>
      </trkpt>
      <trkpt lat="46.42773" lon="-0.18303">
        <ele>102.6</ele>
        <time>2020-05-30T19:50:53Z</time>
      </trkpt>
      <trkpt lat="46.42773" lon="-0.18303">
        <ele>102.6</ele>
        <time>2020-05-30T19:50:54Z</time>
      </trkpt>
      <trkpt lat="46.42773" lon="-0.18303">
        <ele>102.6</ele>
        <time>2020-05-30T19:50:55Z</time>
      </trkpt>
      <trkpt lat="46.42773" lon="-0.18303">
        <ele>102.6</ele>
        <time>2020-05-30T19:50:56Z</time>
      </trkpt>
      <trkpt lat="46.42773" lon="-0.18303">
        <ele>102.6</ele>
        <time>2020-05-30T19:50:57Z</time>
      </trkpt>
      <trkpt lat="46.42772" lon="-0.18303">
        <ele>102.6</ele>
        <time>2020-05-30T19:50:58Z</time>
      </trkpt>
      <trkpt lat="46.42772" lon="-0.18303">
        <ele>102.6</ele>
        <time>2020-05-30T19:50:59Z</time>
      </trkpt>
      <trkpt lat="46.42772" lon="-0.18303">
        <ele>102.6</ele>
        <time>2020-05-30T19:51:00Z</time>
      </trkpt>
      <trkpt lat="46.42772" lon="-0.18303">
        <ele>102.6</ele>
        <time>2020-05-30T19:51:01Z</time>
      </trkpt>
      <trkpt lat="46.42772" lon="-0.18303">
        <ele>102.6</ele>
        <time>2020-05-30T19:51:02Z</time>
      </trkpt>
      <trkpt lat="46.42772" lon="-0.18303">
        <ele>102.6</ele>
        <time>2020-05-30T19:51:03Z</time>
      </trkpt>
      <trkpt lat="46.42772" lon="-0.18304">
        <ele>102.6</ele>
        <time>2020-05-30T19:51:04Z</time>
      </trkpt>
      <trkpt lat="46.42772" lon="-0.18304">
        <ele>102.6</ele>
        <time>2020-05-30T19:51:05Z</time>
      </trkpt>
      <trkpt lat="46.42772" lon="-0.18305">
        <ele>102.6</ele>
        <time>2020-05-30T19:51:06Z</time>
      </trkpt>
      <trkpt lat="46.42772" lon="-0.18306">
        <ele>102.6</ele>
        <time>2020-05-30T19:51:07Z</time>
      </trkpt>
      <trkpt lat="46.42772" lon="-0.18306">
        <ele>102.6</ele>
        <time>2020-05-30T19:51:08Z</time>
      </trkpt>
      <trkpt lat="46.42772" lon="-0.18306">
        <ele>102.6</ele>
        <time>2020-05-30T19:51:09Z</time>
      </trkpt>
      <trkpt lat="46.42772" lon="-0.18306">
        <ele>102.6</ele>
        <time>2020-05-30T19:51:10Z</time>
      </trkpt>
      <trkpt lat="46.42772" lon="-0.18306">
        <ele>102.6</ele>
        <time>2020-05-30T19:51:11Z</time>
      </trkpt>
      <trkpt lat="46.42772" lon="-0.18306">
        <ele>102.6</ele>
        <time>2020-05-30T19:51:12Z</time>
      </trkpt>
      <trkpt lat="46.42772" lon="-0.18306">
        <ele>102.6</ele>
        <time>2020-05-30T19:51:13Z</time>
      </trkpt>
      <trkpt lat="46.42773" lon="-0.18306">
        <ele>102.6</ele>
        <time>2020-05-30T19:51:14Z</time>
      </trkpt>
      <trkpt lat="46.42773" lon="-0.18306">
        <ele>102.6</ele>
        <time>2020-05-30T19:51:15Z</time>
      </trkpt>
      <trkpt lat="46.42773" lon="-0.18306">
        <ele>102.6</ele>
        <time>2020-05-30T19:51:16Z</time>
      </trkpt>
      <trkpt lat="46.42773" lon="-0.18306">
        <ele>102.6</ele>
        <time>2020-05-30T19:51:17Z</time>
      </trkpt>
      <trkpt lat="46.42773" lon="-0.18306">
        <ele>102.6</ele>
        <time>2020-05-30T19:51:18Z</time>
      </trkpt>
      <trkpt lat="46.42773" lon="-0.18306">
        <ele>102.6</ele>
        <time>2020-05-30T19:51:19Z</time>
      </trkpt>
      <trkpt lat="46.42773" lon="-0.18306">
        <ele>102.6</ele>
        <time>2020-05-30T19:51:20Z</time>
      </trkpt>
      <trkpt lat="46.42773" lon="-0.18306">
        <ele>102.6</ele>
        <time>2020-05-30T19:51:21Z</time>
      </trkpt>
      <trkpt lat="46.42773" lon="-0.18306">
        <ele>102.6</ele>
        <time>2020-05-30T19:51:22Z</time>
      </trkpt>
      <trkpt lat="46.42773" lon="-0.18306">
        <ele>102.6</ele>
        <time>2020-05-30T19:51:23Z</time>
      </trkpt>
      <trkpt lat="46.42773" lon="-0.18306">
        <ele>102.6</ele>
        <time>2020-05-30T19:51:24Z</time>
      </trkpt>
      <trkpt lat="46.42773" lon="-0.18306">
        <ele>102.6</ele>
        <time>2020-05-30T19:51:25Z</time>
      </trkpt>
      <trkpt lat="46.42773" lon="-0.18306">
        <ele>102.6</ele>
        <time>2020-05-30T19:51:26Z</time>
      </trkpt>
      <trkpt lat="46.42773" lon="-0.18306">
        <ele>102.6</ele>
        <time>2020-05-30T19:51:27Z</time>
      </trkpt>
      <trkpt lat="46.42773" lon="-0.18306">
        <ele>102.6</ele>
        <time>2020-05-30T19:51:28Z</time>
      </trkpt>
      <trkpt lat="46.42773" lon="-0.18306">
        <ele>102.6</ele>
        <time>2020-05-30T19:51:29Z</time>
      </trkpt>
      <trkpt lat="46.42773" lon="-0.18306">
        <ele>102.6</ele>
        <time>2020-05-30T19:51:30Z</time>
      </trkpt>
      <trkpt lat="46.42773" lon="-0.18306">
        <ele>102.6</ele>
        <time>2020-05-30T19:51:31Z</time>
      </trkpt>
      <trkpt lat="46.42773" lon="-0.18306">
        <ele>102.6</ele>
        <time>2020-05-30T19:51:32Z</time>
      </trkpt>
      <trkpt lat="46.42773" lon="-0.18306">
        <ele>102.6</ele>
        <time>2020-05-30T19:51:33Z</time>
      </trkpt>
      <trkpt lat="46.42773" lon="-0.18306">
        <ele>102.6</ele>
        <time>2020-05-30T19:51:34Z</time>
      </trkpt>
      <trkpt lat="46.42773" lon="-0.18306">
        <ele>102.6</ele>
        <time>2020-05-30T19:51:35Z</time>
      </trkpt>
      <trkpt lat="46.42773" lon="-0.18306">
        <ele>102.6</ele>
        <time>2020-05-30T19:51:36Z</time>
      </trkpt>
      <trkpt lat="46.42773" lon="-0.18306">
        <ele>102.6</ele>
        <time>2020-05-30T19:51:37Z</time>
      </trkpt>
      <trkpt lat="46.42773" lon="-0.18306">
        <ele>102.6</ele>
        <time>2020-05-30T19:51:38Z</time>
      </trkpt>
      <trkpt lat="46.42773" lon="-0.18304">
        <ele>102.6</ele>
        <time>2020-05-30T19:51:39Z</time>
      </trkpt>
      <trkpt lat="46.42773" lon="-0.18304">
        <ele>102.6</ele>
        <time>2020-05-30T19:51:40Z</time>
      </trkpt>
      <trkpt lat="46.42772" lon="-0.18304">
        <ele>102.6</ele>
        <time>2020-05-30T19:51:41Z</time>
      </trkpt>
      <trkpt lat="46.42772" lon="-0.18305">
        <ele>102.6</ele>
        <time>2020-05-30T19:51:42Z</time>
      </trkpt>
      <trkpt lat="46.42772" lon="-0.18305">
        <ele>102.6</ele>
        <time>2020-05-30T19:51:43Z</time>
      </trkpt>
      <trkpt lat="46.42772" lon="-0.18305">
        <ele>102.6</ele>
        <time>2020-05-30T19:51:44Z</time>
      </trkpt>
      <trkpt lat="46.42771" lon="-0.18305">
        <ele>102.6</ele>
        <time>2020-05-30T19:51:45Z</time>
      </trkpt>
      <trkpt lat="46.42771" lon="-0.18305">
        <ele>102.6</ele>
        <time>2020-05-30T19:51:46Z</time>
      </trkpt>
      <trkpt lat="46.42771" lon="-0.18305">
        <ele>102.6</ele>
        <time>2020-05-30T19:51:47Z</time>
      </trkpt>
      <trkpt lat="46.42771" lon="-0.18305">
        <ele>102.6</ele>
        <time>2020-05-30T19:51:48Z</time>
      </trkpt>
      <trkpt lat="46.42771" lon="-0.18305">
        <ele>102.6</ele>
        <time>2020-05-30T19:51:49Z</time>
      </trkpt>
      <trkpt lat="46.42771" lon="-0.18305">
        <ele>102.6</ele>
        <time>2020-05-30T19:51:50Z</time>
      </trkpt>
      <trkpt lat="46.42771" lon="-0.18305">
        <ele>102.6</ele>
        <time>2020-05-30T19:51:51Z</time>
      </trkpt>
      <trkpt lat="46.42772" lon="-0.18304">
        <ele>102.6</ele>
        <time>2020-05-30T19:51:52Z</time>
      </trkpt>
      <trkpt lat="46.42772" lon="-0.18305">
        <ele>102.6</ele>
        <time>2020-05-30T19:51:53Z</time>
      </trkpt>
      <trkpt lat="46.42771" lon="-0.18306">
        <ele>102.6</ele>
        <time>2020-05-30T19:51:54Z</time>
      </trkpt>
      <trkpt lat="46.42771" lon="-0.18307">
        <ele>102.6</ele>
        <time>2020-05-30T19:51:55Z</time>
      </trkpt>
      <trkpt lat="46.42771" lon="-0.18307">
        <ele>102.6</ele>
        <time>2020-05-30T19:51:56Z</time>
      </trkpt>
      <trkpt lat="46.42771" lon="-0.18306">
        <ele>102.6</ele>
        <time>2020-05-30T19:51:57Z</time>
      </trkpt>
      <trkpt lat="46.42771" lon="-0.18306">
        <ele>102.6</ele>
        <time>2020-05-30T19:51:58Z</time>
      </trkpt>
      <trkpt lat="46.42771" lon="-0.18306">
        <ele>102.6</ele>
        <time>2020-05-30T19:51:59Z</time>
      </trkpt>
      <trkpt lat="46.42771" lon="-0.18306">
        <ele>102.6</ele>
        <time>2020-05-30T19:52:00Z</time>
      </trkpt>
      <trkpt lat="46.42771" lon="-0.18306">
        <ele>102.6</ele>
        <time>2020-05-30T19:52:01Z</time>
      </trkpt>
      <trkpt lat="46.42771" lon="-0.18307">
        <ele>102.6</ele>
        <time>2020-05-30T19:52:02Z</time>
      </trkpt>
      <trkpt lat="46.42771" lon="-0.18307">
        <ele>102.6</ele>
        <time>2020-05-30T19:52:03Z</time>
      </trkpt>
      <trkpt lat="46.42771" lon="-0.18307">
        <ele>102.6</ele>
        <time>2020-05-30T19:52:04Z</time>
      </trkpt>
      <trkpt lat="46.42771" lon="-0.18307">
        <ele>102.6</ele>
        <time>2020-05-30T19:52:05Z</time>
      </trkpt>
      <trkpt lat="46.42771" lon="-0.18307">
        <ele>102.6</ele>
        <time>2020-05-30T19:52:06Z</time>
      </trkpt>
      <trkpt lat="46.42771" lon="-0.18307">
        <ele>102.6</ele>
        <time>2020-05-30T19:52:07Z</time>
      </trkpt>
      <trkpt lat="46.42771" lon="-0.18307">
        <ele>102.6</ele>
        <time>2020-05-30T19:52:08Z</time>
      </trkpt>
      <trkpt lat="46.42771" lon="-0.18307">
        <ele>102.6</ele>
        <time>2020-05-30T19:52:09Z</time>
      </trkpt>
      <trkpt lat="46.42771" lon="-0.18307">
        <ele>102.6</ele>
        <time>2020-05-30T19:52:10Z</time>
      </trkpt>
      <trkpt lat="46.42771" lon="-0.18307">
        <ele>102.6</ele>
        <time>2020-05-30T19:52:11Z</time>
      </trkpt>
      <trkpt lat="46.42771" lon="-0.18307">
        <ele>102.6</ele>
        <time>2020-05-30T19:52:12Z</time>
      </trkpt>
      <trkpt lat="46.42771" lon="-0.18307">
        <ele>102.6</ele>
        <time>2020-05-30T19:52:13Z</time>
      </trkpt>
      <trkpt lat="46.42771" lon="-0.18307">
        <ele>102.6</ele>
        <time>2020-05-30T19:52:14Z</time>
      </trkpt>
      <trkpt lat="46.42771" lon="-0.18307">
        <ele>102.6</ele>
        <time>2020-05-30T19:52:15Z</time>
      </trkpt>
      <trkpt lat="46.42771" lon="-0.18307">
        <ele>102.6</ele>
        <time>2020-05-30T19:52:16Z</time>
      </trkpt>
      <trkpt lat="46.42771" lon="-0.18307">
        <ele>102.6</ele>
        <time>2020-05-30T19:52:17Z</time>
      </trkpt>
      <trkpt lat="46.42771" lon="-0.18307">
        <ele>102.6</ele>
        <time>2020-05-30T19:52:18Z</time>
      </trkpt>
      <trkpt lat="46.42771" lon="-0.18307">
        <ele>102.6</ele>
        <time>2020-05-30T19:52:19Z</time>
      </trkpt>
      <trkpt lat="46.42771" lon="-0.18307">
        <ele>102.6</ele>
        <time>2020-05-30T19:52:20Z</time>
      </trkpt>
      <trkpt lat="46.42771" lon="-0.18307">
        <ele>102.6</ele>
        <time>2020-05-30T19:52:21Z</time>
      </trkpt>
      <trkpt lat="46.42771" lon="-0.18307">
        <ele>102.6</ele>
        <time>2020-05-30T19:52:22Z</time>
      </trkpt>
      <trkpt lat="46.42771" lon="-0.18307">
        <ele>102.6</ele>
        <time>2020-05-30T19:52:23Z</time>
      </trkpt>
      <trkpt lat="46.42771" lon="-0.18307">
        <ele>102.6</ele>
        <time>2020-05-30T19:52:24Z</time>
      </trkpt>
      <trkpt lat="46.42771" lon="-0.18307">
        <ele>102.6</ele>
        <time>2020-05-30T19:52:25Z</time>
      </trkpt>
      <trkpt lat="46.42771" lon="-0.18307">
        <ele>102.6</ele>
        <time>2020-05-30T19:52:26Z</time>
      </trkpt>
      <trkpt lat="46.42771" lon="-0.18307">
        <ele>102.6</ele>
        <time>2020-05-30T19:52:27Z</time>
      </trkpt>
      <trkpt lat="46.42771" lon="-0.18307">
        <ele>102.6</ele>
        <time>2020-05-30T19:52:28Z</time>
      </trkpt>
      <trkpt lat="46.42771" lon="-0.18307">
        <ele>102.6</ele>
        <time>2020-05-30T19:52:29Z</time>
      </trkpt>
      <trkpt lat="46.42771" lon="-0.18307">
        <ele>102.6</ele>
        <time>2020-05-30T19:52:30Z</time>
      </trkpt>
      <trkpt lat="46.42771" lon="-0.18307">
        <ele>102.6</ele>
        <time>2020-05-30T19:52:31Z</time>
      </trkpt>
      <trkpt lat="46.42771" lon="-0.18307">
        <ele>102.6</ele>
        <time>2020-05-30T19:52:32Z</time>
      </trkpt>
      <trkpt lat="46.42771" lon="-0.18307">
        <ele>102.6</ele>
        <time>2020-05-30T19:52:33Z</time>
      </trkpt>
      <trkpt lat="46.42771" lon="-0.18307">
        <ele>102.6</ele>
        <time>2020-05-30T19:52:34Z</time>
      </trkpt>
      <trkpt lat="46.42771" lon="-0.18307">
        <ele>102.6</ele>
        <time>2020-05-30T19:52:35Z</time>
      </trkpt>
      <trkpt lat="46.42771" lon="-0.18307">
        <ele>102.6</ele>
        <time>2020-05-30T19:52:36Z</time>
      </trkpt>
      <trkpt lat="46.42771" lon="-0.18307">
        <ele>102.6</ele>
        <time>2020-05-30T19:52:37Z</time>
      </trkpt>
      <trkpt lat="46.42771" lon="-0.18307">
        <ele>102.6</ele>
        <time>2020-05-30T19:52:38Z</time>
      </trkpt>
      <trkpt lat="46.4277" lon="-0.18307">
        <ele>102.7</ele>
        <time>2020-05-30T19:52:39Z</time>
      </trkpt>
      <trkpt lat="46.42769" lon="-0.18307">
        <ele>102.7</ele>
        <time>2020-05-30T19:52:40Z</time>
      </trkpt>
      <trkpt lat="46.42769" lon="-0.18307">
        <ele>102.7</ele>
        <time>2020-05-30T19:52:41Z</time>
      </trkpt>
      <trkpt lat="46.42769" lon="-0.18307">
        <ele>102.7</ele>
        <time>2020-05-30T19:52:42Z</time>
      </trkpt>
      <trkpt lat="46.42769" lon="-0.18307">
        <ele>102.7</ele>
        <time>2020-05-30T19:52:43Z</time>
      </trkpt>
      <trkpt lat="46.42769" lon="-0.18307">
        <ele>102.7</ele>
        <time>2020-05-30T19:52:44Z</time>
      </trkpt>
      <trkpt lat="46.42769" lon="-0.18307">
        <ele>102.7</ele>
        <time>2020-05-30T19:52:45Z</time>
      </trkpt>
      <trkpt lat="46.42769" lon="-0.18307">
        <ele>102.7</ele>
        <time>2020-05-30T19:52:46Z</time>
      </trkpt>
      <trkpt lat="46.42769" lon="-0.18308">
        <ele>102.7</ele>
        <time>2020-05-30T19:52:47Z</time>
      </trkpt>
      <trkpt lat="46.42769" lon="-0.18308">
        <ele>102.7</ele>
        <time>2020-05-30T19:52:48Z</time>
      </trkpt>
      <trkpt lat="46.42769" lon="-0.18308">
        <ele>102.7</ele>
        <time>2020-05-30T19:52:49Z</time>
      </trkpt>
      <trkpt lat="46.42769" lon="-0.18308">
        <ele>102.7</ele>
        <time>2020-05-30T19:52:50Z</time>
      </trkpt>
      <trkpt lat="46.42769" lon="-0.18308">
        <ele>102.7</ele>
        <time>2020-05-30T19:52:51Z</time>
      </trkpt>
      <trkpt lat="46.42769" lon="-0.18308">
        <ele>102.7</ele>
        <time>2020-05-30T19:52:52Z</time>
      </trkpt>
      <trkpt lat="46.42769" lon="-0.18308">
        <ele>102.7</ele>
        <time>2020-05-30T19:52:53Z</time>
      </trkpt>
      <trkpt lat="46.42769" lon="-0.18308">
        <ele>102.7</ele>
        <time>2020-05-30T19:52:54Z</time>
      </trkpt>
      <trkpt lat="46.42769" lon="-0.18308">
        <ele>102.7</ele>
        <time>2020-05-30T19:52:55Z</time>
      </trkpt>
      <trkpt lat="46.4277" lon="-0.18308">
        <ele>102.7</ele>
        <time>2020-05-30T19:52:56Z</time>
      </trkpt>
      <trkpt lat="46.4277" lon="-0.18308">
        <ele>102.7</ele>
        <time>2020-05-30T19:52:57Z</time>
      </trkpt>
      <trkpt lat="46.4277" lon="-0.18308">
        <ele>102.7</ele>
        <time>2020-05-30T19:52:58Z</time>
      </trkpt>
      <trkpt lat="46.4277" lon="-0.18308">
        <ele>102.7</ele>
        <time>2020-05-30T19:52:59Z</time>
      </trkpt>
      <trkpt lat="46.4277" lon="-0.18309">
        <ele>102.7</ele>
        <time>2020-05-30T19:53:00Z</time>
      </trkpt>
      <trkpt lat="46.42771" lon="-0.18308">
        <ele>102.7</ele>
        <time>2020-05-30T19:53:01Z</time>
      </trkpt>
      <trkpt lat="46.42771" lon="-0.18308">
        <ele>102.7</ele>
        <time>2020-05-30T19:53:02Z</time>
      </trkpt>
      <trkpt lat="46.42772" lon="-0.18308">
        <ele>102.7</ele>
        <time>2020-05-30T19:53:03Z</time>
      </trkpt>
      <trkpt lat="46.42772" lon="-0.18307">
        <ele>102.7</ele>
        <time>2020-05-30T19:53:04Z</time>
      </trkpt>
      <trkpt lat="46.42772" lon="-0.18307">
        <ele>102.7</ele>
        <time>2020-05-30T19:53:05Z</time>
      </trkpt>
      <trkpt lat="46.42772" lon="-0.18307">
        <ele>102.7</ele>
        <time>2020-05-30T19:53:06Z</time>
      </trkpt>
      <trkpt lat="46.42772" lon="-0.18307">
        <ele>102.7</ele>
        <time>2020-05-30T19:53:07Z</time>
      </trkpt>
      <trkpt lat="46.42772" lon="-0.18307">
        <ele>102.7</ele>
        <time>2020-05-30T19:53:08Z</time>
      </trkpt>
      <trkpt lat="46.42773" lon="-0.18307">
        <ele>102.7</ele>
        <time>2020-05-30T19:53:09Z</time>
      </trkpt>
      <trkpt lat="46.42773" lon="-0.18307">
        <ele>102.7</ele>
        <time>2020-05-30T19:53:10Z</time>
      </trkpt>
      <trkpt lat="46.42773" lon="-0.18307">
        <ele>102.7</ele>
        <time>2020-05-30T19:53:11Z</time>
      </trkpt>
      <trkpt lat="46.42774" lon="-0.18308">
        <ele>102.7</ele>
        <time>2020-05-30T19:53:12Z</time>
      </trkpt>
      <trkpt lat="46.42774" lon="-0.18308">
        <ele>102.7</ele>
        <time>2020-05-30T19:53:13Z</time>
      </trkpt>
      <trkpt lat="46.42774" lon="-0.18308">
        <ele>102.7</ele>
        <time>2020-05-30T19:53:14Z</time>
      </trkpt>
      <trkpt lat="46.42774" lon="-0.18308">
        <ele>102.7</ele>
        <time>2020-05-30T19:53:15Z</time>
      </trkpt>
      <trkpt lat="46.42774" lon="-0.18308">
        <ele>102.7</ele>
        <time>2020-05-30T19:53:16Z</time>
      </trkpt>
      <trkpt lat="46.42774" lon="-0.18307">
        <ele>102.7</ele>
        <time>2020-05-30T19:53:17Z</time>
      </trkpt>
      <trkpt lat="46.42774" lon="-0.18307">
        <ele>102.7</ele>
        <time>2020-05-30T19:53:18Z</time>
      </trkpt>
      <trkpt lat="46.42774" lon="-0.18307">
        <ele>102.7</ele>
        <time>2020-05-30T19:53:19Z</time>
      </trkpt>
      <trkpt lat="46.42774" lon="-0.18308">
        <ele>102.7</ele>
        <time>2020-05-30T19:53:20Z</time>
      </trkpt>
      <trkpt lat="46.42774" lon="-0.18308">
        <ele>102.7</ele>
        <time>2020-05-30T19:53:21Z</time>
      </trkpt>
      <trkpt lat="46.42774" lon="-0.18309">
        <ele>102.7</ele>
        <time>2020-05-30T19:53:22Z</time>
      </trkpt>
      <trkpt lat="46.42774" lon="-0.18309">
        <ele>102.7</ele>
        <time>2020-05-30T19:53:23Z</time>
      </trkpt>
      <trkpt lat="46.42774" lon="-0.18309">
        <ele>102.7</ele>
        <time>2020-05-30T19:53:24Z</time>
      </trkpt>
      <trkpt lat="46.42774" lon="-0.18309">
        <ele>102.7</ele>
        <time>2020-05-30T19:53:25Z</time>
      </trkpt>
      <trkpt lat="46.42774" lon="-0.18308">
        <ele>102.7</ele>
        <time>2020-05-30T19:53:26Z</time>
      </trkpt>
      <trkpt lat="46.42773" lon="-0.18308">
        <ele>102.7</ele>
        <time>2020-05-30T19:53:27Z</time>
      </trkpt>
      <trkpt lat="46.42773" lon="-0.18308">
        <ele>102.7</ele>
        <time>2020-05-30T19:53:28Z</time>
      </trkpt>
      <trkpt lat="46.42773" lon="-0.18308">
        <ele>102.7</ele>
        <time>2020-05-30T19:53:29Z</time>
      </trkpt>
      <trkpt lat="46.42773" lon="-0.18308">
        <ele>102.7</ele>
        <time>2020-05-30T19:53:30Z</time>
      </trkpt>
      <trkpt lat="46.42773" lon="-0.18309">
        <ele>102.7</ele>
        <time>2020-05-30T19:53:31Z</time>
      </trkpt>
      <trkpt lat="46.42773" lon="-0.1831">
        <ele>102.7</ele>
        <time>2020-05-30T19:53:32Z</time>
      </trkpt>
      <trkpt lat="46.42773" lon="-0.1831">
        <ele>102.7</ele>
        <time>2020-05-30T19:53:33Z</time>
      </trkpt>
      <trkpt lat="46.42773" lon="-0.18309">
        <ele>102.7</ele>
        <time>2020-05-30T19:53:34Z</time>
      </trkpt>
      <trkpt lat="46.42773" lon="-0.18309">
        <ele>102.7</ele>
        <time>2020-05-30T19:53:35Z</time>
      </trkpt>
      <trkpt lat="46.42773" lon="-0.18309">
        <ele>102.7</ele>
        <time>2020-05-30T19:53:36Z</time>
      </trkpt>
      <trkpt lat="46.42773" lon="-0.18309">
        <ele>102.7</ele>
        <time>2020-05-30T19:53:37Z</time>
      </trkpt>
      <trkpt lat="46.42773" lon="-0.18309">
        <ele>102.7</ele>
        <time>2020-05-30T19:53:38Z</time>
      </trkpt>
      <trkpt lat="46.42773" lon="-0.18309">
        <ele>102.7</ele>
        <time>2020-05-30T19:53:39Z</time>
      </trkpt>
      <trkpt lat="46.42773" lon="-0.18309">
        <ele>102.7</ele>
        <time>2020-05-30T19:53:40Z</time>
      </trkpt>
      <trkpt lat="46.42773" lon="-0.18309">
        <ele>102.7</ele>
        <time>2020-05-30T19:53:41Z</time>
      </trkpt>
      <trkpt lat="46.42773" lon="-0.18309">
        <ele>102.7</ele>
        <time>2020-05-30T19:53:42Z</time>
      </trkpt>
      <trkpt lat="46.42773" lon="-0.18309">
        <ele>102.7</ele>
        <time>2020-05-30T19:53:43Z</time>
      </trkpt>
      <trkpt lat="46.42773" lon="-0.18309">
        <ele>102.7</ele>
        <time>2020-05-30T19:53:44Z</time>
      </trkpt>
      <trkpt lat="46.42773" lon="-0.18309">
        <ele>102.7</ele>
        <time>2020-05-30T19:53:45Z</time>
      </trkpt>
      <trkpt lat="46.42773" lon="-0.18309">
        <ele>102.7</ele>
        <time>2020-05-30T19:53:46Z</time>
      </trkpt>
      <trkpt lat="46.42773" lon="-0.18309">
        <ele>102.7</ele>
        <time>2020-05-30T19:53:47Z</time>
      </trkpt>
      <trkpt lat="46.42773" lon="-0.18309">
        <ele>102.7</ele>
        <time>2020-05-30T19:53:48Z</time>
      </trkpt>
      <trkpt lat="46.42773" lon="-0.18309">
        <ele>102.7</ele>
        <time>2020-05-30T19:53:49Z</time>
      </trkpt>
      <trkpt lat="46.42773" lon="-0.18309">
        <ele>102.7</ele>
        <time>2020-05-30T19:53:50Z</time>
      </trkpt>
      <trkpt lat="46.42773" lon="-0.18309">
        <ele>102.7</ele>
        <time>2020-05-30T19:53:51Z</time>
      </trkpt>
      <trkpt lat="46.42773" lon="-0.18309">
        <ele>102.7</ele>
        <time>2020-05-30T19:53:52Z</time>
      </trkpt>
      <trkpt lat="46.42773" lon="-0.18309">
        <ele>102.7</ele>
        <time>2020-05-30T19:53:53Z</time>
      </trkpt>
      <trkpt lat="46.42773" lon="-0.18309">
        <ele>102.7</ele>
        <time>2020-05-30T19:53:54Z</time>
      </trkpt>
      <trkpt lat="46.42773" lon="-0.18309">
        <ele>102.7</ele>
        <time>2020-05-30T19:53:55Z</time>
      </trkpt>
      <trkpt lat="46.42773" lon="-0.18309">
        <ele>102.7</ele>
        <time>2020-05-30T19:53:56Z</time>
      </trkpt>
      <trkpt lat="46.42773" lon="-0.18309">
        <ele>102.7</ele>
        <time>2020-05-30T19:53:57Z</time>
      </trkpt>
      <trkpt lat="46.42773" lon="-0.18309">
        <ele>102.7</ele>
        <time>2020-05-30T19:53:58Z</time>
      </trkpt>
      <trkpt lat="46.42773" lon="-0.18309">
        <ele>102.7</ele>
        <time>2020-05-30T19:53:59Z</time>
      </trkpt>
      <trkpt lat="46.42773" lon="-0.18309">
        <ele>102.7</ele>
        <time>2020-05-30T19:54:00Z</time>
      </trkpt>
      <trkpt lat="46.42773" lon="-0.18309">
        <ele>102.7</ele>
        <time>2020-05-30T19:54:01Z</time>
      </trkpt>
      <trkpt lat="46.42773" lon="-0.18309">
        <ele>102.7</ele>
        <time>2020-05-30T19:54:02Z</time>
      </trkpt>
      <trkpt lat="46.42773" lon="-0.18309">
        <ele>102.7</ele>
        <time>2020-05-30T19:54:03Z</time>
      </trkpt>
      <trkpt lat="46.42773" lon="-0.18309">
        <ele>102.7</ele>
        <time>2020-05-30T19:54:04Z</time>
      </trkpt>
      <trkpt lat="46.42773" lon="-0.18309">
        <ele>102.7</ele>
        <time>2020-05-30T19:54:05Z</time>
      </trkpt>
      <trkpt lat="46.42773" lon="-0.18309">
        <ele>102.7</ele>
        <time>2020-05-30T19:54:06Z</time>
      </trkpt>
      <trkpt lat="46.42773" lon="-0.18309">
        <ele>102.7</ele>
        <time>2020-05-30T19:54:07Z</time>
      </trkpt>
      <trkpt lat="46.42773" lon="-0.18309">
        <ele>102.7</ele>
        <time>2020-05-30T19:54:08Z</time>
      </trkpt>
      <trkpt lat="46.42773" lon="-0.18309">
        <ele>102.7</ele>
        <time>2020-05-30T19:54:09Z</time>
      </trkpt>
      <trkpt lat="46.42773" lon="-0.18309">
        <ele>102.7</ele>
        <time>2020-05-30T19:54:10Z</time>
      </trkpt>
      <trkpt lat="46.42773" lon="-0.18309">
        <ele>102.7</ele>
        <time>2020-05-30T19:54:11Z</time>
      </trkpt>
      <trkpt lat="46.42773" lon="-0.18309">
        <ele>102.7</ele>
        <time>2020-05-30T19:54:12Z</time>
      </trkpt>
      <trkpt lat="46.42773" lon="-0.18309">
        <ele>102.7</ele>
        <time>2020-05-30T19:54:13Z</time>
      </trkpt>
      <trkpt lat="46.42773" lon="-0.18309">
        <ele>102.7</ele>
        <time>2020-05-30T19:54:14Z</time>
      </trkpt>
      <trkpt lat="46.42773" lon="-0.18309">
        <ele>102.7</ele>
        <time>2020-05-30T19:54:15Z</time>
      </trkpt>
      <trkpt lat="46.42773" lon="-0.18309">
        <ele>102.7</ele>
        <time>2020-05-30T19:54:16Z</time>
      </trkpt>
      <trkpt lat="46.42773" lon="-0.18309">
        <ele>102.7</ele>
        <time>2020-05-30T19:54:17Z</time>
      </trkpt>
      <trkpt lat="46.42773" lon="-0.18309">
        <ele>102.7</ele>
        <time>2020-05-30T19:54:18Z</time>
      </trkpt>
      <trkpt lat="46.42773" lon="-0.18309">
        <ele>102.7</ele>
        <time>2020-05-30T19:54:19Z</time>
      </trkpt>
      <trkpt lat="46.42773" lon="-0.18309">
        <ele>102.7</ele>
        <time>2020-05-30T19:54:20Z</time>
      </trkpt>
      <trkpt lat="46.42773" lon="-0.18309">
        <ele>102.7</ele>
        <time>2020-05-30T19:54:21Z</time>
      </trkpt>
      <trkpt lat="46.42773" lon="-0.18309">
        <ele>102.7</ele>
        <time>2020-05-30T19:54:22Z</time>
      </trkpt>
      <trkpt lat="46.42773" lon="-0.18309">
        <ele>102.7</ele>
        <time>2020-05-30T19:54:23Z</time>
      </trkpt>
      <trkpt lat="46.42773" lon="-0.18309">
        <ele>102.7</ele>
        <time>2020-05-30T19:54:24Z</time>
      </trkpt>
      <trkpt lat="46.42773" lon="-0.18309">
        <ele>102.7</ele>
        <time>2020-05-30T19:54:25Z</time>
      </trkpt>
      <trkpt lat="46.42773" lon="-0.18309">
        <ele>102.7</ele>
        <time>2020-05-30T19:54:26Z</time>
      </trkpt>
      <trkpt lat="46.42773" lon="-0.18309">
        <ele>102.7</ele>
        <time>2020-05-30T19:54:27Z</time>
      </trkpt>
      <trkpt lat="46.42773" lon="-0.18309">
        <ele>102.7</ele>
        <time>2020-05-30T19:54:28Z</time>
      </trkpt>
      <trkpt lat="46.42773" lon="-0.18309">
        <ele>102.7</ele>
        <time>2020-05-30T19:54:29Z</time>
      </trkpt>
      <trkpt lat="46.42773" lon="-0.18309">
        <ele>102.7</ele>
        <time>2020-05-30T19:54:30Z</time>
      </trkpt>
      <trkpt lat="46.42773" lon="-0.18309">
        <ele>102.7</ele>
        <time>2020-05-30T19:54:31Z</time>
      </trkpt>
      <trkpt lat="46.42773" lon="-0.18309">
        <ele>102.7</ele>
        <time>2020-05-30T19:54:32Z</time>
      </trkpt>
      <trkpt lat="46.42773" lon="-0.18309">
        <ele>102.7</ele>
        <time>2020-05-30T19:54:33Z</time>
      </trkpt>
      <trkpt lat="46.42773" lon="-0.18309">
        <ele>102.7</ele>
        <time>2020-05-30T19:54:34Z</time>
      </trkpt>
      <trkpt lat="46.42773" lon="-0.18309">
        <ele>102.7</ele>
        <time>2020-05-30T19:54:35Z</time>
      </trkpt>
      <trkpt lat="46.42773" lon="-0.18309">
        <ele>102.7</ele>
        <time>2020-05-30T19:54:36Z</time>
      </trkpt>
      <trkpt lat="46.42773" lon="-0.18309">
        <ele>102.7</ele>
        <time>2020-05-30T19:54:37Z</time>
      </trkpt>
      <trkpt lat="46.42773" lon="-0.18309">
        <ele>102.7</ele>
        <time>2020-05-30T19:54:38Z</time>
      </trkpt>
      <trkpt lat="46.42773" lon="-0.18309">
        <ele>102.7</ele>
        <time>2020-05-30T19:54:39Z</time>
      </trkpt>
      <trkpt lat="46.42773" lon="-0.18309">
        <ele>102.7</ele>
        <time>2020-05-30T19:54:40Z</time>
      </trkpt>
      <trkpt lat="46.42773" lon="-0.18309">
        <ele>102.7</ele>
        <time>2020-05-30T19:54:41Z</time>
      </trkpt>
      <trkpt lat="46.42773" lon="-0.18309">
        <ele>102.7</ele>
        <time>2020-05-30T19:54:42Z</time>
      </trkpt>
      <trkpt lat="46.42773" lon="-0.18309">
        <ele>102.7</ele>
        <time>2020-05-30T19:54:43Z</time>
      </trkpt>
      <trkpt lat="46.42773" lon="-0.18309">
        <ele>102.7</ele>
        <time>2020-05-30T19:54:44Z</time>
      </trkpt>
      <trkpt lat="46.42773" lon="-0.18309">
        <ele>102.7</ele>
        <time>2020-05-30T19:54:45Z</time>
      </trkpt>
      <trkpt lat="46.42773" lon="-0.18309">
        <ele>102.7</ele>
        <time>2020-05-30T19:54:46Z</time>
      </trkpt>
      <trkpt lat="46.42773" lon="-0.18309">
        <ele>102.7</ele>
        <time>2020-05-30T19:54:47Z</time>
      </trkpt>
      <trkpt lat="46.42773" lon="-0.18309">
        <ele>102.7</ele>
        <time>2020-05-30T19:54:48Z</time>
      </trkpt>
      <trkpt lat="46.42773" lon="-0.18309">
        <ele>102.7</ele>
        <time>2020-05-30T19:54:49Z</time>
      </trkpt>
      <trkpt lat="46.42773" lon="-0.18309">
        <ele>102.7</ele>
        <time>2020-05-30T19:54:50Z</time>
      </trkpt>
      <trkpt lat="46.42773" lon="-0.18309">
        <ele>102.7</ele>
        <time>2020-05-30T19:54:51Z</time>
      </trkpt>
      <trkpt lat="46.42773" lon="-0.18309">
        <ele>102.7</ele>
        <time>2020-05-30T19:54:52Z</time>
      </trkpt>
      <trkpt lat="46.42773" lon="-0.18309">
        <ele>102.7</ele>
        <time>2020-05-30T19:54:53Z</time>
      </trkpt>
      <trkpt lat="46.42773" lon="-0.18309">
        <ele>102.7</ele>
        <time>2020-05-30T19:54:54Z</time>
      </trkpt>
      <trkpt lat="46.42773" lon="-0.18309">
        <ele>102.7</ele>
        <time>2020-05-30T19:54:55Z</time>
      </trkpt>
      <trkpt lat="46.42773" lon="-0.18309">
        <ele>102.7</ele>
        <time>2020-05-30T19:54:56Z</time>
      </trkpt>
      <trkpt lat="46.42773" lon="-0.18309">
        <ele>102.7</ele>
        <time>2020-05-30T19:54:57Z</time>
      </trkpt>
      <trkpt lat="46.42773" lon="-0.18309">
        <ele>102.7</ele>
        <time>2020-05-30T19:54:58Z</time>
      </trkpt>
      <trkpt lat="46.42773" lon="-0.18309">
        <ele>102.7</ele>
        <time>2020-05-30T19:54:59Z</time>
      </trkpt>
      <trkpt lat="46.42773" lon="-0.18309">
        <ele>102.7</ele>
        <time>2020-05-30T19:55:00Z</time>
      </trkpt>
      <trkpt lat="46.42773" lon="-0.18309">
        <ele>102.7</ele>
        <time>2020-05-30T19:55:01Z</time>
      </trkpt>
      <trkpt lat="46.42773" lon="-0.18309">
        <ele>102.7</ele>
        <time>2020-05-30T19:55:02Z</time>
      </trkpt>
      <trkpt lat="46.42773" lon="-0.18309">
        <ele>102.7</ele>
        <time>2020-05-30T19:55:03Z</time>
      </trkpt>
      <trkpt lat="46.42773" lon="-0.18309">
        <ele>102.7</ele>
        <time>2020-05-30T19:55:04Z</time>
      </trkpt>
      <trkpt lat="46.42773" lon="-0.18309">
        <ele>102.7</ele>
        <time>2020-05-30T19:55:05Z</time>
      </trkpt>
      <trkpt lat="46.42773" lon="-0.18309">
        <ele>102.7</ele>
        <time>2020-05-30T19:55:06Z</time>
      </trkpt>
      <trkpt lat="46.42773" lon="-0.18309">
        <ele>102.7</ele>
        <time>2020-05-30T19:55:07Z</time>
      </trkpt>
      <trkpt lat="46.42773" lon="-0.18309">
        <ele>102.7</ele>
        <time>2020-05-30T19:55:08Z</time>
      </trkpt>
      <trkpt lat="46.42773" lon="-0.18309">
        <ele>102.7</ele>
        <time>2020-05-30T19:55:09Z</time>
      </trkpt>
      <trkpt lat="46.42773" lon="-0.18309">
        <ele>102.7</ele>
        <time>2020-05-30T19:55:10Z</time>
      </trkpt>
      <trkpt lat="46.42773" lon="-0.18309">
        <ele>102.7</ele>
        <time>2020-05-30T19:55:11Z</time>
      </trkpt>
      <trkpt lat="46.42773" lon="-0.18309">
        <ele>102.7</ele>
        <time>2020-05-30T19:55:12Z</time>
      </trkpt>
      <trkpt lat="46.42773" lon="-0.18309">
        <ele>102.7</ele>
        <time>2020-05-30T19:55:13Z</time>
      </trkpt>
      <trkpt lat="46.42773" lon="-0.18309">
        <ele>102.7</ele>
        <time>2020-05-30T19:55:14Z</time>
      </trkpt>
      <trkpt lat="46.42773" lon="-0.18309">
        <ele>102.7</ele>
        <time>2020-05-30T19:55:15Z</time>
      </trkpt>
      <trkpt lat="46.42773" lon="-0.18309">
        <ele>102.7</ele>
        <time>2020-05-30T19:55:16Z</time>
      </trkpt>
      <trkpt lat="46.42773" lon="-0.18309">
        <ele>102.7</ele>
        <time>2020-05-30T19:55:17Z</time>
      </trkpt>
      <trkpt lat="46.42773" lon="-0.18309">
        <ele>102.7</ele>
        <time>2020-05-30T19:55:18Z</time>
      </trkpt>
      <trkpt lat="46.42773" lon="-0.18309">
        <ele>102.7</ele>
        <time>2020-05-30T19:55:19Z</time>
      </trkpt>
      <trkpt lat="46.42773" lon="-0.18309">
        <ele>102.7</ele>
        <time>2020-05-30T19:55:20Z</time>
      </trkpt>
      <trkpt lat="46.42773" lon="-0.18309">
        <ele>102.7</ele>
        <time>2020-05-30T19:55:21Z</time>
      </trkpt>
      <trkpt lat="46.42773" lon="-0.18309">
        <ele>102.7</ele>
        <time>2020-05-30T19:55:22Z</time>
      </trkpt>
      <trkpt lat="46.42773" lon="-0.18309">
        <ele>102.7</ele>
        <time>2020-05-30T19:55:23Z</time>
      </trkpt>
      <trkpt lat="46.42773" lon="-0.18309">
        <ele>102.7</ele>
        <time>2020-05-30T19:55:24Z</time>
      </trkpt>
      <trkpt lat="46.42773" lon="-0.18309">
        <ele>102.7</ele>
        <time>2020-05-30T19:55:25Z</time>
      </trkpt>
      <trkpt lat="46.42773" lon="-0.18309">
        <ele>102.7</ele>
        <time>2020-05-30T19:55:26Z</time>
      </trkpt>
      <trkpt lat="46.42773" lon="-0.18309">
        <ele>102.7</ele>
        <time>2020-05-30T19:55:27Z</time>
      </trkpt>
      <trkpt lat="46.42773" lon="-0.18309">
        <ele>102.7</ele>
        <time>2020-05-30T19:55:28Z</time>
      </trkpt>
      <trkpt lat="46.42773" lon="-0.18309">
        <ele>102.7</ele>
        <time>2020-05-30T19:55:29Z</time>
      </trkpt>
      <trkpt lat="46.42773" lon="-0.18309">
        <ele>102.7</ele>
        <time>2020-05-30T19:55:30Z</time>
      </trkpt>
      <trkpt lat="46.42773" lon="-0.18309">
        <ele>102.7</ele>
        <time>2020-05-30T19:55:31Z</time>
      </trkpt>
      <trkpt lat="46.42773" lon="-0.18309">
        <ele>102.7</ele>
        <time>2020-05-30T19:55:32Z</time>
      </trkpt>
      <trkpt lat="46.42773" lon="-0.18309">
        <ele>102.7</ele>
        <time>2020-05-30T19:55:33Z</time>
      </trkpt>
      <trkpt lat="46.42773" lon="-0.18309">
        <ele>102.7</ele>
        <time>2020-05-30T19:55:34Z</time>
      </trkpt>
      <trkpt lat="46.42773" lon="-0.18309">
        <ele>102.7</ele>
        <time>2020-05-30T19:55:35Z</time>
      </trkpt>
      <trkpt lat="46.42773" lon="-0.18309">
        <ele>102.7</ele>
        <time>2020-05-30T19:55:36Z</time>
      </trkpt>
      <trkpt lat="46.42773" lon="-0.18309">
        <ele>102.7</ele>
        <time>2020-05-30T19:55:37Z</time>
      </trkpt>
      <trkpt lat="46.42773" lon="-0.18309">
        <ele>102.7</ele>
        <time>2020-05-30T19:55:38Z</time>
      </trkpt>
      <trkpt lat="46.42773" lon="-0.18309">
        <ele>102.7</ele>
        <time>2020-05-30T19:55:39Z</time>
      </trkpt>
      <trkpt lat="46.42773" lon="-0.18309">
        <ele>102.7</ele>
        <time>2020-05-30T19:55:40Z</time>
      </trkpt>
      <trkpt lat="46.42773" lon="-0.18309">
        <ele>102.7</ele>
        <time>2020-05-30T19:55:41Z</time>
      </trkpt>
      <trkpt lat="46.42773" lon="-0.18309">
        <ele>102.7</ele>
        <time>2020-05-30T19:55:42Z</time>
      </trkpt>
      <trkpt lat="46.42773" lon="-0.18309">
        <ele>102.7</ele>
        <time>2020-05-30T19:55:43Z</time>
      </trkpt>
      <trkpt lat="46.42773" lon="-0.18309">
        <ele>102.7</ele>
        <time>2020-05-30T19:55:44Z</time>
      </trkpt>
      <trkpt lat="46.42773" lon="-0.18309">
        <ele>102.7</ele>
        <time>2020-05-30T19:55:45Z</time>
      </trkpt>
      <trkpt lat="46.42773" lon="-0.18309">
        <ele>102.7</ele>
        <time>2020-05-30T19:55:46Z</time>
      </trkpt>
      <trkpt lat="46.42773" lon="-0.18309">
        <ele>102.7</ele>
        <time>2020-05-30T19:55:47Z</time>
      </trkpt>
      <trkpt lat="46.42773" lon="-0.18309">
        <ele>102.7</ele>
        <time>2020-05-30T19:55:48Z</time>
      </trkpt>
      <trkpt lat="46.42773" lon="-0.18309">
        <ele>102.7</ele>
        <time>2020-05-30T19:55:49Z</time>
      </trkpt>
      <trkpt lat="46.42773" lon="-0.18309">
        <ele>102.7</ele>
        <time>2020-05-30T19:55:50Z</time>
      </trkpt>
      <trkpt lat="46.42773" lon="-0.18309">
        <ele>102.7</ele>
        <time>2020-05-30T19:55:51Z</time>
      </trkpt>
      <trkpt lat="46.42773" lon="-0.18309">
        <ele>102.7</ele>
        <time>2020-05-30T19:55:52Z</time>
      </trkpt>
      <trkpt lat="46.42773" lon="-0.18309">
        <ele>102.7</ele>
        <time>2020-05-30T19:55:53Z</time>
      </trkpt>
      <trkpt lat="46.42773" lon="-0.18309">
        <ele>102.7</ele>
        <time>2020-05-30T19:55:54Z</time>
      </trkpt>
      <trkpt lat="46.42773" lon="-0.18309">
        <ele>102.7</ele>
        <time>2020-05-30T19:55:55Z</time>
      </trkpt>
      <trkpt lat="46.42773" lon="-0.18309">
        <ele>102.7</ele>
        <time>2020-05-30T19:55:56Z</time>
      </trkpt>
      <trkpt lat="46.42773" lon="-0.18309">
        <ele>102.7</ele>
        <time>2020-05-30T19:55:57Z</time>
      </trkpt>
      <trkpt lat="46.42773" lon="-0.18309">
        <ele>102.7</ele>
        <time>2020-05-30T19:55:58Z</time>
      </trkpt>
      <trkpt lat="46.42773" lon="-0.18309">
        <ele>102.7</ele>
        <time>2020-05-30T19:55:59Z</time>
      </trkpt>
      <trkpt lat="46.42773" lon="-0.18309">
        <ele>102.7</ele>
        <time>2020-05-30T19:56:00Z</time>
      </trkpt>
      <trkpt lat="46.42773" lon="-0.18309">
        <ele>102.7</ele>
        <time>2020-05-30T19:56:01Z</time>
      </trkpt>
      <trkpt lat="46.42773" lon="-0.18309">
        <ele>102.7</ele>
        <time>2020-05-30T19:56:02Z</time>
      </trkpt>
      <trkpt lat="46.42773" lon="-0.18309">
        <ele>102.7</ele>
        <time>2020-05-30T19:56:03Z</time>
      </trkpt>
      <trkpt lat="46.42773" lon="-0.18309">
        <ele>102.7</ele>
        <time>2020-05-30T19:56:04Z</time>
      </trkpt>
      <trkpt lat="46.42773" lon="-0.18309">
        <ele>102.7</ele>
        <time>2020-05-30T19:56:05Z</time>
      </trkpt>
      <trkpt lat="46.42773" lon="-0.18309">
        <ele>102.7</ele>
        <time>2020-05-30T19:56:06Z</time>
      </trkpt>
      <trkpt lat="46.42773" lon="-0.18309">
        <ele>102.7</ele>
        <time>2020-05-30T19:56:07Z</time>
      </trkpt>
      <trkpt lat="46.42773" lon="-0.18309">
        <ele>102.7</ele>
        <time>2020-05-30T19:56:08Z</time>
      </trkpt>
      <trkpt lat="46.42773" lon="-0.18309">
        <ele>102.7</ele>
        <time>2020-05-30T19:56:09Z</time>
      </trkpt>
      <trkpt lat="46.42773" lon="-0.18309">
        <ele>102.7</ele>
        <time>2020-05-30T19:56:10Z</time>
      </trkpt>
      <trkpt lat="46.42773" lon="-0.18309">
        <ele>102.7</ele>
        <time>2020-05-30T19:56:11Z</time>
      </trkpt>
      <trkpt lat="46.42773" lon="-0.18309">
        <ele>102.7</ele>
        <time>2020-05-30T19:56:12Z</time>
      </trkpt>
      <trkpt lat="46.42773" lon="-0.18309">
        <ele>102.7</ele>
        <time>2020-05-30T19:56:13Z</time>
      </trkpt>
      <trkpt lat="46.42773" lon="-0.18309">
        <ele>102.7</ele>
        <time>2020-05-30T19:56:14Z</time>
      </trkpt>
      <trkpt lat="46.42773" lon="-0.18309">
        <ele>102.7</ele>
        <time>2020-05-30T19:56:15Z</time>
      </trkpt>
      <trkpt lat="46.42773" lon="-0.18309">
        <ele>102.7</ele>
        <time>2020-05-30T19:56:16Z</time>
      </trkpt>
      <trkpt lat="46.42773" lon="-0.18309">
        <ele>102.7</ele>
        <time>2020-05-30T19:56:17Z</time>
      </trkpt>
      <trkpt lat="46.42773" lon="-0.18309">
        <ele>102.7</ele>
        <time>2020-05-30T19:56:18Z</time>
      </trkpt>
      <trkpt lat="46.42773" lon="-0.18309">
        <ele>102.7</ele>
        <time>2020-05-30T19:56:19Z</time>
      </trkpt>
      <trkpt lat="46.42773" lon="-0.18309">
        <ele>102.7</ele>
        <time>2020-05-30T19:56:20Z</time>
      </trkpt>
      <trkpt lat="46.42773" lon="-0.18309">
        <ele>102.7</ele>
        <time>2020-05-30T19:56:21Z</time>
      </trkpt>
      <trkpt lat="46.42773" lon="-0.18309">
        <ele>102.7</ele>
        <time>2020-05-30T19:56:22Z</time>
      </trkpt>
      <trkpt lat="46.42773" lon="-0.18309">
        <ele>102.7</ele>
        <time>2020-05-30T19:56:23Z</time>
      </trkpt>
      <trkpt lat="46.42773" lon="-0.18309">
        <ele>102.7</ele>
        <time>2020-05-30T19:56:24Z</time>
      </trkpt>
      <trkpt lat="46.42773" lon="-0.18309">
        <ele>102.7</ele>
        <time>2020-05-30T19:56:25Z</time>
      </trkpt>
      <trkpt lat="46.42773" lon="-0.18309">
        <ele>102.7</ele>
        <time>2020-05-30T19:56:26Z</time>
      </trkpt>
      <trkpt lat="46.42773" lon="-0.18309">
        <ele>102.7</ele>
        <time>2020-05-30T19:56:27Z</time>
      </trkpt>
      <trkpt lat="46.42773" lon="-0.18309">
        <ele>102.7</ele>
        <time>2020-05-30T19:56:28Z</time>
      </trkpt>
      <trkpt lat="46.42773" lon="-0.18309">
        <ele>102.7</ele>
        <time>2020-05-30T19:56:29Z</time>
      </trkpt>
      <trkpt lat="46.42773" lon="-0.18309">
        <ele>102.7</ele>
        <time>2020-05-30T19:56:30Z</time>
      </trkpt>
      <trkpt lat="46.42773" lon="-0.18309">
        <ele>102.7</ele>
        <time>2020-05-30T19:56:31Z</time>
      </trkpt>
      <trkpt lat="46.42773" lon="-0.18309">
        <ele>102.7</ele>
        <time>2020-05-30T19:56:32Z</time>
      </trkpt>
      <trkpt lat="46.42773" lon="-0.18309">
        <ele>102.7</ele>
        <time>2020-05-30T19:56:33Z</time>
      </trkpt>
      <trkpt lat="46.42773" lon="-0.18309">
        <ele>102.7</ele>
        <time>2020-05-30T19:56:34Z</time>
      </trkpt>
      <trkpt lat="46.42773" lon="-0.18309">
        <ele>102.7</ele>
        <time>2020-05-30T19:56:35Z</time>
      </trkpt>
      <trkpt lat="46.42773" lon="-0.18309">
        <ele>102.7</ele>
        <time>2020-05-30T19:56:36Z</time>
      </trkpt>
      <trkpt lat="46.42773" lon="-0.18309">
        <ele>102.7</ele>
        <time>2020-05-30T19:56:37Z</time>
      </trkpt>
      <trkpt lat="46.42773" lon="-0.18309">
        <ele>102.7</ele>
        <time>2020-05-30T19:56:38Z</time>
      </trkpt>
      <trkpt lat="46.42773" lon="-0.18309">
        <ele>102.7</ele>
        <time>2020-05-30T19:56:39Z</time>
      </trkpt>
      <trkpt lat="46.42773" lon="-0.18309">
        <ele>102.7</ele>
        <time>2020-05-30T19:56:40Z</time>
      </trkpt>
      <trkpt lat="46.42773" lon="-0.18309">
        <ele>102.7</ele>
        <time>2020-05-30T19:56:41Z</time>
      </trkpt>
      <trkpt lat="46.42773" lon="-0.18309">
        <ele>102.7</ele>
        <time>2020-05-30T19:56:42Z</time>
      </trkpt>
      <trkpt lat="46.42773" lon="-0.18309">
        <ele>102.7</ele>
        <time>2020-05-30T19:56:43Z</time>
      </trkpt>
      <trkpt lat="46.42773" lon="-0.18309">
        <ele>102.7</ele>
        <time>2020-05-30T19:56:44Z</time>
      </trkpt>
      <trkpt lat="46.42773" lon="-0.18309">
        <ele>102.7</ele>
        <time>2020-05-30T19:56:45Z</time>
      </trkpt>
      <trkpt lat="46.42773" lon="-0.18309">
        <ele>102.7</ele>
        <time>2020-05-30T19:56:46Z</time>
      </trkpt>
      <trkpt lat="46.42773" lon="-0.18309">
        <ele>102.7</ele>
        <time>2020-05-30T19:56:47Z</time>
      </trkpt>
      <trkpt lat="46.42773" lon="-0.18309">
        <ele>102.7</ele>
        <time>2020-05-30T19:56:48Z</time>
      </trkpt>
      <trkpt lat="46.42773" lon="-0.18309">
        <ele>102.7</ele>
        <time>2020-05-30T19:56:49Z</time>
      </trkpt>
      <trkpt lat="46.42773" lon="-0.18309">
        <ele>102.7</ele>
        <time>2020-05-30T19:56:50Z</time>
      </trkpt>
      <trkpt lat="46.42773" lon="-0.18309">
        <ele>102.7</ele>
        <time>2020-05-30T19:56:51Z</time>
      </trkpt>
      <trkpt lat="46.42773" lon="-0.18309">
        <ele>102.7</ele>
        <time>2020-05-30T19:56:52Z</time>
      </trkpt>
      <trkpt lat="46.42773" lon="-0.18309">
        <ele>102.7</ele>
        <time>2020-05-30T19:56:53Z</time>
      </trkpt>
      <trkpt lat="46.42773" lon="-0.18309">
        <ele>102.7</ele>
        <time>2020-05-30T19:56:54Z</time>
      </trkpt>
      <trkpt lat="46.42773" lon="-0.18309">
        <ele>102.7</ele>
        <time>2020-05-30T19:56:55Z</time>
      </trkpt>
      <trkpt lat="46.42773" lon="-0.18309">
        <ele>102.7</ele>
        <time>2020-05-30T19:56:56Z</time>
      </trkpt>
      <trkpt lat="46.42773" lon="-0.18309">
        <ele>102.7</ele>
        <time>2020-05-30T19:56:57Z</time>
      </trkpt>
      <trkpt lat="46.42773" lon="-0.18309">
        <ele>102.7</ele>
        <time>2020-05-30T19:56:58Z</time>
      </trkpt>
      <trkpt lat="46.42773" lon="-0.18309">
        <ele>102.7</ele>
        <time>2020-05-30T19:56:59Z</time>
      </trkpt>
      <trkpt lat="46.42773" lon="-0.18309">
        <ele>102.7</ele>
        <time>2020-05-30T19:57:00Z</time>
      </trkpt>
      <trkpt lat="46.42773" lon="-0.18309">
        <ele>102.7</ele>
        <time>2020-05-30T19:57:01Z</time>
      </trkpt>
      <trkpt lat="46.42773" lon="-0.18309">
        <ele>102.7</ele>
        <time>2020-05-30T19:57:02Z</time>
      </trkpt>
      <trkpt lat="46.42773" lon="-0.18309">
        <ele>102.7</ele>
        <time>2020-05-30T19:57:03Z</time>
      </trkpt>
      <trkpt lat="46.42773" lon="-0.18309">
        <ele>102.7</ele>
        <time>2020-05-30T19:57:04Z</time>
      </trkpt>
      <trkpt lat="46.42773" lon="-0.18309">
        <ele>102.7</ele>
        <time>2020-05-30T19:57:05Z</time>
      </trkpt>
      <trkpt lat="46.42773" lon="-0.18309">
        <ele>102.7</ele>
        <time>2020-05-30T19:57:06Z</time>
      </trkpt>
      <trkpt lat="46.42773" lon="-0.18309">
        <ele>102.7</ele>
        <time>2020-05-30T19:57:07Z</time>
      </trkpt>
      <trkpt lat="46.42773" lon="-0.18309">
        <ele>102.7</ele>
        <time>2020-05-30T19:57:08Z</time>
      </trkpt>
      <trkpt lat="46.42773" lon="-0.18309">
        <ele>102.7</ele>
        <time>2020-05-30T19:57:09Z</time>
      </trkpt>
      <trkpt lat="46.42773" lon="-0.18309">
        <ele>102.7</ele>
        <time>2020-05-30T19:57:10Z</time>
      </trkpt>
      <trkpt lat="46.42773" lon="-0.18309">
        <ele>102.7</ele>
        <time>2020-05-30T19:57:11Z</time>
      </trkpt>
      <trkpt lat="46.42773" lon="-0.18309">
        <ele>102.7</ele>
        <time>2020-05-30T19:57:12Z</time>
      </trkpt>
      <trkpt lat="46.42773" lon="-0.18309">
        <ele>102.7</ele>
        <time>2020-05-30T19:57:13Z</time>
      </trkpt>
      <trkpt lat="46.42773" lon="-0.18309">
        <ele>102.7</ele>
        <time>2020-05-30T19:57:14Z</time>
      </trkpt>
      <trkpt lat="46.42773" lon="-0.18309">
        <ele>102.7</ele>
        <time>2020-05-30T19:57:15Z</time>
      </trkpt>
      <trkpt lat="46.42773" lon="-0.18309">
        <ele>102.7</ele>
        <time>2020-05-30T19:57:16Z</time>
      </trkpt>
      <trkpt lat="46.42773" lon="-0.18309">
        <ele>102.7</ele>
        <time>2020-05-30T19:57:17Z</time>
      </trkpt>
      <trkpt lat="46.42773" lon="-0.18309">
        <ele>102.7</ele>
        <time>2020-05-30T19:57:18Z</time>
      </trkpt>
      <trkpt lat="46.42773" lon="-0.18309">
        <ele>102.7</ele>
        <time>2020-05-30T19:57:19Z</time>
      </trkpt>
      <trkpt lat="46.42773" lon="-0.18309">
        <ele>102.7</ele>
        <time>2020-05-30T19:57:20Z</time>
      </trkpt>
      <trkpt lat="46.42773" lon="-0.18309">
        <ele>102.7</ele>
        <time>2020-05-30T19:57:21Z</time>
      </trkpt>
      <trkpt lat="46.42773" lon="-0.18309">
        <ele>102.7</ele>
        <time>2020-05-30T19:57:22Z</time>
      </trkpt>
      <trkpt lat="46.42773" lon="-0.18309">
        <ele>102.7</ele>
        <time>2020-05-30T19:57:23Z</time>
      </trkpt>
      <trkpt lat="46.42773" lon="-0.18309">
        <ele>102.7</ele>
        <time>2020-05-30T19:57:24Z</time>
      </trkpt>
      <trkpt lat="46.42773" lon="-0.18309">
        <ele>102.7</ele>
        <time>2020-05-30T19:57:25Z</time>
      </trkpt>
      <trkpt lat="46.42773" lon="-0.18309">
        <ele>102.7</ele>
        <time>2020-05-30T19:57:26Z</time>
      </trkpt>
      <trkpt lat="46.42773" lon="-0.18309">
        <ele>102.7</ele>
        <time>2020-05-30T19:57:27Z</time>
      </trkpt>
      <trkpt lat="46.42773" lon="-0.18309">
        <ele>102.7</ele>
        <time>2020-05-30T19:57:28Z</time>
      </trkpt>
      <trkpt lat="46.42773" lon="-0.18309">
        <ele>102.7</ele>
        <time>2020-05-30T19:57:29Z</time>
      </trkpt>
      <trkpt lat="46.42773" lon="-0.18309">
        <ele>102.7</ele>
        <time>2020-05-30T19:57:30Z</time>
      </trkpt>
      <trkpt lat="46.42773" lon="-0.18309">
        <ele>102.7</ele>
        <time>2020-05-30T19:57:31Z</time>
      </trkpt>
      <trkpt lat="46.42773" lon="-0.18309">
        <ele>102.7</ele>
        <time>2020-05-30T19:57:32Z</time>
      </trkpt>
      <trkpt lat="46.42773" lon="-0.18309">
        <ele>102.7</ele>
        <time>2020-05-30T19:57:33Z</time>
      </trkpt>
      <trkpt lat="46.42773" lon="-0.18309">
        <ele>102.7</ele>
        <time>2020-05-30T19:57:34Z</time>
      </trkpt>
      <trkpt lat="46.42773" lon="-0.18309">
        <ele>102.7</ele>
        <time>2020-05-30T19:57:35Z</time>
      </trkpt>
      <trkpt lat="46.42773" lon="-0.18309">
        <ele>102.7</ele>
        <time>2020-05-30T19:57:36Z</time>
      </trkpt>
      <trkpt lat="46.42773" lon="-0.18309">
        <ele>102.7</ele>
        <time>2020-05-30T19:57:37Z</time>
      </trkpt>
      <trkpt lat="46.42773" lon="-0.18309">
        <ele>102.7</ele>
        <time>2020-05-30T19:57:38Z</time>
      </trkpt>
      <trkpt lat="46.42773" lon="-0.18309">
        <ele>102.7</ele>
        <time>2020-05-30T19:57:39Z</time>
      </trkpt>
      <trkpt lat="46.42773" lon="-0.18309">
        <ele>102.7</ele>
        <time>2020-05-30T19:57:40Z</time>
      </trkpt>
      <trkpt lat="46.42773" lon="-0.18309">
        <ele>102.7</ele>
        <time>2020-05-30T19:57:41Z</time>
      </trkpt>
      <trkpt lat="46.42773" lon="-0.18309">
        <ele>102.7</ele>
        <time>2020-05-30T19:57:42Z</time>
      </trkpt>
      <trkpt lat="46.42773" lon="-0.18309">
        <ele>102.7</ele>
        <time>2020-05-30T19:57:43Z</time>
      </trkpt>
      <trkpt lat="46.42773" lon="-0.18309">
        <ele>102.7</ele>
        <time>2020-05-30T19:57:44Z</time>
      </trkpt>
      <trkpt lat="46.42773" lon="-0.18309">
        <ele>102.7</ele>
        <time>2020-05-30T19:57:45Z</time>
      </trkpt>
      <trkpt lat="46.42773" lon="-0.18309">
        <ele>102.7</ele>
        <time>2020-05-30T19:57:46Z</time>
      </trkpt>
      <trkpt lat="46.42773" lon="-0.18309">
        <ele>102.7</ele>
        <time>2020-05-30T19:57:47Z</time>
      </trkpt>
      <trkpt lat="46.42773" lon="-0.18309">
        <ele>102.7</ele>
        <time>2020-05-30T19:57:48Z</time>
      </trkpt>
      <trkpt lat="46.42773" lon="-0.18309">
        <ele>102.7</ele>
        <time>2020-05-30T19:57:49Z</time>
      </trkpt>
      <trkpt lat="46.4277" lon="-0.18309">
        <ele>102.7</ele>
        <time>2020-05-30T19:57:50Z</time>
      </trkpt>
      <trkpt lat="46.4277" lon="-0.18309">
        <ele>102.7</ele>
        <time>2020-05-30T19:57:51Z</time>
      </trkpt>
      <trkpt lat="46.42771" lon="-0.18309">
        <ele>102.7</ele>
        <time>2020-05-30T19:57:52Z</time>
      </trkpt>
      <trkpt lat="46.4277" lon="-0.18309">
        <ele>102.7</ele>
        <time>2020-05-30T19:57:53Z</time>
      </trkpt>
      <trkpt lat="46.4277" lon="-0.18308">
        <ele>102.7</ele>
        <time>2020-05-30T19:57:54Z</time>
      </trkpt>
      <trkpt lat="46.4277" lon="-0.18308">
        <ele>102.7</ele>
        <time>2020-05-30T19:57:55Z</time>
      </trkpt>
      <trkpt lat="46.42771" lon="-0.18307">
        <ele>102.7</ele>
        <time>2020-05-30T19:57:56Z</time>
      </trkpt>
      <trkpt lat="46.42771" lon="-0.18307">
        <ele>102.7</ele>
        <time>2020-05-30T19:57:57Z</time>
      </trkpt>
      <trkpt lat="46.42771" lon="-0.18307">
        <ele>102.7</ele>
        <time>2020-05-30T19:57:58Z</time>
      </trkpt>
      <trkpt lat="46.42771" lon="-0.18308">
        <ele>102.7</ele>
        <time>2020-05-30T19:57:59Z</time>
      </trkpt>
      <trkpt lat="46.42771" lon="-0.18308">
        <ele>102.7</ele>
        <time>2020-05-30T19:58:00Z</time>
      </trkpt>
      <trkpt lat="46.42771" lon="-0.18308">
        <ele>102.7</ele>
        <time>2020-05-30T19:58:01Z</time>
      </trkpt>
      <trkpt lat="46.42771" lon="-0.18309">
        <ele>102.7</ele>
        <time>2020-05-30T19:58:02Z</time>
      </trkpt>
      <trkpt lat="46.42771" lon="-0.18309">
        <ele>102.7</ele>
        <time>2020-05-30T19:58:03Z</time>
      </trkpt>
      <trkpt lat="46.42771" lon="-0.18309">
        <ele>102.7</ele>
        <time>2020-05-30T19:58:04Z</time>
      </trkpt>
      <trkpt lat="46.42771" lon="-0.18309">
        <ele>102.7</ele>
        <time>2020-05-30T19:58:05Z</time>
      </trkpt>
      <trkpt lat="46.42771" lon="-0.18309">
        <ele>102.7</ele>
        <time>2020-05-30T19:58:06Z</time>
      </trkpt>
      <trkpt lat="46.42771" lon="-0.18308">
        <ele>102.7</ele>
        <time>2020-05-30T19:58:07Z</time>
      </trkpt>
      <trkpt lat="46.42771" lon="-0.18308">
        <ele>102.7</ele>
        <time>2020-05-30T19:58:08Z</time>
      </trkpt>
      <trkpt lat="46.42771" lon="-0.18308">
        <ele>102.7</ele>
        <time>2020-05-30T19:58:09Z</time>
      </trkpt>
      <trkpt lat="46.42771" lon="-0.1831">
        <ele>102.7</ele>
        <time>2020-05-30T19:58:10Z</time>
      </trkpt>
      <trkpt lat="46.4277" lon="-0.18311">
        <ele>102.7</ele>
        <time>2020-05-30T19:58:11Z</time>
      </trkpt>
      <trkpt lat="46.4277" lon="-0.18311">
        <ele>102.7</ele>
        <time>2020-05-30T19:58:12Z</time>
      </trkpt>
      <trkpt lat="46.4277" lon="-0.18312">
        <ele>102.7</ele>
        <time>2020-05-30T19:58:13Z</time>
      </trkpt>
      <trkpt lat="46.4277" lon="-0.18313">
        <ele>102.7</ele>
        <time>2020-05-30T19:58:14Z</time>
      </trkpt>
      <trkpt lat="46.4277" lon="-0.18313">
        <ele>102.7</ele>
        <time>2020-05-30T19:58:15Z</time>
      </trkpt>
      <trkpt lat="46.4277" lon="-0.18312">
        <ele>102.7</ele>
        <time>2020-05-30T19:58:16Z</time>
      </trkpt>
      <trkpt lat="46.4277" lon="-0.18312">
        <ele>102.7</ele>
        <time>2020-05-30T19:58:17Z</time>
      </trkpt>
      <trkpt lat="46.4277" lon="-0.18312">
        <ele>102.7</ele>
        <time>2020-05-30T19:58:18Z</time>
      </trkpt>
      <trkpt lat="46.4277" lon="-0.18312">
        <ele>102.7</ele>
        <time>2020-05-30T19:58:19Z</time>
      </trkpt>
      <trkpt lat="46.4277" lon="-0.18312">
        <ele>102.7</ele>
        <time>2020-05-30T19:58:20Z</time>
      </trkpt>
      <trkpt lat="46.4277" lon="-0.18311">
        <ele>102.7</ele>
        <time>2020-05-30T19:58:21Z</time>
      </trkpt>
      <trkpt lat="46.4277" lon="-0.18311">
        <ele>102.7</ele>
        <time>2020-05-30T19:58:22Z</time>
      </trkpt>
      <trkpt lat="46.4277" lon="-0.18311">
        <ele>102.7</ele>
        <time>2020-05-30T19:58:23Z</time>
      </trkpt>
      <trkpt lat="46.42769" lon="-0.18311">
        <ele>102.7</ele>
        <time>2020-05-30T19:58:24Z</time>
      </trkpt>
      <trkpt lat="46.4277" lon="-0.18311">
        <ele>102.7</ele>
        <time>2020-05-30T19:58:25Z</time>
      </trkpt>
      <trkpt lat="46.42769" lon="-0.18311">
        <ele>102.7</ele>
        <time>2020-05-30T19:58:26Z</time>
      </trkpt>
      <trkpt lat="46.4277" lon="-0.18311">
        <ele>102.7</ele>
        <time>2020-05-30T19:58:27Z</time>
      </trkpt>
      <trkpt lat="46.4277" lon="-0.18311">
        <ele>102.7</ele>
        <time>2020-05-30T19:58:28Z</time>
      </trkpt>
      <trkpt lat="46.4277" lon="-0.18311">
        <ele>102.7</ele>
        <time>2020-05-30T19:58:29Z</time>
      </trkpt>
      <trkpt lat="46.4277" lon="-0.18311">
        <ele>102.7</ele>
        <time>2020-05-30T19:58:30Z</time>
      </trkpt>
      <trkpt lat="46.4277" lon="-0.18311">
        <ele>102.7</ele>
        <time>2020-05-30T19:58:31Z</time>
      </trkpt>
      <trkpt lat="46.4277" lon="-0.18311">
        <ele>102.7</ele>
        <time>2020-05-30T19:58:32Z</time>
      </trkpt>
      <trkpt lat="46.4277" lon="-0.18311">
        <ele>102.7</ele>
        <time>2020-05-30T19:58:33Z</time>
      </trkpt>
      <trkpt lat="46.4277" lon="-0.18311">
        <ele>102.7</ele>
        <time>2020-05-30T19:58:34Z</time>
      </trkpt>
      <trkpt lat="46.4277" lon="-0.1831">
        <ele>102.7</ele>
        <time>2020-05-30T19:58:35Z</time>
      </trkpt>
      <trkpt lat="46.42769" lon="-0.1831">
        <ele>102.7</ele>
        <time>2020-05-30T19:58:36Z</time>
      </trkpt>
      <trkpt lat="46.42769" lon="-0.1831">
        <ele>102.7</ele>
        <time>2020-05-30T19:58:37Z</time>
      </trkpt>
      <trkpt lat="46.42769" lon="-0.1831">
        <ele>102.7</ele>
        <time>2020-05-30T19:58:38Z</time>
      </trkpt>
      <trkpt lat="46.42769" lon="-0.1831">
        <ele>102.7</ele>
        <time>2020-05-30T19:58:39Z</time>
      </trkpt>
      <trkpt lat="46.42769" lon="-0.1831">
        <ele>102.7</ele>
        <time>2020-05-30T19:58:40Z</time>
      </trkpt>
      <trkpt lat="46.42769" lon="-0.1831">
        <ele>102.7</ele>
        <time>2020-05-30T19:58:41Z</time>
      </trkpt>
      <trkpt lat="46.42769" lon="-0.1831">
        <ele>102.7</ele>
        <time>2020-05-30T19:58:42Z</time>
      </trkpt>
      <trkpt lat="46.42769" lon="-0.1831">
        <ele>102.7</ele>
        <time>2020-05-30T19:58:43Z</time>
      </trkpt>
      <trkpt lat="46.4277" lon="-0.1831">
        <ele>102.7</ele>
        <time>2020-05-30T19:58:44Z</time>
      </trkpt>
      <trkpt lat="46.4277" lon="-0.1831">
        <ele>102.7</ele>
        <time>2020-05-30T19:58:45Z</time>
      </trkpt>
      <trkpt lat="46.4277" lon="-0.1831">
        <ele>102.7</ele>
        <time>2020-05-30T19:58:46Z</time>
      </trkpt>
      <trkpt lat="46.4277" lon="-0.1831">
        <ele>102.7</ele>
        <time>2020-05-30T19:58:47Z</time>
      </trkpt>
      <trkpt lat="46.4277" lon="-0.1831">
        <ele>102.7</ele>
        <time>2020-05-30T19:58:48Z</time>
      </trkpt>
      <trkpt lat="46.42771" lon="-0.1831">
        <ele>102.7</ele>
        <time>2020-05-30T19:58:49Z</time>
      </trkpt>
      <trkpt lat="46.4277" lon="-0.18309">
        <ele>102.7</ele>
        <time>2020-05-30T19:58:50Z</time>
      </trkpt>
      <trkpt lat="46.4277" lon="-0.18309">
        <ele>102.7</ele>
        <time>2020-05-30T19:58:51Z</time>
      </trkpt>
      <trkpt lat="46.4277" lon="-0.18309">
        <ele>102.7</ele>
        <time>2020-05-30T19:58:52Z</time>
      </trkpt>
      <trkpt lat="46.4277" lon="-0.18309">
        <ele>102.7</ele>
        <time>2020-05-30T19:58:53Z</time>
      </trkpt>
      <trkpt lat="46.4277" lon="-0.18309">
        <ele>102.7</ele>
        <time>2020-05-30T19:58:54Z</time>
      </trkpt>
      <trkpt lat="46.4277" lon="-0.18309">
        <ele>102.7</ele>
        <time>2020-05-30T19:58:55Z</time>
      </trkpt>
      <trkpt lat="46.42769" lon="-0.18308">
        <ele>102.7</ele>
        <time>2020-05-30T19:58:56Z</time>
      </trkpt>
      <trkpt lat="46.42769" lon="-0.18308">
        <ele>102.7</ele>
        <time>2020-05-30T19:58:57Z</time>
      </trkpt>
      <trkpt lat="46.42769" lon="-0.18308">
        <ele>102.7</ele>
        <time>2020-05-30T19:58:58Z</time>
      </trkpt>
      <trkpt lat="46.4277" lon="-0.18307">
        <ele>102.7</ele>
        <time>2020-05-30T19:58:59Z</time>
      </trkpt>
      <trkpt lat="46.4277" lon="-0.18307">
        <ele>102.7</ele>
        <time>2020-05-30T19:59:00Z</time>
      </trkpt>
      <trkpt lat="46.42771" lon="-0.18308">
        <ele>102.7</ele>
        <time>2020-05-30T19:59:01Z</time>
      </trkpt>
      <trkpt lat="46.42771" lon="-0.18308">
        <ele>102.7</ele>
        <time>2020-05-30T19:59:02Z</time>
      </trkpt>
      <trkpt lat="46.42772" lon="-0.18308">
        <ele>102.7</ele>
        <time>2020-05-30T19:59:03Z</time>
      </trkpt>
      <trkpt lat="46.42772" lon="-0.18308">
        <ele>102.7</ele>
        <time>2020-05-30T19:59:04Z</time>
      </trkpt>
      <trkpt lat="46.42772" lon="-0.18308">
        <ele>102.7</ele>
        <time>2020-05-30T19:59:05Z</time>
      </trkpt>
      <trkpt lat="46.42772" lon="-0.18308">
        <ele>102.7</ele>
        <time>2020-05-30T19:59:06Z</time>
      </trkpt>
      <trkpt lat="46.42772" lon="-0.18308">
        <ele>102.7</ele>
        <time>2020-05-30T19:59:07Z</time>
      </trkpt>
      <trkpt lat="46.42772" lon="-0.18308">
        <ele>102.7</ele>
        <time>2020-05-30T19:59:08Z</time>
      </trkpt>
      <trkpt lat="46.42772" lon="-0.18308">
        <ele>102.7</ele>
        <time>2020-05-30T19:59:09Z</time>
      </trkpt>
      <trkpt lat="46.42772" lon="-0.18308">
        <ele>102.7</ele>
        <time>2020-05-30T19:59:10Z</time>
      </trkpt>
      <trkpt lat="46.42771" lon="-0.18309">
        <ele>102.7</ele>
        <time>2020-05-30T19:59:11Z</time>
      </trkpt>
      <trkpt lat="46.42771" lon="-0.1831">
        <ele>102.7</ele>
        <time>2020-05-30T19:59:12Z</time>
      </trkpt>
      <trkpt lat="46.42771" lon="-0.18311">
        <ele>102.7</ele>
        <time>2020-05-30T19:59:13Z</time>
      </trkpt>
      <trkpt lat="46.42771" lon="-0.18311">
        <ele>102.7</ele>
        <time>2020-05-30T19:59:14Z</time>
      </trkpt>
      <trkpt lat="46.42771" lon="-0.18312">
        <ele>102.7</ele>
        <time>2020-05-30T19:59:15Z</time>
      </trkpt>
      <trkpt lat="46.42771" lon="-0.18312">
        <ele>102.7</ele>
        <time>2020-05-30T19:59:16Z</time>
      </trkpt>
      <trkpt lat="46.42771" lon="-0.18312">
        <ele>102.7</ele>
        <time>2020-05-30T19:59:17Z</time>
      </trkpt>
      <trkpt lat="46.42771" lon="-0.18311">
        <ele>102.7</ele>
        <time>2020-05-30T19:59:18Z</time>
      </trkpt>
      <trkpt lat="46.42771" lon="-0.18311">
        <ele>102.7</ele>
        <time>2020-05-30T19:59:19Z</time>
      </trkpt>
      <trkpt lat="46.42771" lon="-0.18311">
        <ele>102.7</ele>
        <time>2020-05-30T19:59:20Z</time>
      </trkpt>
      <trkpt lat="46.42771" lon="-0.18311">
        <ele>102.7</ele>
        <time>2020-05-30T19:59:21Z</time>
      </trkpt>
      <trkpt lat="46.42771" lon="-0.18311">
        <ele>102.7</ele>
        <time>2020-05-30T19:59:22Z</time>
      </trkpt>
      <trkpt lat="46.42771" lon="-0.18311">
        <ele>102.7</ele>
        <time>2020-05-30T19:59:23Z</time>
      </trkpt>
      <trkpt lat="46.42771" lon="-0.18311">
        <ele>102.7</ele>
        <time>2020-05-30T19:59:24Z</time>
      </trkpt>
      <trkpt lat="46.42771" lon="-0.18311">
        <ele>102.7</ele>
        <time>2020-05-30T19:59:25Z</time>
      </trkpt>
      <trkpt lat="46.42771" lon="-0.18311">
        <ele>102.7</ele>
        <time>2020-05-30T19:59:26Z</time>
      </trkpt>
      <trkpt lat="46.42771" lon="-0.18311">
        <ele>102.7</ele>
        <time>2020-05-30T19:59:27Z</time>
      </trkpt>
      <trkpt lat="46.42771" lon="-0.18311">
        <ele>102.7</ele>
        <time>2020-05-30T19:59:28Z</time>
      </trkpt>
      <trkpt lat="46.42771" lon="-0.18311">
        <ele>102.7</ele>
        <time>2020-05-30T19:59:29Z</time>
      </trkpt>
      <trkpt lat="46.42771" lon="-0.18311">
        <ele>102.7</ele>
        <time>2020-05-30T19:59:30Z</time>
      </trkpt>
      <trkpt lat="46.42771" lon="-0.18311">
        <ele>102.7</ele>
        <time>2020-05-30T19:59:31Z</time>
      </trkpt>
      <trkpt lat="46.42771" lon="-0.18311">
        <ele>102.7</ele>
        <time>2020-05-30T19:59:32Z</time>
      </trkpt>
      <trkpt lat="46.42771" lon="-0.18311">
        <ele>102.7</ele>
        <time>2020-05-30T19:59:33Z</time>
      </trkpt>
      <trkpt lat="46.42771" lon="-0.18311">
        <ele>102.7</ele>
        <time>2020-05-30T19:59:34Z</time>
      </trkpt>
      <trkpt lat="46.42771" lon="-0.18311">
        <ele>102.7</ele>
        <time>2020-05-30T19:59:35Z</time>
      </trkpt>
      <trkpt lat="46.42771" lon="-0.1831">
        <ele>102.7</ele>
        <time>2020-05-30T19:59:36Z</time>
      </trkpt>
      <trkpt lat="46.42771" lon="-0.18311">
        <ele>102.7</ele>
        <time>2020-05-30T19:59:37Z</time>
      </trkpt>
      <trkpt lat="46.42771" lon="-0.18312">
        <ele>102.7</ele>
        <time>2020-05-30T19:59:38Z</time>
      </trkpt>
      <trkpt lat="46.42771" lon="-0.18312">
        <ele>102.7</ele>
        <time>2020-05-30T19:59:39Z</time>
      </trkpt>
      <trkpt lat="46.42771" lon="-0.18312">
        <ele>102.7</ele>
        <time>2020-05-30T19:59:40Z</time>
      </trkpt>
      <trkpt lat="46.42771" lon="-0.18312">
        <ele>102.7</ele>
        <time>2020-05-30T19:59:41Z</time>
      </trkpt>
      <trkpt lat="46.42771" lon="-0.18312">
        <ele>102.7</ele>
        <time>2020-05-30T19:59:42Z</time>
      </trkpt>
      <trkpt lat="46.42771" lon="-0.18312">
        <ele>102.7</ele>
        <time>2020-05-30T19:59:43Z</time>
      </trkpt>
      <trkpt lat="46.42771" lon="-0.18312">
        <ele>102.7</ele>
        <time>2020-05-30T19:59:44Z</time>
      </trkpt>
      <trkpt lat="46.42771" lon="-0.18312">
        <ele>102.7</ele>
        <time>2020-05-30T19:59:45Z</time>
      </trkpt>
      <trkpt lat="46.42771" lon="-0.18312">
        <ele>102.7</ele>
        <time>2020-05-30T19:59:46Z</time>
      </trkpt>
      <trkpt lat="46.42771" lon="-0.18312">
        <ele>102.7</ele>
        <time>2020-05-30T19:59:47Z</time>
      </trkpt>
      <trkpt lat="46.42771" lon="-0.18312">
        <ele>102.7</ele>
        <time>2020-05-30T19:59:48Z</time>
      </trkpt>
      <trkpt lat="46.42771" lon="-0.18312">
        <ele>102.7</ele>
        <time>2020-05-30T19:59:49Z</time>
      </trkpt>
      <trkpt lat="46.42771" lon="-0.18312">
        <ele>102.7</ele>
        <time>2020-05-30T19:59:50Z</time>
      </trkpt>
      <trkpt lat="46.42771" lon="-0.18312">
        <ele>102.7</ele>
        <time>2020-05-30T19:59:51Z</time>
      </trkpt>
      <trkpt lat="46.42771" lon="-0.18312">
        <ele>102.7</ele>
        <time>2020-05-30T19:59:52Z</time>
      </trkpt>
      <trkpt lat="46.42771" lon="-0.18312">
        <ele>102.7</ele>
        <time>2020-05-30T19:59:53Z</time>
      </trkpt>
      <trkpt lat="46.42771" lon="-0.18312">
        <ele>102.7</ele>
        <time>2020-05-30T19:59:54Z</time>
      </trkpt>
      <trkpt lat="46.42771" lon="-0.18312">
        <ele>102.7</ele>
        <time>2020-05-30T19:59:55Z</time>
      </trkpt>
      <trkpt lat="46.42771" lon="-0.18312">
        <ele>102.7</ele>
        <time>2020-05-30T19:59:56Z</time>
      </trkpt>
      <trkpt lat="46.42771" lon="-0.18312">
        <ele>102.7</ele>
        <time>2020-05-30T19:59:57Z</time>
      </trkpt>
      <trkpt lat="46.42771" lon="-0.18312">
        <ele>102.7</ele>
        <time>2020-05-30T19:59:58Z</time>
      </trkpt>
      <trkpt lat="46.42771" lon="-0.18312">
        <ele>102.7</ele>
        <time>2020-05-30T19:59:59Z</time>
      </trkpt>
      <trkpt lat="46.42771" lon="-0.18312">
        <ele>102.7</ele>
        <time>2020-05-30T20:00:00Z</time>
      </trkpt>
      <trkpt lat="46.42771" lon="-0.18312">
        <ele>102.7</ele>
        <time>2020-05-30T20:00:01Z</time>
      </trkpt>
      <trkpt lat="46.42771" lon="-0.18312">
        <ele>102.7</ele>
        <time>2020-05-30T20:00:02Z</time>
      </trkpt>
      <trkpt lat="46.42771" lon="-0.18312">
        <ele>102.7</ele>
        <time>2020-05-30T20:00:03Z</time>
      </trkpt>
      <trkpt lat="46.42771" lon="-0.18312">
        <ele>102.7</ele>
        <time>2020-05-30T20:00:04Z</time>
      </trkpt>
      <trkpt lat="46.42771" lon="-0.18312">
        <ele>102.7</ele>
        <time>2020-05-30T20:00:05Z</time>
      </trkpt>
      <trkpt lat="46.42771" lon="-0.18312">
        <ele>102.7</ele>
        <time>2020-05-30T20:00:06Z</time>
      </trkpt>
      <trkpt lat="46.42771" lon="-0.18312">
        <ele>102.7</ele>
        <time>2020-05-30T20:00:07Z</time>
      </trkpt>
      <trkpt lat="46.42771" lon="-0.18312">
        <ele>102.7</ele>
        <time>2020-05-30T20:00:08Z</time>
      </trkpt>
      <trkpt lat="46.42771" lon="-0.18312">
        <ele>102.7</ele>
        <time>2020-05-30T20:00:09Z</time>
      </trkpt>
      <trkpt lat="46.42771" lon="-0.18312">
        <ele>102.7</ele>
        <time>2020-05-30T20:00:10Z</time>
      </trkpt>
      <trkpt lat="46.42771" lon="-0.18312">
        <ele>102.7</ele>
        <time>2020-05-30T20:00:11Z</time>
      </trkpt>
      <trkpt lat="46.42771" lon="-0.18312">
        <ele>102.7</ele>
        <time>2020-05-30T20:00:12Z</time>
      </trkpt>
      <trkpt lat="46.42771" lon="-0.18312">
        <ele>102.7</ele>
        <time>2020-05-30T20:00:13Z</time>
      </trkpt>
      <trkpt lat="46.42771" lon="-0.18312">
        <ele>102.7</ele>
        <time>2020-05-30T20:00:14Z</time>
      </trkpt>
      <trkpt lat="46.42771" lon="-0.18312">
        <ele>102.7</ele>
        <time>2020-05-30T20:00:15Z</time>
      </trkpt>
      <trkpt lat="46.42771" lon="-0.18312">
        <ele>102.7</ele>
        <time>2020-05-30T20:00:16Z</time>
      </trkpt>
      <trkpt lat="46.42771" lon="-0.18312">
        <ele>102.7</ele>
        <time>2020-05-30T20:00:17Z</time>
      </trkpt>
      <trkpt lat="46.42771" lon="-0.18312">
        <ele>102.7</ele>
        <time>2020-05-30T20:00:18Z</time>
      </trkpt>
      <trkpt lat="46.42771" lon="-0.18312">
        <ele>102.7</ele>
        <time>2020-05-30T20:00:19Z</time>
      </trkpt>
      <trkpt lat="46.42771" lon="-0.18312">
        <ele>102.7</ele>
        <time>2020-05-30T20:00:20Z</time>
      </trkpt>
      <trkpt lat="46.42771" lon="-0.18312">
        <ele>102.7</ele>
        <time>2020-05-30T20:00:21Z</time>
      </trkpt>
      <trkpt lat="46.42771" lon="-0.18312">
        <ele>102.7</ele>
        <time>2020-05-30T20:00:22Z</time>
      </trkpt>
      <trkpt lat="46.42771" lon="-0.18312">
        <ele>102.7</ele>
        <time>2020-05-30T20:00:23Z</time>
      </trkpt>
      <trkpt lat="46.42771" lon="-0.18312">
        <ele>102.7</ele>
        <time>2020-05-30T20:00:24Z</time>
      </trkpt>
      <trkpt lat="46.42771" lon="-0.18312">
        <ele>102.7</ele>
        <time>2020-05-30T20:00:25Z</time>
      </trkpt>
      <trkpt lat="46.42771" lon="-0.18312">
        <ele>102.7</ele>
        <time>2020-05-30T20:00:26Z</time>
      </trkpt>
      <trkpt lat="46.42771" lon="-0.18312">
        <ele>102.7</ele>
        <time>2020-05-30T20:00:27Z</time>
      </trkpt>
      <trkpt lat="46.42771" lon="-0.18312">
        <ele>102.7</ele>
        <time>2020-05-30T20:00:28Z</time>
      </trkpt>
      <trkpt lat="46.42771" lon="-0.18312">
        <ele>102.7</ele>
        <time>2020-05-30T20:00:29Z</time>
      </trkpt>
      <trkpt lat="46.42771" lon="-0.18312">
        <ele>102.7</ele>
        <time>2020-05-30T20:00:30Z</time>
      </trkpt>
      <trkpt lat="46.42771" lon="-0.18312">
        <ele>102.7</ele>
        <time>2020-05-30T20:00:31Z</time>
      </trkpt>
      <trkpt lat="46.42771" lon="-0.18312">
        <ele>102.7</ele>
        <time>2020-05-30T20:00:32Z</time>
      </trkpt>
      <trkpt lat="46.42771" lon="-0.18312">
        <ele>102.7</ele>
        <time>2020-05-30T20:00:33Z</time>
      </trkpt>
      <trkpt lat="46.42771" lon="-0.18312">
        <ele>102.7</ele>
        <time>2020-05-30T20:00:34Z</time>
      </trkpt>
      <trkpt lat="46.42771" lon="-0.18312">
        <ele>102.7</ele>
        <time>2020-05-30T20:00:35Z</time>
      </trkpt>
      <trkpt lat="46.42771" lon="-0.18312">
        <ele>102.7</ele>
        <time>2020-05-30T20:00:36Z</time>
      </trkpt>
      <trkpt lat="46.42771" lon="-0.18312">
        <ele>102.7</ele>
        <time>2020-05-30T20:00:37Z</time>
      </trkpt>
      <trkpt lat="46.42771" lon="-0.18312">
        <ele>102.7</ele>
        <time>2020-05-30T20:00:38Z</time>
      </trkpt>
      <trkpt lat="46.42771" lon="-0.18312">
        <ele>102.7</ele>
        <time>2020-05-30T20:00:39Z</time>
      </trkpt>
      <trkpt lat="46.42771" lon="-0.18312">
        <ele>102.7</ele>
        <time>2020-05-30T20:00:40Z</time>
      </trkpt>
      <trkpt lat="46.42771" lon="-0.18312">
        <ele>102.7</ele>
        <time>2020-05-30T20:00:41Z</time>
      </trkpt>
      <trkpt lat="46.42771" lon="-0.18312">
        <ele>102.7</ele>
        <time>2020-05-30T20:00:42Z</time>
      </trkpt>
      <trkpt lat="46.42771" lon="-0.18312">
        <ele>102.7</ele>
        <time>2020-05-30T20:00:43Z</time>
      </trkpt>
      <trkpt lat="46.42771" lon="-0.18312">
        <ele>102.7</ele>
        <time>2020-05-30T20:00:44Z</time>
      </trkpt>
      <trkpt lat="46.42771" lon="-0.18312">
        <ele>102.7</ele>
        <time>2020-05-30T20:00:45Z</time>
      </trkpt>
      <trkpt lat="46.42771" lon="-0.18312">
        <ele>102.7</ele>
        <time>2020-05-30T20:00:46Z</time>
      </trkpt>
      <trkpt lat="46.42771" lon="-0.18312">
        <ele>102.7</ele>
        <time>2020-05-30T20:00:47Z</time>
      </trkpt>
      <trkpt lat="46.42771" lon="-0.18312">
        <ele>102.7</ele>
        <time>2020-05-30T20:00:48Z</time>
      </trkpt>
      <trkpt lat="46.42771" lon="-0.18312">
        <ele>102.7</ele>
        <time>2020-05-30T20:00:49Z</time>
      </trkpt>
      <trkpt lat="46.42771" lon="-0.18312">
        <ele>102.7</ele>
        <time>2020-05-30T20:00:50Z</time>
      </trkpt>
      <trkpt lat="46.42771" lon="-0.18312">
        <ele>102.7</ele>
        <time>2020-05-30T20:00:51Z</time>
      </trkpt>
      <trkpt lat="46.42771" lon="-0.18312">
        <ele>102.7</ele>
        <time>2020-05-30T20:00:52Z</time>
      </trkpt>
      <trkpt lat="46.42771" lon="-0.18312">
        <ele>102.7</ele>
        <time>2020-05-30T20:00:53Z</time>
      </trkpt>
      <trkpt lat="46.42771" lon="-0.18312">
        <ele>102.7</ele>
        <time>2020-05-30T20:00:54Z</time>
      </trkpt>
      <trkpt lat="46.42771" lon="-0.18312">
        <ele>102.7</ele>
        <time>2020-05-30T20:00:55Z</time>
      </trkpt>
      <trkpt lat="46.42771" lon="-0.18312">
        <ele>102.7</ele>
        <time>2020-05-30T20:00:56Z</time>
      </trkpt>
      <trkpt lat="46.42771" lon="-0.18312">
        <ele>102.7</ele>
        <time>2020-05-30T20:00:57Z</time>
      </trkpt>
      <trkpt lat="46.42771" lon="-0.18312">
        <ele>102.7</ele>
        <time>2020-05-30T20:00:58Z</time>
      </trkpt>
      <trkpt lat="46.42771" lon="-0.18312">
        <ele>102.7</ele>
        <time>2020-05-30T20:00:59Z</time>
      </trkpt>
      <trkpt lat="46.42771" lon="-0.18312">
        <ele>102.7</ele>
        <time>2020-05-30T20:01:00Z</time>
      </trkpt>
      <trkpt lat="46.42771" lon="-0.18312">
        <ele>102.7</ele>
        <time>2020-05-30T20:01:01Z</time>
      </trkpt>
      <trkpt lat="46.42771" lon="-0.18312">
        <ele>102.7</ele>
        <time>2020-05-30T20:01:02Z</time>
      </trkpt>
      <trkpt lat="46.42771" lon="-0.18312">
        <ele>102.7</ele>
        <time>2020-05-30T20:01:03Z</time>
      </trkpt>
      <trkpt lat="46.42771" lon="-0.18312">
        <ele>102.7</ele>
        <time>2020-05-30T20:01:04Z</time>
      </trkpt>
      <trkpt lat="46.42771" lon="-0.18312">
        <ele>102.7</ele>
        <time>2020-05-30T20:01:05Z</time>
      </trkpt>
      <trkpt lat="46.42771" lon="-0.18312">
        <ele>102.7</ele>
        <time>2020-05-30T20:01:06Z</time>
      </trkpt>
      <trkpt lat="46.42771" lon="-0.18312">
        <ele>102.7</ele>
        <time>2020-05-30T20:01:07Z</time>
      </trkpt>
      <trkpt lat="46.42771" lon="-0.18312">
        <ele>102.7</ele>
        <time>2020-05-30T20:01:08Z</time>
      </trkpt>
      <trkpt lat="46.42771" lon="-0.18312">
        <ele>102.7</ele>
        <time>2020-05-30T20:01:09Z</time>
      </trkpt>
      <trkpt lat="46.42771" lon="-0.18312">
        <ele>102.7</ele>
        <time>2020-05-30T20:01:10Z</time>
      </trkpt>
      <trkpt lat="46.42771" lon="-0.18312">
        <ele>102.7</ele>
        <time>2020-05-30T20:01:11Z</time>
      </trkpt>
      <trkpt lat="46.42771" lon="-0.18312">
        <ele>102.7</ele>
        <time>2020-05-30T20:01:12Z</time>
      </trkpt>
      <trkpt lat="46.42771" lon="-0.18312">
        <ele>102.7</ele>
        <time>2020-05-30T20:01:13Z</time>
      </trkpt>
      <trkpt lat="46.42771" lon="-0.18312">
        <ele>102.7</ele>
        <time>2020-05-30T20:01:14Z</time>
      </trkpt>
      <trkpt lat="46.42771" lon="-0.18312">
        <ele>102.7</ele>
        <time>2020-05-30T20:01:15Z</time>
      </trkpt>
      <trkpt lat="46.42771" lon="-0.18312">
        <ele>102.7</ele>
        <time>2020-05-30T20:01:16Z</time>
      </trkpt>
      <trkpt lat="46.42771" lon="-0.18312">
        <ele>102.7</ele>
        <time>2020-05-30T20:01:17Z</time>
      </trkpt>
      <trkpt lat="46.42771" lon="-0.18312">
        <ele>102.7</ele>
        <time>2020-05-30T20:01:18Z</time>
      </trkpt>
      <trkpt lat="46.42771" lon="-0.18312">
        <ele>102.7</ele>
        <time>2020-05-30T20:01:19Z</time>
      </trkpt>
      <trkpt lat="46.42771" lon="-0.18312">
        <ele>102.7</ele>
        <time>2020-05-30T20:01:20Z</time>
      </trkpt>
      <trkpt lat="46.42771" lon="-0.18312">
        <ele>102.7</ele>
        <time>2020-05-30T20:01:21Z</time>
      </trkpt>
      <trkpt lat="46.42771" lon="-0.18312">
        <ele>102.7</ele>
        <time>2020-05-30T20:01:22Z</time>
      </trkpt>
      <trkpt lat="46.42771" lon="-0.18312">
        <ele>102.7</ele>
        <time>2020-05-30T20:01:23Z</time>
      </trkpt>
      <trkpt lat="46.42771" lon="-0.18312">
        <ele>102.7</ele>
        <time>2020-05-30T20:01:24Z</time>
      </trkpt>
      <trkpt lat="46.42771" lon="-0.18312">
        <ele>102.7</ele>
        <time>2020-05-30T20:01:25Z</time>
      </trkpt>
      <trkpt lat="46.42771" lon="-0.18312">
        <ele>102.7</ele>
        <time>2020-05-30T20:01:26Z</time>
      </trkpt>
      <trkpt lat="46.42771" lon="-0.18312">
        <ele>102.7</ele>
        <time>2020-05-30T20:01:27Z</time>
      </trkpt>
      <trkpt lat="46.42771" lon="-0.18312">
        <ele>102.7</ele>
        <time>2020-05-30T20:01:28Z</time>
      </trkpt>
      <trkpt lat="46.42771" lon="-0.18312">
        <ele>102.7</ele>
        <time>2020-05-30T20:01:29Z</time>
      </trkpt>
      <trkpt lat="46.42771" lon="-0.18312">
        <ele>102.7</ele>
        <time>2020-05-30T20:01:30Z</time>
      </trkpt>
      <trkpt lat="46.42771" lon="-0.18312">
        <ele>102.7</ele>
        <time>2020-05-30T20:01:31Z</time>
      </trkpt>
      <trkpt lat="46.42771" lon="-0.18312">
        <ele>102.7</ele>
        <time>2020-05-30T20:01:32Z</time>
      </trkpt>
      <trkpt lat="46.42771" lon="-0.18312">
        <ele>102.7</ele>
        <time>2020-05-30T20:01:33Z</time>
      </trkpt>
      <trkpt lat="46.42771" lon="-0.18312">
        <ele>102.7</ele>
        <time>2020-05-30T20:01:34Z</time>
      </trkpt>
      <trkpt lat="46.42771" lon="-0.18312">
        <ele>102.7</ele>
        <time>2020-05-30T20:01:35Z</time>
      </trkpt>
      <trkpt lat="46.42771" lon="-0.18312">
        <ele>102.7</ele>
        <time>2020-05-30T20:01:36Z</time>
      </trkpt>
      <trkpt lat="46.42771" lon="-0.18312">
        <ele>102.7</ele>
        <time>2020-05-30T20:01:37Z</time>
      </trkpt>
      <trkpt lat="46.42771" lon="-0.18312">
        <ele>102.7</ele>
        <time>2020-05-30T20:01:38Z</time>
      </trkpt>
      <trkpt lat="46.42771" lon="-0.18312">
        <ele>102.7</ele>
        <time>2020-05-30T20:01:39Z</time>
      </trkpt>
      <trkpt lat="46.42771" lon="-0.18312">
        <ele>102.7</ele>
        <time>2020-05-30T20:01:40Z</time>
      </trkpt>
      <trkpt lat="46.42771" lon="-0.18312">
        <ele>102.7</ele>
        <time>2020-05-30T20:01:41Z</time>
      </trkpt>
      <trkpt lat="46.42771" lon="-0.18312">
        <ele>102.7</ele>
        <time>2020-05-30T20:01:42Z</time>
      </trkpt>
      <trkpt lat="46.42771" lon="-0.18312">
        <ele>102.7</ele>
        <time>2020-05-30T20:01:43Z</time>
      </trkpt>
      <trkpt lat="46.42771" lon="-0.18312">
        <ele>102.7</ele>
        <time>2020-05-30T20:01:44Z</time>
      </trkpt>
      <trkpt lat="46.42771" lon="-0.18312">
        <ele>102.7</ele>
        <time>2020-05-30T20:01:45Z</time>
      </trkpt>
      <trkpt lat="46.42771" lon="-0.18312">
        <ele>102.7</ele>
        <time>2020-05-30T20:01:46Z</time>
      </trkpt>
      <trkpt lat="46.42771" lon="-0.18312">
        <ele>102.7</ele>
        <time>2020-05-30T20:01:47Z</time>
      </trkpt>
      <trkpt lat="46.42771" lon="-0.18312">
        <ele>102.7</ele>
        <time>2020-05-30T20:01:48Z</time>
      </trkpt>
      <trkpt lat="46.42771" lon="-0.18312">
        <ele>102.7</ele>
        <time>2020-05-30T20:01:49Z</time>
      </trkpt>
      <trkpt lat="46.42771" lon="-0.18312">
        <ele>102.7</ele>
        <time>2020-05-30T20:01:50Z</time>
      </trkpt>
      <trkpt lat="46.42771" lon="-0.18312">
        <ele>102.7</ele>
        <time>2020-05-30T20:01:51Z</time>
      </trkpt>
      <trkpt lat="46.42771" lon="-0.18312">
        <ele>102.7</ele>
        <time>2020-05-30T20:01:52Z</time>
      </trkpt>
      <trkpt lat="46.42771" lon="-0.18312">
        <ele>102.7</ele>
        <time>2020-05-30T20:01:53Z</time>
      </trkpt>
      <trkpt lat="46.42771" lon="-0.18312">
        <ele>102.7</ele>
        <time>2020-05-30T20:01:54Z</time>
      </trkpt>
      <trkpt lat="46.42771" lon="-0.18312">
        <ele>102.7</ele>
        <time>2020-05-30T20:01:55Z</time>
      </trkpt>
      <trkpt lat="46.42771" lon="-0.18312">
        <ele>102.7</ele>
        <time>2020-05-30T20:01:56Z</time>
      </trkpt>
      <trkpt lat="46.42771" lon="-0.18312">
        <ele>102.7</ele>
        <time>2020-05-30T20:01:57Z</time>
      </trkpt>
      <trkpt lat="46.42771" lon="-0.18312">
        <ele>102.7</ele>
        <time>2020-05-30T20:01:58Z</time>
      </trkpt>
      <trkpt lat="46.42771" lon="-0.18312">
        <ele>102.7</ele>
        <time>2020-05-30T20:01:59Z</time>
      </trkpt>
      <trkpt lat="46.42771" lon="-0.18312">
        <ele>102.7</ele>
        <time>2020-05-30T20:02:00Z</time>
      </trkpt>
      <trkpt lat="46.42771" lon="-0.18312">
        <ele>102.7</ele>
        <time>2020-05-30T20:02:01Z</time>
      </trkpt>
      <trkpt lat="46.42771" lon="-0.18312">
        <ele>102.7</ele>
        <time>2020-05-30T20:02:02Z</time>
      </trkpt>
      <trkpt lat="46.42771" lon="-0.18312">
        <ele>102.7</ele>
        <time>2020-05-30T20:02:03Z</time>
      </trkpt>
      <trkpt lat="46.42771" lon="-0.18312">
        <ele>102.7</ele>
        <time>2020-05-30T20:02:04Z</time>
      </trkpt>
      <trkpt lat="46.42771" lon="-0.18312">
        <ele>102.7</ele>
        <time>2020-05-30T20:02:05Z</time>
      </trkpt>
      <trkpt lat="46.42771" lon="-0.18312">
        <ele>102.7</ele>
        <time>2020-05-30T20:02:06Z</time>
      </trkpt>
      <trkpt lat="46.42771" lon="-0.18312">
        <ele>102.7</ele>
        <time>2020-05-30T20:02:07Z</time>
      </trkpt>
      <trkpt lat="46.42771" lon="-0.18312">
        <ele>102.7</ele>
        <time>2020-05-30T20:02:08Z</time>
      </trkpt>
      <trkpt lat="46.42771" lon="-0.18312">
        <ele>102.7</ele>
        <time>2020-05-30T20:02:09Z</time>
      </trkpt>
      <trkpt lat="46.42771" lon="-0.18312">
        <ele>102.7</ele>
        <time>2020-05-30T20:02:10Z</time>
      </trkpt>
      <trkpt lat="46.42771" lon="-0.18312">
        <ele>102.7</ele>
        <time>2020-05-30T20:02:11Z</time>
      </trkpt>
      <trkpt lat="46.42771" lon="-0.18312">
        <ele>102.7</ele>
        <time>2020-05-30T20:02:12Z</time>
      </trkpt>
      <trkpt lat="46.42771" lon="-0.18312">
        <ele>102.7</ele>
        <time>2020-05-30T20:02:13Z</time>
      </trkpt>
      <trkpt lat="46.42771" lon="-0.18312">
        <ele>102.7</ele>
        <time>2020-05-30T20:02:14Z</time>
      </trkpt>
      <trkpt lat="46.42771" lon="-0.18312">
        <ele>102.7</ele>
        <time>2020-05-30T20:02:15Z</time>
      </trkpt>
      <trkpt lat="46.42771" lon="-0.18312">
        <ele>102.7</ele>
        <time>2020-05-30T20:02:16Z</time>
      </trkpt>
      <trkpt lat="46.42771" lon="-0.18312">
        <ele>102.7</ele>
        <time>2020-05-30T20:02:17Z</time>
      </trkpt>
      <trkpt lat="46.42771" lon="-0.18312">
        <ele>102.7</ele>
        <time>2020-05-30T20:02:18Z</time>
      </trkpt>
      <trkpt lat="46.42771" lon="-0.18312">
        <ele>102.7</ele>
        <time>2020-05-30T20:02:19Z</time>
      </trkpt>
      <trkpt lat="46.42771" lon="-0.18312">
        <ele>102.7</ele>
        <time>2020-05-30T20:02:20Z</time>
      </trkpt>
      <trkpt lat="46.42771" lon="-0.18312">
        <ele>102.7</ele>
        <time>2020-05-30T20:02:21Z</time>
      </trkpt>
      <trkpt lat="46.42771" lon="-0.18312">
        <ele>102.7</ele>
        <time>2020-05-30T20:02:22Z</time>
      </trkpt>
      <trkpt lat="46.42771" lon="-0.18312">
        <ele>102.7</ele>
        <time>2020-05-30T20:02:23Z</time>
      </trkpt>
      <trkpt lat="46.42771" lon="-0.18312">
        <ele>102.7</ele>
        <time>2020-05-30T20:02:24Z</time>
      </trkpt>
      <trkpt lat="46.42771" lon="-0.18312">
        <ele>102.7</ele>
        <time>2020-05-30T20:02:25Z</time>
      </trkpt>
      <trkpt lat="46.42771" lon="-0.18312">
        <ele>102.7</ele>
        <time>2020-05-30T20:02:26Z</time>
      </trkpt>
      <trkpt lat="46.42771" lon="-0.18312">
        <ele>102.7</ele>
        <time>2020-05-30T20:02:27Z</time>
      </trkpt>
      <trkpt lat="46.42771" lon="-0.18312">
        <ele>102.7</ele>
        <time>2020-05-30T20:02:28Z</time>
      </trkpt>
      <trkpt lat="46.42771" lon="-0.18312">
        <ele>102.7</ele>
        <time>2020-05-30T20:02:29Z</time>
      </trkpt>
      <trkpt lat="46.42771" lon="-0.18312">
        <ele>102.7</ele>
        <time>2020-05-30T20:02:30Z</time>
      </trkpt>
      <trkpt lat="46.42771" lon="-0.18312">
        <ele>102.7</ele>
        <time>2020-05-30T20:02:31Z</time>
      </trkpt>
      <trkpt lat="46.42771" lon="-0.18312">
        <ele>102.7</ele>
        <time>2020-05-30T20:02:32Z</time>
      </trkpt>
      <trkpt lat="46.42771" lon="-0.18312">
        <ele>102.7</ele>
        <time>2020-05-30T20:02:33Z</time>
      </trkpt>
      <trkpt lat="46.42771" lon="-0.18312">
        <ele>102.7</ele>
        <time>2020-05-30T20:02:34Z</time>
      </trkpt>
      <trkpt lat="46.42771" lon="-0.18312">
        <ele>102.7</ele>
        <time>2020-05-30T20:02:35Z</time>
      </trkpt>
      <trkpt lat="46.42771" lon="-0.18312">
        <ele>102.7</ele>
        <time>2020-05-30T20:02:36Z</time>
      </trkpt>
      <trkpt lat="46.42771" lon="-0.18312">
        <ele>102.7</ele>
        <time>2020-05-30T20:02:37Z</time>
      </trkpt>
      <trkpt lat="46.42771" lon="-0.18312">
        <ele>102.7</ele>
        <time>2020-05-30T20:02:38Z</time>
      </trkpt>
      <trkpt lat="46.42771" lon="-0.18312">
        <ele>102.7</ele>
        <time>2020-05-30T20:02:39Z</time>
      </trkpt>
      <trkpt lat="46.42771" lon="-0.18312">
        <ele>102.7</ele>
        <time>2020-05-30T20:02:40Z</time>
      </trkpt>
      <trkpt lat="46.42771" lon="-0.18312">
        <ele>102.7</ele>
        <time>2020-05-30T20:02:41Z</time>
      </trkpt>
      <trkpt lat="46.42771" lon="-0.18312">
        <ele>102.7</ele>
        <time>2020-05-30T20:02:42Z</time>
      </trkpt>
      <trkpt lat="46.42771" lon="-0.18312">
        <ele>102.7</ele>
        <time>2020-05-30T20:02:43Z</time>
      </trkpt>
      <trkpt lat="46.42771" lon="-0.18312">
        <ele>102.7</ele>
        <time>2020-05-30T20:02:44Z</time>
      </trkpt>
      <trkpt lat="46.42771" lon="-0.18312">
        <ele>102.7</ele>
        <time>2020-05-30T20:02:45Z</time>
      </trkpt>
      <trkpt lat="46.42771" lon="-0.18312">
        <ele>102.7</ele>
        <time>2020-05-30T20:02:46Z</time>
      </trkpt>
      <trkpt lat="46.42771" lon="-0.18312">
        <ele>102.7</ele>
        <time>2020-05-30T20:02:47Z</time>
      </trkpt>
      <trkpt lat="46.42771" lon="-0.18312">
        <ele>102.7</ele>
        <time>2020-05-30T20:02:48Z</time>
      </trkpt>
      <trkpt lat="46.42771" lon="-0.18312">
        <ele>102.7</ele>
        <time>2020-05-30T20:02:49Z</time>
      </trkpt>
      <trkpt lat="46.42771" lon="-0.18312">
        <ele>102.7</ele>
        <time>2020-05-30T20:02:50Z</time>
      </trkpt>
      <trkpt lat="46.42771" lon="-0.18312">
        <ele>102.7</ele>
        <time>2020-05-30T20:02:51Z</time>
      </trkpt>
      <trkpt lat="46.42771" lon="-0.18312">
        <ele>102.7</ele>
        <time>2020-05-30T20:02:52Z</time>
      </trkpt>
      <trkpt lat="46.42771" lon="-0.18312">
        <ele>102.7</ele>
        <time>2020-05-30T20:02:53Z</time>
      </trkpt>
      <trkpt lat="46.42771" lon="-0.18312">
        <ele>102.7</ele>
        <time>2020-05-30T20:02:54Z</time>
      </trkpt>
      <trkpt lat="46.42771" lon="-0.18312">
        <ele>102.7</ele>
        <time>2020-05-30T20:02:55Z</time>
      </trkpt>
      <trkpt lat="46.42771" lon="-0.18312">
        <ele>102.7</ele>
        <time>2020-05-30T20:02:56Z</time>
      </trkpt>
      <trkpt lat="46.42771" lon="-0.18312">
        <ele>102.7</ele>
        <time>2020-05-30T20:02:57Z</time>
      </trkpt>
      <trkpt lat="46.42771" lon="-0.18312">
        <ele>102.7</ele>
        <time>2020-05-30T20:02:58Z</time>
      </trkpt>
      <trkpt lat="46.42771" lon="-0.18312">
        <ele>102.7</ele>
        <time>2020-05-30T20:02:59Z</time>
      </trkpt>
      <trkpt lat="46.42771" lon="-0.18312">
        <ele>102.7</ele>
        <time>2020-05-30T20:03:00Z</time>
      </trkpt>
      <trkpt lat="46.42771" lon="-0.18312">
        <ele>102.7</ele>
        <time>2020-05-30T20:03:01Z</time>
      </trkpt>
      <trkpt lat="46.42771" lon="-0.18312">
        <ele>102.7</ele>
        <time>2020-05-30T20:03:02Z</time>
      </trkpt>
      <trkpt lat="46.42771" lon="-0.18312">
        <ele>102.7</ele>
        <time>2020-05-30T20:03:03Z</time>
      </trkpt>
      <trkpt lat="46.42771" lon="-0.18312">
        <ele>102.7</ele>
        <time>2020-05-30T20:03:04Z</time>
      </trkpt>
      <trkpt lat="46.42771" lon="-0.18312">
        <ele>102.7</ele>
        <time>2020-05-30T20:03:05Z</time>
      </trkpt>
      <trkpt lat="46.42771" lon="-0.18312">
        <ele>102.7</ele>
        <time>2020-05-30T20:03:06Z</time>
      </trkpt>
      <trkpt lat="46.42771" lon="-0.18312">
        <ele>102.7</ele>
        <time>2020-05-30T20:03:07Z</time>
      </trkpt>
      <trkpt lat="46.42771" lon="-0.18312">
        <ele>102.7</ele>
        <time>2020-05-30T20:03:08Z</time>
      </trkpt>
      <trkpt lat="46.42771" lon="-0.18312">
        <ele>102.7</ele>
        <time>2020-05-30T20:03:09Z</time>
      </trkpt>
      <trkpt lat="46.42771" lon="-0.18312">
        <ele>102.7</ele>
        <time>2020-05-30T20:03:10Z</time>
      </trkpt>
      <trkpt lat="46.42771" lon="-0.18312">
        <ele>102.7</ele>
        <time>2020-05-30T20:03:11Z</time>
      </trkpt>
      <trkpt lat="46.42771" lon="-0.18312">
        <ele>102.7</ele>
        <time>2020-05-30T20:03:12Z</time>
      </trkpt>
      <trkpt lat="46.42771" lon="-0.18312">
        <ele>102.7</ele>
        <time>2020-05-30T20:03:13Z</time>
      </trkpt>
      <trkpt lat="46.42771" lon="-0.18312">
        <ele>102.7</ele>
        <time>2020-05-30T20:03:14Z</time>
      </trkpt>
      <trkpt lat="46.42771" lon="-0.18312">
        <ele>102.7</ele>
        <time>2020-05-30T20:03:15Z</time>
      </trkpt>
      <trkpt lat="46.42771" lon="-0.18312">
        <ele>102.7</ele>
        <time>2020-05-30T20:03:16Z</time>
      </trkpt>
      <trkpt lat="46.42771" lon="-0.18312">
        <ele>102.7</ele>
        <time>2020-05-30T20:03:17Z</time>
      </trkpt>
      <trkpt lat="46.42771" lon="-0.18312">
        <ele>102.7</ele>
        <time>2020-05-30T20:03:18Z</time>
      </trkpt>
      <trkpt lat="46.42771" lon="-0.18312">
        <ele>102.7</ele>
        <time>2020-05-30T20:03:19Z</time>
      </trkpt>
      <trkpt lat="46.42771" lon="-0.18312">
        <ele>102.7</ele>
        <time>2020-05-30T20:03:20Z</time>
      </trkpt>
      <trkpt lat="46.42771" lon="-0.18312">
        <ele>102.7</ele>
        <time>2020-05-30T20:03:21Z</time>
      </trkpt>
      <trkpt lat="46.42771" lon="-0.18312">
        <ele>102.7</ele>
        <time>2020-05-30T20:03:22Z</time>
      </trkpt>
      <trkpt lat="46.42771" lon="-0.18312">
        <ele>102.7</ele>
        <time>2020-05-30T20:03:23Z</time>
      </trkpt>
      <trkpt lat="46.42771" lon="-0.18312">
        <ele>102.7</ele>
        <time>2020-05-30T20:03:24Z</time>
      </trkpt>
      <trkpt lat="46.42771" lon="-0.18312">
        <ele>102.7</ele>
        <time>2020-05-30T20:03:25Z</time>
      </trkpt>
      <trkpt lat="46.42771" lon="-0.18312">
        <ele>102.7</ele>
        <time>2020-05-30T20:03:26Z</time>
      </trkpt>
      <trkpt lat="46.42771" lon="-0.18312">
        <ele>102.7</ele>
        <time>2020-05-30T20:03:27Z</time>
      </trkpt>
      <trkpt lat="46.42771" lon="-0.18312">
        <ele>102.7</ele>
        <time>2020-05-30T20:03:28Z</time>
      </trkpt>
      <trkpt lat="46.42771" lon="-0.18312">
        <ele>102.7</ele>
        <time>2020-05-30T20:03:29Z</time>
      </trkpt>
      <trkpt lat="46.42771" lon="-0.18312">
        <ele>102.7</ele>
        <time>2020-05-30T20:03:30Z</time>
      </trkpt>
      <trkpt lat="46.42771" lon="-0.18312">
        <ele>102.7</ele>
        <time>2020-05-30T20:03:31Z</time>
      </trkpt>
      <trkpt lat="46.42771" lon="-0.18312">
        <ele>102.7</ele>
        <time>2020-05-30T20:03:32Z</time>
      </trkpt>
      <trkpt lat="46.42771" lon="-0.18312">
        <ele>102.7</ele>
        <time>2020-05-30T20:03:33Z</time>
      </trkpt>
      <trkpt lat="46.42771" lon="-0.18312">
        <ele>102.7</ele>
        <time>2020-05-30T20:03:34Z</time>
      </trkpt>
      <trkpt lat="46.42771" lon="-0.18312">
        <ele>102.7</ele>
        <time>2020-05-30T20:03:35Z</time>
      </trkpt>
      <trkpt lat="46.42771" lon="-0.18312">
        <ele>102.7</ele>
        <time>2020-05-30T20:03:36Z</time>
      </trkpt>
      <trkpt lat="46.42771" lon="-0.18312">
        <ele>102.7</ele>
        <time>2020-05-30T20:03:37Z</time>
      </trkpt>
      <trkpt lat="46.42771" lon="-0.18312">
        <ele>102.7</ele>
        <time>2020-05-30T20:03:38Z</time>
      </trkpt>
      <trkpt lat="46.42771" lon="-0.18312">
        <ele>102.7</ele>
        <time>2020-05-30T20:03:39Z</time>
      </trkpt>
      <trkpt lat="46.42771" lon="-0.18312">
        <ele>102.7</ele>
        <time>2020-05-30T20:03:40Z</time>
      </trkpt>
      <trkpt lat="46.42771" lon="-0.18312">
        <ele>102.7</ele>
        <time>2020-05-30T20:03:41Z</time>
      </trkpt>
      <trkpt lat="46.42771" lon="-0.18312">
        <ele>102.7</ele>
        <time>2020-05-30T20:03:42Z</time>
      </trkpt>
      <trkpt lat="46.42771" lon="-0.18312">
        <ele>102.7</ele>
        <time>2020-05-30T20:03:43Z</time>
      </trkpt>
      <trkpt lat="46.42771" lon="-0.18312">
        <ele>102.7</ele>
        <time>2020-05-30T20:03:44Z</time>
      </trkpt>
      <trkpt lat="46.42771" lon="-0.18312">
        <ele>102.7</ele>
        <time>2020-05-30T20:03:45Z</time>
      </trkpt>
      <trkpt lat="46.42771" lon="-0.18312">
        <ele>102.7</ele>
        <time>2020-05-30T20:03:46Z</time>
      </trkpt>
      <trkpt lat="46.42771" lon="-0.18312">
        <ele>102.7</ele>
        <time>2020-05-30T20:03:47Z</time>
      </trkpt>
      <trkpt lat="46.42771" lon="-0.18312">
        <ele>102.7</ele>
        <time>2020-05-30T20:03:48Z</time>
      </trkpt>
      <trkpt lat="46.42771" lon="-0.18312">
        <ele>102.7</ele>
        <time>2020-05-30T20:03:49Z</time>
      </trkpt>
      <trkpt lat="46.42771" lon="-0.18312">
        <ele>102.7</ele>
        <time>2020-05-30T20:03:50Z</time>
      </trkpt>
      <trkpt lat="46.42771" lon="-0.18312">
        <ele>102.7</ele>
        <time>2020-05-30T20:03:51Z</time>
      </trkpt>
      <trkpt lat="46.42771" lon="-0.18312">
        <ele>102.7</ele>
        <time>2020-05-30T20:03:52Z</time>
      </trkpt>
      <trkpt lat="46.42771" lon="-0.18312">
        <ele>102.7</ele>
        <time>2020-05-30T20:03:53Z</time>
      </trkpt>
      <trkpt lat="46.42771" lon="-0.18312">
        <ele>102.7</ele>
        <time>2020-05-30T20:03:54Z</time>
      </trkpt>
      <trkpt lat="46.42771" lon="-0.18312">
        <ele>102.7</ele>
        <time>2020-05-30T20:03:55Z</time>
      </trkpt>
      <trkpt lat="46.42771" lon="-0.18312">
        <ele>102.7</ele>
        <time>2020-05-30T20:03:56Z</time>
      </trkpt>
      <trkpt lat="46.42771" lon="-0.18312">
        <ele>102.7</ele>
        <time>2020-05-30T20:03:57Z</time>
      </trkpt>
      <trkpt lat="46.42771" lon="-0.18312">
        <ele>102.7</ele>
        <time>2020-05-30T20:03:58Z</time>
      </trkpt>
      <trkpt lat="46.42771" lon="-0.18312">
        <ele>102.7</ele>
        <time>2020-05-30T20:03:59Z</time>
      </trkpt>
      <trkpt lat="46.42771" lon="-0.18312">
        <ele>102.7</ele>
        <time>2020-05-30T20:04:00Z</time>
      </trkpt>
      <trkpt lat="46.42771" lon="-0.18312">
        <ele>102.7</ele>
        <time>2020-05-30T20:04:01Z</time>
      </trkpt>
      <trkpt lat="46.42771" lon="-0.18312">
        <ele>102.7</ele>
        <time>2020-05-30T20:04:02Z</time>
      </trkpt>
      <trkpt lat="46.42771" lon="-0.18312">
        <ele>102.7</ele>
        <time>2020-05-30T20:04:03Z</time>
      </trkpt>
      <trkpt lat="46.42771" lon="-0.18312">
        <ele>102.7</ele>
        <time>2020-05-30T20:04:04Z</time>
      </trkpt>
      <trkpt lat="46.42771" lon="-0.18312">
        <ele>102.7</ele>
        <time>2020-05-30T20:04:05Z</time>
      </trkpt>
      <trkpt lat="46.42771" lon="-0.18312">
        <ele>102.7</ele>
        <time>2020-05-30T20:04:06Z</time>
      </trkpt>
      <trkpt lat="46.42771" lon="-0.18312">
        <ele>102.7</ele>
        <time>2020-05-30T20:04:07Z</time>
      </trkpt>
      <trkpt lat="46.42771" lon="-0.18312">
        <ele>102.7</ele>
        <time>2020-05-30T20:04:08Z</time>
      </trkpt>
      <trkpt lat="46.42771" lon="-0.18312">
        <ele>102.7</ele>
        <time>2020-05-30T20:04:09Z</time>
      </trkpt>
      <trkpt lat="46.42771" lon="-0.18312">
        <ele>102.7</ele>
        <time>2020-05-30T20:04:10Z</time>
      </trkpt>
      <trkpt lat="46.42771" lon="-0.18312">
        <ele>102.7</ele>
        <time>2020-05-30T20:04:11Z</time>
      </trkpt>
      <trkpt lat="46.42771" lon="-0.18312">
        <ele>102.7</ele>
        <time>2020-05-30T20:04:12Z</time>
      </trkpt>
      <trkpt lat="46.42771" lon="-0.18312">
        <ele>102.7</ele>
        <time>2020-05-30T20:04:13Z</time>
      </trkpt>
      <trkpt lat="46.42771" lon="-0.18312">
        <ele>102.7</ele>
        <time>2020-05-30T20:04:14Z</time>
      </trkpt>
      <trkpt lat="46.42771" lon="-0.18312">
        <ele>102.7</ele>
        <time>2020-05-30T20:04:15Z</time>
      </trkpt>
      <trkpt lat="46.42771" lon="-0.18312">
        <ele>102.7</ele>
        <time>2020-05-30T20:04:16Z</time>
      </trkpt>
      <trkpt lat="46.42771" lon="-0.18312">
        <ele>102.7</ele>
        <time>2020-05-30T20:04:17Z</time>
      </trkpt>
      <trkpt lat="46.42771" lon="-0.18312">
        <ele>102.7</ele>
        <time>2020-05-30T20:04:18Z</time>
      </trkpt>
      <trkpt lat="46.42771" lon="-0.18312">
        <ele>102.7</ele>
        <time>2020-05-30T20:04:19Z</time>
      </trkpt>
      <trkpt lat="46.42771" lon="-0.18312">
        <ele>102.7</ele>
        <time>2020-05-30T20:04:20Z</time>
      </trkpt>
      <trkpt lat="46.42771" lon="-0.18312">
        <ele>102.7</ele>
        <time>2020-05-30T20:04:21Z</time>
      </trkpt>
      <trkpt lat="46.42771" lon="-0.18312">
        <ele>102.7</ele>
        <time>2020-05-30T20:04:22Z</time>
      </trkpt>
      <trkpt lat="46.42771" lon="-0.18312">
        <ele>102.7</ele>
        <time>2020-05-30T20:04:23Z</time>
      </trkpt>
      <trkpt lat="46.42771" lon="-0.18312">
        <ele>102.7</ele>
        <time>2020-05-30T20:04:24Z</time>
      </trkpt>
      <trkpt lat="46.42771" lon="-0.18312">
        <ele>102.7</ele>
        <time>2020-05-30T20:04:25Z</time>
      </trkpt>
      <trkpt lat="46.42771" lon="-0.18312">
        <ele>102.7</ele>
        <time>2020-05-30T20:04:26Z</time>
      </trkpt>
      <trkpt lat="46.42771" lon="-0.18312">
        <ele>102.7</ele>
        <time>2020-05-30T20:04:27Z</time>
      </trkpt>
      <trkpt lat="46.42771" lon="-0.18312">
        <ele>102.7</ele>
        <time>2020-05-30T20:04:28Z</time>
      </trkpt>
      <trkpt lat="46.42771" lon="-0.18312">
        <ele>102.7</ele>
        <time>2020-05-30T20:04:29Z</time>
      </trkpt>
      <trkpt lat="46.42771" lon="-0.18312">
        <ele>102.7</ele>
        <time>2020-05-30T20:04:30Z</time>
      </trkpt>
      <trkpt lat="46.42771" lon="-0.18312">
        <ele>102.7</ele>
        <time>2020-05-30T20:04:31Z</time>
      </trkpt>
      <trkpt lat="46.42771" lon="-0.18312">
        <ele>102.7</ele>
        <time>2020-05-30T20:04:32Z</time>
      </trkpt>
      <trkpt lat="46.42771" lon="-0.18312">
        <ele>102.7</ele>
        <time>2020-05-30T20:04:33Z</time>
      </trkpt>
      <trkpt lat="46.42771" lon="-0.18312">
        <ele>102.7</ele>
        <time>2020-05-30T20:04:34Z</time>
      </trkpt>
      <trkpt lat="46.42771" lon="-0.18312">
        <ele>102.7</ele>
        <time>2020-05-30T20:04:35Z</time>
      </trkpt>
      <trkpt lat="46.42771" lon="-0.18312">
        <ele>102.7</ele>
        <time>2020-05-30T20:04:36Z</time>
      </trkpt>
      <trkpt lat="46.42771" lon="-0.18312">
        <ele>102.7</ele>
        <time>2020-05-30T20:04:37Z</time>
      </trkpt>
      <trkpt lat="46.42771" lon="-0.18312">
        <ele>102.7</ele>
        <time>2020-05-30T20:04:38Z</time>
      </trkpt>
      <trkpt lat="46.42771" lon="-0.18312">
        <ele>102.7</ele>
        <time>2020-05-30T20:04:39Z</time>
      </trkpt>
      <trkpt lat="46.42771" lon="-0.18312">
        <ele>102.7</ele>
        <time>2020-05-30T20:04:40Z</time>
      </trkpt>
      <trkpt lat="46.42771" lon="-0.18312">
        <ele>102.7</ele>
        <time>2020-05-30T20:04:41Z</time>
      </trkpt>
      <trkpt lat="46.42771" lon="-0.18312">
        <ele>102.7</ele>
        <time>2020-05-30T20:04:42Z</time>
      </trkpt>
      <trkpt lat="46.42771" lon="-0.18312">
        <ele>102.7</ele>
        <time>2020-05-30T20:04:43Z</time>
      </trkpt>
      <trkpt lat="46.42771" lon="-0.18312">
        <ele>102.7</ele>
        <time>2020-05-30T20:04:44Z</time>
      </trkpt>
      <trkpt lat="46.42771" lon="-0.18312">
        <ele>102.7</ele>
        <time>2020-05-30T20:04:45Z</time>
      </trkpt>
      <trkpt lat="46.42771" lon="-0.18312">
        <ele>102.7</ele>
        <time>2020-05-30T20:04:46Z</time>
      </trkpt>
      <trkpt lat="46.42771" lon="-0.18312">
        <ele>102.7</ele>
        <time>2020-05-30T20:04:47Z</time>
      </trkpt>
      <trkpt lat="46.42771" lon="-0.18312">
        <ele>102.7</ele>
        <time>2020-05-30T20:04:48Z</time>
      </trkpt>
      <trkpt lat="46.42771" lon="-0.18312">
        <ele>102.7</ele>
        <time>2020-05-30T20:04:49Z</time>
      </trkpt>
      <trkpt lat="46.42771" lon="-0.18312">
        <ele>102.7</ele>
        <time>2020-05-30T20:04:50Z</time>
      </trkpt>
      <trkpt lat="46.42771" lon="-0.18312">
        <ele>102.7</ele>
        <time>2020-05-30T20:04:51Z</time>
      </trkpt>
      <trkpt lat="46.42771" lon="-0.18312">
        <ele>102.7</ele>
        <time>2020-05-30T20:04:52Z</time>
      </trkpt>
      <trkpt lat="46.42771" lon="-0.18312">
        <ele>102.7</ele>
        <time>2020-05-30T20:04:53Z</time>
      </trkpt>
      <trkpt lat="46.42771" lon="-0.18312">
        <ele>102.7</ele>
        <time>2020-05-30T20:04:54Z</time>
      </trkpt>
      <trkpt lat="46.42771" lon="-0.18312">
        <ele>102.7</ele>
        <time>2020-05-30T20:04:55Z</time>
      </trkpt>
      <trkpt lat="46.42771" lon="-0.18312">
        <ele>102.7</ele>
        <time>2020-05-30T20:04:56Z</time>
      </trkpt>
      <trkpt lat="46.42771" lon="-0.18312">
        <ele>102.7</ele>
        <time>2020-05-30T20:04:57Z</time>
      </trkpt>
      <trkpt lat="46.42771" lon="-0.18312">
        <ele>102.7</ele>
        <time>2020-05-30T20:04:58Z</time>
      </trkpt>
      <trkpt lat="46.42771" lon="-0.18312">
        <ele>102.7</ele>
        <time>2020-05-30T20:04:59Z</time>
      </trkpt>
      <trkpt lat="46.42771" lon="-0.18312">
        <ele>102.7</ele>
        <time>2020-05-30T20:05:00Z</time>
      </trkpt>
      <trkpt lat="46.42771" lon="-0.18312">
        <ele>102.7</ele>
        <time>2020-05-30T20:05:01Z</time>
      </trkpt>
      <trkpt lat="46.42771" lon="-0.18312">
        <ele>102.7</ele>
        <time>2020-05-30T20:05:02Z</time>
      </trkpt>
      <trkpt lat="46.42771" lon="-0.18312">
        <ele>102.7</ele>
        <time>2020-05-30T20:05:03Z</time>
      </trkpt>
      <trkpt lat="46.42771" lon="-0.18312">
        <ele>102.7</ele>
        <time>2020-05-30T20:05:04Z</time>
      </trkpt>
      <trkpt lat="46.42771" lon="-0.18312">
        <ele>102.7</ele>
        <time>2020-05-30T20:05:05Z</time>
      </trkpt>
      <trkpt lat="46.42771" lon="-0.18312">
        <ele>102.7</ele>
        <time>2020-05-30T20:05:06Z</time>
      </trkpt>
      <trkpt lat="46.42771" lon="-0.18312">
        <ele>102.7</ele>
        <time>2020-05-30T20:05:07Z</time>
      </trkpt>
      <trkpt lat="46.42771" lon="-0.18312">
        <ele>102.7</ele>
        <time>2020-05-30T20:05:08Z</time>
      </trkpt>
      <trkpt lat="46.42771" lon="-0.18312">
        <ele>102.7</ele>
        <time>2020-05-30T20:05:09Z</time>
      </trkpt>
      <trkpt lat="46.42771" lon="-0.18312">
        <ele>102.7</ele>
        <time>2020-05-30T20:05:10Z</time>
      </trkpt>
      <trkpt lat="46.42771" lon="-0.18312">
        <ele>102.7</ele>
        <time>2020-05-30T20:05:11Z</time>
      </trkpt>
      <trkpt lat="46.42771" lon="-0.18312">
        <ele>102.7</ele>
        <time>2020-05-30T20:05:12Z</time>
      </trkpt>
      <trkpt lat="46.42771" lon="-0.18312">
        <ele>102.7</ele>
        <time>2020-05-30T20:05:13Z</time>
      </trkpt>
      <trkpt lat="46.42771" lon="-0.18312">
        <ele>102.7</ele>
        <time>2020-05-30T20:05:14Z</time>
      </trkpt>
      <trkpt lat="46.42771" lon="-0.18312">
        <ele>102.7</ele>
        <time>2020-05-30T20:05:15Z</time>
      </trkpt>
      <trkpt lat="46.42771" lon="-0.18312">
        <ele>102.7</ele>
        <time>2020-05-30T20:05:16Z</time>
      </trkpt>
      <trkpt lat="46.42771" lon="-0.18312">
        <ele>102.7</ele>
        <time>2020-05-30T20:05:17Z</time>
      </trkpt>
      <trkpt lat="46.42771" lon="-0.18312">
        <ele>102.7</ele>
        <time>2020-05-30T20:05:18Z</time>
      </trkpt>
      <trkpt lat="46.42771" lon="-0.18312">
        <ele>102.7</ele>
        <time>2020-05-30T20:05:19Z</time>
      </trkpt>
      <trkpt lat="46.42771" lon="-0.18312">
        <ele>102.7</ele>
        <time>2020-05-30T20:05:20Z</time>
      </trkpt>
      <trkpt lat="46.42771" lon="-0.18312">
        <ele>102.7</ele>
        <time>2020-05-30T20:05:21Z</time>
      </trkpt>
      <trkpt lat="46.42771" lon="-0.18312">
        <ele>102.7</ele>
        <time>2020-05-30T20:05:22Z</time>
      </trkpt>
      <trkpt lat="46.42771" lon="-0.18312">
        <ele>102.7</ele>
        <time>2020-05-30T20:05:23Z</time>
      </trkpt>
      <trkpt lat="46.42771" lon="-0.18312">
        <ele>102.7</ele>
        <time>2020-05-30T20:05:24Z</time>
      </trkpt>
      <trkpt lat="46.42771" lon="-0.18312">
        <ele>102.7</ele>
        <time>2020-05-30T20:05:25Z</time>
      </trkpt>
      <trkpt lat="46.42771" lon="-0.18312">
        <ele>102.7</ele>
        <time>2020-05-30T20:05:26Z</time>
      </trkpt>
      <trkpt lat="46.42771" lon="-0.18312">
        <ele>102.7</ele>
        <time>2020-05-30T20:05:27Z</time>
      </trkpt>
      <trkpt lat="46.42771" lon="-0.18312">
        <ele>102.7</ele>
        <time>2020-05-30T20:05:28Z</time>
      </trkpt>
      <trkpt lat="46.42771" lon="-0.18312">
        <ele>102.7</ele>
        <time>2020-05-30T20:05:29Z</time>
      </trkpt>
      <trkpt lat="46.42771" lon="-0.18312">
        <ele>102.7</ele>
        <time>2020-05-30T20:05:30Z</time>
      </trkpt>
      <trkpt lat="46.42771" lon="-0.18312">
        <ele>102.7</ele>
        <time>2020-05-30T20:05:31Z</time>
      </trkpt>
      <trkpt lat="46.42771" lon="-0.18312">
        <ele>102.7</ele>
        <time>2020-05-30T20:05:32Z</time>
      </trkpt>
      <trkpt lat="46.42771" lon="-0.18312">
        <ele>102.7</ele>
        <time>2020-05-30T20:05:33Z</time>
      </trkpt>
      <trkpt lat="46.42771" lon="-0.18312">
        <ele>102.7</ele>
        <time>2020-05-30T20:05:34Z</time>
      </trkpt>
      <trkpt lat="46.42771" lon="-0.18312">
        <ele>102.7</ele>
        <time>2020-05-30T20:05:35Z</time>
      </trkpt>
      <trkpt lat="46.42771" lon="-0.18312">
        <ele>102.7</ele>
        <time>2020-05-30T20:05:36Z</time>
      </trkpt>
      <trkpt lat="46.42771" lon="-0.18312">
        <ele>102.7</ele>
        <time>2020-05-30T20:05:37Z</time>
      </trkpt>
      <trkpt lat="46.42769" lon="-0.18312">
        <ele>102.7</ele>
        <time>2020-05-30T20:05:38Z</time>
      </trkpt>
      <trkpt lat="46.42769" lon="-0.18312">
        <ele>102.7</ele>
        <time>2020-05-30T20:05:39Z</time>
      </trkpt>
      <trkpt lat="46.42768" lon="-0.18311">
        <ele>102.7</ele>
        <time>2020-05-30T20:05:40Z</time>
      </trkpt>
      <trkpt lat="46.42768" lon="-0.1831">
        <ele>102.7</ele>
        <time>2020-05-30T20:05:41Z</time>
      </trkpt>
      <trkpt lat="46.42768" lon="-0.18308">
        <ele>102.7</ele>
        <time>2020-05-30T20:05:42Z</time>
      </trkpt>
      <trkpt lat="46.42769" lon="-0.18308">
        <ele>102.7</ele>
        <time>2020-05-30T20:05:43Z</time>
      </trkpt>
      <trkpt lat="46.42768" lon="-0.18308">
        <ele>102.7</ele>
        <time>2020-05-30T20:05:44Z</time>
      </trkpt>
      <trkpt lat="46.42768" lon="-0.18308">
        <ele>102.7</ele>
        <time>2020-05-30T20:05:45Z</time>
      </trkpt>
      <trkpt lat="46.42768" lon="-0.18308">
        <ele>102.7</ele>
        <time>2020-05-30T20:05:46Z</time>
      </trkpt>
      <trkpt lat="46.42768" lon="-0.18308">
        <ele>102.7</ele>
        <time>2020-05-30T20:05:47Z</time>
      </trkpt>
      <trkpt lat="46.42768" lon="-0.18308">
        <ele>102.7</ele>
        <time>2020-05-30T20:05:48Z</time>
      </trkpt>
      <trkpt lat="46.42769" lon="-0.18308">
        <ele>102.6</ele>
        <time>2020-05-30T20:05:49Z</time>
      </trkpt>
      <trkpt lat="46.42769" lon="-0.18308">
        <ele>102.6</ele>
        <time>2020-05-30T20:05:50Z</time>
      </trkpt>
      <trkpt lat="46.42769" lon="-0.18308">
        <ele>102.6</ele>
        <time>2020-05-30T20:05:51Z</time>
      </trkpt>
      <trkpt lat="46.42768" lon="-0.18307">
        <ele>102.6</ele>
        <time>2020-05-30T20:05:52Z</time>
      </trkpt>
      <trkpt lat="46.42768" lon="-0.18307">
        <ele>102.6</ele>
        <time>2020-05-30T20:05:53Z</time>
      </trkpt>
      <trkpt lat="46.42769" lon="-0.18307">
        <ele>102.6</ele>
        <time>2020-05-30T20:05:54Z</time>
      </trkpt>
      <trkpt lat="46.42769" lon="-0.18307">
        <ele>102.6</ele>
        <time>2020-05-30T20:05:55Z</time>
      </trkpt>
      <trkpt lat="46.42769" lon="-0.18307">
        <ele>102.6</ele>
        <time>2020-05-30T20:05:56Z</time>
      </trkpt>
      <trkpt lat="46.42769" lon="-0.18307">
        <ele>102.6</ele>
        <time>2020-05-30T20:05:57Z</time>
      </trkpt>
      <trkpt lat="46.42769" lon="-0.18307">
        <ele>102.6</ele>
        <time>2020-05-30T20:05:58Z</time>
      </trkpt>
      <trkpt lat="46.42769" lon="-0.18307">
        <ele>102.6</ele>
        <time>2020-05-30T20:05:59Z</time>
      </trkpt>
      <trkpt lat="46.42768" lon="-0.18306">
        <ele>102.6</ele>
        <time>2020-05-30T20:06:00Z</time>
      </trkpt>
      <trkpt lat="46.42768" lon="-0.18305">
        <ele>102.6</ele>
        <time>2020-05-30T20:06:01Z</time>
      </trkpt>
      <trkpt lat="46.42768" lon="-0.18305">
        <ele>102.6</ele>
        <time>2020-05-30T20:06:02Z</time>
      </trkpt>
      <trkpt lat="46.42768" lon="-0.18304">
        <ele>102.6</ele>
        <time>2020-05-30T20:06:03Z</time>
      </trkpt>
      <trkpt lat="46.42768" lon="-0.18303">
        <ele>102.6</ele>
        <time>2020-05-30T20:06:04Z</time>
      </trkpt>
      <trkpt lat="46.42768" lon="-0.18303">
        <ele>102.6</ele>
        <time>2020-05-30T20:06:05Z</time>
      </trkpt>
      <trkpt lat="46.42768" lon="-0.18303">
        <ele>102.6</ele>
        <time>2020-05-30T20:06:06Z</time>
      </trkpt>
      <trkpt lat="46.42768" lon="-0.18303">
        <ele>102.6</ele>
        <time>2020-05-30T20:06:07Z</time>
      </trkpt>
      <trkpt lat="46.42768" lon="-0.18303">
        <ele>102.6</ele>
        <time>2020-05-30T20:06:08Z</time>
      </trkpt>
      <trkpt lat="46.42768" lon="-0.18303">
        <ele>102.6</ele>
        <time>2020-05-30T20:06:09Z</time>
      </trkpt>
      <trkpt lat="46.42767" lon="-0.18302">
        <ele>102.6</ele>
        <time>2020-05-30T20:06:10Z</time>
      </trkpt>
      <trkpt lat="46.42766" lon="-0.18302">
        <ele>102.6</ele>
        <time>2020-05-30T20:06:11Z</time>
      </trkpt>
      <trkpt lat="46.42766" lon="-0.18301">
        <ele>102.6</ele>
        <time>2020-05-30T20:06:12Z</time>
      </trkpt>
      <trkpt lat="46.42766" lon="-0.18301">
        <ele>102.6</ele>
        <time>2020-05-30T20:06:13Z</time>
      </trkpt>
      <trkpt lat="46.42766" lon="-0.18301">
        <ele>102.6</ele>
        <time>2020-05-30T20:06:14Z</time>
      </trkpt>
      <trkpt lat="46.42766" lon="-0.18301">
        <ele>102.6</ele>
        <time>2020-05-30T20:06:15Z</time>
      </trkpt>
      <trkpt lat="46.42765" lon="-0.183">
        <ele>102.6</ele>
        <time>2020-05-30T20:06:16Z</time>
      </trkpt>
      <trkpt lat="46.42764" lon="-0.183">
        <ele>102.6</ele>
        <time>2020-05-30T20:06:17Z</time>
      </trkpt>
      <trkpt lat="46.42764" lon="-0.183">
        <ele>102.6</ele>
        <time>2020-05-30T20:06:18Z</time>
      </trkpt>
      <trkpt lat="46.42764" lon="-0.183">
        <ele>102.6</ele>
        <time>2020-05-30T20:06:19Z</time>
      </trkpt>
      <trkpt lat="46.42764" lon="-0.183">
        <ele>102.6</ele>
        <time>2020-05-30T20:06:20Z</time>
      </trkpt>
      <trkpt lat="46.42764" lon="-0.183">
        <ele>102.6</ele>
        <time>2020-05-30T20:06:21Z</time>
      </trkpt>
      <trkpt lat="46.42764" lon="-0.183">
        <ele>102.6</ele>
        <time>2020-05-30T20:06:22Z</time>
      </trkpt>
      <trkpt lat="46.42764" lon="-0.18301">
        <ele>102.6</ele>
        <time>2020-05-30T20:06:23Z</time>
      </trkpt>
      <trkpt lat="46.42765" lon="-0.18301">
        <ele>102.6</ele>
        <time>2020-05-30T20:06:24Z</time>
      </trkpt>
      <trkpt lat="46.42765" lon="-0.18301">
        <ele>102.6</ele>
        <time>2020-05-30T20:06:25Z</time>
      </trkpt>
      <trkpt lat="46.42765" lon="-0.18301">
        <ele>102.6</ele>
        <time>2020-05-30T20:06:26Z</time>
      </trkpt>
      <trkpt lat="46.42765" lon="-0.18301">
        <ele>102.6</ele>
        <time>2020-05-30T20:06:27Z</time>
      </trkpt>
      <trkpt lat="46.42765" lon="-0.18302">
        <ele>102.6</ele>
        <time>2020-05-30T20:06:28Z</time>
      </trkpt>
      <trkpt lat="46.42765" lon="-0.18302">
        <ele>102.6</ele>
        <time>2020-05-30T20:06:29Z</time>
      </trkpt>
      <trkpt lat="46.42765" lon="-0.18302">
        <ele>102.6</ele>
        <time>2020-05-30T20:06:30Z</time>
      </trkpt>
      <trkpt lat="46.42765" lon="-0.18302">
        <ele>102.6</ele>
        <time>2020-05-30T20:06:31Z</time>
      </trkpt>
      <trkpt lat="46.42766" lon="-0.18303">
        <ele>102.6</ele>
        <time>2020-05-30T20:06:32Z</time>
      </trkpt>
      <trkpt lat="46.42767" lon="-0.18303">
        <ele>102.6</ele>
        <time>2020-05-30T20:06:33Z</time>
      </trkpt>
      <trkpt lat="46.42767" lon="-0.18304">
        <ele>102.6</ele>
        <time>2020-05-30T20:06:34Z</time>
      </trkpt>
      <trkpt lat="46.42767" lon="-0.18304">
        <ele>102.6</ele>
        <time>2020-05-30T20:06:35Z</time>
      </trkpt>
      <trkpt lat="46.42767" lon="-0.18304">
        <ele>102.6</ele>
        <time>2020-05-30T20:06:36Z</time>
      </trkpt>
      <trkpt lat="46.42767" lon="-0.18304">
        <ele>102.6</ele>
        <time>2020-05-30T20:06:37Z</time>
      </trkpt>
      <trkpt lat="46.42767" lon="-0.18304">
        <ele>102.6</ele>
        <time>2020-05-30T20:06:38Z</time>
      </trkpt>
      <trkpt lat="46.42768" lon="-0.18304">
        <ele>102.6</ele>
        <time>2020-05-30T20:06:39Z</time>
      </trkpt>
      <trkpt lat="46.42767" lon="-0.18304">
        <ele>102.6</ele>
        <time>2020-05-30T20:06:40Z</time>
      </trkpt>
      <trkpt lat="46.42767" lon="-0.18305">
        <ele>102.6</ele>
        <time>2020-05-30T20:06:41Z</time>
      </trkpt>
      <trkpt lat="46.42767" lon="-0.18305">
        <ele>102.6</ele>
        <time>2020-05-30T20:06:42Z</time>
      </trkpt>
      <trkpt lat="46.42767" lon="-0.18305">
        <ele>102.6</ele>
        <time>2020-05-30T20:06:43Z</time>
      </trkpt>
      <trkpt lat="46.42767" lon="-0.18305">
        <ele>102.6</ele>
        <time>2020-05-30T20:06:44Z</time>
      </trkpt>
      <trkpt lat="46.42767" lon="-0.18305">
        <ele>102.6</ele>
        <time>2020-05-30T20:06:45Z</time>
      </trkpt>
      <trkpt lat="46.42767" lon="-0.18305">
        <ele>102.6</ele>
        <time>2020-05-30T20:06:46Z</time>
      </trkpt>
      <trkpt lat="46.42767" lon="-0.18305">
        <ele>102.6</ele>
        <time>2020-05-30T20:06:47Z</time>
      </trkpt>
      <trkpt lat="46.42767" lon="-0.18306">
        <ele>102.6</ele>
        <time>2020-05-30T20:06:48Z</time>
      </trkpt>
      <trkpt lat="46.42766" lon="-0.18306">
        <ele>102.6</ele>
        <time>2020-05-30T20:06:49Z</time>
      </trkpt>
      <trkpt lat="46.42766" lon="-0.18306">
        <ele>102.6</ele>
        <time>2020-05-30T20:06:50Z</time>
      </trkpt>
      <trkpt lat="46.42765" lon="-0.18306">
        <ele>102.6</ele>
        <time>2020-05-30T20:06:51Z</time>
      </trkpt>
      <trkpt lat="46.42765" lon="-0.18306">
        <ele>102.6</ele>
        <time>2020-05-30T20:06:52Z</time>
      </trkpt>
      <trkpt lat="46.42765" lon="-0.18306">
        <ele>102.6</ele>
        <time>2020-05-30T20:06:53Z</time>
      </trkpt>
      <trkpt lat="46.42765" lon="-0.18306">
        <ele>102.6</ele>
        <time>2020-05-30T20:06:54Z</time>
      </trkpt>
      <trkpt lat="46.42765" lon="-0.18306">
        <ele>102.6</ele>
        <time>2020-05-30T20:06:55Z</time>
      </trkpt>
      <trkpt lat="46.42765" lon="-0.18306">
        <ele>102.6</ele>
        <time>2020-05-30T20:06:56Z</time>
      </trkpt>
      <trkpt lat="46.42765" lon="-0.18306">
        <ele>102.6</ele>
        <time>2020-05-30T20:06:57Z</time>
      </trkpt>
      <trkpt lat="46.42765" lon="-0.18306">
        <ele>102.6</ele>
        <time>2020-05-30T20:06:58Z</time>
      </trkpt>
      <trkpt lat="46.42765" lon="-0.18306">
        <ele>102.6</ele>
        <time>2020-05-30T20:06:59Z</time>
      </trkpt>
      <trkpt lat="46.42765" lon="-0.18306">
        <ele>102.6</ele>
        <time>2020-05-30T20:07:00Z</time>
      </trkpt>
      <trkpt lat="46.42765" lon="-0.18306">
        <ele>102.6</ele>
        <time>2020-05-30T20:07:01Z</time>
      </trkpt>
      <trkpt lat="46.42765" lon="-0.18306">
        <ele>102.6</ele>
        <time>2020-05-30T20:07:02Z</time>
      </trkpt>
      <trkpt lat="46.42765" lon="-0.18306">
        <ele>102.6</ele>
        <time>2020-05-30T20:07:03Z</time>
      </trkpt>
      <trkpt lat="46.42765" lon="-0.18306">
        <ele>102.6</ele>
        <time>2020-05-30T20:07:04Z</time>
      </trkpt>
      <trkpt lat="46.42765" lon="-0.18307">
        <ele>102.6</ele>
        <time>2020-05-30T20:07:05Z</time>
      </trkpt>
      <trkpt lat="46.42765" lon="-0.18307">
        <ele>102.6</ele>
        <time>2020-05-30T20:07:06Z</time>
      </trkpt>
      <trkpt lat="46.42765" lon="-0.18307">
        <ele>102.6</ele>
        <time>2020-05-30T20:07:07Z</time>
      </trkpt>
      <trkpt lat="46.42765" lon="-0.18307">
        <ele>102.6</ele>
        <time>2020-05-30T20:07:08Z</time>
      </trkpt>
      <trkpt lat="46.42765" lon="-0.18308">
        <ele>102.6</ele>
        <time>2020-05-30T20:07:09Z</time>
      </trkpt>
      <trkpt lat="46.42765" lon="-0.18308">
        <ele>102.6</ele>
        <time>2020-05-30T20:07:10Z</time>
      </trkpt>
      <trkpt lat="46.42765" lon="-0.18308">
        <ele>102.6</ele>
        <time>2020-05-30T20:07:11Z</time>
      </trkpt>
      <trkpt lat="46.42766" lon="-0.18308">
        <ele>102.6</ele>
        <time>2020-05-30T20:07:12Z</time>
      </trkpt>
      <trkpt lat="46.42766" lon="-0.18308">
        <ele>102.6</ele>
        <time>2020-05-30T20:07:13Z</time>
      </trkpt>
      <trkpt lat="46.42766" lon="-0.18308">
        <ele>102.6</ele>
        <time>2020-05-30T20:07:14Z</time>
      </trkpt>
      <trkpt lat="46.42766" lon="-0.18308">
        <ele>102.6</ele>
        <time>2020-05-30T20:07:15Z</time>
      </trkpt>
      <trkpt lat="46.42766" lon="-0.18308">
        <ele>102.6</ele>
        <time>2020-05-30T20:07:16Z</time>
      </trkpt>
      <trkpt lat="46.42766" lon="-0.18308">
        <ele>102.6</ele>
        <time>2020-05-30T20:07:17Z</time>
      </trkpt>
      <trkpt lat="46.42766" lon="-0.18309">
        <ele>102.6</ele>
        <time>2020-05-30T20:07:18Z</time>
      </trkpt>
      <trkpt lat="46.42766" lon="-0.18309">
        <ele>102.6</ele>
        <time>2020-05-30T20:07:19Z</time>
      </trkpt>
      <trkpt lat="46.42766" lon="-0.18309">
        <ele>102.6</ele>
        <time>2020-05-30T20:07:20Z</time>
      </trkpt>
      <trkpt lat="46.42766" lon="-0.18309">
        <ele>102.6</ele>
        <time>2020-05-30T20:07:21Z</time>
      </trkpt>
      <trkpt lat="46.42766" lon="-0.18308">
        <ele>102.6</ele>
        <time>2020-05-30T20:07:22Z</time>
      </trkpt>
      <trkpt lat="46.42766" lon="-0.18308">
        <ele>102.6</ele>
        <time>2020-05-30T20:07:23Z</time>
      </trkpt>
      <trkpt lat="46.42766" lon="-0.18308">
        <ele>102.6</ele>
        <time>2020-05-30T20:07:24Z</time>
      </trkpt>
      <trkpt lat="46.42766" lon="-0.18308">
        <ele>102.6</ele>
        <time>2020-05-30T20:07:25Z</time>
      </trkpt>
      <trkpt lat="46.42766" lon="-0.18308">
        <ele>102.6</ele>
        <time>2020-05-30T20:07:26Z</time>
      </trkpt>
      <trkpt lat="46.42766" lon="-0.18308">
        <ele>102.6</ele>
        <time>2020-05-30T20:07:27Z</time>
      </trkpt>
      <trkpt lat="46.42766" lon="-0.18307">
        <ele>102.6</ele>
        <time>2020-05-30T20:07:28Z</time>
      </trkpt>
      <trkpt lat="46.42766" lon="-0.18307">
        <ele>102.6</ele>
        <time>2020-05-30T20:07:29Z</time>
      </trkpt>
      <trkpt lat="46.42766" lon="-0.18307">
        <ele>102.6</ele>
        <time>2020-05-30T20:07:30Z</time>
      </trkpt>
      <trkpt lat="46.42766" lon="-0.18307">
        <ele>102.6</ele>
        <time>2020-05-30T20:07:31Z</time>
      </trkpt>
      <trkpt lat="46.42765" lon="-0.18307">
        <ele>102.6</ele>
        <time>2020-05-30T20:07:32Z</time>
      </trkpt>
      <trkpt lat="46.42765" lon="-0.18307">
        <ele>102.6</ele>
        <time>2020-05-30T20:07:33Z</time>
      </trkpt>
      <trkpt lat="46.42765" lon="-0.18308">
        <ele>102.6</ele>
        <time>2020-05-30T20:07:34Z</time>
      </trkpt>
      <trkpt lat="46.42766" lon="-0.18308">
        <ele>102.6</ele>
        <time>2020-05-30T20:07:35Z</time>
      </trkpt>
      <trkpt lat="46.42767" lon="-0.1831">
        <ele>102.6</ele>
        <time>2020-05-30T20:07:36Z</time>
      </trkpt>
      <trkpt lat="46.42767" lon="-0.1831">
        <ele>102.6</ele>
        <time>2020-05-30T20:07:37Z</time>
      </trkpt>
      <trkpt lat="46.42767" lon="-0.1831">
        <ele>102.6</ele>
        <time>2020-05-30T20:07:38Z</time>
      </trkpt>
      <trkpt lat="46.42767" lon="-0.1831">
        <ele>102.6</ele>
        <time>2020-05-30T20:07:39Z</time>
      </trkpt>
      <trkpt lat="46.42767" lon="-0.18309">
        <ele>102.6</ele>
        <time>2020-05-30T20:07:40Z</time>
      </trkpt>
      <trkpt lat="46.42767" lon="-0.18309">
        <ele>102.6</ele>
        <time>2020-05-30T20:07:41Z</time>
      </trkpt>
      <trkpt lat="46.42767" lon="-0.18309">
        <ele>102.6</ele>
        <time>2020-05-30T20:07:42Z</time>
      </trkpt>
      <trkpt lat="46.42767" lon="-0.18309">
        <ele>102.6</ele>
        <time>2020-05-30T20:07:43Z</time>
      </trkpt>
      <trkpt lat="46.42767" lon="-0.18309">
        <ele>102.6</ele>
        <time>2020-05-30T20:07:44Z</time>
      </trkpt>
      <trkpt lat="46.42767" lon="-0.18309">
        <ele>102.6</ele>
        <time>2020-05-30T20:07:45Z</time>
      </trkpt>
      <trkpt lat="46.42768" lon="-0.18309">
        <ele>102.6</ele>
        <time>2020-05-30T20:07:46Z</time>
      </trkpt>
      <trkpt lat="46.42768" lon="-0.18309">
        <ele>102.6</ele>
        <time>2020-05-30T20:07:47Z</time>
      </trkpt>
      <trkpt lat="46.42769" lon="-0.18308">
        <ele>102.6</ele>
        <time>2020-05-30T20:07:48Z</time>
      </trkpt>
      <trkpt lat="46.4277" lon="-0.18307">
        <ele>102.6</ele>
        <time>2020-05-30T20:07:49Z</time>
      </trkpt>
      <trkpt lat="46.4277" lon="-0.18307">
        <ele>102.6</ele>
        <time>2020-05-30T20:07:50Z</time>
      </trkpt>
      <trkpt lat="46.4277" lon="-0.18307">
        <ele>102.6</ele>
        <time>2020-05-30T20:07:51Z</time>
      </trkpt>
      <trkpt lat="46.4277" lon="-0.18307">
        <ele>102.6</ele>
        <time>2020-05-30T20:07:52Z</time>
      </trkpt>
      <trkpt lat="46.4277" lon="-0.18307">
        <ele>102.6</ele>
        <time>2020-05-30T20:07:53Z</time>
      </trkpt>
      <trkpt lat="46.4277" lon="-0.18307">
        <ele>102.6</ele>
        <time>2020-05-30T20:07:54Z</time>
      </trkpt>
      <trkpt lat="46.4277" lon="-0.18307">
        <ele>102.6</ele>
        <time>2020-05-30T20:07:55Z</time>
      </trkpt>
      <trkpt lat="46.4277" lon="-0.18308">
        <ele>102.6</ele>
        <time>2020-05-30T20:07:56Z</time>
      </trkpt>
      <trkpt lat="46.4277" lon="-0.18308">
        <ele>102.6</ele>
        <time>2020-05-30T20:07:57Z</time>
      </trkpt>
      <trkpt lat="46.4277" lon="-0.18308">
        <ele>102.6</ele>
        <time>2020-05-30T20:07:58Z</time>
      </trkpt>
      <trkpt lat="46.4277" lon="-0.18307">
        <ele>102.6</ele>
        <time>2020-05-30T20:07:59Z</time>
      </trkpt>
      <trkpt lat="46.4277" lon="-0.18307">
        <ele>102.6</ele>
        <time>2020-05-30T20:08:00Z</time>
      </trkpt>
      <trkpt lat="46.42771" lon="-0.18306">
        <ele>102.6</ele>
        <time>2020-05-30T20:08:01Z</time>
      </trkpt>
      <trkpt lat="46.42771" lon="-0.18306">
        <ele>102.6</ele>
        <time>2020-05-30T20:08:02Z</time>
      </trkpt>
      <trkpt lat="46.42771" lon="-0.18306">
        <ele>102.6</ele>
        <time>2020-05-30T20:08:03Z</time>
      </trkpt>
      <trkpt lat="46.42771" lon="-0.18306">
        <ele>102.6</ele>
        <time>2020-05-30T20:08:04Z</time>
      </trkpt>
      <trkpt lat="46.42771" lon="-0.18306">
        <ele>102.6</ele>
        <time>2020-05-30T20:08:05Z</time>
      </trkpt>
      <trkpt lat="46.42771" lon="-0.18306">
        <ele>102.6</ele>
        <time>2020-05-30T20:08:06Z</time>
      </trkpt>
      <trkpt lat="46.42771" lon="-0.18306">
        <ele>102.6</ele>
        <time>2020-05-30T20:08:07Z</time>
      </trkpt>
      <trkpt lat="46.4277" lon="-0.18307">
        <ele>102.6</ele>
        <time>2020-05-30T20:08:08Z</time>
      </trkpt>
      <trkpt lat="46.4277" lon="-0.18306">
        <ele>102.6</ele>
        <time>2020-05-30T20:08:09Z</time>
      </trkpt>
      <trkpt lat="46.42769" lon="-0.18306">
        <ele>102.6</ele>
        <time>2020-05-30T20:08:10Z</time>
      </trkpt>
      <trkpt lat="46.42769" lon="-0.18306">
        <ele>102.6</ele>
        <time>2020-05-30T20:08:11Z</time>
      </trkpt>
      <trkpt lat="46.4277" lon="-0.18306">
        <ele>102.6</ele>
        <time>2020-05-30T20:08:12Z</time>
      </trkpt>
      <trkpt lat="46.4277" lon="-0.18306">
        <ele>102.6</ele>
        <time>2020-05-30T20:08:13Z</time>
      </trkpt>
      <trkpt lat="46.4277" lon="-0.18306">
        <ele>102.6</ele>
        <time>2020-05-30T20:08:14Z</time>
      </trkpt>
      <trkpt lat="46.42769" lon="-0.18306">
        <ele>102.6</ele>
        <time>2020-05-30T20:08:15Z</time>
      </trkpt>
      <trkpt lat="46.42769" lon="-0.18306">
        <ele>102.6</ele>
        <time>2020-05-30T20:08:16Z</time>
      </trkpt>
      <trkpt lat="46.42769" lon="-0.18306">
        <ele>102.6</ele>
        <time>2020-05-30T20:08:17Z</time>
      </trkpt>
      <trkpt lat="46.42769" lon="-0.18306">
        <ele>102.6</ele>
        <time>2020-05-30T20:08:18Z</time>
      </trkpt>
      <trkpt lat="46.42769" lon="-0.18306">
        <ele>102.6</ele>
        <time>2020-05-30T20:08:19Z</time>
      </trkpt>
      <trkpt lat="46.42769" lon="-0.18306">
        <ele>102.6</ele>
        <time>2020-05-30T20:08:20Z</time>
      </trkpt>
      <trkpt lat="46.42769" lon="-0.18306">
        <ele>102.6</ele>
        <time>2020-05-30T20:08:21Z</time>
      </trkpt>
      <trkpt lat="46.42769" lon="-0.18306">
        <ele>102.6</ele>
        <time>2020-05-30T20:08:22Z</time>
      </trkpt>
      <trkpt lat="46.42769" lon="-0.18306">
        <ele>102.6</ele>
        <time>2020-05-30T20:08:23Z</time>
      </trkpt>
      <trkpt lat="46.42769" lon="-0.18306">
        <ele>102.6</ele>
        <time>2020-05-30T20:08:24Z</time>
      </trkpt>
      <trkpt lat="46.42769" lon="-0.18306">
        <ele>102.6</ele>
        <time>2020-05-30T20:08:25Z</time>
      </trkpt>
      <trkpt lat="46.42769" lon="-0.18306">
        <ele>102.6</ele>
        <time>2020-05-30T20:08:26Z</time>
      </trkpt>
      <trkpt lat="46.42769" lon="-0.18306">
        <ele>102.6</ele>
        <time>2020-05-30T20:08:27Z</time>
      </trkpt>
      <trkpt lat="46.4277" lon="-0.18305">
        <ele>102.6</ele>
        <time>2020-05-30T20:08:28Z</time>
      </trkpt>
      <trkpt lat="46.4277" lon="-0.18305">
        <ele>102.6</ele>
        <time>2020-05-30T20:08:29Z</time>
      </trkpt>
      <trkpt lat="46.42771" lon="-0.18305">
        <ele>102.6</ele>
        <time>2020-05-30T20:08:30Z</time>
      </trkpt>
      <trkpt lat="46.42772" lon="-0.18304">
        <ele>102.6</ele>
        <time>2020-05-30T20:08:31Z</time>
      </trkpt>
      <trkpt lat="46.42772" lon="-0.18304">
        <ele>102.6</ele>
        <time>2020-05-30T20:08:32Z</time>
      </trkpt>
      <trkpt lat="46.42772" lon="-0.18304">
        <ele>102.6</ele>
        <time>2020-05-30T20:08:33Z</time>
      </trkpt>
      <trkpt lat="46.42772" lon="-0.18304">
        <ele>102.6</ele>
        <time>2020-05-30T20:08:34Z</time>
      </trkpt>
      <trkpt lat="46.42772" lon="-0.18304">
        <ele>102.6</ele>
        <time>2020-05-30T20:08:35Z</time>
      </trkpt>
      <trkpt lat="46.42771" lon="-0.18305">
        <ele>102.6</ele>
        <time>2020-05-30T20:08:36Z</time>
      </trkpt>
      <trkpt lat="46.42771" lon="-0.18305">
        <ele>102.6</ele>
        <time>2020-05-30T20:08:37Z</time>
      </trkpt>
      <trkpt lat="46.42772" lon="-0.18305">
        <ele>102.6</ele>
        <time>2020-05-30T20:08:38Z</time>
      </trkpt>
      <trkpt lat="46.42772" lon="-0.18305">
        <ele>102.6</ele>
        <time>2020-05-30T20:08:39Z</time>
      </trkpt>
      <trkpt lat="46.42772" lon="-0.18306">
        <ele>102.6</ele>
        <time>2020-05-30T20:08:40Z</time>
      </trkpt>
      <trkpt lat="46.42772" lon="-0.18305">
        <ele>102.6</ele>
        <time>2020-05-30T20:08:41Z</time>
      </trkpt>
      <trkpt lat="46.42772" lon="-0.18304">
        <ele>102.6</ele>
        <time>2020-05-30T20:08:42Z</time>
      </trkpt>
      <trkpt lat="46.42772" lon="-0.18303">
        <ele>102.6</ele>
        <time>2020-05-30T20:08:43Z</time>
      </trkpt>
      <trkpt lat="46.42772" lon="-0.18303">
        <ele>102.6</ele>
        <time>2020-05-30T20:08:44Z</time>
      </trkpt>
      <trkpt lat="46.42772" lon="-0.18303">
        <ele>102.6</ele>
        <time>2020-05-30T20:08:45Z</time>
      </trkpt>
      <trkpt lat="46.42773" lon="-0.18303">
        <ele>102.6</ele>
        <time>2020-05-30T20:08:46Z</time>
      </trkpt>
      <trkpt lat="46.42773" lon="-0.18303">
        <ele>102.6</ele>
        <time>2020-05-30T20:08:47Z</time>
      </trkpt>
      <trkpt lat="46.42773" lon="-0.18303">
        <ele>102.6</ele>
        <time>2020-05-30T20:08:48Z</time>
      </trkpt>
      <trkpt lat="46.42773" lon="-0.18303">
        <ele>102.6</ele>
        <time>2020-05-30T20:08:49Z</time>
      </trkpt>
      <trkpt lat="46.42772" lon="-0.18303">
        <ele>102.6</ele>
        <time>2020-05-30T20:08:50Z</time>
      </trkpt>
      <trkpt lat="46.42772" lon="-0.18302">
        <ele>102.5</ele>
        <time>2020-05-30T20:08:51Z</time>
      </trkpt>
      <trkpt lat="46.42772" lon="-0.18302">
        <ele>102.5</ele>
        <time>2020-05-30T20:08:52Z</time>
      </trkpt>
      <trkpt lat="46.42771" lon="-0.18301">
        <ele>102.5</ele>
        <time>2020-05-30T20:08:53Z</time>
      </trkpt>
      <trkpt lat="46.42771" lon="-0.18301">
        <ele>102.5</ele>
        <time>2020-05-30T20:08:54Z</time>
      </trkpt>
      <trkpt lat="46.42771" lon="-0.18301">
        <ele>102.5</ele>
        <time>2020-05-30T20:08:55Z</time>
      </trkpt>
      <trkpt lat="46.42771" lon="-0.18301">
        <ele>102.5</ele>
        <time>2020-05-30T20:08:56Z</time>
      </trkpt>
      <trkpt lat="46.42771" lon="-0.183">
        <ele>102.5</ele>
        <time>2020-05-30T20:08:57Z</time>
      </trkpt>
      <trkpt lat="46.42771" lon="-0.18301">
        <ele>102.5</ele>
        <time>2020-05-30T20:08:58Z</time>
      </trkpt>
      <trkpt lat="46.42771" lon="-0.18301">
        <ele>102.5</ele>
        <time>2020-05-30T20:08:59Z</time>
      </trkpt>
      <trkpt lat="46.42771" lon="-0.18301">
        <ele>102.5</ele>
        <time>2020-05-30T20:09:00Z</time>
      </trkpt>
      <trkpt lat="46.42771" lon="-0.18302">
        <ele>102.5</ele>
        <time>2020-05-30T20:09:01Z</time>
      </trkpt>
      <trkpt lat="46.42771" lon="-0.18302">
        <ele>102.5</ele>
        <time>2020-05-30T20:09:02Z</time>
      </trkpt>
      <trkpt lat="46.42771" lon="-0.18302">
        <ele>102.5</ele>
        <time>2020-05-30T20:09:03Z</time>
      </trkpt>
      <trkpt lat="46.4277" lon="-0.18303">
        <ele>102.5</ele>
        <time>2020-05-30T20:09:04Z</time>
      </trkpt>
      <trkpt lat="46.4277" lon="-0.18303">
        <ele>102.5</ele>
        <time>2020-05-30T20:09:05Z</time>
      </trkpt>
      <trkpt lat="46.4277" lon="-0.18303">
        <ele>102.5</ele>
        <time>2020-05-30T20:09:06Z</time>
      </trkpt>
      <trkpt lat="46.42769" lon="-0.18303">
        <ele>102.5</ele>
        <time>2020-05-30T20:09:07Z</time>
      </trkpt>
      <trkpt lat="46.42769" lon="-0.18303">
        <ele>102.5</ele>
        <time>2020-05-30T20:09:08Z</time>
      </trkpt>
      <trkpt lat="46.42769" lon="-0.18303">
        <ele>102.5</ele>
        <time>2020-05-30T20:09:09Z</time>
      </trkpt>
      <trkpt lat="46.42769" lon="-0.18303">
        <ele>102.5</ele>
        <time>2020-05-30T20:09:10Z</time>
      </trkpt>
      <trkpt lat="46.42769" lon="-0.18303">
        <ele>102.5</ele>
        <time>2020-05-30T20:09:11Z</time>
      </trkpt>
      <trkpt lat="46.42769" lon="-0.18303">
        <ele>102.5</ele>
        <time>2020-05-30T20:09:12Z</time>
      </trkpt>
      <trkpt lat="46.42769" lon="-0.18305">
        <ele>102.5</ele>
        <time>2020-05-30T20:09:13Z</time>
      </trkpt>
      <trkpt lat="46.42768" lon="-0.18306">
        <ele>102.5</ele>
        <time>2020-05-30T20:09:14Z</time>
      </trkpt>
      <trkpt lat="46.42768" lon="-0.18306">
        <ele>102.5</ele>
        <time>2020-05-30T20:09:15Z</time>
      </trkpt>
      <trkpt lat="46.42768" lon="-0.18307">
        <ele>102.5</ele>
        <time>2020-05-30T20:09:16Z</time>
      </trkpt>
      <trkpt lat="46.42768" lon="-0.18307">
        <ele>102.5</ele>
        <time>2020-05-30T20:09:17Z</time>
      </trkpt>
      <trkpt lat="46.42768" lon="-0.18307">
        <ele>102.5</ele>
        <time>2020-05-30T20:09:18Z</time>
      </trkpt>
      <trkpt lat="46.42768" lon="-0.18307">
        <ele>102.5</ele>
        <time>2020-05-30T20:09:19Z</time>
      </trkpt>
      <trkpt lat="46.42767" lon="-0.18306">
        <ele>102.5</ele>
        <time>2020-05-30T20:09:20Z</time>
      </trkpt>
      <trkpt lat="46.42767" lon="-0.18305">
        <ele>102.5</ele>
        <time>2020-05-30T20:09:21Z</time>
      </trkpt>
      <trkpt lat="46.42766" lon="-0.18306">
        <ele>102.5</ele>
        <time>2020-05-30T20:09:22Z</time>
      </trkpt>
      <trkpt lat="46.42766" lon="-0.18306">
        <ele>102.5</ele>
        <time>2020-05-30T20:09:23Z</time>
      </trkpt>
      <trkpt lat="46.42766" lon="-0.18305">
        <ele>102.5</ele>
        <time>2020-05-30T20:09:24Z</time>
      </trkpt>
      <trkpt lat="46.42766" lon="-0.18305">
        <ele>102.5</ele>
        <time>2020-05-30T20:09:25Z</time>
      </trkpt>
      <trkpt lat="46.42767" lon="-0.18305">
        <ele>102.5</ele>
        <time>2020-05-30T20:09:26Z</time>
      </trkpt>
      <trkpt lat="46.42767" lon="-0.18305">
        <ele>102.5</ele>
        <time>2020-05-30T20:09:27Z</time>
      </trkpt>
      <trkpt lat="46.42767" lon="-0.18305">
        <ele>102.5</ele>
        <time>2020-05-30T20:09:28Z</time>
      </trkpt>
      <trkpt lat="46.42768" lon="-0.18305">
        <ele>102.5</ele>
        <time>2020-05-30T20:09:29Z</time>
      </trkpt>
      <trkpt lat="46.42768" lon="-0.18306">
        <ele>102.5</ele>
        <time>2020-05-30T20:09:30Z</time>
      </trkpt>
      <trkpt lat="46.42768" lon="-0.18306">
        <ele>102.5</ele>
        <time>2020-05-30T20:09:31Z</time>
      </trkpt>
      <trkpt lat="46.42768" lon="-0.18307">
        <ele>102.5</ele>
        <time>2020-05-30T20:09:32Z</time>
      </trkpt>
      <trkpt lat="46.42767" lon="-0.18307">
        <ele>102.5</ele>
        <time>2020-05-30T20:09:33Z</time>
      </trkpt>
      <trkpt lat="46.42767" lon="-0.18308">
        <ele>102.5</ele>
        <time>2020-05-30T20:09:34Z</time>
      </trkpt>
      <trkpt lat="46.42767" lon="-0.18309">
        <ele>102.5</ele>
        <time>2020-05-30T20:09:35Z</time>
      </trkpt>
      <trkpt lat="46.42767" lon="-0.1831">
        <ele>102.5</ele>
        <time>2020-05-30T20:09:36Z</time>
      </trkpt>
      <trkpt lat="46.42766" lon="-0.1831">
        <ele>102.5</ele>
        <time>2020-05-30T20:09:37Z</time>
      </trkpt>
      <trkpt lat="46.42766" lon="-0.1831">
        <ele>102.5</ele>
        <time>2020-05-30T20:09:38Z</time>
      </trkpt>
      <trkpt lat="46.42766" lon="-0.1831">
        <ele>102.5</ele>
        <time>2020-05-30T20:09:39Z</time>
      </trkpt>
      <trkpt lat="46.42766" lon="-0.1831">
        <ele>102.5</ele>
        <time>2020-05-30T20:09:40Z</time>
      </trkpt>
      <trkpt lat="46.42766" lon="-0.1831">
        <ele>102.5</ele>
        <time>2020-05-30T20:09:41Z</time>
      </trkpt>
      <trkpt lat="46.42767" lon="-0.1831">
        <ele>102.5</ele>
        <time>2020-05-30T20:09:42Z</time>
      </trkpt>
      <trkpt lat="46.42767" lon="-0.1831">
        <ele>102.5</ele>
        <time>2020-05-30T20:09:43Z</time>
      </trkpt>
      <trkpt lat="46.42768" lon="-0.18309">
        <ele>102.5</ele>
        <time>2020-05-30T20:09:44Z</time>
      </trkpt>
      <trkpt lat="46.42768" lon="-0.18308">
        <ele>102.5</ele>
        <time>2020-05-30T20:09:45Z</time>
      </trkpt>
      <trkpt lat="46.42768" lon="-0.18309">
        <ele>102.5</ele>
        <time>2020-05-30T20:09:46Z</time>
      </trkpt>
      <trkpt lat="46.42768" lon="-0.18309">
        <ele>102.5</ele>
        <time>2020-05-30T20:09:47Z</time>
      </trkpt>
      <trkpt lat="46.42768" lon="-0.18311">
        <ele>102.5</ele>
        <time>2020-05-30T20:09:48Z</time>
      </trkpt>
      <trkpt lat="46.42768" lon="-0.18312">
        <ele>102.5</ele>
        <time>2020-05-30T20:09:49Z</time>
      </trkpt>
      <trkpt lat="46.42768" lon="-0.18312">
        <ele>102.5</ele>
        <time>2020-05-30T20:09:50Z</time>
      </trkpt>
      <trkpt lat="46.42768" lon="-0.18313">
        <ele>102.5</ele>
        <time>2020-05-30T20:09:51Z</time>
      </trkpt>
      <trkpt lat="46.42768" lon="-0.18314">
        <ele>102.5</ele>
        <time>2020-05-30T20:09:52Z</time>
      </trkpt>
      <trkpt lat="46.42767" lon="-0.18314">
        <ele>102.5</ele>
        <time>2020-05-30T20:09:53Z</time>
      </trkpt>
      <trkpt lat="46.42767" lon="-0.18315">
        <ele>102.5</ele>
        <time>2020-05-30T20:09:54Z</time>
      </trkpt>
      <trkpt lat="46.42767" lon="-0.18317">
        <ele>102.5</ele>
        <time>2020-05-30T20:09:55Z</time>
      </trkpt>
      <trkpt lat="46.42767" lon="-0.18319">
        <ele>102.5</ele>
        <time>2020-05-30T20:09:56Z</time>
      </trkpt>
      <trkpt lat="46.42767" lon="-0.1832">
        <ele>102.5</ele>
        <time>2020-05-30T20:09:57Z</time>
      </trkpt>
      <trkpt lat="46.42767" lon="-0.18321">
        <ele>102.5</ele>
        <time>2020-05-30T20:09:58Z</time>
      </trkpt>
      <trkpt lat="46.42767" lon="-0.18323">
        <ele>102.2</ele>
        <time>2020-05-30T20:09:59Z</time>
      </trkpt>
      <trkpt lat="46.42767" lon="-0.18326">
        <ele>102.2</ele>
        <time>2020-05-30T20:10:00Z</time>
      </trkpt>
      <trkpt lat="46.42768" lon="-0.18328">
        <ele>102.2</ele>
        <time>2020-05-30T20:10:01Z</time>
      </trkpt>
      <trkpt lat="46.42768" lon="-0.18329">
        <ele>102.1</ele>
        <time>2020-05-30T20:10:02Z</time>
      </trkpt>
      <trkpt lat="46.42769" lon="-0.18332">
        <ele>102.1</ele>
        <time>2020-05-30T20:10:03Z</time>
      </trkpt>
      <trkpt lat="46.4277" lon="-0.18333">
        <ele>102.1</ele>
        <time>2020-05-30T20:10:04Z</time>
      </trkpt>
      <trkpt lat="46.4277" lon="-0.18334">
        <ele>102.1</ele>
        <time>2020-05-30T20:10:05Z</time>
      </trkpt>
      <trkpt lat="46.4277" lon="-0.18336">
        <ele>102.1</ele>
        <time>2020-05-30T20:10:06Z</time>
      </trkpt>
      <trkpt lat="46.4277" lon="-0.18337">
        <ele>102</ele>
        <time>2020-05-30T20:10:07Z</time>
      </trkpt>
      <trkpt lat="46.4277" lon="-0.18338">
        <ele>102</ele>
        <time>2020-05-30T20:10:08Z</time>
      </trkpt>
      <trkpt lat="46.42771" lon="-0.18339">
        <ele>102</ele>
        <time>2020-05-30T20:10:09Z</time>
      </trkpt>
      <trkpt lat="46.42771" lon="-0.18341">
        <ele>102</ele>
        <time>2020-05-30T20:10:10Z</time>
      </trkpt>
      <trkpt lat="46.42771" lon="-0.18343">
        <ele>102</ele>
        <time>2020-05-30T20:10:11Z</time>
      </trkpt>
      <trkpt lat="46.42771" lon="-0.18344">
        <ele>102</ele>
        <time>2020-05-30T20:10:12Z</time>
      </trkpt>
      <trkpt lat="46.42771" lon="-0.18344">
        <ele>102</ele>
        <time>2020-05-30T20:10:13Z</time>
      </trkpt>
      <trkpt lat="46.42771" lon="-0.18345">
        <ele>101.9</ele>
        <time>2020-05-30T20:10:14Z</time>
      </trkpt>
      <trkpt lat="46.42771" lon="-0.18346">
        <ele>101.9</ele>
        <time>2020-05-30T20:10:15Z</time>
      </trkpt>
      <trkpt lat="46.42771" lon="-0.18345">
        <ele>101.9</ele>
        <time>2020-05-30T20:10:16Z</time>
      </trkpt>
      <trkpt lat="46.42771" lon="-0.18346">
        <ele>101.9</ele>
        <time>2020-05-30T20:10:17Z</time>
      </trkpt>
      <trkpt lat="46.42771" lon="-0.18346">
        <ele>101.9</ele>
        <time>2020-05-30T20:10:18Z</time>
      </trkpt>
      <trkpt lat="46.42772" lon="-0.18346">
        <ele>101.9</ele>
        <time>2020-05-30T20:10:19Z</time>
      </trkpt>
      <trkpt lat="46.42772" lon="-0.18347">
        <ele>101.9</ele>
        <time>2020-05-30T20:10:20Z</time>
      </trkpt>
      <trkpt lat="46.42772" lon="-0.18348">
        <ele>101.9</ele>
        <time>2020-05-30T20:10:21Z</time>
      </trkpt>
      <trkpt lat="46.42772" lon="-0.18349">
        <ele>101.9</ele>
        <time>2020-05-30T20:10:22Z</time>
      </trkpt>
      <trkpt lat="46.42772" lon="-0.18349">
        <ele>101.9</ele>
        <time>2020-05-30T20:10:23Z</time>
      </trkpt>
      <trkpt lat="46.42772" lon="-0.18348">
        <ele>101.9</ele>
        <time>2020-05-30T20:10:24Z</time>
      </trkpt>
      <trkpt lat="46.42772" lon="-0.18348">
        <ele>101.9</ele>
        <time>2020-05-30T20:10:25Z</time>
      </trkpt>
      <trkpt lat="46.42772" lon="-0.18348">
        <ele>101.9</ele>
        <time>2020-05-30T20:10:26Z</time>
      </trkpt>
      <trkpt lat="46.42772" lon="-0.18349">
        <ele>101.9</ele>
        <time>2020-05-30T20:10:27Z</time>
      </trkpt>
      <trkpt lat="46.42772" lon="-0.18349">
        <ele>101.8</ele>
        <time>2020-05-30T20:10:28Z</time>
      </trkpt>
      <trkpt lat="46.42772" lon="-0.1835">
        <ele>101.8</ele>
        <time>2020-05-30T20:10:29Z</time>
      </trkpt>
      <trkpt lat="46.42772" lon="-0.18351">
        <ele>101.8</ele>
        <time>2020-05-30T20:10:30Z</time>
      </trkpt>
      <trkpt lat="46.42772" lon="-0.18351">
        <ele>101.8</ele>
        <time>2020-05-30T20:10:31Z</time>
      </trkpt>
      <trkpt lat="46.42772" lon="-0.18351">
        <ele>101.8</ele>
        <time>2020-05-30T20:10:32Z</time>
      </trkpt>
      <trkpt lat="46.42772" lon="-0.18351">
        <ele>101.8</ele>
        <time>2020-05-30T20:10:33Z</time>
      </trkpt>
      <trkpt lat="46.42772" lon="-0.18352">
        <ele>101.8</ele>
        <time>2020-05-30T20:10:34Z</time>
      </trkpt>
      <trkpt lat="46.42772" lon="-0.18352">
        <ele>101.8</ele>
        <time>2020-05-30T20:10:35Z</time>
      </trkpt>
      <trkpt lat="46.42772" lon="-0.18353">
        <ele>101.7</ele>
        <time>2020-05-30T20:10:36Z</time>
      </trkpt>
      <trkpt lat="46.42773" lon="-0.18355">
        <ele>101.7</ele>
        <time>2020-05-30T20:10:37Z</time>
      </trkpt>
      <trkpt lat="46.42773" lon="-0.18356">
        <ele>101.7</ele>
        <time>2020-05-30T20:10:38Z</time>
      </trkpt>
      <trkpt lat="46.42773" lon="-0.18357">
        <ele>101.7</ele>
        <time>2020-05-30T20:10:39Z</time>
      </trkpt>
      <trkpt lat="46.42773" lon="-0.18358">
        <ele>101.7</ele>
        <time>2020-05-30T20:10:40Z</time>
      </trkpt>
      <trkpt lat="46.42773" lon="-0.18358">
        <ele>101.7</ele>
        <time>2020-05-30T20:10:41Z</time>
      </trkpt>
      <trkpt lat="46.42773" lon="-0.18359">
        <ele>101.7</ele>
        <time>2020-05-30T20:10:42Z</time>
      </trkpt>
      <trkpt lat="46.42773" lon="-0.1836">
        <ele>101.7</ele>
        <time>2020-05-30T20:10:43Z</time>
      </trkpt>
      <trkpt lat="46.42773" lon="-0.1836">
        <ele>101.7</ele>
        <time>2020-05-30T20:10:44Z</time>
      </trkpt>
      <trkpt lat="46.42773" lon="-0.18362">
        <ele>101.7</ele>
        <time>2020-05-30T20:10:45Z</time>
      </trkpt>
      <trkpt lat="46.42773" lon="-0.18362">
        <ele>101.6</ele>
        <time>2020-05-30T20:10:46Z</time>
      </trkpt>
      <trkpt lat="46.42774" lon="-0.18364">
        <ele>101.6</ele>
        <time>2020-05-30T20:10:47Z</time>
      </trkpt>
      <trkpt lat="46.42774" lon="-0.18365">
        <ele>101.6</ele>
        <time>2020-05-30T20:10:48Z</time>
      </trkpt>
      <trkpt lat="46.42775" lon="-0.18367">
        <ele>101.6</ele>
        <time>2020-05-30T20:10:49Z</time>
      </trkpt>
      <trkpt lat="46.42774" lon="-0.18368">
        <ele>101.6</ele>
        <time>2020-05-30T20:10:50Z</time>
      </trkpt>
      <trkpt lat="46.42774" lon="-0.18369">
        <ele>101.6</ele>
        <time>2020-05-30T20:10:51Z</time>
      </trkpt>
      <trkpt lat="46.42774" lon="-0.18369">
        <ele>101.6</ele>
        <time>2020-05-30T20:10:52Z</time>
      </trkpt>
      <trkpt lat="46.42774" lon="-0.1837">
        <ele>101.6</ele>
        <time>2020-05-30T20:10:53Z</time>
      </trkpt>
      <trkpt lat="46.42774" lon="-0.1837">
        <ele>101.6</ele>
        <time>2020-05-30T20:10:54Z</time>
      </trkpt>
      <trkpt lat="46.42774" lon="-0.1837">
        <ele>101.6</ele>
        <time>2020-05-30T20:10:55Z</time>
      </trkpt>
      <trkpt lat="46.42774" lon="-0.1837">
        <ele>101.6</ele>
        <time>2020-05-30T20:10:56Z</time>
      </trkpt>
      <trkpt lat="46.42774" lon="-0.1837">
        <ele>101.1</ele>
        <time>2020-05-30T20:10:57Z</time>
      </trkpt>
      <trkpt lat="46.42774" lon="-0.18371">
        <ele>101.1</ele>
        <time>2020-05-30T20:10:58Z</time>
      </trkpt>
      <trkpt lat="46.42774" lon="-0.18372">
        <ele>101.1</ele>
        <time>2020-05-30T20:10:59Z</time>
      </trkpt>
      <trkpt lat="46.42774" lon="-0.18372">
        <ele>101.1</ele>
        <time>2020-05-30T20:11:00Z</time>
      </trkpt>
      <trkpt lat="46.42773" lon="-0.18372">
        <ele>101.1</ele>
        <time>2020-05-30T20:11:01Z</time>
      </trkpt>
      <trkpt lat="46.42773" lon="-0.18372">
        <ele>101.1</ele>
        <time>2020-05-30T20:11:02Z</time>
      </trkpt>
      <trkpt lat="46.42773" lon="-0.18373">
        <ele>101</ele>
        <time>2020-05-30T20:11:03Z</time>
      </trkpt>
      <trkpt lat="46.42774" lon="-0.18374">
        <ele>101</ele>
        <time>2020-05-30T20:11:04Z</time>
      </trkpt>
      <trkpt lat="46.42773" lon="-0.18375">
        <ele>101</ele>
        <time>2020-05-30T20:11:05Z</time>
      </trkpt>
      <trkpt lat="46.42772" lon="-0.18375">
        <ele>100.9</ele>
        <time>2020-05-30T20:11:06Z</time>
      </trkpt>
      <trkpt lat="46.42773" lon="-0.18375">
        <ele>100.9</ele>
        <time>2020-05-30T20:11:07Z</time>
      </trkpt>
      <trkpt lat="46.42772" lon="-0.18375">
        <ele>100.9</ele>
        <time>2020-05-30T20:11:08Z</time>
      </trkpt>
      <trkpt lat="46.42772" lon="-0.18375">
        <ele>100.9</ele>
        <time>2020-05-30T20:11:09Z</time>
      </trkpt>
      <trkpt lat="46.42771" lon="-0.18374">
        <ele>100.9</ele>
        <time>2020-05-30T20:11:10Z</time>
      </trkpt>
      <trkpt lat="46.42771" lon="-0.18374">
        <ele>100.9</ele>
        <time>2020-05-30T20:11:11Z</time>
      </trkpt>
      <trkpt lat="46.4277" lon="-0.18374">
        <ele>100.8</ele>
        <time>2020-05-30T20:11:12Z</time>
      </trkpt>
      <trkpt lat="46.4277" lon="-0.18374">
        <ele>100.8</ele>
        <time>2020-05-30T20:11:13Z</time>
      </trkpt>
      <trkpt lat="46.4277" lon="-0.18375">
        <ele>100.8</ele>
        <time>2020-05-30T20:11:14Z</time>
      </trkpt>
      <trkpt lat="46.42768" lon="-0.18375">
        <ele>100.8</ele>
        <time>2020-05-30T20:11:15Z</time>
      </trkpt>
      <trkpt lat="46.42768" lon="-0.18376">
        <ele>100.7</ele>
        <time>2020-05-30T20:11:16Z</time>
      </trkpt>
      <trkpt lat="46.42767" lon="-0.18377">
        <ele>100.7</ele>
        <time>2020-05-30T20:11:17Z</time>
      </trkpt>
      <trkpt lat="46.42766" lon="-0.18377">
        <ele>100.7</ele>
        <time>2020-05-30T20:11:18Z</time>
      </trkpt>
      <trkpt lat="46.42765" lon="-0.18377">
        <ele>100.6</ele>
        <time>2020-05-30T20:11:19Z</time>
      </trkpt>
      <trkpt lat="46.42764" lon="-0.18377">
        <ele>100.6</ele>
        <time>2020-05-30T20:11:20Z</time>
      </trkpt>
      <trkpt lat="46.42763" lon="-0.18376">
        <ele>100.6</ele>
        <time>2020-05-30T20:11:21Z</time>
      </trkpt>
      <trkpt lat="46.42762" lon="-0.18376">
        <ele>100.6</ele>
        <time>2020-05-30T20:11:22Z</time>
      </trkpt>
      <trkpt lat="46.42761" lon="-0.18377">
        <ele>100.6</ele>
        <time>2020-05-30T20:11:23Z</time>
      </trkpt>
      <trkpt lat="46.42761" lon="-0.18377">
        <ele>100.6</ele>
        <time>2020-05-30T20:11:24Z</time>
      </trkpt>
      <trkpt lat="46.4276" lon="-0.18377">
        <ele>100.3</ele>
        <time>2020-05-30T20:11:25Z</time>
      </trkpt>
      <trkpt lat="46.42759" lon="-0.18377">
        <ele>100.3</ele>
        <time>2020-05-30T20:11:26Z</time>
      </trkpt>
      <trkpt lat="46.42758" lon="-0.18377">
        <ele>100.3</ele>
        <time>2020-05-30T20:11:27Z</time>
      </trkpt>
      <trkpt lat="46.42758" lon="-0.18376">
        <ele>100.3</ele>
        <time>2020-05-30T20:11:28Z</time>
      </trkpt>
      <trkpt lat="46.42758" lon="-0.18376">
        <ele>100.3</ele>
        <time>2020-05-30T20:11:29Z</time>
      </trkpt>
      <trkpt lat="46.42758" lon="-0.18376">
        <ele>100.3</ele>
        <time>2020-05-30T20:11:30Z</time>
      </trkpt>
      <trkpt lat="46.42758" lon="-0.18377">
        <ele>100.3</ele>
        <time>2020-05-30T20:11:31Z</time>
      </trkpt>
      <trkpt lat="46.42758" lon="-0.18377">
        <ele>100.3</ele>
        <time>2020-05-30T20:11:32Z</time>
      </trkpt>
      <trkpt lat="46.42758" lon="-0.18377">
        <ele>100.3</ele>
        <time>2020-05-30T20:11:33Z</time>
      </trkpt>
      <trkpt lat="46.42758" lon="-0.18377">
        <ele>100.3</ele>
        <time>2020-05-30T20:11:34Z</time>
      </trkpt>
      <trkpt lat="46.42759" lon="-0.18377">
        <ele>100.3</ele>
        <time>2020-05-30T20:11:35Z</time>
      </trkpt>
      <trkpt lat="46.42759" lon="-0.18378">
        <ele>100.3</ele>
        <time>2020-05-30T20:11:36Z</time>
      </trkpt>
      <trkpt lat="46.42759" lon="-0.18378">
        <ele>100.3</ele>
        <time>2020-05-30T20:11:37Z</time>
      </trkpt>
      <trkpt lat="46.4276" lon="-0.18378">
        <ele>100.3</ele>
        <time>2020-05-30T20:11:38Z</time>
      </trkpt>
      <trkpt lat="46.42759" lon="-0.18378">
        <ele>100.3</ele>
        <time>2020-05-30T20:11:39Z</time>
      </trkpt>
      <trkpt lat="46.4276" lon="-0.18378">
        <ele>100.3</ele>
        <time>2020-05-30T20:11:40Z</time>
      </trkpt>
      <trkpt lat="46.42761" lon="-0.18378">
        <ele>100.3</ele>
        <time>2020-05-30T20:11:41Z</time>
      </trkpt>
      <trkpt lat="46.42761" lon="-0.18379">
        <ele>100.3</ele>
        <time>2020-05-30T20:11:42Z</time>
      </trkpt>
      <trkpt lat="46.42761" lon="-0.1838">
        <ele>100.3</ele>
        <time>2020-05-30T20:11:43Z</time>
      </trkpt>
      <trkpt lat="46.42761" lon="-0.1838">
        <ele>100.3</ele>
        <time>2020-05-30T20:11:44Z</time>
      </trkpt>
      <trkpt lat="46.42762" lon="-0.18381">
        <ele>100.3</ele>
        <time>2020-05-30T20:11:45Z</time>
      </trkpt>
      <trkpt lat="46.42762" lon="-0.18382">
        <ele>100.3</ele>
        <time>2020-05-30T20:11:46Z</time>
      </trkpt>
      <trkpt lat="46.42763" lon="-0.18383">
        <ele>100.3</ele>
        <time>2020-05-30T20:11:47Z</time>
      </trkpt>
      <trkpt lat="46.42763" lon="-0.18384">
        <ele>100.3</ele>
        <time>2020-05-30T20:11:48Z</time>
      </trkpt>
      <trkpt lat="46.42764" lon="-0.18387">
        <ele>100.3</ele>
        <time>2020-05-30T20:11:49Z</time>
      </trkpt>
      <trkpt lat="46.42764" lon="-0.18388">
        <ele>100.3</ele>
        <time>2020-05-30T20:11:50Z</time>
      </trkpt>
      <trkpt lat="46.42765" lon="-0.1839">
        <ele>100.3</ele>
        <time>2020-05-30T20:11:51Z</time>
      </trkpt>
      <trkpt lat="46.42765" lon="-0.18391">
        <ele>100.3</ele>
        <time>2020-05-30T20:11:52Z</time>
      </trkpt>
      <trkpt lat="46.42766" lon="-0.18392">
        <ele>100.1</ele>
        <time>2020-05-30T20:11:53Z</time>
      </trkpt>
      <trkpt lat="46.42766" lon="-0.18393">
        <ele>100.2</ele>
        <time>2020-05-30T20:11:54Z</time>
      </trkpt>
      <trkpt lat="46.42767" lon="-0.18394">
        <ele>100.2</ele>
        <time>2020-05-30T20:11:55Z</time>
      </trkpt>
      <trkpt lat="46.42767" lon="-0.18394">
        <ele>100.2</ele>
        <time>2020-05-30T20:11:56Z</time>
      </trkpt>
      <trkpt lat="46.42767" lon="-0.18395">
        <ele>100.3</ele>
        <time>2020-05-30T20:11:57Z</time>
      </trkpt>
      <trkpt lat="46.42767" lon="-0.18395">
        <ele>100.3</ele>
        <time>2020-05-30T20:11:58Z</time>
      </trkpt>
      <trkpt lat="46.42767" lon="-0.18395">
        <ele>100.4</ele>
        <time>2020-05-30T20:11:59Z</time>
      </trkpt>
      <trkpt lat="46.42767" lon="-0.18396">
        <ele>100.4</ele>
        <time>2020-05-30T20:12:00Z</time>
      </trkpt>
      <trkpt lat="46.42767" lon="-0.18397">
        <ele>100.4</ele>
        <time>2020-05-30T20:12:01Z</time>
      </trkpt>
      <trkpt lat="46.42767" lon="-0.18397">
        <ele>100.5</ele>
        <time>2020-05-30T20:12:02Z</time>
      </trkpt>
      <trkpt lat="46.42767" lon="-0.18398">
        <ele>100.5</ele>
        <time>2020-05-30T20:12:03Z</time>
      </trkpt>
      <trkpt lat="46.42767" lon="-0.18398">
        <ele>100.6</ele>
        <time>2020-05-30T20:12:04Z</time>
      </trkpt>
      <trkpt lat="46.42768" lon="-0.184">
        <ele>100.7</ele>
        <time>2020-05-30T20:12:05Z</time>
      </trkpt>
      <trkpt lat="46.42768" lon="-0.18402">
        <ele>100.8</ele>
        <time>2020-05-30T20:12:06Z</time>
      </trkpt>
      <trkpt lat="46.42768" lon="-0.18403">
        <ele>100.9</ele>
        <time>2020-05-30T20:12:07Z</time>
      </trkpt>
      <trkpt lat="46.42768" lon="-0.18405">
        <ele>101</ele>
        <time>2020-05-30T20:12:08Z</time>
      </trkpt>
      <trkpt lat="46.42768" lon="-0.18406">
        <ele>101.1</ele>
        <time>2020-05-30T20:12:09Z</time>
      </trkpt>
      <trkpt lat="46.42768" lon="-0.18406">
        <ele>101.2</ele>
        <time>2020-05-30T20:12:10Z</time>
      </trkpt>
      <trkpt lat="46.42768" lon="-0.18407">
        <ele>101.2</ele>
        <time>2020-05-30T20:12:11Z</time>
      </trkpt>
      <trkpt lat="46.42768" lon="-0.18408">
        <ele>101.3</ele>
        <time>2020-05-30T20:12:12Z</time>
      </trkpt>
      <trkpt lat="46.42768" lon="-0.18409">
        <ele>101.4</ele>
        <time>2020-05-30T20:12:13Z</time>
      </trkpt>
      <trkpt lat="46.42768" lon="-0.18409">
        <ele>101.4</ele>
        <time>2020-05-30T20:12:14Z</time>
      </trkpt>
      <trkpt lat="46.42768" lon="-0.1841">
        <ele>101.5</ele>
        <time>2020-05-30T20:12:15Z</time>
      </trkpt>
      <trkpt lat="46.42768" lon="-0.18411">
        <ele>101.5</ele>
        <time>2020-05-30T20:12:16Z</time>
      </trkpt>
      <trkpt lat="46.42768" lon="-0.18413">
        <ele>101.6</ele>
        <time>2020-05-30T20:12:17Z</time>
      </trkpt>
      <trkpt lat="46.42768" lon="-0.18414">
        <ele>101.8</ele>
        <time>2020-05-30T20:12:18Z</time>
      </trkpt>
      <trkpt lat="46.42769" lon="-0.18415">
        <ele>101.9</ele>
        <time>2020-05-30T20:12:19Z</time>
      </trkpt>
      <trkpt lat="46.42769" lon="-0.18417">
        <ele>101.9</ele>
        <time>2020-05-30T20:12:20Z</time>
      </trkpt>
      <trkpt lat="46.42769" lon="-0.18417">
        <ele>102</ele>
        <time>2020-05-30T20:12:21Z</time>
      </trkpt>
      <trkpt lat="46.42769" lon="-0.18417">
        <ele>102</ele>
        <time>2020-05-30T20:12:22Z</time>
      </trkpt>
      <trkpt lat="46.42769" lon="-0.18418">
        <ele>102</ele>
        <time>2020-05-30T20:12:23Z</time>
      </trkpt>
      <trkpt lat="46.4277" lon="-0.18418">
        <ele>102.1</ele>
        <time>2020-05-30T20:12:24Z</time>
      </trkpt>
      <trkpt lat="46.4277" lon="-0.18419">
        <ele>102.1</ele>
        <time>2020-05-30T20:12:25Z</time>
      </trkpt>
      <trkpt lat="46.4277" lon="-0.18419">
        <ele>102.2</ele>
        <time>2020-05-30T20:12:26Z</time>
      </trkpt>
      <trkpt lat="46.4277" lon="-0.18419">
        <ele>102.2</ele>
        <time>2020-05-30T20:12:27Z</time>
      </trkpt>
      <trkpt lat="46.4277" lon="-0.1842">
        <ele>102.2</ele>
        <time>2020-05-30T20:12:28Z</time>
      </trkpt>
      <trkpt lat="46.42771" lon="-0.1842">
        <ele>102.3</ele>
        <time>2020-05-30T20:12:29Z</time>
      </trkpt>
      <trkpt lat="46.42771" lon="-0.18421">
        <ele>102.3</ele>
        <time>2020-05-30T20:12:30Z</time>
      </trkpt>
      <trkpt lat="46.42771" lon="-0.18421">
        <ele>102.3</ele>
        <time>2020-05-30T20:12:31Z</time>
      </trkpt>
      <trkpt lat="46.42771" lon="-0.18423">
        <ele>102.4</ele>
        <time>2020-05-30T20:12:32Z</time>
      </trkpt>
      <trkpt lat="46.42772" lon="-0.18423">
        <ele>102.5</ele>
        <time>2020-05-30T20:12:33Z</time>
      </trkpt>
      <trkpt lat="46.42772" lon="-0.18424">
        <ele>102.5</ele>
        <time>2020-05-30T20:12:34Z</time>
      </trkpt>
      <trkpt lat="46.42773" lon="-0.18425">
        <ele>102.6</ele>
        <time>2020-05-30T20:12:35Z</time>
      </trkpt>
      <trkpt lat="46.42773" lon="-0.18427">
        <ele>102.7</ele>
        <time>2020-05-30T20:12:36Z</time>
      </trkpt>
      <trkpt lat="46.42774" lon="-0.18427">
        <ele>102.7</ele>
        <time>2020-05-30T20:12:37Z</time>
      </trkpt>
      <trkpt lat="46.42775" lon="-0.18428">
        <ele>102.8</ele>
        <time>2020-05-30T20:12:38Z</time>
      </trkpt>
      <trkpt lat="46.42775" lon="-0.18429">
        <ele>102.8</ele>
        <time>2020-05-30T20:12:39Z</time>
      </trkpt>
      <trkpt lat="46.42775" lon="-0.18429">
        <ele>102.9</ele>
        <time>2020-05-30T20:12:40Z</time>
      </trkpt>
      <trkpt lat="46.42776" lon="-0.1843">
        <ele>102.9</ele>
        <time>2020-05-30T20:12:41Z</time>
      </trkpt>
      <trkpt lat="46.42776" lon="-0.1843">
        <ele>102.9</ele>
        <time>2020-05-30T20:12:42Z</time>
      </trkpt>
      <trkpt lat="46.42777" lon="-0.1843">
        <ele>102.9</ele>
        <time>2020-05-30T20:12:43Z</time>
      </trkpt>
      <trkpt lat="46.42777" lon="-0.1843">
        <ele>103</ele>
        <time>2020-05-30T20:12:44Z</time>
      </trkpt>
      <trkpt lat="46.42777" lon="-0.1843">
        <ele>103</ele>
        <time>2020-05-30T20:12:45Z</time>
      </trkpt>
      <trkpt lat="46.42777" lon="-0.1843">
        <ele>103</ele>
        <time>2020-05-30T20:12:46Z</time>
      </trkpt>
      <trkpt lat="46.42777" lon="-0.1843">
        <ele>103</ele>
        <time>2020-05-30T20:12:47Z</time>
      </trkpt>
      <trkpt lat="46.42777" lon="-0.1843">
        <ele>103</ele>
        <time>2020-05-30T20:12:48Z</time>
      </trkpt>
      <trkpt lat="46.42778" lon="-0.1843">
        <ele>103</ele>
        <time>2020-05-30T20:12:49Z</time>
      </trkpt>
      <trkpt lat="46.42778" lon="-0.1843">
        <ele>103</ele>
        <time>2020-05-30T20:12:50Z</time>
      </trkpt>
      <trkpt lat="46.42778" lon="-0.1843">
        <ele>103</ele>
        <time>2020-05-30T20:12:51Z</time>
      </trkpt>
      <trkpt lat="46.42778" lon="-0.18431">
        <ele>103</ele>
        <time>2020-05-30T20:12:52Z</time>
      </trkpt>
      <trkpt lat="46.42779" lon="-0.18432">
        <ele>103.1</ele>
        <time>2020-05-30T20:12:53Z</time>
      </trkpt>
      <trkpt lat="46.4278" lon="-0.18432">
        <ele>103.1</ele>
        <time>2020-05-30T20:12:54Z</time>
      </trkpt>
      <trkpt lat="46.42781" lon="-0.18433">
        <ele>103.1</ele>
        <time>2020-05-30T20:12:55Z</time>
      </trkpt>
      <trkpt lat="46.42781" lon="-0.18433">
        <ele>103.1</ele>
        <time>2020-05-30T20:12:56Z</time>
      </trkpt>
      <trkpt lat="46.42781" lon="-0.18433">
        <ele>103.1</ele>
        <time>2020-05-30T20:12:57Z</time>
      </trkpt>
      <trkpt lat="46.42781" lon="-0.18433">
        <ele>103.1</ele>
        <time>2020-05-30T20:12:58Z</time>
      </trkpt>
      <trkpt lat="46.42781" lon="-0.18434">
        <ele>103.2</ele>
        <time>2020-05-30T20:12:59Z</time>
      </trkpt>
      <trkpt lat="46.42782" lon="-0.18435">
        <ele>103.2</ele>
        <time>2020-05-30T20:13:00Z</time>
      </trkpt>
      <trkpt lat="46.42782" lon="-0.18436">
        <ele>103.2</ele>
        <time>2020-05-30T20:13:01Z</time>
      </trkpt>
      <trkpt lat="46.42782" lon="-0.18436">
        <ele>103.2</ele>
        <time>2020-05-30T20:13:02Z</time>
      </trkpt>
      <trkpt lat="46.42783" lon="-0.18436">
        <ele>103.2</ele>
        <time>2020-05-30T20:13:03Z</time>
      </trkpt>
      <trkpt lat="46.42783" lon="-0.18437">
        <ele>103.2</ele>
        <time>2020-05-30T20:13:04Z</time>
      </trkpt>
      <trkpt lat="46.42784" lon="-0.18437">
        <ele>103.2</ele>
        <time>2020-05-30T20:13:05Z</time>
      </trkpt>
      <trkpt lat="46.42784" lon="-0.18437">
        <ele>103.2</ele>
        <time>2020-05-30T20:13:06Z</time>
      </trkpt>
      <trkpt lat="46.42784" lon="-0.18437">
        <ele>103.2</ele>
        <time>2020-05-30T20:13:07Z</time>
      </trkpt>
      <trkpt lat="46.42784" lon="-0.18438">
        <ele>103.2</ele>
        <time>2020-05-30T20:13:08Z</time>
      </trkpt>
      <trkpt lat="46.42785" lon="-0.18439">
        <ele>103.2</ele>
        <time>2020-05-30T20:13:09Z</time>
      </trkpt>
      <trkpt lat="46.42785" lon="-0.18439">
        <ele>103.2</ele>
        <time>2020-05-30T20:13:10Z</time>
      </trkpt>
      <trkpt lat="46.42786" lon="-0.1844">
        <ele>103.1</ele>
        <time>2020-05-30T20:13:11Z</time>
      </trkpt>
      <trkpt lat="46.42787" lon="-0.18441">
        <ele>103.1</ele>
        <time>2020-05-30T20:13:12Z</time>
      </trkpt>
      <trkpt lat="46.42788" lon="-0.18442">
        <ele>103.1</ele>
        <time>2020-05-30T20:13:13Z</time>
      </trkpt>
      <trkpt lat="46.42788" lon="-0.18443">
        <ele>103.1</ele>
        <time>2020-05-30T20:13:14Z</time>
      </trkpt>
      <trkpt lat="46.42788" lon="-0.18443">
        <ele>103.1</ele>
        <time>2020-05-30T20:13:15Z</time>
      </trkpt>
      <trkpt lat="46.42789" lon="-0.18443">
        <ele>103</ele>
        <time>2020-05-30T20:13:16Z</time>
      </trkpt>
      <trkpt lat="46.4279" lon="-0.18445">
        <ele>102.9</ele>
        <time>2020-05-30T20:13:17Z</time>
      </trkpt>
      <trkpt lat="46.42791" lon="-0.18446">
        <ele>102.9</ele>
        <time>2020-05-30T20:13:18Z</time>
      </trkpt>
      <trkpt lat="46.42792" lon="-0.18448">
        <ele>102.7</ele>
        <time>2020-05-30T20:13:19Z</time>
      </trkpt>
      <trkpt lat="46.42793" lon="-0.1845">
        <ele>103.6</ele>
        <time>2020-05-30T20:13:20Z</time>
      </trkpt>
      <trkpt lat="46.42794" lon="-0.18452">
        <ele>103.8</ele>
        <time>2020-05-30T20:13:21Z</time>
      </trkpt>
      <trkpt lat="46.42795" lon="-0.18453">
        <ele>104</ele>
        <time>2020-05-30T20:13:22Z</time>
      </trkpt>
      <trkpt lat="46.42795" lon="-0.18454">
        <ele>104.2</ele>
        <time>2020-05-30T20:13:23Z</time>
      </trkpt>
      <trkpt lat="46.42796" lon="-0.18455">
        <ele>104.3</ele>
        <time>2020-05-30T20:13:24Z</time>
      </trkpt>
      <trkpt lat="46.42796" lon="-0.18455">
        <ele>104.4</ele>
        <time>2020-05-30T20:13:25Z</time>
      </trkpt>
      <trkpt lat="46.42797" lon="-0.18456">
        <ele>104.6</ele>
        <time>2020-05-30T20:13:26Z</time>
      </trkpt>
      <trkpt lat="46.42798" lon="-0.18456">
        <ele>104.8</ele>
        <time>2020-05-30T20:13:27Z</time>
      </trkpt>
      <trkpt lat="46.42799" lon="-0.18456">
        <ele>105</ele>
        <time>2020-05-30T20:13:28Z</time>
      </trkpt>
      <trkpt lat="46.42801" lon="-0.18457">
        <ele>105.3</ele>
        <time>2020-05-30T20:13:29Z</time>
      </trkpt>
      <trkpt lat="46.42802" lon="-0.18459">
        <ele>105.5</ele>
        <time>2020-05-30T20:13:30Z</time>
      </trkpt>
      <trkpt lat="46.42803" lon="-0.1846">
        <ele>105.9</ele>
        <time>2020-05-30T20:13:31Z</time>
      </trkpt>
      <trkpt lat="46.42804" lon="-0.18461">
        <ele>106.1</ele>
        <time>2020-05-30T20:13:32Z</time>
      </trkpt>
      <trkpt lat="46.42805" lon="-0.18463">
        <ele>106.3</ele>
        <time>2020-05-30T20:13:33Z</time>
      </trkpt>
      <trkpt lat="46.42807" lon="-0.18464">
        <ele>106.6</ele>
        <time>2020-05-30T20:13:34Z</time>
      </trkpt>
      <trkpt lat="46.42808" lon="-0.18465">
        <ele>106.9</ele>
        <time>2020-05-30T20:13:35Z</time>
      </trkpt>
      <trkpt lat="46.42809" lon="-0.18466">
        <ele>107.1</ele>
        <time>2020-05-30T20:13:36Z</time>
      </trkpt>
      <trkpt lat="46.4281" lon="-0.18467">
        <ele>107.3</ele>
        <time>2020-05-30T20:13:37Z</time>
      </trkpt>
      <trkpt lat="46.42811" lon="-0.18468">
        <ele>107.5</ele>
        <time>2020-05-30T20:13:38Z</time>
      </trkpt>
      <trkpt lat="46.42812" lon="-0.18469">
        <ele>107.6</ele>
        <time>2020-05-30T20:13:39Z</time>
      </trkpt>
      <trkpt lat="46.42813" lon="-0.18471">
        <ele>108</ele>
        <time>2020-05-30T20:13:40Z</time>
      </trkpt>
      <trkpt lat="46.42814" lon="-0.18472">
        <ele>108.1</ele>
        <time>2020-05-30T20:13:41Z</time>
      </trkpt>
      <trkpt lat="46.42814" lon="-0.18473">
        <ele>108.3</ele>
        <time>2020-05-30T20:13:42Z</time>
      </trkpt>
      <trkpt lat="46.42815" lon="-0.18474">
        <ele>108.4</ele>
        <time>2020-05-30T20:13:43Z</time>
      </trkpt>
      <trkpt lat="46.42815" lon="-0.18475">
        <ele>108.6</ele>
        <time>2020-05-30T20:13:44Z</time>
      </trkpt>
      <trkpt lat="46.42816" lon="-0.18476">
        <ele>108.7</ele>
        <time>2020-05-30T20:13:45Z</time>
      </trkpt>
      <trkpt lat="46.42816" lon="-0.18477">
        <ele>108.8</ele>
        <time>2020-05-30T20:13:46Z</time>
      </trkpt>
      <trkpt lat="46.42817" lon="-0.18478">
        <ele>109</ele>
        <time>2020-05-30T20:13:47Z</time>
      </trkpt>
      <trkpt lat="46.42818" lon="-0.1848">
        <ele>109.1</ele>
        <time>2020-05-30T20:13:48Z</time>
      </trkpt>
      <trkpt lat="46.42818" lon="-0.1848">
        <ele>109.2</ele>
        <time>2020-05-30T20:13:49Z</time>
      </trkpt>
      <trkpt lat="46.42818" lon="-0.18481">
        <ele>109.3</ele>
        <time>2020-05-30T20:13:50Z</time>
      </trkpt>
      <trkpt lat="46.42819" lon="-0.18482">
        <ele>109.5</ele>
        <time>2020-05-30T20:13:51Z</time>
      </trkpt>
      <trkpt lat="46.42819" lon="-0.18482">
        <ele>109.5</ele>
        <time>2020-05-30T20:13:52Z</time>
      </trkpt>
      <trkpt lat="46.42819" lon="-0.18482">
        <ele>109.5</ele>
        <time>2020-05-30T20:13:53Z</time>
      </trkpt>
      <trkpt lat="46.4282" lon="-0.18483">
        <ele>109.7</ele>
        <time>2020-05-30T20:13:54Z</time>
      </trkpt>
      <trkpt lat="46.42821" lon="-0.18484">
        <ele>109.8</ele>
        <time>2020-05-30T20:13:55Z</time>
      </trkpt>
      <trkpt lat="46.42824" lon="-0.18486">
        <ele>110.3</ele>
        <time>2020-05-30T20:13:56Z</time>
      </trkpt>
      <trkpt lat="46.42825" lon="-0.18487">
        <ele>110.4</ele>
        <time>2020-05-30T20:13:57Z</time>
      </trkpt>
      <trkpt lat="46.42827" lon="-0.1849">
        <ele>110.8</ele>
        <time>2020-05-30T20:13:58Z</time>
      </trkpt>
      <trkpt lat="46.42827" lon="-0.18491">
        <ele>110.9</ele>
        <time>2020-05-30T20:13:59Z</time>
      </trkpt>
      <trkpt lat="46.42828" lon="-0.18492">
        <ele>111.1</ele>
        <time>2020-05-30T20:14:00Z</time>
      </trkpt>
      <trkpt lat="46.42829" lon="-0.18493">
        <ele>111.3</ele>
        <time>2020-05-30T20:14:01Z</time>
      </trkpt>
      <trkpt lat="46.4283" lon="-0.18495">
        <ele>111.5</ele>
        <time>2020-05-30T20:14:02Z</time>
      </trkpt>
      <trkpt lat="46.42831" lon="-0.18497">
        <ele>111.7</ele>
        <time>2020-05-30T20:14:03Z</time>
      </trkpt>
      <trkpt lat="46.42832" lon="-0.18498">
        <ele>111.9</ele>
        <time>2020-05-30T20:14:04Z</time>
      </trkpt>
      <trkpt lat="46.42833" lon="-0.18499">
        <ele>112</ele>
        <time>2020-05-30T20:14:05Z</time>
      </trkpt>
      <trkpt lat="46.42834" lon="-0.18501">
        <ele>112.2</ele>
        <time>2020-05-30T20:14:06Z</time>
      </trkpt>
      <trkpt lat="46.42835" lon="-0.18503">
        <ele>112.4</ele>
        <time>2020-05-30T20:14:07Z</time>
      </trkpt>
      <trkpt lat="46.42835" lon="-0.18504">
        <ele>112.6</ele>
        <time>2020-05-30T20:14:08Z</time>
      </trkpt>
      <trkpt lat="46.42837" lon="-0.18506">
        <ele>112.8</ele>
        <time>2020-05-30T20:14:09Z</time>
      </trkpt>
      <trkpt lat="46.42837" lon="-0.18507">
        <ele>113</ele>
        <time>2020-05-30T20:14:10Z</time>
      </trkpt>
      <trkpt lat="46.42838" lon="-0.18508">
        <ele>113.1</ele>
        <time>2020-05-30T20:14:11Z</time>
      </trkpt>
      <trkpt lat="46.42839" lon="-0.1851">
        <ele>113.3</ele>
        <time>2020-05-30T20:14:12Z</time>
      </trkpt>
      <trkpt lat="46.4284" lon="-0.18512">
        <ele>113.5</ele>
        <time>2020-05-30T20:14:13Z</time>
      </trkpt>
      <trkpt lat="46.42841" lon="-0.18514">
        <ele>113.7</ele>
        <time>2020-05-30T20:14:14Z</time>
      </trkpt>
      <trkpt lat="46.42842" lon="-0.18515">
        <ele>113.8</ele>
        <time>2020-05-30T20:14:15Z</time>
      </trkpt>
      <trkpt lat="46.42842" lon="-0.18515">
        <ele>113.9</ele>
        <time>2020-05-30T20:14:16Z</time>
      </trkpt>
      <trkpt lat="46.42843" lon="-0.18516">
        <ele>114</ele>
        <time>2020-05-30T20:14:17Z</time>
      </trkpt>
      <trkpt lat="46.42844" lon="-0.18517">
        <ele>114.1</ele>
        <time>2020-05-30T20:14:18Z</time>
      </trkpt>
      <trkpt lat="46.42844" lon="-0.18518">
        <ele>114.3</ele>
        <time>2020-05-30T20:14:19Z</time>
      </trkpt>
      <trkpt lat="46.42845" lon="-0.1852">
        <ele>114.5</ele>
        <time>2020-05-30T20:14:20Z</time>
      </trkpt>
      <trkpt lat="46.42846" lon="-0.18521">
        <ele>114.6</ele>
        <time>2020-05-30T20:14:21Z</time>
      </trkpt>
      <trkpt lat="46.42847" lon="-0.18522">
        <ele>114.8</ele>
        <time>2020-05-30T20:14:22Z</time>
      </trkpt>
      <trkpt lat="46.42848" lon="-0.18524">
        <ele>115</ele>
        <time>2020-05-30T20:14:23Z</time>
      </trkpt>
      <trkpt lat="46.42848" lon="-0.18526">
        <ele>115.1</ele>
        <time>2020-05-30T20:14:24Z</time>
      </trkpt>
      <trkpt lat="46.42849" lon="-0.18527">
        <ele>115.2</ele>
        <time>2020-05-30T20:14:25Z</time>
      </trkpt>
      <trkpt lat="46.4285" lon="-0.18529">
        <ele>115.5</ele>
        <time>2020-05-30T20:14:26Z</time>
      </trkpt>
      <trkpt lat="46.4285" lon="-0.1853">
        <ele>115.6</ele>
        <time>2020-05-30T20:14:27Z</time>
      </trkpt>
      <trkpt lat="46.42851" lon="-0.18531">
        <ele>115.7</ele>
        <time>2020-05-30T20:14:28Z</time>
      </trkpt>
      <trkpt lat="46.42851" lon="-0.18532">
        <ele>115.8</ele>
        <time>2020-05-30T20:14:29Z</time>
      </trkpt>
      <trkpt lat="46.42851" lon="-0.18534">
        <ele>116</ele>
        <time>2020-05-30T20:14:30Z</time>
      </trkpt>
      <trkpt lat="46.42852" lon="-0.18535">
        <ele>116.1</ele>
        <time>2020-05-30T20:14:31Z</time>
      </trkpt>
      <trkpt lat="46.42852" lon="-0.18536">
        <ele>116.2</ele>
        <time>2020-05-30T20:14:32Z</time>
      </trkpt>
      <trkpt lat="46.42852" lon="-0.18536">
        <ele>116.2</ele>
        <time>2020-05-30T20:14:33Z</time>
      </trkpt>
      <trkpt lat="46.42852" lon="-0.18537">
        <ele>116.3</ele>
        <time>2020-05-30T20:14:34Z</time>
      </trkpt>
      <trkpt lat="46.42852" lon="-0.18537">
        <ele>116.3</ele>
        <time>2020-05-30T20:14:35Z</time>
      </trkpt>
      <trkpt lat="46.42853" lon="-0.18538">
        <ele>116.4</ele>
        <time>2020-05-30T20:14:36Z</time>
      </trkpt>
      <trkpt lat="46.42852" lon="-0.18538">
        <ele>116.4</ele>
        <time>2020-05-30T20:14:37Z</time>
      </trkpt>
      <trkpt lat="46.42852" lon="-0.18539">
        <ele>116.5</ele>
        <time>2020-05-30T20:14:38Z</time>
      </trkpt>
      <trkpt lat="46.42853" lon="-0.1854">
        <ele>116.5</ele>
        <time>2020-05-30T20:14:39Z</time>
      </trkpt>
      <trkpt lat="46.42853" lon="-0.18541">
        <ele>116.7</ele>
        <time>2020-05-30T20:14:40Z</time>
      </trkpt>
      <trkpt lat="46.42853" lon="-0.18543">
        <ele>116.8</ele>
        <time>2020-05-30T20:14:41Z</time>
      </trkpt>
      <trkpt lat="46.42853" lon="-0.18545">
        <ele>116.9</ele>
        <time>2020-05-30T20:14:42Z</time>
      </trkpt>
      <trkpt lat="46.42853" lon="-0.18546">
        <ele>117</ele>
        <time>2020-05-30T20:14:43Z</time>
      </trkpt>
      <trkpt lat="46.42852" lon="-0.18547">
        <ele>117.1</ele>
        <time>2020-05-30T20:14:44Z</time>
      </trkpt>
      <trkpt lat="46.42852" lon="-0.18548">
        <ele>117.2</ele>
        <time>2020-05-30T20:14:45Z</time>
      </trkpt>
      <trkpt lat="46.42852" lon="-0.18549">
        <ele>117.3</ele>
        <time>2020-05-30T20:14:46Z</time>
      </trkpt>
      <trkpt lat="46.42852" lon="-0.1855">
        <ele>117.3</ele>
        <time>2020-05-30T20:14:47Z</time>
      </trkpt>
      <trkpt lat="46.42852" lon="-0.18551">
        <ele>117.4</ele>
        <time>2020-05-30T20:14:48Z</time>
      </trkpt>
      <trkpt lat="46.42852" lon="-0.18552">
        <ele>117.5</ele>
        <time>2020-05-30T20:14:49Z</time>
      </trkpt>
      <trkpt lat="46.42851" lon="-0.18553">
        <ele>117.6</ele>
        <time>2020-05-30T20:14:50Z</time>
      </trkpt>
      <trkpt lat="46.42849" lon="-0.18556">
        <ele>117.8</ele>
        <time>2020-05-30T20:14:51Z</time>
      </trkpt>
      <trkpt lat="46.42849" lon="-0.18557">
        <ele>118.1</ele>
        <time>2020-05-30T20:14:52Z</time>
      </trkpt>
      <trkpt lat="46.42848" lon="-0.18558">
        <ele>118</ele>
        <time>2020-05-30T20:14:53Z</time>
      </trkpt>
      <trkpt lat="46.42846" lon="-0.18562">
        <ele>117.8</ele>
        <time>2020-05-30T20:14:54Z</time>
      </trkpt>
      <trkpt lat="46.42846" lon="-0.18563">
        <ele>117.8</ele>
        <time>2020-05-30T20:14:55Z</time>
      </trkpt>
      <trkpt lat="46.42845" lon="-0.18565">
        <ele>117.7</ele>
        <time>2020-05-30T20:14:56Z</time>
      </trkpt>
      <trkpt lat="46.42845" lon="-0.18566">
        <ele>117.7</ele>
        <time>2020-05-30T20:14:57Z</time>
      </trkpt>
      <trkpt lat="46.42845" lon="-0.18566">
        <ele>117.6</ele>
        <time>2020-05-30T20:14:58Z</time>
      </trkpt>
      <trkpt lat="46.42844" lon="-0.18567">
        <ele>117.6</ele>
        <time>2020-05-30T20:14:59Z</time>
      </trkpt>
      <trkpt lat="46.42843" lon="-0.18569">
        <ele>117.5</ele>
        <time>2020-05-30T20:15:00Z</time>
      </trkpt>
      <trkpt lat="46.42843" lon="-0.1857">
        <ele>117.5</ele>
        <time>2020-05-30T20:15:01Z</time>
      </trkpt>
      <trkpt lat="46.42842" lon="-0.18571">
        <ele>117.4</ele>
        <time>2020-05-30T20:15:02Z</time>
      </trkpt>
      <trkpt lat="46.42841" lon="-0.18573">
        <ele>117.3</ele>
        <time>2020-05-30T20:15:03Z</time>
      </trkpt>
      <trkpt lat="46.4284" lon="-0.18573">
        <ele>117.2</ele>
        <time>2020-05-30T20:15:04Z</time>
      </trkpt>
      <trkpt lat="46.42839" lon="-0.18574">
        <ele>117.2</ele>
        <time>2020-05-30T20:15:05Z</time>
      </trkpt>
      <trkpt lat="46.42838" lon="-0.18575">
        <ele>117.1</ele>
        <time>2020-05-30T20:15:06Z</time>
      </trkpt>
      <trkpt lat="46.42838" lon="-0.18576">
        <ele>117</ele>
        <time>2020-05-30T20:15:07Z</time>
      </trkpt>
      <trkpt lat="46.42837" lon="-0.18578">
        <ele>116.9</ele>
        <time>2020-05-30T20:15:08Z</time>
      </trkpt>
      <trkpt lat="46.42836" lon="-0.18579">
        <ele>116.8</ele>
        <time>2020-05-30T20:15:09Z</time>
      </trkpt>
      <trkpt lat="46.42834" lon="-0.1858">
        <ele>116.7</ele>
        <time>2020-05-30T20:15:10Z</time>
      </trkpt>
      <trkpt lat="46.42833" lon="-0.18581">
        <ele>116.6</ele>
        <time>2020-05-30T20:15:11Z</time>
      </trkpt>
      <trkpt lat="46.42832" lon="-0.18581">
        <ele>116.6</ele>
        <time>2020-05-30T20:15:12Z</time>
      </trkpt>
      <trkpt lat="46.4283" lon="-0.18582">
        <ele>116.4</ele>
        <time>2020-05-30T20:15:13Z</time>
      </trkpt>
      <trkpt lat="46.42829" lon="-0.18583">
        <ele>116.3</ele>
        <time>2020-05-30T20:15:14Z</time>
      </trkpt>
      <trkpt lat="46.42828" lon="-0.18584">
        <ele>116.3</ele>
        <time>2020-05-30T20:15:15Z</time>
      </trkpt>
      <trkpt lat="46.42826" lon="-0.18585">
        <ele>116.2</ele>
        <time>2020-05-30T20:15:16Z</time>
      </trkpt>
      <trkpt lat="46.42825" lon="-0.18587">
        <ele>116.1</ele>
        <time>2020-05-30T20:15:17Z</time>
      </trkpt>
      <trkpt lat="46.42824" lon="-0.18588">
        <ele>116</ele>
        <time>2020-05-30T20:15:18Z</time>
      </trkpt>
      <trkpt lat="46.42823" lon="-0.18589">
        <ele>115.8</ele>
        <time>2020-05-30T20:15:19Z</time>
      </trkpt>
      <trkpt lat="46.42821" lon="-0.1859">
        <ele>115.7</ele>
        <time>2020-05-30T20:15:20Z</time>
      </trkpt>
      <trkpt lat="46.42819" lon="-0.18591">
        <ele>115.6</ele>
        <time>2020-05-30T20:15:21Z</time>
      </trkpt>
      <trkpt lat="46.42818" lon="-0.18592">
        <ele>115.5</ele>
        <time>2020-05-30T20:15:22Z</time>
      </trkpt>
      <trkpt lat="46.42816" lon="-0.18592">
        <ele>115.4</ele>
        <time>2020-05-30T20:15:23Z</time>
      </trkpt>
      <trkpt lat="46.42814" lon="-0.18593">
        <ele>115.3</ele>
        <time>2020-05-30T20:15:24Z</time>
      </trkpt>
      <trkpt lat="46.42813" lon="-0.18593">
        <ele>115.2</ele>
        <time>2020-05-30T20:15:25Z</time>
      </trkpt>
      <trkpt lat="46.42812" lon="-0.18594">
        <ele>115.1</ele>
        <time>2020-05-30T20:15:26Z</time>
      </trkpt>
      <trkpt lat="46.4281" lon="-0.18594">
        <ele>114.7</ele>
        <time>2020-05-30T20:15:27Z</time>
      </trkpt>
      <trkpt lat="46.42809" lon="-0.18594">
        <ele>114.8</ele>
        <time>2020-05-30T20:15:28Z</time>
      </trkpt>
      <trkpt lat="46.42808" lon="-0.18594">
        <ele>114.9</ele>
        <time>2020-05-30T20:15:29Z</time>
      </trkpt>
      <trkpt lat="46.42809" lon="-0.18595">
        <ele>114.9</ele>
        <time>2020-05-30T20:15:30Z</time>
      </trkpt>
      <trkpt lat="46.42808" lon="-0.18595">
        <ele>114.9</ele>
        <time>2020-05-30T20:15:31Z</time>
      </trkpt>
      <trkpt lat="46.42808" lon="-0.18595">
        <ele>114.9</ele>
        <time>2020-05-30T20:15:32Z</time>
      </trkpt>
      <trkpt lat="46.42808" lon="-0.18595">
        <ele>114.9</ele>
        <time>2020-05-30T20:15:33Z</time>
      </trkpt>
      <trkpt lat="46.42808" lon="-0.18597">
        <ele>115.1</ele>
        <time>2020-05-30T20:15:34Z</time>
      </trkpt>
      <trkpt lat="46.42809" lon="-0.18599">
        <ele>115.2</ele>
        <time>2020-05-30T20:15:35Z</time>
      </trkpt>
      <trkpt lat="46.4281" lon="-0.18601">
        <ele>115.3</ele>
        <time>2020-05-30T20:15:36Z</time>
      </trkpt>
      <trkpt lat="46.42811" lon="-0.18602">
        <ele>115.4</ele>
        <time>2020-05-30T20:15:37Z</time>
      </trkpt>
      <trkpt lat="46.42811" lon="-0.18602">
        <ele>115.4</ele>
        <time>2020-05-30T20:15:38Z</time>
      </trkpt>
      <trkpt lat="46.42811" lon="-0.18603">
        <ele>115.5</ele>
        <time>2020-05-30T20:15:39Z</time>
      </trkpt>
      <trkpt lat="46.42812" lon="-0.18605">
        <ele>115.6</ele>
        <time>2020-05-30T20:15:40Z</time>
      </trkpt>
      <trkpt lat="46.42813" lon="-0.18607">
        <ele>115.8</ele>
        <time>2020-05-30T20:15:41Z</time>
      </trkpt>
      <trkpt lat="46.42814" lon="-0.18607">
        <ele>115.8</ele>
        <time>2020-05-30T20:15:42Z</time>
      </trkpt>
      <trkpt lat="46.42814" lon="-0.18608">
        <ele>115.9</ele>
        <time>2020-05-30T20:15:43Z</time>
      </trkpt>
      <trkpt lat="46.42815" lon="-0.18608">
        <ele>115.9</ele>
        <time>2020-05-30T20:15:44Z</time>
      </trkpt>
      <trkpt lat="46.42815" lon="-0.18609">
        <ele>116</ele>
        <time>2020-05-30T20:15:45Z</time>
      </trkpt>
      <trkpt lat="46.42816" lon="-0.1861">
        <ele>116.1</ele>
        <time>2020-05-30T20:15:46Z</time>
      </trkpt>
      <trkpt lat="46.42816" lon="-0.18611">
        <ele>116.1</ele>
        <time>2020-05-30T20:15:47Z</time>
      </trkpt>
      <trkpt lat="46.42817" lon="-0.18612">
        <ele>116.3</ele>
        <time>2020-05-30T20:15:48Z</time>
      </trkpt>
      <trkpt lat="46.42818" lon="-0.18613">
        <ele>116.3</ele>
        <time>2020-05-30T20:15:49Z</time>
      </trkpt>
      <trkpt lat="46.42819" lon="-0.18613">
        <ele>116.4</ele>
        <time>2020-05-30T20:15:50Z</time>
      </trkpt>
      <trkpt lat="46.4282" lon="-0.18613">
        <ele>116.5</ele>
        <time>2020-05-30T20:15:51Z</time>
      </trkpt>
      <trkpt lat="46.42821" lon="-0.18613">
        <ele>116.6</ele>
        <time>2020-05-30T20:15:52Z</time>
      </trkpt>
      <trkpt lat="46.42822" lon="-0.18613">
        <ele>116.7</ele>
        <time>2020-05-30T20:15:53Z</time>
      </trkpt>
      <trkpt lat="46.42823" lon="-0.18613">
        <ele>116.7</ele>
        <time>2020-05-30T20:15:54Z</time>
      </trkpt>
      <trkpt lat="46.42824" lon="-0.18613">
        <ele>116.8</ele>
        <time>2020-05-30T20:15:55Z</time>
      </trkpt>
      <trkpt lat="46.42825" lon="-0.18613">
        <ele>116.9</ele>
        <time>2020-05-30T20:15:56Z</time>
      </trkpt>
      <trkpt lat="46.42826" lon="-0.18613">
        <ele>117</ele>
        <time>2020-05-30T20:15:57Z</time>
      </trkpt>
      <trkpt lat="46.42827" lon="-0.18613">
        <ele>117.1</ele>
        <time>2020-05-30T20:15:58Z</time>
      </trkpt>
      <trkpt lat="46.42828" lon="-0.18613">
        <ele>117.1</ele>
        <time>2020-05-30T20:15:59Z</time>
      </trkpt>
      <trkpt lat="46.42828" lon="-0.18613">
        <ele>117.1</ele>
        <time>2020-05-30T20:16:00Z</time>
      </trkpt>
      <trkpt lat="46.42828" lon="-0.18613">
        <ele>117.2</ele>
        <time>2020-05-30T20:16:01Z</time>
      </trkpt>
      <trkpt lat="46.42829" lon="-0.18613">
        <ele>117.3</ele>
        <time>2020-05-30T20:16:02Z</time>
      </trkpt>
      <trkpt lat="46.4283" lon="-0.18612">
        <ele>117.3</ele>
        <time>2020-05-30T20:16:03Z</time>
      </trkpt>
      <trkpt lat="46.42831" lon="-0.18612">
        <ele>117.4</ele>
        <time>2020-05-30T20:16:04Z</time>
      </trkpt>
      <trkpt lat="46.42831" lon="-0.18612">
        <ele>117.4</ele>
        <time>2020-05-30T20:16:05Z</time>
      </trkpt>
      <trkpt lat="46.42831" lon="-0.18612">
        <ele>117.4</ele>
        <time>2020-05-30T20:16:06Z</time>
      </trkpt>
      <trkpt lat="46.42831" lon="-0.18611">
        <ele>117.4</ele>
        <time>2020-05-30T20:16:07Z</time>
      </trkpt>
      <trkpt lat="46.42832" lon="-0.1861">
        <ele>117.5</ele>
        <time>2020-05-30T20:16:08Z</time>
      </trkpt>
      <trkpt lat="46.42832" lon="-0.18609">
        <ele>117.6</ele>
        <time>2020-05-30T20:16:09Z</time>
      </trkpt>
      <trkpt lat="46.42833" lon="-0.18608">
        <ele>117.7</ele>
        <time>2020-05-30T20:16:10Z</time>
      </trkpt>
      <trkpt lat="46.42834" lon="-0.18606">
        <ele>117.8</ele>
        <time>2020-05-30T20:16:11Z</time>
      </trkpt>
      <trkpt lat="46.42835" lon="-0.18604">
        <ele>117.9</ele>
        <time>2020-05-30T20:16:12Z</time>
      </trkpt>
      <trkpt lat="46.42836" lon="-0.18602">
        <ele>118</ele>
        <time>2020-05-30T20:16:13Z</time>
      </trkpt>
      <trkpt lat="46.42837" lon="-0.186">
        <ele>118.1</ele>
        <time>2020-05-30T20:16:14Z</time>
      </trkpt>
      <trkpt lat="46.42838" lon="-0.18599">
        <ele>118.2</ele>
        <time>2020-05-30T20:16:15Z</time>
      </trkpt>
      <trkpt lat="46.42839" lon="-0.18597">
        <ele>118.3</ele>
        <time>2020-05-30T20:16:16Z</time>
      </trkpt>
      <trkpt lat="46.4284" lon="-0.18596">
        <ele>118.4</ele>
        <time>2020-05-30T20:16:17Z</time>
      </trkpt>
      <trkpt lat="46.42841" lon="-0.18596">
        <ele>118.4</ele>
        <time>2020-05-30T20:16:18Z</time>
      </trkpt>
      <trkpt lat="46.42842" lon="-0.18595">
        <ele>118.4</ele>
        <time>2020-05-30T20:16:19Z</time>
      </trkpt>
      <trkpt lat="46.42842" lon="-0.18595">
        <ele>118.4</ele>
        <time>2020-05-30T20:16:20Z</time>
      </trkpt>
      <trkpt lat="46.42842" lon="-0.18595">
        <ele>118.4</ele>
        <time>2020-05-30T20:16:21Z</time>
      </trkpt>
      <trkpt lat="46.42842" lon="-0.18595">
        <ele>118.4</ele>
        <time>2020-05-30T20:16:22Z</time>
      </trkpt>
      <trkpt lat="46.42842" lon="-0.18595">
        <ele>118.4</ele>
        <time>2020-05-30T20:16:23Z</time>
      </trkpt>
      <trkpt lat="46.42843" lon="-0.18593">
        <ele>118.5</ele>
        <time>2020-05-30T20:16:24Z</time>
      </trkpt>
      <trkpt lat="46.42845" lon="-0.1859">
        <ele>118.5</ele>
        <time>2020-05-30T20:16:25Z</time>
      </trkpt>
      <trkpt lat="46.42846" lon="-0.18589">
        <ele>118.5</ele>
        <time>2020-05-30T20:16:26Z</time>
      </trkpt>
      <trkpt lat="46.42847" lon="-0.18587">
        <ele>118.6</ele>
        <time>2020-05-30T20:16:27Z</time>
      </trkpt>
      <trkpt lat="46.42847" lon="-0.18585">
        <ele>118.6</ele>
        <time>2020-05-30T20:16:28Z</time>
      </trkpt>
      <trkpt lat="46.42849" lon="-0.18583">
        <ele>118.7</ele>
        <time>2020-05-30T20:16:29Z</time>
      </trkpt>
      <trkpt lat="46.4285" lon="-0.18582">
        <ele>118.7</ele>
        <time>2020-05-30T20:16:30Z</time>
      </trkpt>
      <trkpt lat="46.42851" lon="-0.18581">
        <ele>118.7</ele>
        <time>2020-05-30T20:16:31Z</time>
      </trkpt>
      <trkpt lat="46.42852" lon="-0.18581">
        <ele>118.8</ele>
        <time>2020-05-30T20:16:32Z</time>
      </trkpt>
      <trkpt lat="46.42853" lon="-0.1858">
        <ele>118.8</ele>
        <time>2020-05-30T20:16:33Z</time>
      </trkpt>
      <trkpt lat="46.42853" lon="-0.18579">
        <ele>118.8</ele>
        <time>2020-05-30T20:16:34Z</time>
      </trkpt>
      <trkpt lat="46.42855" lon="-0.18577">
        <ele>118.9</ele>
        <time>2020-05-30T20:16:35Z</time>
      </trkpt>
      <trkpt lat="46.42855" lon="-0.18577">
        <ele>118.9</ele>
        <time>2020-05-30T20:16:36Z</time>
      </trkpt>
      <trkpt lat="46.42856" lon="-0.18576">
        <ele>118.9</ele>
        <time>2020-05-30T20:16:37Z</time>
      </trkpt>
      <trkpt lat="46.42856" lon="-0.18575">
        <ele>119</ele>
        <time>2020-05-30T20:16:38Z</time>
      </trkpt>
      <trkpt lat="46.42858" lon="-0.18573">
        <ele>119</ele>
        <time>2020-05-30T20:16:39Z</time>
      </trkpt>
      <trkpt lat="46.4286" lon="-0.18572">
        <ele>119.1</ele>
        <time>2020-05-30T20:16:40Z</time>
      </trkpt>
      <trkpt lat="46.42861" lon="-0.18572">
        <ele>119.2</ele>
        <time>2020-05-30T20:16:41Z</time>
      </trkpt>
      <trkpt lat="46.42862" lon="-0.18572">
        <ele>119.2</ele>
        <time>2020-05-30T20:16:42Z</time>
      </trkpt>
      <trkpt lat="46.42863" lon="-0.18572">
        <ele>119.2</ele>
        <time>2020-05-30T20:16:43Z</time>
      </trkpt>
      <trkpt lat="46.42863" lon="-0.18572">
        <ele>119.3</ele>
        <time>2020-05-30T20:16:44Z</time>
      </trkpt>
      <trkpt lat="46.42863" lon="-0.18572">
        <ele>119.3</ele>
        <time>2020-05-30T20:16:45Z</time>
      </trkpt>
      <trkpt lat="46.42863" lon="-0.18572">
        <ele>119.3</ele>
        <time>2020-05-30T20:16:46Z</time>
      </trkpt>
      <trkpt lat="46.42863" lon="-0.18572">
        <ele>119.3</ele>
        <time>2020-05-30T20:16:47Z</time>
      </trkpt>
      <trkpt lat="46.42864" lon="-0.18573">
        <ele>119.3</ele>
        <time>2020-05-30T20:16:48Z</time>
      </trkpt>
      <trkpt lat="46.42865" lon="-0.18573">
        <ele>119.3</ele>
        <time>2020-05-30T20:16:49Z</time>
      </trkpt>
      <trkpt lat="46.42865" lon="-0.18574">
        <ele>119.3</ele>
        <time>2020-05-30T20:16:50Z</time>
      </trkpt>
      <trkpt lat="46.42866" lon="-0.18574">
        <ele>119.4</ele>
        <time>2020-05-30T20:16:51Z</time>
      </trkpt>
      <trkpt lat="46.42866" lon="-0.18574">
        <ele>119.4</ele>
        <time>2020-05-30T20:16:52Z</time>
      </trkpt>
      <trkpt lat="46.42867" lon="-0.18575">
        <ele>119.4</ele>
        <time>2020-05-30T20:16:53Z</time>
      </trkpt>
      <trkpt lat="46.42867" lon="-0.18575">
        <ele>119.4</ele>
        <time>2020-05-30T20:16:54Z</time>
      </trkpt>
      <trkpt lat="46.42868" lon="-0.18575">
        <ele>119.5</ele>
        <time>2020-05-30T20:16:55Z</time>
      </trkpt>
      <trkpt lat="46.42869" lon="-0.18576">
        <ele>119.5</ele>
        <time>2020-05-30T20:16:56Z</time>
      </trkpt>
      <trkpt lat="46.4287" lon="-0.18576">
        <ele>119.5</ele>
        <time>2020-05-30T20:16:57Z</time>
      </trkpt>
      <trkpt lat="46.4287" lon="-0.18576">
        <ele>119.6</ele>
        <time>2020-05-30T20:16:58Z</time>
      </trkpt>
      <trkpt lat="46.42871" lon="-0.18576">
        <ele>119.6</ele>
        <time>2020-05-30T20:16:59Z</time>
      </trkpt>
      <trkpt lat="46.42872" lon="-0.18576">
        <ele>119.6</ele>
        <time>2020-05-30T20:17:00Z</time>
      </trkpt>
      <trkpt lat="46.42873" lon="-0.18577">
        <ele>119.7</ele>
        <time>2020-05-30T20:17:01Z</time>
      </trkpt>
      <trkpt lat="46.42873" lon="-0.18578">
        <ele>119.7</ele>
        <time>2020-05-30T20:17:02Z</time>
      </trkpt>
      <trkpt lat="46.42874" lon="-0.18578">
        <ele>119.7</ele>
        <time>2020-05-30T20:17:03Z</time>
      </trkpt>
      <trkpt lat="46.42874" lon="-0.18578">
        <ele>119.7</ele>
        <time>2020-05-30T20:17:04Z</time>
      </trkpt>
      <trkpt lat="46.42874" lon="-0.18579">
        <ele>119.7</ele>
        <time>2020-05-30T20:17:05Z</time>
      </trkpt>
      <trkpt lat="46.42874" lon="-0.18579">
        <ele>119.7</ele>
        <time>2020-05-30T20:17:06Z</time>
      </trkpt>
      <trkpt lat="46.42875" lon="-0.18579">
        <ele>119.8</ele>
        <time>2020-05-30T20:17:07Z</time>
      </trkpt>
      <trkpt lat="46.42876" lon="-0.18579">
        <ele>119.8</ele>
        <time>2020-05-30T20:17:08Z</time>
      </trkpt>
      <trkpt lat="46.42877" lon="-0.1858">
        <ele>119.9</ele>
        <time>2020-05-30T20:17:09Z</time>
      </trkpt>
      <trkpt lat="46.42878" lon="-0.18581">
        <ele>119.9</ele>
        <time>2020-05-30T20:17:10Z</time>
      </trkpt>
      <trkpt lat="46.42879" lon="-0.18582">
        <ele>119.9</ele>
        <time>2020-05-30T20:17:11Z</time>
      </trkpt>
      <trkpt lat="46.42879" lon="-0.18582">
        <ele>119.9</ele>
        <time>2020-05-30T20:17:12Z</time>
      </trkpt>
      <trkpt lat="46.42881" lon="-0.18581">
        <ele>120</ele>
        <time>2020-05-30T20:17:13Z</time>
      </trkpt>
      <trkpt lat="46.42882" lon="-0.1858">
        <ele>120.1</ele>
        <time>2020-05-30T20:17:14Z</time>
      </trkpt>
      <trkpt lat="46.42883" lon="-0.1858">
        <ele>120.1</ele>
        <time>2020-05-30T20:17:15Z</time>
      </trkpt>
      <trkpt lat="46.42885" lon="-0.18579">
        <ele>120.2</ele>
        <time>2020-05-30T20:17:16Z</time>
      </trkpt>
      <trkpt lat="46.42886" lon="-0.18578">
        <ele>120.2</ele>
        <time>2020-05-30T20:17:17Z</time>
      </trkpt>
      <trkpt lat="46.42888" lon="-0.18577">
        <ele>120.3</ele>
        <time>2020-05-30T20:17:18Z</time>
      </trkpt>
      <trkpt lat="46.42889" lon="-0.18577">
        <ele>120.3</ele>
        <time>2020-05-30T20:17:19Z</time>
      </trkpt>
      <trkpt lat="46.4289" lon="-0.18576">
        <ele>120.4</ele>
        <time>2020-05-30T20:17:20Z</time>
      </trkpt>
      <trkpt lat="46.42891" lon="-0.18576">
        <ele>120.4</ele>
        <time>2020-05-30T20:17:21Z</time>
      </trkpt>
      <trkpt lat="46.42892" lon="-0.18576">
        <ele>120.4</ele>
        <time>2020-05-30T20:17:22Z</time>
      </trkpt>
      <trkpt lat="46.42893" lon="-0.18575">
        <ele>120.5</ele>
        <time>2020-05-30T20:17:23Z</time>
      </trkpt>
      <trkpt lat="46.42894" lon="-0.18575">
        <ele>120.5</ele>
        <time>2020-05-30T20:17:24Z</time>
      </trkpt>
      <trkpt lat="46.42896" lon="-0.18575">
        <ele>120.6</ele>
        <time>2020-05-30T20:17:25Z</time>
      </trkpt>
      <trkpt lat="46.42899" lon="-0.18575">
        <ele>120.7</ele>
        <time>2020-05-30T20:17:26Z</time>
      </trkpt>
      <trkpt lat="46.429" lon="-0.18575">
        <ele>120.7</ele>
        <time>2020-05-30T20:17:27Z</time>
      </trkpt>
      <trkpt lat="46.42902" lon="-0.18575">
        <ele>120.8</ele>
        <time>2020-05-30T20:17:28Z</time>
      </trkpt>
      <trkpt lat="46.42903" lon="-0.18575">
        <ele>120.8</ele>
        <time>2020-05-30T20:17:29Z</time>
      </trkpt>
      <trkpt lat="46.42904" lon="-0.18575">
        <ele>120.8</ele>
        <time>2020-05-30T20:17:30Z</time>
      </trkpt>
      <trkpt lat="46.42904" lon="-0.18576">
        <ele>120.8</ele>
        <time>2020-05-30T20:17:31Z</time>
      </trkpt>
      <trkpt lat="46.42905" lon="-0.18576">
        <ele>120.8</ele>
        <time>2020-05-30T20:17:32Z</time>
      </trkpt>
      <trkpt lat="46.42906" lon="-0.18575">
        <ele>120.8</ele>
        <time>2020-05-30T20:17:33Z</time>
      </trkpt>
      <trkpt lat="46.42907" lon="-0.18575">
        <ele>120.8</ele>
        <time>2020-05-30T20:17:34Z</time>
      </trkpt>
      <trkpt lat="46.42908" lon="-0.18574">
        <ele>120.7</ele>
        <time>2020-05-30T20:17:35Z</time>
      </trkpt>
      <trkpt lat="46.42909" lon="-0.18575">
        <ele>120.7</ele>
        <time>2020-05-30T20:17:36Z</time>
      </trkpt>
      <trkpt lat="46.4291" lon="-0.18575">
        <ele>120.7</ele>
        <time>2020-05-30T20:17:37Z</time>
      </trkpt>
      <trkpt lat="46.42912" lon="-0.18574">
        <ele>120.6</ele>
        <time>2020-05-30T20:17:38Z</time>
      </trkpt>
      <trkpt lat="46.42912" lon="-0.18574">
        <ele>120.6</ele>
        <time>2020-05-30T20:17:39Z</time>
      </trkpt>
      <trkpt lat="46.42912" lon="-0.18574">
        <ele>120.6</ele>
        <time>2020-05-30T20:17:40Z</time>
      </trkpt>
      <trkpt lat="46.42913" lon="-0.18575">
        <ele>120.6</ele>
        <time>2020-05-30T20:17:41Z</time>
      </trkpt>
      <trkpt lat="46.42913" lon="-0.18576">
        <ele>120.6</ele>
        <time>2020-05-30T20:17:42Z</time>
      </trkpt>
      <trkpt lat="46.42914" lon="-0.18577">
        <ele>120.6</ele>
        <time>2020-05-30T20:17:43Z</time>
      </trkpt>
      <trkpt lat="46.42914" lon="-0.18578">
        <ele>120.5</ele>
        <time>2020-05-30T20:17:44Z</time>
      </trkpt>
      <trkpt lat="46.42915" lon="-0.18578">
        <ele>120.5</ele>
        <time>2020-05-30T20:17:45Z</time>
      </trkpt>
      <trkpt lat="46.42915" lon="-0.18578">
        <ele>120.5</ele>
        <time>2020-05-30T20:17:46Z</time>
      </trkpt>
      <trkpt lat="46.42915" lon="-0.18578">
        <ele>120.5</ele>
        <time>2020-05-30T20:17:47Z</time>
      </trkpt>
      <trkpt lat="46.42915" lon="-0.18578">
        <ele>120.5</ele>
        <time>2020-05-30T20:17:48Z</time>
      </trkpt>
      <trkpt lat="46.42915" lon="-0.18577">
        <ele>120.5</ele>
        <time>2020-05-30T20:17:49Z</time>
      </trkpt>
      <trkpt lat="46.42915" lon="-0.18577">
        <ele>120.5</ele>
        <time>2020-05-30T20:17:50Z</time>
      </trkpt>
      <trkpt lat="46.42915" lon="-0.18578">
        <ele>120.5</ele>
        <time>2020-05-30T20:17:51Z</time>
      </trkpt>
      <trkpt lat="46.42915" lon="-0.18579">
        <ele>120.4</ele>
        <time>2020-05-30T20:17:52Z</time>
      </trkpt>
      <trkpt lat="46.42915" lon="-0.1858">
        <ele>120.4</ele>
        <time>2020-05-30T20:17:53Z</time>
      </trkpt>
      <trkpt lat="46.42914" lon="-0.18581">
        <ele>120.4</ele>
        <time>2020-05-30T20:17:54Z</time>
      </trkpt>
      <trkpt lat="46.42914" lon="-0.18582">
        <ele>120.4</ele>
        <time>2020-05-30T20:17:55Z</time>
      </trkpt>
      <trkpt lat="46.42914" lon="-0.18581">
        <ele>120.4</ele>
        <time>2020-05-30T20:17:56Z</time>
      </trkpt>
      <trkpt lat="46.42913" lon="-0.18581">
        <ele>120.4</ele>
        <time>2020-05-30T20:17:57Z</time>
      </trkpt>
      <trkpt lat="46.42912" lon="-0.18581">
        <ele>120.3</ele>
        <time>2020-05-30T20:17:58Z</time>
      </trkpt>
      <trkpt lat="46.42911" lon="-0.18581">
        <ele>120.3</ele>
        <time>2020-05-30T20:17:59Z</time>
      </trkpt>
      <trkpt lat="46.42911" lon="-0.18581">
        <ele>120.3</ele>
        <time>2020-05-30T20:18:00Z</time>
      </trkpt>
      <trkpt lat="46.42911" lon="-0.18581">
        <ele>120.3</ele>
        <time>2020-05-30T20:18:01Z</time>
      </trkpt>
      <trkpt lat="46.4291" lon="-0.1858">
        <ele>120.3</ele>
        <time>2020-05-30T20:18:02Z</time>
      </trkpt>
      <trkpt lat="46.42909" lon="-0.18579">
        <ele>120.2</ele>
        <time>2020-05-30T20:18:03Z</time>
      </trkpt>
      <trkpt lat="46.42909" lon="-0.18579">
        <ele>120.2</ele>
        <time>2020-05-30T20:18:04Z</time>
      </trkpt>
      <trkpt lat="46.42909" lon="-0.18579">
        <ele>120.2</ele>
        <time>2020-05-30T20:18:05Z</time>
      </trkpt>
      <trkpt lat="46.42909" lon="-0.18578">
        <ele>120.2</ele>
        <time>2020-05-30T20:18:06Z</time>
      </trkpt>
      <trkpt lat="46.42908" lon="-0.18578">
        <ele>120.2</ele>
        <time>2020-05-30T20:18:07Z</time>
      </trkpt>
      <trkpt lat="46.42907" lon="-0.18578">
        <ele>120.1</ele>
        <time>2020-05-30T20:18:08Z</time>
      </trkpt>
      <trkpt lat="46.42905" lon="-0.18578">
        <ele>120.1</ele>
        <time>2020-05-30T20:18:09Z</time>
      </trkpt>
      <trkpt lat="46.42903" lon="-0.18579">
        <ele>120</ele>
        <time>2020-05-30T20:18:10Z</time>
      </trkpt>
      <trkpt lat="46.42902" lon="-0.18579">
        <ele>120</ele>
        <time>2020-05-30T20:18:11Z</time>
      </trkpt>
      <trkpt lat="46.42902" lon="-0.18579">
        <ele>120</ele>
        <time>2020-05-30T20:18:12Z</time>
      </trkpt>
      <trkpt lat="46.42901" lon="-0.18579">
        <ele>120</ele>
        <time>2020-05-30T20:18:13Z</time>
      </trkpt>
      <trkpt lat="46.429" lon="-0.18579">
        <ele>119.9</ele>
        <time>2020-05-30T20:18:14Z</time>
      </trkpt>
      <trkpt lat="46.42899" lon="-0.1858">
        <ele>119.9</ele>
        <time>2020-05-30T20:18:15Z</time>
      </trkpt>
      <trkpt lat="46.42898" lon="-0.18581">
        <ele>119.9</ele>
        <time>2020-05-30T20:18:16Z</time>
      </trkpt>
      <trkpt lat="46.42897" lon="-0.18582">
        <ele>119.8</ele>
        <time>2020-05-30T20:18:17Z</time>
      </trkpt>
      <trkpt lat="46.42896" lon="-0.18582">
        <ele>119.8</ele>
        <time>2020-05-30T20:18:18Z</time>
      </trkpt>
      <trkpt lat="46.42894" lon="-0.18582">
        <ele>119.8</ele>
        <time>2020-05-30T20:18:19Z</time>
      </trkpt>
      <trkpt lat="46.42893" lon="-0.18581">
        <ele>119.7</ele>
        <time>2020-05-30T20:18:20Z</time>
      </trkpt>
      <trkpt lat="46.42891" lon="-0.18581">
        <ele>119.7</ele>
        <time>2020-05-30T20:18:21Z</time>
      </trkpt>
      <trkpt lat="46.4289" lon="-0.18581">
        <ele>119.6</ele>
        <time>2020-05-30T20:18:22Z</time>
      </trkpt>
      <trkpt lat="46.42888" lon="-0.18581">
        <ele>119.6</ele>
        <time>2020-05-30T20:18:23Z</time>
      </trkpt>
      <trkpt lat="46.42887" lon="-0.18581">
        <ele>119.5</ele>
        <time>2020-05-30T20:18:24Z</time>
      </trkpt>
      <trkpt lat="46.42884" lon="-0.18582">
        <ele>119.5</ele>
        <time>2020-05-30T20:18:25Z</time>
      </trkpt>
      <trkpt lat="46.42883" lon="-0.18582">
        <ele>119.4</ele>
        <time>2020-05-30T20:18:26Z</time>
      </trkpt>
      <trkpt lat="46.42879" lon="-0.18584">
        <ele>119.3</ele>
        <time>2020-05-30T20:18:27Z</time>
      </trkpt>
      <trkpt lat="46.42878" lon="-0.18584">
        <ele>119.3</ele>
        <time>2020-05-30T20:18:28Z</time>
      </trkpt>
      <trkpt lat="46.42876" lon="-0.18585">
        <ele>119.2</ele>
        <time>2020-05-30T20:18:29Z</time>
      </trkpt>
      <trkpt lat="46.42875" lon="-0.18585">
        <ele>119.2</ele>
        <time>2020-05-30T20:18:30Z</time>
      </trkpt>
      <trkpt lat="46.42871" lon="-0.18584">
        <ele>119.1</ele>
        <time>2020-05-30T20:18:31Z</time>
      </trkpt>
      <trkpt lat="46.4287" lon="-0.18584">
        <ele>119</ele>
        <time>2020-05-30T20:18:32Z</time>
      </trkpt>
      <trkpt lat="46.42867" lon="-0.18585">
        <ele>118.9</ele>
        <time>2020-05-30T20:18:33Z</time>
      </trkpt>
      <trkpt lat="46.42866" lon="-0.18585">
        <ele>118.9</ele>
        <time>2020-05-30T20:18:34Z</time>
      </trkpt>
      <trkpt lat="46.42863" lon="-0.18585">
        <ele>118.8</ele>
        <time>2020-05-30T20:18:35Z</time>
      </trkpt>
      <trkpt lat="46.42861" lon="-0.18587">
        <ele>118.8</ele>
        <time>2020-05-30T20:18:36Z</time>
      </trkpt>
      <trkpt lat="46.4286" lon="-0.18587">
        <ele>118.7</ele>
        <time>2020-05-30T20:18:37Z</time>
      </trkpt>
      <trkpt lat="46.42856" lon="-0.18588">
        <ele>118.7</ele>
        <time>2020-05-30T20:18:38Z</time>
      </trkpt>
      <trkpt lat="46.42855" lon="-0.18588">
        <ele>118.6</ele>
        <time>2020-05-30T20:18:39Z</time>
      </trkpt>
      <trkpt lat="46.42852" lon="-0.18589">
        <ele>118.6</ele>
        <time>2020-05-30T20:18:40Z</time>
      </trkpt>
      <trkpt lat="46.42852" lon="-0.18589">
        <ele>118.6</ele>
        <time>2020-05-30T20:18:41Z</time>
      </trkpt>
      <trkpt lat="46.42849" lon="-0.1859">
        <ele>118.5</ele>
        <time>2020-05-30T20:18:42Z</time>
      </trkpt>
      <trkpt lat="46.42848" lon="-0.1859">
        <ele>118.5</ele>
        <time>2020-05-30T20:18:43Z</time>
      </trkpt>
      <trkpt lat="46.42846" lon="-0.18591">
        <ele>118.5</ele>
        <time>2020-05-30T20:18:44Z</time>
      </trkpt>
      <trkpt lat="46.42845" lon="-0.18593">
        <ele>118.5</ele>
        <time>2020-05-30T20:18:45Z</time>
      </trkpt>
      <trkpt lat="46.42843" lon="-0.18593">
        <ele>118.4</ele>
        <time>2020-05-30T20:18:46Z</time>
      </trkpt>
      <trkpt lat="46.42842" lon="-0.18594">
        <ele>118.4</ele>
        <time>2020-05-30T20:18:47Z</time>
      </trkpt>
      <trkpt lat="46.42842" lon="-0.18595">
        <ele>118.4</ele>
        <time>2020-05-30T20:18:48Z</time>
      </trkpt>
      <trkpt lat="46.42841" lon="-0.18596">
        <ele>118.4</ele>
        <time>2020-05-30T20:18:49Z</time>
      </trkpt>
      <trkpt lat="46.4284" lon="-0.18597">
        <ele>118.4</ele>
        <time>2020-05-30T20:18:50Z</time>
      </trkpt>
      <trkpt lat="46.42839" lon="-0.18597">
        <ele>118.3</ele>
        <time>2020-05-30T20:18:51Z</time>
      </trkpt>
      <trkpt lat="46.42837" lon="-0.18599">
        <ele>118.2</ele>
        <time>2020-05-30T20:18:52Z</time>
      </trkpt>
      <trkpt lat="46.42836" lon="-0.18601">
        <ele>118.1</ele>
        <time>2020-05-30T20:18:53Z</time>
      </trkpt>
      <trkpt lat="46.42835" lon="-0.18603">
        <ele>118</ele>
        <time>2020-05-30T20:18:54Z</time>
      </trkpt>
      <trkpt lat="46.42835" lon="-0.18605">
        <ele>118</ele>
        <time>2020-05-30T20:18:55Z</time>
      </trkpt>
      <trkpt lat="46.42835" lon="-0.18607">
        <ele>117.9</ele>
        <time>2020-05-30T20:18:56Z</time>
      </trkpt>
      <trkpt lat="46.42835" lon="-0.18609">
        <ele>117.8</ele>
        <time>2020-05-30T20:18:57Z</time>
      </trkpt>
      <trkpt lat="46.42835" lon="-0.1861">
        <ele>117.8</ele>
        <time>2020-05-30T20:18:58Z</time>
      </trkpt>
      <trkpt lat="46.42834" lon="-0.18612">
        <ele>117.7</ele>
        <time>2020-05-30T20:18:59Z</time>
      </trkpt>
      <trkpt lat="46.42834" lon="-0.18613">
        <ele>117.6</ele>
        <time>2020-05-30T20:19:00Z</time>
      </trkpt>
      <trkpt lat="46.42833" lon="-0.18614">
        <ele>117.6</ele>
        <time>2020-05-30T20:19:01Z</time>
      </trkpt>
      <trkpt lat="46.42833" lon="-0.18614">
        <ele>117.5</ele>
        <time>2020-05-30T20:19:02Z</time>
      </trkpt>
      <trkpt lat="46.42833" lon="-0.18615">
        <ele>117.5</ele>
        <time>2020-05-30T20:19:03Z</time>
      </trkpt>
      <trkpt lat="46.42832" lon="-0.18616">
        <ele>117.5</ele>
        <time>2020-05-30T20:19:04Z</time>
      </trkpt>
      <trkpt lat="46.42831" lon="-0.18617">
        <ele>117.4</ele>
        <time>2020-05-30T20:19:05Z</time>
      </trkpt>
      <trkpt lat="46.4283" lon="-0.18618">
        <ele>117.3</ele>
        <time>2020-05-30T20:19:06Z</time>
      </trkpt>
      <trkpt lat="46.42829" lon="-0.18619">
        <ele>117.3</ele>
        <time>2020-05-30T20:19:07Z</time>
      </trkpt>
      <trkpt lat="46.42828" lon="-0.18619">
        <ele>117.2</ele>
        <time>2020-05-30T20:19:08Z</time>
      </trkpt>
      <trkpt lat="46.42827" lon="-0.1862">
        <ele>117.1</ele>
        <time>2020-05-30T20:19:09Z</time>
      </trkpt>
      <trkpt lat="46.42826" lon="-0.18621">
        <ele>117.1</ele>
        <time>2020-05-30T20:19:10Z</time>
      </trkpt>
      <trkpt lat="46.42825" lon="-0.18622">
        <ele>117</ele>
        <time>2020-05-30T20:19:11Z</time>
      </trkpt>
      <trkpt lat="46.42824" lon="-0.18622">
        <ele>116.9</ele>
        <time>2020-05-30T20:19:12Z</time>
      </trkpt>
      <trkpt lat="46.42823" lon="-0.18622">
        <ele>116.9</ele>
        <time>2020-05-30T20:19:13Z</time>
      </trkpt>
      <trkpt lat="46.42822" lon="-0.18622">
        <ele>116.8</ele>
        <time>2020-05-30T20:19:14Z</time>
      </trkpt>
      <trkpt lat="46.4282" lon="-0.18621">
        <ele>116.7</ele>
        <time>2020-05-30T20:19:15Z</time>
      </trkpt>
      <trkpt lat="46.42819" lon="-0.1862">
        <ele>116.6</ele>
        <time>2020-05-30T20:19:16Z</time>
      </trkpt>
      <trkpt lat="46.42818" lon="-0.18619">
        <ele>116.5</ele>
        <time>2020-05-30T20:19:17Z</time>
      </trkpt>
      <trkpt lat="46.42816" lon="-0.18618">
        <ele>116.3</ele>
        <time>2020-05-30T20:19:18Z</time>
      </trkpt>
      <trkpt lat="46.42814" lon="-0.18617">
        <ele>116.2</ele>
        <time>2020-05-30T20:19:19Z</time>
      </trkpt>
      <trkpt lat="46.42812" lon="-0.18615">
        <ele>116</ele>
        <time>2020-05-30T20:19:20Z</time>
      </trkpt>
      <trkpt lat="46.42811" lon="-0.18615">
        <ele>116</ele>
        <time>2020-05-30T20:19:21Z</time>
      </trkpt>
      <trkpt lat="46.4281" lon="-0.18614">
        <ele>115.9</ele>
        <time>2020-05-30T20:19:22Z</time>
      </trkpt>
      <trkpt lat="46.42809" lon="-0.18615">
        <ele>115.8</ele>
        <time>2020-05-30T20:19:23Z</time>
      </trkpt>
      <trkpt lat="46.42809" lon="-0.18615">
        <ele>115.8</ele>
        <time>2020-05-30T20:19:24Z</time>
      </trkpt>
      <trkpt lat="46.42809" lon="-0.18614">
        <ele>115.8</ele>
        <time>2020-05-30T20:19:25Z</time>
      </trkpt>
      <trkpt lat="46.42808" lon="-0.18613">
        <ele>115.8</ele>
        <time>2020-05-30T20:19:26Z</time>
      </trkpt>
      <trkpt lat="46.42808" lon="-0.18612">
        <ele>115.7</ele>
        <time>2020-05-30T20:19:27Z</time>
      </trkpt>
      <trkpt lat="46.42808" lon="-0.18612">
        <ele>115.7</ele>
        <time>2020-05-30T20:19:28Z</time>
      </trkpt>
      <trkpt lat="46.42808" lon="-0.18612">
        <ele>115.7</ele>
        <time>2020-05-30T20:19:29Z</time>
      </trkpt>
      <trkpt lat="46.42808" lon="-0.18612">
        <ele>115.7</ele>
        <time>2020-05-30T20:19:30Z</time>
      </trkpt>
      <trkpt lat="46.42808" lon="-0.18612">
        <ele>115.7</ele>
        <time>2020-05-30T20:19:31Z</time>
      </trkpt>
      <trkpt lat="46.42807" lon="-0.18611">
        <ele>115.6</ele>
        <time>2020-05-30T20:19:32Z</time>
      </trkpt>
      <trkpt lat="46.42805" lon="-0.1861">
        <ele>115.5</ele>
        <time>2020-05-30T20:19:33Z</time>
      </trkpt>
      <trkpt lat="46.42804" lon="-0.18609">
        <ele>115.4</ele>
        <time>2020-05-30T20:19:34Z</time>
      </trkpt>
      <trkpt lat="46.42803" lon="-0.18609">
        <ele>115.3</ele>
        <time>2020-05-30T20:19:35Z</time>
      </trkpt>
      <trkpt lat="46.42803" lon="-0.18608">
        <ele>115.3</ele>
        <time>2020-05-30T20:19:36Z</time>
      </trkpt>
      <trkpt lat="46.42802" lon="-0.18608">
        <ele>115.3</ele>
        <time>2020-05-30T20:19:37Z</time>
      </trkpt>
      <trkpt lat="46.42802" lon="-0.18607">
        <ele>115.2</ele>
        <time>2020-05-30T20:19:38Z</time>
      </trkpt>
      <trkpt lat="46.42802" lon="-0.18607">
        <ele>115.2</ele>
        <time>2020-05-30T20:19:39Z</time>
      </trkpt>
      <trkpt lat="46.42803" lon="-0.18606">
        <ele>115.2</ele>
        <time>2020-05-30T20:19:40Z</time>
      </trkpt>
      <trkpt lat="46.42804" lon="-0.18605">
        <ele>115.1</ele>
        <time>2020-05-30T20:19:41Z</time>
      </trkpt>
      <trkpt lat="46.42805" lon="-0.18604">
        <ele>115</ele>
        <time>2020-05-30T20:19:42Z</time>
      </trkpt>
      <trkpt lat="46.42806" lon="-0.18602">
        <ele>114.9</ele>
        <time>2020-05-30T20:19:43Z</time>
      </trkpt>
      <trkpt lat="46.42807" lon="-0.186">
        <ele>114.8</ele>
        <time>2020-05-30T20:19:44Z</time>
      </trkpt>
      <trkpt lat="46.42807" lon="-0.18599">
        <ele>114.7</ele>
        <time>2020-05-30T20:19:45Z</time>
      </trkpt>
      <trkpt lat="46.42808" lon="-0.18598">
        <ele>114.8</ele>
        <time>2020-05-30T20:19:46Z</time>
      </trkpt>
      <trkpt lat="46.4281" lon="-0.18597">
        <ele>114.9</ele>
        <time>2020-05-30T20:19:47Z</time>
      </trkpt>
      <trkpt lat="46.42812" lon="-0.18594">
        <ele>114.9</ele>
        <time>2020-05-30T20:19:48Z</time>
      </trkpt>
      <trkpt lat="46.42813" lon="-0.18594">
        <ele>114.9</ele>
        <time>2020-05-30T20:19:49Z</time>
      </trkpt>
      <trkpt lat="46.42814" lon="-0.18593">
        <ele>114.9</ele>
        <time>2020-05-30T20:19:50Z</time>
      </trkpt>
      <trkpt lat="46.42814" lon="-0.18593">
        <ele>114.9</ele>
        <time>2020-05-30T20:19:51Z</time>
      </trkpt>
      <trkpt lat="46.42814" lon="-0.18592">
        <ele>115</ele>
        <time>2020-05-30T20:19:52Z</time>
      </trkpt>
      <trkpt lat="46.42814" lon="-0.18591">
        <ele>115</ele>
        <time>2020-05-30T20:19:53Z</time>
      </trkpt>
      <trkpt lat="46.42814" lon="-0.1859">
        <ele>115</ele>
        <time>2020-05-30T20:19:54Z</time>
      </trkpt>
      <trkpt lat="46.42814" lon="-0.18589">
        <ele>115</ele>
        <time>2020-05-30T20:19:55Z</time>
      </trkpt>
      <trkpt lat="46.42813" lon="-0.18589">
        <ele>115</ele>
        <time>2020-05-30T20:19:56Z</time>
      </trkpt>
      <trkpt lat="46.42813" lon="-0.18588">
        <ele>115</ele>
        <time>2020-05-30T20:19:57Z</time>
      </trkpt>
      <trkpt lat="46.42813" lon="-0.18588">
        <ele>115</ele>
        <time>2020-05-30T20:19:58Z</time>
      </trkpt>
      <trkpt lat="46.42813" lon="-0.18588">
        <ele>115</ele>
        <time>2020-05-30T20:19:59Z</time>
      </trkpt>
      <trkpt lat="46.42813" lon="-0.18587">
        <ele>115</ele>
        <time>2020-05-30T20:20:00Z</time>
      </trkpt>
      <trkpt lat="46.42812" lon="-0.18587">
        <ele>115</ele>
        <time>2020-05-30T20:20:01Z</time>
      </trkpt>
      <trkpt lat="46.42812" lon="-0.18587">
        <ele>115</ele>
        <time>2020-05-30T20:20:02Z</time>
      </trkpt>
      <trkpt lat="46.42812" lon="-0.18586">
        <ele>115</ele>
        <time>2020-05-30T20:20:03Z</time>
      </trkpt>
      <trkpt lat="46.42812" lon="-0.18586">
        <ele>115</ele>
        <time>2020-05-30T20:20:04Z</time>
      </trkpt>
      <trkpt lat="46.42812" lon="-0.18586">
        <ele>115</ele>
        <time>2020-05-30T20:20:05Z</time>
      </trkpt>
      <trkpt lat="46.42811" lon="-0.18586">
        <ele>115</ele>
        <time>2020-05-30T20:20:06Z</time>
      </trkpt>
      <trkpt lat="46.42811" lon="-0.18585">
        <ele>115</ele>
        <time>2020-05-30T20:20:07Z</time>
      </trkpt>
      <trkpt lat="46.42811" lon="-0.18585">
        <ele>115</ele>
        <time>2020-05-30T20:20:08Z</time>
      </trkpt>
      <trkpt lat="46.42811" lon="-0.18585">
        <ele>115</ele>
        <time>2020-05-30T20:20:09Z</time>
      </trkpt>
      <trkpt lat="46.42811" lon="-0.18585">
        <ele>115</ele>
        <time>2020-05-30T20:20:10Z</time>
      </trkpt>
      <trkpt lat="46.42811" lon="-0.18585">
        <ele>115</ele>
        <time>2020-05-30T20:20:11Z</time>
      </trkpt>
      <trkpt lat="46.42811" lon="-0.18585">
        <ele>115</ele>
        <time>2020-05-30T20:20:12Z</time>
      </trkpt>
      <trkpt lat="46.42811" lon="-0.18584">
        <ele>115</ele>
        <time>2020-05-30T20:20:13Z</time>
      </trkpt>
      <trkpt lat="46.42811" lon="-0.18584">
        <ele>115</ele>
        <time>2020-05-30T20:20:14Z</time>
      </trkpt>
      <trkpt lat="46.42811" lon="-0.18584">
        <ele>115</ele>
        <time>2020-05-30T20:20:15Z</time>
      </trkpt>
      <trkpt lat="46.42811" lon="-0.18583">
        <ele>115</ele>
        <time>2020-05-30T20:20:16Z</time>
      </trkpt>
      <trkpt lat="46.42811" lon="-0.18583">
        <ele>115</ele>
        <time>2020-05-30T20:20:17Z</time>
      </trkpt>
      <trkpt lat="46.42812" lon="-0.18582">
        <ele>115</ele>
        <time>2020-05-30T20:20:18Z</time>
      </trkpt>
      <trkpt lat="46.42812" lon="-0.18582">
        <ele>115</ele>
        <time>2020-05-30T20:20:19Z</time>
      </trkpt>
      <trkpt lat="46.42812" lon="-0.18583">
        <ele>115</ele>
        <time>2020-05-30T20:20:20Z</time>
      </trkpt>
      <trkpt lat="46.42813" lon="-0.18583">
        <ele>115</ele>
        <time>2020-05-30T20:20:21Z</time>
      </trkpt>
      <trkpt lat="46.42813" lon="-0.18583">
        <ele>115</ele>
        <time>2020-05-30T20:20:22Z</time>
      </trkpt>
      <trkpt lat="46.42813" lon="-0.18583">
        <ele>115</ele>
        <time>2020-05-30T20:20:23Z</time>
      </trkpt>
      <trkpt lat="46.42813" lon="-0.18584">
        <ele>115</ele>
        <time>2020-05-30T20:20:24Z</time>
      </trkpt>
      <trkpt lat="46.42814" lon="-0.18584">
        <ele>115</ele>
        <time>2020-05-30T20:20:25Z</time>
      </trkpt>
      <trkpt lat="46.42814" lon="-0.18584">
        <ele>115</ele>
        <time>2020-05-30T20:20:26Z</time>
      </trkpt>
      <trkpt lat="46.42814" lon="-0.18584">
        <ele>115</ele>
        <time>2020-05-30T20:20:27Z</time>
      </trkpt>
      <trkpt lat="46.42814" lon="-0.18584">
        <ele>115</ele>
        <time>2020-05-30T20:20:28Z</time>
      </trkpt>
      <trkpt lat="46.42814" lon="-0.18584">
        <ele>115</ele>
        <time>2020-05-30T20:20:29Z</time>
      </trkpt>
      <trkpt lat="46.42814" lon="-0.18584">
        <ele>115</ele>
        <time>2020-05-30T20:20:30Z</time>
      </trkpt>
      <trkpt lat="46.42814" lon="-0.18583">
        <ele>115</ele>
        <time>2020-05-30T20:20:31Z</time>
      </trkpt>
      <trkpt lat="46.42814" lon="-0.18583">
        <ele>115</ele>
        <time>2020-05-30T20:20:32Z</time>
      </trkpt>
      <trkpt lat="46.42814" lon="-0.18582">
        <ele>115</ele>
        <time>2020-05-30T20:20:33Z</time>
      </trkpt>
      <trkpt lat="46.42814" lon="-0.18581">
        <ele>115.1</ele>
        <time>2020-05-30T20:20:34Z</time>
      </trkpt>
      <trkpt lat="46.42814" lon="-0.1858">
        <ele>115.1</ele>
        <time>2020-05-30T20:20:35Z</time>
      </trkpt>
      <trkpt lat="46.42814" lon="-0.18579">
        <ele>115</ele>
        <time>2020-05-30T20:20:36Z</time>
      </trkpt>
      <trkpt lat="46.42814" lon="-0.18578">
        <ele>115</ele>
        <time>2020-05-30T20:20:37Z</time>
      </trkpt>
      <trkpt lat="46.42814" lon="-0.18577">
        <ele>115</ele>
        <time>2020-05-30T20:20:38Z</time>
      </trkpt>
      <trkpt lat="46.42814" lon="-0.18576">
        <ele>115</ele>
        <time>2020-05-30T20:20:39Z</time>
      </trkpt>
      <trkpt lat="46.42815" lon="-0.18576">
        <ele>115</ele>
        <time>2020-05-30T20:20:40Z</time>
      </trkpt>
      <trkpt lat="46.42817" lon="-0.18576">
        <ele>115</ele>
        <time>2020-05-30T20:20:41Z</time>
      </trkpt>
      <trkpt lat="46.42817" lon="-0.18576">
        <ele>115</ele>
        <time>2020-05-30T20:20:42Z</time>
      </trkpt>
      <trkpt lat="46.42817" lon="-0.18576">
        <ele>115</ele>
        <time>2020-05-30T20:20:43Z</time>
      </trkpt>
      <trkpt lat="46.42817" lon="-0.18576">
        <ele>115</ele>
        <time>2020-05-30T20:20:44Z</time>
      </trkpt>
      <trkpt lat="46.42817" lon="-0.18576">
        <ele>115.1</ele>
        <time>2020-05-30T20:20:45Z</time>
      </trkpt>
      <trkpt lat="46.42817" lon="-0.18575">
        <ele>115.1</ele>
        <time>2020-05-30T20:20:46Z</time>
      </trkpt>
      <trkpt lat="46.42816" lon="-0.18575">
        <ele>115.1</ele>
        <time>2020-05-30T20:20:47Z</time>
      </trkpt>
      <trkpt lat="46.42816" lon="-0.18574">
        <ele>115</ele>
        <time>2020-05-30T20:20:48Z</time>
      </trkpt>
      <trkpt lat="46.42816" lon="-0.18573">
        <ele>115</ele>
        <time>2020-05-30T20:20:49Z</time>
      </trkpt>
      <trkpt lat="46.42816" lon="-0.18573">
        <ele>115</ele>
        <time>2020-05-30T20:20:50Z</time>
      </trkpt>
      <trkpt lat="46.42816" lon="-0.18574">
        <ele>115</ele>
        <time>2020-05-30T20:20:51Z</time>
      </trkpt>
      <trkpt lat="46.42816" lon="-0.18573">
        <ele>115</ele>
        <time>2020-05-30T20:20:52Z</time>
      </trkpt>
      <trkpt lat="46.42816" lon="-0.18573">
        <ele>115</ele>
        <time>2020-05-30T20:20:53Z</time>
      </trkpt>
      <trkpt lat="46.42817" lon="-0.18574">
        <ele>115</ele>
        <time>2020-05-30T20:20:54Z</time>
      </trkpt>
      <trkpt lat="46.42817" lon="-0.18574">
        <ele>115</ele>
        <time>2020-05-30T20:20:55Z</time>
      </trkpt>
      <trkpt lat="46.42817" lon="-0.18575">
        <ele>115</ele>
        <time>2020-05-30T20:20:56Z</time>
      </trkpt>
      <trkpt lat="46.42817" lon="-0.18575">
        <ele>115</ele>
        <time>2020-05-30T20:20:57Z</time>
      </trkpt>
      <trkpt lat="46.42817" lon="-0.18575">
        <ele>115</ele>
        <time>2020-05-30T20:20:58Z</time>
      </trkpt>
      <trkpt lat="46.42818" lon="-0.18575">
        <ele>115</ele>
        <time>2020-05-30T20:20:59Z</time>
      </trkpt>
      <trkpt lat="46.42818" lon="-0.18575">
        <ele>115</ele>
        <time>2020-05-30T20:21:00Z</time>
      </trkpt>
      <trkpt lat="46.42818" lon="-0.18575">
        <ele>115</ele>
        <time>2020-05-30T20:21:01Z</time>
      </trkpt>
      <trkpt lat="46.42818" lon="-0.18575">
        <ele>115</ele>
        <time>2020-05-30T20:21:02Z</time>
      </trkpt>
      <trkpt lat="46.42819" lon="-0.18575">
        <ele>115</ele>
        <time>2020-05-30T20:21:03Z</time>
      </trkpt>
      <trkpt lat="46.42819" lon="-0.18575">
        <ele>115</ele>
        <time>2020-05-30T20:21:04Z</time>
      </trkpt>
      <trkpt lat="46.42819" lon="-0.18575">
        <ele>115</ele>
        <time>2020-05-30T20:21:05Z</time>
      </trkpt>
      <trkpt lat="46.42819" lon="-0.18575">
        <ele>115.1</ele>
        <time>2020-05-30T20:21:06Z</time>
      </trkpt>
      <trkpt lat="46.42819" lon="-0.18575">
        <ele>115.1</ele>
        <time>2020-05-30T20:21:07Z</time>
      </trkpt>
      <trkpt lat="46.42819" lon="-0.18575">
        <ele>115.1</ele>
        <time>2020-05-30T20:21:08Z</time>
      </trkpt>
      <trkpt lat="46.42819" lon="-0.18575">
        <ele>115.1</ele>
        <time>2020-05-30T20:21:09Z</time>
      </trkpt>
      <trkpt lat="46.42819" lon="-0.18574">
        <ele>115.1</ele>
        <time>2020-05-30T20:21:10Z</time>
      </trkpt>
      <trkpt lat="46.4282" lon="-0.18574">
        <ele>115.1</ele>
        <time>2020-05-30T20:21:11Z</time>
      </trkpt>
      <trkpt lat="46.4282" lon="-0.18573">
        <ele>115.1</ele>
        <time>2020-05-30T20:21:12Z</time>
      </trkpt>
      <trkpt lat="46.4282" lon="-0.18573">
        <ele>115</ele>
        <time>2020-05-30T20:21:13Z</time>
      </trkpt>
      <trkpt lat="46.4282" lon="-0.18573">
        <ele>115</ele>
        <time>2020-05-30T20:21:14Z</time>
      </trkpt>
      <trkpt lat="46.4282" lon="-0.18573">
        <ele>115</ele>
        <time>2020-05-30T20:21:15Z</time>
      </trkpt>
      <trkpt lat="46.4282" lon="-0.18573">
        <ele>115</ele>
        <time>2020-05-30T20:21:16Z</time>
      </trkpt>
      <trkpt lat="46.4282" lon="-0.18573">
        <ele>115</ele>
        <time>2020-05-30T20:21:17Z</time>
      </trkpt>
      <trkpt lat="46.4282" lon="-0.18573">
        <ele>115</ele>
        <time>2020-05-30T20:21:18Z</time>
      </trkpt>
      <trkpt lat="46.4282" lon="-0.18573">
        <ele>115</ele>
        <time>2020-05-30T20:21:19Z</time>
      </trkpt>
      <trkpt lat="46.4282" lon="-0.18573">
        <ele>115</ele>
        <time>2020-05-30T20:21:20Z</time>
      </trkpt>
      <trkpt lat="46.4282" lon="-0.18573">
        <ele>115</ele>
        <time>2020-05-30T20:21:21Z</time>
      </trkpt>
      <trkpt lat="46.4282" lon="-0.18573">
        <ele>115</ele>
        <time>2020-05-30T20:21:22Z</time>
      </trkpt>
      <trkpt lat="46.4282" lon="-0.18572">
        <ele>115</ele>
        <time>2020-05-30T20:21:23Z</time>
      </trkpt>
      <trkpt lat="46.4282" lon="-0.18572">
        <ele>115</ele>
        <time>2020-05-30T20:21:24Z</time>
      </trkpt>
      <trkpt lat="46.4282" lon="-0.18573">
        <ele>115</ele>
        <time>2020-05-30T20:21:25Z</time>
      </trkpt>
      <trkpt lat="46.4282" lon="-0.18574">
        <ele>115</ele>
        <time>2020-05-30T20:21:26Z</time>
      </trkpt>
      <trkpt lat="46.4282" lon="-0.18574">
        <ele>115</ele>
        <time>2020-05-30T20:21:27Z</time>
      </trkpt>
      <trkpt lat="46.4282" lon="-0.18574">
        <ele>115</ele>
        <time>2020-05-30T20:21:28Z</time>
      </trkpt>
      <trkpt lat="46.4282" lon="-0.18574">
        <ele>115</ele>
        <time>2020-05-30T20:21:29Z</time>
      </trkpt>
      <trkpt lat="46.4282" lon="-0.18574">
        <ele>115</ele>
        <time>2020-05-30T20:21:30Z</time>
      </trkpt>
      <trkpt lat="46.4282" lon="-0.18574">
        <ele>115</ele>
        <time>2020-05-30T20:21:31Z</time>
      </trkpt>
      <trkpt lat="46.4282" lon="-0.18574">
        <ele>115</ele>
        <time>2020-05-30T20:21:32Z</time>
      </trkpt>
      <trkpt lat="46.4282" lon="-0.18574">
        <ele>115</ele>
        <time>2020-05-30T20:21:33Z</time>
      </trkpt>
      <trkpt lat="46.4282" lon="-0.18574">
        <ele>115</ele>
        <time>2020-05-30T20:21:34Z</time>
      </trkpt>
      <trkpt lat="46.4282" lon="-0.18574">
        <ele>115</ele>
        <time>2020-05-30T20:21:35Z</time>
      </trkpt>
      <trkpt lat="46.4282" lon="-0.18574">
        <ele>115</ele>
        <time>2020-05-30T20:21:36Z</time>
      </trkpt>
      <trkpt lat="46.4282" lon="-0.18574">
        <ele>115</ele>
        <time>2020-05-30T20:21:37Z</time>
      </trkpt>
      <trkpt lat="46.4282" lon="-0.18574">
        <ele>115</ele>
        <time>2020-05-30T20:21:38Z</time>
      </trkpt>
      <trkpt lat="46.4282" lon="-0.18574">
        <ele>115</ele>
        <time>2020-05-30T20:21:39Z</time>
      </trkpt>
      <trkpt lat="46.4282" lon="-0.18574">
        <ele>115</ele>
        <time>2020-05-30T20:21:40Z</time>
      </trkpt>
      <trkpt lat="46.4282" lon="-0.18574">
        <ele>115</ele>
        <time>2020-05-30T20:21:41Z</time>
      </trkpt>
      <trkpt lat="46.4282" lon="-0.18573">
        <ele>115</ele>
        <time>2020-05-30T20:21:42Z</time>
      </trkpt>
      <trkpt lat="46.4282" lon="-0.18573">
        <ele>115</ele>
        <time>2020-05-30T20:21:43Z</time>
      </trkpt>
      <trkpt lat="46.42819" lon="-0.18573">
        <ele>115</ele>
        <time>2020-05-30T20:21:44Z</time>
      </trkpt>
      <trkpt lat="46.42819" lon="-0.18573">
        <ele>115</ele>
        <time>2020-05-30T20:21:45Z</time>
      </trkpt>
      <trkpt lat="46.42819" lon="-0.18573">
        <ele>115</ele>
        <time>2020-05-30T20:21:46Z</time>
      </trkpt>
      <trkpt lat="46.42819" lon="-0.18573">
        <ele>115</ele>
        <time>2020-05-30T20:21:47Z</time>
      </trkpt>
      <trkpt lat="46.42819" lon="-0.18573">
        <ele>115</ele>
        <time>2020-05-30T20:21:48Z</time>
      </trkpt>
      <trkpt lat="46.42818" lon="-0.18572">
        <ele>115</ele>
        <time>2020-05-30T20:21:49Z</time>
      </trkpt>
      <trkpt lat="46.42819" lon="-0.18572">
        <ele>115</ele>
        <time>2020-05-30T20:21:50Z</time>
      </trkpt>
      <trkpt lat="46.42819" lon="-0.18572">
        <ele>115</ele>
        <time>2020-05-30T20:21:51Z</time>
      </trkpt>
      <trkpt lat="46.42819" lon="-0.18573">
        <ele>115</ele>
        <time>2020-05-30T20:21:52Z</time>
      </trkpt>
      <trkpt lat="46.42819" lon="-0.18572">
        <ele>115</ele>
        <time>2020-05-30T20:21:53Z</time>
      </trkpt>
      <trkpt lat="46.42819" lon="-0.18573">
        <ele>115</ele>
        <time>2020-05-30T20:21:54Z</time>
      </trkpt>
      <trkpt lat="46.4282" lon="-0.18573">
        <ele>115</ele>
        <time>2020-05-30T20:21:55Z</time>
      </trkpt>
      <trkpt lat="46.4282" lon="-0.18574">
        <ele>115</ele>
        <time>2020-05-30T20:21:56Z</time>
      </trkpt>
      <trkpt lat="46.4282" lon="-0.18574">
        <ele>115</ele>
        <time>2020-05-30T20:21:57Z</time>
      </trkpt>
      <trkpt lat="46.4282" lon="-0.18575">
        <ele>115</ele>
        <time>2020-05-30T20:21:58Z</time>
      </trkpt>
      <trkpt lat="46.4282" lon="-0.18575">
        <ele>115</ele>
        <time>2020-05-30T20:21:59Z</time>
      </trkpt>
      <trkpt lat="46.4282" lon="-0.18575">
        <ele>115</ele>
        <time>2020-05-30T20:22:00Z</time>
      </trkpt>
      <trkpt lat="46.4282" lon="-0.18575">
        <ele>115</ele>
        <time>2020-05-30T20:22:01Z</time>
      </trkpt>
      <trkpt lat="46.4282" lon="-0.18575">
        <ele>115</ele>
        <time>2020-05-30T20:22:02Z</time>
      </trkpt>
      <trkpt lat="46.4282" lon="-0.18575">
        <ele>115</ele>
        <time>2020-05-30T20:22:03Z</time>
      </trkpt>
      <trkpt lat="46.4282" lon="-0.18575">
        <ele>115</ele>
        <time>2020-05-30T20:22:04Z</time>
      </trkpt>
      <trkpt lat="46.4282" lon="-0.18574">
        <ele>115</ele>
        <time>2020-05-30T20:22:05Z</time>
      </trkpt>
      <trkpt lat="46.4282" lon="-0.18573">
        <ele>115</ele>
        <time>2020-05-30T20:22:06Z</time>
      </trkpt>
      <trkpt lat="46.4282" lon="-0.18572">
        <ele>115</ele>
        <time>2020-05-30T20:22:07Z</time>
      </trkpt>
      <trkpt lat="46.4282" lon="-0.18572">
        <ele>115</ele>
        <time>2020-05-30T20:22:08Z</time>
      </trkpt>
      <trkpt lat="46.4282" lon="-0.18572">
        <ele>115</ele>
        <time>2020-05-30T20:22:09Z</time>
      </trkpt>
      <trkpt lat="46.4282" lon="-0.18572">
        <ele>115</ele>
        <time>2020-05-30T20:22:10Z</time>
      </trkpt>
      <trkpt lat="46.4282" lon="-0.18571">
        <ele>115</ele>
        <time>2020-05-30T20:22:11Z</time>
      </trkpt>
      <trkpt lat="46.4282" lon="-0.18571">
        <ele>115</ele>
        <time>2020-05-30T20:22:12Z</time>
      </trkpt>
      <trkpt lat="46.42819" lon="-0.18571">
        <ele>115</ele>
        <time>2020-05-30T20:22:13Z</time>
      </trkpt>
      <trkpt lat="46.42819" lon="-0.18571">
        <ele>115</ele>
        <time>2020-05-30T20:22:14Z</time>
      </trkpt>
      <trkpt lat="46.42819" lon="-0.18571">
        <ele>115</ele>
        <time>2020-05-30T20:22:15Z</time>
      </trkpt>
      <trkpt lat="46.42819" lon="-0.1857">
        <ele>115</ele>
        <time>2020-05-30T20:22:16Z</time>
      </trkpt>
      <trkpt lat="46.42819" lon="-0.1857">
        <ele>115</ele>
        <time>2020-05-30T20:22:17Z</time>
      </trkpt>
      <trkpt lat="46.42819" lon="-0.1857">
        <ele>115</ele>
        <time>2020-05-30T20:22:18Z</time>
      </trkpt>
      <trkpt lat="46.42818" lon="-0.18571">
        <ele>115</ele>
        <time>2020-05-30T20:22:19Z</time>
      </trkpt>
      <trkpt lat="46.42818" lon="-0.1857">
        <ele>115</ele>
        <time>2020-05-30T20:22:20Z</time>
      </trkpt>
      <trkpt lat="46.42818" lon="-0.18571">
        <ele>115</ele>
        <time>2020-05-30T20:22:21Z</time>
      </trkpt>
      <trkpt lat="46.42818" lon="-0.18571">
        <ele>115</ele>
        <time>2020-05-30T20:22:22Z</time>
      </trkpt>
      <trkpt lat="46.42818" lon="-0.18571">
        <ele>115</ele>
        <time>2020-05-30T20:22:23Z</time>
      </trkpt>
      <trkpt lat="46.42818" lon="-0.18571">
        <ele>115</ele>
        <time>2020-05-30T20:22:24Z</time>
      </trkpt>
      <trkpt lat="46.42818" lon="-0.18571">
        <ele>115</ele>
        <time>2020-05-30T20:22:25Z</time>
      </trkpt>
      <trkpt lat="46.42817" lon="-0.18571">
        <ele>115</ele>
        <time>2020-05-30T20:22:26Z</time>
      </trkpt>
      <trkpt lat="46.42817" lon="-0.18571">
        <ele>115</ele>
        <time>2020-05-30T20:22:27Z</time>
      </trkpt>
      <trkpt lat="46.42817" lon="-0.18571">
        <ele>115</ele>
        <time>2020-05-30T20:22:28Z</time>
      </trkpt>
      <trkpt lat="46.42817" lon="-0.18571">
        <ele>115</ele>
        <time>2020-05-30T20:22:29Z</time>
      </trkpt>
      <trkpt lat="46.42817" lon="-0.18571">
        <ele>115</ele>
        <time>2020-05-30T20:22:30Z</time>
      </trkpt>
      <trkpt lat="46.42818" lon="-0.18571">
        <ele>115</ele>
        <time>2020-05-30T20:22:31Z</time>
      </trkpt>
      <trkpt lat="46.42818" lon="-0.18571">
        <ele>115</ele>
        <time>2020-05-30T20:22:32Z</time>
      </trkpt>
      <trkpt lat="46.42818" lon="-0.18571">
        <ele>115</ele>
        <time>2020-05-30T20:22:33Z</time>
      </trkpt>
      <trkpt lat="46.42817" lon="-0.18571">
        <ele>115</ele>
        <time>2020-05-30T20:22:34Z</time>
      </trkpt>
      <trkpt lat="46.42817" lon="-0.18571">
        <ele>115</ele>
        <time>2020-05-30T20:22:35Z</time>
      </trkpt>
      <trkpt lat="46.42817" lon="-0.18572">
        <ele>115</ele>
        <time>2020-05-30T20:22:36Z</time>
      </trkpt>
      <trkpt lat="46.42816" lon="-0.18573">
        <ele>115</ele>
        <time>2020-05-30T20:22:37Z</time>
      </trkpt>
      <trkpt lat="46.42816" lon="-0.18575">
        <ele>115</ele>
        <time>2020-05-30T20:22:38Z</time>
      </trkpt>
      <trkpt lat="46.42815" lon="-0.18575">
        <ele>115</ele>
        <time>2020-05-30T20:22:39Z</time>
      </trkpt>
      <trkpt lat="46.42814" lon="-0.18576">
        <ele>115</ele>
        <time>2020-05-30T20:22:40Z</time>
      </trkpt>
      <trkpt lat="46.42814" lon="-0.18576">
        <ele>115</ele>
        <time>2020-05-30T20:22:41Z</time>
      </trkpt>
      <trkpt lat="46.42814" lon="-0.18577">
        <ele>115</ele>
        <time>2020-05-30T20:22:42Z</time>
      </trkpt>
      <trkpt lat="46.42814" lon="-0.18577">
        <ele>115</ele>
        <time>2020-05-30T20:22:43Z</time>
      </trkpt>
      <trkpt lat="46.42814" lon="-0.18578">
        <ele>115</ele>
        <time>2020-05-30T20:22:44Z</time>
      </trkpt>
      <trkpt lat="46.42814" lon="-0.18578">
        <ele>115</ele>
        <time>2020-05-30T20:22:45Z</time>
      </trkpt>
      <trkpt lat="46.42814" lon="-0.18578">
        <ele>115</ele>
        <time>2020-05-30T20:22:46Z</time>
      </trkpt>
      <trkpt lat="46.42814" lon="-0.18578">
        <ele>115</ele>
        <time>2020-05-30T20:22:47Z</time>
      </trkpt>
      <trkpt lat="46.42813" lon="-0.18577">
        <ele>115</ele>
        <time>2020-05-30T20:22:48Z</time>
      </trkpt>
      <trkpt lat="46.42813" lon="-0.18577">
        <ele>115</ele>
        <time>2020-05-30T20:22:49Z</time>
      </trkpt>
      <trkpt lat="46.42813" lon="-0.18577">
        <ele>115</ele>
        <time>2020-05-30T20:22:50Z</time>
      </trkpt>
      <trkpt lat="46.42813" lon="-0.18576">
        <ele>115</ele>
        <time>2020-05-30T20:22:51Z</time>
      </trkpt>
      <trkpt lat="46.42813" lon="-0.18577">
        <ele>115</ele>
        <time>2020-05-30T20:22:52Z</time>
      </trkpt>
      <trkpt lat="46.42813" lon="-0.18577">
        <ele>115</ele>
        <time>2020-05-30T20:22:53Z</time>
      </trkpt>
      <trkpt lat="46.42813" lon="-0.18576">
        <ele>115</ele>
        <time>2020-05-30T20:22:54Z</time>
      </trkpt>
      <trkpt lat="46.42812" lon="-0.18576">
        <ele>115</ele>
        <time>2020-05-30T20:22:55Z</time>
      </trkpt>
      <trkpt lat="46.42812" lon="-0.18576">
        <ele>115</ele>
        <time>2020-05-30T20:22:56Z</time>
      </trkpt>
      <trkpt lat="46.42813" lon="-0.18576">
        <ele>115</ele>
        <time>2020-05-30T20:22:57Z</time>
      </trkpt>
      <trkpt lat="46.42813" lon="-0.18576">
        <ele>115</ele>
        <time>2020-05-30T20:22:58Z</time>
      </trkpt>
      <trkpt lat="46.42813" lon="-0.18576">
        <ele>115</ele>
        <time>2020-05-30T20:22:59Z</time>
      </trkpt>
      <trkpt lat="46.42813" lon="-0.18576">
        <ele>115</ele>
        <time>2020-05-30T20:23:00Z</time>
      </trkpt>
      <trkpt lat="46.42813" lon="-0.18575">
        <ele>115</ele>
        <time>2020-05-30T20:23:01Z</time>
      </trkpt>
      <trkpt lat="46.42813" lon="-0.18574">
        <ele>115</ele>
        <time>2020-05-30T20:23:02Z</time>
      </trkpt>
      <trkpt lat="46.42814" lon="-0.18574">
        <ele>115</ele>
        <time>2020-05-30T20:23:03Z</time>
      </trkpt>
      <trkpt lat="46.42813" lon="-0.18573">
        <ele>115</ele>
        <time>2020-05-30T20:23:04Z</time>
      </trkpt>
      <trkpt lat="46.42813" lon="-0.18572">
        <ele>115</ele>
        <time>2020-05-30T20:23:05Z</time>
      </trkpt>
      <trkpt lat="46.42813" lon="-0.1857">
        <ele>115</ele>
        <time>2020-05-30T20:23:06Z</time>
      </trkpt>
      <trkpt lat="46.42813" lon="-0.18568">
        <ele>115.1</ele>
        <time>2020-05-30T20:23:07Z</time>
      </trkpt>
      <trkpt lat="46.42813" lon="-0.18568">
        <ele>115.1</ele>
        <time>2020-05-30T20:23:08Z</time>
      </trkpt>
      <trkpt lat="46.42813" lon="-0.18567">
        <ele>115.1</ele>
        <time>2020-05-30T20:23:09Z</time>
      </trkpt>
      <trkpt lat="46.42814" lon="-0.18568">
        <ele>115.1</ele>
        <time>2020-05-30T20:23:10Z</time>
      </trkpt>
      <trkpt lat="46.42814" lon="-0.18568">
        <ele>115.1</ele>
        <time>2020-05-30T20:23:11Z</time>
      </trkpt>
      <trkpt lat="46.42815" lon="-0.18567">
        <ele>115.1</ele>
        <time>2020-05-30T20:23:12Z</time>
      </trkpt>
      <trkpt lat="46.42815" lon="-0.18567">
        <ele>115.1</ele>
        <time>2020-05-30T20:23:13Z</time>
      </trkpt>
      <trkpt lat="46.42815" lon="-0.18567">
        <ele>115.1</ele>
        <time>2020-05-30T20:23:14Z</time>
      </trkpt>
      <trkpt lat="46.42815" lon="-0.18567">
        <ele>115.1</ele>
        <time>2020-05-30T20:23:15Z</time>
      </trkpt>
      <trkpt lat="46.42815" lon="-0.18568">
        <ele>115.1</ele>
        <time>2020-05-30T20:23:16Z</time>
      </trkpt>
      <trkpt lat="46.42815" lon="-0.18569">
        <ele>115.1</ele>
        <time>2020-05-30T20:23:17Z</time>
      </trkpt>
      <trkpt lat="46.42815" lon="-0.18569">
        <ele>115.1</ele>
        <time>2020-05-30T20:23:18Z</time>
      </trkpt>
      <trkpt lat="46.42815" lon="-0.18569">
        <ele>115.1</ele>
        <time>2020-05-30T20:23:19Z</time>
      </trkpt>
      <trkpt lat="46.42815" lon="-0.18569">
        <ele>115.1</ele>
        <time>2020-05-30T20:23:20Z</time>
      </trkpt>
      <trkpt lat="46.42816" lon="-0.18568">
        <ele>115.1</ele>
        <time>2020-05-30T20:23:21Z</time>
      </trkpt>
      <trkpt lat="46.42815" lon="-0.18568">
        <ele>115.1</ele>
        <time>2020-05-30T20:23:22Z</time>
      </trkpt>
      <trkpt lat="46.42815" lon="-0.18568">
        <ele>115.1</ele>
        <time>2020-05-30T20:23:23Z</time>
      </trkpt>
      <trkpt lat="46.42815" lon="-0.18567">
        <ele>115.1</ele>
        <time>2020-05-30T20:23:24Z</time>
      </trkpt>
      <trkpt lat="46.42815" lon="-0.18567">
        <ele>115.1</ele>
        <time>2020-05-30T20:23:25Z</time>
      </trkpt>
      <trkpt lat="46.42815" lon="-0.18567">
        <ele>115.1</ele>
        <time>2020-05-30T20:23:26Z</time>
      </trkpt>
      <trkpt lat="46.42815" lon="-0.18567">
        <ele>115.1</ele>
        <time>2020-05-30T20:23:27Z</time>
      </trkpt>
      <trkpt lat="46.42815" lon="-0.18567">
        <ele>115.1</ele>
        <time>2020-05-30T20:23:28Z</time>
      </trkpt>
      <trkpt lat="46.42815" lon="-0.18567">
        <ele>115.1</ele>
        <time>2020-05-30T20:23:29Z</time>
      </trkpt>
      <trkpt lat="46.42815" lon="-0.18566">
        <ele>115.1</ele>
        <time>2020-05-30T20:23:30Z</time>
      </trkpt>
      <trkpt lat="46.42815" lon="-0.18566">
        <ele>115.1</ele>
        <time>2020-05-30T20:23:31Z</time>
      </trkpt>
      <trkpt lat="46.42815" lon="-0.18566">
        <ele>115.1</ele>
        <time>2020-05-30T20:23:32Z</time>
      </trkpt>
      <trkpt lat="46.42814" lon="-0.18566">
        <ele>115.1</ele>
        <time>2020-05-30T20:23:33Z</time>
      </trkpt>
      <trkpt lat="46.42814" lon="-0.18566">
        <ele>115.1</ele>
        <time>2020-05-30T20:23:34Z</time>
      </trkpt>
      <trkpt lat="46.42814" lon="-0.18566">
        <ele>115.1</ele>
        <time>2020-05-30T20:23:35Z</time>
      </trkpt>
      <trkpt lat="46.42814" lon="-0.18566">
        <ele>115.1</ele>
        <time>2020-05-30T20:23:36Z</time>
      </trkpt>
      <trkpt lat="46.42814" lon="-0.18566">
        <ele>115.1</ele>
        <time>2020-05-30T20:23:37Z</time>
      </trkpt>
      <trkpt lat="46.42814" lon="-0.18566">
        <ele>115.1</ele>
        <time>2020-05-30T20:23:38Z</time>
      </trkpt>
      <trkpt lat="46.42814" lon="-0.18566">
        <ele>115.1</ele>
        <time>2020-05-30T20:23:39Z</time>
      </trkpt>
      <trkpt lat="46.42815" lon="-0.18566">
        <ele>115.1</ele>
        <time>2020-05-30T20:23:40Z</time>
      </trkpt>
      <trkpt lat="46.42815" lon="-0.18566">
        <ele>115.1</ele>
        <time>2020-05-30T20:23:41Z</time>
      </trkpt>
      <trkpt lat="46.42815" lon="-0.18566">
        <ele>115.1</ele>
        <time>2020-05-30T20:23:42Z</time>
      </trkpt>
      <trkpt lat="46.42815" lon="-0.18566">
        <ele>115.1</ele>
        <time>2020-05-30T20:23:43Z</time>
      </trkpt>
      <trkpt lat="46.42815" lon="-0.18566">
        <ele>115.1</ele>
        <time>2020-05-30T20:23:44Z</time>
      </trkpt>
      <trkpt lat="46.42815" lon="-0.18566">
        <ele>115.1</ele>
        <time>2020-05-30T20:23:45Z</time>
      </trkpt>
      <trkpt lat="46.42815" lon="-0.18565">
        <ele>115.1</ele>
        <time>2020-05-30T20:23:46Z</time>
      </trkpt>
      <trkpt lat="46.42815" lon="-0.18566">
        <ele>115.1</ele>
        <time>2020-05-30T20:23:47Z</time>
      </trkpt>
      <trkpt lat="46.42815" lon="-0.18566">
        <ele>115.1</ele>
        <time>2020-05-30T20:23:48Z</time>
      </trkpt>
      <trkpt lat="46.42815" lon="-0.18566">
        <ele>115.1</ele>
        <time>2020-05-30T20:23:49Z</time>
      </trkpt>
      <trkpt lat="46.42815" lon="-0.18566">
        <ele>115.1</ele>
        <time>2020-05-30T20:23:50Z</time>
      </trkpt>
      <trkpt lat="46.42815" lon="-0.18566">
        <ele>115.1</ele>
        <time>2020-05-30T20:23:51Z</time>
      </trkpt>
      <trkpt lat="46.42815" lon="-0.18566">
        <ele>115.1</ele>
        <time>2020-05-30T20:23:52Z</time>
      </trkpt>
      <trkpt lat="46.42815" lon="-0.18566">
        <ele>115.1</ele>
        <time>2020-05-30T20:23:53Z</time>
      </trkpt>
      <trkpt lat="46.42815" lon="-0.18566">
        <ele>115.1</ele>
        <time>2020-05-30T20:23:54Z</time>
      </trkpt>
      <trkpt lat="46.42815" lon="-0.18566">
        <ele>115.1</ele>
        <time>2020-05-30T20:23:55Z</time>
      </trkpt>
      <trkpt lat="46.42815" lon="-0.18566">
        <ele>115.1</ele>
        <time>2020-05-30T20:23:56Z</time>
      </trkpt>
      <trkpt lat="46.42815" lon="-0.18566">
        <ele>115.1</ele>
        <time>2020-05-30T20:23:57Z</time>
      </trkpt>
      <trkpt lat="46.42815" lon="-0.18566">
        <ele>115.1</ele>
        <time>2020-05-30T20:23:58Z</time>
      </trkpt>
      <trkpt lat="46.42815" lon="-0.18566">
        <ele>115.1</ele>
        <time>2020-05-30T20:23:59Z</time>
      </trkpt>
      <trkpt lat="46.42815" lon="-0.18566">
        <ele>115.1</ele>
        <time>2020-05-30T20:24:00Z</time>
      </trkpt>
      <trkpt lat="46.42815" lon="-0.18566">
        <ele>115.1</ele>
        <time>2020-05-30T20:24:01Z</time>
      </trkpt>
      <trkpt lat="46.42815" lon="-0.18566">
        <ele>115.1</ele>
        <time>2020-05-30T20:24:02Z</time>
      </trkpt>
      <trkpt lat="46.42814" lon="-0.18566">
        <ele>115.1</ele>
        <time>2020-05-30T20:24:03Z</time>
      </trkpt>
      <trkpt lat="46.42814" lon="-0.18566">
        <ele>115.1</ele>
        <time>2020-05-30T20:24:04Z</time>
      </trkpt>
      <trkpt lat="46.42814" lon="-0.18566">
        <ele>115.1</ele>
        <time>2020-05-30T20:24:05Z</time>
      </trkpt>
      <trkpt lat="46.42814" lon="-0.18566">
        <ele>115.1</ele>
        <time>2020-05-30T20:24:06Z</time>
      </trkpt>
      <trkpt lat="46.42814" lon="-0.18566">
        <ele>115.1</ele>
        <time>2020-05-30T20:24:07Z</time>
      </trkpt>
      <trkpt lat="46.42813" lon="-0.18567">
        <ele>115.1</ele>
        <time>2020-05-30T20:24:08Z</time>
      </trkpt>
      <trkpt lat="46.42813" lon="-0.18567">
        <ele>115.1</ele>
        <time>2020-05-30T20:24:09Z</time>
      </trkpt>
      <trkpt lat="46.42813" lon="-0.18567">
        <ele>115.1</ele>
        <time>2020-05-30T20:24:10Z</time>
      </trkpt>
      <trkpt lat="46.42813" lon="-0.18568">
        <ele>115.1</ele>
        <time>2020-05-30T20:24:11Z</time>
      </trkpt>
      <trkpt lat="46.42812" lon="-0.18568">
        <ele>115.1</ele>
        <time>2020-05-30T20:24:12Z</time>
      </trkpt>
      <trkpt lat="46.42812" lon="-0.18568">
        <ele>115.1</ele>
        <time>2020-05-30T20:24:13Z</time>
      </trkpt>
      <trkpt lat="46.42812" lon="-0.18568">
        <ele>115.1</ele>
        <time>2020-05-30T20:24:14Z</time>
      </trkpt>
      <trkpt lat="46.42812" lon="-0.18568">
        <ele>115.1</ele>
        <time>2020-05-30T20:24:15Z</time>
      </trkpt>
      <trkpt lat="46.42812" lon="-0.18568">
        <ele>115.1</ele>
        <time>2020-05-30T20:24:16Z</time>
      </trkpt>
      <trkpt lat="46.42812" lon="-0.18568">
        <ele>115.1</ele>
        <time>2020-05-30T20:24:17Z</time>
      </trkpt>
      <trkpt lat="46.42812" lon="-0.18567">
        <ele>115.1</ele>
        <time>2020-05-30T20:24:18Z</time>
      </trkpt>
      <trkpt lat="46.42811" lon="-0.18567">
        <ele>115.1</ele>
        <time>2020-05-30T20:24:19Z</time>
      </trkpt>
      <trkpt lat="46.42811" lon="-0.18567">
        <ele>115.1</ele>
        <time>2020-05-30T20:24:20Z</time>
      </trkpt>
      <trkpt lat="46.42811" lon="-0.18567">
        <ele>115.1</ele>
        <time>2020-05-30T20:24:21Z</time>
      </trkpt>
      <trkpt lat="46.42811" lon="-0.18567">
        <ele>115.1</ele>
        <time>2020-05-30T20:24:22Z</time>
      </trkpt>
      <trkpt lat="46.42812" lon="-0.18567">
        <ele>115.1</ele>
        <time>2020-05-30T20:24:23Z</time>
      </trkpt>
      <trkpt lat="46.42812" lon="-0.18567">
        <ele>115.1</ele>
        <time>2020-05-30T20:24:24Z</time>
      </trkpt>
      <trkpt lat="46.42812" lon="-0.18567">
        <ele>115.1</ele>
        <time>2020-05-30T20:24:25Z</time>
      </trkpt>
      <trkpt lat="46.42812" lon="-0.18567">
        <ele>115.1</ele>
        <time>2020-05-30T20:24:26Z</time>
      </trkpt>
      <trkpt lat="46.42812" lon="-0.18567">
        <ele>115.1</ele>
        <time>2020-05-30T20:24:27Z</time>
      </trkpt>
      <trkpt lat="46.42812" lon="-0.18567">
        <ele>115.1</ele>
        <time>2020-05-30T20:24:28Z</time>
      </trkpt>
      <trkpt lat="46.42812" lon="-0.18567">
        <ele>115.1</ele>
        <time>2020-05-30T20:24:29Z</time>
      </trkpt>
      <trkpt lat="46.42812" lon="-0.18567">
        <ele>115.1</ele>
        <time>2020-05-30T20:24:30Z</time>
      </trkpt>
      <trkpt lat="46.42812" lon="-0.18567">
        <ele>115.1</ele>
        <time>2020-05-30T20:24:31Z</time>
      </trkpt>
      <trkpt lat="46.42812" lon="-0.18567">
        <ele>115.1</ele>
        <time>2020-05-30T20:24:32Z</time>
      </trkpt>
      <trkpt lat="46.42811" lon="-0.18568">
        <ele>115.1</ele>
        <time>2020-05-30T20:24:33Z</time>
      </trkpt>
      <trkpt lat="46.42811" lon="-0.18568">
        <ele>115.1</ele>
        <time>2020-05-30T20:24:34Z</time>
      </trkpt>
      <trkpt lat="46.42811" lon="-0.18568">
        <ele>115.1</ele>
        <time>2020-05-30T20:24:35Z</time>
      </trkpt>
      <trkpt lat="46.42811" lon="-0.18568">
        <ele>115.1</ele>
        <time>2020-05-30T20:24:36Z</time>
      </trkpt>
      <trkpt lat="46.42811" lon="-0.18568">
        <ele>115.1</ele>
        <time>2020-05-30T20:24:37Z</time>
      </trkpt>
      <trkpt lat="46.42811" lon="-0.18568">
        <ele>115.1</ele>
        <time>2020-05-30T20:24:38Z</time>
      </trkpt>
      <trkpt lat="46.42811" lon="-0.18568">
        <ele>115.1</ele>
        <time>2020-05-30T20:24:39Z</time>
      </trkpt>
      <trkpt lat="46.42812" lon="-0.18567">
        <ele>115.1</ele>
        <time>2020-05-30T20:24:40Z</time>
      </trkpt>
      <trkpt lat="46.42812" lon="-0.18567">
        <ele>115.1</ele>
        <time>2020-05-30T20:24:41Z</time>
      </trkpt>
      <trkpt lat="46.42811" lon="-0.18567">
        <ele>115.1</ele>
        <time>2020-05-30T20:24:42Z</time>
      </trkpt>
      <trkpt lat="46.42811" lon="-0.18568">
        <ele>115.1</ele>
        <time>2020-05-30T20:24:43Z</time>
      </trkpt>
      <trkpt lat="46.42811" lon="-0.18567">
        <ele>115.1</ele>
        <time>2020-05-30T20:24:44Z</time>
      </trkpt>
      <trkpt lat="46.42811" lon="-0.18567">
        <ele>115.1</ele>
        <time>2020-05-30T20:24:45Z</time>
      </trkpt>
      <trkpt lat="46.42812" lon="-0.18567">
        <ele>115.1</ele>
        <time>2020-05-30T20:24:46Z</time>
      </trkpt>
      <trkpt lat="46.42812" lon="-0.18567">
        <ele>115.1</ele>
        <time>2020-05-30T20:24:47Z</time>
      </trkpt>
      <trkpt lat="46.42812" lon="-0.18566">
        <ele>115.1</ele>
        <time>2020-05-30T20:24:48Z</time>
      </trkpt>
      <trkpt lat="46.42812" lon="-0.18566">
        <ele>115.1</ele>
        <time>2020-05-30T20:24:49Z</time>
      </trkpt>
      <trkpt lat="46.42812" lon="-0.18566">
        <ele>115.1</ele>
        <time>2020-05-30T20:24:50Z</time>
      </trkpt>
      <trkpt lat="46.42812" lon="-0.18566">
        <ele>115.1</ele>
        <time>2020-05-30T20:24:51Z</time>
      </trkpt>
      <trkpt lat="46.42812" lon="-0.18567">
        <ele>115.1</ele>
        <time>2020-05-30T20:24:52Z</time>
      </trkpt>
      <trkpt lat="46.42811" lon="-0.18567">
        <ele>115.1</ele>
        <time>2020-05-30T20:24:53Z</time>
      </trkpt>
      <trkpt lat="46.42811" lon="-0.18567">
        <ele>115.1</ele>
        <time>2020-05-30T20:24:54Z</time>
      </trkpt>
      <trkpt lat="46.42811" lon="-0.18567">
        <ele>115.1</ele>
        <time>2020-05-30T20:24:55Z</time>
      </trkpt>
      <trkpt lat="46.42811" lon="-0.18567">
        <ele>115.1</ele>
        <time>2020-05-30T20:24:56Z</time>
      </trkpt>
      <trkpt lat="46.42811" lon="-0.18567">
        <ele>115.1</ele>
        <time>2020-05-30T20:24:57Z</time>
      </trkpt>
      <trkpt lat="46.42811" lon="-0.18567">
        <ele>115.1</ele>
        <time>2020-05-30T20:24:58Z</time>
      </trkpt>
      <trkpt lat="46.42811" lon="-0.18566">
        <ele>115.1</ele>
        <time>2020-05-30T20:24:59Z</time>
      </trkpt>
      <trkpt lat="46.42811" lon="-0.18565">
        <ele>115.1</ele>
        <time>2020-05-30T20:25:00Z</time>
      </trkpt>
      <trkpt lat="46.42811" lon="-0.18565">
        <ele>115.1</ele>
        <time>2020-05-30T20:25:01Z</time>
      </trkpt>
      <trkpt lat="46.42811" lon="-0.18565">
        <ele>115.1</ele>
        <time>2020-05-30T20:25:02Z</time>
      </trkpt>
      <trkpt lat="46.4281" lon="-0.18564">
        <ele>115.1</ele>
        <time>2020-05-30T20:25:03Z</time>
      </trkpt>
      <trkpt lat="46.4281" lon="-0.18565">
        <ele>115.1</ele>
        <time>2020-05-30T20:25:04Z</time>
      </trkpt>
      <trkpt lat="46.4281" lon="-0.18565">
        <ele>115.1</ele>
        <time>2020-05-30T20:25:05Z</time>
      </trkpt>
      <trkpt lat="46.4281" lon="-0.18566">
        <ele>115.1</ele>
        <time>2020-05-30T20:25:06Z</time>
      </trkpt>
      <trkpt lat="46.4281" lon="-0.18566">
        <ele>115.1</ele>
        <time>2020-05-30T20:25:07Z</time>
      </trkpt>
      <trkpt lat="46.4281" lon="-0.18566">
        <ele>115.1</ele>
        <time>2020-05-30T20:25:08Z</time>
      </trkpt>
      <trkpt lat="46.4281" lon="-0.18566">
        <ele>115.1</ele>
        <time>2020-05-30T20:25:09Z</time>
      </trkpt>
      <trkpt lat="46.4281" lon="-0.18567">
        <ele>115.1</ele>
        <time>2020-05-30T20:25:10Z</time>
      </trkpt>
      <trkpt lat="46.42811" lon="-0.18566">
        <ele>115.1</ele>
        <time>2020-05-30T20:25:11Z</time>
      </trkpt>
      <trkpt lat="46.42811" lon="-0.18566">
        <ele>115.1</ele>
        <time>2020-05-30T20:25:12Z</time>
      </trkpt>
      <trkpt lat="46.42811" lon="-0.18567">
        <ele>115.1</ele>
        <time>2020-05-30T20:25:13Z</time>
      </trkpt>
      <trkpt lat="46.42811" lon="-0.18568">
        <ele>115.1</ele>
        <time>2020-05-30T20:25:14Z</time>
      </trkpt>
      <trkpt lat="46.42811" lon="-0.18568">
        <ele>115.1</ele>
        <time>2020-05-30T20:25:15Z</time>
      </trkpt>
      <trkpt lat="46.42811" lon="-0.18568">
        <ele>115.1</ele>
        <time>2020-05-30T20:25:16Z</time>
      </trkpt>
      <trkpt lat="46.4281" lon="-0.18568">
        <ele>115.1</ele>
        <time>2020-05-30T20:25:17Z</time>
      </trkpt>
      <trkpt lat="46.4281" lon="-0.18568">
        <ele>115.1</ele>
        <time>2020-05-30T20:25:18Z</time>
      </trkpt>
      <trkpt lat="46.4281" lon="-0.18568">
        <ele>115.1</ele>
        <time>2020-05-30T20:25:19Z</time>
      </trkpt>
      <trkpt lat="46.4281" lon="-0.18568">
        <ele>115.1</ele>
        <time>2020-05-30T20:25:20Z</time>
      </trkpt>
      <trkpt lat="46.4281" lon="-0.18568">
        <ele>115.1</ele>
        <time>2020-05-30T20:25:21Z</time>
      </trkpt>
      <trkpt lat="46.4281" lon="-0.18568">
        <ele>115.1</ele>
        <time>2020-05-30T20:25:22Z</time>
      </trkpt>
      <trkpt lat="46.4281" lon="-0.18568">
        <ele>115.1</ele>
        <time>2020-05-30T20:25:23Z</time>
      </trkpt>
      <trkpt lat="46.4281" lon="-0.18568">
        <ele>115.1</ele>
        <time>2020-05-30T20:25:24Z</time>
      </trkpt>
      <trkpt lat="46.4281" lon="-0.18568">
        <ele>115.1</ele>
        <time>2020-05-30T20:25:25Z</time>
      </trkpt>
      <trkpt lat="46.4281" lon="-0.18568">
        <ele>115.1</ele>
        <time>2020-05-30T20:25:26Z</time>
      </trkpt>
      <trkpt lat="46.4281" lon="-0.18568">
        <ele>115.1</ele>
        <time>2020-05-30T20:25:27Z</time>
      </trkpt>
      <trkpt lat="46.4281" lon="-0.18568">
        <ele>115.1</ele>
        <time>2020-05-30T20:25:28Z</time>
      </trkpt>
      <trkpt lat="46.4281" lon="-0.18569">
        <ele>115.1</ele>
        <time>2020-05-30T20:25:29Z</time>
      </trkpt>
      <trkpt lat="46.4281" lon="-0.18569">
        <ele>115.1</ele>
        <time>2020-05-30T20:25:30Z</time>
      </trkpt>
      <trkpt lat="46.4281" lon="-0.18569">
        <ele>115.1</ele>
        <time>2020-05-30T20:25:31Z</time>
      </trkpt>
      <trkpt lat="46.4281" lon="-0.18569">
        <ele>115.1</ele>
        <time>2020-05-30T20:25:32Z</time>
      </trkpt>
      <trkpt lat="46.4281" lon="-0.18569">
        <ele>115.1</ele>
        <time>2020-05-30T20:25:33Z</time>
      </trkpt>
      <trkpt lat="46.4281" lon="-0.18569">
        <ele>115.1</ele>
        <time>2020-05-30T20:25:34Z</time>
      </trkpt>
      <trkpt lat="46.4281" lon="-0.18569">
        <ele>115.1</ele>
        <time>2020-05-30T20:25:35Z</time>
      </trkpt>
      <trkpt lat="46.4281" lon="-0.18569">
        <ele>115.1</ele>
        <time>2020-05-30T20:25:36Z</time>
      </trkpt>
      <trkpt lat="46.4281" lon="-0.18569">
        <ele>115.1</ele>
        <time>2020-05-30T20:25:37Z</time>
      </trkpt>
      <trkpt lat="46.4281" lon="-0.18569">
        <ele>115.1</ele>
        <time>2020-05-30T20:25:38Z</time>
      </trkpt>
      <trkpt lat="46.4281" lon="-0.18569">
        <ele>115.1</ele>
        <time>2020-05-30T20:25:39Z</time>
      </trkpt>
      <trkpt lat="46.4281" lon="-0.18569">
        <ele>115.1</ele>
        <time>2020-05-30T20:25:40Z</time>
      </trkpt>
      <trkpt lat="46.4281" lon="-0.18569">
        <ele>115.1</ele>
        <time>2020-05-30T20:25:41Z</time>
      </trkpt>
      <trkpt lat="46.4281" lon="-0.18569">
        <ele>115.1</ele>
        <time>2020-05-30T20:25:42Z</time>
      </trkpt>
      <trkpt lat="46.4281" lon="-0.18569">
        <ele>115.1</ele>
        <time>2020-05-30T20:25:43Z</time>
      </trkpt>
      <trkpt lat="46.4281" lon="-0.18569">
        <ele>115.1</ele>
        <time>2020-05-30T20:25:44Z</time>
      </trkpt>
      <trkpt lat="46.4281" lon="-0.18569">
        <ele>115.1</ele>
        <time>2020-05-30T20:25:45Z</time>
      </trkpt>
      <trkpt lat="46.4281" lon="-0.18569">
        <ele>115.1</ele>
        <time>2020-05-30T20:25:46Z</time>
      </trkpt>
      <trkpt lat="46.4281" lon="-0.18569">
        <ele>115.1</ele>
        <time>2020-05-30T20:25:47Z</time>
      </trkpt>
      <trkpt lat="46.4281" lon="-0.18569">
        <ele>115.1</ele>
        <time>2020-05-30T20:25:48Z</time>
      </trkpt>
      <trkpt lat="46.4281" lon="-0.18569">
        <ele>115.1</ele>
        <time>2020-05-30T20:25:49Z</time>
      </trkpt>
      <trkpt lat="46.4281" lon="-0.18569">
        <ele>115.1</ele>
        <time>2020-05-30T20:25:50Z</time>
      </trkpt>
      <trkpt lat="46.4281" lon="-0.18569">
        <ele>115.1</ele>
        <time>2020-05-30T20:25:51Z</time>
      </trkpt>
      <trkpt lat="46.4281" lon="-0.18569">
        <ele>115.1</ele>
        <time>2020-05-30T20:25:52Z</time>
      </trkpt>
      <trkpt lat="46.4281" lon="-0.18569">
        <ele>115.1</ele>
        <time>2020-05-30T20:25:53Z</time>
      </trkpt>
      <trkpt lat="46.4281" lon="-0.18569">
        <ele>115.1</ele>
        <time>2020-05-30T20:25:54Z</time>
      </trkpt>
      <trkpt lat="46.4281" lon="-0.18569">
        <ele>115.1</ele>
        <time>2020-05-30T20:25:55Z</time>
      </trkpt>
      <trkpt lat="46.42811" lon="-0.18569">
        <ele>115.1</ele>
        <time>2020-05-30T20:25:56Z</time>
      </trkpt>
      <trkpt lat="46.42812" lon="-0.18569">
        <ele>115.1</ele>
        <time>2020-05-30T20:25:57Z</time>
      </trkpt>
      <trkpt lat="46.42812" lon="-0.18569">
        <ele>115.1</ele>
        <time>2020-05-30T20:25:58Z</time>
      </trkpt>
      <trkpt lat="46.42812" lon="-0.18569">
        <ele>115.1</ele>
        <time>2020-05-30T20:25:59Z</time>
      </trkpt>
      <trkpt lat="46.42812" lon="-0.1857">
        <ele>115.1</ele>
        <time>2020-05-30T20:26:00Z</time>
      </trkpt>
      <trkpt lat="46.42812" lon="-0.1857">
        <ele>115.1</ele>
        <time>2020-05-30T20:26:01Z</time>
      </trkpt>
      <trkpt lat="46.42812" lon="-0.1857">
        <ele>115.1</ele>
        <time>2020-05-30T20:26:02Z</time>
      </trkpt>
      <trkpt lat="46.42812" lon="-0.1857">
        <ele>115.1</ele>
        <time>2020-05-30T20:26:03Z</time>
      </trkpt>
      <trkpt lat="46.42812" lon="-0.1857">
        <ele>115.1</ele>
        <time>2020-05-30T20:26:04Z</time>
      </trkpt>
      <trkpt lat="46.42812" lon="-0.1857">
        <ele>115.1</ele>
        <time>2020-05-30T20:26:05Z</time>
      </trkpt>
      <trkpt lat="46.42812" lon="-0.1857">
        <ele>115.1</ele>
        <time>2020-05-30T20:26:06Z</time>
      </trkpt>
      <trkpt lat="46.42812" lon="-0.1857">
        <ele>115.1</ele>
        <time>2020-05-30T20:26:07Z</time>
      </trkpt>
      <trkpt lat="46.42812" lon="-0.1857">
        <ele>115.1</ele>
        <time>2020-05-30T20:26:08Z</time>
      </trkpt>
      <trkpt lat="46.42812" lon="-0.1857">
        <ele>115.1</ele>
        <time>2020-05-30T20:26:09Z</time>
      </trkpt>
      <trkpt lat="46.42812" lon="-0.1857">
        <ele>115.1</ele>
        <time>2020-05-30T20:26:10Z</time>
      </trkpt>
      <trkpt lat="46.42812" lon="-0.1857">
        <ele>115.1</ele>
        <time>2020-05-30T20:26:11Z</time>
      </trkpt>
      <trkpt lat="46.42812" lon="-0.18571">
        <ele>115.1</ele>
        <time>2020-05-30T20:26:12Z</time>
      </trkpt>
      <trkpt lat="46.42812" lon="-0.18571">
        <ele>115.1</ele>
        <time>2020-05-30T20:26:13Z</time>
      </trkpt>
      <trkpt lat="46.42812" lon="-0.18571">
        <ele>115.1</ele>
        <time>2020-05-30T20:26:14Z</time>
      </trkpt>
      <trkpt lat="46.42812" lon="-0.18572">
        <ele>115.1</ele>
        <time>2020-05-30T20:26:15Z</time>
      </trkpt>
      <trkpt lat="46.42812" lon="-0.18572">
        <ele>115.1</ele>
        <time>2020-05-30T20:26:16Z</time>
      </trkpt>
      <trkpt lat="46.42812" lon="-0.18572">
        <ele>115.1</ele>
        <time>2020-05-30T20:26:17Z</time>
      </trkpt>
      <trkpt lat="46.42812" lon="-0.18572">
        <ele>115.1</ele>
        <time>2020-05-30T20:26:18Z</time>
      </trkpt>
      <trkpt lat="46.42812" lon="-0.18572">
        <ele>115.1</ele>
        <time>2020-05-30T20:26:19Z</time>
      </trkpt>
      <trkpt lat="46.42812" lon="-0.18572">
        <ele>115.1</ele>
        <time>2020-05-30T20:26:20Z</time>
      </trkpt>
      <trkpt lat="46.42811" lon="-0.18572">
        <ele>115.1</ele>
        <time>2020-05-30T20:26:21Z</time>
      </trkpt>
      <trkpt lat="46.42811" lon="-0.18572">
        <ele>115.2</ele>
        <time>2020-05-30T20:26:22Z</time>
      </trkpt>
      <trkpt lat="46.42811" lon="-0.18572">
        <ele>115.2</ele>
        <time>2020-05-30T20:26:23Z</time>
      </trkpt>
      <trkpt lat="46.42811" lon="-0.18571">
        <ele>115.2</ele>
        <time>2020-05-30T20:26:24Z</time>
      </trkpt>
      <trkpt lat="46.42811" lon="-0.18571">
        <ele>115.2</ele>
        <time>2020-05-30T20:26:25Z</time>
      </trkpt>
      <trkpt lat="46.42811" lon="-0.18572">
        <ele>115.2</ele>
        <time>2020-05-30T20:26:26Z</time>
      </trkpt>
      <trkpt lat="46.42811" lon="-0.18572">
        <ele>115.2</ele>
        <time>2020-05-30T20:26:27Z</time>
      </trkpt>
      <trkpt lat="46.42811" lon="-0.18572">
        <ele>115.2</ele>
        <time>2020-05-30T20:26:28Z</time>
      </trkpt>
      <trkpt lat="46.42811" lon="-0.18572">
        <ele>115.2</ele>
        <time>2020-05-30T20:26:29Z</time>
      </trkpt>
      <trkpt lat="46.42812" lon="-0.18572">
        <ele>115.2</ele>
        <time>2020-05-30T20:26:30Z</time>
      </trkpt>
      <trkpt lat="46.42812" lon="-0.18572">
        <ele>115.2</ele>
        <time>2020-05-30T20:26:31Z</time>
      </trkpt>
      <trkpt lat="46.42812" lon="-0.18572">
        <ele>115.2</ele>
        <time>2020-05-30T20:26:32Z</time>
      </trkpt>
      <trkpt lat="46.42812" lon="-0.18572">
        <ele>115.2</ele>
        <time>2020-05-30T20:26:33Z</time>
      </trkpt>
      <trkpt lat="46.42812" lon="-0.18572">
        <ele>115.2</ele>
        <time>2020-05-30T20:26:34Z</time>
      </trkpt>
      <trkpt lat="46.42812" lon="-0.18572">
        <ele>115.2</ele>
        <time>2020-05-30T20:26:35Z</time>
      </trkpt>
      <trkpt lat="46.42812" lon="-0.18572">
        <ele>115.2</ele>
        <time>2020-05-30T20:26:36Z</time>
      </trkpt>
      <trkpt lat="46.42811" lon="-0.18572">
        <ele>115.2</ele>
        <time>2020-05-30T20:26:37Z</time>
      </trkpt>
      <trkpt lat="46.42811" lon="-0.18572">
        <ele>115.2</ele>
        <time>2020-05-30T20:26:38Z</time>
      </trkpt>
      <trkpt lat="46.42812" lon="-0.18572">
        <ele>115.2</ele>
        <time>2020-05-30T20:26:39Z</time>
      </trkpt>
      <trkpt lat="46.42812" lon="-0.18572">
        <ele>115.2</ele>
        <time>2020-05-30T20:26:40Z</time>
      </trkpt>
      <trkpt lat="46.42812" lon="-0.18572">
        <ele>115.2</ele>
        <time>2020-05-30T20:26:41Z</time>
      </trkpt>
      <trkpt lat="46.42812" lon="-0.18572">
        <ele>115.2</ele>
        <time>2020-05-30T20:26:42Z</time>
      </trkpt>
      <trkpt lat="46.42812" lon="-0.18571">
        <ele>115.2</ele>
        <time>2020-05-30T20:26:43Z</time>
      </trkpt>
      <trkpt lat="46.42813" lon="-0.18571">
        <ele>115.2</ele>
        <time>2020-05-30T20:26:44Z</time>
      </trkpt>
      <trkpt lat="46.42813" lon="-0.18571">
        <ele>115.2</ele>
        <time>2020-05-30T20:26:45Z</time>
      </trkpt>
      <trkpt lat="46.42813" lon="-0.18571">
        <ele>115.2</ele>
        <time>2020-05-30T20:26:46Z</time>
      </trkpt>
      <trkpt lat="46.42813" lon="-0.18571">
        <ele>115.2</ele>
        <time>2020-05-30T20:26:47Z</time>
      </trkpt>
      <trkpt lat="46.42813" lon="-0.18571">
        <ele>115.2</ele>
        <time>2020-05-30T20:26:48Z</time>
      </trkpt>
      <trkpt lat="46.42813" lon="-0.18571">
        <ele>115.2</ele>
        <time>2020-05-30T20:26:49Z</time>
      </trkpt>
      <trkpt lat="46.42813" lon="-0.18571">
        <ele>115.2</ele>
        <time>2020-05-30T20:26:50Z</time>
      </trkpt>
      <trkpt lat="46.42813" lon="-0.18571">
        <ele>115.2</ele>
        <time>2020-05-30T20:26:51Z</time>
      </trkpt>
      <trkpt lat="46.42813" lon="-0.18571">
        <ele>115.2</ele>
        <time>2020-05-30T20:26:52Z</time>
      </trkpt>
      <trkpt lat="46.42813" lon="-0.18571">
        <ele>115.2</ele>
        <time>2020-05-30T20:26:53Z</time>
      </trkpt>
      <trkpt lat="46.42813" lon="-0.18572">
        <ele>115.2</ele>
        <time>2020-05-30T20:26:54Z</time>
      </trkpt>
      <trkpt lat="46.42814" lon="-0.18572">
        <ele>115.2</ele>
        <time>2020-05-30T20:26:55Z</time>
      </trkpt>
      <trkpt lat="46.42814" lon="-0.18572">
        <ele>115.2</ele>
        <time>2020-05-30T20:26:56Z</time>
      </trkpt>
      <trkpt lat="46.42814" lon="-0.18572">
        <ele>115.2</ele>
        <time>2020-05-30T20:26:57Z</time>
      </trkpt>
      <trkpt lat="46.42814" lon="-0.18572">
        <ele>115.2</ele>
        <time>2020-05-30T20:26:58Z</time>
      </trkpt>
      <trkpt lat="46.42814" lon="-0.18571">
        <ele>115.2</ele>
        <time>2020-05-30T20:26:59Z</time>
      </trkpt>
      <trkpt lat="46.42814" lon="-0.1857">
        <ele>115.2</ele>
        <time>2020-05-30T20:27:00Z</time>
      </trkpt>
      <trkpt lat="46.42814" lon="-0.18569">
        <ele>115.2</ele>
        <time>2020-05-30T20:27:01Z</time>
      </trkpt>
      <trkpt lat="46.42814" lon="-0.18569">
        <ele>115.2</ele>
        <time>2020-05-30T20:27:02Z</time>
      </trkpt>
      <trkpt lat="46.42814" lon="-0.18569">
        <ele>115.2</ele>
        <time>2020-05-30T20:27:03Z</time>
      </trkpt>
      <trkpt lat="46.42814" lon="-0.18569">
        <ele>115.2</ele>
        <time>2020-05-30T20:27:04Z</time>
      </trkpt>
      <trkpt lat="46.42814" lon="-0.18569">
        <ele>115.2</ele>
        <time>2020-05-30T20:27:05Z</time>
      </trkpt>
      <trkpt lat="46.42814" lon="-0.18569">
        <ele>115.2</ele>
        <time>2020-05-30T20:27:06Z</time>
      </trkpt>
      <trkpt lat="46.42815" lon="-0.18569">
        <ele>115.2</ele>
        <time>2020-05-30T20:27:07Z</time>
      </trkpt>
      <trkpt lat="46.42815" lon="-0.18569">
        <ele>115.2</ele>
        <time>2020-05-30T20:27:08Z</time>
      </trkpt>
      <trkpt lat="46.42815" lon="-0.18569">
        <ele>115.2</ele>
        <time>2020-05-30T20:27:09Z</time>
      </trkpt>
      <trkpt lat="46.42815" lon="-0.18569">
        <ele>115.2</ele>
        <time>2020-05-30T20:27:10Z</time>
      </trkpt>
      <trkpt lat="46.42815" lon="-0.18569">
        <ele>115.2</ele>
        <time>2020-05-30T20:27:11Z</time>
      </trkpt>
      <trkpt lat="46.42815" lon="-0.18569">
        <ele>115.2</ele>
        <time>2020-05-30T20:27:12Z</time>
      </trkpt>
      <trkpt lat="46.42814" lon="-0.18569">
        <ele>115.2</ele>
        <time>2020-05-30T20:27:13Z</time>
      </trkpt>
      <trkpt lat="46.42814" lon="-0.18569">
        <ele>115.2</ele>
        <time>2020-05-30T20:27:14Z</time>
      </trkpt>
      <trkpt lat="46.42814" lon="-0.18569">
        <ele>115.2</ele>
        <time>2020-05-30T20:27:15Z</time>
      </trkpt>
      <trkpt lat="46.42814" lon="-0.18569">
        <ele>115.2</ele>
        <time>2020-05-30T20:27:16Z</time>
      </trkpt>
      <trkpt lat="46.42815" lon="-0.18569">
        <ele>115.2</ele>
        <time>2020-05-30T20:27:17Z</time>
      </trkpt>
      <trkpt lat="46.42815" lon="-0.18569">
        <ele>115.2</ele>
        <time>2020-05-30T20:27:18Z</time>
      </trkpt>
      <trkpt lat="46.42816" lon="-0.18568">
        <ele>115.2</ele>
        <time>2020-05-30T20:27:19Z</time>
      </trkpt>
      <trkpt lat="46.42816" lon="-0.18568">
        <ele>115.2</ele>
        <time>2020-05-30T20:27:20Z</time>
      </trkpt>
      <trkpt lat="46.42815" lon="-0.18568">
        <ele>115.2</ele>
        <time>2020-05-30T20:27:21Z</time>
      </trkpt>
      <trkpt lat="46.42815" lon="-0.18569">
        <ele>115.2</ele>
        <time>2020-05-30T20:27:22Z</time>
      </trkpt>
      <trkpt lat="46.42815" lon="-0.18569">
        <ele>115.2</ele>
        <time>2020-05-30T20:27:23Z</time>
      </trkpt>
      <trkpt lat="46.42814" lon="-0.18569">
        <ele>115.2</ele>
        <time>2020-05-30T20:27:24Z</time>
      </trkpt>
      <trkpt lat="46.42814" lon="-0.18569">
        <ele>115.2</ele>
        <time>2020-05-30T20:27:25Z</time>
      </trkpt>
      <trkpt lat="46.42814" lon="-0.18569">
        <ele>115.2</ele>
        <time>2020-05-30T20:27:26Z</time>
      </trkpt>
      <trkpt lat="46.42814" lon="-0.18568">
        <ele>115.2</ele>
        <time>2020-05-30T20:27:27Z</time>
      </trkpt>
      <trkpt lat="46.42814" lon="-0.18568">
        <ele>115.2</ele>
        <time>2020-05-30T20:27:28Z</time>
      </trkpt>
      <trkpt lat="46.42814" lon="-0.18568">
        <ele>115.2</ele>
        <time>2020-05-30T20:27:29Z</time>
      </trkpt>
      <trkpt lat="46.42815" lon="-0.18568">
        <ele>115.2</ele>
        <time>2020-05-30T20:27:30Z</time>
      </trkpt>
      <trkpt lat="46.42815" lon="-0.18567">
        <ele>115.2</ele>
        <time>2020-05-30T20:27:31Z</time>
      </trkpt>
      <trkpt lat="46.42815" lon="-0.18567">
        <ele>115.2</ele>
        <time>2020-05-30T20:27:32Z</time>
      </trkpt>
      <trkpt lat="46.42814" lon="-0.18566">
        <ele>115.2</ele>
        <time>2020-05-30T20:27:33Z</time>
      </trkpt>
      <trkpt lat="46.42814" lon="-0.18566">
        <ele>115.2</ele>
        <time>2020-05-30T20:27:34Z</time>
      </trkpt>
      <trkpt lat="46.42814" lon="-0.18567">
        <ele>115.2</ele>
        <time>2020-05-30T20:27:35Z</time>
      </trkpt>
      <trkpt lat="46.42813" lon="-0.18567">
        <ele>115.2</ele>
        <time>2020-05-30T20:27:36Z</time>
      </trkpt>
      <trkpt lat="46.42813" lon="-0.18567">
        <ele>115.2</ele>
        <time>2020-05-30T20:27:37Z</time>
      </trkpt>
      <trkpt lat="46.42813" lon="-0.18566">
        <ele>115.2</ele>
        <time>2020-05-30T20:27:38Z</time>
      </trkpt>
      <trkpt lat="46.42813" lon="-0.18566">
        <ele>115.2</ele>
        <time>2020-05-30T20:27:39Z</time>
      </trkpt>
      <trkpt lat="46.42814" lon="-0.18566">
        <ele>115.2</ele>
        <time>2020-05-30T20:27:40Z</time>
      </trkpt>
      <trkpt lat="46.42814" lon="-0.18566">
        <ele>115.2</ele>
        <time>2020-05-30T20:27:41Z</time>
      </trkpt>
      <trkpt lat="46.42814" lon="-0.18565">
        <ele>115.2</ele>
        <time>2020-05-30T20:27:42Z</time>
      </trkpt>
      <trkpt lat="46.42814" lon="-0.18565">
        <ele>115.2</ele>
        <time>2020-05-30T20:27:43Z</time>
      </trkpt>
      <trkpt lat="46.42814" lon="-0.18565">
        <ele>115.2</ele>
        <time>2020-05-30T20:27:44Z</time>
      </trkpt>
      <trkpt lat="46.42814" lon="-0.18565">
        <ele>115.2</ele>
        <time>2020-05-30T20:27:45Z</time>
      </trkpt>
      <trkpt lat="46.42814" lon="-0.18566">
        <ele>115.2</ele>
        <time>2020-05-30T20:27:46Z</time>
      </trkpt>
      <trkpt lat="46.42814" lon="-0.18565">
        <ele>115.2</ele>
        <time>2020-05-30T20:27:47Z</time>
      </trkpt>
      <trkpt lat="46.42814" lon="-0.18565">
        <ele>115.2</ele>
        <time>2020-05-30T20:27:48Z</time>
      </trkpt>
      <trkpt lat="46.42814" lon="-0.18565">
        <ele>115.2</ele>
        <time>2020-05-30T20:27:49Z</time>
      </trkpt>
      <trkpt lat="46.42814" lon="-0.18565">
        <ele>115.2</ele>
        <time>2020-05-30T20:27:50Z</time>
      </trkpt>
      <trkpt lat="46.42814" lon="-0.18565">
        <ele>115.2</ele>
        <time>2020-05-30T20:27:51Z</time>
      </trkpt>
      <trkpt lat="46.42814" lon="-0.18565">
        <ele>115.2</ele>
        <time>2020-05-30T20:27:52Z</time>
      </trkpt>
      <trkpt lat="46.42814" lon="-0.18565">
        <ele>115.2</ele>
        <time>2020-05-30T20:27:53Z</time>
      </trkpt>
      <trkpt lat="46.42814" lon="-0.18564">
        <ele>115.2</ele>
        <time>2020-05-30T20:27:54Z</time>
      </trkpt>
      <trkpt lat="46.42814" lon="-0.18563">
        <ele>115.2</ele>
        <time>2020-05-30T20:27:55Z</time>
      </trkpt>
      <trkpt lat="46.42814" lon="-0.18563">
        <ele>115.2</ele>
        <time>2020-05-30T20:27:56Z</time>
      </trkpt>
      <trkpt lat="46.42814" lon="-0.18562">
        <ele>115.2</ele>
        <time>2020-05-30T20:27:57Z</time>
      </trkpt>
      <trkpt lat="46.42813" lon="-0.18563">
        <ele>115.2</ele>
        <time>2020-05-30T20:27:58Z</time>
      </trkpt>
      <trkpt lat="46.42813" lon="-0.18563">
        <ele>115.2</ele>
        <time>2020-05-30T20:27:59Z</time>
      </trkpt>
      <trkpt lat="46.42813" lon="-0.18563">
        <ele>115.2</ele>
        <time>2020-05-30T20:28:00Z</time>
      </trkpt>
      <trkpt lat="46.42813" lon="-0.18564">
        <ele>115.2</ele>
        <time>2020-05-30T20:28:01Z</time>
      </trkpt>
      <trkpt lat="46.42814" lon="-0.18564">
        <ele>115.2</ele>
        <time>2020-05-30T20:28:02Z</time>
      </trkpt>
      <trkpt lat="46.42814" lon="-0.18564">
        <ele>115.2</ele>
        <time>2020-05-30T20:28:03Z</time>
      </trkpt>
      <trkpt lat="46.42815" lon="-0.18565">
        <ele>115.2</ele>
        <time>2020-05-30T20:28:04Z</time>
      </trkpt>
      <trkpt lat="46.42815" lon="-0.18565">
        <ele>115.2</ele>
        <time>2020-05-30T20:28:05Z</time>
      </trkpt>
      <trkpt lat="46.42815" lon="-0.18566">
        <ele>115.2</ele>
        <time>2020-05-30T20:28:06Z</time>
      </trkpt>
      <trkpt lat="46.42816" lon="-0.18566">
        <ele>115.2</ele>
        <time>2020-05-30T20:28:07Z</time>
      </trkpt>
      <trkpt lat="46.42816" lon="-0.18566">
        <ele>115.2</ele>
        <time>2020-05-30T20:28:08Z</time>
      </trkpt>
      <trkpt lat="46.42816" lon="-0.18566">
        <ele>115.2</ele>
        <time>2020-05-30T20:28:09Z</time>
      </trkpt>
      <trkpt lat="46.42816" lon="-0.18566">
        <ele>115.2</ele>
        <time>2020-05-30T20:28:10Z</time>
      </trkpt>
      <trkpt lat="46.42816" lon="-0.18566">
        <ele>115.2</ele>
        <time>2020-05-30T20:28:11Z</time>
      </trkpt>
      <trkpt lat="46.42816" lon="-0.18566">
        <ele>115.2</ele>
        <time>2020-05-30T20:28:12Z</time>
      </trkpt>
      <trkpt lat="46.42817" lon="-0.18567">
        <ele>115.2</ele>
        <time>2020-05-30T20:28:13Z</time>
      </trkpt>
      <trkpt lat="46.42817" lon="-0.18567">
        <ele>115.2</ele>
        <time>2020-05-30T20:28:14Z</time>
      </trkpt>
      <trkpt lat="46.42817" lon="-0.18567">
        <ele>115.2</ele>
        <time>2020-05-30T20:28:15Z</time>
      </trkpt>
      <trkpt lat="46.42816" lon="-0.18567">
        <ele>115.2</ele>
        <time>2020-05-30T20:28:16Z</time>
      </trkpt>
      <trkpt lat="46.42816" lon="-0.18567">
        <ele>115.2</ele>
        <time>2020-05-30T20:28:17Z</time>
      </trkpt>
      <trkpt lat="46.42817" lon="-0.18567">
        <ele>115.2</ele>
        <time>2020-05-30T20:28:18Z</time>
      </trkpt>
      <trkpt lat="46.42817" lon="-0.18567">
        <ele>115.2</ele>
        <time>2020-05-30T20:28:19Z</time>
      </trkpt>
      <trkpt lat="46.42817" lon="-0.18566">
        <ele>115.2</ele>
        <time>2020-05-30T20:28:20Z</time>
      </trkpt>
      <trkpt lat="46.42817" lon="-0.18567">
        <ele>115.2</ele>
        <time>2020-05-30T20:28:21Z</time>
      </trkpt>
      <trkpt lat="46.42817" lon="-0.18567">
        <ele>115.2</ele>
        <time>2020-05-30T20:28:22Z</time>
      </trkpt>
      <trkpt lat="46.42817" lon="-0.18568">
        <ele>115.2</ele>
        <time>2020-05-30T20:28:23Z</time>
      </trkpt>
      <trkpt lat="46.42817" lon="-0.18568">
        <ele>115.2</ele>
        <time>2020-05-30T20:28:24Z</time>
      </trkpt>
      <trkpt lat="46.42817" lon="-0.18568">
        <ele>115.2</ele>
        <time>2020-05-30T20:28:25Z</time>
      </trkpt>
      <trkpt lat="46.42817" lon="-0.18568">
        <ele>115.2</ele>
        <time>2020-05-30T20:28:26Z</time>
      </trkpt>
      <trkpt lat="46.42817" lon="-0.18567">
        <ele>115.2</ele>
        <time>2020-05-30T20:28:27Z</time>
      </trkpt>
      <trkpt lat="46.42817" lon="-0.18567">
        <ele>115.2</ele>
        <time>2020-05-30T20:28:28Z</time>
      </trkpt>
      <trkpt lat="46.42817" lon="-0.18567">
        <ele>115.2</ele>
        <time>2020-05-30T20:28:29Z</time>
      </trkpt>
      <trkpt lat="46.42817" lon="-0.18567">
        <ele>115.2</ele>
        <time>2020-05-30T20:28:30Z</time>
      </trkpt>
      <trkpt lat="46.42817" lon="-0.18567">
        <ele>115.2</ele>
        <time>2020-05-30T20:28:31Z</time>
      </trkpt>
      <trkpt lat="46.42816" lon="-0.18568">
        <ele>115.2</ele>
        <time>2020-05-30T20:28:32Z</time>
      </trkpt>
      <trkpt lat="46.42816" lon="-0.18569">
        <ele>115.2</ele>
        <time>2020-05-30T20:28:33Z</time>
      </trkpt>
      <trkpt lat="46.42816" lon="-0.1857">
        <ele>115.2</ele>
        <time>2020-05-30T20:28:34Z</time>
      </trkpt>
      <trkpt lat="46.42816" lon="-0.1857">
        <ele>115.2</ele>
        <time>2020-05-30T20:28:35Z</time>
      </trkpt>
      <trkpt lat="46.42816" lon="-0.18571">
        <ele>115.3</ele>
        <time>2020-05-30T20:28:36Z</time>
      </trkpt>
      <trkpt lat="46.42816" lon="-0.18571">
        <ele>115.3</ele>
        <time>2020-05-30T20:28:37Z</time>
      </trkpt>
      <trkpt lat="46.42816" lon="-0.18571">
        <ele>115.3</ele>
        <time>2020-05-30T20:28:38Z</time>
      </trkpt>
      <trkpt lat="46.42817" lon="-0.18572">
        <ele>115.3</ele>
        <time>2020-05-30T20:28:39Z</time>
      </trkpt>
      <trkpt lat="46.42817" lon="-0.18572">
        <ele>115.3</ele>
        <time>2020-05-30T20:28:40Z</time>
      </trkpt>
      <trkpt lat="46.42817" lon="-0.18572">
        <ele>115.3</ele>
        <time>2020-05-30T20:28:41Z</time>
      </trkpt>
      <trkpt lat="46.42817" lon="-0.18572">
        <ele>115.3</ele>
        <time>2020-05-30T20:28:42Z</time>
      </trkpt>
      <trkpt lat="46.42817" lon="-0.18572">
        <ele>115.3</ele>
        <time>2020-05-30T20:28:43Z</time>
      </trkpt>
      <trkpt lat="46.42817" lon="-0.18572">
        <ele>115.3</ele>
        <time>2020-05-30T20:28:44Z</time>
      </trkpt>
      <trkpt lat="46.42818" lon="-0.18572">
        <ele>115.3</ele>
        <time>2020-05-30T20:28:45Z</time>
      </trkpt>
      <trkpt lat="46.42818" lon="-0.18572">
        <ele>115.3</ele>
        <time>2020-05-30T20:28:46Z</time>
      </trkpt>
      <trkpt lat="46.42818" lon="-0.18573">
        <ele>115.3</ele>
        <time>2020-05-30T20:28:47Z</time>
      </trkpt>
      <trkpt lat="46.42818" lon="-0.18573">
        <ele>115.3</ele>
        <time>2020-05-30T20:28:48Z</time>
      </trkpt>
      <trkpt lat="46.42818" lon="-0.18572">
        <ele>115.3</ele>
        <time>2020-05-30T20:28:49Z</time>
      </trkpt>
      <trkpt lat="46.42818" lon="-0.18572">
        <ele>115.3</ele>
        <time>2020-05-30T20:28:50Z</time>
      </trkpt>
      <trkpt lat="46.42818" lon="-0.18572">
        <ele>115.3</ele>
        <time>2020-05-30T20:28:51Z</time>
      </trkpt>
      <trkpt lat="46.42818" lon="-0.18572">
        <ele>115.3</ele>
        <time>2020-05-30T20:28:52Z</time>
      </trkpt>
      <trkpt lat="46.42818" lon="-0.18572">
        <ele>115.3</ele>
        <time>2020-05-30T20:28:53Z</time>
      </trkpt>
      <trkpt lat="46.42818" lon="-0.18572">
        <ele>115.3</ele>
        <time>2020-05-30T20:28:54Z</time>
      </trkpt>
      <trkpt lat="46.42818" lon="-0.18572">
        <ele>115.3</ele>
        <time>2020-05-30T20:28:55Z</time>
      </trkpt>
      <trkpt lat="46.42817" lon="-0.18571">
        <ele>115.3</ele>
        <time>2020-05-30T20:28:56Z</time>
      </trkpt>
      <trkpt lat="46.42817" lon="-0.18571">
        <ele>115.3</ele>
        <time>2020-05-30T20:28:57Z</time>
      </trkpt>
      <trkpt lat="46.42817" lon="-0.18571">
        <ele>115.3</ele>
        <time>2020-05-30T20:28:58Z</time>
      </trkpt>
      <trkpt lat="46.42817" lon="-0.18571">
        <ele>115.3</ele>
        <time>2020-05-30T20:28:59Z</time>
      </trkpt>
      <trkpt lat="46.42817" lon="-0.18571">
        <ele>115.3</ele>
        <time>2020-05-30T20:29:00Z</time>
      </trkpt>
      <trkpt lat="46.42817" lon="-0.18571">
        <ele>115.3</ele>
        <time>2020-05-30T20:29:01Z</time>
      </trkpt>
      <trkpt lat="46.42817" lon="-0.18571">
        <ele>115.3</ele>
        <time>2020-05-30T20:29:02Z</time>
      </trkpt>
      <trkpt lat="46.42817" lon="-0.18571">
        <ele>115.3</ele>
        <time>2020-05-30T20:29:03Z</time>
      </trkpt>
      <trkpt lat="46.42817" lon="-0.18571">
        <ele>115.3</ele>
        <time>2020-05-30T20:29:04Z</time>
      </trkpt>
      <trkpt lat="46.42817" lon="-0.1857">
        <ele>115.3</ele>
        <time>2020-05-30T20:29:05Z</time>
      </trkpt>
      <trkpt lat="46.42816" lon="-0.1857">
        <ele>115.3</ele>
        <time>2020-05-30T20:29:06Z</time>
      </trkpt>
      <trkpt lat="46.42816" lon="-0.1857">
        <ele>115.3</ele>
        <time>2020-05-30T20:29:07Z</time>
      </trkpt>
      <trkpt lat="46.42816" lon="-0.1857">
        <ele>115.3</ele>
        <time>2020-05-30T20:29:08Z</time>
      </trkpt>
      <trkpt lat="46.42816" lon="-0.18571">
        <ele>115.3</ele>
        <time>2020-05-30T20:29:09Z</time>
      </trkpt>
      <trkpt lat="46.42815" lon="-0.1857">
        <ele>115.3</ele>
        <time>2020-05-30T20:29:10Z</time>
      </trkpt>
      <trkpt lat="46.42816" lon="-0.18571">
        <ele>115.3</ele>
        <time>2020-05-30T20:29:11Z</time>
      </trkpt>
      <trkpt lat="46.42816" lon="-0.18571">
        <ele>115.3</ele>
        <time>2020-05-30T20:29:12Z</time>
      </trkpt>
      <trkpt lat="46.42816" lon="-0.18571">
        <ele>115.3</ele>
        <time>2020-05-30T20:29:13Z</time>
      </trkpt>
      <trkpt lat="46.42816" lon="-0.18571">
        <ele>115.3</ele>
        <time>2020-05-30T20:29:14Z</time>
      </trkpt>
      <trkpt lat="46.42816" lon="-0.1857">
        <ele>115.3</ele>
        <time>2020-05-30T20:29:15Z</time>
      </trkpt>
      <trkpt lat="46.42816" lon="-0.1857">
        <ele>115.3</ele>
        <time>2020-05-30T20:29:16Z</time>
      </trkpt>
      <trkpt lat="46.42816" lon="-0.1857">
        <ele>115.3</ele>
        <time>2020-05-30T20:29:17Z</time>
      </trkpt>
      <trkpt lat="46.42816" lon="-0.1857">
        <ele>115.3</ele>
        <time>2020-05-30T20:29:18Z</time>
      </trkpt>
      <trkpt lat="46.42816" lon="-0.1857">
        <ele>115.3</ele>
        <time>2020-05-30T20:29:19Z</time>
      </trkpt>
      <trkpt lat="46.42816" lon="-0.1857">
        <ele>115.3</ele>
        <time>2020-05-30T20:29:20Z</time>
      </trkpt>
      <trkpt lat="46.42816" lon="-0.1857">
        <ele>115.3</ele>
        <time>2020-05-30T20:29:21Z</time>
      </trkpt>
      <trkpt lat="46.42816" lon="-0.1857">
        <ele>115.3</ele>
        <time>2020-05-30T20:29:22Z</time>
      </trkpt>
      <trkpt lat="46.42816" lon="-0.1857">
        <ele>115.3</ele>
        <time>2020-05-30T20:29:23Z</time>
      </trkpt>
      <trkpt lat="46.42816" lon="-0.1857">
        <ele>115.3</ele>
        <time>2020-05-30T20:29:24Z</time>
      </trkpt>
      <trkpt lat="46.42816" lon="-0.1857">
        <ele>115.3</ele>
        <time>2020-05-30T20:29:25Z</time>
      </trkpt>
      <trkpt lat="46.42816" lon="-0.1857">
        <ele>115.3</ele>
        <time>2020-05-30T20:29:26Z</time>
      </trkpt>
      <trkpt lat="46.42816" lon="-0.1857">
        <ele>115.3</ele>
        <time>2020-05-30T20:29:27Z</time>
      </trkpt>
      <trkpt lat="46.42816" lon="-0.1857">
        <ele>115.3</ele>
        <time>2020-05-30T20:29:28Z</time>
      </trkpt>
      <trkpt lat="46.42816" lon="-0.1857">
        <ele>115.3</ele>
        <time>2020-05-30T20:29:29Z</time>
      </trkpt>
      <trkpt lat="46.42816" lon="-0.18571">
        <ele>115.3</ele>
        <time>2020-05-30T20:29:30Z</time>
      </trkpt>
      <trkpt lat="46.42816" lon="-0.18571">
        <ele>115.3</ele>
        <time>2020-05-30T20:29:31Z</time>
      </trkpt>
      <trkpt lat="46.42815" lon="-0.18571">
        <ele>115.3</ele>
        <time>2020-05-30T20:29:32Z</time>
      </trkpt>
      <trkpt lat="46.42815" lon="-0.18571">
        <ele>115.3</ele>
        <time>2020-05-30T20:29:33Z</time>
      </trkpt>
      <trkpt lat="46.42815" lon="-0.1857">
        <ele>115.3</ele>
        <time>2020-05-30T20:29:34Z</time>
      </trkpt>
      <trkpt lat="46.42816" lon="-0.1857">
        <ele>115.3</ele>
        <time>2020-05-30T20:29:35Z</time>
      </trkpt>
      <trkpt lat="46.42816" lon="-0.18569">
        <ele>115.3</ele>
        <time>2020-05-30T20:29:36Z</time>
      </trkpt>
      <trkpt lat="46.42816" lon="-0.18569">
        <ele>115.3</ele>
        <time>2020-05-30T20:29:37Z</time>
      </trkpt>
      <trkpt lat="46.42816" lon="-0.18568">
        <ele>115.3</ele>
        <time>2020-05-30T20:29:38Z</time>
      </trkpt>
      <trkpt lat="46.42816" lon="-0.18569">
        <ele>115.3</ele>
        <time>2020-05-30T20:29:39Z</time>
      </trkpt>
      <trkpt lat="46.42816" lon="-0.18569">
        <ele>115.3</ele>
        <time>2020-05-30T20:29:40Z</time>
      </trkpt>
      <trkpt lat="46.42816" lon="-0.18569">
        <ele>115.3</ele>
        <time>2020-05-30T20:29:41Z</time>
      </trkpt>
      <trkpt lat="46.42816" lon="-0.18569">
        <ele>115.3</ele>
        <time>2020-05-30T20:29:42Z</time>
      </trkpt>
      <trkpt lat="46.42816" lon="-0.18569">
        <ele>115.3</ele>
        <time>2020-05-30T20:29:43Z</time>
      </trkpt>
      <trkpt lat="46.42816" lon="-0.18569">
        <ele>115.3</ele>
        <time>2020-05-30T20:29:44Z</time>
      </trkpt>
      <trkpt lat="46.42817" lon="-0.18569">
        <ele>115.3</ele>
        <time>2020-05-30T20:29:45Z</time>
      </trkpt>
      <trkpt lat="46.42817" lon="-0.1857">
        <ele>115.3</ele>
        <time>2020-05-30T20:29:46Z</time>
      </trkpt>
      <trkpt lat="46.42817" lon="-0.18569">
        <ele>115.3</ele>
        <time>2020-05-30T20:29:47Z</time>
      </trkpt>
      <trkpt lat="46.42817" lon="-0.18569">
        <ele>115.3</ele>
        <time>2020-05-30T20:29:48Z</time>
      </trkpt>
      <trkpt lat="46.42817" lon="-0.18569">
        <ele>115.3</ele>
        <time>2020-05-30T20:29:49Z</time>
      </trkpt>
      <trkpt lat="46.42817" lon="-0.18569">
        <ele>115.3</ele>
        <time>2020-05-30T20:29:50Z</time>
      </trkpt>
      <trkpt lat="46.42817" lon="-0.1857">
        <ele>115.3</ele>
        <time>2020-05-30T20:29:51Z</time>
      </trkpt>
      <trkpt lat="46.42817" lon="-0.1857">
        <ele>115.3</ele>
        <time>2020-05-30T20:29:52Z</time>
      </trkpt>
      <trkpt lat="46.42817" lon="-0.1857">
        <ele>115.3</ele>
        <time>2020-05-30T20:29:53Z</time>
      </trkpt>
      <trkpt lat="46.42817" lon="-0.1857">
        <ele>115.3</ele>
        <time>2020-05-30T20:29:54Z</time>
      </trkpt>
      <trkpt lat="46.42817" lon="-0.1857">
        <ele>115.3</ele>
        <time>2020-05-30T20:29:55Z</time>
      </trkpt>
      <trkpt lat="46.42817" lon="-0.1857">
        <ele>115.3</ele>
        <time>2020-05-30T20:29:56Z</time>
      </trkpt>
      <trkpt lat="46.42817" lon="-0.1857">
        <ele>115.3</ele>
        <time>2020-05-30T20:29:57Z</time>
      </trkpt>
      <trkpt lat="46.42817" lon="-0.1857">
        <ele>115.3</ele>
        <time>2020-05-30T20:29:58Z</time>
      </trkpt>
      <trkpt lat="46.42817" lon="-0.18568">
        <ele>115.3</ele>
        <time>2020-05-30T20:29:59Z</time>
      </trkpt>
      <trkpt lat="46.42816" lon="-0.18568">
        <ele>115.3</ele>
        <time>2020-05-30T20:30:00Z</time>
      </trkpt>
      <trkpt lat="46.42816" lon="-0.18568">
        <ele>115.3</ele>
        <time>2020-05-30T20:30:01Z</time>
      </trkpt>
      <trkpt lat="46.42816" lon="-0.18568">
        <ele>115.3</ele>
        <time>2020-05-30T20:30:02Z</time>
      </trkpt>
      <trkpt lat="46.42816" lon="-0.18568">
        <ele>115.3</ele>
        <time>2020-05-30T20:30:03Z</time>
      </trkpt>
      <trkpt lat="46.42816" lon="-0.18567">
        <ele>115.3</ele>
        <time>2020-05-30T20:30:04Z</time>
      </trkpt>
      <trkpt lat="46.42815" lon="-0.18567">
        <ele>115.3</ele>
        <time>2020-05-30T20:30:05Z</time>
      </trkpt>
      <trkpt lat="46.42815" lon="-0.18567">
        <ele>115.3</ele>
        <time>2020-05-30T20:30:06Z</time>
      </trkpt>
      <trkpt lat="46.42815" lon="-0.18566">
        <ele>115.3</ele>
        <time>2020-05-30T20:30:07Z</time>
      </trkpt>
      <trkpt lat="46.42815" lon="-0.18566">
        <ele>115.3</ele>
        <time>2020-05-30T20:30:08Z</time>
      </trkpt>
      <trkpt lat="46.42815" lon="-0.18566">
        <ele>115.3</ele>
        <time>2020-05-30T20:30:09Z</time>
      </trkpt>
      <trkpt lat="46.42815" lon="-0.18566">
        <ele>115.3</ele>
        <time>2020-05-30T20:30:10Z</time>
      </trkpt>
      <trkpt lat="46.42815" lon="-0.18566">
        <ele>115.3</ele>
        <time>2020-05-30T20:30:11Z</time>
      </trkpt>
      <trkpt lat="46.42815" lon="-0.18566">
        <ele>115.3</ele>
        <time>2020-05-30T20:30:12Z</time>
      </trkpt>
      <trkpt lat="46.42815" lon="-0.18566">
        <ele>115.3</ele>
        <time>2020-05-30T20:30:13Z</time>
      </trkpt>
      <trkpt lat="46.42815" lon="-0.18566">
        <ele>115.3</ele>
        <time>2020-05-30T20:30:14Z</time>
      </trkpt>
      <trkpt lat="46.42815" lon="-0.18566">
        <ele>115.3</ele>
        <time>2020-05-30T20:30:15Z</time>
      </trkpt>
      <trkpt lat="46.42815" lon="-0.18565">
        <ele>115.3</ele>
        <time>2020-05-30T20:30:16Z</time>
      </trkpt>
      <trkpt lat="46.42815" lon="-0.18565">
        <ele>115.3</ele>
        <time>2020-05-30T20:30:17Z</time>
      </trkpt>
      <trkpt lat="46.42815" lon="-0.18565">
        <ele>115.3</ele>
        <time>2020-05-30T20:30:18Z</time>
      </trkpt>
      <trkpt lat="46.42816" lon="-0.18565">
        <ele>115.3</ele>
        <time>2020-05-30T20:30:19Z</time>
      </trkpt>
      <trkpt lat="46.42816" lon="-0.18565">
        <ele>115.3</ele>
        <time>2020-05-30T20:30:20Z</time>
      </trkpt>
      <trkpt lat="46.42816" lon="-0.18565">
        <ele>115.3</ele>
        <time>2020-05-30T20:30:21Z</time>
      </trkpt>
      <trkpt lat="46.42816" lon="-0.18565">
        <ele>115.3</ele>
        <time>2020-05-30T20:30:22Z</time>
      </trkpt>
      <trkpt lat="46.42817" lon="-0.18565">
        <ele>115.3</ele>
        <time>2020-05-30T20:30:23Z</time>
      </trkpt>
      <trkpt lat="46.42817" lon="-0.18566">
        <ele>115.3</ele>
        <time>2020-05-30T20:30:24Z</time>
      </trkpt>
      <trkpt lat="46.42817" lon="-0.18565">
        <ele>115.3</ele>
        <time>2020-05-30T20:30:25Z</time>
      </trkpt>
      <trkpt lat="46.42817" lon="-0.18565">
        <ele>115.3</ele>
        <time>2020-05-30T20:30:26Z</time>
      </trkpt>
      <trkpt lat="46.42817" lon="-0.18565">
        <ele>115.3</ele>
        <time>2020-05-30T20:30:27Z</time>
      </trkpt>
      <trkpt lat="46.42817" lon="-0.18566">
        <ele>115.3</ele>
        <time>2020-05-30T20:30:28Z</time>
      </trkpt>
      <trkpt lat="46.42817" lon="-0.18566">
        <ele>115.3</ele>
        <time>2020-05-30T20:30:29Z</time>
      </trkpt>
      <trkpt lat="46.42817" lon="-0.18567">
        <ele>115.3</ele>
        <time>2020-05-30T20:30:30Z</time>
      </trkpt>
      <trkpt lat="46.42817" lon="-0.18567">
        <ele>115.3</ele>
        <time>2020-05-30T20:30:31Z</time>
      </trkpt>
      <trkpt lat="46.42817" lon="-0.18567">
        <ele>115.3</ele>
        <time>2020-05-30T20:30:32Z</time>
      </trkpt>
      <trkpt lat="46.42817" lon="-0.18568">
        <ele>115.3</ele>
        <time>2020-05-30T20:30:33Z</time>
      </trkpt>
      <trkpt lat="46.42817" lon="-0.18568">
        <ele>115.3</ele>
        <time>2020-05-30T20:30:34Z</time>
      </trkpt>
      <trkpt lat="46.42817" lon="-0.18567">
        <ele>115.3</ele>
        <time>2020-05-30T20:30:35Z</time>
      </trkpt>
      <trkpt lat="46.42817" lon="-0.18568">
        <ele>115.3</ele>
        <time>2020-05-30T20:30:36Z</time>
      </trkpt>
      <trkpt lat="46.42816" lon="-0.18569">
        <ele>115.3</ele>
        <time>2020-05-30T20:30:37Z</time>
      </trkpt>
      <trkpt lat="46.42817" lon="-0.1857">
        <ele>115.3</ele>
        <time>2020-05-30T20:30:38Z</time>
      </trkpt>
      <trkpt lat="46.42817" lon="-0.1857">
        <ele>115.3</ele>
        <time>2020-05-30T20:30:39Z</time>
      </trkpt>
      <trkpt lat="46.42817" lon="-0.1857">
        <ele>115.3</ele>
        <time>2020-05-30T20:30:40Z</time>
      </trkpt>
      <trkpt lat="46.42817" lon="-0.1857">
        <ele>115.3</ele>
        <time>2020-05-30T20:30:41Z</time>
      </trkpt>
      <trkpt lat="46.42817" lon="-0.1857">
        <ele>115.3</ele>
        <time>2020-05-30T20:30:42Z</time>
      </trkpt>
      <trkpt lat="46.42817" lon="-0.18569">
        <ele>115.3</ele>
        <time>2020-05-30T20:30:43Z</time>
      </trkpt>
      <trkpt lat="46.42816" lon="-0.18569">
        <ele>115.3</ele>
        <time>2020-05-30T20:30:44Z</time>
      </trkpt>
      <trkpt lat="46.42816" lon="-0.18569">
        <ele>115.4</ele>
        <time>2020-05-30T20:30:45Z</time>
      </trkpt>
      <trkpt lat="46.42816" lon="-0.18569">
        <ele>115.4</ele>
        <time>2020-05-30T20:30:46Z</time>
      </trkpt>
      <trkpt lat="46.42816" lon="-0.18569">
        <ele>115.4</ele>
        <time>2020-05-30T20:30:47Z</time>
      </trkpt>
      <trkpt lat="46.42816" lon="-0.18569">
        <ele>115.4</ele>
        <time>2020-05-30T20:30:48Z</time>
      </trkpt>
      <trkpt lat="46.42816" lon="-0.18569">
        <ele>115.4</ele>
        <time>2020-05-30T20:30:49Z</time>
      </trkpt>
      <trkpt lat="46.42816" lon="-0.18569">
        <ele>115.4</ele>
        <time>2020-05-30T20:30:50Z</time>
      </trkpt>
      <trkpt lat="46.42815" lon="-0.18569">
        <ele>115.4</ele>
        <time>2020-05-30T20:30:51Z</time>
      </trkpt>
      <trkpt lat="46.42815" lon="-0.1857">
        <ele>115.4</ele>
        <time>2020-05-30T20:30:52Z</time>
      </trkpt>
      <trkpt lat="46.42814" lon="-0.1857">
        <ele>115.4</ele>
        <time>2020-05-30T20:30:53Z</time>
      </trkpt>
      <trkpt lat="46.42814" lon="-0.1857">
        <ele>115.4</ele>
        <time>2020-05-30T20:30:54Z</time>
      </trkpt>
      <trkpt lat="46.42814" lon="-0.18571">
        <ele>115.4</ele>
        <time>2020-05-30T20:30:55Z</time>
      </trkpt>
      <trkpt lat="46.42814" lon="-0.18571">
        <ele>115.4</ele>
        <time>2020-05-30T20:30:56Z</time>
      </trkpt>
      <trkpt lat="46.42814" lon="-0.18571">
        <ele>115.4</ele>
        <time>2020-05-30T20:30:57Z</time>
      </trkpt>
      <trkpt lat="46.42814" lon="-0.18572">
        <ele>115.4</ele>
        <time>2020-05-30T20:30:58Z</time>
      </trkpt>
      <trkpt lat="46.42814" lon="-0.18571">
        <ele>115.4</ele>
        <time>2020-05-30T20:30:59Z</time>
      </trkpt>
      <trkpt lat="46.42814" lon="-0.18571">
        <ele>115.4</ele>
        <time>2020-05-30T20:31:00Z</time>
      </trkpt>
      <trkpt lat="46.42814" lon="-0.18571">
        <ele>115.4</ele>
        <time>2020-05-30T20:31:01Z</time>
      </trkpt>
      <trkpt lat="46.42814" lon="-0.18571">
        <ele>115.4</ele>
        <time>2020-05-30T20:31:02Z</time>
      </trkpt>
      <trkpt lat="46.42814" lon="-0.18571">
        <ele>115.4</ele>
        <time>2020-05-30T20:31:03Z</time>
      </trkpt>
      <trkpt lat="46.42813" lon="-0.18571">
        <ele>115.4</ele>
        <time>2020-05-30T20:31:04Z</time>
      </trkpt>
      <trkpt lat="46.42813" lon="-0.18571">
        <ele>115.4</ele>
        <time>2020-05-30T20:31:05Z</time>
      </trkpt>
      <trkpt lat="46.42813" lon="-0.18571">
        <ele>115.4</ele>
        <time>2020-05-30T20:31:06Z</time>
      </trkpt>
      <trkpt lat="46.42813" lon="-0.18571">
        <ele>115.4</ele>
        <time>2020-05-30T20:31:07Z</time>
      </trkpt>
      <trkpt lat="46.42813" lon="-0.18572">
        <ele>115.4</ele>
        <time>2020-05-30T20:31:08Z</time>
      </trkpt>
      <trkpt lat="46.42813" lon="-0.18572">
        <ele>115.4</ele>
        <time>2020-05-30T20:31:09Z</time>
      </trkpt>
      <trkpt lat="46.42813" lon="-0.18572">
        <ele>115.4</ele>
        <time>2020-05-30T20:31:10Z</time>
      </trkpt>
      <trkpt lat="46.42813" lon="-0.18572">
        <ele>115.4</ele>
        <time>2020-05-30T20:31:11Z</time>
      </trkpt>
      <trkpt lat="46.42813" lon="-0.18573">
        <ele>115.4</ele>
        <time>2020-05-30T20:31:12Z</time>
      </trkpt>
      <trkpt lat="46.42813" lon="-0.18572">
        <ele>115.4</ele>
        <time>2020-05-30T20:31:13Z</time>
      </trkpt>
      <trkpt lat="46.42813" lon="-0.18572">
        <ele>115.4</ele>
        <time>2020-05-30T20:31:14Z</time>
      </trkpt>
      <trkpt lat="46.42813" lon="-0.18572">
        <ele>115.4</ele>
        <time>2020-05-30T20:31:15Z</time>
      </trkpt>
      <trkpt lat="46.42813" lon="-0.18572">
        <ele>115.4</ele>
        <time>2020-05-30T20:31:16Z</time>
      </trkpt>
      <trkpt lat="46.42813" lon="-0.18572">
        <ele>115.4</ele>
        <time>2020-05-30T20:31:17Z</time>
      </trkpt>
      <trkpt lat="46.42813" lon="-0.18573">
        <ele>115.4</ele>
        <time>2020-05-30T20:31:18Z</time>
      </trkpt>
      <trkpt lat="46.42813" lon="-0.18572">
        <ele>115.4</ele>
        <time>2020-05-30T20:31:19Z</time>
      </trkpt>
      <trkpt lat="46.42813" lon="-0.18573">
        <ele>115.4</ele>
        <time>2020-05-30T20:31:20Z</time>
      </trkpt>
      <trkpt lat="46.42813" lon="-0.18574">
        <ele>115.4</ele>
        <time>2020-05-30T20:31:21Z</time>
      </trkpt>
      <trkpt lat="46.42813" lon="-0.18574">
        <ele>115.4</ele>
        <time>2020-05-30T20:31:22Z</time>
      </trkpt>
      <trkpt lat="46.42814" lon="-0.18574">
        <ele>115.4</ele>
        <time>2020-05-30T20:31:23Z</time>
      </trkpt>
      <trkpt lat="46.42814" lon="-0.18574">
        <ele>115.4</ele>
        <time>2020-05-30T20:31:24Z</time>
      </trkpt>
      <trkpt lat="46.42814" lon="-0.18574">
        <ele>115.4</ele>
        <time>2020-05-30T20:31:25Z</time>
      </trkpt>
      <trkpt lat="46.42815" lon="-0.18575">
        <ele>115.4</ele>
        <time>2020-05-30T20:31:26Z</time>
      </trkpt>
      <trkpt lat="46.42815" lon="-0.18575">
        <ele>115.4</ele>
        <time>2020-05-30T20:31:27Z</time>
      </trkpt>
      <trkpt lat="46.42815" lon="-0.18575">
        <ele>115.4</ele>
        <time>2020-05-30T20:31:28Z</time>
      </trkpt>
      <trkpt lat="46.42815" lon="-0.18575">
        <ele>115.4</ele>
        <time>2020-05-30T20:31:29Z</time>
      </trkpt>
      <trkpt lat="46.42815" lon="-0.18575">
        <ele>115.4</ele>
        <time>2020-05-30T20:31:30Z</time>
      </trkpt>
      <trkpt lat="46.42815" lon="-0.18575">
        <ele>115.4</ele>
        <time>2020-05-30T20:31:31Z</time>
      </trkpt>
      <trkpt lat="46.42815" lon="-0.18574">
        <ele>115.4</ele>
        <time>2020-05-30T20:31:32Z</time>
      </trkpt>
      <trkpt lat="46.42815" lon="-0.18574">
        <ele>115.4</ele>
        <time>2020-05-30T20:31:33Z</time>
      </trkpt>
      <trkpt lat="46.42815" lon="-0.18574">
        <ele>115.4</ele>
        <time>2020-05-30T20:31:34Z</time>
      </trkpt>
      <trkpt lat="46.42815" lon="-0.18574">
        <ele>115.4</ele>
        <time>2020-05-30T20:31:35Z</time>
      </trkpt>
      <trkpt lat="46.42816" lon="-0.18573">
        <ele>115.4</ele>
        <time>2020-05-30T20:31:36Z</time>
      </trkpt>
      <trkpt lat="46.42816" lon="-0.18573">
        <ele>115.4</ele>
        <time>2020-05-30T20:31:37Z</time>
      </trkpt>
      <trkpt lat="46.42816" lon="-0.18572">
        <ele>115.4</ele>
        <time>2020-05-30T20:31:38Z</time>
      </trkpt>
      <trkpt lat="46.42816" lon="-0.18571">
        <ele>115.4</ele>
        <time>2020-05-30T20:31:39Z</time>
      </trkpt>
      <trkpt lat="46.42816" lon="-0.1857">
        <ele>115.4</ele>
        <time>2020-05-30T20:31:40Z</time>
      </trkpt>
      <trkpt lat="46.42816" lon="-0.1857">
        <ele>115.4</ele>
        <time>2020-05-30T20:31:41Z</time>
      </trkpt>
      <trkpt lat="46.42816" lon="-0.18569">
        <ele>115.4</ele>
        <time>2020-05-30T20:31:42Z</time>
      </trkpt>
      <trkpt lat="46.42816" lon="-0.18568">
        <ele>115.4</ele>
        <time>2020-05-30T20:31:43Z</time>
      </trkpt>
      <trkpt lat="46.42816" lon="-0.18568">
        <ele>115.4</ele>
        <time>2020-05-30T20:31:44Z</time>
      </trkpt>
      <trkpt lat="46.42816" lon="-0.18568">
        <ele>115.4</ele>
        <time>2020-05-30T20:31:45Z</time>
      </trkpt>
      <trkpt lat="46.42816" lon="-0.18568">
        <ele>115.4</ele>
        <time>2020-05-30T20:31:46Z</time>
      </trkpt>
      <trkpt lat="46.42816" lon="-0.18568">
        <ele>115.4</ele>
        <time>2020-05-30T20:31:47Z</time>
      </trkpt>
      <trkpt lat="46.42816" lon="-0.18568">
        <ele>115.4</ele>
        <time>2020-05-30T20:31:48Z</time>
      </trkpt>
      <trkpt lat="46.42816" lon="-0.18568">
        <ele>115.4</ele>
        <time>2020-05-30T20:31:49Z</time>
      </trkpt>
      <trkpt lat="46.42816" lon="-0.18568">
        <ele>115.4</ele>
        <time>2020-05-30T20:31:50Z</time>
      </trkpt>
      <trkpt lat="46.42816" lon="-0.18568">
        <ele>115.4</ele>
        <time>2020-05-30T20:31:51Z</time>
      </trkpt>
      <trkpt lat="46.42816" lon="-0.18568">
        <ele>115.4</ele>
        <time>2020-05-30T20:31:52Z</time>
      </trkpt>
      <trkpt lat="46.42816" lon="-0.18567">
        <ele>115.4</ele>
        <time>2020-05-30T20:31:53Z</time>
      </trkpt>
      <trkpt lat="46.42816" lon="-0.18567">
        <ele>115.4</ele>
        <time>2020-05-30T20:31:54Z</time>
      </trkpt>
      <trkpt lat="46.42817" lon="-0.18567">
        <ele>115.4</ele>
        <time>2020-05-30T20:31:55Z</time>
      </trkpt>
      <trkpt lat="46.42818" lon="-0.18567">
        <ele>115.4</ele>
        <time>2020-05-30T20:31:56Z</time>
      </trkpt>
      <trkpt lat="46.42819" lon="-0.18567">
        <ele>115.4</ele>
        <time>2020-05-30T20:31:57Z</time>
      </trkpt>
      <trkpt lat="46.42819" lon="-0.18567">
        <ele>115.4</ele>
        <time>2020-05-30T20:31:58Z</time>
      </trkpt>
      <trkpt lat="46.42819" lon="-0.18567">
        <ele>115.4</ele>
        <time>2020-05-30T20:31:59Z</time>
      </trkpt>
      <trkpt lat="46.4282" lon="-0.18567">
        <ele>115.4</ele>
        <time>2020-05-30T20:32:00Z</time>
      </trkpt>
      <trkpt lat="46.42819" lon="-0.18567">
        <ele>115.4</ele>
        <time>2020-05-30T20:32:01Z</time>
      </trkpt>
      <trkpt lat="46.4282" lon="-0.18567">
        <ele>115.4</ele>
        <time>2020-05-30T20:32:02Z</time>
      </trkpt>
      <trkpt lat="46.4282" lon="-0.18566">
        <ele>115.4</ele>
        <time>2020-05-30T20:32:03Z</time>
      </trkpt>
      <trkpt lat="46.4282" lon="-0.18566">
        <ele>115.4</ele>
        <time>2020-05-30T20:32:04Z</time>
      </trkpt>
      <trkpt lat="46.4282" lon="-0.18566">
        <ele>115.4</ele>
        <time>2020-05-30T20:32:05Z</time>
      </trkpt>
      <trkpt lat="46.4282" lon="-0.18566">
        <ele>115.4</ele>
        <time>2020-05-30T20:32:06Z</time>
      </trkpt>
      <trkpt lat="46.4282" lon="-0.18566">
        <ele>115.4</ele>
        <time>2020-05-30T20:32:07Z</time>
      </trkpt>
      <trkpt lat="46.4282" lon="-0.18566">
        <ele>115.4</ele>
        <time>2020-05-30T20:32:08Z</time>
      </trkpt>
      <trkpt lat="46.4282" lon="-0.18565">
        <ele>115.4</ele>
        <time>2020-05-30T20:32:09Z</time>
      </trkpt>
      <trkpt lat="46.4282" lon="-0.18565">
        <ele>115.4</ele>
        <time>2020-05-30T20:32:10Z</time>
      </trkpt>
      <trkpt lat="46.4282" lon="-0.18565">
        <ele>115.4</ele>
        <time>2020-05-30T20:32:11Z</time>
      </trkpt>
      <trkpt lat="46.4282" lon="-0.18565">
        <ele>115.4</ele>
        <time>2020-05-30T20:32:12Z</time>
      </trkpt>
      <trkpt lat="46.4282" lon="-0.18565">
        <ele>115.4</ele>
        <time>2020-05-30T20:32:13Z</time>
      </trkpt>
      <trkpt lat="46.4282" lon="-0.18565">
        <ele>115.4</ele>
        <time>2020-05-30T20:32:14Z</time>
      </trkpt>
      <trkpt lat="46.42819" lon="-0.18565">
        <ele>115.4</ele>
        <time>2020-05-30T20:32:15Z</time>
      </trkpt>
      <trkpt lat="46.42819" lon="-0.18565">
        <ele>115.4</ele>
        <time>2020-05-30T20:32:16Z</time>
      </trkpt>
      <trkpt lat="46.42819" lon="-0.18565">
        <ele>115.4</ele>
        <time>2020-05-30T20:32:17Z</time>
      </trkpt>
      <trkpt lat="46.42819" lon="-0.18565">
        <ele>115.4</ele>
        <time>2020-05-30T20:32:18Z</time>
      </trkpt>
      <trkpt lat="46.42819" lon="-0.18566">
        <ele>115.4</ele>
        <time>2020-05-30T20:32:19Z</time>
      </trkpt>
      <trkpt lat="46.42818" lon="-0.18566">
        <ele>115.4</ele>
        <time>2020-05-30T20:32:20Z</time>
      </trkpt>
      <trkpt lat="46.42818" lon="-0.18566">
        <ele>115.4</ele>
        <time>2020-05-30T20:32:21Z</time>
      </trkpt>
      <trkpt lat="46.42818" lon="-0.18566">
        <ele>115.4</ele>
        <time>2020-05-30T20:32:22Z</time>
      </trkpt>
      <trkpt lat="46.42818" lon="-0.18566">
        <ele>115.4</ele>
        <time>2020-05-30T20:32:23Z</time>
      </trkpt>
      <trkpt lat="46.42818" lon="-0.18565">
        <ele>115.4</ele>
        <time>2020-05-30T20:32:24Z</time>
      </trkpt>
      <trkpt lat="46.42818" lon="-0.18565">
        <ele>115.4</ele>
        <time>2020-05-30T20:32:25Z</time>
      </trkpt>
      <trkpt lat="46.42818" lon="-0.18564">
        <ele>115.4</ele>
        <time>2020-05-30T20:32:26Z</time>
      </trkpt>
      <trkpt lat="46.42818" lon="-0.18565">
        <ele>115.4</ele>
        <time>2020-05-30T20:32:27Z</time>
      </trkpt>
      <trkpt lat="46.42818" lon="-0.18564">
        <ele>115.4</ele>
        <time>2020-05-30T20:32:28Z</time>
      </trkpt>
      <trkpt lat="46.42818" lon="-0.18563">
        <ele>115.4</ele>
        <time>2020-05-30T20:32:29Z</time>
      </trkpt>
      <trkpt lat="46.42818" lon="-0.18562">
        <ele>115.4</ele>
        <time>2020-05-30T20:32:30Z</time>
      </trkpt>
      <trkpt lat="46.42817" lon="-0.18561">
        <ele>115.4</ele>
        <time>2020-05-30T20:32:31Z</time>
      </trkpt>
      <trkpt lat="46.42817" lon="-0.1856">
        <ele>115.4</ele>
        <time>2020-05-30T20:32:32Z</time>
      </trkpt>
      <trkpt lat="46.42816" lon="-0.1856">
        <ele>115.4</ele>
        <time>2020-05-30T20:32:33Z</time>
      </trkpt>
      <trkpt lat="46.42816" lon="-0.1856">
        <ele>115.4</ele>
        <time>2020-05-30T20:32:34Z</time>
      </trkpt>
      <trkpt lat="46.42815" lon="-0.18559">
        <ele>115.4</ele>
        <time>2020-05-30T20:32:35Z</time>
      </trkpt>
      <trkpt lat="46.42815" lon="-0.18559">
        <ele>115.4</ele>
        <time>2020-05-30T20:32:36Z</time>
      </trkpt>
      <trkpt lat="46.42815" lon="-0.18561">
        <ele>115.5</ele>
        <time>2020-05-30T20:32:37Z</time>
      </trkpt>
      <trkpt lat="46.42815" lon="-0.18561">
        <ele>115.5</ele>
        <time>2020-05-30T20:32:38Z</time>
      </trkpt>
      <trkpt lat="46.42815" lon="-0.18561">
        <ele>115.5</ele>
        <time>2020-05-30T20:32:39Z</time>
      </trkpt>
      <trkpt lat="46.42815" lon="-0.18561">
        <ele>115.5</ele>
        <time>2020-05-30T20:32:40Z</time>
      </trkpt>
      <trkpt lat="46.42815" lon="-0.18561">
        <ele>115.5</ele>
        <time>2020-05-30T20:32:41Z</time>
      </trkpt>
      <trkpt lat="46.42814" lon="-0.18561">
        <ele>115.5</ele>
        <time>2020-05-30T20:32:42Z</time>
      </trkpt>
      <trkpt lat="46.42814" lon="-0.18562">
        <ele>115.5</ele>
        <time>2020-05-30T20:32:43Z</time>
      </trkpt>
      <trkpt lat="46.42815" lon="-0.18563">
        <ele>115.5</ele>
        <time>2020-05-30T20:32:44Z</time>
      </trkpt>
      <trkpt lat="46.42815" lon="-0.18563">
        <ele>115.5</ele>
        <time>2020-05-30T20:32:45Z</time>
      </trkpt>
      <trkpt lat="46.42815" lon="-0.18563">
        <ele>115.5</ele>
        <time>2020-05-30T20:32:46Z</time>
      </trkpt>
      <trkpt lat="46.42815" lon="-0.18564">
        <ele>115.5</ele>
        <time>2020-05-30T20:32:47Z</time>
      </trkpt>
      <trkpt lat="46.42815" lon="-0.18564">
        <ele>115.5</ele>
        <time>2020-05-30T20:32:48Z</time>
      </trkpt>
      <trkpt lat="46.42815" lon="-0.18564">
        <ele>115.5</ele>
        <time>2020-05-30T20:32:49Z</time>
      </trkpt>
      <trkpt lat="46.42815" lon="-0.18564">
        <ele>115.5</ele>
        <time>2020-05-30T20:32:50Z</time>
      </trkpt>
      <trkpt lat="46.42815" lon="-0.18564">
        <ele>115.5</ele>
        <time>2020-05-30T20:32:51Z</time>
      </trkpt>
      <trkpt lat="46.42814" lon="-0.18565">
        <ele>115.5</ele>
        <time>2020-05-30T20:32:52Z</time>
      </trkpt>
      <trkpt lat="46.42814" lon="-0.18565">
        <ele>115.5</ele>
        <time>2020-05-30T20:32:53Z</time>
      </trkpt>
      <trkpt lat="46.42813" lon="-0.18565">
        <ele>115.5</ele>
        <time>2020-05-30T20:32:54Z</time>
      </trkpt>
      <trkpt lat="46.42812" lon="-0.18566">
        <ele>115.5</ele>
        <time>2020-05-30T20:32:55Z</time>
      </trkpt>
      <trkpt lat="46.42812" lon="-0.18566">
        <ele>115.5</ele>
        <time>2020-05-30T20:32:56Z</time>
      </trkpt>
      <trkpt lat="46.42811" lon="-0.18567">
        <ele>115.5</ele>
        <time>2020-05-30T20:32:57Z</time>
      </trkpt>
      <trkpt lat="46.42811" lon="-0.18568">
        <ele>115.5</ele>
        <time>2020-05-30T20:32:58Z</time>
      </trkpt>
      <trkpt lat="46.42811" lon="-0.18568">
        <ele>115.5</ele>
        <time>2020-05-30T20:32:59Z</time>
      </trkpt>
      <trkpt lat="46.42811" lon="-0.18568">
        <ele>115.5</ele>
        <time>2020-05-30T20:33:00Z</time>
      </trkpt>
      <trkpt lat="46.42811" lon="-0.18569">
        <ele>115.5</ele>
        <time>2020-05-30T20:33:01Z</time>
      </trkpt>
      <trkpt lat="46.42811" lon="-0.18569">
        <ele>115.5</ele>
        <time>2020-05-30T20:33:02Z</time>
      </trkpt>
      <trkpt lat="46.42811" lon="-0.18568">
        <ele>115.5</ele>
        <time>2020-05-30T20:33:03Z</time>
      </trkpt>
      <trkpt lat="46.42812" lon="-0.18568">
        <ele>115.5</ele>
        <time>2020-05-30T20:33:04Z</time>
      </trkpt>
      <trkpt lat="46.42813" lon="-0.18568">
        <ele>115.5</ele>
        <time>2020-05-30T20:33:05Z</time>
      </trkpt>
      <trkpt lat="46.42814" lon="-0.18567">
        <ele>115.5</ele>
        <time>2020-05-30T20:33:06Z</time>
      </trkpt>
      <trkpt lat="46.42815" lon="-0.18567">
        <ele>115.5</ele>
        <time>2020-05-30T20:33:07Z</time>
      </trkpt>
      <trkpt lat="46.42816" lon="-0.18567">
        <ele>115.5</ele>
        <time>2020-05-30T20:33:08Z</time>
      </trkpt>
      <trkpt lat="46.42817" lon="-0.18567">
        <ele>115.5</ele>
        <time>2020-05-30T20:33:09Z</time>
      </trkpt>
      <trkpt lat="46.42817" lon="-0.18567">
        <ele>115.5</ele>
        <time>2020-05-30T20:33:10Z</time>
      </trkpt>
      <trkpt lat="46.42818" lon="-0.18567">
        <ele>115.5</ele>
        <time>2020-05-30T20:33:11Z</time>
      </trkpt>
      <trkpt lat="46.42819" lon="-0.18566">
        <ele>115.5</ele>
        <time>2020-05-30T20:33:12Z</time>
      </trkpt>
      <trkpt lat="46.42819" lon="-0.18567">
        <ele>115.5</ele>
        <time>2020-05-30T20:33:13Z</time>
      </trkpt>
      <trkpt lat="46.42819" lon="-0.18568">
        <ele>115.5</ele>
        <time>2020-05-30T20:33:14Z</time>
      </trkpt>
      <trkpt lat="46.42819" lon="-0.18568">
        <ele>115.5</ele>
        <time>2020-05-30T20:33:15Z</time>
      </trkpt>
      <trkpt lat="46.42818" lon="-0.18568">
        <ele>115.5</ele>
        <time>2020-05-30T20:33:16Z</time>
      </trkpt>
      <trkpt lat="46.42818" lon="-0.18568">
        <ele>115.5</ele>
        <time>2020-05-30T20:33:17Z</time>
      </trkpt>
      <trkpt lat="46.42818" lon="-0.18568">
        <ele>115.5</ele>
        <time>2020-05-30T20:33:18Z</time>
      </trkpt>
      <trkpt lat="46.42818" lon="-0.18568">
        <ele>115.5</ele>
        <time>2020-05-30T20:33:19Z</time>
      </trkpt>
      <trkpt lat="46.42818" lon="-0.18568">
        <ele>115.5</ele>
        <time>2020-05-30T20:33:20Z</time>
      </trkpt>
      <trkpt lat="46.42817" lon="-0.18568">
        <ele>115.5</ele>
        <time>2020-05-30T20:33:21Z</time>
      </trkpt>
      <trkpt lat="46.42816" lon="-0.18568">
        <ele>115.5</ele>
        <time>2020-05-30T20:33:22Z</time>
      </trkpt>
      <trkpt lat="46.42816" lon="-0.18568">
        <ele>115.5</ele>
        <time>2020-05-30T20:33:23Z</time>
      </trkpt>
      <trkpt lat="46.42816" lon="-0.18568">
        <ele>115.5</ele>
        <time>2020-05-30T20:33:24Z</time>
      </trkpt>
      <trkpt lat="46.42816" lon="-0.18569">
        <ele>115.5</ele>
        <time>2020-05-30T20:33:25Z</time>
      </trkpt>
      <trkpt lat="46.42816" lon="-0.18569">
        <ele>115.5</ele>
        <time>2020-05-30T20:33:26Z</time>
      </trkpt>
      <trkpt lat="46.42816" lon="-0.1857">
        <ele>115.5</ele>
        <time>2020-05-30T20:33:27Z</time>
      </trkpt>
      <trkpt lat="46.42816" lon="-0.1857">
        <ele>115.5</ele>
        <time>2020-05-30T20:33:28Z</time>
      </trkpt>
      <trkpt lat="46.42816" lon="-0.1857">
        <ele>115.5</ele>
        <time>2020-05-30T20:33:29Z</time>
      </trkpt>
      <trkpt lat="46.42816" lon="-0.18569">
        <ele>115.5</ele>
        <time>2020-05-30T20:33:30Z</time>
      </trkpt>
      <trkpt lat="46.42816" lon="-0.18569">
        <ele>115.5</ele>
        <time>2020-05-30T20:33:31Z</time>
      </trkpt>
      <trkpt lat="46.42816" lon="-0.18569">
        <ele>115.5</ele>
        <time>2020-05-30T20:33:32Z</time>
      </trkpt>
      <trkpt lat="46.42816" lon="-0.18568">
        <ele>115.5</ele>
        <time>2020-05-30T20:33:33Z</time>
      </trkpt>
      <trkpt lat="46.42816" lon="-0.18568">
        <ele>115.5</ele>
        <time>2020-05-30T20:33:34Z</time>
      </trkpt>
      <trkpt lat="46.42817" lon="-0.18567">
        <ele>115.5</ele>
        <time>2020-05-30T20:33:35Z</time>
      </trkpt>
      <trkpt lat="46.42818" lon="-0.18566">
        <ele>115.5</ele>
        <time>2020-05-30T20:33:36Z</time>
      </trkpt>
      <trkpt lat="46.42818" lon="-0.18566">
        <ele>115.5</ele>
        <time>2020-05-30T20:33:37Z</time>
      </trkpt>
      <trkpt lat="46.42818" lon="-0.18566">
        <ele>115.5</ele>
        <time>2020-05-30T20:33:38Z</time>
      </trkpt>
      <trkpt lat="46.42818" lon="-0.18566">
        <ele>115.5</ele>
        <time>2020-05-30T20:33:39Z</time>
      </trkpt>
      <trkpt lat="46.42818" lon="-0.18566">
        <ele>115.5</ele>
        <time>2020-05-30T20:33:40Z</time>
      </trkpt>
      <trkpt lat="46.42818" lon="-0.18566">
        <ele>115.5</ele>
        <time>2020-05-30T20:33:41Z</time>
      </trkpt>
      <trkpt lat="46.42818" lon="-0.18566">
        <ele>115.5</ele>
        <time>2020-05-30T20:33:42Z</time>
      </trkpt>
      <trkpt lat="46.42818" lon="-0.18567">
        <ele>115.5</ele>
        <time>2020-05-30T20:33:43Z</time>
      </trkpt>
      <trkpt lat="46.42818" lon="-0.18568">
        <ele>115.5</ele>
        <time>2020-05-30T20:33:44Z</time>
      </trkpt>
      <trkpt lat="46.42818" lon="-0.18568">
        <ele>115.5</ele>
        <time>2020-05-30T20:33:45Z</time>
      </trkpt>
      <trkpt lat="46.42818" lon="-0.18568">
        <ele>115.5</ele>
        <time>2020-05-30T20:33:46Z</time>
      </trkpt>
      <trkpt lat="46.42818" lon="-0.18568">
        <ele>115.5</ele>
        <time>2020-05-30T20:33:47Z</time>
      </trkpt>
      <trkpt lat="46.42818" lon="-0.18568">
        <ele>115.5</ele>
        <time>2020-05-30T20:33:48Z</time>
      </trkpt>
      <trkpt lat="46.42818" lon="-0.18568">
        <ele>115.5</ele>
        <time>2020-05-30T20:33:49Z</time>
      </trkpt>
      <trkpt lat="46.42818" lon="-0.18568">
        <ele>115.5</ele>
        <time>2020-05-30T20:33:50Z</time>
      </trkpt>
      <trkpt lat="46.42818" lon="-0.18568">
        <ele>115.5</ele>
        <time>2020-05-30T20:33:51Z</time>
      </trkpt>
      <trkpt lat="46.42817" lon="-0.18568">
        <ele>115.5</ele>
        <time>2020-05-30T20:33:52Z</time>
      </trkpt>
      <trkpt lat="46.42817" lon="-0.18568">
        <ele>115.5</ele>
        <time>2020-05-30T20:33:53Z</time>
      </trkpt>
      <trkpt lat="46.42817" lon="-0.18568">
        <ele>115.5</ele>
        <time>2020-05-30T20:33:54Z</time>
      </trkpt>
      <trkpt lat="46.42817" lon="-0.18568">
        <ele>115.5</ele>
        <time>2020-05-30T20:33:55Z</time>
      </trkpt>
      <trkpt lat="46.42817" lon="-0.18568">
        <ele>115.5</ele>
        <time>2020-05-30T20:33:56Z</time>
      </trkpt>
      <trkpt lat="46.42817" lon="-0.18568">
        <ele>115.5</ele>
        <time>2020-05-30T20:33:57Z</time>
      </trkpt>
      <trkpt lat="46.42817" lon="-0.18568">
        <ele>115.5</ele>
        <time>2020-05-30T20:33:58Z</time>
      </trkpt>
      <trkpt lat="46.42817" lon="-0.18567">
        <ele>115.5</ele>
        <time>2020-05-30T20:33:59Z</time>
      </trkpt>
      <trkpt lat="46.42817" lon="-0.18567">
        <ele>115.5</ele>
        <time>2020-05-30T20:34:00Z</time>
      </trkpt>
      <trkpt lat="46.42817" lon="-0.18567">
        <ele>115.5</ele>
        <time>2020-05-30T20:34:01Z</time>
      </trkpt>
      <trkpt lat="46.42817" lon="-0.18567">
        <ele>115.5</ele>
        <time>2020-05-30T20:34:02Z</time>
      </trkpt>
      <trkpt lat="46.42817" lon="-0.18567">
        <ele>115.5</ele>
        <time>2020-05-30T20:34:03Z</time>
      </trkpt>
      <trkpt lat="46.42817" lon="-0.18567">
        <ele>115.5</ele>
        <time>2020-05-30T20:34:04Z</time>
      </trkpt>
      <trkpt lat="46.42817" lon="-0.18567">
        <ele>115.5</ele>
        <time>2020-05-30T20:34:05Z</time>
      </trkpt>
      <trkpt lat="46.42817" lon="-0.18567">
        <ele>115.5</ele>
        <time>2020-05-30T20:34:06Z</time>
      </trkpt>
      <trkpt lat="46.42817" lon="-0.18567">
        <ele>115.5</ele>
        <time>2020-05-30T20:34:07Z</time>
      </trkpt>
      <trkpt lat="46.42817" lon="-0.18568">
        <ele>115.5</ele>
        <time>2020-05-30T20:34:08Z</time>
      </trkpt>
      <trkpt lat="46.42816" lon="-0.18568">
        <ele>115.5</ele>
        <time>2020-05-30T20:34:09Z</time>
      </trkpt>
      <trkpt lat="46.42817" lon="-0.18569">
        <ele>115.5</ele>
        <time>2020-05-30T20:34:10Z</time>
      </trkpt>
      <trkpt lat="46.42816" lon="-0.18569">
        <ele>115.5</ele>
        <time>2020-05-30T20:34:11Z</time>
      </trkpt>
      <trkpt lat="46.42816" lon="-0.18569">
        <ele>115.5</ele>
        <time>2020-05-30T20:34:12Z</time>
      </trkpt>
      <trkpt lat="46.42816" lon="-0.18569">
        <ele>115.5</ele>
        <time>2020-05-30T20:34:13Z</time>
      </trkpt>
      <trkpt lat="46.42816" lon="-0.18569">
        <ele>115.5</ele>
        <time>2020-05-30T20:34:14Z</time>
      </trkpt>
      <trkpt lat="46.42816" lon="-0.18569">
        <ele>115.5</ele>
        <time>2020-05-30T20:34:15Z</time>
      </trkpt>
      <trkpt lat="46.42816" lon="-0.18569">
        <ele>115.5</ele>
        <time>2020-05-30T20:34:16Z</time>
      </trkpt>
      <trkpt lat="46.42817" lon="-0.18569">
        <ele>115.6</ele>
        <time>2020-05-30T20:34:17Z</time>
      </trkpt>
      <trkpt lat="46.42817" lon="-0.18569">
        <ele>115.6</ele>
        <time>2020-05-30T20:34:18Z</time>
      </trkpt>
      <trkpt lat="46.42817" lon="-0.18569">
        <ele>115.6</ele>
        <time>2020-05-30T20:34:19Z</time>
      </trkpt>
      <trkpt lat="46.42818" lon="-0.18569">
        <ele>115.6</ele>
        <time>2020-05-30T20:34:20Z</time>
      </trkpt>
      <trkpt lat="46.42818" lon="-0.18569">
        <ele>115.6</ele>
        <time>2020-05-30T20:34:21Z</time>
      </trkpt>
      <trkpt lat="46.42818" lon="-0.18569">
        <ele>115.6</ele>
        <time>2020-05-30T20:34:22Z</time>
      </trkpt>
      <trkpt lat="46.42818" lon="-0.18569">
        <ele>115.6</ele>
        <time>2020-05-30T20:34:23Z</time>
      </trkpt>
      <trkpt lat="46.42818" lon="-0.18569">
        <ele>115.6</ele>
        <time>2020-05-30T20:34:24Z</time>
      </trkpt>
      <trkpt lat="46.42818" lon="-0.18569">
        <ele>115.6</ele>
        <time>2020-05-30T20:34:25Z</time>
      </trkpt>
      <trkpt lat="46.42818" lon="-0.18569">
        <ele>115.6</ele>
        <time>2020-05-30T20:34:26Z</time>
      </trkpt>
      <trkpt lat="46.42818" lon="-0.18569">
        <ele>115.6</ele>
        <time>2020-05-30T20:34:27Z</time>
      </trkpt>
      <trkpt lat="46.42817" lon="-0.18569">
        <ele>115.6</ele>
        <time>2020-05-30T20:34:28Z</time>
      </trkpt>
      <trkpt lat="46.42817" lon="-0.18569">
        <ele>115.6</ele>
        <time>2020-05-30T20:34:29Z</time>
      </trkpt>
      <trkpt lat="46.42817" lon="-0.18569">
        <ele>115.6</ele>
        <time>2020-05-30T20:34:30Z</time>
      </trkpt>
      <trkpt lat="46.42817" lon="-0.18569">
        <ele>115.6</ele>
        <time>2020-05-30T20:34:31Z</time>
      </trkpt>
      <trkpt lat="46.42817" lon="-0.18568">
        <ele>115.6</ele>
        <time>2020-05-30T20:34:32Z</time>
      </trkpt>
      <trkpt lat="46.42817" lon="-0.18568">
        <ele>115.6</ele>
        <time>2020-05-30T20:34:33Z</time>
      </trkpt>
      <trkpt lat="46.42816" lon="-0.18569">
        <ele>115.6</ele>
        <time>2020-05-30T20:34:34Z</time>
      </trkpt>
      <trkpt lat="46.42817" lon="-0.18568">
        <ele>115.6</ele>
        <time>2020-05-30T20:34:35Z</time>
      </trkpt>
      <trkpt lat="46.42817" lon="-0.18568">
        <ele>115.6</ele>
        <time>2020-05-30T20:34:36Z</time>
      </trkpt>
      <trkpt lat="46.42817" lon="-0.18568">
        <ele>115.6</ele>
        <time>2020-05-30T20:34:37Z</time>
      </trkpt>
      <trkpt lat="46.42817" lon="-0.18568">
        <ele>115.6</ele>
        <time>2020-05-30T20:34:38Z</time>
      </trkpt>
      <trkpt lat="46.42817" lon="-0.18568">
        <ele>115.6</ele>
        <time>2020-05-30T20:34:39Z</time>
      </trkpt>
      <trkpt lat="46.42818" lon="-0.18568">
        <ele>115.6</ele>
        <time>2020-05-30T20:34:40Z</time>
      </trkpt>
      <trkpt lat="46.42817" lon="-0.18567">
        <ele>115.6</ele>
        <time>2020-05-30T20:34:41Z</time>
      </trkpt>
      <trkpt lat="46.42818" lon="-0.18566">
        <ele>115.6</ele>
        <time>2020-05-30T20:34:42Z</time>
      </trkpt>
      <trkpt lat="46.42817" lon="-0.18567">
        <ele>115.6</ele>
        <time>2020-05-30T20:34:43Z</time>
      </trkpt>
      <trkpt lat="46.42817" lon="-0.18567">
        <ele>115.6</ele>
        <time>2020-05-30T20:34:44Z</time>
      </trkpt>
      <trkpt lat="46.42817" lon="-0.18568">
        <ele>115.6</ele>
        <time>2020-05-30T20:34:45Z</time>
      </trkpt>
      <trkpt lat="46.42818" lon="-0.1857">
        <ele>115.6</ele>
        <time>2020-05-30T20:34:46Z</time>
      </trkpt>
      <trkpt lat="46.42818" lon="-0.18571">
        <ele>115.6</ele>
        <time>2020-05-30T20:34:47Z</time>
      </trkpt>
      <trkpt lat="46.42819" lon="-0.18573">
        <ele>115.6</ele>
        <time>2020-05-30T20:34:48Z</time>
      </trkpt>
      <trkpt lat="46.42819" lon="-0.18573">
        <ele>115.6</ele>
        <time>2020-05-30T20:34:49Z</time>
      </trkpt>
      <trkpt lat="46.4282" lon="-0.18574">
        <ele>115.6</ele>
        <time>2020-05-30T20:34:50Z</time>
      </trkpt>
      <trkpt lat="46.4282" lon="-0.18574">
        <ele>115.6</ele>
        <time>2020-05-30T20:34:51Z</time>
      </trkpt>
      <trkpt lat="46.4282" lon="-0.18574">
        <ele>115.6</ele>
        <time>2020-05-30T20:34:52Z</time>
      </trkpt>
      <trkpt lat="46.4282" lon="-0.18574">
        <ele>115.6</ele>
        <time>2020-05-30T20:34:53Z</time>
      </trkpt>
      <trkpt lat="46.4282" lon="-0.18573">
        <ele>115.6</ele>
        <time>2020-05-30T20:34:54Z</time>
      </trkpt>
      <trkpt lat="46.4282" lon="-0.18573">
        <ele>115.6</ele>
        <time>2020-05-30T20:34:55Z</time>
      </trkpt>
      <trkpt lat="46.4282" lon="-0.18573">
        <ele>115.6</ele>
        <time>2020-05-30T20:34:56Z</time>
      </trkpt>
      <trkpt lat="46.42819" lon="-0.18573">
        <ele>115.6</ele>
        <time>2020-05-30T20:34:57Z</time>
      </trkpt>
      <trkpt lat="46.42819" lon="-0.18573">
        <ele>115.6</ele>
        <time>2020-05-30T20:34:58Z</time>
      </trkpt>
      <trkpt lat="46.42819" lon="-0.18573">
        <ele>115.6</ele>
        <time>2020-05-30T20:34:59Z</time>
      </trkpt>
      <trkpt lat="46.42819" lon="-0.18573">
        <ele>115.6</ele>
        <time>2020-05-30T20:35:00Z</time>
      </trkpt>
      <trkpt lat="46.42819" lon="-0.18573">
        <ele>115.6</ele>
        <time>2020-05-30T20:35:01Z</time>
      </trkpt>
      <trkpt lat="46.4282" lon="-0.18573">
        <ele>115.6</ele>
        <time>2020-05-30T20:35:02Z</time>
      </trkpt>
      <trkpt lat="46.4282" lon="-0.18573">
        <ele>115.6</ele>
        <time>2020-05-30T20:35:03Z</time>
      </trkpt>
      <trkpt lat="46.42821" lon="-0.18573">
        <ele>115.6</ele>
        <time>2020-05-30T20:35:04Z</time>
      </trkpt>
      <trkpt lat="46.4282" lon="-0.18573">
        <ele>115.6</ele>
        <time>2020-05-30T20:35:05Z</time>
      </trkpt>
      <trkpt lat="46.4282" lon="-0.18573">
        <ele>115.6</ele>
        <time>2020-05-30T20:35:06Z</time>
      </trkpt>
      <trkpt lat="46.4282" lon="-0.18572">
        <ele>115.6</ele>
        <time>2020-05-30T20:35:07Z</time>
      </trkpt>
      <trkpt lat="46.4282" lon="-0.18572">
        <ele>115.6</ele>
        <time>2020-05-30T20:35:08Z</time>
      </trkpt>
      <trkpt lat="46.4282" lon="-0.18571">
        <ele>115.6</ele>
        <time>2020-05-30T20:35:09Z</time>
      </trkpt>
      <trkpt lat="46.42819" lon="-0.18571">
        <ele>115.6</ele>
        <time>2020-05-30T20:35:10Z</time>
      </trkpt>
      <trkpt lat="46.4282" lon="-0.18571">
        <ele>115.6</ele>
        <time>2020-05-30T20:35:11Z</time>
      </trkpt>
      <trkpt lat="46.4282" lon="-0.18569">
        <ele>115.6</ele>
        <time>2020-05-30T20:35:12Z</time>
      </trkpt>
      <trkpt lat="46.4282" lon="-0.18569">
        <ele>115.6</ele>
        <time>2020-05-30T20:35:13Z</time>
      </trkpt>
      <trkpt lat="46.4282" lon="-0.18568">
        <ele>115.6</ele>
        <time>2020-05-30T20:35:14Z</time>
      </trkpt>
      <trkpt lat="46.4282" lon="-0.18567">
        <ele>115.6</ele>
        <time>2020-05-30T20:35:15Z</time>
      </trkpt>
      <trkpt lat="46.4282" lon="-0.18567">
        <ele>115.6</ele>
        <time>2020-05-30T20:35:16Z</time>
      </trkpt>
      <trkpt lat="46.4282" lon="-0.18566">
        <ele>115.6</ele>
        <time>2020-05-30T20:35:17Z</time>
      </trkpt>
      <trkpt lat="46.4282" lon="-0.18566">
        <ele>115.6</ele>
        <time>2020-05-30T20:35:18Z</time>
      </trkpt>
      <trkpt lat="46.4282" lon="-0.18566">
        <ele>115.6</ele>
        <time>2020-05-30T20:35:19Z</time>
      </trkpt>
      <trkpt lat="46.42819" lon="-0.18566">
        <ele>115.6</ele>
        <time>2020-05-30T20:35:20Z</time>
      </trkpt>
      <trkpt lat="46.4282" lon="-0.18566">
        <ele>115.6</ele>
        <time>2020-05-30T20:35:21Z</time>
      </trkpt>
      <trkpt lat="46.42821" lon="-0.18565">
        <ele>115.6</ele>
        <time>2020-05-30T20:35:22Z</time>
      </trkpt>
      <trkpt lat="46.4282" lon="-0.18565">
        <ele>115.6</ele>
        <time>2020-05-30T20:35:23Z</time>
      </trkpt>
      <trkpt lat="46.4282" lon="-0.18565">
        <ele>115.6</ele>
        <time>2020-05-30T20:35:24Z</time>
      </trkpt>
      <trkpt lat="46.4282" lon="-0.18565">
        <ele>115.6</ele>
        <time>2020-05-30T20:35:25Z</time>
      </trkpt>
      <trkpt lat="46.42819" lon="-0.18565">
        <ele>115.6</ele>
        <time>2020-05-30T20:35:26Z</time>
      </trkpt>
      <trkpt lat="46.42819" lon="-0.18565">
        <ele>115.6</ele>
        <time>2020-05-30T20:35:27Z</time>
      </trkpt>
      <trkpt lat="46.42819" lon="-0.18565">
        <ele>115.6</ele>
        <time>2020-05-30T20:35:28Z</time>
      </trkpt>
      <trkpt lat="46.42819" lon="-0.18565">
        <ele>115.6</ele>
        <time>2020-05-30T20:35:29Z</time>
      </trkpt>
      <trkpt lat="46.42818" lon="-0.18565">
        <ele>115.6</ele>
        <time>2020-05-30T20:35:30Z</time>
      </trkpt>
      <trkpt lat="46.42818" lon="-0.18565">
        <ele>115.6</ele>
        <time>2020-05-30T20:35:31Z</time>
      </trkpt>
      <trkpt lat="46.42818" lon="-0.18565">
        <ele>115.6</ele>
        <time>2020-05-30T20:35:32Z</time>
      </trkpt>
      <trkpt lat="46.42818" lon="-0.18565">
        <ele>115.6</ele>
        <time>2020-05-30T20:35:33Z</time>
      </trkpt>
      <trkpt lat="46.42819" lon="-0.18566">
        <ele>115.6</ele>
        <time>2020-05-30T20:35:34Z</time>
      </trkpt>
      <trkpt lat="46.42819" lon="-0.18566">
        <ele>115.6</ele>
        <time>2020-05-30T20:35:35Z</time>
      </trkpt>
      <trkpt lat="46.42819" lon="-0.18567">
        <ele>115.6</ele>
        <time>2020-05-30T20:35:36Z</time>
      </trkpt>
      <trkpt lat="46.42819" lon="-0.18566">
        <ele>115.6</ele>
        <time>2020-05-30T20:35:37Z</time>
      </trkpt>
      <trkpt lat="46.42819" lon="-0.18567">
        <ele>115.6</ele>
        <time>2020-05-30T20:35:38Z</time>
      </trkpt>
      <trkpt lat="46.42819" lon="-0.18567">
        <ele>115.6</ele>
        <time>2020-05-30T20:35:39Z</time>
      </trkpt>
      <trkpt lat="46.42819" lon="-0.18568">
        <ele>115.6</ele>
        <time>2020-05-30T20:35:40Z</time>
      </trkpt>
      <trkpt lat="46.42818" lon="-0.18569">
        <ele>115.6</ele>
        <time>2020-05-30T20:35:41Z</time>
      </trkpt>
      <trkpt lat="46.42818" lon="-0.1857">
        <ele>115.6</ele>
        <time>2020-05-30T20:35:42Z</time>
      </trkpt>
      <trkpt lat="46.42818" lon="-0.1857">
        <ele>115.6</ele>
        <time>2020-05-30T20:35:43Z</time>
      </trkpt>
      <trkpt lat="46.42818" lon="-0.1857">
        <ele>115.6</ele>
        <time>2020-05-30T20:35:44Z</time>
      </trkpt>
      <trkpt lat="46.42819" lon="-0.18572">
        <ele>115.7</ele>
        <time>2020-05-30T20:35:45Z</time>
      </trkpt>
      <trkpt lat="46.42819" lon="-0.18572">
        <ele>115.7</ele>
        <time>2020-05-30T20:35:46Z</time>
      </trkpt>
      <trkpt lat="46.4282" lon="-0.18573">
        <ele>115.7</ele>
        <time>2020-05-30T20:35:47Z</time>
      </trkpt>
      <trkpt lat="46.4282" lon="-0.18573">
        <ele>115.7</ele>
        <time>2020-05-30T20:35:48Z</time>
      </trkpt>
      <trkpt lat="46.4282" lon="-0.18573">
        <ele>115.7</ele>
        <time>2020-05-30T20:35:49Z</time>
      </trkpt>
      <trkpt lat="46.4282" lon="-0.18573">
        <ele>115.7</ele>
        <time>2020-05-30T20:35:50Z</time>
      </trkpt>
      <trkpt lat="46.4282" lon="-0.18574">
        <ele>115.7</ele>
        <time>2020-05-30T20:35:51Z</time>
      </trkpt>
      <trkpt lat="46.4282" lon="-0.18575">
        <ele>115.7</ele>
        <time>2020-05-30T20:35:52Z</time>
      </trkpt>
      <trkpt lat="46.4282" lon="-0.18575">
        <ele>115.7</ele>
        <time>2020-05-30T20:35:53Z</time>
      </trkpt>
      <trkpt lat="46.42821" lon="-0.18576">
        <ele>115.7</ele>
        <time>2020-05-30T20:35:54Z</time>
      </trkpt>
      <trkpt lat="46.42821" lon="-0.18576">
        <ele>115.7</ele>
        <time>2020-05-30T20:35:55Z</time>
      </trkpt>
      <trkpt lat="46.42821" lon="-0.18576">
        <ele>115.7</ele>
        <time>2020-05-30T20:35:56Z</time>
      </trkpt>
      <trkpt lat="46.42821" lon="-0.18577">
        <ele>115.7</ele>
        <time>2020-05-30T20:35:57Z</time>
      </trkpt>
      <trkpt lat="46.42822" lon="-0.18576">
        <ele>115.7</ele>
        <time>2020-05-30T20:35:58Z</time>
      </trkpt>
      <trkpt lat="46.42821" lon="-0.18577">
        <ele>115.7</ele>
        <time>2020-05-30T20:35:59Z</time>
      </trkpt>
      <trkpt lat="46.42821" lon="-0.18577">
        <ele>115.7</ele>
        <time>2020-05-30T20:36:00Z</time>
      </trkpt>
      <trkpt lat="46.42821" lon="-0.18577">
        <ele>115.7</ele>
        <time>2020-05-30T20:36:01Z</time>
      </trkpt>
      <trkpt lat="46.42819" lon="-0.18576">
        <ele>115.7</ele>
        <time>2020-05-30T20:36:02Z</time>
      </trkpt>
      <trkpt lat="46.42818" lon="-0.18575">
        <ele>115.7</ele>
        <time>2020-05-30T20:36:03Z</time>
      </trkpt>
      <trkpt lat="46.42819" lon="-0.18575">
        <ele>115.7</ele>
        <time>2020-05-30T20:36:04Z</time>
      </trkpt>
      <trkpt lat="46.42819" lon="-0.18575">
        <ele>115.7</ele>
        <time>2020-05-30T20:36:05Z</time>
      </trkpt>
      <trkpt lat="46.42819" lon="-0.18574">
        <ele>115.7</ele>
        <time>2020-05-30T20:36:06Z</time>
      </trkpt>
      <trkpt lat="46.42819" lon="-0.18573">
        <ele>115.7</ele>
        <time>2020-05-30T20:36:07Z</time>
      </trkpt>
      <trkpt lat="46.42819" lon="-0.18572">
        <ele>115.7</ele>
        <time>2020-05-30T20:36:08Z</time>
      </trkpt>
      <trkpt lat="46.42819" lon="-0.18571">
        <ele>115.7</ele>
        <time>2020-05-30T20:36:09Z</time>
      </trkpt>
      <trkpt lat="46.42818" lon="-0.18571">
        <ele>115.7</ele>
        <time>2020-05-30T20:36:10Z</time>
      </trkpt>
      <trkpt lat="46.42817" lon="-0.1857">
        <ele>115.7</ele>
        <time>2020-05-30T20:36:11Z</time>
      </trkpt>
      <trkpt lat="46.42817" lon="-0.1857">
        <ele>115.7</ele>
        <time>2020-05-30T20:36:12Z</time>
      </trkpt>
      <trkpt lat="46.42816" lon="-0.18569">
        <ele>115.7</ele>
        <time>2020-05-30T20:36:13Z</time>
      </trkpt>
      <trkpt lat="46.42815" lon="-0.18569">
        <ele>115.7</ele>
        <time>2020-05-30T20:36:14Z</time>
      </trkpt>
      <trkpt lat="46.42814" lon="-0.18568">
        <ele>115.7</ele>
        <time>2020-05-30T20:36:15Z</time>
      </trkpt>
      <trkpt lat="46.42814" lon="-0.18569">
        <ele>115.7</ele>
        <time>2020-05-30T20:36:16Z</time>
      </trkpt>
      <trkpt lat="46.42814" lon="-0.18568">
        <ele>115.7</ele>
        <time>2020-05-30T20:36:17Z</time>
      </trkpt>
      <trkpt lat="46.42814" lon="-0.18568">
        <ele>115.7</ele>
        <time>2020-05-30T20:36:18Z</time>
      </trkpt>
      <trkpt lat="46.42814" lon="-0.18569">
        <ele>115.7</ele>
        <time>2020-05-30T20:36:19Z</time>
      </trkpt>
      <trkpt lat="46.42814" lon="-0.18568">
        <ele>115.7</ele>
        <time>2020-05-30T20:36:20Z</time>
      </trkpt>
      <trkpt lat="46.42814" lon="-0.18568">
        <ele>115.7</ele>
        <time>2020-05-30T20:36:21Z</time>
      </trkpt>
      <trkpt lat="46.42814" lon="-0.18568">
        <ele>115.7</ele>
        <time>2020-05-30T20:36:22Z</time>
      </trkpt>
      <trkpt lat="46.42815" lon="-0.18568">
        <ele>115.7</ele>
        <time>2020-05-30T20:36:23Z</time>
      </trkpt>
      <trkpt lat="46.42815" lon="-0.18568">
        <ele>115.7</ele>
        <time>2020-05-30T20:36:24Z</time>
      </trkpt>
      <trkpt lat="46.42815" lon="-0.18568">
        <ele>115.7</ele>
        <time>2020-05-30T20:36:25Z</time>
      </trkpt>
      <trkpt lat="46.42816" lon="-0.18568">
        <ele>115.7</ele>
        <time>2020-05-30T20:36:26Z</time>
      </trkpt>
      <trkpt lat="46.42816" lon="-0.18568">
        <ele>115.7</ele>
        <time>2020-05-30T20:36:27Z</time>
      </trkpt>
      <trkpt lat="46.42816" lon="-0.18568">
        <ele>115.7</ele>
        <time>2020-05-30T20:36:28Z</time>
      </trkpt>
      <trkpt lat="46.42815" lon="-0.18568">
        <ele>115.7</ele>
        <time>2020-05-30T20:36:29Z</time>
      </trkpt>
      <trkpt lat="46.42815" lon="-0.18568">
        <ele>115.7</ele>
        <time>2020-05-30T20:36:30Z</time>
      </trkpt>
      <trkpt lat="46.42816" lon="-0.18568">
        <ele>115.7</ele>
        <time>2020-05-30T20:36:31Z</time>
      </trkpt>
      <trkpt lat="46.42815" lon="-0.18568">
        <ele>115.7</ele>
        <time>2020-05-30T20:36:32Z</time>
      </trkpt>
      <trkpt lat="46.42816" lon="-0.18568">
        <ele>115.7</ele>
        <time>2020-05-30T20:36:33Z</time>
      </trkpt>
      <trkpt lat="46.42816" lon="-0.18568">
        <ele>115.7</ele>
        <time>2020-05-30T20:36:34Z</time>
      </trkpt>
      <trkpt lat="46.42816" lon="-0.18568">
        <ele>115.7</ele>
        <time>2020-05-30T20:36:35Z</time>
      </trkpt>
      <trkpt lat="46.42816" lon="-0.18568">
        <ele>115.7</ele>
        <time>2020-05-30T20:36:36Z</time>
      </trkpt>
      <trkpt lat="46.42816" lon="-0.18568">
        <ele>115.7</ele>
        <time>2020-05-30T20:36:37Z</time>
      </trkpt>
      <trkpt lat="46.42816" lon="-0.18568">
        <ele>115.7</ele>
        <time>2020-05-30T20:36:38Z</time>
      </trkpt>
      <trkpt lat="46.42816" lon="-0.18568">
        <ele>115.7</ele>
        <time>2020-05-30T20:36:39Z</time>
      </trkpt>
      <trkpt lat="46.42816" lon="-0.18568">
        <ele>115.7</ele>
        <time>2020-05-30T20:36:40Z</time>
      </trkpt>
      <trkpt lat="46.42816" lon="-0.18568">
        <ele>115.7</ele>
        <time>2020-05-30T20:36:41Z</time>
      </trkpt>
      <trkpt lat="46.42816" lon="-0.18568">
        <ele>115.7</ele>
        <time>2020-05-30T20:36:42Z</time>
      </trkpt>
      <trkpt lat="46.42817" lon="-0.18567">
        <ele>115.7</ele>
        <time>2020-05-30T20:36:43Z</time>
      </trkpt>
      <trkpt lat="46.42818" lon="-0.18567">
        <ele>115.7</ele>
        <time>2020-05-30T20:36:44Z</time>
      </trkpt>
      <trkpt lat="46.42818" lon="-0.18567">
        <ele>115.7</ele>
        <time>2020-05-30T20:36:45Z</time>
      </trkpt>
      <trkpt lat="46.42818" lon="-0.18567">
        <ele>115.7</ele>
        <time>2020-05-30T20:36:46Z</time>
      </trkpt>
      <trkpt lat="46.42818" lon="-0.18566">
        <ele>115.7</ele>
        <time>2020-05-30T20:36:47Z</time>
      </trkpt>
      <trkpt lat="46.42819" lon="-0.18566">
        <ele>115.7</ele>
        <time>2020-05-30T20:36:48Z</time>
      </trkpt>
      <trkpt lat="46.42819" lon="-0.18566">
        <ele>115.7</ele>
        <time>2020-05-30T20:36:49Z</time>
      </trkpt>
      <trkpt lat="46.42819" lon="-0.18567">
        <ele>115.7</ele>
        <time>2020-05-30T20:36:50Z</time>
      </trkpt>
      <trkpt lat="46.4282" lon="-0.18567">
        <ele>115.7</ele>
        <time>2020-05-30T20:36:51Z</time>
      </trkpt>
      <trkpt lat="46.4282" lon="-0.18568">
        <ele>115.7</ele>
        <time>2020-05-30T20:36:52Z</time>
      </trkpt>
      <trkpt lat="46.4282" lon="-0.18568">
        <ele>115.7</ele>
        <time>2020-05-30T20:36:53Z</time>
      </trkpt>
      <trkpt lat="46.4282" lon="-0.18568">
        <ele>115.7</ele>
        <time>2020-05-30T20:36:54Z</time>
      </trkpt>
      <trkpt lat="46.4282" lon="-0.18569">
        <ele>115.7</ele>
        <time>2020-05-30T20:36:55Z</time>
      </trkpt>
      <trkpt lat="46.4282" lon="-0.18569">
        <ele>115.7</ele>
        <time>2020-05-30T20:36:56Z</time>
      </trkpt>
      <trkpt lat="46.4282" lon="-0.1857">
        <ele>115.7</ele>
        <time>2020-05-30T20:36:57Z</time>
      </trkpt>
      <trkpt lat="46.4282" lon="-0.1857">
        <ele>115.7</ele>
        <time>2020-05-30T20:36:58Z</time>
      </trkpt>
      <trkpt lat="46.4282" lon="-0.1857">
        <ele>115.7</ele>
        <time>2020-05-30T20:36:59Z</time>
      </trkpt>
      <trkpt lat="46.42821" lon="-0.18571">
        <ele>115.7</ele>
        <time>2020-05-30T20:37:00Z</time>
      </trkpt>
      <trkpt lat="46.42821" lon="-0.18572">
        <ele>115.7</ele>
        <time>2020-05-30T20:37:01Z</time>
      </trkpt>
      <trkpt lat="46.42821" lon="-0.18572">
        <ele>115.7</ele>
        <time>2020-05-30T20:37:02Z</time>
      </trkpt>
      <trkpt lat="46.42821" lon="-0.18571">
        <ele>115.7</ele>
        <time>2020-05-30T20:37:03Z</time>
      </trkpt>
      <trkpt lat="46.42821" lon="-0.18572">
        <ele>115.7</ele>
        <time>2020-05-30T20:37:04Z</time>
      </trkpt>
      <trkpt lat="46.42821" lon="-0.18572">
        <ele>115.7</ele>
        <time>2020-05-30T20:37:05Z</time>
      </trkpt>
      <trkpt lat="46.42821" lon="-0.18572">
        <ele>115.7</ele>
        <time>2020-05-30T20:37:06Z</time>
      </trkpt>
      <trkpt lat="46.42821" lon="-0.18573">
        <ele>115.7</ele>
        <time>2020-05-30T20:37:07Z</time>
      </trkpt>
      <trkpt lat="46.42821" lon="-0.18573">
        <ele>115.7</ele>
        <time>2020-05-30T20:37:08Z</time>
      </trkpt>
      <trkpt lat="46.42822" lon="-0.18574">
        <ele>115.7</ele>
        <time>2020-05-30T20:37:09Z</time>
      </trkpt>
      <trkpt lat="46.42822" lon="-0.18574">
        <ele>115.7</ele>
        <time>2020-05-30T20:37:10Z</time>
      </trkpt>
      <trkpt lat="46.42822" lon="-0.18575">
        <ele>115.7</ele>
        <time>2020-05-30T20:37:11Z</time>
      </trkpt>
      <trkpt lat="46.42822" lon="-0.18575">
        <ele>115.7</ele>
        <time>2020-05-30T20:37:12Z</time>
      </trkpt>
      <trkpt lat="46.42822" lon="-0.18575">
        <ele>115.8</ele>
        <time>2020-05-30T20:37:13Z</time>
      </trkpt>
      <trkpt lat="46.42821" lon="-0.18571">
        <ele>115.8</ele>
        <time>2020-05-30T20:37:14Z</time>
      </trkpt>
      <trkpt lat="46.42821" lon="-0.18571">
        <ele>115.8</ele>
        <time>2020-05-30T20:37:15Z</time>
      </trkpt>
      <trkpt lat="46.42821" lon="-0.18572">
        <ele>115.8</ele>
        <time>2020-05-30T20:37:16Z</time>
      </trkpt>
      <trkpt lat="46.42821" lon="-0.18572">
        <ele>115.8</ele>
        <time>2020-05-30T20:37:17Z</time>
      </trkpt>
      <trkpt lat="46.42821" lon="-0.18573">
        <ele>115.8</ele>
        <time>2020-05-30T20:37:18Z</time>
      </trkpt>
      <trkpt lat="46.42821" lon="-0.18573">
        <ele>115.8</ele>
        <time>2020-05-30T20:37:19Z</time>
      </trkpt>
      <trkpt lat="46.4282" lon="-0.18572">
        <ele>115.8</ele>
        <time>2020-05-30T20:37:20Z</time>
      </trkpt>
      <trkpt lat="46.42819" lon="-0.18572">
        <ele>115.8</ele>
        <time>2020-05-30T20:37:21Z</time>
      </trkpt>
      <trkpt lat="46.42819" lon="-0.18571">
        <ele>115.8</ele>
        <time>2020-05-30T20:37:22Z</time>
      </trkpt>
      <trkpt lat="46.42819" lon="-0.18571">
        <ele>115.8</ele>
        <time>2020-05-30T20:37:23Z</time>
      </trkpt>
      <trkpt lat="46.42819" lon="-0.1857">
        <ele>115.8</ele>
        <time>2020-05-30T20:37:24Z</time>
      </trkpt>
      <trkpt lat="46.42818" lon="-0.1857">
        <ele>115.8</ele>
        <time>2020-05-30T20:37:25Z</time>
      </trkpt>
      <trkpt lat="46.42818" lon="-0.1857">
        <ele>115.8</ele>
        <time>2020-05-30T20:37:26Z</time>
      </trkpt>
      <trkpt lat="46.42818" lon="-0.18569">
        <ele>115.8</ele>
        <time>2020-05-30T20:37:27Z</time>
      </trkpt>
      <trkpt lat="46.42818" lon="-0.18569">
        <ele>115.8</ele>
        <time>2020-05-30T20:37:28Z</time>
      </trkpt>
      <trkpt lat="46.42817" lon="-0.18569">
        <ele>115.8</ele>
        <time>2020-05-30T20:37:29Z</time>
      </trkpt>
      <trkpt lat="46.42818" lon="-0.18568">
        <ele>115.8</ele>
        <time>2020-05-30T20:37:30Z</time>
      </trkpt>
      <trkpt lat="46.42817" lon="-0.18566">
        <ele>115.8</ele>
        <time>2020-05-30T20:37:31Z</time>
      </trkpt>
      <trkpt lat="46.42817" lon="-0.18565">
        <ele>115.8</ele>
        <time>2020-05-30T20:37:32Z</time>
      </trkpt>
      <trkpt lat="46.42816" lon="-0.18564">
        <ele>115.8</ele>
        <time>2020-05-30T20:37:33Z</time>
      </trkpt>
      <trkpt lat="46.42815" lon="-0.18564">
        <ele>115.8</ele>
        <time>2020-05-30T20:37:34Z</time>
      </trkpt>
      <trkpt lat="46.42815" lon="-0.18563">
        <ele>115.8</ele>
        <time>2020-05-30T20:37:35Z</time>
      </trkpt>
      <trkpt lat="46.42814" lon="-0.18564">
        <ele>115.8</ele>
        <time>2020-05-30T20:37:36Z</time>
      </trkpt>
      <trkpt lat="46.42813" lon="-0.18564">
        <ele>115.8</ele>
        <time>2020-05-30T20:37:37Z</time>
      </trkpt>
      <trkpt lat="46.42812" lon="-0.18565">
        <ele>115.8</ele>
        <time>2020-05-30T20:37:38Z</time>
      </trkpt>
      <trkpt lat="46.42812" lon="-0.18565">
        <ele>115.8</ele>
        <time>2020-05-30T20:37:39Z</time>
      </trkpt>
      <trkpt lat="46.42811" lon="-0.18565">
        <ele>115.8</ele>
        <time>2020-05-30T20:37:40Z</time>
      </trkpt>
      <trkpt lat="46.4281" lon="-0.18566">
        <ele>115.8</ele>
        <time>2020-05-30T20:37:41Z</time>
      </trkpt>
      <trkpt lat="46.42809" lon="-0.18566">
        <ele>115.8</ele>
        <time>2020-05-30T20:37:42Z</time>
      </trkpt>
      <trkpt lat="46.42809" lon="-0.18567">
        <ele>115.8</ele>
        <time>2020-05-30T20:37:43Z</time>
      </trkpt>
      <trkpt lat="46.42808" lon="-0.18567">
        <ele>115.8</ele>
        <time>2020-05-30T20:37:44Z</time>
      </trkpt>
      <trkpt lat="46.42807" lon="-0.18568">
        <ele>115.8</ele>
        <time>2020-05-30T20:37:55Z</time>
      </trkpt>
      <trkpt lat="46.42806" lon="-0.18568">
        <ele>115.8</ele>
        <time>2020-05-30T20:37:58Z</time>
      </trkpt>
      <trkpt lat="46.42806" lon="-0.18569">
        <ele>115.8</ele>
        <time>2020-05-30T20:37:59Z</time>
      </trkpt>
      <trkpt lat="46.42805" lon="-0.18569">
        <ele>115.8</ele>
        <time>2020-05-30T20:38:00Z</time>
      </trkpt>
      <trkpt lat="46.42804" lon="-0.1857">
        <ele>115.8</ele>
        <time>2020-05-30T20:38:01Z</time>
      </trkpt>
      <trkpt lat="46.42803" lon="-0.1857">
        <ele>115.8</ele>
        <time>2020-05-30T20:38:02Z</time>
      </trkpt>
      <trkpt lat="46.42805" lon="-0.1857">
        <ele>115.8</ele>
        <time>2020-05-30T20:38:03Z</time>
      </trkpt>
      <trkpt lat="46.42806" lon="-0.1857">
        <ele>115.8</ele>
        <time>2020-05-30T20:38:04Z</time>
      </trkpt>
      <trkpt lat="46.42808" lon="-0.18569">
        <ele>115.8</ele>
        <time>2020-05-30T20:38:05Z</time>
      </trkpt>
      <trkpt lat="46.4281" lon="-0.18568">
        <ele>115.8</ele>
        <time>2020-05-30T20:38:06Z</time>
      </trkpt>
      <trkpt lat="46.42815" lon="-0.18566">
        <ele>115.9</ele>
        <time>2020-05-30T20:38:07Z</time>
      </trkpt>
      <trkpt lat="46.42817" lon="-0.18566">
        <ele>115.9</ele>
        <time>2020-05-30T20:38:08Z</time>
      </trkpt>
      <trkpt lat="46.42818" lon="-0.18565">
        <ele>115.9</ele>
        <time>2020-05-30T20:38:09Z</time>
      </trkpt>
      <trkpt lat="46.42819" lon="-0.18565">
        <ele>115.9</ele>
        <time>2020-05-30T20:38:10Z</time>
      </trkpt>
      <trkpt lat="46.42821" lon="-0.18564">
        <ele>115.9</ele>
        <time>2020-05-30T20:38:11Z</time>
      </trkpt>
      <trkpt lat="46.42822" lon="-0.18564">
        <ele>115.9</ele>
        <time>2020-05-30T20:38:12Z</time>
      </trkpt>
      <trkpt lat="46.42822" lon="-0.18565">
        <ele>115.9</ele>
        <time>2020-05-30T20:38:13Z</time>
      </trkpt>
      <trkpt lat="46.42821" lon="-0.18566">
        <ele>115.9</ele>
        <time>2020-05-30T20:38:14Z</time>
      </trkpt>
      <trkpt lat="46.42821" lon="-0.18567">
        <ele>115.9</ele>
        <time>2020-05-30T20:38:15Z</time>
      </trkpt>
      <trkpt lat="46.42821" lon="-0.18568">
        <ele>115.9</ele>
        <time>2020-05-30T20:38:16Z</time>
      </trkpt>
      <trkpt lat="46.42821" lon="-0.18568">
        <ele>115.9</ele>
        <time>2020-05-30T20:38:17Z</time>
      </trkpt>
      <trkpt lat="46.42821" lon="-0.18568">
        <ele>115.9</ele>
        <time>2020-05-30T20:38:18Z</time>
      </trkpt>
      <trkpt lat="46.42821" lon="-0.18568">
        <ele>115.9</ele>
        <time>2020-05-30T20:38:19Z</time>
      </trkpt>
      <trkpt lat="46.42821" lon="-0.18568">
        <ele>115.9</ele>
        <time>2020-05-30T20:38:20Z</time>
      </trkpt>
      <trkpt lat="46.42821" lon="-0.18568">
        <ele>115.9</ele>
        <time>2020-05-30T20:38:21Z</time>
      </trkpt>
      <trkpt lat="46.42821" lon="-0.18568">
        <ele>115.9</ele>
        <time>2020-05-30T20:38:22Z</time>
      </trkpt>
      <trkpt lat="46.42821" lon="-0.18568">
        <ele>115.9</ele>
        <time>2020-05-30T20:38:23Z</time>
      </trkpt>
      <trkpt lat="46.42821" lon="-0.18569">
        <ele>115.9</ele>
        <time>2020-05-30T20:38:24Z</time>
      </trkpt>
      <trkpt lat="46.4282" lon="-0.18569">
        <ele>115.9</ele>
        <time>2020-05-30T20:38:25Z</time>
      </trkpt>
      <trkpt lat="46.4282" lon="-0.18569">
        <ele>115.9</ele>
        <time>2020-05-30T20:38:26Z</time>
      </trkpt>
      <trkpt lat="46.4282" lon="-0.18569">
        <ele>115.9</ele>
        <time>2020-05-30T20:38:27Z</time>
      </trkpt>
      <trkpt lat="46.4282" lon="-0.18569">
        <ele>115.9</ele>
        <time>2020-05-30T20:38:28Z</time>
      </trkpt>
      <trkpt lat="46.4282" lon="-0.18569">
        <ele>115.9</ele>
        <time>2020-05-30T20:38:29Z</time>
      </trkpt>
      <trkpt lat="46.4282" lon="-0.18569">
        <ele>115.9</ele>
        <time>2020-05-30T20:38:30Z</time>
      </trkpt>
      <trkpt lat="46.4282" lon="-0.18569">
        <ele>115.9</ele>
        <time>2020-05-30T20:38:31Z</time>
      </trkpt>
      <trkpt lat="46.4282" lon="-0.18569">
        <ele>115.9</ele>
        <time>2020-05-30T20:38:32Z</time>
      </trkpt>
      <trkpt lat="46.4282" lon="-0.18569">
        <ele>115.9</ele>
        <time>2020-05-30T20:38:33Z</time>
      </trkpt>
      <trkpt lat="46.4282" lon="-0.18569">
        <ele>115.9</ele>
        <time>2020-05-30T20:38:34Z</time>
      </trkpt>
      <trkpt lat="46.4282" lon="-0.18569">
        <ele>115.9</ele>
        <time>2020-05-30T20:38:35Z</time>
      </trkpt>
      <trkpt lat="46.42819" lon="-0.18569">
        <ele>115.9</ele>
        <time>2020-05-30T20:38:36Z</time>
      </trkpt>
      <trkpt lat="46.42819" lon="-0.18569">
        <ele>115.9</ele>
        <time>2020-05-30T20:38:37Z</time>
      </trkpt>
      <trkpt lat="46.42819" lon="-0.1857">
        <ele>115.9</ele>
        <time>2020-05-30T20:38:38Z</time>
      </trkpt>
      <trkpt lat="46.42819" lon="-0.1857">
        <ele>115.9</ele>
        <time>2020-05-30T20:38:39Z</time>
      </trkpt>
      <trkpt lat="46.42819" lon="-0.1857">
        <ele>115.9</ele>
        <time>2020-05-30T20:38:40Z</time>
      </trkpt>
      <trkpt lat="46.42819" lon="-0.1857">
        <ele>115.9</ele>
        <time>2020-05-30T20:38:41Z</time>
      </trkpt>
      <trkpt lat="46.42819" lon="-0.1857">
        <ele>115.9</ele>
        <time>2020-05-30T20:38:42Z</time>
      </trkpt>
      <trkpt lat="46.42819" lon="-0.1857">
        <ele>115.9</ele>
        <time>2020-05-30T20:38:43Z</time>
      </trkpt>
      <trkpt lat="46.42819" lon="-0.1857">
        <ele>115.9</ele>
        <time>2020-05-30T20:38:44Z</time>
      </trkpt>
      <trkpt lat="46.42819" lon="-0.1857">
        <ele>115.9</ele>
        <time>2020-05-30T20:38:45Z</time>
      </trkpt>
      <trkpt lat="46.42819" lon="-0.1857">
        <ele>115.9</ele>
        <time>2020-05-30T20:38:46Z</time>
      </trkpt>
      <trkpt lat="46.42818" lon="-0.1857">
        <ele>115.9</ele>
        <time>2020-05-30T20:38:47Z</time>
      </trkpt>
      <trkpt lat="46.42818" lon="-0.1857">
        <ele>115.9</ele>
        <time>2020-05-30T20:38:48Z</time>
      </trkpt>
      <trkpt lat="46.42818" lon="-0.1857">
        <ele>115.9</ele>
        <time>2020-05-30T20:38:49Z</time>
      </trkpt>
      <trkpt lat="46.42818" lon="-0.1857">
        <ele>115.9</ele>
        <time>2020-05-30T20:38:50Z</time>
      </trkpt>
      <trkpt lat="46.42818" lon="-0.1857">
        <ele>115.9</ele>
        <time>2020-05-30T20:38:51Z</time>
      </trkpt>
      <trkpt lat="46.42818" lon="-0.18571">
        <ele>115.9</ele>
        <time>2020-05-30T20:38:52Z</time>
      </trkpt>
      <trkpt lat="46.42818" lon="-0.18571">
        <ele>115.9</ele>
        <time>2020-05-30T20:38:53Z</time>
      </trkpt>
      <trkpt lat="46.42818" lon="-0.18571">
        <ele>115.9</ele>
        <time>2020-05-30T20:38:54Z</time>
      </trkpt>
      <trkpt lat="46.42818" lon="-0.18571">
        <ele>115.9</ele>
        <time>2020-05-30T20:38:55Z</time>
      </trkpt>
      <trkpt lat="46.42818" lon="-0.18571">
        <ele>115.9</ele>
        <time>2020-05-30T20:38:56Z</time>
      </trkpt>
      <trkpt lat="46.42818" lon="-0.18571">
        <ele>115.9</ele>
        <time>2020-05-30T20:38:57Z</time>
      </trkpt>
      <trkpt lat="46.42818" lon="-0.18571">
        <ele>115.9</ele>
        <time>2020-05-30T20:38:58Z</time>
      </trkpt>
      <trkpt lat="46.42817" lon="-0.18571">
        <ele>115.9</ele>
        <time>2020-05-30T20:38:59Z</time>
      </trkpt>
      <trkpt lat="46.42817" lon="-0.18571">
        <ele>115.9</ele>
        <time>2020-05-30T20:39:00Z</time>
      </trkpt>
      <trkpt lat="46.42817" lon="-0.18571">
        <ele>115.9</ele>
        <time>2020-05-30T20:39:01Z</time>
      </trkpt>
      <trkpt lat="46.42817" lon="-0.18571">
        <ele>115.9</ele>
        <time>2020-05-30T20:39:02Z</time>
      </trkpt>
      <trkpt lat="46.42817" lon="-0.18571">
        <ele>115.9</ele>
        <time>2020-05-30T20:39:03Z</time>
      </trkpt>
      <trkpt lat="46.42817" lon="-0.18571">
        <ele>115.9</ele>
        <time>2020-05-30T20:39:04Z</time>
      </trkpt>
      <trkpt lat="46.42817" lon="-0.1857">
        <ele>115.9</ele>
        <time>2020-05-30T20:39:05Z</time>
      </trkpt>
      <trkpt lat="46.42816" lon="-0.18569">
        <ele>115.9</ele>
        <time>2020-05-30T20:39:06Z</time>
      </trkpt>
      <trkpt lat="46.42816" lon="-0.18567">
        <ele>115.9</ele>
        <time>2020-05-30T20:39:07Z</time>
      </trkpt>
      <trkpt lat="46.42816" lon="-0.18566">
        <ele>115.9</ele>
        <time>2020-05-30T20:39:08Z</time>
      </trkpt>
      <trkpt lat="46.42816" lon="-0.18566">
        <ele>115.9</ele>
        <time>2020-05-30T20:39:09Z</time>
      </trkpt>
      <trkpt lat="46.42815" lon="-0.18565">
        <ele>115.9</ele>
        <time>2020-05-30T20:39:10Z</time>
      </trkpt>
      <trkpt lat="46.42815" lon="-0.18565">
        <ele>115.9</ele>
        <time>2020-05-30T20:39:11Z</time>
      </trkpt>
      <trkpt lat="46.42815" lon="-0.18565">
        <ele>115.9</ele>
        <time>2020-05-30T20:39:12Z</time>
      </trkpt>
      <trkpt lat="46.42815" lon="-0.18565">
        <ele>115.9</ele>
        <time>2020-05-30T20:39:13Z</time>
      </trkpt>
      <trkpt lat="46.42814" lon="-0.18565">
        <ele>115.9</ele>
        <time>2020-05-30T20:39:14Z</time>
      </trkpt>
      <trkpt lat="46.42814" lon="-0.18566">
        <ele>115.9</ele>
        <time>2020-05-30T20:39:15Z</time>
      </trkpt>
      <trkpt lat="46.42815" lon="-0.18566">
        <ele>115.9</ele>
        <time>2020-05-30T20:39:16Z</time>
      </trkpt>
      <trkpt lat="46.42814" lon="-0.18567">
        <ele>115.9</ele>
        <time>2020-05-30T20:39:17Z</time>
      </trkpt>
      <trkpt lat="46.42814" lon="-0.18567">
        <ele>115.9</ele>
        <time>2020-05-30T20:39:18Z</time>
      </trkpt>
      <trkpt lat="46.42814" lon="-0.18567">
        <ele>115.9</ele>
        <time>2020-05-30T20:39:19Z</time>
      </trkpt>
      <trkpt lat="46.42814" lon="-0.18567">
        <ele>115.9</ele>
        <time>2020-05-30T20:39:20Z</time>
      </trkpt>
      <trkpt lat="46.42813" lon="-0.18567">
        <ele>115.9</ele>
        <time>2020-05-30T20:39:21Z</time>
      </trkpt>
      <trkpt lat="46.42813" lon="-0.18567">
        <ele>115.9</ele>
        <time>2020-05-30T20:39:22Z</time>
      </trkpt>
      <trkpt lat="46.42813" lon="-0.18567">
        <ele>115.9</ele>
        <time>2020-05-30T20:39:23Z</time>
      </trkpt>
      <trkpt lat="46.42812" lon="-0.18568">
        <ele>115.9</ele>
        <time>2020-05-30T20:39:24Z</time>
      </trkpt>
      <trkpt lat="46.42812" lon="-0.18568">
        <ele>115.9</ele>
        <time>2020-05-30T20:39:25Z</time>
      </trkpt>
      <trkpt lat="46.42811" lon="-0.18568">
        <ele>115.9</ele>
        <time>2020-05-30T20:39:26Z</time>
      </trkpt>
      <trkpt lat="46.4281" lon="-0.18567">
        <ele>115.9</ele>
        <time>2020-05-30T20:39:27Z</time>
      </trkpt>
      <trkpt lat="46.42811" lon="-0.18566">
        <ele>115.9</ele>
        <time>2020-05-30T20:39:28Z</time>
      </trkpt>
      <trkpt lat="46.42812" lon="-0.18566">
        <ele>115.9</ele>
        <time>2020-05-30T20:39:29Z</time>
      </trkpt>
      <trkpt lat="46.42812" lon="-0.18566">
        <ele>115.9</ele>
        <time>2020-05-30T20:39:30Z</time>
      </trkpt>
      <trkpt lat="46.42812" lon="-0.18566">
        <ele>115.9</ele>
        <time>2020-05-30T20:39:31Z</time>
      </trkpt>
      <trkpt lat="46.42812" lon="-0.18565">
        <ele>115.9</ele>
        <time>2020-05-30T20:39:32Z</time>
      </trkpt>
      <trkpt lat="46.42812" lon="-0.18565">
        <ele>116</ele>
        <time>2020-05-30T20:39:33Z</time>
      </trkpt>
      <trkpt lat="46.42811" lon="-0.18565">
        <ele>116</ele>
        <time>2020-05-30T20:39:34Z</time>
      </trkpt>
      <trkpt lat="46.42811" lon="-0.18565">
        <ele>116</ele>
        <time>2020-05-30T20:39:35Z</time>
      </trkpt>
      <trkpt lat="46.4281" lon="-0.18566">
        <ele>116</ele>
        <time>2020-05-30T20:39:36Z</time>
      </trkpt>
      <trkpt lat="46.4281" lon="-0.18566">
        <ele>116</ele>
        <time>2020-05-30T20:39:37Z</time>
      </trkpt>
      <trkpt lat="46.42809" lon="-0.18567">
        <ele>116</ele>
        <time>2020-05-30T20:39:38Z</time>
      </trkpt>
      <trkpt lat="46.42808" lon="-0.18566">
        <ele>116</ele>
        <time>2020-05-30T20:39:39Z</time>
      </trkpt>
      <trkpt lat="46.42808" lon="-0.18567">
        <ele>116</ele>
        <time>2020-05-30T20:39:40Z</time>
      </trkpt>
      <trkpt lat="46.42807" lon="-0.18566">
        <ele>116</ele>
        <time>2020-05-30T20:39:41Z</time>
      </trkpt>
      <trkpt lat="46.42807" lon="-0.18566">
        <ele>116</ele>
        <time>2020-05-30T20:39:42Z</time>
      </trkpt>
      <trkpt lat="46.42807" lon="-0.18566">
        <ele>116</ele>
        <time>2020-05-30T20:39:43Z</time>
      </trkpt>
      <trkpt lat="46.42807" lon="-0.18566">
        <ele>116</ele>
        <time>2020-05-30T20:39:44Z</time>
      </trkpt>
      <trkpt lat="46.42807" lon="-0.18566">
        <ele>116</ele>
        <time>2020-05-30T20:39:45Z</time>
      </trkpt>
      <trkpt lat="46.42808" lon="-0.18565">
        <ele>116</ele>
        <time>2020-05-30T20:39:46Z</time>
      </trkpt>
      <trkpt lat="46.42808" lon="-0.18565">
        <ele>116</ele>
        <time>2020-05-30T20:39:47Z</time>
      </trkpt>
      <trkpt lat="46.42808" lon="-0.18565">
        <ele>116</ele>
        <time>2020-05-30T20:39:48Z</time>
      </trkpt>
      <trkpt lat="46.42808" lon="-0.18565">
        <ele>116</ele>
        <time>2020-05-30T20:39:49Z</time>
      </trkpt>
      <trkpt lat="46.42808" lon="-0.18566">
        <ele>116</ele>
        <time>2020-05-30T20:39:50Z</time>
      </trkpt>
      <trkpt lat="46.42808" lon="-0.18566">
        <ele>116</ele>
        <time>2020-05-30T20:39:51Z</time>
      </trkpt>
      <trkpt lat="46.42808" lon="-0.18567">
        <ele>116</ele>
        <time>2020-05-30T20:39:52Z</time>
      </trkpt>
      <trkpt lat="46.42808" lon="-0.18567">
        <ele>116</ele>
        <time>2020-05-30T20:39:53Z</time>
      </trkpt>
      <trkpt lat="46.42808" lon="-0.18567">
        <ele>116</ele>
        <time>2020-05-30T20:39:54Z</time>
      </trkpt>
      <trkpt lat="46.42808" lon="-0.18569">
        <ele>116</ele>
        <time>2020-05-30T20:39:55Z</time>
      </trkpt>
      <trkpt lat="46.42808" lon="-0.18569">
        <ele>116</ele>
        <time>2020-05-30T20:39:56Z</time>
      </trkpt>
      <trkpt lat="46.42808" lon="-0.18569">
        <ele>116</ele>
        <time>2020-05-30T20:39:57Z</time>
      </trkpt>
      <trkpt lat="46.42809" lon="-0.18569">
        <ele>116</ele>
        <time>2020-05-30T20:39:58Z</time>
      </trkpt>
      <trkpt lat="46.42809" lon="-0.18569">
        <ele>116</ele>
        <time>2020-05-30T20:39:59Z</time>
      </trkpt>
      <trkpt lat="46.4281" lon="-0.18568">
        <ele>116</ele>
        <time>2020-05-30T20:40:00Z</time>
      </trkpt>
      <trkpt lat="46.42811" lon="-0.18567">
        <ele>116</ele>
        <time>2020-05-30T20:40:01Z</time>
      </trkpt>
      <trkpt lat="46.42812" lon="-0.18567">
        <ele>116</ele>
        <time>2020-05-30T20:40:02Z</time>
      </trkpt>
      <trkpt lat="46.42813" lon="-0.18567">
        <ele>116</ele>
        <time>2020-05-30T20:40:03Z</time>
      </trkpt>
      <trkpt lat="46.42813" lon="-0.18567">
        <ele>116</ele>
        <time>2020-05-30T20:40:04Z</time>
      </trkpt>
      <trkpt lat="46.42814" lon="-0.18568">
        <ele>116</ele>
        <time>2020-05-30T20:40:05Z</time>
      </trkpt>
      <trkpt lat="46.42814" lon="-0.18568">
        <ele>116</ele>
        <time>2020-05-30T20:40:06Z</time>
      </trkpt>
      <trkpt lat="46.42814" lon="-0.18569">
        <ele>116</ele>
        <time>2020-05-30T20:40:07Z</time>
      </trkpt>
      <trkpt lat="46.42814" lon="-0.18569">
        <ele>116</ele>
        <time>2020-05-30T20:40:08Z</time>
      </trkpt>
      <trkpt lat="46.42814" lon="-0.18569">
        <ele>116</ele>
        <time>2020-05-30T20:40:09Z</time>
      </trkpt>
      <trkpt lat="46.42814" lon="-0.18569">
        <ele>116</ele>
        <time>2020-05-30T20:40:10Z</time>
      </trkpt>
      <trkpt lat="46.42814" lon="-0.18569">
        <ele>116</ele>
        <time>2020-05-30T20:40:11Z</time>
      </trkpt>
      <trkpt lat="46.42815" lon="-0.18568">
        <ele>116</ele>
        <time>2020-05-30T20:40:12Z</time>
      </trkpt>
      <trkpt lat="46.42815" lon="-0.18568">
        <ele>116</ele>
        <time>2020-05-30T20:40:13Z</time>
      </trkpt>
      <trkpt lat="46.42815" lon="-0.18568">
        <ele>116</ele>
        <time>2020-05-30T20:40:14Z</time>
      </trkpt>
      <trkpt lat="46.42815" lon="-0.18568">
        <ele>116</ele>
        <time>2020-05-30T20:40:15Z</time>
      </trkpt>
      <trkpt lat="46.42815" lon="-0.18568">
        <ele>116</ele>
        <time>2020-05-30T20:40:16Z</time>
      </trkpt>
      <trkpt lat="46.42815" lon="-0.18568">
        <ele>116</ele>
        <time>2020-05-30T20:40:17Z</time>
      </trkpt>
      <trkpt lat="46.42815" lon="-0.18568">
        <ele>116</ele>
        <time>2020-05-30T20:40:18Z</time>
      </trkpt>
      <trkpt lat="46.42815" lon="-0.18567">
        <ele>116</ele>
        <time>2020-05-30T20:40:19Z</time>
      </trkpt>
      <trkpt lat="46.42815" lon="-0.18568">
        <ele>116</ele>
        <time>2020-05-30T20:40:20Z</time>
      </trkpt>
      <trkpt lat="46.42815" lon="-0.18569">
        <ele>116</ele>
        <time>2020-05-30T20:40:21Z</time>
      </trkpt>
      <trkpt lat="46.42815" lon="-0.18569">
        <ele>116</ele>
        <time>2020-05-30T20:40:22Z</time>
      </trkpt>
      <trkpt lat="46.42815" lon="-0.18569">
        <ele>116</ele>
        <time>2020-05-30T20:40:23Z</time>
      </trkpt>
      <trkpt lat="46.42815" lon="-0.18569">
        <ele>116</ele>
        <time>2020-05-30T20:40:24Z</time>
      </trkpt>
      <trkpt lat="46.42815" lon="-0.18569">
        <ele>116</ele>
        <time>2020-05-30T20:40:25Z</time>
      </trkpt>
      <trkpt lat="46.42815" lon="-0.18569">
        <ele>116</ele>
        <time>2020-05-30T20:40:26Z</time>
      </trkpt>
      <trkpt lat="46.42815" lon="-0.18569">
        <ele>116</ele>
        <time>2020-05-30T20:40:27Z</time>
      </trkpt>
      <trkpt lat="46.42815" lon="-0.18569">
        <ele>116</ele>
        <time>2020-05-30T20:40:28Z</time>
      </trkpt>
      <trkpt lat="46.42815" lon="-0.18569">
        <ele>116</ele>
        <time>2020-05-30T20:40:29Z</time>
      </trkpt>
      <trkpt lat="46.42814" lon="-0.18569">
        <ele>116</ele>
        <time>2020-05-30T20:40:30Z</time>
      </trkpt>
    </trkseg>
  </trk>
</gpx>